<?xml version='1.0' encoding='UTF-8'?><gpx version="1.1" creator="JPX - https://github.com/jenetics/jpx" xmlns="http://www.topografix.com/GPX/1/1"><trk><trkseg><trkpt lat="45.0332025" lon="7.5131915"><ele>298.0</ele><time>2026-05-03T06:24:55.973Z</time></trkpt><trkpt lat="45.033137" lon="7.5132543"><ele>298.0</ele><time>2026-05-03T06:25:27.98Z</time></trkpt><trkpt lat="45.0330756" lon="7.5133434"><ele>298.0</ele><time>2026-05-03T06:25:30.985Z</time></trkpt><trkpt lat="45.0330817" lon="7.5134949"><ele>298.0</ele><time>2026-05-03T06:25:32.986Z</time></trkpt><trkpt lat="45.0330961" lon="7.5136371"><ele>298.0</ele><time>2026-05-03T06:25:34.987Z</time></trkpt><trkpt lat="45.0331228" lon="7.5137683"><ele>297.6</ele><time>2026-05-03T06:25:36.995Z</time></trkpt><trkpt lat="45.0331223" lon="7.5139156"><ele>297.20000000000005</ele><time>2026-05-03T06:25:38.992Z</time></trkpt><trkpt lat="45.033084" lon="7.5140273"><ele>296.8</ele><time>2026-05-03T06:25:39.995Z</time></trkpt><trkpt lat="45.0330539" lon="7.5141512"><ele>296.40000000000003</ele><time>2026-05-03T06:25:40.991Z</time></trkpt><trkpt lat="45.0330337" lon="7.5142816"><ele>296.0</ele><time>2026-05-03T06:25:41.989Z</time></trkpt><trkpt lat="45.0330092" lon="7.5144125"><ele>296.0</ele><time>2026-05-03T06:25:42.991Z</time></trkpt><trkpt lat="45.0329899" lon="7.5145498"><ele>296.0</ele><time>2026-05-03T06:25:43.985Z</time></trkpt><trkpt lat="45.0329734" lon="7.5146825"><ele>296.0</ele><time>2026-05-03T06:25:44.999Z</time></trkpt><trkpt lat="45.0329721" lon="7.51481"><ele>296.0</ele><time>2026-05-03T06:25:45.991Z</time></trkpt><trkpt lat="45.0329699" lon="7.514932"><ele>296.0</ele><time>2026-05-03T06:25:46.985Z</time></trkpt><trkpt lat="45.0329663" lon="7.5150535"><ele>295.8</ele><time>2026-05-03T06:25:47.998Z</time></trkpt><trkpt lat="45.0329639" lon="7.5151871"><ele>295.6</ele><time>2026-05-03T06:25:48.985Z</time></trkpt><trkpt lat="45.0329601" lon="7.5153314"><ele>295.4</ele><time>2026-05-03T06:25:49.984Z</time></trkpt><trkpt lat="45.0329571" lon="7.5154852"><ele>295.2</ele><time>2026-05-03T06:25:50.996Z</time></trkpt><trkpt lat="45.032954" lon="7.5156357"><ele>295.0</ele><time>2026-05-03T06:25:51.994Z</time></trkpt><trkpt lat="45.0329513" lon="7.5157841"><ele>294.5</ele><time>2026-05-03T06:25:52.992Z</time></trkpt><trkpt lat="45.032934" lon="7.5159136"><ele>294.0</ele><time>2026-05-03T06:25:53.996Z</time></trkpt><trkpt lat="45.0328999" lon="7.5160297"><ele>293.5</ele><time>2026-05-03T06:25:54.994Z</time></trkpt><trkpt lat="45.0328401" lon="7.5160999"><ele>293.0</ele><time>2026-05-03T06:25:55.998Z</time></trkpt><trkpt lat="45.0327515" lon="7.5161318"><ele>292.5</ele><time>2026-05-03T06:25:56.991Z</time></trkpt><trkpt lat="45.0326538" lon="7.5161431"><ele>292.0</ele><time>2026-05-03T06:25:57.987Z</time></trkpt><trkpt lat="45.0325488" lon="7.5161327"><ele>291.25</ele><time>2026-05-03T06:25:59.001Z</time></trkpt><trkpt lat="45.0324396" lon="7.5161266"><ele>290.5</ele><time>2026-05-03T06:25:59.999Z</time></trkpt><trkpt lat="45.0323127" lon="7.5161282"><ele>289.75</ele><time>2026-05-03T06:26:00.986Z</time></trkpt><trkpt lat="45.0321798" lon="7.5161402"><ele>289.0</ele><time>2026-05-03T06:26:01.991Z</time></trkpt><trkpt lat="45.032062" lon="7.5161549"><ele>289.0</ele><time>2026-05-03T06:26:02.993Z</time></trkpt><trkpt lat="45.0319563" lon="7.5161797"><ele>289.0</ele><time>2026-05-03T06:26:03.996Z</time></trkpt><trkpt lat="45.0318627" lon="7.5162018"><ele>289.0</ele><time>2026-05-03T06:26:04.993Z</time></trkpt><trkpt lat="45.0317848" lon="7.5162294"><ele>289.0</ele><time>2026-05-03T06:26:05.995Z</time></trkpt><trkpt lat="45.0317003" lon="7.516252"><ele>289.0</ele><time>2026-05-03T06:26:06.996Z</time></trkpt><trkpt lat="45.031617" lon="7.5162733"><ele>288.59999999999997</ele><time>2026-05-03T06:26:07.985Z</time></trkpt><trkpt lat="45.031528" lon="7.5163064"><ele>288.2</ele><time>2026-05-03T06:26:08.991Z</time></trkpt><trkpt lat="45.0314377" lon="7.5163352"><ele>287.79999999999995</ele><time>2026-05-03T06:26:09.988Z</time></trkpt><trkpt lat="45.0313398" lon="7.5163672"><ele>287.4</ele><time>2026-05-03T06:26:10.993Z</time></trkpt><trkpt lat="45.0312451" lon="7.5163996"><ele>287.0</ele><time>2026-05-03T06:26:11.989Z</time></trkpt><trkpt lat="45.0311501" lon="7.5164189"><ele>287.0</ele><time>2026-05-03T06:26:12.991Z</time></trkpt><trkpt lat="45.0310531" lon="7.5164292"><ele>287.0</ele><time>2026-05-03T06:26:13.985Z</time></trkpt><trkpt lat="45.0309472" lon="7.5164386"><ele>287.0</ele><time>2026-05-03T06:26:14.994Z</time></trkpt><trkpt lat="45.0308435" lon="7.516478"><ele>287.0</ele><time>2026-05-03T06:26:15.984Z</time></trkpt><trkpt lat="45.0307379" lon="7.5165266"><ele>287.0</ele><time>2026-05-03T06:26:16.993Z</time></trkpt><trkpt lat="45.0306231" lon="7.5165572"><ele>287.25</ele><time>2026-05-03T06:26:17.991Z</time></trkpt><trkpt lat="45.030496" lon="7.5165724"><ele>287.5</ele><time>2026-05-03T06:26:18.991Z</time></trkpt><trkpt lat="45.0303784" lon="7.5165787"><ele>287.75</ele><time>2026-05-03T06:26:19.984Z</time></trkpt><trkpt lat="45.030263" lon="7.5165835"><ele>288.0</ele><time>2026-05-03T06:26:20.99Z</time></trkpt><trkpt lat="45.0301442" lon="7.5165817"><ele>288.0</ele><time>2026-05-03T06:26:21.992Z</time></trkpt><trkpt lat="45.0299202" lon="7.5165824"><ele>288.0</ele><time>2026-05-03T06:26:23.989Z</time></trkpt><trkpt lat="45.029819" lon="7.5165892"><ele>288.0</ele><time>2026-05-03T06:26:24.985Z</time></trkpt><trkpt lat="45.029717" lon="7.51659"><ele>288.0</ele><time>2026-05-03T06:26:25.99Z</time></trkpt><trkpt lat="45.0296211" lon="7.5165901"><ele>288.0</ele><time>2026-05-03T06:26:26.996Z</time></trkpt><trkpt lat="45.0295241" lon="7.5165899"><ele>288.0</ele><time>2026-05-03T06:26:27.991Z</time></trkpt><trkpt lat="45.0294202" lon="7.516585"><ele>288.0</ele><time>2026-05-03T06:26:28.995Z</time></trkpt><trkpt lat="45.0293096" lon="7.5165872"><ele>288.0</ele><time>2026-05-03T06:26:29.988Z</time></trkpt><trkpt lat="45.0292018" lon="7.5165897"><ele>288.0</ele><time>2026-05-03T06:26:30.99Z</time></trkpt><trkpt lat="45.029092" lon="7.5166116"><ele>288.25</ele><time>2026-05-03T06:26:31.992Z</time></trkpt><trkpt lat="45.0289768" lon="7.5166612"><ele>288.5</ele><time>2026-05-03T06:26:32.992Z</time></trkpt><trkpt lat="45.0288672" lon="7.516721"><ele>288.75</ele><time>2026-05-03T06:26:33.986Z</time></trkpt><trkpt lat="45.0287551" lon="7.5167859"><ele>289.0</ele><time>2026-05-03T06:26:35.003Z</time></trkpt><trkpt lat="45.0286353" lon="7.5168453"><ele>289.0</ele><time>2026-05-03T06:26:35.99Z</time></trkpt><trkpt lat="45.0285056" lon="7.516886"><ele>289.0</ele><time>2026-05-03T06:26:36.99Z</time></trkpt><trkpt lat="45.0283756" lon="7.5169102"><ele>289.0</ele><time>2026-05-03T06:26:37.985Z</time></trkpt><trkpt lat="45.0282558" lon="7.5169231"><ele>289.0</ele><time>2026-05-03T06:26:39.001Z</time></trkpt><trkpt lat="45.0281403" lon="7.5169341"><ele>288.8</ele><time>2026-05-03T06:26:39.987Z</time></trkpt><trkpt lat="45.0280265" lon="7.5169338"><ele>288.59999999999997</ele><time>2026-05-03T06:26:40.995Z</time></trkpt><trkpt lat="45.0279233" lon="7.5169328"><ele>288.4</ele><time>2026-05-03T06:26:41.986Z</time></trkpt><trkpt lat="45.0278498" lon="7.5169367"><ele>288.2</ele><time>2026-05-03T06:26:42.988Z</time></trkpt><trkpt lat="45.0277692" lon="7.5170237"><ele>288.0</ele><time>2026-05-03T06:26:44.984Z</time></trkpt><trkpt lat="45.0277933" lon="7.5171924"><ele>287.6</ele><time>2026-05-03T06:26:46.986Z</time></trkpt><trkpt lat="45.0278375" lon="7.5173037"><ele>287.20000000000005</ele><time>2026-05-03T06:26:47.991Z</time></trkpt><trkpt lat="45.0278953" lon="7.5174328"><ele>286.8</ele><time>2026-05-03T06:26:48.987Z</time></trkpt><trkpt lat="45.0279594" lon="7.5175735"><ele>286.40000000000003</ele><time>2026-05-03T06:26:49.988Z</time></trkpt><trkpt lat="45.0280126" lon="7.5177215"><ele>286.0</ele><time>2026-05-03T06:26:50.984Z</time></trkpt><trkpt lat="45.0280692" lon="7.5178807"><ele>286.0</ele><time>2026-05-03T06:26:51.994Z</time></trkpt><trkpt lat="45.0281301" lon="7.5180386"><ele>286.0</ele><time>2026-05-03T06:26:52.988Z</time></trkpt><trkpt lat="45.0281867" lon="7.5181951"><ele>286.0</ele><time>2026-05-03T06:26:53.989Z</time></trkpt><trkpt lat="45.0282445" lon="7.5183509"><ele>286.0</ele><time>2026-05-03T06:26:54.996Z</time></trkpt><trkpt lat="45.0282955" lon="7.5185018"><ele>286.2</ele><time>2026-05-03T06:26:55.997Z</time></trkpt><trkpt lat="45.0283556" lon="7.51864"><ele>286.40000000000003</ele><time>2026-05-03T06:26:56.993Z</time></trkpt><trkpt lat="45.0284039" lon="7.5187596"><ele>286.6</ele><time>2026-05-03T06:26:57.999Z</time></trkpt><trkpt lat="45.0284533" lon="7.5188785"><ele>286.8</ele><time>2026-05-03T06:26:58.994Z</time></trkpt><trkpt lat="45.0285047" lon="7.5189996"><ele>287.0</ele><time>2026-05-03T06:26:59.999Z</time></trkpt><trkpt lat="45.0285612" lon="7.5191331"><ele>286.5</ele><time>2026-05-03T06:27:00.993Z</time></trkpt><trkpt lat="45.0286182" lon="7.5192843"><ele>286.0</ele><time>2026-05-03T06:27:01.994Z</time></trkpt><trkpt lat="45.0286739" lon="7.5194486"><ele>285.5</ele><time>2026-05-03T06:27:02.994Z</time></trkpt><trkpt lat="45.0287369" lon="7.519605"><ele>285.0</ele><time>2026-05-03T06:27:03.991Z</time></trkpt><trkpt lat="45.0288018" lon="7.5197632"><ele>285.0</ele><time>2026-05-03T06:27:04.994Z</time></trkpt><trkpt lat="45.0288527" lon="7.5199232"><ele>285.0</ele><time>2026-05-03T06:27:05.995Z</time></trkpt><trkpt lat="45.0289057" lon="7.5200658"><ele>285.0</ele><time>2026-05-03T06:27:06.995Z</time></trkpt><trkpt lat="45.0289568" lon="7.5201987"><ele>285.0</ele><time>2026-05-03T06:27:07.99Z</time></trkpt><trkpt lat="45.0289961" lon="7.5203267"><ele>285.0</ele><time>2026-05-03T06:27:08.993Z</time></trkpt><trkpt lat="45.0290363" lon="7.5204485"><ele>284.75</ele><time>2026-05-03T06:27:09.998Z</time></trkpt><trkpt lat="45.0290818" lon="7.5205786"><ele>284.5</ele><time>2026-05-03T06:27:10.996Z</time></trkpt><trkpt lat="45.0291299" lon="7.5207155"><ele>284.25</ele><time>2026-05-03T06:27:11.993Z</time></trkpt><trkpt lat="45.0291835" lon="7.5208715"><ele>284.0</ele><time>2026-05-03T06:27:12.99Z</time></trkpt><trkpt lat="45.0292434" lon="7.5210276"><ele>284.0</ele><time>2026-05-03T06:27:13.999Z</time></trkpt><trkpt lat="45.0293089" lon="7.5211882"><ele>284.0</ele><time>2026-05-03T06:27:14.987Z</time></trkpt><trkpt lat="45.0293658" lon="7.521343"><ele>284.0</ele><time>2026-05-03T06:27:15.982Z</time></trkpt><trkpt lat="45.0294162" lon="7.5214861"><ele>284.0</ele><time>2026-05-03T06:27:17Z</time></trkpt><trkpt lat="45.0294826" lon="7.5216249"><ele>284.0</ele><time>2026-05-03T06:27:18.003Z</time></trkpt><trkpt lat="45.0295301" lon="7.5217506"><ele>284.0</ele><time>2026-05-03T06:27:19.017Z</time></trkpt><trkpt lat="45.0295679" lon="7.5218492"><ele>284.0</ele><time>2026-05-03T06:27:20.032Z</time></trkpt><trkpt lat="45.0295986" lon="7.5219342"><ele>284.0</ele><time>2026-05-03T06:27:20.997Z</time></trkpt><trkpt lat="45.029688" lon="7.522073"><ele>284.0</ele><time>2026-05-03T06:27:23.025Z</time></trkpt><trkpt lat="45.029759" lon="7.5221394"><ele>284.0</ele><time>2026-05-03T06:27:24.047Z</time></trkpt><trkpt lat="45.0298298" lon="7.522188"><ele>284.0</ele><time>2026-05-03T06:27:25.025Z</time></trkpt><trkpt lat="45.029901" lon="7.5222046"><ele>284.0</ele><time>2026-05-03T06:27:26.062Z</time></trkpt><trkpt lat="45.0299835" lon="7.5222728"><ele>284.0</ele><time>2026-05-03T06:27:27.999Z</time></trkpt><trkpt lat="45.0299856" lon="7.5223937"><ele>284.0</ele><time>2026-05-03T06:27:30.036Z</time></trkpt><trkpt lat="45.0299637" lon="7.5224816"><ele>284.0</ele><time>2026-05-03T06:27:31.043Z</time></trkpt><trkpt lat="45.0299277" lon="7.5226071"><ele>284.0</ele><time>2026-05-03T06:27:32.026Z</time></trkpt><trkpt lat="45.0299037" lon="7.5227236"><ele>284.0</ele><time>2026-05-03T06:27:33.014Z</time></trkpt><trkpt lat="45.0298774" lon="7.5228376"><ele>284.0</ele><time>2026-05-03T06:27:34.043Z</time></trkpt><trkpt lat="45.0298322" lon="7.5229262"><ele>284.0</ele><time>2026-05-03T06:27:35.039Z</time></trkpt><trkpt lat="45.0297614" lon="7.523"><ele>284.0</ele><time>2026-05-03T06:27:36.043Z</time></trkpt><trkpt lat="45.0296811" lon="7.5230828"><ele>284.0</ele><time>2026-05-03T06:27:37.012Z</time></trkpt><trkpt lat="45.0295978" lon="7.5231728"><ele>284.1666666666667</ele><time>2026-05-03T06:27:38.021Z</time></trkpt><trkpt lat="45.0295222" lon="7.5232592"><ele>284.33333333333337</ele><time>2026-05-03T06:27:39.054Z</time></trkpt><trkpt lat="45.0294576" lon="7.5233296"><ele>284.5</ele><time>2026-05-03T06:27:40.035Z</time></trkpt><trkpt lat="45.0294005" lon="7.5234047"><ele>284.6666666666667</ele><time>2026-05-03T06:27:41.063Z</time></trkpt><trkpt lat="45.0293511" lon="7.5234745"><ele>284.8333333333333</ele><time>2026-05-03T06:27:42.043Z</time></trkpt><trkpt lat="45.0293518" lon="7.5236113"><ele>285.0</ele><time>2026-05-03T06:27:44.027Z</time></trkpt><trkpt lat="45.0293971" lon="7.523675"><ele>285.0</ele><time>2026-05-03T06:27:45.026Z</time></trkpt><trkpt lat="45.0294755" lon="7.5237062"><ele>285.0</ele><time>2026-05-03T06:27:46.043Z</time></trkpt><trkpt lat="45.0295802" lon="7.5237345"><ele>285.0</ele><time>2026-05-03T06:27:47.025Z</time></trkpt><trkpt lat="45.0296892" lon="7.5237759"><ele>285.0</ele><time>2026-05-03T06:27:48.042Z</time></trkpt><trkpt lat="45.0298047" lon="7.5238188"><ele>285.0</ele><time>2026-05-03T06:27:49.027Z</time></trkpt><trkpt lat="45.0299179" lon="7.5238702"><ele>285.0</ele><time>2026-05-03T06:27:50.044Z</time></trkpt><trkpt lat="45.0300258" lon="7.5239111"><ele>285.0</ele><time>2026-05-03T06:27:51.046Z</time></trkpt><trkpt lat="45.0301316" lon="7.5239382"><ele>285.0</ele><time>2026-05-03T06:27:52.05Z</time></trkpt><trkpt lat="45.0302311" lon="7.5239883"><ele>285.0</ele><time>2026-05-03T06:27:53.032Z</time></trkpt><trkpt lat="45.0303223" lon="7.5240225"><ele>285.0</ele><time>2026-05-03T06:27:54.048Z</time></trkpt><trkpt lat="45.0303998" lon="7.5240615"><ele>285.0</ele><time>2026-05-03T06:27:55.053Z</time></trkpt><trkpt lat="45.0304656" lon="7.5240895"><ele>285.0</ele><time>2026-05-03T06:27:56.036Z</time></trkpt><trkpt lat="45.0305349" lon="7.5241143"><ele>285.0</ele><time>2026-05-03T06:27:58.028Z</time></trkpt><trkpt lat="45.0306049" lon="7.524155"><ele>285.0</ele><time>2026-05-03T06:28:00.039Z</time></trkpt><trkpt lat="45.0307098" lon="7.5242318"><ele>285.0</ele><time>2026-05-03T06:28:02.04Z</time></trkpt><trkpt lat="45.0307783" lon="7.5242841"><ele>285.0</ele><time>2026-05-03T06:28:03.024Z</time></trkpt><trkpt lat="45.0308505" lon="7.5243543"><ele>285.4</ele><time>2026-05-03T06:28:04.046Z</time></trkpt><trkpt lat="45.0309367" lon="7.5244358"><ele>285.8</ele><time>2026-05-03T06:28:05.015Z</time></trkpt><trkpt lat="45.0310226" lon="7.5245315"><ele>286.2</ele><time>2026-05-03T06:28:06.042Z</time></trkpt><trkpt lat="45.0311106" lon="7.5246114"><ele>286.6</ele><time>2026-05-03T06:28:07.013Z</time></trkpt><trkpt lat="45.0311938" lon="7.5246979"><ele>287.0</ele><time>2026-05-03T06:28:08.038Z</time></trkpt><trkpt lat="45.0312629" lon="7.5247654"><ele>287.0</ele><time>2026-05-03T06:28:09.032Z</time></trkpt><trkpt lat="45.0313269" lon="7.5248287"><ele>287.0</ele><time>2026-05-03T06:28:10.03Z</time></trkpt><trkpt lat="45.0313791" lon="7.5249008"><ele>287.0</ele><time>2026-05-03T06:28:11.028Z</time></trkpt><trkpt lat="45.0314179" lon="7.524973"><ele>287.0</ele><time>2026-05-03T06:28:12.066Z</time></trkpt><trkpt lat="45.0314754" lon="7.5250868"><ele>287.0</ele><time>2026-05-03T06:28:14.05Z</time></trkpt><trkpt lat="45.0315156" lon="7.5251728"><ele>287.0</ele><time>2026-05-03T06:28:16Z</time></trkpt><trkpt lat="45.0315462" lon="7.525263"><ele>287.0</ele><time>2026-05-03T06:28:19.01Z</time></trkpt><trkpt lat="45.0316162" lon="7.5253985"><ele>287.0</ele><time>2026-05-03T06:28:46.998Z</time></trkpt><trkpt lat="45.0316843" lon="7.5254565"><ele>287.0</ele><time>2026-05-03T06:28:48.002Z</time></trkpt><trkpt lat="45.0317738" lon="7.5255083"><ele>287.0</ele><time>2026-05-03T06:28:48.998Z</time></trkpt><trkpt lat="45.0318732" lon="7.5255313"><ele>287.0</ele><time>2026-05-03T06:28:50Z</time></trkpt><trkpt lat="45.0319801" lon="7.525531"><ele>287.0</ele><time>2026-05-03T06:28:50.994Z</time></trkpt><trkpt lat="45.0320788" lon="7.5255449"><ele>287.0</ele><time>2026-05-03T06:28:51.992Z</time></trkpt><trkpt lat="45.0321497" lon="7.5255802"><ele>287.0</ele><time>2026-05-03T06:28:52.992Z</time></trkpt><trkpt lat="45.0322299" lon="7.5257107"><ele>287.0</ele><time>2026-05-03T06:28:54.99Z</time></trkpt><trkpt lat="45.0323018" lon="7.5258095"><ele>287.0</ele><time>2026-05-03T06:28:57Z</time></trkpt><trkpt lat="45.0323773" lon="7.5258044"><ele>287.0</ele><time>2026-05-03T06:28:58.992Z</time></trkpt><trkpt lat="45.0324422" lon="7.5258184"><ele>287.0</ele><time>2026-05-03T06:29:01.001Z</time></trkpt><trkpt lat="45.0325058" lon="7.5258138"><ele>287.0</ele><time>2026-05-03T06:32:04.992Z</time></trkpt><trkpt lat="45.0325582" lon="7.525743"><ele>287.0</ele><time>2026-05-03T06:32:06.994Z</time></trkpt><trkpt lat="45.032515" lon="7.5256376"><ele>287.0</ele><time>2026-05-03T06:32:11.981Z</time></trkpt><trkpt lat="45.0324517" lon="7.5255988"><ele>287.0</ele><time>2026-05-03T06:32:12.987Z</time></trkpt><trkpt lat="45.0323742" lon="7.5255662"><ele>287.0</ele><time>2026-05-03T06:32:13.993Z</time></trkpt><trkpt lat="45.0322787" lon="7.5255426"><ele>287.0</ele><time>2026-05-03T06:32:15.002Z</time></trkpt><trkpt lat="45.0321862" lon="7.5255275"><ele>287.0</ele><time>2026-05-03T06:32:15.995Z</time></trkpt><trkpt lat="45.0320976" lon="7.5255114"><ele>287.0</ele><time>2026-05-03T06:32:16.991Z</time></trkpt><trkpt lat="45.0320007" lon="7.5254932"><ele>287.0</ele><time>2026-05-03T06:32:17.996Z</time></trkpt><trkpt lat="45.0319032" lon="7.5254742"><ele>287.0</ele><time>2026-05-03T06:32:18.994Z</time></trkpt><trkpt lat="45.0318188" lon="7.5254545"><ele>287.0</ele><time>2026-05-03T06:32:19.996Z</time></trkpt><trkpt lat="45.0317501" lon="7.5254518"><ele>287.0</ele><time>2026-05-03T06:32:20.988Z</time></trkpt><trkpt lat="45.0316752" lon="7.5255779"><ele>287.0</ele><time>2026-05-03T06:32:22.983Z</time></trkpt><trkpt lat="45.0316721" lon="7.5256903"><ele>287.0</ele><time>2026-05-03T06:32:23.992Z</time></trkpt><trkpt lat="45.0316839" lon="7.5258162"><ele>287.0</ele><time>2026-05-03T06:32:24.991Z</time></trkpt><trkpt lat="45.0317097" lon="7.5259704"><ele>287.0</ele><time>2026-05-03T06:32:25.989Z</time></trkpt><trkpt lat="45.031734" lon="7.5261227"><ele>287.0</ele><time>2026-05-03T06:32:26.988Z</time></trkpt><trkpt lat="45.0317566" lon="7.5262953"><ele>287.0</ele><time>2026-05-03T06:32:27.993Z</time></trkpt><trkpt lat="45.0317924" lon="7.5264679"><ele>287.0</ele><time>2026-05-03T06:32:28.988Z</time></trkpt><trkpt lat="45.0318421" lon="7.5266471"><ele>287.25</ele><time>2026-05-03T06:32:29.997Z</time></trkpt><trkpt lat="45.0319036" lon="7.5268227"><ele>287.5</ele><time>2026-05-03T06:32:30.999Z</time></trkpt><trkpt lat="45.0319756" lon="7.526995"><ele>287.75</ele><time>2026-05-03T06:32:31.995Z</time></trkpt><trkpt lat="45.0320471" lon="7.5271739"><ele>288.0</ele><time>2026-05-03T06:32:32.991Z</time></trkpt><trkpt lat="45.0320897" lon="7.5273704"><ele>288.75</ele><time>2026-05-03T06:32:33.992Z</time></trkpt><trkpt lat="45.0321091" lon="7.5275707"><ele>289.5</ele><time>2026-05-03T06:32:34.986Z</time></trkpt><trkpt lat="45.0321063" lon="7.5277765"><ele>290.25</ele><time>2026-05-03T06:32:36.001Z</time></trkpt><trkpt lat="45.032084" lon="7.5279995"><ele>291.0</ele><time>2026-05-03T06:32:36.986Z</time></trkpt><trkpt lat="45.032049" lon="7.5282149"><ele>292.6666666666667</ele><time>2026-05-03T06:32:37.989Z</time></trkpt><trkpt lat="45.031999" lon="7.528433"><ele>294.33333333333337</ele><time>2026-05-03T06:32:38.991Z</time></trkpt><trkpt lat="45.0319459" lon="7.5286388"><ele>296.0</ele><time>2026-05-03T06:32:39.988Z</time></trkpt><trkpt lat="45.0318905" lon="7.5288486"><ele>296.0</ele><time>2026-05-03T06:32:40.989Z</time></trkpt><trkpt lat="45.0318447" lon="7.5290693"><ele>296.0</ele><time>2026-05-03T06:32:41.987Z</time></trkpt><trkpt lat="45.0317952" lon="7.5292909"><ele>296.0</ele><time>2026-05-03T06:32:42.991Z</time></trkpt><trkpt lat="45.0317506" lon="7.5295178"><ele>296.0</ele><time>2026-05-03T06:32:43.987Z</time></trkpt><trkpt lat="45.0317011" lon="7.5297614"><ele>296.0</ele><time>2026-05-03T06:32:44.983Z</time></trkpt><trkpt lat="45.0316525" lon="7.5300088"><ele>296.0</ele><time>2026-05-03T06:32:45.985Z</time></trkpt><trkpt lat="45.031604" lon="7.5302482"><ele>295.0</ele><time>2026-05-03T06:32:46.988Z</time></trkpt><trkpt lat="45.031542" lon="7.5304796"><ele>294.0</ele><time>2026-05-03T06:32:47.987Z</time></trkpt><trkpt lat="45.0314714" lon="7.5307034"><ele>293.0</ele><time>2026-05-03T06:32:48.987Z</time></trkpt><trkpt lat="45.0313993" lon="7.5309024"><ele>293.0</ele><time>2026-05-03T06:32:49.986Z</time></trkpt><trkpt lat="45.0313391" lon="7.5310823"><ele>293.0</ele><time>2026-05-03T06:32:50.996Z</time></trkpt><trkpt lat="45.0313109" lon="7.5312435"><ele>293.0</ele><time>2026-05-03T06:32:51.991Z</time></trkpt><trkpt lat="45.031319" lon="7.531392"><ele>293.0</ele><time>2026-05-03T06:32:52.986Z</time></trkpt><trkpt lat="45.0313627" lon="7.5315191"><ele>293.0</ele><time>2026-05-03T06:32:53.989Z</time></trkpt><trkpt lat="45.0314683" lon="7.5316272"><ele>293.0</ele><time>2026-05-03T06:32:54.984Z</time></trkpt><trkpt lat="45.0316072" lon="7.531738"><ele>293.0</ele><time>2026-05-03T06:32:55.99Z</time></trkpt><trkpt lat="45.0317518" lon="7.5318524"><ele>293.33333333333337</ele><time>2026-05-03T06:32:56.986Z</time></trkpt><trkpt lat="45.0318962" lon="7.5319797"><ele>293.6666666666667</ele><time>2026-05-03T06:32:57.985Z</time></trkpt><trkpt lat="45.032026" lon="7.5321209"><ele>294.0</ele><time>2026-05-03T06:32:58.984Z</time></trkpt><trkpt lat="45.0321368" lon="7.5322903"><ele>294.0</ele><time>2026-05-03T06:32:59.988Z</time></trkpt><trkpt lat="45.0322383" lon="7.5324721"><ele>294.0</ele><time>2026-05-03T06:33:00.993Z</time></trkpt><trkpt lat="45.0323343" lon="7.5326801"><ele>294.0</ele><time>2026-05-03T06:33:01.987Z</time></trkpt><trkpt lat="45.0324306" lon="7.5329039"><ele>293.6666666666667</ele><time>2026-05-03T06:33:02.989Z</time></trkpt><trkpt lat="45.0325325" lon="7.533132"><ele>293.33333333333337</ele><time>2026-05-03T06:33:04.003Z</time></trkpt><trkpt lat="45.032629" lon="7.5333549"><ele>293.0</ele><time>2026-05-03T06:33:04.99Z</time></trkpt><trkpt lat="45.0327283" lon="7.5335765"><ele>293.0</ele><time>2026-05-03T06:33:05.987Z</time></trkpt><trkpt lat="45.0328268" lon="7.5337997"><ele>293.0</ele><time>2026-05-03T06:33:06.99Z</time></trkpt><trkpt lat="45.0329248" lon="7.5340252"><ele>293.0</ele><time>2026-05-03T06:33:07.985Z</time></trkpt><trkpt lat="45.0330214" lon="7.5342636"><ele>293.0</ele><time>2026-05-03T06:33:08.991Z</time></trkpt><trkpt lat="45.0331224" lon="7.534504"><ele>293.0</ele><time>2026-05-03T06:33:09.986Z</time></trkpt><trkpt lat="45.0332202" lon="7.534739"><ele>293.0</ele><time>2026-05-03T06:33:10.997Z</time></trkpt><trkpt lat="45.033313" lon="7.5349688"><ele>292.33333333333337</ele><time>2026-05-03T06:33:11.986Z</time></trkpt><trkpt lat="45.0334106" lon="7.5352058"><ele>291.6666666666667</ele><time>2026-05-03T06:33:13.004Z</time></trkpt><trkpt lat="45.0334945" lon="7.5354478"><ele>291.0</ele><time>2026-05-03T06:33:13.99Z</time></trkpt><trkpt lat="45.0335542" lon="7.5357104"><ele>290.0</ele><time>2026-05-03T06:33:14.997Z</time></trkpt><trkpt lat="45.0335808" lon="7.53597"><ele>289.0</ele><time>2026-05-03T06:33:15.99Z</time></trkpt><trkpt lat="45.0335807" lon="7.5362473"><ele>288.0</ele><time>2026-05-03T06:33:16.985Z</time></trkpt><trkpt lat="45.0335577" lon="7.536528"><ele>287.3333333333333</ele><time>2026-05-03T06:33:17.988Z</time></trkpt><trkpt lat="45.0335248" lon="7.5368139"><ele>286.66666666666663</ele><time>2026-05-03T06:33:18.986Z</time></trkpt><trkpt lat="45.0334941" lon="7.5371063"><ele>286.0</ele><time>2026-05-03T06:33:19.982Z</time></trkpt><trkpt lat="45.0334684" lon="7.5373969"><ele>285.3333333333333</ele><time>2026-05-03T06:33:20.99Z</time></trkpt><trkpt lat="45.0334373" lon="7.5376941"><ele>284.6666666666667</ele><time>2026-05-03T06:33:21.993Z</time></trkpt><trkpt lat="45.0334078" lon="7.5380018"><ele>284.0</ele><time>2026-05-03T06:33:23.005Z</time></trkpt><trkpt lat="45.033374" lon="7.5383049"><ele>284.0</ele><time>2026-05-03T06:33:23.996Z</time></trkpt><trkpt lat="45.0333352" lon="7.5386027"><ele>284.0</ele><time>2026-05-03T06:33:24.991Z</time></trkpt><trkpt lat="45.0333066" lon="7.5389066"><ele>284.0</ele><time>2026-05-03T06:33:25.988Z</time></trkpt><trkpt lat="45.0332812" lon="7.5391961"><ele>283.6666666666667</ele><time>2026-05-03T06:33:26.995Z</time></trkpt><trkpt lat="45.0332746" lon="7.5394735"><ele>283.3333333333333</ele><time>2026-05-03T06:33:27.992Z</time></trkpt><trkpt lat="45.0332836" lon="7.5397524"><ele>283.0</ele><time>2026-05-03T06:33:28.992Z</time></trkpt><trkpt lat="45.0332809" lon="7.5400107"><ele>283.0</ele><time>2026-05-03T06:33:29.985Z</time></trkpt><trkpt lat="45.0332644" lon="7.5402598"><ele>283.0</ele><time>2026-05-03T06:33:30.994Z</time></trkpt><trkpt lat="45.0332217" lon="7.540498"><ele>283.0</ele><time>2026-05-03T06:33:31.989Z</time></trkpt><trkpt lat="45.033177" lon="7.5407205"><ele>284.3333333333333</ele><time>2026-05-03T06:33:32.987Z</time></trkpt><trkpt lat="45.0331479" lon="7.5409297"><ele>285.6666666666667</ele><time>2026-05-03T06:33:33.987Z</time></trkpt><trkpt lat="45.0331969" lon="7.5411358"><ele>287.0</ele><time>2026-05-03T06:33:34.988Z</time></trkpt><trkpt lat="45.033284" lon="7.5413228"><ele>288.0</ele><time>2026-05-03T06:33:35.994Z</time></trkpt><trkpt lat="45.0334083" lon="7.5414695"><ele>289.0</ele><time>2026-05-03T06:33:36.988Z</time></trkpt><trkpt lat="45.0335466" lon="7.5416173"><ele>290.0</ele><time>2026-05-03T06:33:37.993Z</time></trkpt><trkpt lat="45.0336863" lon="7.5417858"><ele>290.0</ele><time>2026-05-03T06:33:38.992Z</time></trkpt><trkpt lat="45.0338066" lon="7.5419707"><ele>290.0</ele><time>2026-05-03T06:33:39.985Z</time></trkpt><trkpt lat="45.0338915" lon="7.5421977"><ele>290.0</ele><time>2026-05-03T06:33:40.992Z</time></trkpt><trkpt lat="45.0339501" lon="7.5424573"><ele>290.0</ele><time>2026-05-03T06:33:41.987Z</time></trkpt><trkpt lat="45.0339882" lon="7.5427236"><ele>290.0</ele><time>2026-05-03T06:33:42.991Z</time></trkpt><trkpt lat="45.0340148" lon="7.542996"><ele>290.0</ele><time>2026-05-03T06:33:43.984Z</time></trkpt><trkpt lat="45.0340434" lon="7.5432752"><ele>290.0</ele><time>2026-05-03T06:33:44.984Z</time></trkpt><trkpt lat="45.0340828" lon="7.543556"><ele>290.0</ele><time>2026-05-03T06:33:45.987Z</time></trkpt><trkpt lat="45.0341397" lon="7.5438403"><ele>290.0</ele><time>2026-05-03T06:33:46.985Z</time></trkpt><trkpt lat="45.0342077" lon="7.5441243"><ele>290.0</ele><time>2026-05-03T06:33:47.984Z</time></trkpt><trkpt lat="45.0342806" lon="7.5444109"><ele>290.0</ele><time>2026-05-03T06:33:48.991Z</time></trkpt><trkpt lat="45.0343613" lon="7.5446875"><ele>290.0</ele><time>2026-05-03T06:33:49.991Z</time></trkpt><trkpt lat="45.0344347" lon="7.5449774"><ele>289.6666666666667</ele><time>2026-05-03T06:33:50.992Z</time></trkpt><trkpt lat="45.0344878" lon="7.54526"><ele>289.3333333333333</ele><time>2026-05-03T06:33:51.99Z</time></trkpt><trkpt lat="45.0345104" lon="7.5455464"><ele>289.0</ele><time>2026-05-03T06:33:52.991Z</time></trkpt><trkpt lat="45.034501" lon="7.5458321"><ele>289.66666666666663</ele><time>2026-05-03T06:33:53.987Z</time></trkpt><trkpt lat="45.0344405" lon="7.5461073"><ele>290.3333333333333</ele><time>2026-05-03T06:33:54.984Z</time></trkpt><trkpt lat="45.0343509" lon="7.5463612"><ele>291.0</ele><time>2026-05-03T06:33:55.988Z</time></trkpt><trkpt lat="45.0342455" lon="7.5466023"><ele>290.6666666666667</ele><time>2026-05-03T06:33:56.991Z</time></trkpt><trkpt lat="45.0341326" lon="7.5468479"><ele>290.33333333333337</ele><time>2026-05-03T06:33:57.989Z</time></trkpt><trkpt lat="45.0340188" lon="7.547095"><ele>290.0</ele><time>2026-05-03T06:33:58.99Z</time></trkpt><trkpt lat="45.0339018" lon="7.5473464"><ele>290.0</ele><time>2026-05-03T06:33:59.999Z</time></trkpt><trkpt lat="45.0337838" lon="7.547601"><ele>290.0</ele><time>2026-05-03T06:34:00.995Z</time></trkpt><trkpt lat="45.0336648" lon="7.5478591"><ele>290.0</ele><time>2026-05-03T06:34:01.99Z</time></trkpt><trkpt lat="45.0335467" lon="7.5481206"><ele>289.6666666666667</ele><time>2026-05-03T06:34:02.983Z</time></trkpt><trkpt lat="45.0334254" lon="7.5483864"><ele>289.3333333333333</ele><time>2026-05-03T06:34:03.987Z</time></trkpt><trkpt lat="45.0333028" lon="7.5486547"><ele>289.0</ele><time>2026-05-03T06:34:04.985Z</time></trkpt><trkpt lat="45.0331786" lon="7.5489273"><ele>288.5</ele><time>2026-05-03T06:34:05.989Z</time></trkpt><trkpt lat="45.0330516" lon="7.5491964"><ele>288.0</ele><time>2026-05-03T06:34:06.989Z</time></trkpt><trkpt lat="45.032932" lon="7.5494668"><ele>286.5</ele><time>2026-05-03T06:34:07.987Z</time></trkpt><trkpt lat="45.0328139" lon="7.5497406"><ele>285.0</ele><time>2026-05-03T06:34:08.988Z</time></trkpt><trkpt lat="45.032706" lon="7.5500226"><ele>285.0</ele><time>2026-05-03T06:34:09.995Z</time></trkpt><trkpt lat="45.0326147" lon="7.550317"><ele>285.0</ele><time>2026-05-03T06:34:10.984Z</time></trkpt><trkpt lat="45.0325423" lon="7.5506225"><ele>284.5</ele><time>2026-05-03T06:34:11.991Z</time></trkpt><trkpt lat="45.0324888" lon="7.5509407"><ele>284.0</ele><time>2026-05-03T06:34:12.994Z</time></trkpt><trkpt lat="45.0324552" lon="7.5512596"><ele>282.0</ele><time>2026-05-03T06:34:13.988Z</time></trkpt><trkpt lat="45.0324288" lon="7.5515851"><ele>280.0</ele><time>2026-05-03T06:34:14.992Z</time></trkpt><trkpt lat="45.0324014" lon="7.5519163"><ele>280.66666666666663</ele><time>2026-05-03T06:34:15.993Z</time></trkpt><trkpt lat="45.0323756" lon="7.5522265"><ele>281.3333333333333</ele><time>2026-05-03T06:34:16.991Z</time></trkpt><trkpt lat="45.0323515" lon="7.5525187"><ele>282.0</ele><time>2026-05-03T06:34:17.984Z</time></trkpt><trkpt lat="45.0323268" lon="7.5527963"><ele>281.3333333333333</ele><time>2026-05-03T06:34:18.989Z</time></trkpt><trkpt lat="45.0323046" lon="7.5530517"><ele>280.66666666666663</ele><time>2026-05-03T06:34:19.99Z</time></trkpt><trkpt lat="45.032277" lon="7.5532776"><ele>280.0</ele><time>2026-05-03T06:34:20.989Z</time></trkpt><trkpt lat="45.0322455" lon="7.5534754"><ele>280.0</ele><time>2026-05-03T06:34:21.993Z</time></trkpt><trkpt lat="45.0321893" lon="7.5536341"><ele>280.0</ele><time>2026-05-03T06:34:22.987Z</time></trkpt><trkpt lat="45.0321117" lon="7.5537492"><ele>280.0</ele><time>2026-05-03T06:34:23.999Z</time></trkpt><trkpt lat="45.0320229" lon="7.5538477"><ele>280.0</ele><time>2026-05-03T06:34:24.989Z</time></trkpt><trkpt lat="45.0319407" lon="7.5539466"><ele>280.0</ele><time>2026-05-03T06:34:25.994Z</time></trkpt><trkpt lat="45.0318876" lon="7.554085"><ele>280.0</ele><time>2026-05-03T06:34:26.997Z</time></trkpt><trkpt lat="45.0318716" lon="7.554232"><ele>280.0</ele><time>2026-05-03T06:34:27.988Z</time></trkpt><trkpt lat="45.0319037" lon="7.5543775"><ele>280.0</ele><time>2026-05-03T06:34:28.997Z</time></trkpt><trkpt lat="45.0319935" lon="7.5544851"><ele>280.0</ele><time>2026-05-03T06:34:29.992Z</time></trkpt><trkpt lat="45.0320925" lon="7.5545346"><ele>280.0</ele><time>2026-05-03T06:34:30.99Z</time></trkpt><trkpt lat="45.0322125" lon="7.5545304"><ele>280.0</ele><time>2026-05-03T06:34:31.998Z</time></trkpt><trkpt lat="45.0323423" lon="7.554498"><ele>280.0</ele><time>2026-05-03T06:34:32.982Z</time></trkpt><trkpt lat="45.032497" lon="7.5544678"><ele>280.0</ele><time>2026-05-03T06:34:33.989Z</time></trkpt><trkpt lat="45.0326538" lon="7.5544645"><ele>280.66666666666663</ele><time>2026-05-03T06:34:34.987Z</time></trkpt><trkpt lat="45.0328185" lon="7.5545015"><ele>281.3333333333333</ele><time>2026-05-03T06:34:35.982Z</time></trkpt><trkpt lat="45.0329988" lon="7.5545529"><ele>282.0</ele><time>2026-05-03T06:34:36.985Z</time></trkpt><trkpt lat="45.0331721" lon="7.5546178"><ele>282.3333333333333</ele><time>2026-05-03T06:34:37.986Z</time></trkpt><trkpt lat="45.033353" lon="7.5546783"><ele>282.66666666666663</ele><time>2026-05-03T06:34:38.982Z</time></trkpt><trkpt lat="45.0335459" lon="7.5547415"><ele>283.0</ele><time>2026-05-03T06:34:39.984Z</time></trkpt><trkpt lat="45.0337434" lon="7.5548073"><ele>283.0</ele><time>2026-05-03T06:34:40.995Z</time></trkpt><trkpt lat="45.0339454" lon="7.5548724"><ele>283.0</ele><time>2026-05-03T06:34:41.993Z</time></trkpt><trkpt lat="45.0341475" lon="7.5549359"><ele>283.0</ele><time>2026-05-03T06:34:42.993Z</time></trkpt><trkpt lat="45.0343518" lon="7.5549978"><ele>283.3333333333333</ele><time>2026-05-03T06:34:43.983Z</time></trkpt><trkpt lat="45.0345593" lon="7.5550546"><ele>283.6666666666667</ele><time>2026-05-03T06:34:44.994Z</time></trkpt><trkpt lat="45.0347657" lon="7.5551022"><ele>284.0</ele><time>2026-05-03T06:34:45.983Z</time></trkpt><trkpt lat="45.034976" lon="7.5551316"><ele>283.0</ele><time>2026-05-03T06:34:46.98Z</time></trkpt><trkpt lat="45.0351862" lon="7.5551367"><ele>282.0</ele><time>2026-05-03T06:34:47.984Z</time></trkpt><trkpt lat="45.0353933" lon="7.555109"><ele>281.0</ele><time>2026-05-03T06:34:48.987Z</time></trkpt><trkpt lat="45.0356049" lon="7.5550532"><ele>281.6666666666667</ele><time>2026-05-03T06:34:49.991Z</time></trkpt><trkpt lat="45.0358146" lon="7.5549714"><ele>282.3333333333333</ele><time>2026-05-03T06:34:50.991Z</time></trkpt><trkpt lat="45.0360148" lon="7.5548646"><ele>283.0</ele><time>2026-05-03T06:34:51.988Z</time></trkpt><trkpt lat="45.0362093" lon="7.5547446"><ele>283.0</ele><time>2026-05-03T06:34:52.984Z</time></trkpt><trkpt lat="45.0363999" lon="7.5546142"><ele>283.0</ele><time>2026-05-03T06:34:53.988Z</time></trkpt><trkpt lat="45.0365971" lon="7.5545078"><ele>283.0</ele><time>2026-05-03T06:34:54.99Z</time></trkpt><trkpt lat="45.0368073" lon="7.5544459"><ele>283.66666666666663</ele><time>2026-05-03T06:34:55.986Z</time></trkpt><trkpt lat="45.0370159" lon="7.5544388"><ele>284.3333333333333</ele><time>2026-05-03T06:34:56.989Z</time></trkpt><trkpt lat="45.0372343" lon="7.5544724"><ele>285.0</ele><time>2026-05-03T06:34:57.983Z</time></trkpt><trkpt lat="45.0374229" lon="7.5545745"><ele>285.3333333333333</ele><time>2026-05-03T06:34:59Z</time></trkpt><trkpt lat="45.037606" lon="7.5547208"><ele>285.66666666666663</ele><time>2026-05-03T06:35:00.005Z</time></trkpt><trkpt lat="45.0377618" lon="7.5548981"><ele>286.0</ele><time>2026-05-03T06:35:00.989Z</time></trkpt><trkpt lat="45.0378677" lon="7.5551088"><ele>286.0</ele><time>2026-05-03T06:35:01.991Z</time></trkpt><trkpt lat="45.0379537" lon="7.5553374"><ele>286.0</ele><time>2026-05-03T06:35:02.986Z</time></trkpt><trkpt lat="45.038022" lon="7.5555919"><ele>286.0</ele><time>2026-05-03T06:35:03.981Z</time></trkpt><trkpt lat="45.0381019" lon="7.5558451"><ele>286.3333333333333</ele><time>2026-05-03T06:35:04.997Z</time></trkpt><trkpt lat="45.0381904" lon="7.5560997"><ele>286.6666666666667</ele><time>2026-05-03T06:35:05.991Z</time></trkpt><trkpt lat="45.0382973" lon="7.5563528"><ele>287.0</ele><time>2026-05-03T06:35:06.983Z</time></trkpt><trkpt lat="45.0384181" lon="7.5565904"><ele>287.0</ele><time>2026-05-03T06:35:08.001Z</time></trkpt><trkpt lat="45.0385585" lon="7.5568218"><ele>287.0</ele><time>2026-05-03T06:35:08.993Z</time></trkpt><trkpt lat="45.0387111" lon="7.5570324"><ele>287.0</ele><time>2026-05-03T06:35:09.988Z</time></trkpt><trkpt lat="45.0388806" lon="7.5572128"><ele>287.0</ele><time>2026-05-03T06:35:10.991Z</time></trkpt><trkpt lat="45.0390695" lon="7.5573738"><ele>287.0</ele><time>2026-05-03T06:35:11.987Z</time></trkpt><trkpt lat="45.0392589" lon="7.5574995"><ele>287.0</ele><time>2026-05-03T06:35:12.99Z</time></trkpt><trkpt lat="45.0394588" lon="7.5576179"><ele>286.6666666666667</ele><time>2026-05-03T06:35:14.002Z</time></trkpt><trkpt lat="45.0396636" lon="7.5577278"><ele>286.3333333333333</ele><time>2026-05-03T06:35:14.988Z</time></trkpt><trkpt lat="45.0398742" lon="7.5578432"><ele>286.0</ele><time>2026-05-03T06:35:15.994Z</time></trkpt><trkpt lat="45.0400821" lon="7.5579582"><ele>286.66666666666663</ele><time>2026-05-03T06:35:16.995Z</time></trkpt><trkpt lat="45.040288" lon="7.5580753"><ele>287.3333333333333</ele><time>2026-05-03T06:35:17.991Z</time></trkpt><trkpt lat="45.0404921" lon="7.558183"><ele>288.0</ele><time>2026-05-03T06:35:18.992Z</time></trkpt><trkpt lat="45.0407025" lon="7.558294"><ele>289.0</ele><time>2026-05-03T06:35:19.995Z</time></trkpt><trkpt lat="45.040907" lon="7.5584141"><ele>290.0</ele><time>2026-05-03T06:35:21.007Z</time></trkpt><trkpt lat="45.0411026" lon="7.5585335"><ele>291.0</ele><time>2026-05-03T06:35:21.987Z</time></trkpt><trkpt lat="45.0412926" lon="7.5587093"><ele>291.0</ele><time>2026-05-03T06:35:22.986Z</time></trkpt><trkpt lat="45.0414446" lon="7.5589165"><ele>291.0</ele><time>2026-05-03T06:35:23.988Z</time></trkpt><trkpt lat="45.0415796" lon="7.559142"><ele>291.0</ele><time>2026-05-03T06:35:24.983Z</time></trkpt><trkpt lat="45.0416875" lon="7.5593866"><ele>290.3333333333333</ele><time>2026-05-03T06:35:26.012Z</time></trkpt><trkpt lat="45.0417684" lon="7.5596386"><ele>289.66666666666663</ele><time>2026-05-03T06:35:26.993Z</time></trkpt><trkpt lat="45.041826" lon="7.5599016"><ele>289.0</ele><time>2026-05-03T06:35:27.993Z</time></trkpt><trkpt lat="45.0418737" lon="7.5601474"><ele>289.3333333333333</ele><time>2026-05-03T06:35:28.994Z</time></trkpt><trkpt lat="45.0418982" lon="7.5603754"><ele>289.6666666666667</ele><time>2026-05-03T06:35:29.987Z</time></trkpt><trkpt lat="45.0418984" lon="7.5605819"><ele>290.0</ele><time>2026-05-03T06:35:30.993Z</time></trkpt><trkpt lat="45.0418734" lon="7.5607799"><ele>290.0</ele><time>2026-05-03T06:35:31.989Z</time></trkpt><trkpt lat="45.0418221" lon="7.5609601"><ele>290.0</ele><time>2026-05-03T06:35:32.999Z</time></trkpt><trkpt lat="45.0417707" lon="7.5611464"><ele>290.0</ele><time>2026-05-03T06:35:33.993Z</time></trkpt><trkpt lat="45.0417612" lon="7.5613421"><ele>290.0</ele><time>2026-05-03T06:35:34.993Z</time></trkpt><trkpt lat="45.0418027" lon="7.5615247"><ele>289.0</ele><time>2026-05-03T06:35:35.985Z</time></trkpt><trkpt lat="45.0418928" lon="7.5616664"><ele>288.0</ele><time>2026-05-03T06:35:36.995Z</time></trkpt><trkpt lat="45.042002" lon="7.5617647"><ele>287.0</ele><time>2026-05-03T06:35:37.991Z</time></trkpt><trkpt lat="45.0421428" lon="7.5617976"><ele>286.0</ele><time>2026-05-03T06:35:38.992Z</time></trkpt><trkpt lat="45.0422908" lon="7.561761"><ele>286.0</ele><time>2026-05-03T06:35:39.996Z</time></trkpt><trkpt lat="45.0424418" lon="7.5616921"><ele>286.0</ele><time>2026-05-03T06:35:40.999Z</time></trkpt><trkpt lat="45.0426028" lon="7.5616342"><ele>286.0</ele><time>2026-05-03T06:35:41.988Z</time></trkpt><trkpt lat="45.0427748" lon="7.5616147"><ele>286.3333333333333</ele><time>2026-05-03T06:35:42.987Z</time></trkpt><trkpt lat="45.0429612" lon="7.5616355"><ele>286.6666666666667</ele><time>2026-05-03T06:35:43.99Z</time></trkpt><trkpt lat="45.0431548" lon="7.5617072"><ele>287.0</ele><time>2026-05-03T06:35:44.992Z</time></trkpt><trkpt lat="45.043351" lon="7.5618086"><ele>287.0</ele><time>2026-05-03T06:35:45.991Z</time></trkpt><trkpt lat="45.0435493" lon="7.5619216"><ele>287.0</ele><time>2026-05-03T06:35:46.989Z</time></trkpt><trkpt lat="45.0437551" lon="7.5620369"><ele>287.0</ele><time>2026-05-03T06:35:47.994Z</time></trkpt><trkpt lat="45.0439653" lon="7.5621501"><ele>287.5</ele><time>2026-05-03T06:35:48.99Z</time></trkpt><trkpt lat="45.044184" lon="7.5622658"><ele>288.0</ele><time>2026-05-03T06:35:49.986Z</time></trkpt><trkpt lat="45.04441" lon="7.5623839"><ele>288.0</ele><time>2026-05-03T06:35:50.997Z</time></trkpt><trkpt lat="45.0446363" lon="7.5625023"><ele>288.0</ele><time>2026-05-03T06:35:51.989Z</time></trkpt><trkpt lat="45.0448659" lon="7.56262"><ele>287.0</ele><time>2026-05-03T06:35:52.985Z</time></trkpt><trkpt lat="45.0451018" lon="7.5627365"><ele>286.0</ele><time>2026-05-03T06:35:53.989Z</time></trkpt><trkpt lat="45.0453355" lon="7.5628528"><ele>285.5</ele><time>2026-05-03T06:35:54.992Z</time></trkpt><trkpt lat="45.0455642" lon="7.5629743"><ele>285.0</ele><time>2026-05-03T06:35:55.984Z</time></trkpt><trkpt lat="45.0457927" lon="7.5630992"><ele>284.5</ele><time>2026-05-03T06:35:56.99Z</time></trkpt><trkpt lat="45.0460197" lon="7.5632184"><ele>284.0</ele><time>2026-05-03T06:35:57.978Z</time></trkpt><trkpt lat="45.046251" lon="7.5633415"><ele>284.0</ele><time>2026-05-03T06:35:58.992Z</time></trkpt><trkpt lat="45.0464787" lon="7.5634711"><ele>284.0</ele><time>2026-05-03T06:35:59.998Z</time></trkpt><trkpt lat="45.0467062" lon="7.5636015"><ele>283.5</ele><time>2026-05-03T06:36:00.99Z</time></trkpt><trkpt lat="45.0469337" lon="7.5637341"><ele>283.0</ele><time>2026-05-03T06:36:01.993Z</time></trkpt><trkpt lat="45.0471651" lon="7.5638651"><ele>283.0</ele><time>2026-05-03T06:36:02.997Z</time></trkpt><trkpt lat="45.0473963" lon="7.5639925"><ele>283.0</ele><time>2026-05-03T06:36:03.99Z</time></trkpt><trkpt lat="45.0476296" lon="7.5641203"><ele>287.0</ele><time>2026-05-03T06:36:04.989Z</time></trkpt><trkpt lat="45.0478656" lon="7.5642477"><ele>291.0</ele><time>2026-05-03T06:36:05.986Z</time></trkpt><trkpt lat="45.0481019" lon="7.5643718"><ele>293.0</ele><time>2026-05-03T06:36:06.992Z</time></trkpt><trkpt lat="45.0483386" lon="7.5644999"><ele>295.0</ele><time>2026-05-03T06:36:08Z</time></trkpt><trkpt lat="45.0485738" lon="7.5646252"><ele>290.5</ele><time>2026-05-03T06:36:08.987Z</time></trkpt><trkpt lat="45.0488116" lon="7.5647518"><ele>286.0</ele><time>2026-05-03T06:36:09.987Z</time></trkpt><trkpt lat="45.0490449" lon="7.5648773"><ele>287.5</ele><time>2026-05-03T06:36:10.995Z</time></trkpt><trkpt lat="45.0492744" lon="7.5650048"><ele>289.0</ele><time>2026-05-03T06:36:11.986Z</time></trkpt><trkpt lat="45.0495044" lon="7.5651321"><ele>289.0</ele><time>2026-05-03T06:36:12.988Z</time></trkpt><trkpt lat="45.0497341" lon="7.5652569"><ele>289.0</ele><time>2026-05-03T06:36:13.986Z</time></trkpt><trkpt lat="45.0499663" lon="7.5653768"><ele>290.5</ele><time>2026-05-03T06:36:14.991Z</time></trkpt><trkpt lat="45.0501981" lon="7.5654977"><ele>292.0</ele><time>2026-05-03T06:36:15.996Z</time></trkpt><trkpt lat="45.0504255" lon="7.5656208"><ele>292.0</ele><time>2026-05-03T06:36:17.001Z</time></trkpt><trkpt lat="45.0506452" lon="7.5657439"><ele>292.0</ele><time>2026-05-03T06:36:17.988Z</time></trkpt><trkpt lat="45.0508645" lon="7.5658612"><ele>289.0</ele><time>2026-05-03T06:36:18.99Z</time></trkpt><trkpt lat="45.051085" lon="7.5659764"><ele>286.0</ele><time>2026-05-03T06:36:19.987Z</time></trkpt><trkpt lat="45.0513014" lon="7.56609"><ele>285.66666666666663</ele><time>2026-05-03T06:36:20.987Z</time></trkpt><trkpt lat="45.0515125" lon="7.5662035"><ele>285.3333333333333</ele><time>2026-05-03T06:36:21.989Z</time></trkpt><trkpt lat="45.0517112" lon="7.5663136"><ele>285.0</ele><time>2026-05-03T06:36:22.986Z</time></trkpt><trkpt lat="45.0518985" lon="7.5664352"><ele>285.0</ele><time>2026-05-03T06:36:24.003Z</time></trkpt><trkpt lat="45.0520694" lon="7.5665621"><ele>285.0</ele><time>2026-05-03T06:36:24.997Z</time></trkpt><trkpt lat="45.0522063" lon="7.5666923"><ele>285.0</ele><time>2026-05-03T06:36:25.992Z</time></trkpt><trkpt lat="45.0523254" lon="7.5668296"><ele>285.0</ele><time>2026-05-03T06:36:26.993Z</time></trkpt><trkpt lat="45.0524205" lon="7.5670011"><ele>285.0</ele><time>2026-05-03T06:36:27.989Z</time></trkpt><trkpt lat="45.0524856" lon="7.5671811"><ele>285.0</ele><time>2026-05-03T06:36:28.991Z</time></trkpt><trkpt lat="45.0525198" lon="7.5673767"><ele>285.0</ele><time>2026-05-03T06:36:29.988Z</time></trkpt><trkpt lat="45.0525422" lon="7.5675942"><ele>285.3333333333333</ele><time>2026-05-03T06:36:30.992Z</time></trkpt><trkpt lat="45.052567" lon="7.5678269"><ele>285.66666666666663</ele><time>2026-05-03T06:36:31.993Z</time></trkpt><trkpt lat="45.0526125" lon="7.568054"><ele>286.0</ele><time>2026-05-03T06:36:33.015Z</time></trkpt><trkpt lat="45.0526872" lon="7.568262"><ele>286.0</ele><time>2026-05-03T06:36:33.991Z</time></trkpt><trkpt lat="45.0527834" lon="7.5684393"><ele>286.0</ele><time>2026-05-03T06:36:34.999Z</time></trkpt><trkpt lat="45.0528912" lon="7.5685958"><ele>286.0</ele><time>2026-05-03T06:36:35.993Z</time></trkpt><trkpt lat="45.0529828" lon="7.5687508"><ele>286.0</ele><time>2026-05-03T06:36:36.99Z</time></trkpt><trkpt lat="45.0530369" lon="7.5689222"><ele>286.0</ele><time>2026-05-03T06:36:37.993Z</time></trkpt><trkpt lat="45.0530566" lon="7.5691313"><ele>286.0</ele><time>2026-05-03T06:36:39.006Z</time></trkpt><trkpt lat="45.053047" lon="7.5693349"><ele>286.0</ele><time>2026-05-03T06:36:39.988Z</time></trkpt><trkpt lat="45.0530152" lon="7.5695577"><ele>284.66666666666663</ele><time>2026-05-03T06:36:40.989Z</time></trkpt><trkpt lat="45.0529714" lon="7.5697934"><ele>283.3333333333333</ele><time>2026-05-03T06:36:41.984Z</time></trkpt><trkpt lat="45.0529201" lon="7.5700407"><ele>282.0</ele><time>2026-05-03T06:36:42.999Z</time></trkpt><trkpt lat="45.0528697" lon="7.570305"><ele>283.3333333333333</ele><time>2026-05-03T06:36:43.991Z</time></trkpt><trkpt lat="45.0528307" lon="7.5705848"><ele>284.66666666666663</ele><time>2026-05-03T06:36:44.987Z</time></trkpt><trkpt lat="45.0527955" lon="7.5708691"><ele>286.0</ele><time>2026-05-03T06:36:45.987Z</time></trkpt><trkpt lat="45.0527627" lon="7.571155"><ele>285.66666666666663</ele><time>2026-05-03T06:36:46.993Z</time></trkpt><trkpt lat="45.0527379" lon="7.5714438"><ele>285.3333333333333</ele><time>2026-05-03T06:36:47.996Z</time></trkpt><trkpt lat="45.0527131" lon="7.5717251"><ele>285.0</ele><time>2026-05-03T06:36:48.989Z</time></trkpt><trkpt lat="45.052695" lon="7.5719956"><ele>284.6666666666667</ele><time>2026-05-03T06:36:49.992Z</time></trkpt><trkpt lat="45.0526824" lon="7.5722557"><ele>284.33333333333337</ele><time>2026-05-03T06:36:50.999Z</time></trkpt><trkpt lat="45.0526695" lon="7.5725259"><ele>284.0</ele><time>2026-05-03T06:36:51.99Z</time></trkpt><trkpt lat="45.0526609" lon="7.5727978"><ele>283.6666666666667</ele><time>2026-05-03T06:36:52.994Z</time></trkpt><trkpt lat="45.0526509" lon="7.5730672"><ele>283.3333333333333</ele><time>2026-05-03T06:36:53.999Z</time></trkpt><trkpt lat="45.0526396" lon="7.5733401"><ele>283.0</ele><time>2026-05-03T06:36:54.991Z</time></trkpt><trkpt lat="45.0526314" lon="7.5735946"><ele>283.0</ele><time>2026-05-03T06:36:55.989Z</time></trkpt><trkpt lat="45.0526218" lon="7.5738438"><ele>283.0</ele><time>2026-05-03T06:36:56.992Z</time></trkpt><trkpt lat="45.0526201" lon="7.5740932"><ele>283.0</ele><time>2026-05-03T06:36:57.999Z</time></trkpt><trkpt lat="45.0526099" lon="7.5743304"><ele>283.0</ele><time>2026-05-03T06:36:58.995Z</time></trkpt><trkpt lat="45.0526011" lon="7.5745577"><ele>283.0</ele><time>2026-05-03T06:36:59.986Z</time></trkpt><trkpt lat="45.052592" lon="7.5747796"><ele>283.0</ele><time>2026-05-03T06:37:00.999Z</time></trkpt><trkpt lat="45.052586" lon="7.5749998"><ele>283.0</ele><time>2026-05-03T06:37:01.992Z</time></trkpt><trkpt lat="45.052579" lon="7.5752041"><ele>283.0</ele><time>2026-05-03T06:37:02.985Z</time></trkpt><trkpt lat="45.0525739" lon="7.5754074"><ele>283.0</ele><time>2026-05-03T06:37:03.997Z</time></trkpt><trkpt lat="45.052568" lon="7.5755999"><ele>283.0</ele><time>2026-05-03T06:37:04.991Z</time></trkpt><trkpt lat="45.0525578" lon="7.5757865"><ele>283.2</ele><time>2026-05-03T06:37:05.989Z</time></trkpt><trkpt lat="45.0525502" lon="7.5759655"><ele>283.4</ele><time>2026-05-03T06:37:06.992Z</time></trkpt><trkpt lat="45.0525403" lon="7.5761362"><ele>283.59999999999997</ele><time>2026-05-03T06:37:07.992Z</time></trkpt><trkpt lat="45.0525329" lon="7.576287"><ele>283.8</ele><time>2026-05-03T06:37:08.993Z</time></trkpt><trkpt lat="45.052528" lon="7.5764144"><ele>284.0</ele><time>2026-05-03T06:37:09.998Z</time></trkpt><trkpt lat="45.0525238" lon="7.5765226"><ele>284.4</ele><time>2026-05-03T06:37:10.994Z</time></trkpt><trkpt lat="45.0525241" lon="7.5766176"><ele>284.79999999999995</ele><time>2026-05-03T06:37:11.996Z</time></trkpt><trkpt lat="45.0525236" lon="7.5767558"><ele>285.20000000000005</ele><time>2026-05-03T06:37:13.994Z</time></trkpt><trkpt lat="45.0525169" lon="7.5768483"><ele>285.6</ele><time>2026-05-03T06:38:26.989Z</time></trkpt><trkpt lat="45.0525023" lon="7.5770416"><ele>286.0</ele><time>2026-05-03T06:38:28.987Z</time></trkpt><trkpt lat="45.0525013" lon="7.5772012"><ele>286.0</ele><time>2026-05-03T06:38:30.004Z</time></trkpt><trkpt lat="45.0524931" lon="7.5773661"><ele>286.0</ele><time>2026-05-03T06:38:30.991Z</time></trkpt><trkpt lat="45.0524888" lon="7.5775353"><ele>286.0</ele><time>2026-05-03T06:38:31.988Z</time></trkpt><trkpt lat="45.0524816" lon="7.5777066"><ele>286.0</ele><time>2026-05-03T06:38:32.991Z</time></trkpt><trkpt lat="45.0524745" lon="7.5778972"><ele>286.0</ele><time>2026-05-03T06:38:33.989Z</time></trkpt><trkpt lat="45.0524656" lon="7.578097"><ele>286.0</ele><time>2026-05-03T06:38:34.986Z</time></trkpt><trkpt lat="45.0524524" lon="7.5783112"><ele>286.0</ele><time>2026-05-03T06:38:35.991Z</time></trkpt><trkpt lat="45.0524462" lon="7.5785307"><ele>286.0</ele><time>2026-05-03T06:38:36.987Z</time></trkpt><trkpt lat="45.0524367" lon="7.5787594"><ele>284.66666666666663</ele><time>2026-05-03T06:38:37.988Z</time></trkpt><trkpt lat="45.0524285" lon="7.5790008"><ele>283.3333333333333</ele><time>2026-05-03T06:38:38.991Z</time></trkpt><trkpt lat="45.052416" lon="7.579248"><ele>282.0</ele><time>2026-05-03T06:38:39.993Z</time></trkpt><trkpt lat="45.0524026" lon="7.5795094"><ele>281.6666666666667</ele><time>2026-05-03T06:38:40.986Z</time></trkpt><trkpt lat="45.0523977" lon="7.5797765"><ele>281.33333333333337</ele><time>2026-05-03T06:38:41.994Z</time></trkpt><trkpt lat="45.0523898" lon="7.5800533"><ele>281.0</ele><time>2026-05-03T06:38:42.986Z</time></trkpt><trkpt lat="45.0523763" lon="7.5803232"><ele>280.33333333333337</ele><time>2026-05-03T06:38:43.991Z</time></trkpt><trkpt lat="45.0523672" lon="7.5805998"><ele>279.6666666666667</ele><time>2026-05-03T06:38:44.995Z</time></trkpt><trkpt lat="45.0523579" lon="7.5808598"><ele>279.0</ele><time>2026-05-03T06:38:45.987Z</time></trkpt><trkpt lat="45.0523459" lon="7.5811207"><ele>279.3333333333333</ele><time>2026-05-03T06:38:46.995Z</time></trkpt><trkpt lat="45.0523386" lon="7.5813787"><ele>279.66666666666663</ele><time>2026-05-03T06:38:47.99Z</time></trkpt><trkpt lat="45.0523284" lon="7.5816348"><ele>280.0</ele><time>2026-05-03T06:38:48.992Z</time></trkpt><trkpt lat="45.0523191" lon="7.5818801"><ele>280.3333333333333</ele><time>2026-05-03T06:38:49.995Z</time></trkpt><trkpt lat="45.0523076" lon="7.5821188"><ele>280.6666666666667</ele><time>2026-05-03T06:38:50.987Z</time></trkpt><trkpt lat="45.0522978" lon="7.5823542"><ele>281.0</ele><time>2026-05-03T06:38:51.99Z</time></trkpt><trkpt lat="45.0522892" lon="7.5825742"><ele>281.0</ele><time>2026-05-03T06:38:52.993Z</time></trkpt><trkpt lat="45.0522775" lon="7.5827934"><ele>281.0</ele><time>2026-05-03T06:38:53.99Z</time></trkpt><trkpt lat="45.0522661" lon="7.5830077"><ele>281.0</ele><time>2026-05-03T06:38:54.996Z</time></trkpt><trkpt lat="45.0522511" lon="7.5832224"><ele>281.0</ele><time>2026-05-03T06:38:55.985Z</time></trkpt><trkpt lat="45.0522452" lon="7.58344"><ele>281.0</ele><time>2026-05-03T06:38:56.99Z</time></trkpt><trkpt lat="45.0522367" lon="7.5836537"><ele>281.0</ele><time>2026-05-03T06:38:57.981Z</time></trkpt><trkpt lat="45.0522287" lon="7.5838632"><ele>281.0</ele><time>2026-05-03T06:38:58.994Z</time></trkpt><trkpt lat="45.0522229" lon="7.58407"><ele>281.0</ele><time>2026-05-03T06:39:00.03Z</time></trkpt><trkpt lat="45.0522174" lon="7.5842703"><ele>281.0</ele><time>2026-05-03T06:39:00.989Z</time></trkpt><trkpt lat="45.052217" lon="7.5844644"><ele>281.0</ele><time>2026-05-03T06:39:01.997Z</time></trkpt><trkpt lat="45.0522157" lon="7.5846454"><ele>281.0</ele><time>2026-05-03T06:39:02.991Z</time></trkpt><trkpt lat="45.0522125" lon="7.5848215"><ele>281.0</ele><time>2026-05-03T06:39:03.985Z</time></trkpt><trkpt lat="45.0522118" lon="7.5850035"><ele>281.0</ele><time>2026-05-03T06:39:04.991Z</time></trkpt><trkpt lat="45.0522035" lon="7.5851745"><ele>281.0</ele><time>2026-05-03T06:39:06Z</time></trkpt><trkpt lat="45.0521948" lon="7.5853303"><ele>281.40000000000003</ele><time>2026-05-03T06:39:06.988Z</time></trkpt><trkpt lat="45.0521849" lon="7.5854635"><ele>281.8</ele><time>2026-05-03T06:39:07.989Z</time></trkpt><trkpt lat="45.0521809" lon="7.5855899"><ele>282.20000000000005</ele><time>2026-05-03T06:39:08.991Z</time></trkpt><trkpt lat="45.0521748" lon="7.5857242"><ele>282.6</ele><time>2026-05-03T06:39:11Z</time></trkpt><trkpt lat="45.052168" lon="7.5858347"><ele>283.0</ele><time>2026-05-03T06:39:12.993Z</time></trkpt><trkpt lat="45.0521579" lon="7.5860126"><ele>283.0</ele><time>2026-05-03T06:39:14.997Z</time></trkpt><trkpt lat="45.0521628" lon="7.5861173"><ele>283.0</ele><time>2026-05-03T06:39:16.001Z</time></trkpt><trkpt lat="45.0521575" lon="7.5862366"><ele>283.0</ele><time>2026-05-03T06:39:16.99Z</time></trkpt><trkpt lat="45.0521477" lon="7.5863633"><ele>283.0</ele><time>2026-05-03T06:39:17.987Z</time></trkpt><trkpt lat="45.0521413" lon="7.5864819"><ele>283.0</ele><time>2026-05-03T06:39:18.989Z</time></trkpt><trkpt lat="45.0521447" lon="7.5866142"><ele>283.0</ele><time>2026-05-03T06:39:19.99Z</time></trkpt><trkpt lat="45.0521468" lon="7.5867605"><ele>282.6</ele><time>2026-05-03T06:39:20.994Z</time></trkpt><trkpt lat="45.0521423" lon="7.5868904"><ele>282.20000000000005</ele><time>2026-05-03T06:39:21.999Z</time></trkpt><trkpt lat="45.0521457" lon="7.5870305"><ele>281.8</ele><time>2026-05-03T06:39:23.073Z</time></trkpt><trkpt lat="45.0521506" lon="7.5871767"><ele>281.40000000000003</ele><time>2026-05-03T06:39:24.042Z</time></trkpt><trkpt lat="45.0521463" lon="7.5873583"><ele>281.0</ele><time>2026-05-03T06:39:24.995Z</time></trkpt><trkpt lat="45.052144" lon="7.587568"><ele>280.33333333333337</ele><time>2026-05-03T06:39:25.986Z</time></trkpt><trkpt lat="45.052136" lon="7.5877888"><ele>279.6666666666667</ele><time>2026-05-03T06:39:26.994Z</time></trkpt><trkpt lat="45.052133" lon="7.5880343"><ele>279.0</ele><time>2026-05-03T06:39:27.998Z</time></trkpt><trkpt lat="45.0521163" lon="7.5882992"><ele>279.0</ele><time>2026-05-03T06:39:28.989Z</time></trkpt><trkpt lat="45.0521125" lon="7.5885664"><ele>279.0</ele><time>2026-05-03T06:39:29.986Z</time></trkpt><trkpt lat="45.0521023" lon="7.5888308"><ele>279.0</ele><time>2026-05-03T06:39:30.996Z</time></trkpt><trkpt lat="45.0520921" lon="7.5891012"><ele>279.6666666666667</ele><time>2026-05-03T06:39:31.985Z</time></trkpt><trkpt lat="45.0520824" lon="7.5893708"><ele>280.33333333333337</ele><time>2026-05-03T06:39:32.991Z</time></trkpt><trkpt lat="45.05207" lon="7.5896513"><ele>281.0</ele><time>2026-05-03T06:39:33.996Z</time></trkpt><trkpt lat="45.0520639" lon="7.5899415"><ele>281.0</ele><time>2026-05-03T06:39:34.989Z</time></trkpt><trkpt lat="45.0520487" lon="7.5902297"><ele>281.0</ele><time>2026-05-03T06:39:36.007Z</time></trkpt><trkpt lat="45.0520317" lon="7.5905196"><ele>281.0</ele><time>2026-05-03T06:39:36.988Z</time></trkpt><trkpt lat="45.052018" lon="7.5908133"><ele>280.6666666666667</ele><time>2026-05-03T06:39:38.003Z</time></trkpt><trkpt lat="45.0520041" lon="7.591107"><ele>280.3333333333333</ele><time>2026-05-03T06:39:38.999Z</time></trkpt><trkpt lat="45.0519933" lon="7.5913938"><ele>280.0</ele><time>2026-05-03T06:39:39.991Z</time></trkpt><trkpt lat="45.0519884" lon="7.5916634"><ele>280.3333333333333</ele><time>2026-05-03T06:39:41.014Z</time></trkpt><trkpt lat="45.051978" lon="7.5919227"><ele>280.6666666666667</ele><time>2026-05-03T06:39:41.989Z</time></trkpt><trkpt lat="45.0519662" lon="7.592165"><ele>281.0</ele><time>2026-05-03T06:39:42.99Z</time></trkpt><trkpt lat="45.0519546" lon="7.5924051"><ele>281.0</ele><time>2026-05-03T06:39:43.992Z</time></trkpt><trkpt lat="45.0519459" lon="7.5926253"><ele>281.0</ele><time>2026-05-03T06:39:44.985Z</time></trkpt><trkpt lat="45.0519406" lon="7.5928414"><ele>281.0</ele><time>2026-05-03T06:39:45.999Z</time></trkpt><trkpt lat="45.0519294" lon="7.5930438"><ele>281.0</ele><time>2026-05-03T06:39:47.021Z</time></trkpt><trkpt lat="45.0519216" lon="7.5932329"><ele>281.0</ele><time>2026-05-03T06:39:47.987Z</time></trkpt><trkpt lat="45.0519144" lon="7.5934163"><ele>281.0</ele><time>2026-05-03T06:39:48.992Z</time></trkpt><trkpt lat="45.0519042" lon="7.5935852"><ele>281.0</ele><time>2026-05-03T06:39:49.987Z</time></trkpt><trkpt lat="45.0518995" lon="7.5937469"><ele>280.83333333333337</ele><time>2026-05-03T06:39:50.995Z</time></trkpt><trkpt lat="45.0518877" lon="7.5938905"><ele>280.6666666666667</ele><time>2026-05-03T06:39:51.995Z</time></trkpt><trkpt lat="45.0518835" lon="7.5940114"><ele>280.5</ele><time>2026-05-03T06:39:52.995Z</time></trkpt><trkpt lat="45.0518793" lon="7.5941258"><ele>280.3333333333333</ele><time>2026-05-03T06:39:54.001Z</time></trkpt><trkpt lat="45.0518847" lon="7.5942206"><ele>280.16666666666663</ele><time>2026-05-03T06:39:54.992Z</time></trkpt><trkpt lat="45.0518827" lon="7.5943717"><ele>280.0</ele><time>2026-05-03T06:39:56.99Z</time></trkpt><trkpt lat="45.0518739" lon="7.5944669"><ele>279.4</ele><time>2026-05-03T06:39:58.995Z</time></trkpt><trkpt lat="45.0518704" lon="7.5946135"><ele>278.8</ele><time>2026-05-03T06:40:37.987Z</time></trkpt><trkpt lat="45.0518698" lon="7.5947097"><ele>278.2</ele><time>2026-05-03T06:40:38.994Z</time></trkpt><trkpt lat="45.0518649" lon="7.5948262"><ele>277.6</ele><time>2026-05-03T06:40:39.995Z</time></trkpt><trkpt lat="45.0518653" lon="7.5949615"><ele>277.0</ele><time>2026-05-03T06:40:40.994Z</time></trkpt><trkpt lat="45.0518532" lon="7.5951195"><ele>277.0</ele><time>2026-05-03T06:40:41.989Z</time></trkpt><trkpt lat="45.0518441" lon="7.5952974"><ele>277.0</ele><time>2026-05-03T06:40:42.998Z</time></trkpt><trkpt lat="45.0518326" lon="7.595494"><ele>277.0</ele><time>2026-05-03T06:40:43.99Z</time></trkpt><trkpt lat="45.0518247" lon="7.5957075"><ele>277.0</ele><time>2026-05-03T06:40:44.984Z</time></trkpt><trkpt lat="45.0518168" lon="7.5959323"><ele>277.0</ele><time>2026-05-03T06:40:45.999Z</time></trkpt><trkpt lat="45.0518098" lon="7.5961659"><ele>277.0</ele><time>2026-05-03T06:40:46.992Z</time></trkpt><trkpt lat="45.0518002" lon="7.5964028"><ele>277.0</ele><time>2026-05-03T06:40:47.987Z</time></trkpt><trkpt lat="45.0517894" lon="7.5966414"><ele>277.0</ele><time>2026-05-03T06:40:49Z</time></trkpt><trkpt lat="45.0517778" lon="7.596897"><ele>277.0</ele><time>2026-05-03T06:40:49.988Z</time></trkpt><trkpt lat="45.0517674" lon="7.5971481"><ele>277.0</ele><time>2026-05-03T06:40:50.989Z</time></trkpt><trkpt lat="45.0517593" lon="7.5974086"><ele>276.3333333333333</ele><time>2026-05-03T06:40:51.989Z</time></trkpt><trkpt lat="45.0517529" lon="7.5976777"><ele>275.6666666666667</ele><time>2026-05-03T06:40:52.985Z</time></trkpt><trkpt lat="45.0517429" lon="7.597964"><ele>275.0</ele><time>2026-05-03T06:40:53.99Z</time></trkpt><trkpt lat="45.0517321" lon="7.5982646"><ele>274.6666666666667</ele><time>2026-05-03T06:40:54.997Z</time></trkpt><trkpt lat="45.0517185" lon="7.598573"><ele>274.3333333333333</ele><time>2026-05-03T06:40:55.991Z</time></trkpt><trkpt lat="45.0517032" lon="7.5988914"><ele>274.0</ele><time>2026-05-03T06:40:56.988Z</time></trkpt><trkpt lat="45.0516847" lon="7.5992216"><ele>274.5</ele><time>2026-05-03T06:40:57.996Z</time></trkpt><trkpt lat="45.0516689" lon="7.5995554"><ele>275.0</ele><time>2026-05-03T06:40:59.065Z</time></trkpt><trkpt lat="45.0516532" lon="7.5998917"><ele>275.0</ele><time>2026-05-03T06:41:00.04Z</time></trkpt><trkpt lat="45.0516331" lon="7.6002394"><ele>275.0</ele><time>2026-05-03T06:41:01.05Z</time></trkpt><trkpt lat="45.0516109" lon="7.6005902"><ele>274.0</ele><time>2026-05-03T06:41:01.989Z</time></trkpt><trkpt lat="45.0515894" lon="7.6009538"><ele>273.0</ele><time>2026-05-03T06:41:02.992Z</time></trkpt><trkpt lat="45.0515663" lon="7.6013143"><ele>273.0</ele><time>2026-05-03T06:41:03.996Z</time></trkpt><trkpt lat="45.0515492" lon="7.6016763"><ele>273.0</ele><time>2026-05-03T06:41:04.995Z</time></trkpt><trkpt lat="45.0515376" lon="7.602034"><ele>274.0</ele><time>2026-05-03T06:41:06.043Z</time></trkpt><trkpt lat="45.0515183" lon="7.6023789"><ele>275.0</ele><time>2026-05-03T06:41:07.048Z</time></trkpt><trkpt lat="45.051508" lon="7.6027118"><ele>274.5</ele><time>2026-05-03T06:41:08.051Z</time></trkpt><trkpt lat="45.0514951" lon="7.6030424"><ele>274.0</ele><time>2026-05-03T06:41:09.037Z</time></trkpt><trkpt lat="45.0514791" lon="7.6033711"><ele>270.5</ele><time>2026-05-03T06:41:10.035Z</time></trkpt><trkpt lat="45.0514661" lon="7.6037041"><ele>267.0</ele><time>2026-05-03T06:41:11.06Z</time></trkpt><trkpt lat="45.0514524" lon="7.6040321"><ele>267.0</ele><time>2026-05-03T06:41:12.051Z</time></trkpt><trkpt lat="45.0514392" lon="7.604361"><ele>267.0</ele><time>2026-05-03T06:41:13.048Z</time></trkpt><trkpt lat="45.0514244" lon="7.6046831"><ele>269.5</ele><time>2026-05-03T06:41:14.055Z</time></trkpt><trkpt lat="45.0514084" lon="7.6050123"><ele>272.0</ele><time>2026-05-03T06:41:15.049Z</time></trkpt><trkpt lat="45.0513959" lon="7.6053495"><ele>272.0</ele><time>2026-05-03T06:41:16.043Z</time></trkpt><trkpt lat="45.0513817" lon="7.6056772"><ele>272.0</ele><time>2026-05-03T06:41:17.048Z</time></trkpt><trkpt lat="45.0513717" lon="7.6060162"><ele>271.0</ele><time>2026-05-03T06:41:18.052Z</time></trkpt><trkpt lat="45.0513641" lon="7.6063548"><ele>270.0</ele><time>2026-05-03T06:41:19.046Z</time></trkpt><trkpt lat="45.0513515" lon="7.6066889"><ele>271.0</ele><time>2026-05-03T06:41:20.051Z</time></trkpt><trkpt lat="45.0513381" lon="7.607022"><ele>272.0</ele><time>2026-05-03T06:41:21.051Z</time></trkpt><trkpt lat="45.0513214" lon="7.6073575"><ele>272.0</ele><time>2026-05-03T06:41:22.05Z</time></trkpt><trkpt lat="45.0513045" lon="7.6076875"><ele>272.0</ele><time>2026-05-03T06:41:23.049Z</time></trkpt><trkpt lat="45.0512854" lon="7.6080206"><ele>271.5</ele><time>2026-05-03T06:41:24.047Z</time></trkpt><trkpt lat="45.0512691" lon="7.6083559"><ele>271.0</ele><time>2026-05-03T06:41:25.05Z</time></trkpt><trkpt lat="45.0512522" lon="7.6086879"><ele>269.5</ele><time>2026-05-03T06:41:26.046Z</time></trkpt><trkpt lat="45.0512372" lon="7.6090179"><ele>268.0</ele><time>2026-05-03T06:41:27.058Z</time></trkpt><trkpt lat="45.0512218" lon="7.6093493"><ele>267.5</ele><time>2026-05-03T06:41:28.053Z</time></trkpt><trkpt lat="45.051206" lon="7.6096818"><ele>267.0</ele><time>2026-05-03T06:41:29.052Z</time></trkpt><trkpt lat="45.051196" lon="7.6100093"><ele>267.0</ele><time>2026-05-03T06:41:30.05Z</time></trkpt><trkpt lat="45.0511841" lon="7.6103359"><ele>267.0</ele><time>2026-05-03T06:41:31.057Z</time></trkpt><trkpt lat="45.0511741" lon="7.6106569"><ele>267.0</ele><time>2026-05-03T06:41:32.053Z</time></trkpt><trkpt lat="45.051162" lon="7.6109824"><ele>267.0</ele><time>2026-05-03T06:41:33.057Z</time></trkpt><trkpt lat="45.0511507" lon="7.6113022"><ele>267.0</ele><time>2026-05-03T06:41:34.05Z</time></trkpt><trkpt lat="45.0511447" lon="7.6116247"><ele>267.0</ele><time>2026-05-03T06:41:35.058Z</time></trkpt><trkpt lat="45.0511341" lon="7.6119469"><ele>268.5</ele><time>2026-05-03T06:41:36.054Z</time></trkpt><trkpt lat="45.0511174" lon="7.6122696"><ele>270.0</ele><time>2026-05-03T06:41:37.064Z</time></trkpt><trkpt lat="45.0511038" lon="7.6125972"><ele>270.5</ele><time>2026-05-03T06:41:38.048Z</time></trkpt><trkpt lat="45.0510916" lon="7.6129208"><ele>271.0</ele><time>2026-05-03T06:41:39.058Z</time></trkpt><trkpt lat="45.0510788" lon="7.6132533"><ele>271.0</ele><time>2026-05-03T06:41:40.062Z</time></trkpt><trkpt lat="45.0510655" lon="7.6135582"><ele>271.0</ele><time>2026-05-03T06:41:41.059Z</time></trkpt><trkpt lat="45.0510562" lon="7.6138121"><ele>271.0</ele><time>2026-05-03T06:41:42.046Z</time></trkpt><trkpt lat="45.0510493" lon="7.6140388"><ele>270.6</ele><time>2026-05-03T06:41:43.05Z</time></trkpt><trkpt lat="45.0510376" lon="7.6142278"><ele>270.20000000000005</ele><time>2026-05-03T06:41:44.051Z</time></trkpt><trkpt lat="45.0510285" lon="7.614397"><ele>269.79999999999995</ele><time>2026-05-03T06:41:45.045Z</time></trkpt><trkpt lat="45.0510282" lon="7.6145354"><ele>269.4</ele><time>2026-05-03T06:41:46.039Z</time></trkpt><trkpt lat="45.0510262" lon="7.6146506"><ele>269.0</ele><time>2026-05-03T06:41:47.055Z</time></trkpt><trkpt lat="45.0510186" lon="7.6147428"><ele>269.0</ele><time>2026-05-03T06:41:48.052Z</time></trkpt><trkpt lat="45.05101" lon="7.6148375"><ele>269.0</ele><time>2026-05-03T06:41:50.055Z</time></trkpt><trkpt lat="45.0510075" lon="7.6149693"><ele>269.0</ele><time>2026-05-03T06:43:53.983Z</time></trkpt><trkpt lat="45.0510031" lon="7.6151128"><ele>269.0</ele><time>2026-05-03T06:43:54.98Z</time></trkpt><trkpt lat="45.0509957" lon="7.615278"><ele>269.0</ele><time>2026-05-03T06:43:55.99Z</time></trkpt><trkpt lat="45.050988" lon="7.6154639"><ele>269.33333333333337</ele><time>2026-05-03T06:43:56.997Z</time></trkpt><trkpt lat="45.05098" lon="7.6156767"><ele>269.6666666666667</ele><time>2026-05-03T06:43:58.052Z</time></trkpt><trkpt lat="45.050975" lon="7.6158886"><ele>270.0</ele><time>2026-05-03T06:43:59.042Z</time></trkpt><trkpt lat="45.0509667" lon="7.6161096"><ele>270.0</ele><time>2026-05-03T06:44:00.041Z</time></trkpt><trkpt lat="45.0509562" lon="7.6163354"><ele>270.0</ele><time>2026-05-03T06:44:01.051Z</time></trkpt><trkpt lat="45.0509503" lon="7.6165699"><ele>270.0</ele><time>2026-05-03T06:44:02.042Z</time></trkpt><trkpt lat="45.0509445" lon="7.6168231"><ele>270.0</ele><time>2026-05-03T06:44:03.037Z</time></trkpt><trkpt lat="45.0509315" lon="7.6170788"><ele>270.0</ele><time>2026-05-03T06:44:04.042Z</time></trkpt><trkpt lat="45.0509208" lon="7.617349"><ele>270.0</ele><time>2026-05-03T06:44:05.035Z</time></trkpt><trkpt lat="45.0509117" lon="7.6176164"><ele>269.0</ele><time>2026-05-03T06:44:06.047Z</time></trkpt><trkpt lat="45.0509002" lon="7.6178803"><ele>268.0</ele><time>2026-05-03T06:44:07.05Z</time></trkpt><trkpt lat="45.0508887" lon="7.6181322"><ele>267.0</ele><time>2026-05-03T06:44:08.043Z</time></trkpt><trkpt lat="45.0508798" lon="7.6183835"><ele>267.0</ele><time>2026-05-03T06:44:09.057Z</time></trkpt><trkpt lat="45.0508712" lon="7.6186345"><ele>267.0</ele><time>2026-05-03T06:44:10.049Z</time></trkpt><trkpt lat="45.0508565" lon="7.6188862"><ele>267.0</ele><time>2026-05-03T06:44:11.052Z</time></trkpt><trkpt lat="45.0508465" lon="7.6191382"><ele>266.6666666666667</ele><time>2026-05-03T06:44:12.042Z</time></trkpt><trkpt lat="45.0508394" lon="7.6193831"><ele>266.33333333333337</ele><time>2026-05-03T06:44:13.042Z</time></trkpt><trkpt lat="45.0508293" lon="7.6196293"><ele>266.0</ele><time>2026-05-03T06:44:14.047Z</time></trkpt><trkpt lat="45.0508179" lon="7.6198743"><ele>266.0</ele><time>2026-05-03T06:44:15.042Z</time></trkpt><trkpt lat="45.0508098" lon="7.620125"><ele>266.0</ele><time>2026-05-03T06:44:16.038Z</time></trkpt><trkpt lat="45.0508022" lon="7.6203789"><ele>266.0</ele><time>2026-05-03T06:44:17.039Z</time></trkpt><trkpt lat="45.0507963" lon="7.620639"><ele>266.33333333333337</ele><time>2026-05-03T06:44:18.054Z</time></trkpt><trkpt lat="45.0507924" lon="7.6209013"><ele>266.6666666666667</ele><time>2026-05-03T06:44:19.05Z</time></trkpt><trkpt lat="45.0507852" lon="7.6211572"><ele>267.0</ele><time>2026-05-03T06:44:20.038Z</time></trkpt><trkpt lat="45.0507768" lon="7.6214193"><ele>267.3333333333333</ele><time>2026-05-03T06:44:21.047Z</time></trkpt><trkpt lat="45.0507722" lon="7.6216846"><ele>267.66666666666663</ele><time>2026-05-03T06:44:22.055Z</time></trkpt><trkpt lat="45.0507633" lon="7.6219471"><ele>268.0</ele><time>2026-05-03T06:44:23.054Z</time></trkpt><trkpt lat="45.050755" lon="7.6222064"><ele>268.0</ele><time>2026-05-03T06:44:24.055Z</time></trkpt><trkpt lat="45.0507481" lon="7.6224654"><ele>268.0</ele><time>2026-05-03T06:44:25.056Z</time></trkpt><trkpt lat="45.0507406" lon="7.6227269"><ele>268.0</ele><time>2026-05-03T06:44:26.047Z</time></trkpt><trkpt lat="45.0507243" lon="7.6229907"><ele>267.0</ele><time>2026-05-03T06:44:27.053Z</time></trkpt><trkpt lat="45.0507102" lon="7.6232719"><ele>266.0</ele><time>2026-05-03T06:44:28.046Z</time></trkpt><trkpt lat="45.0507009" lon="7.6235425"><ele>265.0</ele><time>2026-05-03T06:44:29.058Z</time></trkpt><trkpt lat="45.0506902" lon="7.623807"><ele>266.66666666666663</ele><time>2026-05-03T06:44:30.046Z</time></trkpt><trkpt lat="45.0506854" lon="7.6240846"><ele>268.3333333333333</ele><time>2026-05-03T06:44:31.039Z</time></trkpt><trkpt lat="45.050687" lon="7.6243492"><ele>270.0</ele><time>2026-05-03T06:44:32.047Z</time></trkpt><trkpt lat="45.0506857" lon="7.6246106"><ele>270.0</ele><time>2026-05-03T06:44:33.054Z</time></trkpt><trkpt lat="45.0506774" lon="7.6248705"><ele>270.0</ele><time>2026-05-03T06:44:34.044Z</time></trkpt><trkpt lat="45.0506714" lon="7.6251389"><ele>270.0</ele><time>2026-05-03T06:44:35Z</time></trkpt><trkpt lat="45.0506574" lon="7.6253894"><ele>268.0</ele><time>2026-05-03T06:44:36.001Z</time></trkpt><trkpt lat="45.050644" lon="7.6256508"><ele>266.0</ele><time>2026-05-03T06:44:36.991Z</time></trkpt><trkpt lat="45.0506296" lon="7.6259081"><ele>264.0</ele><time>2026-05-03T06:44:37.982Z</time></trkpt><trkpt lat="45.0506217" lon="7.6261612"><ele>263.6666666666667</ele><time>2026-05-03T06:44:39.045Z</time></trkpt><trkpt lat="45.0506089" lon="7.6264111"><ele>263.33333333333337</ele><time>2026-05-03T06:44:40.047Z</time></trkpt><trkpt lat="45.0505889" lon="7.6266861"><ele>263.0</ele><time>2026-05-03T06:44:41.044Z</time></trkpt><trkpt lat="45.0505656" lon="7.6270003"><ele>262.5</ele><time>2026-05-03T06:44:42.037Z</time></trkpt><trkpt lat="45.0505474" lon="7.6273499"><ele>262.0</ele><time>2026-05-03T06:44:43.044Z</time></trkpt><trkpt lat="45.0505324" lon="7.6276797"><ele>262.0</ele><time>2026-05-03T06:44:44.038Z</time></trkpt><trkpt lat="45.0505167" lon="7.6280003"><ele>262.0</ele><time>2026-05-03T06:44:45.04Z</time></trkpt><trkpt lat="45.0504929" lon="7.6282643"><ele>262.0</ele><time>2026-05-03T06:44:45.988Z</time></trkpt><trkpt lat="45.050487" lon="7.6285018"><ele>262.0</ele><time>2026-05-03T06:44:46.988Z</time></trkpt><trkpt lat="45.0504804" lon="7.6287099"><ele>262.0</ele><time>2026-05-03T06:44:47.999Z</time></trkpt><trkpt lat="45.0504675" lon="7.6288602"><ele>262.0</ele><time>2026-05-03T06:44:48.989Z</time></trkpt><trkpt lat="45.0504688" lon="7.6289866"><ele>262.0</ele><time>2026-05-03T06:44:49.996Z</time></trkpt><trkpt lat="45.0504617" lon="7.6291"><ele>262.0</ele><time>2026-05-03T06:44:50.986Z</time></trkpt><trkpt lat="45.0504558" lon="7.6291888"><ele>262.0</ele><time>2026-05-03T06:44:51.994Z</time></trkpt><trkpt lat="45.0504396" lon="7.629313"><ele>262.0</ele><time>2026-05-03T06:44:53.987Z</time></trkpt><trkpt lat="45.0504392" lon="7.629404"><ele>262.0</ele><time>2026-05-03T06:44:58.033Z</time></trkpt><trkpt lat="45.0504286" lon="7.6295657"><ele>262.0</ele><time>2026-05-03T06:45:50.989Z</time></trkpt><trkpt lat="45.0503879" lon="7.629753"><ele>262.0</ele><time>2026-05-03T06:45:51.986Z</time></trkpt><trkpt lat="45.050326" lon="7.6299599"><ele>263.0</ele><time>2026-05-03T06:45:52.98Z</time></trkpt><trkpt lat="45.0502581" lon="7.6301643"><ele>264.0</ele><time>2026-05-03T06:45:53.99Z</time></trkpt><trkpt lat="45.050183" lon="7.6303801"><ele>265.0</ele><time>2026-05-03T06:45:54.995Z</time></trkpt><trkpt lat="45.050112" lon="7.6306017"><ele>265.66666666666663</ele><time>2026-05-03T06:45:55.99Z</time></trkpt><trkpt lat="45.0500369" lon="7.6308254"><ele>266.3333333333333</ele><time>2026-05-03T06:45:56.975Z</time></trkpt><trkpt lat="45.0499644" lon="7.6310492"><ele>267.0</ele><time>2026-05-03T06:45:57.991Z</time></trkpt><trkpt lat="45.0498911" lon="7.6312613"><ele>267.0</ele><time>2026-05-03T06:45:58.983Z</time></trkpt><trkpt lat="45.049827" lon="7.6314736"><ele>267.0</ele><time>2026-05-03T06:45:59.979Z</time></trkpt><trkpt lat="45.0497705" lon="7.631689"><ele>267.0</ele><time>2026-05-03T06:46:00.99Z</time></trkpt><trkpt lat="45.0497017" lon="7.6318935"><ele>266.5</ele><time>2026-05-03T06:46:01.989Z</time></trkpt><trkpt lat="45.0496171" lon="7.6320833"><ele>266.0</ele><time>2026-05-03T06:46:02.988Z</time></trkpt><trkpt lat="45.0495437" lon="7.6322747"><ele>265.5</ele><time>2026-05-03T06:46:03.99Z</time></trkpt><trkpt lat="45.0494883" lon="7.6324512"><ele>265.0</ele><time>2026-05-03T06:46:04.992Z</time></trkpt><trkpt lat="45.0494249" lon="7.6326334"><ele>265.0</ele><time>2026-05-03T06:46:05.991Z</time></trkpt><trkpt lat="45.0493547" lon="7.6327899"><ele>265.0</ele><time>2026-05-03T06:46:06.993Z</time></trkpt><trkpt lat="45.0492976" lon="7.632946"><ele>265.0</ele><time>2026-05-03T06:46:07.983Z</time></trkpt><trkpt lat="45.0492476" lon="7.633094"><ele>265.0</ele><time>2026-05-03T06:46:08.992Z</time></trkpt><trkpt lat="45.0491958" lon="7.6332446"><ele>265.0</ele><time>2026-05-03T06:46:09.976Z</time></trkpt><trkpt lat="45.049139" lon="7.633377"><ele>265.0</ele><time>2026-05-03T06:46:11.015Z</time></trkpt><trkpt lat="45.0490761" lon="7.6335058"><ele>265.0</ele><time>2026-05-03T06:46:11.983Z</time></trkpt><trkpt lat="45.0490157" lon="7.6336414"><ele>265.0</ele><time>2026-05-03T06:46:12.982Z</time></trkpt><trkpt lat="45.0489589" lon="7.6338014"><ele>265.0</ele><time>2026-05-03T06:46:13.974Z</time></trkpt><trkpt lat="45.0489017" lon="7.6339796"><ele>265.0</ele><time>2026-05-03T06:46:14.978Z</time></trkpt><trkpt lat="45.0488408" lon="7.6341787"><ele>265.0</ele><time>2026-05-03T06:46:15.978Z</time></trkpt><trkpt lat="45.0487734" lon="7.6343882"><ele>266.0</ele><time>2026-05-03T06:46:16.978Z</time></trkpt><trkpt lat="45.0487087" lon="7.6346013"><ele>267.0</ele><time>2026-05-03T06:46:17.981Z</time></trkpt><trkpt lat="45.0486385" lon="7.6348194"><ele>268.0</ele><time>2026-05-03T06:46:18.984Z</time></trkpt><trkpt lat="45.0485725" lon="7.6350324"><ele>268.0</ele><time>2026-05-03T06:46:19.99Z</time></trkpt><trkpt lat="45.0485055" lon="7.6352499"><ele>268.0</ele><time>2026-05-03T06:46:20.984Z</time></trkpt><trkpt lat="45.048436" lon="7.6354643"><ele>268.0</ele><time>2026-05-03T06:46:21.988Z</time></trkpt><trkpt lat="45.0483711" lon="7.6356719"><ele>267.0</ele><time>2026-05-03T06:46:22.989Z</time></trkpt><trkpt lat="45.0483052" lon="7.6358607"><ele>266.0</ele><time>2026-05-03T06:46:23.993Z</time></trkpt><trkpt lat="45.0482288" lon="7.636059"><ele>265.0</ele><time>2026-05-03T06:46:24.979Z</time></trkpt><trkpt lat="45.0481575" lon="7.6362606"><ele>264.75</ele><time>2026-05-03T06:46:25.988Z</time></trkpt><trkpt lat="45.048091" lon="7.6364529"><ele>264.5</ele><time>2026-05-03T06:46:26.979Z</time></trkpt><trkpt lat="45.0480312" lon="7.6366199"><ele>264.25</ele><time>2026-05-03T06:46:27.972Z</time></trkpt><trkpt lat="45.0479843" lon="7.6367533"><ele>264.0</ele><time>2026-05-03T06:46:28.994Z</time></trkpt><trkpt lat="45.0479424" lon="7.6368557"><ele>264.0</ele><time>2026-05-03T06:46:29.992Z</time></trkpt><trkpt lat="45.0479019" lon="7.6369671"><ele>264.0</ele><time>2026-05-03T06:46:30.974Z</time></trkpt><trkpt lat="45.0478643" lon="7.6370765"><ele>264.0</ele><time>2026-05-03T06:46:31.997Z</time></trkpt><trkpt lat="45.0478012" lon="7.6371966"><ele>264.0</ele><time>2026-05-03T06:46:32.996Z</time></trkpt><trkpt lat="45.0477499" lon="7.6373527"><ele>264.0</ele><time>2026-05-03T06:46:34.027Z</time></trkpt><trkpt lat="45.0476926" lon="7.6375358"><ele>263.0</ele><time>2026-05-03T06:46:34.987Z</time></trkpt><trkpt lat="45.0476372" lon="7.6377349"><ele>262.0</ele><time>2026-05-03T06:46:35.971Z</time></trkpt><trkpt lat="45.0475838" lon="7.6379333"><ele>261.0</ele><time>2026-05-03T06:46:36.993Z</time></trkpt><trkpt lat="45.0475184" lon="7.6381308"><ele>261.0</ele><time>2026-05-03T06:46:37.995Z</time></trkpt><trkpt lat="45.0474593" lon="7.638341"><ele>261.0</ele><time>2026-05-03T06:46:39.024Z</time></trkpt><trkpt lat="45.0474142" lon="7.6385516"><ele>261.0</ele><time>2026-05-03T06:46:40.036Z</time></trkpt><trkpt lat="45.0473547" lon="7.6387411"><ele>261.0</ele><time>2026-05-03T06:46:41.042Z</time></trkpt><trkpt lat="45.047293" lon="7.6389261"><ele>261.0</ele><time>2026-05-03T06:46:42.02Z</time></trkpt><trkpt lat="45.0472288" lon="7.639101"><ele>261.0</ele><time>2026-05-03T06:46:43.044Z</time></trkpt><trkpt lat="45.0471687" lon="7.6392738"><ele>261.0</ele><time>2026-05-03T06:46:44.031Z</time></trkpt><trkpt lat="45.0471138" lon="7.639435"><ele>261.8</ele><time>2026-05-03T06:46:45.027Z</time></trkpt><trkpt lat="45.0470591" lon="7.6395934"><ele>262.6</ele><time>2026-05-03T06:46:46.034Z</time></trkpt><trkpt lat="45.0470159" lon="7.6397366"><ele>263.4</ele><time>2026-05-03T06:46:47.04Z</time></trkpt><trkpt lat="45.0469671" lon="7.6398718"><ele>264.2</ele><time>2026-05-03T06:46:48.048Z</time></trkpt><trkpt lat="45.0469167" lon="7.6399995"><ele>265.0</ele><time>2026-05-03T06:46:49.032Z</time></trkpt><trkpt lat="45.046874" lon="7.6401197"><ele>265.0</ele><time>2026-05-03T06:46:50.031Z</time></trkpt><trkpt lat="45.0468308" lon="7.6402296"><ele>265.0</ele><time>2026-05-03T06:46:51.05Z</time></trkpt><trkpt lat="45.046786" lon="7.6403286"><ele>265.0</ele><time>2026-05-03T06:46:52.045Z</time></trkpt><trkpt lat="45.0467532" lon="7.6404093"><ele>265.0</ele><time>2026-05-03T06:46:53.046Z</time></trkpt><trkpt lat="45.0467043" lon="7.6405016"><ele>265.0</ele><time>2026-05-03T06:46:55.049Z</time></trkpt><trkpt lat="45.0466706" lon="7.6405839"><ele>265.0</ele><time>2026-05-03T06:47:10.044Z</time></trkpt><trkpt lat="45.0466275" lon="7.640691"><ele>263.8</ele><time>2026-05-03T06:47:12.046Z</time></trkpt><trkpt lat="45.0465857" lon="7.6408241"><ele>262.6</ele><time>2026-05-03T06:47:13.044Z</time></trkpt><trkpt lat="45.0465361" lon="7.6409527"><ele>261.4</ele><time>2026-05-03T06:47:14.045Z</time></trkpt><trkpt lat="45.0464936" lon="7.6410902"><ele>260.2</ele><time>2026-05-03T06:47:15.042Z</time></trkpt><trkpt lat="45.0464384" lon="7.6412573"><ele>259.0</ele><time>2026-05-03T06:47:16.043Z</time></trkpt><trkpt lat="45.0463722" lon="7.6414717"><ele>259.0</ele><time>2026-05-03T06:47:17.035Z</time></trkpt><trkpt lat="45.0462988" lon="7.641682"><ele>259.0</ele><time>2026-05-03T06:47:18.042Z</time></trkpt><trkpt lat="45.0462344" lon="7.6418878"><ele>259.0</ele><time>2026-05-03T06:47:19.044Z</time></trkpt><trkpt lat="45.0461668" lon="7.642101"><ele>259.0</ele><time>2026-05-03T06:47:20.044Z</time></trkpt><trkpt lat="45.0460988" lon="7.6423062"><ele>259.0</ele><time>2026-05-03T06:47:21.047Z</time></trkpt><trkpt lat="45.0460318" lon="7.6425054"><ele>259.0</ele><time>2026-05-03T06:47:22.038Z</time></trkpt><trkpt lat="45.045963" lon="7.6427071"><ele>258.66666666666663</ele><time>2026-05-03T06:47:23.04Z</time></trkpt><trkpt lat="45.0458833" lon="7.6429202"><ele>258.3333333333333</ele><time>2026-05-03T06:47:24.038Z</time></trkpt><trkpt lat="45.0458016" lon="7.6431563"><ele>258.0</ele><time>2026-05-03T06:47:25.04Z</time></trkpt><trkpt lat="45.0457207" lon="7.6433806"><ele>258.0</ele><time>2026-05-03T06:47:26.039Z</time></trkpt><trkpt lat="45.0456457" lon="7.6435865"><ele>258.0</ele><time>2026-05-03T06:47:27.045Z</time></trkpt><trkpt lat="45.0455856" lon="7.643775"><ele>258.0</ele><time>2026-05-03T06:47:28.032Z</time></trkpt><trkpt lat="45.0455206" lon="7.6439539"><ele>258.0</ele><time>2026-05-03T06:47:29.038Z</time></trkpt><trkpt lat="45.0454662" lon="7.6441083"><ele>258.0</ele><time>2026-05-03T06:47:30.051Z</time></trkpt><trkpt lat="45.0454281" lon="7.644238"><ele>258.0</ele><time>2026-05-03T06:47:31.031Z</time></trkpt><trkpt lat="45.0454194" lon="7.6443421"><ele>258.0</ele><time>2026-05-03T06:47:32.042Z</time></trkpt><trkpt lat="45.0454413" lon="7.6444487"><ele>258.0</ele><time>2026-05-03T06:47:33.04Z</time></trkpt><trkpt lat="45.0454663" lon="7.6445474"><ele>258.0</ele><time>2026-05-03T06:47:34.038Z</time></trkpt><trkpt lat="45.0455525" lon="7.6446829"><ele>258.0</ele><time>2026-05-03T06:47:35.036Z</time></trkpt><trkpt lat="45.0456322" lon="7.6448267"><ele>258.0</ele><time>2026-05-03T06:47:36.032Z</time></trkpt><trkpt lat="45.0457166" lon="7.644967"><ele>258.0</ele><time>2026-05-03T06:47:37.036Z</time></trkpt><trkpt lat="45.0458022" lon="7.6451021"><ele>258.0</ele><time>2026-05-03T06:47:38.048Z</time></trkpt><trkpt lat="45.0458869" lon="7.6452346"><ele>257.4</ele><time>2026-05-03T06:47:39.037Z</time></trkpt><trkpt lat="45.0459635" lon="7.6453579"><ele>256.8</ele><time>2026-05-03T06:47:40.036Z</time></trkpt><trkpt lat="45.0460368" lon="7.6454736"><ele>256.2</ele><time>2026-05-03T06:47:41.032Z</time></trkpt><trkpt lat="45.046104" lon="7.6455842"><ele>255.6</ele><time>2026-05-03T06:47:42.039Z</time></trkpt><trkpt lat="45.0461645" lon="7.6456922"><ele>255.0</ele><time>2026-05-03T06:47:43.031Z</time></trkpt><trkpt lat="45.0462222" lon="7.6457851"><ele>255.0</ele><time>2026-05-03T06:47:44.029Z</time></trkpt><trkpt lat="45.0462655" lon="7.6458554"><ele>255.0</ele><time>2026-05-03T06:47:45.04Z</time></trkpt><trkpt lat="45.0463204" lon="7.6459908"><ele>255.0</ele><time>2026-05-03T06:47:47.055Z</time></trkpt><trkpt lat="45.0462721" lon="7.6461504"><ele>255.0</ele><time>2026-05-03T06:47:49.033Z</time></trkpt><trkpt lat="45.0462246" lon="7.6462177"><ele>255.0</ele><time>2026-05-03T06:47:50.045Z</time></trkpt><trkpt lat="45.0461001" lon="7.6462349"><ele>255.5</ele><time>2026-05-03T06:47:52.037Z</time></trkpt><trkpt lat="45.045998" lon="7.6461923"><ele>256.0</ele><time>2026-05-03T06:47:53.038Z</time></trkpt><trkpt lat="45.0458802" lon="7.6461328"><ele>256.5</ele><time>2026-05-03T06:47:54.048Z</time></trkpt><trkpt lat="45.0457426" lon="7.6460675"><ele>257.0</ele><time>2026-05-03T06:47:55.043Z</time></trkpt><trkpt lat="45.045609" lon="7.6459947"><ele>257.0</ele><time>2026-05-03T06:47:56.043Z</time></trkpt><trkpt lat="45.0454869" lon="7.64593"><ele>257.0</ele><time>2026-05-03T06:47:57.055Z</time></trkpt><trkpt lat="45.0453707" lon="7.6458715"><ele>257.0</ele><time>2026-05-03T06:47:58.039Z</time></trkpt><trkpt lat="45.0452484" lon="7.6458095"><ele>257.0</ele><time>2026-05-03T06:47:59.047Z</time></trkpt><trkpt lat="45.0451571" lon="7.6457448"><ele>257.0</ele><time>2026-05-03T06:48:01.048Z</time></trkpt><trkpt lat="45.0450891" lon="7.6457179"><ele>257.0</ele><time>2026-05-03T06:48:03.034Z</time></trkpt><trkpt lat="45.0450166" lon="7.6456988"><ele>257.0</ele><time>2026-05-03T06:48:05.046Z</time></trkpt><trkpt lat="45.0448705" lon="7.6456256"><ele>257.0</ele><time>2026-05-03T06:48:06.992Z</time></trkpt><trkpt lat="45.044756" lon="7.6455586"><ele>257.0</ele><time>2026-05-03T06:48:07.986Z</time></trkpt><trkpt lat="45.0446177" lon="7.6454785"><ele>257.0</ele><time>2026-05-03T06:48:08.986Z</time></trkpt><trkpt lat="45.0444736" lon="7.645393"><ele>257.0</ele><time>2026-05-03T06:48:09.984Z</time></trkpt><trkpt lat="45.0443432" lon="7.6453149"><ele>257.0</ele><time>2026-05-03T06:48:10.994Z</time></trkpt><trkpt lat="45.0442156" lon="7.6452304"><ele>257.0</ele><time>2026-05-03T06:48:11.984Z</time></trkpt><trkpt lat="45.0440962" lon="7.6451568"><ele>256.5</ele><time>2026-05-03T06:48:12.995Z</time></trkpt><trkpt lat="45.0439781" lon="7.6450957"><ele>256.0</ele><time>2026-05-03T06:48:13.993Z</time></trkpt><trkpt lat="45.0438647" lon="7.6450451"><ele>255.5</ele><time>2026-05-03T06:48:14.985Z</time></trkpt><trkpt lat="45.0437561" lon="7.6449994"><ele>255.0</ele><time>2026-05-03T06:48:15.986Z</time></trkpt><trkpt lat="45.0436605" lon="7.6449577"><ele>255.0</ele><time>2026-05-03T06:48:16.988Z</time></trkpt><trkpt lat="45.0435713" lon="7.644904"><ele>255.0</ele><time>2026-05-03T06:48:17.983Z</time></trkpt><trkpt lat="45.043493" lon="7.6448589"><ele>255.0</ele><time>2026-05-03T06:48:18.992Z</time></trkpt><trkpt lat="45.0434206" lon="7.6448193"><ele>255.0</ele><time>2026-05-03T06:48:19.991Z</time></trkpt><trkpt lat="45.0433406" lon="7.644773"><ele>255.0</ele><time>2026-05-03T06:48:20.987Z</time></trkpt><trkpt lat="45.0432536" lon="7.6447237"><ele>255.0</ele><time>2026-05-03T06:48:21.991Z</time></trkpt><trkpt lat="45.0431742" lon="7.6446795"><ele>255.0</ele><time>2026-05-03T06:48:22.989Z</time></trkpt><trkpt lat="45.0430905" lon="7.6446329"><ele>255.0</ele><time>2026-05-03T06:48:23.984Z</time></trkpt><trkpt lat="45.0430218" lon="7.6446006"><ele>255.0</ele><time>2026-05-03T06:48:24.993Z</time></trkpt><trkpt lat="45.0429402" lon="7.6445713"><ele>255.0</ele><time>2026-05-03T06:48:25.986Z</time></trkpt><trkpt lat="45.0428644" lon="7.6445571"><ele>255.0</ele><time>2026-05-03T06:48:26.987Z</time></trkpt><trkpt lat="45.0427925" lon="7.6445292"><ele>255.0</ele><time>2026-05-03T06:48:27.987Z</time></trkpt><trkpt lat="45.0427286" lon="7.6444934"><ele>255.0</ele><time>2026-05-03T06:48:28.986Z</time></trkpt><trkpt lat="45.0426755" lon="7.6444453"><ele>255.0</ele><time>2026-05-03T06:48:30.039Z</time></trkpt><trkpt lat="45.0425942" lon="7.6443897"><ele>255.0</ele><time>2026-05-03T06:48:31.995Z</time></trkpt><trkpt lat="45.0425257" lon="7.6443498"><ele>255.0</ele><time>2026-05-03T06:48:35.988Z</time></trkpt><trkpt lat="45.0424603" lon="7.6443128"><ele>255.0</ele><time>2026-05-03T06:48:58.989Z</time></trkpt><trkpt lat="45.0423761" lon="7.6442537"><ele>255.0</ele><time>2026-05-03T06:48:59.998Z</time></trkpt><trkpt lat="45.0422781" lon="7.6441873"><ele>255.0</ele><time>2026-05-03T06:49:00.981Z</time></trkpt><trkpt lat="45.0421652" lon="7.6441478"><ele>255.0</ele><time>2026-05-03T06:49:01.987Z</time></trkpt><trkpt lat="45.0420406" lon="7.6440763"><ele>255.0</ele><time>2026-05-03T06:49:02.99Z</time></trkpt><trkpt lat="45.041914" lon="7.6440141"><ele>255.0</ele><time>2026-05-03T06:49:03.983Z</time></trkpt><trkpt lat="45.0417909" lon="7.6439452"><ele>255.0</ele><time>2026-05-03T06:49:04.984Z</time></trkpt><trkpt lat="45.0416797" lon="7.6438894"><ele>255.0</ele><time>2026-05-03T06:49:05.986Z</time></trkpt><trkpt lat="45.0415656" lon="7.6438357"><ele>255.0</ele><time>2026-05-03T06:49:06.986Z</time></trkpt><trkpt lat="45.0414522" lon="7.6437631"><ele>255.0</ele><time>2026-05-03T06:49:07.983Z</time></trkpt><trkpt lat="45.0413335" lon="7.6436921"><ele>255.0</ele><time>2026-05-03T06:49:08.985Z</time></trkpt><trkpt lat="45.0412161" lon="7.6436214"><ele>255.0</ele><time>2026-05-03T06:49:09.983Z</time></trkpt><trkpt lat="45.0410993" lon="7.6435592"><ele>255.0</ele><time>2026-05-03T06:49:10.992Z</time></trkpt><trkpt lat="45.0409729" lon="7.6435001"><ele>255.0</ele><time>2026-05-03T06:49:11.994Z</time></trkpt><trkpt lat="45.0408434" lon="7.6434282"><ele>255.5</ele><time>2026-05-03T06:49:12.988Z</time></trkpt><trkpt lat="45.0407117" lon="7.643357"><ele>256.0</ele><time>2026-05-03T06:49:13.987Z</time></trkpt><trkpt lat="45.0405908" lon="7.6432825"><ele>256.5</ele><time>2026-05-03T06:49:14.985Z</time></trkpt><trkpt lat="45.0404697" lon="7.643212"><ele>257.0</ele><time>2026-05-03T06:49:15.983Z</time></trkpt><trkpt lat="45.0403571" lon="7.6431412"><ele>257.0</ele><time>2026-05-03T06:49:16.981Z</time></trkpt><trkpt lat="45.0402454" lon="7.6430765"><ele>257.0</ele><time>2026-05-03T06:49:17.98Z</time></trkpt><trkpt lat="45.04013" lon="7.6430227"><ele>257.0</ele><time>2026-05-03T06:49:18.984Z</time></trkpt><trkpt lat="45.040016" lon="7.6429642"><ele>257.0</ele><time>2026-05-03T06:49:19.982Z</time></trkpt><trkpt lat="45.0398977" lon="7.642907"><ele>257.0</ele><time>2026-05-03T06:49:20.986Z</time></trkpt><trkpt lat="45.0397741" lon="7.6428435"><ele>257.0</ele><time>2026-05-03T06:49:22.01Z</time></trkpt><trkpt lat="45.039641" lon="7.642775"><ele>257.0</ele><time>2026-05-03T06:49:22.982Z</time></trkpt><trkpt lat="45.039493" lon="7.6427009"><ele>257.0</ele><time>2026-05-03T06:49:24.001Z</time></trkpt><trkpt lat="45.0393317" lon="7.6426185"><ele>257.0</ele><time>2026-05-03T06:49:24.993Z</time></trkpt><trkpt lat="45.0391681" lon="7.642534"><ele>257.0</ele><time>2026-05-03T06:49:25.994Z</time></trkpt><trkpt lat="45.0390477" lon="7.6424637"><ele>257.0</ele><time>2026-05-03T06:49:26.976Z</time></trkpt><trkpt lat="45.0389701" lon="7.6424409"><ele>257.0</ele><time>2026-05-03T06:49:27.98Z</time></trkpt><trkpt lat="45.0388808" lon="7.6423939"><ele>257.0</ele><time>2026-05-03T06:49:29.985Z</time></trkpt><trkpt lat="45.0387991" lon="7.6423332"><ele>257.0</ele><time>2026-05-03T06:50:03.986Z</time></trkpt><trkpt lat="45.0387044" lon="7.6422559"><ele>257.0</ele><time>2026-05-03T06:50:04.997Z</time></trkpt><trkpt lat="45.0385899" lon="7.6421918"><ele>257.0</ele><time>2026-05-03T06:50:05.989Z</time></trkpt><trkpt lat="45.0384629" lon="7.6421279"><ele>257.0</ele><time>2026-05-03T06:50:07.066Z</time></trkpt><trkpt lat="45.0383362" lon="7.6420644"><ele>257.0</ele><time>2026-05-03T06:50:08.029Z</time></trkpt><trkpt lat="45.0382012" lon="7.6419871"><ele>257.0</ele><time>2026-05-03T06:50:09.042Z</time></trkpt><trkpt lat="45.0380649" lon="7.6419149"><ele>257.0</ele><time>2026-05-03T06:50:10.028Z</time></trkpt><trkpt lat="45.0379323" lon="7.6418395"><ele>256.5</ele><time>2026-05-03T06:50:11.033Z</time></trkpt><trkpt lat="45.0378101" lon="7.6417667"><ele>256.0</ele><time>2026-05-03T06:50:12.028Z</time></trkpt><trkpt lat="45.0376896" lon="7.6417046"><ele>255.5</ele><time>2026-05-03T06:50:13.032Z</time></trkpt><trkpt lat="45.0375736" lon="7.6416388"><ele>255.0</ele><time>2026-05-03T06:50:14.029Z</time></trkpt><trkpt lat="45.037456" lon="7.6415818"><ele>254.75</ele><time>2026-05-03T06:50:15.028Z</time></trkpt><trkpt lat="45.0373278" lon="7.6415179"><ele>254.5</ele><time>2026-05-03T06:50:16.032Z</time></trkpt><trkpt lat="45.0372104" lon="7.6414465"><ele>254.25</ele><time>2026-05-03T06:50:17.038Z</time></trkpt><trkpt lat="45.0370914" lon="7.6413861"><ele>254.0</ele><time>2026-05-03T06:50:18.048Z</time></trkpt><trkpt lat="45.0369654" lon="7.6413142"><ele>254.0</ele><time>2026-05-03T06:50:19.031Z</time></trkpt><trkpt lat="45.0368406" lon="7.6412592"><ele>253.99999999999997</ele><time>2026-05-03T06:50:20.033Z</time></trkpt><trkpt lat="45.0367345" lon="7.6412054"><ele>253.99999999999997</ele><time>2026-05-03T06:50:21.027Z</time></trkpt><trkpt lat="45.0366595" lon="7.6411591"><ele>254.0</ele><time>2026-05-03T06:50:22.029Z</time></trkpt><trkpt lat="45.0365935" lon="7.6411185"><ele>254.0</ele><time>2026-05-03T06:50:23.033Z</time></trkpt><trkpt lat="45.0365312" lon="7.6410773"><ele>254.39999999999998</ele><time>2026-05-03T06:50:24.03Z</time></trkpt><trkpt lat="45.0364227" lon="7.6410181"><ele>254.79999999999998</ele><time>2026-05-03T06:50:26.031Z</time></trkpt><trkpt lat="45.0363278" lon="7.6409594"><ele>255.20000000000002</ele><time>2026-05-03T06:50:28.036Z</time></trkpt><trkpt lat="45.0362609" lon="7.6408497"><ele>255.60000000000002</ele><time>2026-05-03T06:50:30.041Z</time></trkpt><trkpt lat="45.0362672" lon="7.6407292"><ele>256.0</ele><time>2026-05-03T06:50:32.042Z</time></trkpt><trkpt lat="45.0362917" lon="7.6406247"><ele>256.0</ele><time>2026-05-03T06:50:33.047Z</time></trkpt><trkpt lat="45.0363655" lon="7.640508"><ele>256.0</ele><time>2026-05-03T06:50:34.042Z</time></trkpt><trkpt lat="45.0364758" lon="7.6403541"><ele>256.0</ele><time>2026-05-03T06:50:35.031Z</time></trkpt><trkpt lat="45.0365839" lon="7.6401852"><ele>256.0</ele><time>2026-05-03T06:50:36.042Z</time></trkpt><trkpt lat="45.0366647" lon="7.6400339"><ele>256.5</ele><time>2026-05-03T06:50:37.036Z</time></trkpt><trkpt lat="45.0367651" lon="7.6398584"><ele>257.0</ele><time>2026-05-03T06:50:38.025Z</time></trkpt><trkpt lat="45.03686" lon="7.6397005"><ele>257.5</ele><time>2026-05-03T06:50:39.035Z</time></trkpt><trkpt lat="45.0369469" lon="7.6395585"><ele>258.0</ele><time>2026-05-03T06:50:40.035Z</time></trkpt><trkpt lat="45.0370263" lon="7.639451"><ele>258.0</ele><time>2026-05-03T06:50:41.041Z</time></trkpt><trkpt lat="45.0370943" lon="7.6393755"><ele>258.0</ele><time>2026-05-03T06:50:42.043Z</time></trkpt><trkpt lat="45.0371648" lon="7.6393385"><ele>258.0</ele><time>2026-05-03T06:50:43.037Z</time></trkpt><trkpt lat="45.0372687" lon="7.6393134"><ele>258.0</ele><time>2026-05-03T06:50:44.032Z</time></trkpt><trkpt lat="45.0373726" lon="7.6393146"><ele>258.0</ele><time>2026-05-03T06:50:45.038Z</time></trkpt><trkpt lat="45.0375154" lon="7.6393222"><ele>258.0</ele><time>2026-05-03T06:50:46.032Z</time></trkpt><trkpt lat="45.0376702" lon="7.6393311"><ele>258.0</ele><time>2026-05-03T06:50:47.032Z</time></trkpt><trkpt lat="45.0378287" lon="7.6393549"><ele>258.0</ele><time>2026-05-03T06:50:48.03Z</time></trkpt><trkpt lat="45.0379781" lon="7.639366"><ele>258.0</ele><time>2026-05-03T06:50:49.044Z</time></trkpt><trkpt lat="45.0381172" lon="7.6393784"><ele>258.0</ele><time>2026-05-03T06:50:50.034Z</time></trkpt><trkpt lat="45.0382605" lon="7.6394125"><ele>258.0</ele><time>2026-05-03T06:50:51.034Z</time></trkpt><trkpt lat="45.0383975" lon="7.6394312"><ele>258.0</ele><time>2026-05-03T06:50:52.045Z</time></trkpt><trkpt lat="45.0385332" lon="7.6394558"><ele>258.0</ele><time>2026-05-03T06:50:53.03Z</time></trkpt><trkpt lat="45.0386682" lon="7.6394646"><ele>258.0</ele><time>2026-05-03T06:50:54.037Z</time></trkpt><trkpt lat="45.0388114" lon="7.6394795"><ele>258.0</ele><time>2026-05-03T06:50:55.035Z</time></trkpt><trkpt lat="45.0389295" lon="7.6395022"><ele>258.0</ele><time>2026-05-03T06:50:56.028Z</time></trkpt><trkpt lat="45.0390281" lon="7.639533"><ele>257.8333333333333</ele><time>2026-05-03T06:50:57.032Z</time></trkpt><trkpt lat="45.0391183" lon="7.6395627"><ele>257.6666666666667</ele><time>2026-05-03T06:50:58.034Z</time></trkpt><trkpt lat="45.0392099" lon="7.639582"><ele>257.5</ele><time>2026-05-03T06:50:59.035Z</time></trkpt><trkpt lat="45.0392871" lon="7.6395888"><ele>257.33333333333337</ele><time>2026-05-03T06:51:00.036Z</time></trkpt><trkpt lat="45.0393603" lon="7.6395994"><ele>257.1666666666667</ele><time>2026-05-03T06:51:01.041Z</time></trkpt><trkpt lat="45.0394303" lon="7.6396033"><ele>257.0</ele><time>2026-05-03T06:51:02.031Z</time></trkpt><trkpt lat="45.0395234" lon="7.6396049"><ele>257.0</ele><time>2026-05-03T06:51:04.034Z</time></trkpt><trkpt lat="45.0395969" lon="7.6396608"><ele>257.0</ele><time>2026-05-03T06:51:25.04Z</time></trkpt><trkpt lat="45.0397603" lon="7.6396696"><ele>257.0</ele><time>2026-05-03T06:51:27.033Z</time></trkpt><trkpt lat="45.0398927" lon="7.639682"><ele>257.0</ele><time>2026-05-03T06:51:28.023Z</time></trkpt><trkpt lat="45.0400298" lon="7.6396938"><ele>257.33333333333337</ele><time>2026-05-03T06:51:29.032Z</time></trkpt><trkpt lat="45.0401888" lon="7.6397201"><ele>257.6666666666667</ele><time>2026-05-03T06:51:29.986Z</time></trkpt><trkpt lat="45.0403512" lon="7.6397347"><ele>258.0</ele><time>2026-05-03T06:51:30.988Z</time></trkpt><trkpt lat="45.0404914" lon="7.6397582"><ele>258.0</ele><time>2026-05-03T06:51:31.99Z</time></trkpt><trkpt lat="45.0406011" lon="7.6397791"><ele>258.0</ele><time>2026-05-03T06:51:32.98Z</time></trkpt><trkpt lat="45.0407015" lon="7.6398005"><ele>258.0</ele><time>2026-05-03T06:51:33.992Z</time></trkpt><trkpt lat="45.0407971" lon="7.6398221"><ele>258.0</ele><time>2026-05-03T06:51:34.982Z</time></trkpt><trkpt lat="45.0408693" lon="7.6398312"><ele>258.0</ele><time>2026-05-03T06:51:35.984Z</time></trkpt><trkpt lat="45.0409407" lon="7.6398206"><ele>258.0</ele><time>2026-05-03T06:51:40.988Z</time></trkpt><trkpt lat="45.0410042" lon="7.6397446"><ele>258.0</ele><time>2026-05-03T06:51:43.982Z</time></trkpt><trkpt lat="45.0410716" lon="7.639779"><ele>258.0</ele><time>2026-05-03T06:54:19.987Z</time></trkpt><trkpt lat="45.0410311" lon="7.6398757"><ele>258.0</ele><time>2026-05-03T06:54:22.982Z</time></trkpt><trkpt lat="45.0409536" lon="7.63984"><ele>258.0</ele><time>2026-05-03T06:54:24.976Z</time></trkpt><trkpt lat="45.0408818" lon="7.6398385"><ele>258.0</ele><time>2026-05-03T06:54:25.978Z</time></trkpt><trkpt lat="45.0407783" lon="7.6398339"><ele>258.0</ele><time>2026-05-03T06:54:26.976Z</time></trkpt><trkpt lat="45.0406758" lon="7.6398213"><ele>258.0</ele><time>2026-05-03T06:54:27.986Z</time></trkpt><trkpt lat="45.0405814" lon="7.6398094"><ele>258.0</ele><time>2026-05-03T06:54:28.977Z</time></trkpt><trkpt lat="45.0404866" lon="7.6397905"><ele>258.0</ele><time>2026-05-03T06:54:29.979Z</time></trkpt><trkpt lat="45.040395" lon="7.6397769"><ele>258.0</ele><time>2026-05-03T06:54:30.989Z</time></trkpt><trkpt lat="45.0402971" lon="7.639759"><ele>258.0</ele><time>2026-05-03T06:54:31.983Z</time></trkpt><trkpt lat="45.0401955" lon="7.6397268"><ele>258.0</ele><time>2026-05-03T06:54:32.984Z</time></trkpt><trkpt lat="45.0401121" lon="7.6396971"><ele>258.0</ele><time>2026-05-03T06:54:33.985Z</time></trkpt><trkpt lat="45.0400393" lon="7.6396712"><ele>258.0</ele><time>2026-05-03T06:54:34.989Z</time></trkpt><trkpt lat="45.0399519" lon="7.6396587"><ele>258.0</ele><time>2026-05-03T06:54:35.979Z</time></trkpt><trkpt lat="45.0398464" lon="7.6396628"><ele>257.75</ele><time>2026-05-03T06:54:36.986Z</time></trkpt><trkpt lat="45.0397207" lon="7.6396383"><ele>257.5</ele><time>2026-05-03T06:54:37.994Z</time></trkpt><trkpt lat="45.0396078" lon="7.6396303"><ele>257.25</ele><time>2026-05-03T06:54:38.985Z</time></trkpt><trkpt lat="45.0395012" lon="7.6396215"><ele>257.0</ele><time>2026-05-03T06:54:39.988Z</time></trkpt><trkpt lat="45.0393939" lon="7.6396027"><ele>257.0</ele><time>2026-05-03T06:54:40.988Z</time></trkpt><trkpt lat="45.0392872" lon="7.6395746"><ele>257.0</ele><time>2026-05-03T06:54:41.981Z</time></trkpt><trkpt lat="45.0391878" lon="7.6395611"><ele>257.0</ele><time>2026-05-03T06:54:42.991Z</time></trkpt><trkpt lat="45.039099" lon="7.6395634"><ele>257.0</ele><time>2026-05-03T06:54:43.98Z</time></trkpt><trkpt lat="45.039003" lon="7.6395421"><ele>257.0</ele><time>2026-05-03T06:54:44.982Z</time></trkpt><trkpt lat="45.0389191" lon="7.6395305"><ele>256.6666666666667</ele><time>2026-05-03T06:54:45.984Z</time></trkpt><trkpt lat="45.0388394" lon="7.639525"><ele>256.33333333333337</ele><time>2026-05-03T06:54:46.986Z</time></trkpt><trkpt lat="45.0387687" lon="7.6395213"><ele>256.0</ele><time>2026-05-03T06:54:47.986Z</time></trkpt><trkpt lat="45.0386854" lon="7.6395101"><ele>255.66666666666669</ele><time>2026-05-03T06:54:48.999Z</time></trkpt><trkpt lat="45.0385921" lon="7.639514"><ele>255.33333333333334</ele><time>2026-05-03T06:54:49.987Z</time></trkpt><trkpt lat="45.0385106" lon="7.6395009"><ele>255.0</ele><time>2026-05-03T06:54:50.976Z</time></trkpt><trkpt lat="45.0384321" lon="7.6394898"><ele>255.0</ele><time>2026-05-03T06:54:51.974Z</time></trkpt><trkpt lat="45.0383373" lon="7.639482"><ele>255.0</ele><time>2026-05-03T06:54:52.979Z</time></trkpt><trkpt lat="45.0382469" lon="7.6394572"><ele>255.0</ele><time>2026-05-03T06:54:53.981Z</time></trkpt><trkpt lat="45.0381594" lon="7.6394319"><ele>255.0</ele><time>2026-05-03T06:54:54.994Z</time></trkpt><trkpt lat="45.0380809" lon="7.6394209"><ele>255.0</ele><time>2026-05-03T06:54:55.974Z</time></trkpt><trkpt lat="45.0380011" lon="7.6394007"><ele>255.0</ele><time>2026-05-03T06:54:56.988Z</time></trkpt><trkpt lat="45.0379343" lon="7.6393948"><ele>255.5</ele><time>2026-05-03T06:54:57.981Z</time></trkpt><trkpt lat="45.0378658" lon="7.6393835"><ele>256.0</ele><time>2026-05-03T06:54:58.989Z</time></trkpt><trkpt lat="45.0377992" lon="7.639379"><ele>256.5</ele><time>2026-05-03T06:54:59.988Z</time></trkpt><trkpt lat="45.037728" lon="7.639369"><ele>257.0</ele><time>2026-05-03T06:55:00.992Z</time></trkpt><trkpt lat="45.037664" lon="7.6393656"><ele>257.5</ele><time>2026-05-03T06:55:01.989Z</time></trkpt><trkpt lat="45.0375495" lon="7.6393548"><ele>258.0</ele><time>2026-05-03T06:55:03.986Z</time></trkpt><trkpt lat="45.037473" lon="7.6393543"><ele>258.4</ele><time>2026-05-03T06:55:05.984Z</time></trkpt><trkpt lat="45.037382" lon="7.6393479"><ele>258.8</ele><time>2026-05-03T06:56:18.983Z</time></trkpt><trkpt lat="45.0372776" lon="7.6393515"><ele>259.2</ele><time>2026-05-03T06:56:20.985Z</time></trkpt><trkpt lat="45.0371716" lon="7.6393158"><ele>259.6</ele><time>2026-05-03T06:56:22.989Z</time></trkpt><trkpt lat="45.0371022" lon="7.6392893"><ele>260.0</ele><time>2026-05-03T06:56:23.991Z</time></trkpt><trkpt lat="45.0370167" lon="7.6392699"><ele>260.0</ele><time>2026-05-03T06:56:24.988Z</time></trkpt><trkpt lat="45.0369341" lon="7.6392827"><ele>260.0</ele><time>2026-05-03T06:56:25.982Z</time></trkpt><trkpt lat="45.0368624" lon="7.6393169"><ele>260.0</ele><time>2026-05-03T06:56:26.991Z</time></trkpt><trkpt lat="45.0368027" lon="7.6393909"><ele>260.0</ele><time>2026-05-03T06:56:27.984Z</time></trkpt><trkpt lat="45.0367435" lon="7.6394818"><ele>260.0</ele><time>2026-05-03T06:56:28.996Z</time></trkpt><trkpt lat="45.0366829" lon="7.6395842"><ele>260.0</ele><time>2026-05-03T06:56:29.983Z</time></trkpt><trkpt lat="45.0366105" lon="7.6397027"><ele>258.25</ele><time>2026-05-03T06:56:30.995Z</time></trkpt><trkpt lat="45.0365411" lon="7.6398275"><ele>256.5</ele><time>2026-05-03T06:56:31.981Z</time></trkpt><trkpt lat="45.0364602" lon="7.6399587"><ele>254.75</ele><time>2026-05-03T06:56:32.987Z</time></trkpt><trkpt lat="45.0363817" lon="7.6400888"><ele>253.0</ele><time>2026-05-03T06:56:33.984Z</time></trkpt><trkpt lat="45.0363158" lon="7.6402142"><ele>253.60000000000002</ele><time>2026-05-03T06:56:35.031Z</time></trkpt><trkpt lat="45.0362494" lon="7.6403164"><ele>254.20000000000002</ele><time>2026-05-03T06:56:35.989Z</time></trkpt><trkpt lat="45.0361955" lon="7.6404128"><ele>254.8</ele><time>2026-05-03T06:56:36.994Z</time></trkpt><trkpt lat="45.0361508" lon="7.6405053"><ele>255.4</ele><time>2026-05-03T06:56:37.984Z</time></trkpt><trkpt lat="45.0360716" lon="7.6406253"><ele>256.0</ele><time>2026-05-03T06:56:38.987Z</time></trkpt><trkpt lat="45.0359972" lon="7.6407491"><ele>256.0</ele><time>2026-05-03T06:56:39.994Z</time></trkpt><trkpt lat="45.035921" lon="7.6409083"><ele>256.0</ele><time>2026-05-03T06:56:40.989Z</time></trkpt><trkpt lat="45.0358099" lon="7.6410754"><ele>256.0</ele><time>2026-05-03T06:56:41.991Z</time></trkpt><trkpt lat="45.0356898" lon="7.6412483"><ele>256.66666666666663</ele><time>2026-05-03T06:56:42.991Z</time></trkpt><trkpt lat="45.0355909" lon="7.6414268"><ele>257.3333333333333</ele><time>2026-05-03T06:56:43.975Z</time></trkpt><trkpt lat="45.0354828" lon="7.6416108"><ele>258.0</ele><time>2026-05-03T06:56:44.981Z</time></trkpt><trkpt lat="45.0353735" lon="7.6418061"><ele>257.0</ele><time>2026-05-03T06:56:45.982Z</time></trkpt><trkpt lat="45.0352617" lon="7.642002"><ele>256.0</ele><time>2026-05-03T06:56:46.981Z</time></trkpt><trkpt lat="45.0351551" lon="7.6421866"><ele>255.0</ele><time>2026-05-03T06:56:47.989Z</time></trkpt><trkpt lat="45.0350542" lon="7.6423574"><ele>255.0</ele><time>2026-05-03T06:56:48.984Z</time></trkpt><trkpt lat="45.0349574" lon="7.64253"><ele>255.0</ele><time>2026-05-03T06:56:49.979Z</time></trkpt><trkpt lat="45.0348641" lon="7.6426869"><ele>255.0</ele><time>2026-05-03T06:56:50.981Z</time></trkpt><trkpt lat="45.0347724" lon="7.6428522"><ele>255.0</ele><time>2026-05-03T06:56:51.993Z</time></trkpt><trkpt lat="45.0346673" lon="7.643005"><ele>253.33333333333331</ele><time>2026-05-03T06:56:52.99Z</time></trkpt><trkpt lat="45.034568" lon="7.6431663"><ele>251.66666666666666</ele><time>2026-05-03T06:56:53.977Z</time></trkpt><trkpt lat="45.0344743" lon="7.6433478"><ele>250.0</ele><time>2026-05-03T06:56:54.987Z</time></trkpt><trkpt lat="45.0343713" lon="7.6435424"><ele>250.33333333333331</ele><time>2026-05-03T06:56:55.985Z</time></trkpt><trkpt lat="45.0342586" lon="7.6437342"><ele>250.66666666666669</ele><time>2026-05-03T06:56:56.985Z</time></trkpt><trkpt lat="45.0341485" lon="7.6439248"><ele>251.0</ele><time>2026-05-03T06:56:57.982Z</time></trkpt><trkpt lat="45.0340416" lon="7.6441113"><ele>249.33333333333334</ele><time>2026-05-03T06:56:58.985Z</time></trkpt><trkpt lat="45.0339371" lon="7.6442786"><ele>247.66666666666669</ele><time>2026-05-03T06:56:59.992Z</time></trkpt><trkpt lat="45.0338312" lon="7.6444371"><ele>246.0</ele><time>2026-05-03T06:57:01.025Z</time></trkpt><trkpt lat="45.0337353" lon="7.6446172"><ele>246.0</ele><time>2026-05-03T06:57:01.985Z</time></trkpt><trkpt lat="45.0336167" lon="7.6447865"><ele>246.0</ele><time>2026-05-03T06:57:02.992Z</time></trkpt><trkpt lat="45.0335025" lon="7.6449692"><ele>246.0</ele><time>2026-05-03T06:57:03.988Z</time></trkpt><trkpt lat="45.033397" lon="7.6451544"><ele>246.33333333333331</ele><time>2026-05-03T06:57:04.99Z</time></trkpt><trkpt lat="45.0332992" lon="7.6453331"><ele>246.66666666666666</ele><time>2026-05-03T06:57:05.989Z</time></trkpt><trkpt lat="45.0331998" lon="7.6454977"><ele>247.0</ele><time>2026-05-03T06:57:06.992Z</time></trkpt><trkpt lat="45.0331106" lon="7.6456567"><ele>247.0</ele><time>2026-05-03T06:57:07.985Z</time></trkpt><trkpt lat="45.0330323" lon="7.6458062"><ele>247.0</ele><time>2026-05-03T06:57:08.991Z</time></trkpt><trkpt lat="45.0329529" lon="7.6459341"><ele>247.0</ele><time>2026-05-03T06:57:09.979Z</time></trkpt><trkpt lat="45.0328854" lon="7.6460531"><ele>247.0</ele><time>2026-05-03T06:57:10.99Z</time></trkpt><trkpt lat="45.0328284" lon="7.6461706"><ele>246.75</ele><time>2026-05-03T06:57:11.987Z</time></trkpt><trkpt lat="45.0327763" lon="7.6462924"><ele>246.5</ele><time>2026-05-03T06:57:12.991Z</time></trkpt><trkpt lat="45.0327235" lon="7.6464236"><ele>246.25</ele><time>2026-05-03T06:57:13.976Z</time></trkpt><trkpt lat="45.0326669" lon="7.6465713"><ele>246.0</ele><time>2026-05-03T06:57:14.996Z</time></trkpt><trkpt lat="45.0326081" lon="7.6467442"><ele>246.0</ele><time>2026-05-03T06:57:15.988Z</time></trkpt><trkpt lat="45.0325538" lon="7.6469337"><ele>246.0</ele><time>2026-05-03T06:57:16.978Z</time></trkpt><trkpt lat="45.0325002" lon="7.6471395"><ele>246.0</ele><time>2026-05-03T06:57:17.985Z</time></trkpt><trkpt lat="45.0324256" lon="7.6473415"><ele>247.33333333333331</ele><time>2026-05-03T06:57:18.989Z</time></trkpt><trkpt lat="45.0323498" lon="7.647556"><ele>248.66666666666666</ele><time>2026-05-03T06:57:20Z</time></trkpt><trkpt lat="45.0322767" lon="7.6477789"><ele>250.0</ele><time>2026-05-03T06:57:21.023Z</time></trkpt><trkpt lat="45.032208" lon="7.6479938"><ele>250.0</ele><time>2026-05-03T06:57:21.992Z</time></trkpt><trkpt lat="45.0321443" lon="7.6482048"><ele>250.0</ele><time>2026-05-03T06:57:22.993Z</time></trkpt><trkpt lat="45.0320829" lon="7.6484032"><ele>250.0</ele><time>2026-05-03T06:57:23.986Z</time></trkpt><trkpt lat="45.0320214" lon="7.6486083"><ele>249.0</ele><time>2026-05-03T06:57:24.993Z</time></trkpt><trkpt lat="45.0319527" lon="7.6488161"><ele>248.0</ele><time>2026-05-03T06:57:26.04Z</time></trkpt><trkpt lat="45.0318935" lon="7.6490237"><ele>247.0</ele><time>2026-05-03T06:57:27.031Z</time></trkpt><trkpt lat="45.0318285" lon="7.6492391"><ele>247.0</ele><time>2026-05-03T06:57:28.041Z</time></trkpt><trkpt lat="45.0317657" lon="7.6494503"><ele>247.0</ele><time>2026-05-03T06:57:29.044Z</time></trkpt><trkpt lat="45.0317137" lon="7.6496464"><ele>247.0</ele><time>2026-05-03T06:57:30.045Z</time></trkpt><trkpt lat="45.0316587" lon="7.6498097"><ele>247.0</ele><time>2026-05-03T06:57:31.033Z</time></trkpt><trkpt lat="45.03161" lon="7.6499706"><ele>247.2</ele><time>2026-05-03T06:57:32.044Z</time></trkpt><trkpt lat="45.0315631" lon="7.6501213"><ele>247.39999999999998</ele><time>2026-05-03T06:57:33.036Z</time></trkpt><trkpt lat="45.0315189" lon="7.6502641"><ele>247.60000000000002</ele><time>2026-05-03T06:57:34.041Z</time></trkpt><trkpt lat="45.0314797" lon="7.6503777"><ele>247.8</ele><time>2026-05-03T06:57:35.042Z</time></trkpt><trkpt lat="45.0314471" lon="7.650494"><ele>248.0</ele><time>2026-05-03T06:57:36.042Z</time></trkpt><trkpt lat="45.0314225" lon="7.6506042"><ele>248.16666666666669</ele><time>2026-05-03T06:57:37.043Z</time></trkpt><trkpt lat="45.0313996" lon="7.6506988"><ele>248.33333333333334</ele><time>2026-05-03T06:57:38.037Z</time></trkpt><trkpt lat="45.0313759" lon="7.6507943"><ele>248.5</ele><time>2026-05-03T06:57:39.043Z</time></trkpt><trkpt lat="45.0313575" lon="7.6508802"><ele>248.66666666666669</ele><time>2026-05-03T06:57:40.036Z</time></trkpt><trkpt lat="45.0313233" lon="7.6510212"><ele>248.83333333333334</ele><time>2026-05-03T06:57:42.036Z</time></trkpt><trkpt lat="45.0312936" lon="7.6511383"><ele>249.0</ele><time>2026-05-03T06:57:44.035Z</time></trkpt><trkpt lat="45.0312693" lon="7.6512704"><ele>249.2</ele><time>2026-05-03T06:57:46.033Z</time></trkpt><trkpt lat="45.0312304" lon="7.6513768"><ele>249.39999999999998</ele><time>2026-05-03T06:57:48.04Z</time></trkpt><trkpt lat="45.0311945" lon="7.6514636"><ele>249.6</ele><time>2026-05-03T06:57:51.054Z</time></trkpt><trkpt lat="45.0311484" lon="7.6516131"><ele>249.8</ele><time>2026-05-03T06:57:54.048Z</time></trkpt><trkpt lat="45.0311003" lon="7.6517334"><ele>250.0</ele><time>2026-05-03T06:57:55.051Z</time></trkpt><trkpt lat="45.031041" lon="7.651911"><ele>249.33333333333331</ele><time>2026-05-03T06:57:55.991Z</time></trkpt><trkpt lat="45.0309918" lon="7.6521094"><ele>248.66666666666669</ele><time>2026-05-03T06:57:56.984Z</time></trkpt><trkpt lat="45.03094" lon="7.6523192"><ele>248.0</ele><time>2026-05-03T06:57:57.99Z</time></trkpt><trkpt lat="45.0308795" lon="7.6525152"><ele>248.0</ele><time>2026-05-03T06:57:58.998Z</time></trkpt><trkpt lat="45.0308244" lon="7.6527225"><ele>248.0</ele><time>2026-05-03T06:57:59.999Z</time></trkpt><trkpt lat="45.0307644" lon="7.6529327"><ele>248.0</ele><time>2026-05-03T06:58:00.998Z</time></trkpt><trkpt lat="45.0306952" lon="7.6531564"><ele>245.66666666666669</ele><time>2026-05-03T06:58:01.997Z</time></trkpt><trkpt lat="45.0306367" lon="7.6533999"><ele>243.33333333333331</ele><time>2026-05-03T06:58:02.995Z</time></trkpt><trkpt lat="45.0305646" lon="7.6536463"><ele>241.0</ele><time>2026-05-03T06:58:03.995Z</time></trkpt><trkpt lat="45.030502" lon="7.6539252"><ele>241.0</ele><time>2026-05-03T06:58:04.989Z</time></trkpt><trkpt lat="45.0304113" lon="7.6542337"><ele>241.0</ele><time>2026-05-03T06:58:05.993Z</time></trkpt><trkpt lat="45.030315" lon="7.6545676"><ele>239.5</ele><time>2026-05-03T06:58:06.996Z</time></trkpt><trkpt lat="45.0302094" lon="7.6549109"><ele>238.0</ele><time>2026-05-03T06:58:07.981Z</time></trkpt><trkpt lat="45.0301009" lon="7.6552717"><ele>237.5</ele><time>2026-05-03T06:58:08.977Z</time></trkpt><trkpt lat="45.0299984" lon="7.6556186"><ele>237.0</ele><time>2026-05-03T06:58:09.981Z</time></trkpt><trkpt lat="45.0294499" lon="7.6572073"><ele>236.66666666666669</ele><time>2026-05-03T06:58:14.979Z</time></trkpt><trkpt lat="45.0293746" lon="7.6574575"><ele>236.33333333333334</ele><time>2026-05-03T06:58:15.971Z</time></trkpt><trkpt lat="45.0292809" lon="7.6577797"><ele>236.0</ele><time>2026-05-03T06:58:16.96Z</time></trkpt><trkpt lat="45.0291922" lon="7.6580803"><ele>237.5</ele><time>2026-05-03T06:58:17.965Z</time></trkpt><trkpt lat="45.0290899" lon="7.6583976"><ele>239.0</ele><time>2026-05-03T06:58:18.99Z</time></trkpt><trkpt lat="45.0279527" lon="7.6618599"><ele>238.0</ele><time>2026-05-03T06:58:32.968Z</time></trkpt><trkpt lat="45.0279246" lon="7.6617343"><ele>237.0</ele><time>2026-05-03T06:58:37.971Z</time></trkpt><trkpt lat="45.0279193" lon="7.6616356"><ele>236.0</ele><time>2026-05-03T06:58:38.967Z</time></trkpt><trkpt lat="45.0270997" lon="7.6648784"><ele>236.0</ele><time>2026-05-03T06:58:47.972Z</time></trkpt><trkpt lat="45.027017" lon="7.6651774"><ele>236.0</ele><time>2026-05-03T06:58:48.971Z</time></trkpt><trkpt lat="45.0269465" lon="7.6654772"><ele>235.5</ele><time>2026-05-03T06:58:49.971Z</time></trkpt><trkpt lat="45.0268751" lon="7.6657756"><ele>235.0</ele><time>2026-05-03T06:58:50.973Z</time></trkpt><trkpt lat="45.0267951" lon="7.6661058"><ele>234.0</ele><time>2026-05-03T06:58:51.98Z</time></trkpt><trkpt lat="45.0267108" lon="7.6664186"><ele>233.0</ele><time>2026-05-03T06:58:52.969Z</time></trkpt><trkpt lat="45.026624" lon="7.6667165"><ele>232.66666666666669</ele><time>2026-05-03T06:58:53.988Z</time></trkpt><trkpt lat="45.0265396" lon="7.6670069"><ele>232.33333333333331</ele><time>2026-05-03T06:58:54.979Z</time></trkpt><trkpt lat="45.0264499" lon="7.6673"><ele>232.0</ele><time>2026-05-03T06:58:55.973Z</time></trkpt><trkpt lat="45.0263646" lon="7.6675871"><ele>231.66666666666666</ele><time>2026-05-03T06:58:56.979Z</time></trkpt><trkpt lat="45.0262794" lon="7.6678692"><ele>231.33333333333331</ele><time>2026-05-03T06:58:57.973Z</time></trkpt><trkpt lat="45.0261932" lon="7.6681389"><ele>231.0</ele><time>2026-05-03T06:58:58.977Z</time></trkpt><trkpt lat="45.0261104" lon="7.6684014"><ele>231.0</ele><time>2026-05-03T06:58:59.984Z</time></trkpt><trkpt lat="45.0260224" lon="7.668643"><ele>231.0</ele><time>2026-05-03T06:59:00.985Z</time></trkpt><trkpt lat="45.0259382" lon="7.6688833"><ele>231.0</ele><time>2026-05-03T06:59:01.967Z</time></trkpt><trkpt lat="45.0258546" lon="7.6691261"><ele>231.0</ele><time>2026-05-03T06:59:02.974Z</time></trkpt><trkpt lat="45.0257714" lon="7.6693614"><ele>231.0</ele><time>2026-05-03T06:59:03.978Z</time></trkpt><trkpt lat="45.0244767" lon="7.6707238"><ele>230.0</ele><time>2026-05-03T06:59:12.961Z</time></trkpt><trkpt lat="45.0242792" lon="7.670713"><ele>229.0</ele><time>2026-05-03T06:59:13.966Z</time></trkpt><trkpt lat="45.0240604" lon="7.6706962"><ele>228.0</ele><time>2026-05-03T06:59:14.973Z</time></trkpt><trkpt lat="45.0238471" lon="7.6706306"><ele>228.0</ele><time>2026-05-03T06:59:15.984Z</time></trkpt><trkpt lat="45.0236147" lon="7.6705671"><ele>228.0</ele><time>2026-05-03T06:59:16.982Z</time></trkpt><trkpt lat="45.023386" lon="7.6704972"><ele>227.0</ele><time>2026-05-03T06:59:17.974Z</time></trkpt><trkpt lat="45.0231393" lon="7.6704316"><ele>226.0</ele><time>2026-05-03T06:59:18.97Z</time></trkpt><trkpt lat="45.0228953" lon="7.6703616"><ele>226.0</ele><time>2026-05-03T06:59:19.98Z</time></trkpt><trkpt lat="45.0226308" lon="7.670285"><ele>226.0</ele><time>2026-05-03T06:59:20.982Z</time></trkpt><trkpt lat="45.0223468" lon="7.670213"><ele>226.5</ele><time>2026-05-03T06:59:21.974Z</time></trkpt><trkpt lat="45.0220625" lon="7.6701364"><ele>227.0</ele><time>2026-05-03T06:59:22.981Z</time></trkpt><trkpt lat="45.0217927" lon="7.6700633"><ele>225.5</ele><time>2026-05-03T06:59:23.982Z</time></trkpt><trkpt lat="45.0215406" lon="7.66999"><ele>224.0</ele><time>2026-05-03T06:59:24.994Z</time></trkpt><trkpt lat="45.0213104" lon="7.669916"><ele>224.0</ele><time>2026-05-03T06:59:25.992Z</time></trkpt><trkpt lat="45.0210921" lon="7.6698448"><ele>224.0</ele><time>2026-05-03T06:59:26.988Z</time></trkpt><trkpt lat="45.020886" lon="7.6697708"><ele>224.0</ele><time>2026-05-03T06:59:27.986Z</time></trkpt><trkpt lat="45.0206794" lon="7.6697048"><ele>225.0</ele><time>2026-05-03T06:59:28.991Z</time></trkpt><trkpt lat="45.0204683" lon="7.6696431"><ele>226.0</ele><time>2026-05-03T06:59:29.981Z</time></trkpt><trkpt lat="45.0202611" lon="7.6695788"><ele>227.0</ele><time>2026-05-03T06:59:30.99Z</time></trkpt><trkpt lat="45.0200449" lon="7.6695162"><ele>226.33333333333334</ele><time>2026-05-03T06:59:31.977Z</time></trkpt><trkpt lat="45.019832" lon="7.6694513"><ele>225.66666666666669</ele><time>2026-05-03T06:59:32.977Z</time></trkpt><trkpt lat="45.0196211" lon="7.6693793"><ele>225.0</ele><time>2026-05-03T06:59:33.981Z</time></trkpt><trkpt lat="45.0194144" lon="7.6693137"><ele>225.33333333333331</ele><time>2026-05-03T06:59:34.982Z</time></trkpt><trkpt lat="45.0192166" lon="7.6692521"><ele>225.66666666666666</ele><time>2026-05-03T06:59:35.981Z</time></trkpt><trkpt lat="45.0190287" lon="7.6691959"><ele>226.0</ele><time>2026-05-03T06:59:36.979Z</time></trkpt><trkpt lat="45.0188445" lon="7.6691449"><ele>226.0</ele><time>2026-05-03T06:59:37.972Z</time></trkpt><trkpt lat="45.0186779" lon="7.6690948"><ele>226.0</ele><time>2026-05-03T06:59:38.972Z</time></trkpt><trkpt lat="45.0185246" lon="7.6690385"><ele>226.0</ele><time>2026-05-03T06:59:39.982Z</time></trkpt><trkpt lat="45.0183828" lon="7.6689988"><ele>224.75</ele><time>2026-05-03T06:59:40.976Z</time></trkpt><trkpt lat="45.0182458" lon="7.6689569"><ele>223.5</ele><time>2026-05-03T06:59:41.979Z</time></trkpt><trkpt lat="45.0181119" lon="7.6689132"><ele>222.25</ele><time>2026-05-03T06:59:42.989Z</time></trkpt><trkpt lat="45.0179786" lon="7.6688693"><ele>221.0</ele><time>2026-05-03T06:59:43.983Z</time></trkpt><trkpt lat="45.0178514" lon="7.6688264"><ele>221.0</ele><time>2026-05-03T06:59:44.986Z</time></trkpt><trkpt lat="45.0177354" lon="7.6687892"><ele>221.00000000000003</ele><time>2026-05-03T06:59:45.989Z</time></trkpt><trkpt lat="45.0176356" lon="7.6687404"><ele>221.00000000000003</ele><time>2026-05-03T06:59:46.991Z</time></trkpt><trkpt lat="45.0175616" lon="7.6686759"><ele>221.0</ele><time>2026-05-03T06:59:47.983Z</time></trkpt><trkpt lat="45.0175085" lon="7.6685977"><ele>221.0</ele><time>2026-05-03T06:59:48.988Z</time></trkpt><trkpt lat="45.0174603" lon="7.6684946"><ele>221.4</ele><time>2026-05-03T06:59:49.994Z</time></trkpt><trkpt lat="45.0174253" lon="7.6683665"><ele>221.8</ele><time>2026-05-03T06:59:50.984Z</time></trkpt><trkpt lat="45.017372" lon="7.6682416"><ele>222.20000000000002</ele><time>2026-05-03T06:59:51.987Z</time></trkpt><trkpt lat="45.0173098" lon="7.6681309"><ele>222.60000000000002</ele><time>2026-05-03T06:59:52.988Z</time></trkpt><trkpt lat="45.0172296" lon="7.6680592"><ele>223.0</ele><time>2026-05-03T06:59:53.991Z</time></trkpt><trkpt lat="45.0171272" lon="7.6680638"><ele>223.0</ele><time>2026-05-03T06:59:54.996Z</time></trkpt><trkpt lat="45.0170501" lon="7.6680928"><ele>223.0</ele><time>2026-05-03T06:59:55.992Z</time></trkpt><trkpt lat="45.01697" lon="7.6681585"><ele>223.0</ele><time>2026-05-03T06:59:56.999Z</time></trkpt><trkpt lat="45.0168791" lon="7.6682297"><ele>223.0</ele><time>2026-05-03T06:59:57.989Z</time></trkpt><trkpt lat="45.0167571" lon="7.6683126"><ele>223.0</ele><time>2026-05-03T06:59:58.996Z</time></trkpt><trkpt lat="45.0166244" lon="7.6683803"><ele>223.33333333333331</ele><time>2026-05-03T06:59:59.981Z</time></trkpt><trkpt lat="45.0164668" lon="7.6684383"><ele>223.66666666666669</ele><time>2026-05-03T07:00:00.981Z</time></trkpt><trkpt lat="45.0162918" lon="7.6684751"><ele>224.0</ele><time>2026-05-03T07:00:01.994Z</time></trkpt><trkpt lat="45.0161131" lon="7.6685048"><ele>224.0</ele><time>2026-05-03T07:00:02.99Z</time></trkpt><trkpt lat="45.0159207" lon="7.6685251"><ele>224.0</ele><time>2026-05-03T07:00:03.982Z</time></trkpt><trkpt lat="45.0157233" lon="7.6685571"><ele>224.0</ele><time>2026-05-03T07:00:04.985Z</time></trkpt><trkpt lat="45.0155206" lon="7.668604"><ele>223.33333333333334</ele><time>2026-05-03T07:00:05.989Z</time></trkpt><trkpt lat="45.0153266" lon="7.6686688"><ele>222.66666666666669</ele><time>2026-05-03T07:00:06.991Z</time></trkpt><trkpt lat="45.0151349" lon="7.6687414"><ele>222.0</ele><time>2026-05-03T07:00:07.987Z</time></trkpt><trkpt lat="45.0149331" lon="7.6688195"><ele>222.0</ele><time>2026-05-03T07:00:08.986Z</time></trkpt><trkpt lat="45.0147317" lon="7.6688983"><ele>222.0</ele><time>2026-05-03T07:00:09.999Z</time></trkpt><trkpt lat="45.0145308" lon="7.6689718"><ele>222.0</ele><time>2026-05-03T07:00:10.989Z</time></trkpt><trkpt lat="45.0143207" lon="7.6690586"><ele>221.66666666666669</ele><time>2026-05-03T07:00:11.998Z</time></trkpt><trkpt lat="45.0141089" lon="7.6691477"><ele>221.33333333333334</ele><time>2026-05-03T07:00:12.984Z</time></trkpt><trkpt lat="45.0138979" lon="7.669235"><ele>221.0</ele><time>2026-05-03T07:00:13.986Z</time></trkpt><trkpt lat="45.0136885" lon="7.6693216"><ele>221.0</ele><time>2026-05-03T07:00:14.998Z</time></trkpt><trkpt lat="45.0134864" lon="7.6694103"><ele>221.0</ele><time>2026-05-03T07:00:15.987Z</time></trkpt><trkpt lat="45.0132956" lon="7.6694921"><ele>221.0</ele><time>2026-05-03T07:00:16.992Z</time></trkpt><trkpt lat="45.0131173" lon="7.6695719"><ele>222.0</ele><time>2026-05-03T07:00:17.993Z</time></trkpt><trkpt lat="45.0129468" lon="7.6696463"><ele>223.0</ele><time>2026-05-03T07:00:18.989Z</time></trkpt><trkpt lat="45.0127845" lon="7.6697042"><ele>224.0</ele><time>2026-05-03T07:00:19.981Z</time></trkpt><trkpt lat="45.0126226" lon="7.6697663"><ele>224.66666666666669</ele><time>2026-05-03T07:00:20.983Z</time></trkpt><trkpt lat="45.0124676" lon="7.6698299"><ele>225.33333333333331</ele><time>2026-05-03T07:00:21.999Z</time></trkpt><trkpt lat="45.0123115" lon="7.6698945"><ele>226.0</ele><time>2026-05-03T07:00:22.972Z</time></trkpt><trkpt lat="45.0121563" lon="7.6699549"><ele>226.0</ele><time>2026-05-03T07:00:23.979Z</time></trkpt><trkpt lat="45.0120081" lon="7.6700113"><ele>226.0</ele><time>2026-05-03T07:00:24.981Z</time></trkpt><trkpt lat="45.0118612" lon="7.6700786"><ele>226.0</ele><time>2026-05-03T07:00:25.985Z</time></trkpt><trkpt lat="45.0117022" lon="7.6701415"><ele>226.33333333333331</ele><time>2026-05-03T07:00:26.989Z</time></trkpt><trkpt lat="45.0115421" lon="7.6702063"><ele>226.66666666666669</ele><time>2026-05-03T07:00:27.983Z</time></trkpt><trkpt lat="45.0113741" lon="7.6702751"><ele>227.0</ele><time>2026-05-03T07:00:28.987Z</time></trkpt><trkpt lat="45.0112095" lon="7.6703428"><ele>226.33333333333334</ele><time>2026-05-03T07:00:29.989Z</time></trkpt><trkpt lat="45.0110484" lon="7.6704143"><ele>225.66666666666669</ele><time>2026-05-03T07:00:30.983Z</time></trkpt><trkpt lat="45.0108811" lon="7.6704813"><ele>225.0</ele><time>2026-05-03T07:00:31.977Z</time></trkpt><trkpt lat="45.0107109" lon="7.6705574"><ele>224.66666666666669</ele><time>2026-05-03T07:00:32.975Z</time></trkpt><trkpt lat="45.0105391" lon="7.670625"><ele>224.33333333333334</ele><time>2026-05-03T07:00:33.975Z</time></trkpt><trkpt lat="45.0103689" lon="7.6706935"><ele>224.0</ele><time>2026-05-03T07:00:34.989Z</time></trkpt><trkpt lat="45.0102087" lon="7.6707631"><ele>224.0</ele><time>2026-05-03T07:00:35.973Z</time></trkpt><trkpt lat="45.0100487" lon="7.6708396"><ele>224.0</ele><time>2026-05-03T07:00:36.993Z</time></trkpt><trkpt lat="45.0098831" lon="7.6709045"><ele>224.0</ele><time>2026-05-03T07:00:37.981Z</time></trkpt><trkpt lat="45.0097078" lon="7.6709726"><ele>223.66666666666669</ele><time>2026-05-03T07:00:38.983Z</time></trkpt><trkpt lat="45.0095301" lon="7.671056"><ele>223.33333333333331</ele><time>2026-05-03T07:00:39.975Z</time></trkpt><trkpt lat="45.0093656" lon="7.6711373"><ele>223.0</ele><time>2026-05-03T07:00:40.987Z</time></trkpt><trkpt lat="45.0091935" lon="7.6712131"><ele>223.33333333333331</ele><time>2026-05-03T07:00:41.98Z</time></trkpt><trkpt lat="45.0090249" lon="7.6712971"><ele>223.66666666666669</ele><time>2026-05-03T07:00:42.988Z</time></trkpt><trkpt lat="45.0088512" lon="7.6713795"><ele>224.0</ele><time>2026-05-03T07:00:43.984Z</time></trkpt><trkpt lat="45.008671" lon="7.6714683"><ele>224.0</ele><time>2026-05-03T07:00:44.991Z</time></trkpt><trkpt lat="45.0084848" lon="7.6715658"><ele>224.0</ele><time>2026-05-03T07:00:45.982Z</time></trkpt><trkpt lat="45.0082907" lon="7.6716746"><ele>224.0</ele><time>2026-05-03T07:00:46.978Z</time></trkpt><trkpt lat="45.0080981" lon="7.6717783"><ele>224.33333333333334</ele><time>2026-05-03T07:00:47.986Z</time></trkpt><trkpt lat="45.0079004" lon="7.671882"><ele>224.66666666666669</ele><time>2026-05-03T07:00:48.983Z</time></trkpt><trkpt lat="45.0076992" lon="7.6719768"><ele>225.0</ele><time>2026-05-03T07:00:49.991Z</time></trkpt><trkpt lat="45.007498" lon="7.672071"><ele>224.33333333333331</ele><time>2026-05-03T07:00:50.986Z</time></trkpt><trkpt lat="45.0073028" lon="7.672156"><ele>223.66666666666666</ele><time>2026-05-03T07:00:51.979Z</time></trkpt><trkpt lat="45.0070978" lon="7.6722416"><ele>223.0</ele><time>2026-05-03T07:00:52.982Z</time></trkpt><trkpt lat="45.0068868" lon="7.6723296"><ele>223.0</ele><time>2026-05-03T07:00:53.988Z</time></trkpt><trkpt lat="45.006675" lon="7.6724244"><ele>223.0</ele><time>2026-05-03T07:00:54.983Z</time></trkpt><trkpt lat="45.0064649" lon="7.6725201"><ele>223.0</ele><time>2026-05-03T07:00:55.986Z</time></trkpt><trkpt lat="45.006256" lon="7.672603"><ele>222.0</ele><time>2026-05-03T07:00:56.994Z</time></trkpt><trkpt lat="45.0060424" lon="7.6727024"><ele>221.0</ele><time>2026-05-03T07:00:57.971Z</time></trkpt><trkpt lat="45.0058272" lon="7.6728175"><ele>221.0</ele><time>2026-05-03T07:00:58.989Z</time></trkpt><trkpt lat="45.0056162" lon="7.6729367"><ele>221.0</ele><time>2026-05-03T07:00:59.994Z</time></trkpt><trkpt lat="45.0054003" lon="7.6730937"><ele>221.0</ele><time>2026-05-03T07:01:00.987Z</time></trkpt><trkpt lat="45.0051791" lon="7.6732899"><ele>221.0</ele><time>2026-05-03T07:01:01.998Z</time></trkpt><trkpt lat="45.0049579" lon="7.6735025"><ele>222.5</ele><time>2026-05-03T07:01:02.978Z</time></trkpt><trkpt lat="45.004754" lon="7.6737135"><ele>224.0</ele><time>2026-05-03T07:01:03.979Z</time></trkpt><trkpt lat="45.0045575" lon="7.673925"><ele>224.0</ele><time>2026-05-03T07:01:04.983Z</time></trkpt><trkpt lat="45.0043742" lon="7.6741415"><ele>224.0</ele><time>2026-05-03T07:01:05.977Z</time></trkpt><trkpt lat="45.0041948" lon="7.6743814"><ele>224.0</ele><time>2026-05-03T07:01:06.99Z</time></trkpt><trkpt lat="45.0040145" lon="7.674615"><ele>224.0</ele><time>2026-05-03T07:01:07.982Z</time></trkpt><trkpt lat="45.0038299" lon="7.6748386"><ele>224.0</ele><time>2026-05-03T07:01:08.988Z</time></trkpt><trkpt lat="45.0036394" lon="7.6750609"><ele>224.0</ele><time>2026-05-03T07:01:09.99Z</time></trkpt><trkpt lat="45.0034417" lon="7.6752512"><ele>225.0</ele><time>2026-05-03T07:01:10.995Z</time></trkpt><trkpt lat="45.0032241" lon="7.6754091"><ele>226.0</ele><time>2026-05-03T07:01:11.998Z</time></trkpt><trkpt lat="45.0030002" lon="7.6755345"><ele>226.0</ele><time>2026-05-03T07:01:12.982Z</time></trkpt><trkpt lat="45.0027634" lon="7.6756364"><ele>226.0</ele><time>2026-05-03T07:01:13.994Z</time></trkpt><trkpt lat="45.0025166" lon="7.6757214"><ele>225.0</ele><time>2026-05-03T07:01:14.983Z</time></trkpt><trkpt lat="45.0022804" lon="7.6757456"><ele>224.0</ele><time>2026-05-03T07:01:15.984Z</time></trkpt><trkpt lat="45.0020327" lon="7.6757291"><ele>224.0</ele><time>2026-05-03T07:01:16.985Z</time></trkpt><trkpt lat="45.0017926" lon="7.6756723"><ele>224.0</ele><time>2026-05-03T07:01:17.995Z</time></trkpt><trkpt lat="45.0015488" lon="7.675591"><ele>224.0</ele><time>2026-05-03T07:01:18.991Z</time></trkpt><trkpt lat="45.0013133" lon="7.6754909"><ele>224.0</ele><time>2026-05-03T07:01:19.99Z</time></trkpt><trkpt lat="45.0010715" lon="7.6754018"><ele>223.5</ele><time>2026-05-03T07:01:20.99Z</time></trkpt><trkpt lat="45.0008306" lon="7.6753129"><ele>223.0</ele><time>2026-05-03T07:01:21.993Z</time></trkpt><trkpt lat="45.0005878" lon="7.6752544"><ele>223.0</ele><time>2026-05-03T07:01:22.994Z</time></trkpt><trkpt lat="45.0003469" lon="7.6752247"><ele>223.0</ele><time>2026-05-03T07:01:24.001Z</time></trkpt><trkpt lat="45.0001025" lon="7.6752267"><ele>223.0</ele><time>2026-05-03T07:01:24.99Z</time></trkpt><trkpt lat="44.9998431" lon="7.6752607"><ele>223.0</ele><time>2026-05-03T07:01:25.992Z</time></trkpt><trkpt lat="44.9996008" lon="7.675327"><ele>222.5</ele><time>2026-05-03T07:01:27Z</time></trkpt><trkpt lat="44.9993652" lon="7.6754231"><ele>222.0</ele><time>2026-05-03T07:01:27.99Z</time></trkpt><trkpt lat="44.9991285" lon="7.6755465"><ele>221.5</ele><time>2026-05-03T07:01:29.001Z</time></trkpt><trkpt lat="44.9988896" lon="7.6756852"><ele>221.0</ele><time>2026-05-03T07:01:29.988Z</time></trkpt><trkpt lat="44.9986433" lon="7.675824"><ele>221.0</ele><time>2026-05-03T07:01:30.99Z</time></trkpt><trkpt lat="44.9983952" lon="7.6759672"><ele>221.0</ele><time>2026-05-03T07:01:31.985Z</time></trkpt><trkpt lat="44.9981525" lon="7.6761047"><ele>223.5</ele><time>2026-05-03T07:01:32.991Z</time></trkpt><trkpt lat="44.9979043" lon="7.6762494"><ele>226.0</ele><time>2026-05-03T07:01:33.989Z</time></trkpt><trkpt lat="44.9976586" lon="7.6764136"><ele>225.5</ele><time>2026-05-03T07:01:34.985Z</time></trkpt><trkpt lat="44.9974149" lon="7.6765995"><ele>225.0</ele><time>2026-05-03T07:01:36.001Z</time></trkpt><trkpt lat="44.9971718" lon="7.6768104"><ele>225.5</ele><time>2026-05-03T07:01:36.981Z</time></trkpt><trkpt lat="44.9969347" lon="7.6770404"><ele>226.0</ele><time>2026-05-03T07:01:37.995Z</time></trkpt><trkpt lat="44.9966972" lon="7.6772905"><ele>224.0</ele><time>2026-05-03T07:01:38.985Z</time></trkpt><trkpt lat="44.996463" lon="7.6775605"><ele>222.0</ele><time>2026-05-03T07:01:39.99Z</time></trkpt><trkpt lat="44.9962393" lon="7.6778366"><ele>222.0</ele><time>2026-05-03T07:01:40.985Z</time></trkpt><trkpt lat="44.9960155" lon="7.6781308"><ele>222.0</ele><time>2026-05-03T07:01:41.99Z</time></trkpt><trkpt lat="44.9958108" lon="7.6784402"><ele>222.0</ele><time>2026-05-03T07:01:42.987Z</time></trkpt><trkpt lat="44.9956168" lon="7.678756"><ele>222.0</ele><time>2026-05-03T07:01:43.985Z</time></trkpt><trkpt lat="44.9954335" lon="7.6790898"><ele>222.0</ele><time>2026-05-03T07:01:44.997Z</time></trkpt><trkpt lat="44.9952573" lon="7.6794454"><ele>222.0</ele><time>2026-05-03T07:01:45.983Z</time></trkpt><trkpt lat="44.9950885" lon="7.6798127"><ele>222.5</ele><time>2026-05-03T07:01:46.992Z</time></trkpt><trkpt lat="44.9949362" lon="7.6801933"><ele>223.0</ele><time>2026-05-03T07:01:47.988Z</time></trkpt><trkpt lat="44.9947892" lon="7.6805871"><ele>222.5</ele><time>2026-05-03T07:01:48.987Z</time></trkpt><trkpt lat="44.9946459" lon="7.6809842"><ele>222.0</ele><time>2026-05-03T07:01:49.985Z</time></trkpt><trkpt lat="44.9944995" lon="7.6813787"><ele>222.0</ele><time>2026-05-03T07:01:50.987Z</time></trkpt><trkpt lat="44.9943525" lon="7.6817724"><ele>222.0</ele><time>2026-05-03T07:01:51.989Z</time></trkpt><trkpt lat="44.9942069" lon="7.6821655"><ele>222.0</ele><time>2026-05-03T07:01:52.989Z</time></trkpt><trkpt lat="44.9940615" lon="7.6825478"><ele>222.0</ele><time>2026-05-03T07:01:53.993Z</time></trkpt><trkpt lat="44.9939187" lon="7.6829223"><ele>221.5</ele><time>2026-05-03T07:01:54.989Z</time></trkpt><trkpt lat="44.9937751" lon="7.6832907"><ele>221.0</ele><time>2026-05-03T07:01:55.987Z</time></trkpt><trkpt lat="44.9936355" lon="7.6836591"><ele>220.0</ele><time>2026-05-03T07:01:56.989Z</time></trkpt><trkpt lat="44.9934983" lon="7.684019"><ele>219.0</ele><time>2026-05-03T07:01:57.991Z</time></trkpt><trkpt lat="44.9933612" lon="7.6843868"><ele>219.5</ele><time>2026-05-03T07:01:58.981Z</time></trkpt><trkpt lat="44.9932226" lon="7.6847563"><ele>220.0</ele><time>2026-05-03T07:01:59.992Z</time></trkpt><trkpt lat="44.993085" lon="7.6851212"><ele>221.5</ele><time>2026-05-03T07:02:00.993Z</time></trkpt><trkpt lat="44.9929483" lon="7.685484"><ele>223.0</ele><time>2026-05-03T07:02:01.989Z</time></trkpt><trkpt lat="44.9928079" lon="7.6858469"><ele>223.5</ele><time>2026-05-03T07:02:02.987Z</time></trkpt><trkpt lat="44.9926707" lon="7.6862062"><ele>224.0</ele><time>2026-05-03T07:02:03.993Z</time></trkpt><trkpt lat="44.99253" lon="7.6865697"><ele>222.5</ele><time>2026-05-03T07:02:04.98Z</time></trkpt><trkpt lat="44.9923879" lon="7.6869361"><ele>221.0</ele><time>2026-05-03T07:02:05.988Z</time></trkpt><trkpt lat="44.9922536" lon="7.6872936"><ele>221.0</ele><time>2026-05-03T07:02:06.992Z</time></trkpt><trkpt lat="44.9921182" lon="7.6876501"><ele>221.0</ele><time>2026-05-03T07:02:08.006Z</time></trkpt><trkpt lat="44.9919892" lon="7.687997"><ele>221.0</ele><time>2026-05-03T07:02:08.992Z</time></trkpt><trkpt lat="44.9918615" lon="7.6883471"><ele>221.0</ele><time>2026-05-03T07:02:09.996Z</time></trkpt><trkpt lat="44.9917356" lon="7.6886927"><ele>220.5</ele><time>2026-05-03T07:02:11.003Z</time></trkpt><trkpt lat="44.9916072" lon="7.6890364"><ele>220.0</ele><time>2026-05-03T07:02:11.997Z</time></trkpt><trkpt lat="44.9914773" lon="7.6893847"><ele>219.5</ele><time>2026-05-03T07:02:13.002Z</time></trkpt><trkpt lat="44.9913444" lon="7.689729"><ele>219.0</ele><time>2026-05-03T07:02:14.002Z</time></trkpt><trkpt lat="44.991213" lon="7.690092"><ele>219.0</ele><time>2026-05-03T07:02:15.008Z</time></trkpt><trkpt lat="44.9910733" lon="7.6904558"><ele>219.0</ele><time>2026-05-03T07:02:16.003Z</time></trkpt><trkpt lat="44.9909289" lon="7.6908262"><ele>219.0</ele><time>2026-05-03T07:02:16.992Z</time></trkpt><trkpt lat="44.9907853" lon="7.6911957"><ele>219.0</ele><time>2026-05-03T07:02:18Z</time></trkpt><trkpt lat="44.9906467" lon="7.6915626"><ele>219.0</ele><time>2026-05-03T07:02:19.011Z</time></trkpt><trkpt lat="44.9905112" lon="7.6919228"><ele>219.0</ele><time>2026-05-03T07:02:20.027Z</time></trkpt><trkpt lat="44.9903738" lon="7.6922779"><ele>219.5</ele><time>2026-05-03T07:02:20.993Z</time></trkpt><trkpt lat="44.9902354" lon="7.692629"><ele>220.0</ele><time>2026-05-03T07:02:22.009Z</time></trkpt><trkpt lat="44.9900987" lon="7.6929805"><ele>219.5</ele><time>2026-05-03T07:02:23.001Z</time></trkpt><trkpt lat="44.9899588" lon="7.6933343"><ele>219.0</ele><time>2026-05-03T07:02:24.001Z</time></trkpt><trkpt lat="44.989814" lon="7.6936887"><ele>220.0</ele><time>2026-05-03T07:02:25.001Z</time></trkpt><trkpt lat="44.9896594" lon="7.6940321"><ele>221.0</ele><time>2026-05-03T07:02:26.004Z</time></trkpt><trkpt lat="44.9894947" lon="7.694359"><ele>221.5</ele><time>2026-05-03T07:02:26.994Z</time></trkpt><trkpt lat="44.9893156" lon="7.6946783"><ele>222.0</ele><time>2026-05-03T07:02:27.99Z</time></trkpt><trkpt lat="44.9891275" lon="7.694993"><ele>223.0</ele><time>2026-05-03T07:02:28.995Z</time></trkpt><trkpt lat="44.9889309" lon="7.6952959"><ele>224.0</ele><time>2026-05-03T07:02:29.992Z</time></trkpt><trkpt lat="44.9887269" lon="7.695598"><ele>224.0</ele><time>2026-05-03T07:02:30.993Z</time></trkpt><trkpt lat="44.9885145" lon="7.6958902"><ele>224.0</ele><time>2026-05-03T07:02:31.991Z</time></trkpt><trkpt lat="44.9882999" lon="7.6961668"><ele>223.5</ele><time>2026-05-03T07:02:32.99Z</time></trkpt><trkpt lat="44.9880747" lon="7.6964374"><ele>223.0</ele><time>2026-05-03T07:02:33.99Z</time></trkpt><trkpt lat="44.9878453" lon="7.6966756"><ele>223.0</ele><time>2026-05-03T07:02:34.984Z</time></trkpt><trkpt lat="44.9876144" lon="7.6969061"><ele>223.0</ele><time>2026-05-03T07:02:35.994Z</time></trkpt><trkpt lat="44.9873776" lon="7.697125"><ele>220.0</ele><time>2026-05-03T07:02:36.991Z</time></trkpt><trkpt lat="44.9871397" lon="7.6973333"><ele>217.0</ele><time>2026-05-03T07:02:37.998Z</time></trkpt><trkpt lat="44.9869" lon="7.6975291"><ele>217.5</ele><time>2026-05-03T07:02:38.995Z</time></trkpt><trkpt lat="44.9866605" lon="7.6977089"><ele>218.0</ele><time>2026-05-03T07:02:39.988Z</time></trkpt><trkpt lat="44.9864162" lon="7.6978828"><ele>218.5</ele><time>2026-05-03T07:02:40.982Z</time></trkpt><trkpt lat="44.9861655" lon="7.6980415"><ele>219.0</ele><time>2026-05-03T07:02:41.983Z</time></trkpt><trkpt lat="44.9859078" lon="7.6981844"><ele>220.5</ele><time>2026-05-03T07:02:42.988Z</time></trkpt><trkpt lat="44.9856472" lon="7.6983157"><ele>222.0</ele><time>2026-05-03T07:02:43.993Z</time></trkpt><trkpt lat="44.985391" lon="7.6984342"><ele>222.0</ele><time>2026-05-03T07:02:44.987Z</time></trkpt><trkpt lat="44.9851219" lon="7.6985435"><ele>222.0</ele><time>2026-05-03T07:02:45.996Z</time></trkpt><trkpt lat="44.9848543" lon="7.6986452"><ele>222.0</ele><time>2026-05-03T07:02:46.983Z</time></trkpt><trkpt lat="44.9845737" lon="7.6987302"><ele>222.0</ele><time>2026-05-03T07:02:47.983Z</time></trkpt><trkpt lat="44.984293" lon="7.6988105"><ele>221.0</ele><time>2026-05-03T07:02:48.977Z</time></trkpt><trkpt lat="44.9840084" lon="7.6988882"><ele>220.0</ele><time>2026-05-03T07:02:49.987Z</time></trkpt><trkpt lat="44.9837252" lon="7.698968"><ele>220.0</ele><time>2026-05-03T07:02:50.988Z</time></trkpt><trkpt lat="44.9834382" lon="7.6990443"><ele>220.0</ele><time>2026-05-03T07:02:51.995Z</time></trkpt><trkpt lat="44.9831489" lon="7.6991197"><ele>219.0</ele><time>2026-05-03T07:02:52.989Z</time></trkpt><trkpt lat="44.9828627" lon="7.6991962"><ele>218.0</ele><time>2026-05-03T07:02:53.994Z</time></trkpt><trkpt lat="44.9825788" lon="7.6992653"><ele>219.5</ele><time>2026-05-03T07:02:54.985Z</time></trkpt><trkpt lat="44.9822934" lon="7.69934"><ele>221.0</ele><time>2026-05-03T07:02:55.983Z</time></trkpt><trkpt lat="44.9820136" lon="7.6994156"><ele>221.5</ele><time>2026-05-03T07:02:56.991Z</time></trkpt><trkpt lat="44.9817311" lon="7.6994925"><ele>222.0</ele><time>2026-05-03T07:02:57.987Z</time></trkpt><trkpt lat="44.9814419" lon="7.6995666"><ele>222.5</ele><time>2026-05-03T07:02:58.988Z</time></trkpt><trkpt lat="44.9811522" lon="7.6996433"><ele>223.0</ele><time>2026-05-03T07:02:59.984Z</time></trkpt><trkpt lat="44.9808666" lon="7.6997176"><ele>222.5</ele><time>2026-05-03T07:03:00.99Z</time></trkpt><trkpt lat="44.980577" lon="7.699792"><ele>222.0</ele><time>2026-05-03T07:03:01.993Z</time></trkpt><trkpt lat="44.9802942" lon="7.6998603"><ele>222.0</ele><time>2026-05-03T07:03:02.985Z</time></trkpt><trkpt lat="44.9800185" lon="7.6999338"><ele>222.0</ele><time>2026-05-03T07:03:03.991Z</time></trkpt><trkpt lat="44.9797485" lon="7.7000087"><ele>222.0</ele><time>2026-05-03T07:03:04.994Z</time></trkpt><trkpt lat="44.9794686" lon="7.7000809"><ele>222.0</ele><time>2026-05-03T07:03:05.995Z</time></trkpt><trkpt lat="44.9791808" lon="7.7001539"><ele>222.0</ele><time>2026-05-03T07:03:06.988Z</time></trkpt><trkpt lat="44.9788919" lon="7.7002336"><ele>222.0</ele><time>2026-05-03T07:03:07.979Z</time></trkpt><trkpt lat="44.9786026" lon="7.700313"><ele>222.5</ele><time>2026-05-03T07:03:08.984Z</time></trkpt><trkpt lat="44.9783103" lon="7.7003875"><ele>223.0</ele><time>2026-05-03T07:03:09.99Z</time></trkpt><trkpt lat="44.9780234" lon="7.7004615"><ele>223.0</ele><time>2026-05-03T07:03:10.985Z</time></trkpt><trkpt lat="44.9777416" lon="7.700528"><ele>223.0</ele><time>2026-05-03T07:03:11.983Z</time></trkpt><trkpt lat="44.9774668" lon="7.7005982"><ele>223.0</ele><time>2026-05-03T07:03:12.974Z</time></trkpt><trkpt lat="44.9771918" lon="7.7006738"><ele>223.0</ele><time>2026-05-03T07:03:13.986Z</time></trkpt><trkpt lat="44.9769181" lon="7.7007518"><ele>223.0</ele><time>2026-05-03T07:03:14.981Z</time></trkpt><trkpt lat="44.9766462" lon="7.7008227"><ele>223.0</ele><time>2026-05-03T07:03:15.98Z</time></trkpt><trkpt lat="44.9763769" lon="7.7008874"><ele>223.0</ele><time>2026-05-03T07:03:16.977Z</time></trkpt><trkpt lat="44.9761056" lon="7.7009558"><ele>223.0</ele><time>2026-05-03T07:03:17.987Z</time></trkpt><trkpt lat="44.9758326" lon="7.701031"><ele>222.0</ele><time>2026-05-03T07:03:18.991Z</time></trkpt><trkpt lat="44.9755588" lon="7.7011041"><ele>221.0</ele><time>2026-05-03T07:03:19.985Z</time></trkpt><trkpt lat="44.9752816" lon="7.7011752"><ele>221.5</ele><time>2026-05-03T07:03:20.988Z</time></trkpt><trkpt lat="44.975005" lon="7.7012444"><ele>222.0</ele><time>2026-05-03T07:03:21.988Z</time></trkpt><trkpt lat="44.9747343" lon="7.7013164"><ele>222.0</ele><time>2026-05-03T07:03:22.986Z</time></trkpt><trkpt lat="44.9744626" lon="7.7013894"><ele>222.0</ele><time>2026-05-03T07:03:23.986Z</time></trkpt><trkpt lat="44.9741868" lon="7.7014635"><ele>222.0</ele><time>2026-05-03T07:03:24.986Z</time></trkpt><trkpt lat="44.97391" lon="7.7015393"><ele>222.0</ele><time>2026-05-03T07:03:26.003Z</time></trkpt><trkpt lat="44.9736338" lon="7.7016111"><ele>222.0</ele><time>2026-05-03T07:03:26.983Z</time></trkpt><trkpt lat="44.9733619" lon="7.7016855"><ele>222.0</ele><time>2026-05-03T07:03:27.982Z</time></trkpt><trkpt lat="44.9730865" lon="7.7017548"><ele>221.5</ele><time>2026-05-03T07:03:28.992Z</time></trkpt><trkpt lat="44.9728005" lon="7.70183"><ele>221.0</ele><time>2026-05-03T07:03:29.989Z</time></trkpt><trkpt lat="44.9725217" lon="7.7019022"><ele>222.0</ele><time>2026-05-03T07:03:30.986Z</time></trkpt><trkpt lat="44.9722388" lon="7.7019773"><ele>223.0</ele><time>2026-05-03T07:03:31.981Z</time></trkpt><trkpt lat="44.9719637" lon="7.702052"><ele>225.5</ele><time>2026-05-03T07:03:32.991Z</time></trkpt><trkpt lat="44.9716892" lon="7.7021312"><ele>228.0</ele><time>2026-05-03T07:03:33.988Z</time></trkpt><trkpt lat="44.971411" lon="7.7022044"><ele>228.0</ele><time>2026-05-03T07:03:34.983Z</time></trkpt><trkpt lat="44.9711307" lon="7.7022748"><ele>228.0</ele><time>2026-05-03T07:03:35.979Z</time></trkpt><trkpt lat="44.9708503" lon="7.7023434"><ele>227.5</ele><time>2026-05-03T07:03:36.992Z</time></trkpt><trkpt lat="44.9705672" lon="7.7024162"><ele>227.0</ele><time>2026-05-03T07:03:37.987Z</time></trkpt><trkpt lat="44.9702932" lon="7.7024935"><ele>226.0</ele><time>2026-05-03T07:03:38.992Z</time></trkpt><trkpt lat="44.9700115" lon="7.70257"><ele>225.0</ele><time>2026-05-03T07:03:39.985Z</time></trkpt><trkpt lat="44.9697241" lon="7.7026466"><ele>225.0</ele><time>2026-05-03T07:03:40.994Z</time></trkpt><trkpt lat="44.9694395" lon="7.7027215"><ele>225.0</ele><time>2026-05-03T07:03:41.994Z</time></trkpt><trkpt lat="44.9691532" lon="7.7027962"><ele>224.5</ele><time>2026-05-03T07:03:42.98Z</time></trkpt><trkpt lat="44.9688621" lon="7.7028723"><ele>224.0</ele><time>2026-05-03T07:03:43.981Z</time></trkpt><trkpt lat="44.9685696" lon="7.7029532"><ele>222.5</ele><time>2026-05-03T07:03:44.995Z</time></trkpt><trkpt lat="44.9682747" lon="7.7030289"><ele>221.0</ele><time>2026-05-03T07:03:45.985Z</time></trkpt><trkpt lat="44.967979" lon="7.7031073"><ele>221.0</ele><time>2026-05-03T07:03:46.982Z</time></trkpt><trkpt lat="44.9676833" lon="7.7031898"><ele>221.0</ele><time>2026-05-03T07:03:47.994Z</time></trkpt><trkpt lat="44.9673858" lon="7.7032728"><ele>221.5</ele><time>2026-05-03T07:03:48.992Z</time></trkpt><trkpt lat="44.9670855" lon="7.7033506"><ele>222.0</ele><time>2026-05-03T07:03:49.989Z</time></trkpt><trkpt lat="44.9667915" lon="7.7034284"><ele>221.5</ele><time>2026-05-03T07:03:51.004Z</time></trkpt><trkpt lat="44.9664936" lon="7.7035125"><ele>221.0</ele><time>2026-05-03T07:03:51.981Z</time></trkpt><trkpt lat="44.9661976" lon="7.7035899"><ele>221.0</ele><time>2026-05-03T07:03:52.984Z</time></trkpt><trkpt lat="44.9659041" lon="7.7036687"><ele>221.0</ele><time>2026-05-03T07:03:53.987Z</time></trkpt><trkpt lat="44.9656121" lon="7.7037474"><ele>221.0</ele><time>2026-05-03T07:03:54.987Z</time></trkpt><trkpt lat="44.9653218" lon="7.7038181"><ele>221.0</ele><time>2026-05-03T07:03:55.995Z</time></trkpt><trkpt lat="44.9650351" lon="7.703892"><ele>221.0</ele><time>2026-05-03T07:03:56.987Z</time></trkpt><trkpt lat="44.9647482" lon="7.703966"><ele>221.0</ele><time>2026-05-03T07:03:57.98Z</time></trkpt><trkpt lat="44.9644698" lon="7.7040366"><ele>222.0</ele><time>2026-05-03T07:03:58.989Z</time></trkpt><trkpt lat="44.9641905" lon="7.7041129"><ele>223.0</ele><time>2026-05-03T07:03:59.99Z</time></trkpt><trkpt lat="44.9639121" lon="7.7041966"><ele>223.0</ele><time>2026-05-03T07:04:00.985Z</time></trkpt><trkpt lat="44.9636356" lon="7.7042771"><ele>223.0</ele><time>2026-05-03T07:04:01.993Z</time></trkpt><trkpt lat="44.9633569" lon="7.704361"><ele>222.5</ele><time>2026-05-03T07:04:02.992Z</time></trkpt><trkpt lat="44.9630795" lon="7.7044498"><ele>222.0</ele><time>2026-05-03T07:04:03.985Z</time></trkpt><trkpt lat="44.9628068" lon="7.7045513"><ele>222.5</ele><time>2026-05-03T07:04:04.985Z</time></trkpt><trkpt lat="44.9625248" lon="7.7046682"><ele>223.0</ele><time>2026-05-03T07:04:05.988Z</time></trkpt><trkpt lat="44.9622512" lon="7.7047971"><ele>223.0</ele><time>2026-05-03T07:04:06.993Z</time></trkpt><trkpt lat="44.9619769" lon="7.7049389"><ele>223.0</ele><time>2026-05-03T07:04:07.996Z</time></trkpt><trkpt lat="44.9617038" lon="7.7050968"><ele>223.5</ele><time>2026-05-03T07:04:08.992Z</time></trkpt><trkpt lat="44.9614296" lon="7.7052638"><ele>224.0</ele><time>2026-05-03T07:04:09.985Z</time></trkpt><trkpt lat="44.9611618" lon="7.7054433"><ele>224.0</ele><time>2026-05-03T07:04:10.988Z</time></trkpt><trkpt lat="44.960897" lon="7.7056374"><ele>224.0</ele><time>2026-05-03T07:04:11.98Z</time></trkpt><trkpt lat="44.9606398" lon="7.70584"><ele>224.0</ele><time>2026-05-03T07:04:12.983Z</time></trkpt><trkpt lat="44.9603864" lon="7.7060567"><ele>224.0</ele><time>2026-05-03T07:04:13.988Z</time></trkpt><trkpt lat="44.9601409" lon="7.7062867"><ele>223.5</ele><time>2026-05-03T07:04:14.984Z</time></trkpt><trkpt lat="44.9598991" lon="7.7065287"><ele>223.0</ele><time>2026-05-03T07:04:15.989Z</time></trkpt><trkpt lat="44.9596604" lon="7.70678"><ele>223.0</ele><time>2026-05-03T07:04:16.982Z</time></trkpt><trkpt lat="44.9594307" lon="7.7070394"><ele>223.0</ele><time>2026-05-03T07:04:17.986Z</time></trkpt><trkpt lat="44.9592004" lon="7.7073113"><ele>223.0</ele><time>2026-05-03T07:04:18.984Z</time></trkpt><trkpt lat="44.9589737" lon="7.7075799"><ele>223.0</ele><time>2026-05-03T07:04:19.987Z</time></trkpt><trkpt lat="44.9587491" lon="7.7078465"><ele>223.0</ele><time>2026-05-03T07:04:20.986Z</time></trkpt><trkpt lat="44.9585219" lon="7.7081096"><ele>223.0</ele><time>2026-05-03T07:04:21.986Z</time></trkpt><trkpt lat="44.9582939" lon="7.7083745"><ele>223.5</ele><time>2026-05-03T07:04:22.985Z</time></trkpt><trkpt lat="44.9580654" lon="7.7086396"><ele>224.0</ele><time>2026-05-03T07:04:23.987Z</time></trkpt><trkpt lat="44.9578392" lon="7.7089048"><ele>224.0</ele><time>2026-05-03T07:04:24.988Z</time></trkpt><trkpt lat="44.9576146" lon="7.709172"><ele>224.0</ele><time>2026-05-03T07:04:25.984Z</time></trkpt><trkpt lat="44.9573847" lon="7.7094219"><ele>225.5</ele><time>2026-05-03T07:04:26.984Z</time></trkpt><trkpt lat="44.957147" lon="7.7096754"><ele>227.0</ele><time>2026-05-03T07:04:27.986Z</time></trkpt><trkpt lat="44.9569023" lon="7.7099138"><ele>226.5</ele><time>2026-05-03T07:04:28.99Z</time></trkpt><trkpt lat="44.9566543" lon="7.710136"><ele>226.0</ele><time>2026-05-03T07:04:29.992Z</time></trkpt><trkpt lat="44.9564031" lon="7.7103567"><ele>226.0</ele><time>2026-05-03T07:04:30.984Z</time></trkpt><trkpt lat="44.9561526" lon="7.710564"><ele>226.0</ele><time>2026-05-03T07:04:31.983Z</time></trkpt><trkpt lat="44.9558972" lon="7.7107638"><ele>225.0</ele><time>2026-05-03T07:04:32.982Z</time></trkpt><trkpt lat="44.9556371" lon="7.7109623"><ele>224.0</ele><time>2026-05-03T07:04:33.983Z</time></trkpt><trkpt lat="44.9553785" lon="7.7111485"><ele>224.0</ele><time>2026-05-03T07:04:34.994Z</time></trkpt><trkpt lat="44.95511" lon="7.7113295"><ele>224.0</ele><time>2026-05-03T07:04:35.987Z</time></trkpt><trkpt lat="44.954847" lon="7.7115"><ele>224.0</ele><time>2026-05-03T07:04:36.982Z</time></trkpt><trkpt lat="44.9545809" lon="7.7116685"><ele>224.0</ele><time>2026-05-03T07:04:37.984Z</time></trkpt><trkpt lat="44.9543136" lon="7.7118227"><ele>224.0</ele><time>2026-05-03T07:04:38.979Z</time></trkpt><trkpt lat="44.9540448" lon="7.7119712"><ele>224.0</ele><time>2026-05-03T07:04:39.982Z</time></trkpt><trkpt lat="44.9537728" lon="7.7121123"><ele>224.0</ele><time>2026-05-03T07:04:40.979Z</time></trkpt><trkpt lat="44.9534971" lon="7.7122476"><ele>224.0</ele><time>2026-05-03T07:04:41.992Z</time></trkpt><trkpt lat="44.9532223" lon="7.7123697"><ele>225.5</ele><time>2026-05-03T07:04:42.973Z</time></trkpt><trkpt lat="44.9529464" lon="7.7124865"><ele>227.0</ele><time>2026-05-03T07:04:43.976Z</time></trkpt><trkpt lat="44.9526694" lon="7.7125837"><ele>226.5</ele><time>2026-05-03T07:04:44.98Z</time></trkpt><trkpt lat="44.9523909" lon="7.7126804"><ele>226.0</ele><time>2026-05-03T07:04:45.981Z</time></trkpt><trkpt lat="44.9521054" lon="7.7127684"><ele>226.0</ele><time>2026-05-03T07:04:46.984Z</time></trkpt><trkpt lat="44.9518232" lon="7.7128556"><ele>226.0</ele><time>2026-05-03T07:04:47.977Z</time></trkpt><trkpt lat="44.951539" lon="7.7129472"><ele>225.0</ele><time>2026-05-03T07:04:49.002Z</time></trkpt><trkpt lat="44.9512549" lon="7.7130323"><ele>224.0</ele><time>2026-05-03T07:04:49.991Z</time></trkpt><trkpt lat="44.9509695" lon="7.7131219"><ele>223.5</ele><time>2026-05-03T07:04:50.986Z</time></trkpt><trkpt lat="44.9506898" lon="7.7132057"><ele>223.0</ele><time>2026-05-03T07:04:51.994Z</time></trkpt><trkpt lat="44.9504085" lon="7.7132924"><ele>223.0</ele><time>2026-05-03T07:04:52.983Z</time></trkpt><trkpt lat="44.9501203" lon="7.7133835"><ele>223.0</ele><time>2026-05-03T07:04:53.99Z</time></trkpt><trkpt lat="44.9498295" lon="7.7134756"><ele>223.5</ele><time>2026-05-03T07:04:54.987Z</time></trkpt><trkpt lat="44.9495489" lon="7.7135632"><ele>224.0</ele><time>2026-05-03T07:04:55.984Z</time></trkpt><trkpt lat="44.9492666" lon="7.7136615"><ele>224.5</ele><time>2026-05-03T07:04:56.981Z</time></trkpt><trkpt lat="44.9489844" lon="7.7137642"><ele>225.0</ele><time>2026-05-03T07:04:57.989Z</time></trkpt><trkpt lat="44.9487025" lon="7.7138776"><ele>225.0</ele><time>2026-05-03T07:04:58.989Z</time></trkpt><trkpt lat="44.9484163" lon="7.7140009"><ele>225.0</ele><time>2026-05-03T07:04:59.999Z</time></trkpt><trkpt lat="44.9481337" lon="7.7141237"><ele>225.0</ele><time>2026-05-03T07:05:00.986Z</time></trkpt><trkpt lat="44.9478502" lon="7.7142522"><ele>225.0</ele><time>2026-05-03T07:05:01.994Z</time></trkpt><trkpt lat="44.9475692" lon="7.7143877"><ele>224.5</ele><time>2026-05-03T07:05:02.98Z</time></trkpt><trkpt lat="44.9472793" lon="7.7145301"><ele>224.0</ele><time>2026-05-03T07:05:04Z</time></trkpt><trkpt lat="44.9469905" lon="7.7146844"><ele>226.0</ele><time>2026-05-03T07:05:04.983Z</time></trkpt><trkpt lat="44.9467073" lon="7.7148512"><ele>228.0</ele><time>2026-05-03T07:05:05.995Z</time></trkpt><trkpt lat="44.9464126" lon="7.7150232"><ele>228.0</ele><time>2026-05-03T07:05:06.992Z</time></trkpt><trkpt lat="44.9461216" lon="7.7152023"><ele>228.0</ele><time>2026-05-03T07:05:07.987Z</time></trkpt><trkpt lat="44.9458297" lon="7.7153919"><ele>227.5</ele><time>2026-05-03T07:05:08.985Z</time></trkpt><trkpt lat="44.9455401" lon="7.7155868"><ele>227.0</ele><time>2026-05-03T07:05:09.993Z</time></trkpt><trkpt lat="44.9452563" lon="7.7157853"><ele>226.5</ele><time>2026-05-03T07:05:10.976Z</time></trkpt><trkpt lat="44.9449736" lon="7.7159835"><ele>226.0</ele><time>2026-05-03T07:05:11.99Z</time></trkpt><trkpt lat="44.9446907" lon="7.7161781"><ele>225.5</ele><time>2026-05-03T07:05:12.984Z</time></trkpt><trkpt lat="44.9444056" lon="7.716378"><ele>225.0</ele><time>2026-05-03T07:05:13.98Z</time></trkpt><trkpt lat="44.9441202" lon="7.7165703"><ele>225.0</ele><time>2026-05-03T07:05:14.986Z</time></trkpt><trkpt lat="44.9438342" lon="7.7167624"><ele>225.0</ele><time>2026-05-03T07:05:15.993Z</time></trkpt><trkpt lat="44.9435494" lon="7.7169574"><ele>225.0</ele><time>2026-05-03T07:05:16.985Z</time></trkpt><trkpt lat="44.9432673" lon="7.7171522"><ele>225.0</ele><time>2026-05-03T07:05:17.997Z</time></trkpt><trkpt lat="44.9429811" lon="7.7173474"><ele>225.0</ele><time>2026-05-03T07:05:18.974Z</time></trkpt><trkpt lat="44.9426993" lon="7.7175413"><ele>225.0</ele><time>2026-05-03T07:05:19.988Z</time></trkpt><trkpt lat="44.9424242" lon="7.7177363"><ele>226.0</ele><time>2026-05-03T07:05:20.992Z</time></trkpt><trkpt lat="44.9421378" lon="7.717931"><ele>227.0</ele><time>2026-05-03T07:05:21.996Z</time></trkpt><trkpt lat="44.9418561" lon="7.7181239"><ele>225.5</ele><time>2026-05-03T07:05:22.982Z</time></trkpt><trkpt lat="44.9415789" lon="7.71832"><ele>224.0</ele><time>2026-05-03T07:05:23.993Z</time></trkpt><trkpt lat="44.9413005" lon="7.7185139"><ele>224.0</ele><time>2026-05-03T07:05:24.986Z</time></trkpt><trkpt lat="44.9410215" lon="7.7187027"><ele>224.0</ele><time>2026-05-03T07:05:25.987Z</time></trkpt><trkpt lat="44.9407473" lon="7.7188876"><ele>225.0</ele><time>2026-05-03T07:05:26.99Z</time></trkpt><trkpt lat="44.9404727" lon="7.7190779"><ele>226.0</ele><time>2026-05-03T07:05:27.98Z</time></trkpt><trkpt lat="44.9401981" lon="7.7192606"><ele>226.0</ele><time>2026-05-03T07:05:28.986Z</time></trkpt><trkpt lat="44.9399223" lon="7.7194438"><ele>226.0</ele><time>2026-05-03T07:05:29.988Z</time></trkpt><trkpt lat="44.9396461" lon="7.7196353"><ele>226.0</ele><time>2026-05-03T07:05:30.984Z</time></trkpt><trkpt lat="44.9393739" lon="7.7198223"><ele>226.0</ele><time>2026-05-03T07:05:31.987Z</time></trkpt><trkpt lat="44.9391066" lon="7.7200074"><ele>225.0</ele><time>2026-05-03T07:05:33.001Z</time></trkpt><trkpt lat="44.9388395" lon="7.7201933"><ele>224.0</ele><time>2026-05-03T07:05:33.985Z</time></trkpt><trkpt lat="44.9385742" lon="7.7203807"><ele>226.5</ele><time>2026-05-03T07:05:34.987Z</time></trkpt><trkpt lat="44.9383088" lon="7.7205653"><ele>229.0</ele><time>2026-05-03T07:05:35.98Z</time></trkpt><trkpt lat="44.9380414" lon="7.7207465"><ele>229.0</ele><time>2026-05-03T07:05:36.98Z</time></trkpt><trkpt lat="44.9377809" lon="7.7209263"><ele>229.0</ele><time>2026-05-03T07:05:37.982Z</time></trkpt><trkpt lat="44.937514" lon="7.7211106"><ele>228.0</ele><time>2026-05-03T07:05:38.991Z</time></trkpt><trkpt lat="44.9372529" lon="7.7212888"><ele>227.0</ele><time>2026-05-03T07:05:39.994Z</time></trkpt><trkpt lat="44.9369875" lon="7.7214688"><ele>227.0</ele><time>2026-05-03T07:05:40.979Z</time></trkpt><trkpt lat="44.9367256" lon="7.7216503"><ele>227.0</ele><time>2026-05-03T07:05:41.997Z</time></trkpt><trkpt lat="44.936466" lon="7.7218296"><ele>227.5</ele><time>2026-05-03T07:05:42.981Z</time></trkpt><trkpt lat="44.9362037" lon="7.7220089"><ele>228.0</ele><time>2026-05-03T07:05:43.985Z</time></trkpt><trkpt lat="44.9359371" lon="7.7221862"><ele>227.5</ele><time>2026-05-03T07:05:44.985Z</time></trkpt><trkpt lat="44.9356676" lon="7.722366"><ele>227.0</ele><time>2026-05-03T07:05:45.976Z</time></trkpt><trkpt lat="44.9354003" lon="7.7225511"><ele>226.0</ele><time>2026-05-03T07:05:46.986Z</time></trkpt><trkpt lat="44.9351339" lon="7.7227376"><ele>225.0</ele><time>2026-05-03T07:05:47.979Z</time></trkpt><trkpt lat="44.9348675" lon="7.7229148"><ele>224.5</ele><time>2026-05-03T07:05:48.978Z</time></trkpt><trkpt lat="44.9345999" lon="7.7230975"><ele>224.0</ele><time>2026-05-03T07:05:49.984Z</time></trkpt><trkpt lat="44.9343366" lon="7.7232835"><ele>224.5</ele><time>2026-05-03T07:05:50.987Z</time></trkpt><trkpt lat="44.9340667" lon="7.723471"><ele>225.0</ele><time>2026-05-03T07:05:51.976Z</time></trkpt><trkpt lat="44.9338018" lon="7.7236653"><ele>225.5</ele><time>2026-05-03T07:05:52.979Z</time></trkpt><trkpt lat="44.9335365" lon="7.723851"><ele>226.0</ele><time>2026-05-03T07:05:53.978Z</time></trkpt><trkpt lat="44.9332703" lon="7.7240373"><ele>226.5</ele><time>2026-05-03T07:05:54.984Z</time></trkpt><trkpt lat="44.933006" lon="7.7242207"><ele>227.0</ele><time>2026-05-03T07:05:55.996Z</time></trkpt><trkpt lat="44.9327374" lon="7.7244003"><ele>227.5</ele><time>2026-05-03T07:05:56.988Z</time></trkpt><trkpt lat="44.9324673" lon="7.7245838"><ele>228.0</ele><time>2026-05-03T07:05:57.98Z</time></trkpt><trkpt lat="44.9321968" lon="7.724773"><ele>228.0</ele><time>2026-05-03T07:05:58.98Z</time></trkpt><trkpt lat="44.9319273" lon="7.7249577"><ele>228.0</ele><time>2026-05-03T07:05:59.977Z</time></trkpt><trkpt lat="44.931656" lon="7.7251393"><ele>227.0</ele><time>2026-05-03T07:06:00.986Z</time></trkpt><trkpt lat="44.9313817" lon="7.7253224"><ele>226.0</ele><time>2026-05-03T07:06:01.984Z</time></trkpt><trkpt lat="44.9311072" lon="7.7255106"><ele>226.0</ele><time>2026-05-03T07:06:02.989Z</time></trkpt><trkpt lat="44.9308334" lon="7.7256977"><ele>226.0</ele><time>2026-05-03T07:06:03.977Z</time></trkpt><trkpt lat="44.9305588" lon="7.7258814"><ele>226.0</ele><time>2026-05-03T07:06:04.976Z</time></trkpt><trkpt lat="44.9302868" lon="7.726072"><ele>226.0</ele><time>2026-05-03T07:06:05.998Z</time></trkpt><trkpt lat="44.9300153" lon="7.7262663"><ele>225.5</ele><time>2026-05-03T07:06:06.982Z</time></trkpt><trkpt lat="44.9297422" lon="7.7264613"><ele>225.0</ele><time>2026-05-03T07:06:07.989Z</time></trkpt><trkpt lat="44.9294704" lon="7.726647"><ele>225.0</ele><time>2026-05-03T07:06:08.986Z</time></trkpt><trkpt lat="44.9292005" lon="7.7268263"><ele>225.0</ele><time>2026-05-03T07:06:09.979Z</time></trkpt><trkpt lat="44.9289365" lon="7.7270135"><ele>225.0</ele><time>2026-05-03T07:06:10.994Z</time></trkpt><trkpt lat="44.9286711" lon="7.7271998"><ele>225.0</ele><time>2026-05-03T07:06:11.989Z</time></trkpt><trkpt lat="44.9284066" lon="7.7273858"><ele>225.0</ele><time>2026-05-03T07:06:12.991Z</time></trkpt><trkpt lat="44.9281427" lon="7.7275668"><ele>225.0</ele><time>2026-05-03T07:06:13.989Z</time></trkpt><trkpt lat="44.9278772" lon="7.727745"><ele>225.5</ele><time>2026-05-03T07:06:14.989Z</time></trkpt><trkpt lat="44.9276075" lon="7.7279284"><ele>226.0</ele><time>2026-05-03T07:06:15.982Z</time></trkpt><trkpt lat="44.9273386" lon="7.7281106"><ele>226.0</ele><time>2026-05-03T07:06:16.982Z</time></trkpt><trkpt lat="44.9270689" lon="7.7282962"><ele>226.0</ele><time>2026-05-03T07:06:17.986Z</time></trkpt><trkpt lat="44.9268001" lon="7.7284797"><ele>225.5</ele><time>2026-05-03T07:06:18.978Z</time></trkpt><trkpt lat="44.9265297" lon="7.7286655"><ele>225.0</ele><time>2026-05-03T07:06:19.982Z</time></trkpt><trkpt lat="44.9262596" lon="7.7288533"><ele>225.0</ele><time>2026-05-03T07:06:20.979Z</time></trkpt><trkpt lat="44.925988" lon="7.7290387"><ele>225.0</ele><time>2026-05-03T07:06:21.979Z</time></trkpt><trkpt lat="44.9257141" lon="7.7292311"><ele>225.0</ele><time>2026-05-03T07:06:22.981Z</time></trkpt><trkpt lat="44.9254443" lon="7.7294165"><ele>225.0</ele><time>2026-05-03T07:06:23.99Z</time></trkpt><trkpt lat="44.925174" lon="7.7295989"><ele>226.0</ele><time>2026-05-03T07:06:24.984Z</time></trkpt><trkpt lat="44.9249006" lon="7.7297948"><ele>227.0</ele><time>2026-05-03T07:06:25.987Z</time></trkpt><trkpt lat="44.9246228" lon="7.7299902"><ele>227.0</ele><time>2026-05-03T07:06:26.991Z</time></trkpt><trkpt lat="44.9243475" lon="7.730182"><ele>227.0</ele><time>2026-05-03T07:06:27.982Z</time></trkpt><trkpt lat="44.9240736" lon="7.7303676"><ele>227.5</ele><time>2026-05-03T07:06:28.981Z</time></trkpt><trkpt lat="44.9237965" lon="7.7305469"><ele>228.0</ele><time>2026-05-03T07:06:29.98Z</time></trkpt><trkpt lat="44.9235179" lon="7.7307321"><ele>228.0</ele><time>2026-05-03T07:06:30.98Z</time></trkpt><trkpt lat="44.9232435" lon="7.7309219"><ele>228.0</ele><time>2026-05-03T07:06:31.991Z</time></trkpt><trkpt lat="44.9229696" lon="7.7311101"><ele>229.5</ele><time>2026-05-03T07:06:32.99Z</time></trkpt><trkpt lat="44.9226908" lon="7.7312983"><ele>231.0</ele><time>2026-05-03T07:06:33.983Z</time></trkpt><trkpt lat="44.9224164" lon="7.7314854"><ele>231.5</ele><time>2026-05-03T07:06:34.988Z</time></trkpt><trkpt lat="44.9221415" lon="7.731673"><ele>232.0</ele><time>2026-05-03T07:06:35.987Z</time></trkpt><trkpt lat="44.9218656" lon="7.7318641"><ele>229.5</ele><time>2026-05-03T07:06:36.98Z</time></trkpt><trkpt lat="44.9215918" lon="7.7320595"><ele>227.0</ele><time>2026-05-03T07:06:37.988Z</time></trkpt><trkpt lat="44.9213211" lon="7.7322536"><ele>227.0</ele><time>2026-05-03T07:06:38.993Z</time></trkpt><trkpt lat="44.9210446" lon="7.7324449"><ele>227.0</ele><time>2026-05-03T07:06:39.987Z</time></trkpt><trkpt lat="44.9207701" lon="7.7326347"><ele>227.0</ele><time>2026-05-03T07:06:40.996Z</time></trkpt><trkpt lat="44.9204947" lon="7.7328243"><ele>227.0</ele><time>2026-05-03T07:06:41.98Z</time></trkpt><trkpt lat="44.920219" lon="7.7330048"><ele>227.5</ele><time>2026-05-03T07:06:42.983Z</time></trkpt><trkpt lat="44.9199466" lon="7.7331956"><ele>228.0</ele><time>2026-05-03T07:06:43.987Z</time></trkpt><trkpt lat="44.9196714" lon="7.7333856"><ele>227.0</ele><time>2026-05-03T07:06:44.974Z</time></trkpt><trkpt lat="44.9193927" lon="7.7335754"><ele>226.0</ele><time>2026-05-03T07:06:45.976Z</time></trkpt><trkpt lat="44.9191208" lon="7.7337615"><ele>228.0</ele><time>2026-05-03T07:06:46.981Z</time></trkpt><trkpt lat="44.9188497" lon="7.7339541"><ele>230.0</ele><time>2026-05-03T07:06:47.983Z</time></trkpt><trkpt lat="44.9185756" lon="7.734137"><ele>230.0</ele><time>2026-05-03T07:06:48.99Z</time></trkpt><trkpt lat="44.9183075" lon="7.7343254"><ele>230.0</ele><time>2026-05-03T07:06:49.982Z</time></trkpt><trkpt lat="44.9180332" lon="7.734513"><ele>230.0</ele><time>2026-05-03T07:06:50.982Z</time></trkpt><trkpt lat="44.9177621" lon="7.7346974"><ele>230.0</ele><time>2026-05-03T07:06:51.992Z</time></trkpt><trkpt lat="44.9174934" lon="7.734886"><ele>229.5</ele><time>2026-05-03T07:06:52.979Z</time></trkpt><trkpt lat="44.9172238" lon="7.7350667"><ele>229.0</ele><time>2026-05-03T07:06:53.982Z</time></trkpt><trkpt lat="44.9169506" lon="7.7352476"><ele>228.5</ele><time>2026-05-03T07:06:54.984Z</time></trkpt><trkpt lat="44.9166765" lon="7.7354326"><ele>228.0</ele><time>2026-05-03T07:06:55.978Z</time></trkpt><trkpt lat="44.9164093" lon="7.7356164"><ele>228.0</ele><time>2026-05-03T07:06:56.977Z</time></trkpt><trkpt lat="44.9161367" lon="7.7358034"><ele>228.0</ele><time>2026-05-03T07:06:57.979Z</time></trkpt><trkpt lat="44.9158669" lon="7.7359947"><ele>228.0</ele><time>2026-05-03T07:06:58.985Z</time></trkpt><trkpt lat="44.9155999" lon="7.7361849"><ele>228.0</ele><time>2026-05-03T07:06:59.995Z</time></trkpt><trkpt lat="44.915332" lon="7.7363722"><ele>229.0</ele><time>2026-05-03T07:07:00.986Z</time></trkpt><trkpt lat="44.9150573" lon="7.7365633"><ele>230.0</ele><time>2026-05-03T07:07:01.992Z</time></trkpt><trkpt lat="44.914784" lon="7.7367481"><ele>230.0</ele><time>2026-05-03T07:07:02.991Z</time></trkpt><trkpt lat="44.91451" lon="7.7369329"><ele>230.0</ele><time>2026-05-03T07:07:03.988Z</time></trkpt><trkpt lat="44.9142372" lon="7.7371207"><ele>230.0</ele><time>2026-05-03T07:07:04.982Z</time></trkpt><trkpt lat="44.9139649" lon="7.7373078"><ele>230.0</ele><time>2026-05-03T07:07:05.986Z</time></trkpt><trkpt lat="44.9136864" lon="7.7374966"><ele>230.0</ele><time>2026-05-03T07:07:06.985Z</time></trkpt><trkpt lat="44.9134052" lon="7.7376894"><ele>230.0</ele><time>2026-05-03T07:07:07.984Z</time></trkpt><trkpt lat="44.9131175" lon="7.7378886"><ele>230.0</ele><time>2026-05-03T07:07:08.984Z</time></trkpt><trkpt lat="44.9128269" lon="7.7380892"><ele>230.0</ele><time>2026-05-03T07:07:09.986Z</time></trkpt><trkpt lat="44.9125323" lon="7.7382925"><ele>230.5</ele><time>2026-05-03T07:07:10.989Z</time></trkpt><trkpt lat="44.9122386" lon="7.7384929"><ele>231.0</ele><time>2026-05-03T07:07:11.985Z</time></trkpt><trkpt lat="44.9119399" lon="7.7386962"><ele>231.5</ele><time>2026-05-03T07:07:12.982Z</time></trkpt><trkpt lat="44.9116448" lon="7.7388964"><ele>232.0</ele><time>2026-05-03T07:07:13.981Z</time></trkpt><trkpt lat="44.9113517" lon="7.7390991"><ele>232.0</ele><time>2026-05-03T07:07:14.98Z</time></trkpt><trkpt lat="44.9110571" lon="7.7393045"><ele>232.0</ele><time>2026-05-03T07:07:15.985Z</time></trkpt><trkpt lat="44.9107699" lon="7.739506"><ele>232.0</ele><time>2026-05-03T07:07:16.978Z</time></trkpt><trkpt lat="44.9104856" lon="7.7397007"><ele>232.0</ele><time>2026-05-03T07:07:17.974Z</time></trkpt><trkpt lat="44.9102001" lon="7.7398924"><ele>232.0</ele><time>2026-05-03T07:07:18.982Z</time></trkpt><trkpt lat="44.9099207" lon="7.7400795"><ele>232.0</ele><time>2026-05-03T07:07:19.977Z</time></trkpt><trkpt lat="44.9096435" lon="7.7402696"><ele>232.0</ele><time>2026-05-03T07:07:20.994Z</time></trkpt><trkpt lat="44.9093695" lon="7.7404588"><ele>232.0</ele><time>2026-05-03T07:07:21.987Z</time></trkpt><trkpt lat="44.9091016" lon="7.7406473"><ele>232.0</ele><time>2026-05-03T07:07:22.98Z</time></trkpt><trkpt lat="44.9088318" lon="7.7408276"><ele>232.0</ele><time>2026-05-03T07:07:23.988Z</time></trkpt><trkpt lat="44.9085628" lon="7.7410055"><ele>232.5</ele><time>2026-05-03T07:07:24.986Z</time></trkpt><trkpt lat="44.9083005" lon="7.7411894"><ele>233.0</ele><time>2026-05-03T07:07:25.975Z</time></trkpt><trkpt lat="44.908031" lon="7.7413731"><ele>233.0</ele><time>2026-05-03T07:07:26.987Z</time></trkpt><trkpt lat="44.9077643" lon="7.7415505"><ele>233.0</ele><time>2026-05-03T07:07:27.982Z</time></trkpt><trkpt lat="44.9074898" lon="7.7417265"><ele>233.5</ele><time>2026-05-03T07:07:28.989Z</time></trkpt><trkpt lat="44.9072133" lon="7.741897"><ele>234.0</ele><time>2026-05-03T07:07:29.978Z</time></trkpt><trkpt lat="44.9069408" lon="7.7420657"><ele>235.0</ele><time>2026-05-03T07:07:30.98Z</time></trkpt><trkpt lat="44.9066633" lon="7.7422365"><ele>236.0</ele><time>2026-05-03T07:07:31.984Z</time></trkpt><trkpt lat="44.9063823" lon="7.7424007"><ele>236.0</ele><time>2026-05-03T07:07:32.981Z</time></trkpt><trkpt lat="44.906099" lon="7.7425621"><ele>236.0</ele><time>2026-05-03T07:07:33.983Z</time></trkpt><trkpt lat="44.9058105" lon="7.7427261"><ele>235.5</ele><time>2026-05-03T07:07:34.986Z</time></trkpt><trkpt lat="44.9055279" lon="7.7428748"><ele>235.0</ele><time>2026-05-03T07:07:35.985Z</time></trkpt><trkpt lat="44.9052448" lon="7.7430084"><ele>235.0</ele><time>2026-05-03T07:07:36.99Z</time></trkpt><trkpt lat="44.9049553" lon="7.7431541"><ele>235.0</ele><time>2026-05-03T07:07:37.983Z</time></trkpt><trkpt lat="44.904669" lon="7.7432873"><ele>235.0</ele><time>2026-05-03T07:07:38.985Z</time></trkpt><trkpt lat="44.9043744" lon="7.7434204"><ele>235.0</ele><time>2026-05-03T07:07:39.99Z</time></trkpt><trkpt lat="44.9040864" lon="7.7435492"><ele>234.0</ele><time>2026-05-03T07:07:40.994Z</time></trkpt><trkpt lat="44.9037939" lon="7.7436715"><ele>233.0</ele><time>2026-05-03T07:07:41.98Z</time></trkpt><trkpt lat="44.9035006" lon="7.7437881"><ele>233.5</ele><time>2026-05-03T07:07:42.999Z</time></trkpt><trkpt lat="44.9032029" lon="7.7439043"><ele>234.0</ele><time>2026-05-03T07:07:43.985Z</time></trkpt><trkpt lat="44.9029064" lon="7.7440084"><ele>234.0</ele><time>2026-05-03T07:07:44.988Z</time></trkpt><trkpt lat="44.9026075" lon="7.7441014"><ele>234.0</ele><time>2026-05-03T07:07:45.987Z</time></trkpt><trkpt lat="44.9023096" lon="7.7441971"><ele>234.5</ele><time>2026-05-03T07:07:46.975Z</time></trkpt><trkpt lat="44.9020163" lon="7.7442956"><ele>235.0</ele><time>2026-05-03T07:07:47.986Z</time></trkpt><trkpt lat="44.9017203" lon="7.744388"><ele>235.5</ele><time>2026-05-03T07:07:48.981Z</time></trkpt><trkpt lat="44.901422" lon="7.7444761"><ele>236.0</ele><time>2026-05-03T07:07:49.982Z</time></trkpt><trkpt lat="44.9011243" lon="7.7445614"><ele>235.0</ele><time>2026-05-03T07:07:50.981Z</time></trkpt><trkpt lat="44.9008293" lon="7.744637"><ele>234.0</ele><time>2026-05-03T07:07:51.984Z</time></trkpt><trkpt lat="44.9005307" lon="7.7447071"><ele>234.0</ele><time>2026-05-03T07:07:52.986Z</time></trkpt><trkpt lat="44.9002292" lon="7.7447698"><ele>234.0</ele><time>2026-05-03T07:07:53.984Z</time></trkpt><trkpt lat="44.8999305" lon="7.7448277"><ele>235.5</ele><time>2026-05-03T07:07:54.986Z</time></trkpt><trkpt lat="44.8996278" lon="7.744883"><ele>237.0</ele><time>2026-05-03T07:07:55.981Z</time></trkpt><trkpt lat="44.8993289" lon="7.7449284"><ele>237.0</ele><time>2026-05-03T07:07:56.983Z</time></trkpt><trkpt lat="44.8990229" lon="7.7449781"><ele>237.0</ele><time>2026-05-03T07:07:57.985Z</time></trkpt><trkpt lat="44.8987119" lon="7.7450251"><ele>236.0</ele><time>2026-05-03T07:07:58.985Z</time></trkpt><trkpt lat="44.8983941" lon="7.7450677"><ele>235.0</ele><time>2026-05-03T07:07:59.98Z</time></trkpt><trkpt lat="44.8980717" lon="7.7451063"><ele>235.0</ele><time>2026-05-03T07:08:00.981Z</time></trkpt><trkpt lat="44.8977481" lon="7.7451395"><ele>235.0</ele><time>2026-05-03T07:08:01.976Z</time></trkpt><trkpt lat="44.8974265" lon="7.745166"><ele>234.5</ele><time>2026-05-03T07:08:02.979Z</time></trkpt><trkpt lat="44.8971056" lon="7.7451896"><ele>234.0</ele><time>2026-05-03T07:08:03.978Z</time></trkpt><trkpt lat="44.8967817" lon="7.745211"><ele>234.5</ele><time>2026-05-03T07:08:04.984Z</time></trkpt><trkpt lat="44.8964616" lon="7.7452358"><ele>235.0</ele><time>2026-05-03T07:08:05.994Z</time></trkpt><trkpt lat="44.896144" lon="7.745263"><ele>233.5</ele><time>2026-05-03T07:08:06.987Z</time></trkpt><trkpt lat="44.8958313" lon="7.7452866"><ele>232.0</ele><time>2026-05-03T07:08:07.978Z</time></trkpt><trkpt lat="44.8955161" lon="7.7453089"><ele>232.0</ele><time>2026-05-03T07:08:09.002Z</time></trkpt><trkpt lat="44.8952014" lon="7.7453332"><ele>232.0</ele><time>2026-05-03T07:08:09.989Z</time></trkpt><trkpt lat="44.8948891" lon="7.7453554"><ele>231.5</ele><time>2026-05-03T07:08:10.987Z</time></trkpt><trkpt lat="44.8945721" lon="7.7453781"><ele>231.0</ele><time>2026-05-03T07:08:11.982Z</time></trkpt><trkpt lat="44.8942545" lon="7.7454073"><ele>232.0</ele><time>2026-05-03T07:08:12.996Z</time></trkpt><trkpt lat="44.8939415" lon="7.7454337"><ele>233.0</ele><time>2026-05-03T07:08:13.981Z</time></trkpt><trkpt lat="44.8936302" lon="7.7454622"><ele>234.5</ele><time>2026-05-03T07:08:14.984Z</time></trkpt><trkpt lat="44.8933242" lon="7.7454858"><ele>236.0</ele><time>2026-05-03T07:08:15.988Z</time></trkpt><trkpt lat="44.8930192" lon="7.7455143"><ele>236.0</ele><time>2026-05-03T07:08:16.987Z</time></trkpt><trkpt lat="44.8927151" lon="7.7455443"><ele>236.0</ele><time>2026-05-03T07:08:17.98Z</time></trkpt><trkpt lat="44.8924114" lon="7.745572"><ele>235.0</ele><time>2026-05-03T07:08:18.979Z</time></trkpt><trkpt lat="44.8921086" lon="7.7455983"><ele>234.0</ele><time>2026-05-03T07:08:19.983Z</time></trkpt><trkpt lat="44.8918087" lon="7.7456215"><ele>234.0</ele><time>2026-05-03T07:08:20.982Z</time></trkpt><trkpt lat="44.8915074" lon="7.7456433"><ele>234.0</ele><time>2026-05-03T07:08:21.979Z</time></trkpt><trkpt lat="44.8912119" lon="7.7456626"><ele>234.0</ele><time>2026-05-03T07:08:22.99Z</time></trkpt><trkpt lat="44.8909116" lon="7.7456858"><ele>234.0</ele><time>2026-05-03T07:08:23.992Z</time></trkpt><trkpt lat="44.890616" lon="7.7457104"><ele>234.0</ele><time>2026-05-03T07:08:24.984Z</time></trkpt><trkpt lat="44.8903205" lon="7.7457307"><ele>234.0</ele><time>2026-05-03T07:08:25.99Z</time></trkpt><trkpt lat="44.8900238" lon="7.7457552"><ele>235.0</ele><time>2026-05-03T07:08:26.975Z</time></trkpt><trkpt lat="44.8897307" lon="7.7457781"><ele>236.0</ele><time>2026-05-03T07:08:27.987Z</time></trkpt><trkpt lat="44.8894362" lon="7.7458056"><ele>236.0</ele><time>2026-05-03T07:08:28.983Z</time></trkpt><trkpt lat="44.8891384" lon="7.7458361"><ele>236.0</ele><time>2026-05-03T07:08:29.994Z</time></trkpt><trkpt lat="44.8888425" lon="7.7458545"><ele>236.0</ele><time>2026-05-03T07:08:30.978Z</time></trkpt><trkpt lat="44.8885456" lon="7.745875"><ele>236.0</ele><time>2026-05-03T07:08:31.989Z</time></trkpt><trkpt lat="44.8882448" lon="7.7458975"><ele>235.5</ele><time>2026-05-03T07:08:32.991Z</time></trkpt><trkpt lat="44.8879454" lon="7.7459201"><ele>235.0</ele><time>2026-05-03T07:08:33.981Z</time></trkpt><trkpt lat="44.8876419" lon="7.7459428"><ele>235.0</ele><time>2026-05-03T07:08:34.985Z</time></trkpt><trkpt lat="44.887337" lon="7.7459704"><ele>235.0</ele><time>2026-05-03T07:08:35.988Z</time></trkpt><trkpt lat="44.88703" lon="7.7459972"><ele>235.0</ele><time>2026-05-03T07:08:36.979Z</time></trkpt><trkpt lat="44.886726" lon="7.7460204"><ele>235.0</ele><time>2026-05-03T07:08:37.983Z</time></trkpt><trkpt lat="44.8864157" lon="7.7460464"><ele>235.0</ele><time>2026-05-03T07:08:38.985Z</time></trkpt><trkpt lat="44.8861052" lon="7.7460756"><ele>235.0</ele><time>2026-05-03T07:08:39.982Z</time></trkpt><trkpt lat="44.8857977" lon="7.7461016"><ele>235.0</ele><time>2026-05-03T07:08:40.993Z</time></trkpt><trkpt lat="44.8854907" lon="7.7461281"><ele>235.0</ele><time>2026-05-03T07:08:41.975Z</time></trkpt><trkpt lat="44.8851821" lon="7.7461584"><ele>235.5</ele><time>2026-05-03T07:08:42.989Z</time></trkpt><trkpt lat="44.8848759" lon="7.7461825"><ele>236.0</ele><time>2026-05-03T07:08:43.979Z</time></trkpt><trkpt lat="44.8845633" lon="7.7462056"><ele>235.5</ele><time>2026-05-03T07:08:44.984Z</time></trkpt><trkpt lat="44.884248" lon="7.7462293"><ele>235.0</ele><time>2026-05-03T07:08:45.976Z</time></trkpt><trkpt lat="44.883935" lon="7.7462558"><ele>235.0</ele><time>2026-05-03T07:08:46.984Z</time></trkpt><trkpt lat="44.8836238" lon="7.7462808"><ele>235.0</ele><time>2026-05-03T07:08:47.993Z</time></trkpt><trkpt lat="44.8833107" lon="7.7463031"><ele>235.0</ele><time>2026-05-03T07:08:48.981Z</time></trkpt><trkpt lat="44.8830002" lon="7.7463237"><ele>235.0</ele><time>2026-05-03T07:08:49.986Z</time></trkpt><trkpt lat="44.8826928" lon="7.7463458"><ele>235.5</ele><time>2026-05-03T07:08:50.986Z</time></trkpt><trkpt lat="44.8823847" lon="7.7463717"><ele>236.0</ele><time>2026-05-03T07:08:51.978Z</time></trkpt><trkpt lat="44.8820751" lon="7.7463955"><ele>236.0</ele><time>2026-05-03T07:08:52.975Z</time></trkpt><trkpt lat="44.8817703" lon="7.7464169"><ele>236.0</ele><time>2026-05-03T07:08:53.983Z</time></trkpt><trkpt lat="44.8814629" lon="7.7464434"><ele>236.5</ele><time>2026-05-03T07:08:54.979Z</time></trkpt><trkpt lat="44.8811623" lon="7.7464673"><ele>237.0</ele><time>2026-05-03T07:08:55.979Z</time></trkpt><trkpt lat="44.8808585" lon="7.7464904"><ele>237.0</ele><time>2026-05-03T07:08:56.982Z</time></trkpt><trkpt lat="44.880563" lon="7.7465153"><ele>237.0</ele><time>2026-05-03T07:08:57.98Z</time></trkpt><trkpt lat="44.8802653" lon="7.7465407"><ele>236.5</ele><time>2026-05-03T07:08:58.986Z</time></trkpt><trkpt lat="44.8799672" lon="7.7465669"><ele>236.0</ele><time>2026-05-03T07:08:59.978Z</time></trkpt><trkpt lat="44.8796661" lon="7.7465903"><ele>236.0</ele><time>2026-05-03T07:09:00.979Z</time></trkpt><trkpt lat="44.8793694" lon="7.7466154"><ele>236.0</ele><time>2026-05-03T07:09:01.982Z</time></trkpt><trkpt lat="44.8790705" lon="7.7466384"><ele>236.5</ele><time>2026-05-03T07:09:02.979Z</time></trkpt><trkpt lat="44.878771" lon="7.7466627"><ele>237.0</ele><time>2026-05-03T07:09:03.98Z</time></trkpt><trkpt lat="44.8784733" lon="7.7466876"><ele>237.0</ele><time>2026-05-03T07:09:04.976Z</time></trkpt><trkpt lat="44.8781742" lon="7.7467117"><ele>237.0</ele><time>2026-05-03T07:09:05.976Z</time></trkpt><trkpt lat="44.8778679" lon="7.7467387"><ele>237.0</ele><time>2026-05-03T07:09:06.989Z</time></trkpt><trkpt lat="44.8775647" lon="7.7467615"><ele>237.0</ele><time>2026-05-03T07:09:07.981Z</time></trkpt><trkpt lat="44.8772587" lon="7.7467874"><ele>237.0</ele><time>2026-05-03T07:09:08.992Z</time></trkpt><trkpt lat="44.8769501" lon="7.7468103"><ele>237.0</ele><time>2026-05-03T07:09:09.988Z</time></trkpt><trkpt lat="44.8766426" lon="7.7468327"><ele>236.5</ele><time>2026-05-03T07:09:10.981Z</time></trkpt><trkpt lat="44.8763344" lon="7.746855"><ele>236.0</ele><time>2026-05-03T07:09:11.982Z</time></trkpt><trkpt lat="44.8760254" lon="7.7468769"><ele>236.5</ele><time>2026-05-03T07:09:12.98Z</time></trkpt><trkpt lat="44.8757162" lon="7.7468964"><ele>237.0</ele><time>2026-05-03T07:09:13.983Z</time></trkpt><trkpt lat="44.8754005" lon="7.7469227"><ele>237.5</ele><time>2026-05-03T07:09:14.98Z</time></trkpt><trkpt lat="44.8750885" lon="7.7469547"><ele>238.0</ele><time>2026-05-03T07:09:15.977Z</time></trkpt><trkpt lat="44.8747804" lon="7.7469857"><ele>238.0</ele><time>2026-05-03T07:09:16.986Z</time></trkpt><trkpt lat="44.8744686" lon="7.7470181"><ele>238.0</ele><time>2026-05-03T07:09:17.98Z</time></trkpt><trkpt lat="44.8741548" lon="7.7470482"><ele>239.0</ele><time>2026-05-03T07:09:18.976Z</time></trkpt><trkpt lat="44.8738405" lon="7.7470781"><ele>240.0</ele><time>2026-05-03T07:09:19.978Z</time></trkpt><trkpt lat="44.8735258" lon="7.7471064"><ele>240.0</ele><time>2026-05-03T07:09:20.982Z</time></trkpt><trkpt lat="44.8732113" lon="7.7471369"><ele>240.0</ele><time>2026-05-03T07:09:21.979Z</time></trkpt><trkpt lat="44.8728937" lon="7.747167"><ele>240.0</ele><time>2026-05-03T07:09:23Z</time></trkpt><trkpt lat="44.8725812" lon="7.7471898"><ele>240.0</ele><time>2026-05-03T07:09:23.982Z</time></trkpt><trkpt lat="44.8722695" lon="7.7472135"><ele>240.0</ele><time>2026-05-03T07:09:24.984Z</time></trkpt><trkpt lat="44.8719579" lon="7.7472341"><ele>240.0</ele><time>2026-05-03T07:09:25.979Z</time></trkpt><trkpt lat="44.871645" lon="7.7472558"><ele>239.5</ele><time>2026-05-03T07:09:26.992Z</time></trkpt><trkpt lat="44.8713305" lon="7.7472797"><ele>239.0</ele><time>2026-05-03T07:09:27.981Z</time></trkpt><trkpt lat="44.8710145" lon="7.7473056"><ele>239.5</ele><time>2026-05-03T07:09:28.977Z</time></trkpt><trkpt lat="44.8707015" lon="7.7473335"><ele>240.0</ele><time>2026-05-03T07:09:29.982Z</time></trkpt><trkpt lat="44.8703882" lon="7.7473549"><ele>241.0</ele><time>2026-05-03T07:09:30.981Z</time></trkpt><trkpt lat="44.870075" lon="7.7473806"><ele>242.0</ele><time>2026-05-03T07:09:31.986Z</time></trkpt><trkpt lat="44.869764" lon="7.7474058"><ele>242.0</ele><time>2026-05-03T07:09:32.985Z</time></trkpt><trkpt lat="44.8694522" lon="7.7474261"><ele>242.0</ele><time>2026-05-03T07:09:33.982Z</time></trkpt><trkpt lat="44.8691369" lon="7.7474457"><ele>242.0</ele><time>2026-05-03T07:09:34.979Z</time></trkpt><trkpt lat="44.8688288" lon="7.7474655"><ele>242.0</ele><time>2026-05-03T07:09:35.999Z</time></trkpt><trkpt lat="44.8685159" lon="7.7474879"><ele>241.0</ele><time>2026-05-03T07:09:36.978Z</time></trkpt><trkpt lat="44.8682009" lon="7.7475123"><ele>240.0</ele><time>2026-05-03T07:09:37.98Z</time></trkpt><trkpt lat="44.8678906" lon="7.747534"><ele>239.5</ele><time>2026-05-03T07:09:38.975Z</time></trkpt><trkpt lat="44.8675809" lon="7.7475543"><ele>239.0</ele><time>2026-05-03T07:09:39.987Z</time></trkpt><trkpt lat="44.8672755" lon="7.7475715"><ele>239.0</ele><time>2026-05-03T07:09:40.98Z</time></trkpt><trkpt lat="44.8669663" lon="7.7475924"><ele>239.0</ele><time>2026-05-03T07:09:41.986Z</time></trkpt><trkpt lat="44.8666582" lon="7.7476171"><ele>239.0</ele><time>2026-05-03T07:09:42.981Z</time></trkpt><trkpt lat="44.8663509" lon="7.7476405"><ele>239.0</ele><time>2026-05-03T07:09:43.982Z</time></trkpt><trkpt lat="44.8660426" lon="7.7476596"><ele>239.0</ele><time>2026-05-03T07:09:44.98Z</time></trkpt><trkpt lat="44.8657308" lon="7.7476802"><ele>239.0</ele><time>2026-05-03T07:09:45.995Z</time></trkpt><trkpt lat="44.8654221" lon="7.7477027"><ele>238.5</ele><time>2026-05-03T07:09:46.984Z</time></trkpt><trkpt lat="44.865114" lon="7.7477249"><ele>238.0</ele><time>2026-05-03T07:09:47.99Z</time></trkpt><trkpt lat="44.8648071" lon="7.7477427"><ele>238.0</ele><time>2026-05-03T07:09:48.993Z</time></trkpt><trkpt lat="44.8644993" lon="7.7477603"><ele>238.0</ele><time>2026-05-03T07:09:49.98Z</time></trkpt><trkpt lat="44.8641924" lon="7.7477831"><ele>238.5</ele><time>2026-05-03T07:09:50.976Z</time></trkpt><trkpt lat="44.8638845" lon="7.7478061"><ele>239.0</ele><time>2026-05-03T07:09:51.985Z</time></trkpt><trkpt lat="44.8635791" lon="7.7478372"><ele>239.5</ele><time>2026-05-03T07:09:52.978Z</time></trkpt><trkpt lat="44.863268" lon="7.7478593"><ele>240.0</ele><time>2026-05-03T07:09:53.981Z</time></trkpt><trkpt lat="44.8629624" lon="7.7478802"><ele>240.0</ele><time>2026-05-03T07:09:54.974Z</time></trkpt><trkpt lat="44.8626585" lon="7.7479021"><ele>240.0</ele><time>2026-05-03T07:09:55.992Z</time></trkpt><trkpt lat="44.8623569" lon="7.7479217"><ele>240.0</ele><time>2026-05-03T07:09:56.982Z</time></trkpt><trkpt lat="44.8620564" lon="7.7479414"><ele>240.0</ele><time>2026-05-03T07:09:57.984Z</time></trkpt><trkpt lat="44.8617558" lon="7.7479621"><ele>239.5</ele><time>2026-05-03T07:09:58.984Z</time></trkpt><trkpt lat="44.8614523" lon="7.7479815"><ele>239.0</ele><time>2026-05-03T07:09:59.98Z</time></trkpt><trkpt lat="44.8611522" lon="7.7480054"><ele>239.5</ele><time>2026-05-03T07:10:00.999Z</time></trkpt><trkpt lat="44.8608522" lon="7.7480233"><ele>240.0</ele><time>2026-05-03T07:10:01.985Z</time></trkpt><trkpt lat="44.8605566" lon="7.7480421"><ele>240.0</ele><time>2026-05-03T07:10:02.982Z</time></trkpt><trkpt lat="44.8602622" lon="7.748063"><ele>240.0</ele><time>2026-05-03T07:10:03.986Z</time></trkpt><trkpt lat="44.859969" lon="7.7480903"><ele>240.0</ele><time>2026-05-03T07:10:04.977Z</time></trkpt><trkpt lat="44.8596749" lon="7.748111"><ele>240.0</ele><time>2026-05-03T07:10:05.986Z</time></trkpt><trkpt lat="44.8593822" lon="7.7481341"><ele>240.0</ele><time>2026-05-03T07:10:06.988Z</time></trkpt><trkpt lat="44.8590919" lon="7.7481559"><ele>240.0</ele><time>2026-05-03T07:10:07.986Z</time></trkpt><trkpt lat="44.8587992" lon="7.7481766"><ele>240.0</ele><time>2026-05-03T07:10:08.985Z</time></trkpt><trkpt lat="44.8585122" lon="7.7481945"><ele>240.0</ele><time>2026-05-03T07:10:09.98Z</time></trkpt><trkpt lat="44.858231" lon="7.748209"><ele>241.0</ele><time>2026-05-03T07:10:10.983Z</time></trkpt><trkpt lat="44.8579443" lon="7.748227"><ele>242.0</ele><time>2026-05-03T07:10:11.985Z</time></trkpt><trkpt lat="44.8576638" lon="7.7482459"><ele>241.5</ele><time>2026-05-03T07:10:12.992Z</time></trkpt><trkpt lat="44.8573837" lon="7.7482678"><ele>241.0</ele><time>2026-05-03T07:10:13.989Z</time></trkpt><trkpt lat="44.8571139" lon="7.7482918"><ele>241.0</ele><time>2026-05-03T07:10:14.985Z</time></trkpt><trkpt lat="44.8568541" lon="7.7483117"><ele>241.0</ele><time>2026-05-03T07:10:15.991Z</time></trkpt><trkpt lat="44.8566032" lon="7.7483284"><ele>240.5</ele><time>2026-05-03T07:10:16.982Z</time></trkpt><trkpt lat="44.8563654" lon="7.7483415"><ele>240.0</ele><time>2026-05-03T07:10:17.983Z</time></trkpt><trkpt lat="44.8561386" lon="7.7483474"><ele>241.0</ele><time>2026-05-03T07:10:18.984Z</time></trkpt><trkpt lat="44.8559287" lon="7.7483475"><ele>242.0</ele><time>2026-05-03T07:10:19.972Z</time></trkpt><trkpt lat="44.8557258" lon="7.7483437"><ele>243.0</ele><time>2026-05-03T07:10:20.971Z</time></trkpt><trkpt lat="44.8555316" lon="7.7483406"><ele>243.0</ele><time>2026-05-03T07:10:21.975Z</time></trkpt><trkpt lat="44.8553505" lon="7.7483277"><ele>243.0</ele><time>2026-05-03T07:10:22.984Z</time></trkpt><trkpt lat="44.855179" lon="7.7483128"><ele>243.0</ele><time>2026-05-03T07:10:23.98Z</time></trkpt><trkpt lat="44.8550147" lon="7.7482984"><ele>243.25</ele><time>2026-05-03T07:10:24.988Z</time></trkpt><trkpt lat="44.8548562" lon="7.7482944"><ele>243.5</ele><time>2026-05-03T07:10:25.989Z</time></trkpt><trkpt lat="44.854707" lon="7.7482921"><ele>243.75</ele><time>2026-05-03T07:10:26.984Z</time></trkpt><trkpt lat="44.8545703" lon="7.7482932"><ele>244.0</ele><time>2026-05-03T07:10:27.986Z</time></trkpt><trkpt lat="44.8544496" lon="7.7482957"><ele>243.99999999999997</ele><time>2026-05-03T07:10:28.979Z</time></trkpt><trkpt lat="44.8543547" lon="7.7483071"><ele>244.0</ele><time>2026-05-03T07:10:29.982Z</time></trkpt><trkpt lat="44.8542664" lon="7.7483172"><ele>244.0</ele><time>2026-05-03T07:10:30.988Z</time></trkpt><trkpt lat="44.8541866" lon="7.7483284"><ele>244.0</ele><time>2026-05-03T07:10:31.983Z</time></trkpt><trkpt lat="44.8540952" lon="7.7483345"><ele>243.99999999999997</ele><time>2026-05-03T07:10:32.992Z</time></trkpt><trkpt lat="44.8540092" lon="7.7483386"><ele>244.0</ele><time>2026-05-03T07:10:33.983Z</time></trkpt><trkpt lat="44.8539319" lon="7.7483325"><ele>243.99999999999997</ele><time>2026-05-03T07:10:34.991Z</time></trkpt><trkpt lat="44.8538509" lon="7.7483132"><ele>244.0</ele><time>2026-05-03T07:10:35.976Z</time></trkpt><trkpt lat="44.8537711" lon="7.7483064"><ele>244.0</ele><time>2026-05-03T07:10:36.983Z</time></trkpt><trkpt lat="44.8536894" lon="7.7482955"><ele>244.0</ele><time>2026-05-03T07:10:37.987Z</time></trkpt><trkpt lat="44.853607" lon="7.7482965"><ele>243.99999999999997</ele><time>2026-05-03T07:10:38.985Z</time></trkpt><trkpt lat="44.8535226" lon="7.7483009"><ele>244.0</ele><time>2026-05-03T07:10:39.983Z</time></trkpt><trkpt lat="44.8534418" lon="7.74831"><ele>243.99999999999997</ele><time>2026-05-03T07:10:40.982Z</time></trkpt><trkpt lat="44.853362" lon="7.7483213"><ele>244.0</ele><time>2026-05-03T07:10:41.985Z</time></trkpt><trkpt lat="44.8532752" lon="7.7483374"><ele>244.0</ele><time>2026-05-03T07:10:42.981Z</time></trkpt><trkpt lat="44.8531904" lon="7.7483541"><ele>244.0</ele><time>2026-05-03T07:10:43.973Z</time></trkpt><trkpt lat="44.8531066" lon="7.7483675"><ele>243.99999999999997</ele><time>2026-05-03T07:10:44.989Z</time></trkpt><trkpt lat="44.8530219" lon="7.7483881"><ele>244.0</ele><time>2026-05-03T07:10:45.98Z</time></trkpt><trkpt lat="44.8529386" lon="7.7484055"><ele>243.99999999999997</ele><time>2026-05-03T07:10:46.981Z</time></trkpt><trkpt lat="44.852847" lon="7.7484218"><ele>244.0</ele><time>2026-05-03T07:10:47.984Z</time></trkpt><trkpt lat="44.8527587" lon="7.7484337"><ele>244.0</ele><time>2026-05-03T07:10:48.988Z</time></trkpt><trkpt lat="44.8526682" lon="7.7484471"><ele>244.0</ele><time>2026-05-03T07:10:49.984Z</time></trkpt><trkpt lat="44.8525815" lon="7.7484686"><ele>243.99999999999997</ele><time>2026-05-03T07:10:50.986Z</time></trkpt><trkpt lat="44.8525064" lon="7.7484822"><ele>244.0</ele><time>2026-05-03T07:10:51.983Z</time></trkpt><trkpt lat="44.8524324" lon="7.7484917"><ele>244.16666666666666</ele><time>2026-05-03T07:10:52.976Z</time></trkpt><trkpt lat="44.8523081" lon="7.7485024"><ele>244.33333333333331</ele><time>2026-05-03T07:10:54.979Z</time></trkpt><trkpt lat="44.8522379" lon="7.7485112"><ele>244.5</ele><time>2026-05-03T07:10:55.98Z</time></trkpt><trkpt lat="44.8521644" lon="7.7485217"><ele>244.66666666666669</ele><time>2026-05-03T07:10:56.982Z</time></trkpt><trkpt lat="44.8520894" lon="7.7485357"><ele>244.83333333333334</ele><time>2026-05-03T07:10:57.981Z</time></trkpt><trkpt lat="44.8520031" lon="7.748539"><ele>245.0</ele><time>2026-05-03T07:10:58.993Z</time></trkpt><trkpt lat="44.8519142" lon="7.7485501"><ele>244.83333333333334</ele><time>2026-05-03T07:10:59.992Z</time></trkpt><trkpt lat="44.8518265" lon="7.7485644"><ele>244.66666666666669</ele><time>2026-05-03T07:11:00.995Z</time></trkpt><trkpt lat="44.8517388" lon="7.7485786"><ele>244.5</ele><time>2026-05-03T07:11:01.988Z</time></trkpt><trkpt lat="44.8516544" lon="7.7485832"><ele>244.33333333333331</ele><time>2026-05-03T07:11:02.996Z</time></trkpt><trkpt lat="44.8515697" lon="7.7485897"><ele>244.16666666666666</ele><time>2026-05-03T07:11:03.976Z</time></trkpt><trkpt lat="44.8514843" lon="7.7485926"><ele>244.0</ele><time>2026-05-03T07:11:04.98Z</time></trkpt><trkpt lat="44.8514105" lon="7.7485931"><ele>244.0</ele><time>2026-05-03T07:11:05.991Z</time></trkpt><trkpt lat="44.8513192" lon="7.748604"><ele>243.99999999999997</ele><time>2026-05-03T07:11:06.982Z</time></trkpt><trkpt lat="44.8512207" lon="7.7486202"><ele>243.99999999999997</ele><time>2026-05-03T07:11:07.987Z</time></trkpt><trkpt lat="44.8511244" lon="7.7486361"><ele>244.0</ele><time>2026-05-03T07:11:09.005Z</time></trkpt><trkpt lat="44.8510167" lon="7.7486397"><ele>244.0</ele><time>2026-05-03T07:11:09.987Z</time></trkpt><trkpt lat="44.8509043" lon="7.7486364"><ele>244.0</ele><time>2026-05-03T07:11:11.014Z</time></trkpt><trkpt lat="44.8507772" lon="7.7486503"><ele>244.0</ele><time>2026-05-03T07:11:12.004Z</time></trkpt><trkpt lat="44.850617" lon="7.7486657"><ele>244.0</ele><time>2026-05-03T07:11:13.023Z</time></trkpt><trkpt lat="44.8503927" lon="7.7486689"><ele>243.5</ele><time>2026-05-03T07:11:14.003Z</time></trkpt><trkpt lat="44.8501097" lon="7.7486899"><ele>243.0</ele><time>2026-05-03T07:11:15.032Z</time></trkpt><trkpt lat="44.8497862" lon="7.7487219"><ele>243.0</ele><time>2026-05-03T07:11:16.029Z</time></trkpt><trkpt lat="44.8494309" lon="7.748762"><ele>243.0</ele><time>2026-05-03T07:11:16.999Z</time></trkpt><trkpt lat="44.8490677" lon="7.748807"><ele>243.0</ele><time>2026-05-03T07:11:18.027Z</time></trkpt><trkpt lat="44.8487222" lon="7.7488412"><ele>243.0</ele><time>2026-05-03T07:11:19.021Z</time></trkpt><trkpt lat="44.848402" lon="7.7488633"><ele>243.0</ele><time>2026-05-03T07:11:19.995Z</time></trkpt><trkpt lat="44.8481089" lon="7.7488856"><ele>243.0</ele><time>2026-05-03T07:11:21.005Z</time></trkpt><trkpt lat="44.8478247" lon="7.7488995"><ele>244.0</ele><time>2026-05-03T07:11:22.003Z</time></trkpt><trkpt lat="44.8475479" lon="7.7489185"><ele>245.0</ele><time>2026-05-03T07:11:23.018Z</time></trkpt><trkpt lat="44.8472713" lon="7.7489475"><ele>245.0</ele><time>2026-05-03T07:11:23.979Z</time></trkpt><trkpt lat="44.8469957" lon="7.7489665"><ele>245.0</ele><time>2026-05-03T07:11:24.993Z</time></trkpt><trkpt lat="44.8467198" lon="7.7489857"><ele>242.0</ele><time>2026-05-03T07:11:25.978Z</time></trkpt><trkpt lat="44.8461578" lon="7.7490149"><ele>242.5</ele><time>2026-05-03T07:11:27.983Z</time></trkpt><trkpt lat="44.8458725" lon="7.749036"><ele>243.0</ele><time>2026-05-03T07:11:28.975Z</time></trkpt><trkpt lat="44.8455845" lon="7.7490564"><ele>243.0</ele><time>2026-05-03T07:11:29.977Z</time></trkpt><trkpt lat="44.8452959" lon="7.7490759"><ele>243.0</ele><time>2026-05-03T07:11:30.993Z</time></trkpt><trkpt lat="44.8450023" lon="7.7490925"><ele>242.5</ele><time>2026-05-03T07:11:31.983Z</time></trkpt><trkpt lat="44.8447125" lon="7.7491174"><ele>242.0</ele><time>2026-05-03T07:11:32.979Z</time></trkpt><trkpt lat="44.844419" lon="7.7491349"><ele>243.0</ele><time>2026-05-03T07:11:33.987Z</time></trkpt><trkpt lat="44.8441254" lon="7.749159"><ele>244.0</ele><time>2026-05-03T07:11:34.997Z</time></trkpt><trkpt lat="44.8438296" lon="7.7491835"><ele>244.0</ele><time>2026-05-03T07:11:36.016Z</time></trkpt><trkpt lat="44.8435421" lon="7.7492009"><ele>244.0</ele><time>2026-05-03T07:11:36.993Z</time></trkpt><trkpt lat="44.8432525" lon="7.7492194"><ele>243.5</ele><time>2026-05-03T07:11:37.994Z</time></trkpt><trkpt lat="44.8429618" lon="7.749241"><ele>243.0</ele><time>2026-05-03T07:11:38.999Z</time></trkpt><trkpt lat="44.8426749" lon="7.74926"><ele>243.5</ele><time>2026-05-03T07:11:39.982Z</time></trkpt><trkpt lat="44.8423906" lon="7.7492774"><ele>244.0</ele><time>2026-05-03T07:11:40.983Z</time></trkpt><trkpt lat="44.842111" lon="7.749295"><ele>244.0</ele><time>2026-05-03T07:11:41.998Z</time></trkpt><trkpt lat="44.8418257" lon="7.7493155"><ele>244.0</ele><time>2026-05-03T07:11:42.993Z</time></trkpt><trkpt lat="44.8415354" lon="7.7493361"><ele>244.0</ele><time>2026-05-03T07:11:43.984Z</time></trkpt><trkpt lat="44.8412404" lon="7.7493603"><ele>244.0</ele><time>2026-05-03T07:11:44.982Z</time></trkpt><trkpt lat="44.840947" lon="7.749379"><ele>244.0</ele><time>2026-05-03T07:11:45.995Z</time></trkpt><trkpt lat="44.8406502" lon="7.7494048"><ele>244.0</ele><time>2026-05-03T07:11:46.992Z</time></trkpt><trkpt lat="44.8403467" lon="7.7494253"><ele>244.0</ele><time>2026-05-03T07:11:47.991Z</time></trkpt><trkpt lat="44.8400412" lon="7.7494473"><ele>244.0</ele><time>2026-05-03T07:11:48.989Z</time></trkpt><trkpt lat="44.8397376" lon="7.7494713"><ele>244.0</ele><time>2026-05-03T07:11:49.986Z</time></trkpt><trkpt lat="44.8394335" lon="7.7494891"><ele>244.0</ele><time>2026-05-03T07:11:50.991Z</time></trkpt><trkpt lat="44.8391304" lon="7.7495125"><ele>244.0</ele><time>2026-05-03T07:11:51.981Z</time></trkpt><trkpt lat="44.8388292" lon="7.7495385"><ele>244.0</ele><time>2026-05-03T07:11:52.988Z</time></trkpt><trkpt lat="44.8385277" lon="7.7495604"><ele>245.0</ele><time>2026-05-03T07:11:53.983Z</time></trkpt><trkpt lat="44.838226" lon="7.7495832"><ele>246.0</ele><time>2026-05-03T07:11:54.994Z</time></trkpt><trkpt lat="44.8379226" lon="7.7496037"><ele>244.5</ele><time>2026-05-03T07:11:55.986Z</time></trkpt><trkpt lat="44.8376204" lon="7.7496155"><ele>243.0</ele><time>2026-05-03T07:11:56.983Z</time></trkpt><trkpt lat="44.8373177" lon="7.7496338"><ele>243.0</ele><time>2026-05-03T07:11:57.98Z</time></trkpt><trkpt lat="44.8370158" lon="7.749654"><ele>243.0</ele><time>2026-05-03T07:11:58.98Z</time></trkpt><trkpt lat="44.836717" lon="7.7496736"><ele>243.5</ele><time>2026-05-03T07:11:59.989Z</time></trkpt><trkpt lat="44.8364174" lon="7.7496959"><ele>244.0</ele><time>2026-05-03T07:12:00.983Z</time></trkpt><trkpt lat="44.8361182" lon="7.7497214"><ele>244.5</ele><time>2026-05-03T07:12:01.981Z</time></trkpt><trkpt lat="44.8358146" lon="7.7497493"><ele>245.0</ele><time>2026-05-03T07:12:02.985Z</time></trkpt><trkpt lat="44.8355063" lon="7.7497788"><ele>245.0</ele><time>2026-05-03T07:12:03.983Z</time></trkpt><trkpt lat="44.8351969" lon="7.7498046"><ele>245.0</ele><time>2026-05-03T07:12:04.982Z</time></trkpt><trkpt lat="44.8348801" lon="7.7498308"><ele>245.0</ele><time>2026-05-03T07:12:05.975Z</time></trkpt><trkpt lat="44.8345571" lon="7.749856"><ele>245.0</ele><time>2026-05-03T07:12:06.981Z</time></trkpt><trkpt lat="44.8342361" lon="7.7498752"><ele>245.5</ele><time>2026-05-03T07:12:07.982Z</time></trkpt><trkpt lat="44.8339146" lon="7.7498876"><ele>246.0</ele><time>2026-05-03T07:12:08.981Z</time></trkpt><trkpt lat="44.8335841" lon="7.7499039"><ele>245.5</ele><time>2026-05-03T07:12:09.986Z</time></trkpt><trkpt lat="44.8332486" lon="7.7499252"><ele>245.0</ele><time>2026-05-03T07:12:10.982Z</time></trkpt><trkpt lat="44.83291" lon="7.7499499"><ele>245.0</ele><time>2026-05-03T07:12:11.983Z</time></trkpt><trkpt lat="44.832574" lon="7.7499781"><ele>245.0</ele><time>2026-05-03T07:12:12.977Z</time></trkpt><trkpt lat="44.8322383" lon="7.7500047"><ele>245.0</ele><time>2026-05-03T07:12:13.982Z</time></trkpt><trkpt lat="44.8319038" lon="7.7500332"><ele>245.0</ele><time>2026-05-03T07:12:14.98Z</time></trkpt><trkpt lat="44.8315691" lon="7.7500613"><ele>245.5</ele><time>2026-05-03T07:12:15.984Z</time></trkpt><trkpt lat="44.8312279" lon="7.7500927"><ele>246.0</ele><time>2026-05-03T07:12:16.99Z</time></trkpt><trkpt lat="44.8308906" lon="7.7501234"><ele>246.0</ele><time>2026-05-03T07:12:17.978Z</time></trkpt><trkpt lat="44.8305541" lon="7.7501512"><ele>246.0</ele><time>2026-05-03T07:12:18.978Z</time></trkpt><trkpt lat="44.8302185" lon="7.7501834"><ele>245.0</ele><time>2026-05-03T07:12:19.987Z</time></trkpt><trkpt lat="44.8298869" lon="7.7502051"><ele>244.0</ele><time>2026-05-03T07:12:20.981Z</time></trkpt><trkpt lat="44.8295544" lon="7.7502238"><ele>244.5</ele><time>2026-05-03T07:12:21.98Z</time></trkpt><trkpt lat="44.8292183" lon="7.7502471"><ele>245.0</ele><time>2026-05-03T07:12:22.99Z</time></trkpt><trkpt lat="44.8288829" lon="7.7502655"><ele>245.0</ele><time>2026-05-03T07:12:23.989Z</time></trkpt><trkpt lat="44.8285476" lon="7.7502842"><ele>245.0</ele><time>2026-05-03T07:12:24.986Z</time></trkpt><trkpt lat="44.8282091" lon="7.7503089"><ele>245.5</ele><time>2026-05-03T07:12:25.982Z</time></trkpt><trkpt lat="44.8278649" lon="7.7503362"><ele>246.0</ele><time>2026-05-03T07:12:26.98Z</time></trkpt><trkpt lat="44.8275237" lon="7.7503618"><ele>246.5</ele><time>2026-05-03T07:12:27.964Z</time></trkpt><trkpt lat="44.8271856" lon="7.7503877"><ele>247.0</ele><time>2026-05-03T07:12:28.974Z</time></trkpt><trkpt lat="44.8268523" lon="7.7504159"><ele>246.5</ele><time>2026-05-03T07:12:29.983Z</time></trkpt><trkpt lat="44.8265238" lon="7.7504396"><ele>246.0</ele><time>2026-05-03T07:12:30.98Z</time></trkpt><trkpt lat="44.8262026" lon="7.7504663"><ele>245.0</ele><time>2026-05-03T07:12:31.966Z</time></trkpt><trkpt lat="44.8258807" lon="7.7504921"><ele>244.0</ele><time>2026-05-03T07:12:32.987Z</time></trkpt><trkpt lat="44.8255593" lon="7.750511"><ele>244.0</ele><time>2026-05-03T07:12:33.981Z</time></trkpt><trkpt lat="44.8252408" lon="7.750531"><ele>244.0</ele><time>2026-05-03T07:12:34.981Z</time></trkpt><trkpt lat="44.8249205" lon="7.7505548"><ele>244.5</ele><time>2026-05-03T07:12:35.986Z</time></trkpt><trkpt lat="44.8245995" lon="7.7505786"><ele>245.0</ele><time>2026-05-03T07:12:36.975Z</time></trkpt><trkpt lat="44.8242821" lon="7.7505976"><ele>245.0</ele><time>2026-05-03T07:12:37.991Z</time></trkpt><trkpt lat="44.8239627" lon="7.7506203"><ele>245.0</ele><time>2026-05-03T07:12:38.979Z</time></trkpt><trkpt lat="44.8236422" lon="7.7506423"><ele>246.0</ele><time>2026-05-03T07:12:39.979Z</time></trkpt><trkpt lat="44.8233205" lon="7.7506653"><ele>247.0</ele><time>2026-05-03T07:12:40.978Z</time></trkpt><trkpt lat="44.8229929" lon="7.750684"><ele>247.0</ele><time>2026-05-03T07:12:41.992Z</time></trkpt><trkpt lat="44.8226716" lon="7.7507035"><ele>247.0</ele><time>2026-05-03T07:12:42.979Z</time></trkpt><trkpt lat="44.8223396" lon="7.7507247"><ele>247.0</ele><time>2026-05-03T07:12:43.99Z</time></trkpt><trkpt lat="44.8220168" lon="7.7507509"><ele>247.0</ele><time>2026-05-03T07:12:44.979Z</time></trkpt><trkpt lat="44.8216872" lon="7.750772"><ele>247.0</ele><time>2026-05-03T07:12:45.984Z</time></trkpt><trkpt lat="44.8213591" lon="7.7507946"><ele>247.0</ele><time>2026-05-03T07:12:46.986Z</time></trkpt><trkpt lat="44.821037" lon="7.7508179"><ele>247.0</ele><time>2026-05-03T07:12:47.979Z</time></trkpt><trkpt lat="44.8207193" lon="7.7508434"><ele>247.0</ele><time>2026-05-03T07:12:48.983Z</time></trkpt><trkpt lat="44.8203967" lon="7.750871"><ele>247.5</ele><time>2026-05-03T07:12:49.979Z</time></trkpt><trkpt lat="44.8200845" lon="7.7508889"><ele>248.0</ele><time>2026-05-03T07:12:50.98Z</time></trkpt><trkpt lat="44.8197734" lon="7.7509097"><ele>248.0</ele><time>2026-05-03T07:12:51.988Z</time></trkpt><trkpt lat="44.8194647" lon="7.7509283"><ele>248.0</ele><time>2026-05-03T07:12:52.973Z</time></trkpt><trkpt lat="44.819157" lon="7.7509484"><ele>247.5</ele><time>2026-05-03T07:12:53.978Z</time></trkpt><trkpt lat="44.8188527" lon="7.7509711"><ele>247.0</ele><time>2026-05-03T07:12:54.982Z</time></trkpt><trkpt lat="44.8185466" lon="7.7509922"><ele>247.0</ele><time>2026-05-03T07:12:55.981Z</time></trkpt><trkpt lat="44.8182392" lon="7.7510106"><ele>247.0</ele><time>2026-05-03T07:12:56.981Z</time></trkpt><trkpt lat="44.8179317" lon="7.7510309"><ele>248.0</ele><time>2026-05-03T07:12:57.982Z</time></trkpt><trkpt lat="44.8176262" lon="7.7510486"><ele>249.0</ele><time>2026-05-03T07:12:58.975Z</time></trkpt><trkpt lat="44.8173174" lon="7.7510543"><ele>249.0</ele><time>2026-05-03T07:12:59.977Z</time></trkpt><trkpt lat="44.8170171" lon="7.7510721"><ele>249.0</ele><time>2026-05-03T07:13:00.982Z</time></trkpt><trkpt lat="44.8167204" lon="7.7510969"><ele>249.5</ele><time>2026-05-03T07:13:01.981Z</time></trkpt><trkpt lat="44.816424" lon="7.7511147"><ele>250.0</ele><time>2026-05-03T07:13:02.98Z</time></trkpt><trkpt lat="44.8161084" lon="7.7511434"><ele>251.0</ele><time>2026-05-03T07:13:03.985Z</time></trkpt><trkpt lat="44.8157767" lon="7.7511811"><ele>252.0</ele><time>2026-05-03T07:13:04.979Z</time></trkpt><trkpt lat="44.8154378" lon="7.7512158"><ele>251.0</ele><time>2026-05-03T07:13:05.984Z</time></trkpt><trkpt lat="44.8151031" lon="7.7512388"><ele>250.0</ele><time>2026-05-03T07:13:06.988Z</time></trkpt><trkpt lat="44.8147915" lon="7.7512363"><ele>250.0</ele><time>2026-05-03T07:13:07.976Z</time></trkpt><trkpt lat="44.8144866" lon="7.7512396"><ele>250.0</ele><time>2026-05-03T07:13:08.985Z</time></trkpt><trkpt lat="44.8141849" lon="7.7512567"><ele>250.0</ele><time>2026-05-03T07:13:09.983Z</time></trkpt><trkpt lat="44.8138819" lon="7.7512833"><ele>250.0</ele><time>2026-05-03T07:13:10.988Z</time></trkpt><trkpt lat="44.8135775" lon="7.7513094"><ele>250.0</ele><time>2026-05-03T07:13:11.985Z</time></trkpt><trkpt lat="44.8132742" lon="7.751338"><ele>250.0</ele><time>2026-05-03T07:13:12.975Z</time></trkpt><trkpt lat="44.8129709" lon="7.7513616"><ele>250.0</ele><time>2026-05-03T07:13:13.984Z</time></trkpt><trkpt lat="44.8126663" lon="7.7513802"><ele>250.0</ele><time>2026-05-03T07:13:14.984Z</time></trkpt><trkpt lat="44.8123598" lon="7.7514007"><ele>250.0</ele><time>2026-05-03T07:13:15.976Z</time></trkpt><trkpt lat="44.8120508" lon="7.7514234"><ele>250.0</ele><time>2026-05-03T07:13:16.979Z</time></trkpt><trkpt lat="44.8117405" lon="7.7514427"><ele>250.0</ele><time>2026-05-03T07:13:17.981Z</time></trkpt><trkpt lat="44.8114354" lon="7.7514664"><ele>250.0</ele><time>2026-05-03T07:13:18.989Z</time></trkpt><trkpt lat="44.8111281" lon="7.7514831"><ele>250.0</ele><time>2026-05-03T07:13:19.973Z</time></trkpt><trkpt lat="44.8108233" lon="7.7514971"><ele>250.0</ele><time>2026-05-03T07:13:20.987Z</time></trkpt><trkpt lat="44.8105194" lon="7.7515186"><ele>250.0</ele><time>2026-05-03T07:13:21.99Z</time></trkpt><trkpt lat="44.8102142" lon="7.7515411"><ele>250.0</ele><time>2026-05-03T07:13:22.989Z</time></trkpt><trkpt lat="44.8099131" lon="7.7515623"><ele>251.5</ele><time>2026-05-03T07:13:23.982Z</time></trkpt><trkpt lat="44.8096124" lon="7.7515872"><ele>253.0</ele><time>2026-05-03T07:13:24.987Z</time></trkpt><trkpt lat="44.80931" lon="7.7516075"><ele>253.5</ele><time>2026-05-03T07:13:25.978Z</time></trkpt><trkpt lat="44.8090128" lon="7.7516267"><ele>254.0</ele><time>2026-05-03T07:13:26.988Z</time></trkpt><trkpt lat="44.8087108" lon="7.7516457"><ele>253.5</ele><time>2026-05-03T07:13:27.979Z</time></trkpt><trkpt lat="44.8084137" lon="7.7516643"><ele>253.0</ele><time>2026-05-03T07:13:28.982Z</time></trkpt><trkpt lat="44.8081162" lon="7.7516872"><ele>253.0</ele><time>2026-05-03T07:13:29.978Z</time></trkpt><trkpt lat="44.8078142" lon="7.7517116"><ele>253.0</ele><time>2026-05-03T07:13:30.989Z</time></trkpt><trkpt lat="44.8075064" lon="7.7517354"><ele>253.5</ele><time>2026-05-03T07:13:31.98Z</time></trkpt><trkpt lat="44.8072001" lon="7.7517538"><ele>254.0</ele><time>2026-05-03T07:13:32.973Z</time></trkpt><trkpt lat="44.806896" lon="7.7517738"><ele>254.5</ele><time>2026-05-03T07:13:33.975Z</time></trkpt><trkpt lat="44.8065931" lon="7.7517949"><ele>255.0</ele><time>2026-05-03T07:13:34.977Z</time></trkpt><trkpt lat="44.8062868" lon="7.7518221"><ele>254.5</ele><time>2026-05-03T07:13:35.975Z</time></trkpt><trkpt lat="44.8059794" lon="7.7518446"><ele>254.0</ele><time>2026-05-03T07:13:36.983Z</time></trkpt><trkpt lat="44.8056747" lon="7.7518672"><ele>253.5</ele><time>2026-05-03T07:13:37.976Z</time></trkpt><trkpt lat="44.8053652" lon="7.7518915"><ele>253.0</ele><time>2026-05-03T07:13:38.984Z</time></trkpt><trkpt lat="44.8050596" lon="7.7519107"><ele>252.5</ele><time>2026-05-03T07:13:39.976Z</time></trkpt><trkpt lat="44.804754" lon="7.7519349"><ele>252.0</ele><time>2026-05-03T07:13:40.973Z</time></trkpt><trkpt lat="44.8044466" lon="7.7519529"><ele>252.5</ele><time>2026-05-03T07:13:41.978Z</time></trkpt><trkpt lat="44.8041423" lon="7.7519731"><ele>253.0</ele><time>2026-05-03T07:13:42.989Z</time></trkpt><trkpt lat="44.803838" lon="7.7519906"><ele>253.0</ele><time>2026-05-03T07:13:43.973Z</time></trkpt><trkpt lat="44.8035311" lon="7.7520078"><ele>253.0</ele><time>2026-05-03T07:13:44.977Z</time></trkpt><trkpt lat="44.8032286" lon="7.752026"><ele>253.0</ele><time>2026-05-03T07:13:45.986Z</time></trkpt><trkpt lat="44.8029249" lon="7.7520456"><ele>253.0</ele><time>2026-05-03T07:13:46.985Z</time></trkpt><trkpt lat="44.802619" lon="7.7520663"><ele>253.0</ele><time>2026-05-03T07:13:47.994Z</time></trkpt><trkpt lat="44.8023137" lon="7.7520938"><ele>253.0</ele><time>2026-05-03T07:13:48.99Z</time></trkpt><trkpt lat="44.8020103" lon="7.7521123"><ele>253.0</ele><time>2026-05-03T07:13:49.983Z</time></trkpt><trkpt lat="44.8017096" lon="7.7521321"><ele>253.0</ele><time>2026-05-03T07:13:50.976Z</time></trkpt><trkpt lat="44.8014066" lon="7.7521554"><ele>253.0</ele><time>2026-05-03T07:13:51.986Z</time></trkpt><trkpt lat="44.8011073" lon="7.7521767"><ele>253.0</ele><time>2026-05-03T07:13:52.978Z</time></trkpt><trkpt lat="44.8008069" lon="7.7521989"><ele>253.5</ele><time>2026-05-03T07:13:53.987Z</time></trkpt><trkpt lat="44.8005064" lon="7.7522214"><ele>254.0</ele><time>2026-05-03T07:13:54.987Z</time></trkpt><trkpt lat="44.8002059" lon="7.7522441"><ele>254.5</ele><time>2026-05-03T07:13:55.976Z</time></trkpt><trkpt lat="44.7999043" lon="7.7522645"><ele>255.0</ele><time>2026-05-03T07:13:56.973Z</time></trkpt><trkpt lat="44.7996049" lon="7.7522899"><ele>255.0</ele><time>2026-05-03T07:13:57.973Z</time></trkpt><trkpt lat="44.7993045" lon="7.7523124"><ele>255.0</ele><time>2026-05-03T07:13:58.987Z</time></trkpt><trkpt lat="44.7990038" lon="7.7523353"><ele>255.0</ele><time>2026-05-03T07:13:59.985Z</time></trkpt><trkpt lat="44.7987044" lon="7.7523556"><ele>255.0</ele><time>2026-05-03T07:14:00.98Z</time></trkpt><trkpt lat="44.7984073" lon="7.752372"><ele>255.0</ele><time>2026-05-03T07:14:01.988Z</time></trkpt><trkpt lat="44.7981061" lon="7.7523929"><ele>255.0</ele><time>2026-05-03T07:14:02.982Z</time></trkpt><trkpt lat="44.7978109" lon="7.7524169"><ele>255.5</ele><time>2026-05-03T07:14:03.983Z</time></trkpt><trkpt lat="44.7975151" lon="7.7524416"><ele>256.0</ele><time>2026-05-03T07:14:04.977Z</time></trkpt><trkpt lat="44.7972171" lon="7.7524586"><ele>256.0</ele><time>2026-05-03T07:14:05.977Z</time></trkpt><trkpt lat="44.796918" lon="7.7524778"><ele>256.0</ele><time>2026-05-03T07:14:06.986Z</time></trkpt><trkpt lat="44.796622" lon="7.7524978"><ele>256.0</ele><time>2026-05-03T07:14:07.982Z</time></trkpt><trkpt lat="44.7963169" lon="7.7525169"><ele>256.0</ele><time>2026-05-03T07:14:08.979Z</time></trkpt><trkpt lat="44.7960097" lon="7.7525392"><ele>255.5</ele><time>2026-05-03T07:14:09.968Z</time></trkpt><trkpt lat="44.7957052" lon="7.7525591"><ele>255.0</ele><time>2026-05-03T07:14:10.98Z</time></trkpt><trkpt lat="44.7953982" lon="7.7525823"><ele>253.5</ele><time>2026-05-03T07:14:11.975Z</time></trkpt><trkpt lat="44.7950898" lon="7.7526049"><ele>252.0</ele><time>2026-05-03T07:14:12.982Z</time></trkpt><trkpt lat="44.7947813" lon="7.7526283"><ele>252.0</ele><time>2026-05-03T07:14:13.982Z</time></trkpt><trkpt lat="44.7944736" lon="7.7526548"><ele>252.0</ele><time>2026-05-03T07:14:14.986Z</time></trkpt><trkpt lat="44.7941644" lon="7.7526766"><ele>252.0</ele><time>2026-05-03T07:14:15.979Z</time></trkpt><trkpt lat="44.7938532" lon="7.7527014"><ele>252.0</ele><time>2026-05-03T07:14:16.974Z</time></trkpt><trkpt lat="44.7935407" lon="7.7527205"><ele>252.0</ele><time>2026-05-03T07:14:17.99Z</time></trkpt><trkpt lat="44.7932275" lon="7.7527443"><ele>252.0</ele><time>2026-05-03T07:14:18.983Z</time></trkpt><trkpt lat="44.7929173" lon="7.7527626"><ele>253.0</ele><time>2026-05-03T07:14:19.978Z</time></trkpt><trkpt lat="44.7926051" lon="7.7527834"><ele>254.0</ele><time>2026-05-03T07:14:20.983Z</time></trkpt><trkpt lat="44.7922907" lon="7.7528047"><ele>254.0</ele><time>2026-05-03T07:14:21.983Z</time></trkpt><trkpt lat="44.7919774" lon="7.7528272"><ele>254.0</ele><time>2026-05-03T07:14:22.978Z</time></trkpt><trkpt lat="44.79166" lon="7.7528478"><ele>253.5</ele><time>2026-05-03T07:14:23.977Z</time></trkpt><trkpt lat="44.791344" lon="7.7528682"><ele>253.0</ele><time>2026-05-03T07:14:24.991Z</time></trkpt><trkpt lat="44.7910278" lon="7.7528899"><ele>253.5</ele><time>2026-05-03T07:14:25.989Z</time></trkpt><trkpt lat="44.7907157" lon="7.7529143"><ele>254.0</ele><time>2026-05-03T07:14:26.982Z</time></trkpt><trkpt lat="44.7903976" lon="7.7529393"><ele>254.5</ele><time>2026-05-03T07:14:27.988Z</time></trkpt><trkpt lat="44.7900791" lon="7.7529589"><ele>255.0</ele><time>2026-05-03T07:14:28.979Z</time></trkpt><trkpt lat="44.7897634" lon="7.7529739"><ele>255.0</ele><time>2026-05-03T07:14:29.988Z</time></trkpt><trkpt lat="44.7894453" lon="7.7529968"><ele>255.0</ele><time>2026-05-03T07:14:30.988Z</time></trkpt><trkpt lat="44.7891355" lon="7.7530123"><ele>254.5</ele><time>2026-05-03T07:14:31.98Z</time></trkpt><trkpt lat="44.7888187" lon="7.7530184"><ele>254.0</ele><time>2026-05-03T07:14:32.986Z</time></trkpt><trkpt lat="44.7885005" lon="7.7530238"><ele>255.5</ele><time>2026-05-03T07:14:33.987Z</time></trkpt><trkpt lat="44.7881865" lon="7.7530226"><ele>257.0</ele><time>2026-05-03T07:14:34.978Z</time></trkpt><trkpt lat="44.7878738" lon="7.7530158"><ele>256.0</ele><time>2026-05-03T07:14:35.98Z</time></trkpt><trkpt lat="44.7875659" lon="7.753012"><ele>255.0</ele><time>2026-05-03T07:14:36.989Z</time></trkpt><trkpt lat="44.7872573" lon="7.7530001"><ele>255.0</ele><time>2026-05-03T07:14:37.983Z</time></trkpt><trkpt lat="44.7869468" lon="7.7529863"><ele>255.0</ele><time>2026-05-03T07:14:38.977Z</time></trkpt><trkpt lat="44.7866366" lon="7.7529757"><ele>254.0</ele><time>2026-05-03T07:14:39.975Z</time></trkpt><trkpt lat="44.7863264" lon="7.7529575"><ele>253.0</ele><time>2026-05-03T07:14:40.978Z</time></trkpt><trkpt lat="44.7860177" lon="7.752943"><ele>253.5</ele><time>2026-05-03T07:14:41.982Z</time></trkpt><trkpt lat="44.7857087" lon="7.75292"><ele>254.0</ele><time>2026-05-03T07:14:42.982Z</time></trkpt><trkpt lat="44.7853991" lon="7.7528961"><ele>254.5</ele><time>2026-05-03T07:14:43.989Z</time></trkpt><trkpt lat="44.7850913" lon="7.7528688"><ele>255.0</ele><time>2026-05-03T07:14:44.977Z</time></trkpt><trkpt lat="44.7847848" lon="7.7528387"><ele>255.0</ele><time>2026-05-03T07:14:45.982Z</time></trkpt><trkpt lat="44.7844777" lon="7.7528086"><ele>255.0</ele><time>2026-05-03T07:14:46.98Z</time></trkpt><trkpt lat="44.784168" lon="7.7527781"><ele>255.0</ele><time>2026-05-03T07:14:47.971Z</time></trkpt><trkpt lat="44.7838609" lon="7.7527452"><ele>255.0</ele><time>2026-05-03T07:14:48.977Z</time></trkpt><trkpt lat="44.7835549" lon="7.7527099"><ele>255.0</ele><time>2026-05-03T07:14:49.975Z</time></trkpt><trkpt lat="44.7832464" lon="7.7526825"><ele>255.0</ele><time>2026-05-03T07:14:50.974Z</time></trkpt><trkpt lat="44.7829408" lon="7.752651"><ele>256.5</ele><time>2026-05-03T07:14:51.973Z</time></trkpt><trkpt lat="44.7826342" lon="7.7526196"><ele>258.0</ele><time>2026-05-03T07:14:52.983Z</time></trkpt><trkpt lat="44.7823324" lon="7.7525833"><ele>258.0</ele><time>2026-05-03T07:14:53.97Z</time></trkpt><trkpt lat="44.7820272" lon="7.7525527"><ele>258.0</ele><time>2026-05-03T07:14:54.979Z</time></trkpt><trkpt lat="44.781722" lon="7.7525233"><ele>258.0</ele><time>2026-05-03T07:14:55.977Z</time></trkpt><trkpt lat="44.7814194" lon="7.7524921"><ele>258.0</ele><time>2026-05-03T07:14:56.987Z</time></trkpt><trkpt lat="44.7811113" lon="7.7524648"><ele>257.5</ele><time>2026-05-03T07:14:57.981Z</time></trkpt><trkpt lat="44.780808" lon="7.7524378"><ele>257.0</ele><time>2026-05-03T07:14:58.975Z</time></trkpt><trkpt lat="44.7804993" lon="7.7524076"><ele>257.0</ele><time>2026-05-03T07:14:59.973Z</time></trkpt><trkpt lat="44.7801911" lon="7.7523782"><ele>257.0</ele><time>2026-05-03T07:15:00.98Z</time></trkpt><trkpt lat="44.7798819" lon="7.7523455"><ele>256.0</ele><time>2026-05-03T07:15:01.976Z</time></trkpt><trkpt lat="44.7795711" lon="7.7523147"><ele>255.0</ele><time>2026-05-03T07:15:02.982Z</time></trkpt><trkpt lat="44.7792624" lon="7.752285"><ele>254.5</ele><time>2026-05-03T07:15:03.983Z</time></trkpt><trkpt lat="44.7789489" lon="7.7522526"><ele>254.0</ele><time>2026-05-03T07:15:04.97Z</time></trkpt><trkpt lat="44.7786373" lon="7.7522227"><ele>254.5</ele><time>2026-05-03T07:15:05.973Z</time></trkpt><trkpt lat="44.7783288" lon="7.7521899"><ele>255.0</ele><time>2026-05-03T07:15:06.982Z</time></trkpt><trkpt lat="44.7780158" lon="7.7521572"><ele>255.0</ele><time>2026-05-03T07:15:07.983Z</time></trkpt><trkpt lat="44.7777011" lon="7.7521262"><ele>255.0</ele><time>2026-05-03T07:15:08.977Z</time></trkpt><trkpt lat="44.7773904" lon="7.7520926"><ele>255.5</ele><time>2026-05-03T07:15:09.975Z</time></trkpt><trkpt lat="44.7770794" lon="7.7520613"><ele>256.0</ele><time>2026-05-03T07:15:10.986Z</time></trkpt><trkpt lat="44.7767698" lon="7.7520289"><ele>255.0</ele><time>2026-05-03T07:15:11.975Z</time></trkpt><trkpt lat="44.7764569" lon="7.7519974"><ele>254.0</ele><time>2026-05-03T07:15:12.983Z</time></trkpt><trkpt lat="44.7761427" lon="7.7519674"><ele>255.0</ele><time>2026-05-03T07:15:13.987Z</time></trkpt><trkpt lat="44.7758299" lon="7.7519384"><ele>256.0</ele><time>2026-05-03T07:15:14.988Z</time></trkpt><trkpt lat="44.7755173" lon="7.7519068"><ele>256.0</ele><time>2026-05-03T07:15:15.982Z</time></trkpt><trkpt lat="44.7752038" lon="7.7518742"><ele>256.0</ele><time>2026-05-03T07:15:16.975Z</time></trkpt><trkpt lat="44.7748877" lon="7.7518458"><ele>255.0</ele><time>2026-05-03T07:15:17.978Z</time></trkpt><trkpt lat="44.7745672" lon="7.7518182"><ele>254.0</ele><time>2026-05-03T07:15:18.985Z</time></trkpt><trkpt lat="44.7742502" lon="7.7517871"><ele>254.0</ele><time>2026-05-03T07:15:19.984Z</time></trkpt><trkpt lat="44.7739285" lon="7.7517519"><ele>254.0</ele><time>2026-05-03T07:15:20.982Z</time></trkpt><trkpt lat="44.7736089" lon="7.7517146"><ele>254.0</ele><time>2026-05-03T07:15:21.984Z</time></trkpt><trkpt lat="44.7732911" lon="7.7516844"><ele>254.0</ele><time>2026-05-03T07:15:22.982Z</time></trkpt><trkpt lat="44.772971" lon="7.7516547"><ele>255.0</ele><time>2026-05-03T07:15:23.979Z</time></trkpt><trkpt lat="44.7726532" lon="7.7516213"><ele>256.0</ele><time>2026-05-03T07:15:24.982Z</time></trkpt><trkpt lat="44.7723335" lon="7.7515871"><ele>256.0</ele><time>2026-05-03T07:15:25.982Z</time></trkpt><trkpt lat="44.7720116" lon="7.7515589"><ele>256.0</ele><time>2026-05-03T07:15:26.985Z</time></trkpt><trkpt lat="44.7716884" lon="7.7515259"><ele>255.5</ele><time>2026-05-03T07:15:27.977Z</time></trkpt><trkpt lat="44.7713641" lon="7.7514927"><ele>255.0</ele><time>2026-05-03T07:15:28.986Z</time></trkpt><trkpt lat="44.7710457" lon="7.7514593"><ele>256.5</ele><time>2026-05-03T07:15:29.986Z</time></trkpt><trkpt lat="44.7707259" lon="7.7514292"><ele>258.0</ele><time>2026-05-03T07:15:30.979Z</time></trkpt><trkpt lat="44.7704003" lon="7.7514055"><ele>257.5</ele><time>2026-05-03T07:15:31.986Z</time></trkpt><trkpt lat="44.7700788" lon="7.7513708"><ele>257.0</ele><time>2026-05-03T07:15:32.973Z</time></trkpt><trkpt lat="44.769758" lon="7.7513379"><ele>257.0</ele><time>2026-05-03T07:15:33.981Z</time></trkpt><trkpt lat="44.7694395" lon="7.7513036"><ele>257.0</ele><time>2026-05-03T07:15:34.973Z</time></trkpt><trkpt lat="44.7691222" lon="7.7512722"><ele>257.0</ele><time>2026-05-03T07:15:35.977Z</time></trkpt><trkpt lat="44.768804" lon="7.7512375"><ele>257.0</ele><time>2026-05-03T07:15:36.975Z</time></trkpt><trkpt lat="44.7684836" lon="7.7512033"><ele>257.0</ele><time>2026-05-03T07:15:37.978Z</time></trkpt><trkpt lat="44.7681682" lon="7.7511708"><ele>257.0</ele><time>2026-05-03T07:15:38.983Z</time></trkpt><trkpt lat="44.7678499" lon="7.7511411"><ele>257.0</ele><time>2026-05-03T07:15:39.975Z</time></trkpt><trkpt lat="44.7675323" lon="7.751111"><ele>257.0</ele><time>2026-05-03T07:15:40.99Z</time></trkpt><trkpt lat="44.7672166" lon="7.7510811"><ele>257.0</ele><time>2026-05-03T07:15:41.982Z</time></trkpt><trkpt lat="44.7668986" lon="7.751049"><ele>257.0</ele><time>2026-05-03T07:15:42.992Z</time></trkpt><trkpt lat="44.7665795" lon="7.7510182"><ele>257.5</ele><time>2026-05-03T07:15:43.976Z</time></trkpt><trkpt lat="44.7662636" lon="7.7509791"><ele>258.0</ele><time>2026-05-03T07:15:44.997Z</time></trkpt><trkpt lat="44.765945" lon="7.7509499"><ele>258.0</ele><time>2026-05-03T07:15:45.972Z</time></trkpt><trkpt lat="44.7656293" lon="7.7509193"><ele>258.0</ele><time>2026-05-03T07:15:46.987Z</time></trkpt><trkpt lat="44.765314" lon="7.7508873"><ele>258.0</ele><time>2026-05-03T07:15:47.978Z</time></trkpt><trkpt lat="44.7649977" lon="7.7508532"><ele>258.0</ele><time>2026-05-03T07:15:48.99Z</time></trkpt><trkpt lat="44.7646858" lon="7.7508197"><ele>258.0</ele><time>2026-05-03T07:15:49.976Z</time></trkpt><trkpt lat="44.7643697" lon="7.7507854"><ele>258.0</ele><time>2026-05-03T07:15:50.983Z</time></trkpt><trkpt lat="44.7640527" lon="7.7507527"><ele>258.0</ele><time>2026-05-03T07:15:51.977Z</time></trkpt><trkpt lat="44.7637385" lon="7.7507231"><ele>258.0</ele><time>2026-05-03T07:15:52.981Z</time></trkpt><trkpt lat="44.7634296" lon="7.7506896"><ele>258.0</ele><time>2026-05-03T07:15:53.987Z</time></trkpt><trkpt lat="44.7631192" lon="7.7506605"><ele>258.0</ele><time>2026-05-03T07:15:54.973Z</time></trkpt><trkpt lat="44.7628146" lon="7.7506299"><ele>258.0</ele><time>2026-05-03T07:15:55.976Z</time></trkpt><trkpt lat="44.7625067" lon="7.7506015"><ele>258.0</ele><time>2026-05-03T07:15:56.989Z</time></trkpt><trkpt lat="44.7621988" lon="7.7505682"><ele>258.0</ele><time>2026-05-03T07:15:57.973Z</time></trkpt><trkpt lat="44.7618928" lon="7.7505357"><ele>258.0</ele><time>2026-05-03T07:15:58.984Z</time></trkpt><trkpt lat="44.7615824" lon="7.7505004"><ele>258.0</ele><time>2026-05-03T07:15:59.982Z</time></trkpt><trkpt lat="44.7612769" lon="7.7504689"><ele>258.0</ele><time>2026-05-03T07:16:00.985Z</time></trkpt><trkpt lat="44.7609734" lon="7.7504338"><ele>259.0</ele><time>2026-05-03T07:16:01.979Z</time></trkpt><trkpt lat="44.7606683" lon="7.7504051"><ele>260.0</ele><time>2026-05-03T07:16:02.985Z</time></trkpt><trkpt lat="44.7603575" lon="7.7503735"><ele>260.0</ele><time>2026-05-03T07:16:03.98Z</time></trkpt><trkpt lat="44.760049" lon="7.7503452"><ele>260.0</ele><time>2026-05-03T07:16:04.982Z</time></trkpt><trkpt lat="44.7597385" lon="7.7503133"><ele>260.0</ele><time>2026-05-03T07:16:05.979Z</time></trkpt><trkpt lat="44.759432" lon="7.7502766"><ele>260.0</ele><time>2026-05-03T07:16:06.98Z</time></trkpt><trkpt lat="44.759124" lon="7.7502473"><ele>260.0</ele><time>2026-05-03T07:16:07.97Z</time></trkpt><trkpt lat="44.7588114" lon="7.7502165"><ele>260.0</ele><time>2026-05-03T07:16:08.979Z</time></trkpt><trkpt lat="44.7584988" lon="7.7501909"><ele>260.0</ele><time>2026-05-03T07:16:09.983Z</time></trkpt><trkpt lat="44.7581862" lon="7.7501554"><ele>260.0</ele><time>2026-05-03T07:16:10.979Z</time></trkpt><trkpt lat="44.7578762" lon="7.750132"><ele>261.0</ele><time>2026-05-03T07:16:11.992Z</time></trkpt><trkpt lat="44.7575668" lon="7.7501044"><ele>262.0</ele><time>2026-05-03T07:16:12.986Z</time></trkpt><trkpt lat="44.7572504" lon="7.750079"><ele>262.0</ele><time>2026-05-03T07:16:13.978Z</time></trkpt><trkpt lat="44.756936" lon="7.7500523"><ele>262.0</ele><time>2026-05-03T07:16:14.987Z</time></trkpt><trkpt lat="44.7566218" lon="7.7500267"><ele>260.5</ele><time>2026-05-03T07:16:16.001Z</time></trkpt><trkpt lat="44.7563079" lon="7.7500072"><ele>259.0</ele><time>2026-05-03T07:16:16.982Z</time></trkpt><trkpt lat="44.7559904" lon="7.7499874"><ele>259.0</ele><time>2026-05-03T07:16:17.993Z</time></trkpt><trkpt lat="44.7556738" lon="7.749972"><ele>259.0</ele><time>2026-05-03T07:16:18.979Z</time></trkpt><trkpt lat="44.7553562" lon="7.7499625"><ele>260.0</ele><time>2026-05-03T07:16:19.994Z</time></trkpt><trkpt lat="44.7550411" lon="7.7499576"><ele>261.0</ele><time>2026-05-03T07:16:20.982Z</time></trkpt><trkpt lat="44.7547224" lon="7.7499582"><ele>261.0</ele><time>2026-05-03T07:16:21.976Z</time></trkpt><trkpt lat="44.7544006" lon="7.7499691"><ele>261.0</ele><time>2026-05-03T07:16:22.991Z</time></trkpt><trkpt lat="44.7540832" lon="7.7499773"><ele>261.5</ele><time>2026-05-03T07:16:23.984Z</time></trkpt><trkpt lat="44.7537637" lon="7.7499833"><ele>262.0</ele><time>2026-05-03T07:16:24.99Z</time></trkpt><trkpt lat="44.753448" lon="7.7499868"><ele>262.5</ele><time>2026-05-03T07:16:25.992Z</time></trkpt><trkpt lat="44.7531325" lon="7.7499952"><ele>263.0</ele><time>2026-05-03T07:16:26.985Z</time></trkpt><trkpt lat="44.7528183" lon="7.7500072"><ele>263.5</ele><time>2026-05-03T07:16:27.978Z</time></trkpt><trkpt lat="44.752506" lon="7.7500225"><ele>264.0</ele><time>2026-05-03T07:16:28.983Z</time></trkpt><trkpt lat="44.7521929" lon="7.7500436"><ele>264.0</ele><time>2026-05-03T07:16:29.988Z</time></trkpt><trkpt lat="44.7518874" lon="7.7500627"><ele>264.0</ele><time>2026-05-03T07:16:30.986Z</time></trkpt><trkpt lat="44.751578" lon="7.7500867"><ele>264.0</ele><time>2026-05-03T07:16:31.991Z</time></trkpt><trkpt lat="44.7512713" lon="7.7501096"><ele>264.0</ele><time>2026-05-03T07:16:32.989Z</time></trkpt><trkpt lat="44.750965" lon="7.7501368"><ele>264.0</ele><time>2026-05-03T07:16:33.979Z</time></trkpt><trkpt lat="44.7506626" lon="7.7501579"><ele>264.0</ele><time>2026-05-03T07:16:34.981Z</time></trkpt><trkpt lat="44.7503605" lon="7.750175"><ele>263.0</ele><time>2026-05-03T07:16:35.978Z</time></trkpt><trkpt lat="44.7500608" lon="7.7502003"><ele>262.0</ele><time>2026-05-03T07:16:36.981Z</time></trkpt><trkpt lat="44.7497621" lon="7.7502345"><ele>262.0</ele><time>2026-05-03T07:16:37.97Z</time></trkpt><trkpt lat="44.7494631" lon="7.7502756"><ele>262.0</ele><time>2026-05-03T07:16:38.983Z</time></trkpt><trkpt lat="44.7491659" lon="7.75032"><ele>262.0</ele><time>2026-05-03T07:16:39.987Z</time></trkpt><trkpt lat="44.7488703" lon="7.7503749"><ele>262.0</ele><time>2026-05-03T07:16:40.985Z</time></trkpt><trkpt lat="44.7485758" lon="7.7504305"><ele>262.0</ele><time>2026-05-03T07:16:41.978Z</time></trkpt><trkpt lat="44.7482808" lon="7.7504847"><ele>262.0</ele><time>2026-05-03T07:16:42.976Z</time></trkpt><trkpt lat="44.7479893" lon="7.7505391"><ele>263.5</ele><time>2026-05-03T07:16:43.982Z</time></trkpt><trkpt lat="44.7476994" lon="7.7505967"><ele>265.0</ele><time>2026-05-03T07:16:44.978Z</time></trkpt><trkpt lat="44.747407" lon="7.750657"><ele>265.0</ele><time>2026-05-03T07:16:45.975Z</time></trkpt><trkpt lat="44.7471149" lon="7.7507173"><ele>265.0</ele><time>2026-05-03T07:16:46.98Z</time></trkpt><trkpt lat="44.7468198" lon="7.750779"><ele>264.0</ele><time>2026-05-03T07:16:47.986Z</time></trkpt><trkpt lat="44.7465301" lon="7.7508469"><ele>263.0</ele><time>2026-05-03T07:16:48.991Z</time></trkpt><trkpt lat="44.7462363" lon="7.750912"><ele>263.5</ele><time>2026-05-03T07:16:49.987Z</time></trkpt><trkpt lat="44.745941" lon="7.7509842"><ele>264.0</ele><time>2026-05-03T07:16:50.975Z</time></trkpt><trkpt lat="44.7456506" lon="7.7510596"><ele>264.0</ele><time>2026-05-03T07:16:51.971Z</time></trkpt><trkpt lat="44.7453618" lon="7.7511418"><ele>264.0</ele><time>2026-05-03T07:16:52.986Z</time></trkpt><trkpt lat="44.745069" lon="7.7512292"><ele>263.0</ele><time>2026-05-03T07:16:53.994Z</time></trkpt><trkpt lat="44.744777" lon="7.7513161"><ele>262.0</ele><time>2026-05-03T07:16:54.982Z</time></trkpt><trkpt lat="44.7444822" lon="7.7514004"><ele>262.5</ele><time>2026-05-03T07:16:55.982Z</time></trkpt><trkpt lat="44.7441893" lon="7.7514831"><ele>263.0</ele><time>2026-05-03T07:16:56.974Z</time></trkpt><trkpt lat="44.7438958" lon="7.7515687"><ele>263.0</ele><time>2026-05-03T07:16:57.982Z</time></trkpt><trkpt lat="44.7436033" lon="7.7516522"><ele>263.0</ele><time>2026-05-03T07:16:58.991Z</time></trkpt><trkpt lat="44.7433141" lon="7.7517395"><ele>263.5</ele><time>2026-05-03T07:16:59.972Z</time></trkpt><trkpt lat="44.7430243" lon="7.7518239"><ele>264.0</ele><time>2026-05-03T07:17:00.979Z</time></trkpt><trkpt lat="44.7427352" lon="7.7519095"><ele>265.0</ele><time>2026-05-03T07:17:01.989Z</time></trkpt><trkpt lat="44.7424463" lon="7.7519938"><ele>266.0</ele><time>2026-05-03T07:17:02.979Z</time></trkpt><trkpt lat="44.7421579" lon="7.7520729"><ele>265.0</ele><time>2026-05-03T07:17:03.975Z</time></trkpt><trkpt lat="44.7418682" lon="7.7521579"><ele>264.0</ele><time>2026-05-03T07:17:04.983Z</time></trkpt><trkpt lat="44.7415783" lon="7.7522422"><ele>264.0</ele><time>2026-05-03T07:17:05.979Z</time></trkpt><trkpt lat="44.7412876" lon="7.7523296"><ele>264.0</ele><time>2026-05-03T07:17:06.989Z</time></trkpt><trkpt lat="44.7410006" lon="7.7524148"><ele>265.0</ele><time>2026-05-03T07:17:07.976Z</time></trkpt><trkpt lat="44.7407132" lon="7.7524916"><ele>266.0</ele><time>2026-05-03T07:17:08.982Z</time></trkpt><trkpt lat="44.7404288" lon="7.752577"><ele>266.0</ele><time>2026-05-03T07:17:09.971Z</time></trkpt><trkpt lat="44.7401429" lon="7.7526618"><ele>266.0</ele><time>2026-05-03T07:17:10.982Z</time></trkpt><trkpt lat="44.7398543" lon="7.752748"><ele>266.0</ele><time>2026-05-03T07:17:11.978Z</time></trkpt><trkpt lat="44.7395619" lon="7.7528296"><ele>266.0</ele><time>2026-05-03T07:17:12.978Z</time></trkpt><trkpt lat="44.7392687" lon="7.7529122"><ele>266.0</ele><time>2026-05-03T07:17:13.984Z</time></trkpt><trkpt lat="44.7389755" lon="7.7529932"><ele>266.0</ele><time>2026-05-03T07:17:14.98Z</time></trkpt><trkpt lat="44.7386826" lon="7.7530737"><ele>266.0</ele><time>2026-05-03T07:17:15.981Z</time></trkpt><trkpt lat="44.7383831" lon="7.7531592"><ele>266.0</ele><time>2026-05-03T07:17:16.978Z</time></trkpt><trkpt lat="44.7380795" lon="7.7532457"><ele>266.0</ele><time>2026-05-03T07:17:17.975Z</time></trkpt><trkpt lat="44.7377716" lon="7.7533366"><ele>266.0</ele><time>2026-05-03T07:17:18.979Z</time></trkpt><trkpt lat="44.737459" lon="7.7534274"><ele>266.0</ele><time>2026-05-03T07:17:19.977Z</time></trkpt><trkpt lat="44.7371434" lon="7.7535142"><ele>266.0</ele><time>2026-05-03T07:17:20.966Z</time></trkpt><trkpt lat="44.736824" lon="7.7536076"><ele>266.5</ele><time>2026-05-03T07:17:21.974Z</time></trkpt><trkpt lat="44.7365055" lon="7.7537012"><ele>267.0</ele><time>2026-05-03T07:17:22.979Z</time></trkpt><trkpt lat="44.7361836" lon="7.7537944"><ele>267.0</ele><time>2026-05-03T07:17:23.979Z</time></trkpt><trkpt lat="44.7358636" lon="7.753885"><ele>267.0</ele><time>2026-05-03T07:17:24.984Z</time></trkpt><trkpt lat="44.7355433" lon="7.7539778"><ele>267.0</ele><time>2026-05-03T07:17:25.982Z</time></trkpt><trkpt lat="44.7352213" lon="7.7540675"><ele>267.0</ele><time>2026-05-03T07:17:26.981Z</time></trkpt><trkpt lat="44.7348953" lon="7.7541705"><ele>267.0</ele><time>2026-05-03T07:17:27.979Z</time></trkpt><trkpt lat="44.7345731" lon="7.7542677"><ele>267.0</ele><time>2026-05-03T07:17:28.988Z</time></trkpt><trkpt lat="44.7342514" lon="7.7543638"><ele>267.5</ele><time>2026-05-03T07:17:29.984Z</time></trkpt><trkpt lat="44.7339298" lon="7.7544587"><ele>268.0</ele><time>2026-05-03T07:17:30.981Z</time></trkpt><trkpt lat="44.7336075" lon="7.7545574"><ele>268.5</ele><time>2026-05-03T07:17:31.98Z</time></trkpt><trkpt lat="44.7332866" lon="7.7546624"><ele>269.0</ele><time>2026-05-03T07:17:32.987Z</time></trkpt><trkpt lat="44.7329589" lon="7.7547642"><ele>269.0</ele><time>2026-05-03T07:17:33.983Z</time></trkpt><trkpt lat="44.7326353" lon="7.754859"><ele>269.0</ele><time>2026-05-03T07:17:34.989Z</time></trkpt><trkpt lat="44.7323106" lon="7.7549515"><ele>269.0</ele><time>2026-05-03T07:17:35.983Z</time></trkpt><trkpt lat="44.7319837" lon="7.7550448"><ele>269.0</ele><time>2026-05-03T07:17:36.983Z</time></trkpt><trkpt lat="44.7316593" lon="7.7551392"><ele>269.0</ele><time>2026-05-03T07:17:37.974Z</time></trkpt><trkpt lat="44.7313341" lon="7.7552282"><ele>269.0</ele><time>2026-05-03T07:17:38.991Z</time></trkpt><trkpt lat="44.7310117" lon="7.7553194"><ele>268.5</ele><time>2026-05-03T07:17:39.982Z</time></trkpt><trkpt lat="44.7306856" lon="7.7554061"><ele>268.0</ele><time>2026-05-03T07:17:40.981Z</time></trkpt><trkpt lat="44.7303605" lon="7.7554842"><ele>268.5</ele><time>2026-05-03T07:17:41.975Z</time></trkpt><trkpt lat="44.7300385" lon="7.755567"><ele>269.0</ele><time>2026-05-03T07:17:42.982Z</time></trkpt><trkpt lat="44.7297198" lon="7.7556534"><ele>269.0</ele><time>2026-05-03T07:17:43.977Z</time></trkpt><trkpt lat="44.7293991" lon="7.7557481"><ele>269.0</ele><time>2026-05-03T07:17:44.985Z</time></trkpt><trkpt lat="44.729084" lon="7.7558405"><ele>269.0</ele><time>2026-05-03T07:17:45.984Z</time></trkpt><trkpt lat="44.7287673" lon="7.7559309"><ele>269.0</ele><time>2026-05-03T07:17:46.979Z</time></trkpt><trkpt lat="44.7284554" lon="7.7560193"><ele>269.0</ele><time>2026-05-03T07:17:47.975Z</time></trkpt><trkpt lat="44.7281421" lon="7.7561094"><ele>269.0</ele><time>2026-05-03T07:17:48.98Z</time></trkpt><trkpt lat="44.7278308" lon="7.7562"><ele>268.5</ele><time>2026-05-03T07:17:49.974Z</time></trkpt><trkpt lat="44.7275209" lon="7.756289"><ele>268.0</ele><time>2026-05-03T07:17:50.989Z</time></trkpt><trkpt lat="44.7272114" lon="7.7563798"><ele>268.0</ele><time>2026-05-03T07:17:51.98Z</time></trkpt><trkpt lat="44.7269041" lon="7.756472"><ele>268.0</ele><time>2026-05-03T07:17:52.991Z</time></trkpt><trkpt lat="44.726599" lon="7.7565544"><ele>268.5</ele><time>2026-05-03T07:17:53.981Z</time></trkpt><trkpt lat="44.7262933" lon="7.7566356"><ele>269.0</ele><time>2026-05-03T07:17:54.98Z</time></trkpt><trkpt lat="44.7259924" lon="7.7567199"><ele>270.0</ele><time>2026-05-03T07:17:55.98Z</time></trkpt><trkpt lat="44.7256899" lon="7.7568064"><ele>271.0</ele><time>2026-05-03T07:17:56.978Z</time></trkpt><trkpt lat="44.7253826" lon="7.756889"><ele>270.0</ele><time>2026-05-03T07:17:57.976Z</time></trkpt><trkpt lat="44.7250776" lon="7.7569771"><ele>269.0</ele><time>2026-05-03T07:17:58.976Z</time></trkpt><trkpt lat="44.7247723" lon="7.7570668"><ele>269.0</ele><time>2026-05-03T07:17:59.978Z</time></trkpt><trkpt lat="44.7244691" lon="7.7571537"><ele>269.0</ele><time>2026-05-03T07:18:00.975Z</time></trkpt><trkpt lat="44.7241663" lon="7.7572409"><ele>270.0</ele><time>2026-05-03T07:18:01.975Z</time></trkpt><trkpt lat="44.7238635" lon="7.7573294"><ele>271.0</ele><time>2026-05-03T07:18:02.986Z</time></trkpt><trkpt lat="44.7235594" lon="7.7574167"><ele>271.0</ele><time>2026-05-03T07:18:03.986Z</time></trkpt><trkpt lat="44.7232538" lon="7.7575037"><ele>271.0</ele><time>2026-05-03T07:18:04.976Z</time></trkpt><trkpt lat="44.7229476" lon="7.7575937"><ele>271.5</ele><time>2026-05-03T07:18:05.998Z</time></trkpt><trkpt lat="44.7226389" lon="7.7576809"><ele>272.0</ele><time>2026-05-03T07:18:06.976Z</time></trkpt><trkpt lat="44.7223299" lon="7.7577697"><ele>272.0</ele><time>2026-05-03T07:18:07.985Z</time></trkpt><trkpt lat="44.7220202" lon="7.7578568"><ele>272.0</ele><time>2026-05-03T07:18:08.976Z</time></trkpt><trkpt lat="44.7217087" lon="7.7579465"><ele>272.0</ele><time>2026-05-03T07:18:09.976Z</time></trkpt><trkpt lat="44.721397" lon="7.7580415"><ele>272.0</ele><time>2026-05-03T07:18:10.978Z</time></trkpt><trkpt lat="44.7210822" lon="7.7581387"><ele>272.0</ele><time>2026-05-03T07:18:11.967Z</time></trkpt><trkpt lat="44.7207688" lon="7.7582332"><ele>272.0</ele><time>2026-05-03T07:18:12.979Z</time></trkpt><trkpt lat="44.7204546" lon="7.7583203"><ele>272.0</ele><time>2026-05-03T07:18:13.976Z</time></trkpt><trkpt lat="44.7201413" lon="7.7584063"><ele>272.0</ele><time>2026-05-03T07:18:14.984Z</time></trkpt><trkpt lat="44.7198266" lon="7.7584913"><ele>272.5</ele><time>2026-05-03T07:18:15.976Z</time></trkpt><trkpt lat="44.7195087" lon="7.7585812"><ele>273.0</ele><time>2026-05-03T07:18:16.973Z</time></trkpt><trkpt lat="44.719195" lon="7.7586735"><ele>273.0</ele><time>2026-05-03T07:18:17.979Z</time></trkpt><trkpt lat="44.7188807" lon="7.7587641"><ele>273.0</ele><time>2026-05-03T07:18:18.972Z</time></trkpt><trkpt lat="44.7185636" lon="7.7588561"><ele>273.5</ele><time>2026-05-03T07:18:19.978Z</time></trkpt><trkpt lat="44.718249" lon="7.7589476"><ele>274.0</ele><time>2026-05-03T07:18:20.97Z</time></trkpt><trkpt lat="44.7179304" lon="7.7590396"><ele>275.0</ele><time>2026-05-03T07:18:21.994Z</time></trkpt><trkpt lat="44.717615" lon="7.7591217"><ele>276.0</ele><time>2026-05-03T07:18:22.979Z</time></trkpt><trkpt lat="44.717297" lon="7.7592133"><ele>276.0</ele><time>2026-05-03T07:18:23.973Z</time></trkpt><trkpt lat="44.7169787" lon="7.7593066"><ele>276.0</ele><time>2026-05-03T07:18:24.985Z</time></trkpt><trkpt lat="44.7166597" lon="7.7593977"><ele>275.0</ele><time>2026-05-03T07:18:25.981Z</time></trkpt><trkpt lat="44.7163422" lon="7.759494"><ele>274.0</ele><time>2026-05-03T07:18:26.977Z</time></trkpt><trkpt lat="44.7160272" lon="7.759583"><ele>274.0</ele><time>2026-05-03T07:18:27.987Z</time></trkpt><trkpt lat="44.715712" lon="7.7596756"><ele>274.0</ele><time>2026-05-03T07:18:28.982Z</time></trkpt><trkpt lat="44.7153932" lon="7.7597677"><ele>273.0</ele><time>2026-05-03T07:18:29.972Z</time></trkpt><trkpt lat="44.7150781" lon="7.7598594"><ele>272.0</ele><time>2026-05-03T07:18:30.986Z</time></trkpt><trkpt lat="44.7147627" lon="7.7599515"><ele>272.0</ele><time>2026-05-03T07:18:31.988Z</time></trkpt><trkpt lat="44.7144494" lon="7.7600394"><ele>272.0</ele><time>2026-05-03T07:18:32.981Z</time></trkpt><trkpt lat="44.7141359" lon="7.7601271"><ele>272.5</ele><time>2026-05-03T07:18:33.976Z</time></trkpt><trkpt lat="44.7138209" lon="7.7602149"><ele>273.0</ele><time>2026-05-03T07:18:34.975Z</time></trkpt><trkpt lat="44.7135032" lon="7.7603042"><ele>273.5</ele><time>2026-05-03T07:18:35.982Z</time></trkpt><trkpt lat="44.713188" lon="7.7603967"><ele>274.0</ele><time>2026-05-03T07:18:36.982Z</time></trkpt><trkpt lat="44.7128766" lon="7.7604856"><ele>275.0</ele><time>2026-05-03T07:18:37.975Z</time></trkpt><trkpt lat="44.712559" lon="7.7605743"><ele>276.0</ele><time>2026-05-03T07:18:38.978Z</time></trkpt><trkpt lat="44.7122452" lon="7.7606657"><ele>276.0</ele><time>2026-05-03T07:18:39.972Z</time></trkpt><trkpt lat="44.7119302" lon="7.7607568"><ele>276.0</ele><time>2026-05-03T07:18:40.977Z</time></trkpt><trkpt lat="44.7116157" lon="7.7608463"><ele>276.0</ele><time>2026-05-03T07:18:41.975Z</time></trkpt><trkpt lat="44.7113008" lon="7.7609331"><ele>276.0</ele><time>2026-05-03T07:18:42.975Z</time></trkpt><trkpt lat="44.7109889" lon="7.7610232"><ele>276.0</ele><time>2026-05-03T07:18:43.978Z</time></trkpt><trkpt lat="44.7106826" lon="7.7611139"><ele>276.0</ele><time>2026-05-03T07:18:44.984Z</time></trkpt><trkpt lat="44.7103779" lon="7.7612066"><ele>277.0</ele><time>2026-05-03T07:18:45.98Z</time></trkpt><trkpt lat="44.7100744" lon="7.7612981"><ele>278.0</ele><time>2026-05-03T07:18:46.989Z</time></trkpt><trkpt lat="44.7097721" lon="7.7613833"><ele>278.0</ele><time>2026-05-03T07:18:47.986Z</time></trkpt><trkpt lat="44.7094715" lon="7.7614721"><ele>278.0</ele><time>2026-05-03T07:18:48.978Z</time></trkpt><trkpt lat="44.709171" lon="7.7615535"><ele>278.0</ele><time>2026-05-03T07:18:49.977Z</time></trkpt><trkpt lat="44.7088735" lon="7.7616415"><ele>278.0</ele><time>2026-05-03T07:18:50.977Z</time></trkpt><trkpt lat="44.7085706" lon="7.7617274"><ele>278.0</ele><time>2026-05-03T07:18:51.974Z</time></trkpt><trkpt lat="44.7082704" lon="7.761814"><ele>278.0</ele><time>2026-05-03T07:18:52.978Z</time></trkpt><trkpt lat="44.7079718" lon="7.7618986"><ele>277.5</ele><time>2026-05-03T07:18:53.984Z</time></trkpt><trkpt lat="44.7076735" lon="7.7619829"><ele>277.0</ele><time>2026-05-03T07:18:54.977Z</time></trkpt><trkpt lat="44.7073736" lon="7.7620682"><ele>277.0</ele><time>2026-05-03T07:18:55.975Z</time></trkpt><trkpt lat="44.7070713" lon="7.7621528"><ele>277.0</ele><time>2026-05-03T07:18:56.971Z</time></trkpt><trkpt lat="44.7067666" lon="7.7622387"><ele>276.5</ele><time>2026-05-03T07:18:57.974Z</time></trkpt><trkpt lat="44.706462" lon="7.762328"><ele>276.0</ele><time>2026-05-03T07:18:58.971Z</time></trkpt><trkpt lat="44.7061559" lon="7.7624118"><ele>276.5</ele><time>2026-05-03T07:18:59.978Z</time></trkpt><trkpt lat="44.7058477" lon="7.7625026"><ele>277.0</ele><time>2026-05-03T07:19:00.983Z</time></trkpt><trkpt lat="44.7055354" lon="7.7625897"><ele>278.0</ele><time>2026-05-03T07:19:01.97Z</time></trkpt><trkpt lat="44.7052246" lon="7.762678"><ele>279.0</ele><time>2026-05-03T07:19:02.976Z</time></trkpt><trkpt lat="44.7049117" lon="7.7627697"><ele>279.5</ele><time>2026-05-03T07:19:03.973Z</time></trkpt><trkpt lat="44.7045986" lon="7.7628576"><ele>280.0</ele><time>2026-05-03T07:19:04.991Z</time></trkpt><trkpt lat="44.704283" lon="7.7629492"><ele>280.0</ele><time>2026-05-03T07:19:05.975Z</time></trkpt><trkpt lat="44.7039684" lon="7.763045"><ele>280.0</ele><time>2026-05-03T07:19:06.99Z</time></trkpt><trkpt lat="44.7036552" lon="7.763135"><ele>279.5</ele><time>2026-05-03T07:19:07.981Z</time></trkpt><trkpt lat="44.7033436" lon="7.7632214"><ele>279.0</ele><time>2026-05-03T07:19:08.974Z</time></trkpt><trkpt lat="44.7030298" lon="7.7633128"><ele>279.5</ele><time>2026-05-03T07:19:09.984Z</time></trkpt><trkpt lat="44.7027169" lon="7.7634087"><ele>280.0</ele><time>2026-05-03T07:19:10.982Z</time></trkpt><trkpt lat="44.7024029" lon="7.7635002"><ele>280.0</ele><time>2026-05-03T07:19:11.973Z</time></trkpt><trkpt lat="44.7020876" lon="7.7635936"><ele>280.0</ele><time>2026-05-03T07:19:12.982Z</time></trkpt><trkpt lat="44.7017747" lon="7.763684"><ele>280.0</ele><time>2026-05-03T07:19:13.971Z</time></trkpt><trkpt lat="44.7014624" lon="7.7637759"><ele>280.0</ele><time>2026-05-03T07:19:14.969Z</time></trkpt><trkpt lat="44.7011504" lon="7.7638678"><ele>281.0</ele><time>2026-05-03T07:19:15.98Z</time></trkpt><trkpt lat="44.7008402" lon="7.7639681"><ele>282.0</ele><time>2026-05-03T07:19:16.971Z</time></trkpt><trkpt lat="44.7005288" lon="7.7640699"><ele>282.0</ele><time>2026-05-03T07:19:17.975Z</time></trkpt><trkpt lat="44.7002139" lon="7.7641688"><ele>282.0</ele><time>2026-05-03T07:19:18.974Z</time></trkpt><trkpt lat="44.6998987" lon="7.7642571"><ele>282.0</ele><time>2026-05-03T07:19:19.976Z</time></trkpt><trkpt lat="44.6995826" lon="7.7643478"><ele>282.0</ele><time>2026-05-03T07:19:20.976Z</time></trkpt><trkpt lat="44.6992662" lon="7.7644384"><ele>282.0</ele><time>2026-05-03T07:19:21.983Z</time></trkpt><trkpt lat="44.6989549" lon="7.7645259"><ele>282.0</ele><time>2026-05-03T07:19:22.972Z</time></trkpt><trkpt lat="44.6986407" lon="7.7646123"><ele>282.5</ele><time>2026-05-03T07:19:23.977Z</time></trkpt><trkpt lat="44.6983302" lon="7.7646997"><ele>283.0</ele><time>2026-05-03T07:19:24.983Z</time></trkpt><trkpt lat="44.6980272" lon="7.7647823"><ele>284.0</ele><time>2026-05-03T07:19:25.98Z</time></trkpt><trkpt lat="44.6977228" lon="7.7648694"><ele>285.0</ele><time>2026-05-03T07:19:26.976Z</time></trkpt><trkpt lat="44.6974209" lon="7.7649628"><ele>285.0</ele><time>2026-05-03T07:19:27.975Z</time></trkpt><trkpt lat="44.6971128" lon="7.7650542"><ele>285.0</ele><time>2026-05-03T07:19:28.978Z</time></trkpt><trkpt lat="44.6968105" lon="7.7651437"><ele>284.5</ele><time>2026-05-03T07:19:29.976Z</time></trkpt><trkpt lat="44.6965032" lon="7.7652314"><ele>284.0</ele><time>2026-05-03T07:19:30.978Z</time></trkpt><trkpt lat="44.6962015" lon="7.7653196"><ele>284.5</ele><time>2026-05-03T07:19:31.966Z</time></trkpt><trkpt lat="44.6958991" lon="7.7654098"><ele>285.0</ele><time>2026-05-03T07:19:32.984Z</time></trkpt><trkpt lat="44.6955909" lon="7.765502"><ele>285.0</ele><time>2026-05-03T07:19:33.974Z</time></trkpt><trkpt lat="44.6952837" lon="7.765588"><ele>285.0</ele><time>2026-05-03T07:19:34.983Z</time></trkpt><trkpt lat="44.6949757" lon="7.765676"><ele>285.0</ele><time>2026-05-03T07:19:35.983Z</time></trkpt><trkpt lat="44.6946709" lon="7.765761"><ele>285.0</ele><time>2026-05-03T07:19:36.975Z</time></trkpt><trkpt lat="44.6943609" lon="7.7658511"><ele>285.0</ele><time>2026-05-03T07:19:37.975Z</time></trkpt><trkpt lat="44.6940525" lon="7.7659361"><ele>285.0</ele><time>2026-05-03T07:19:38.976Z</time></trkpt><trkpt lat="44.6937445" lon="7.7660263"><ele>285.0</ele><time>2026-05-03T07:19:39.986Z</time></trkpt><trkpt lat="44.6934379" lon="7.7661107"><ele>285.0</ele><time>2026-05-03T07:19:40.983Z</time></trkpt><trkpt lat="44.6931283" lon="7.7661992"><ele>285.0</ele><time>2026-05-03T07:19:41.978Z</time></trkpt><trkpt lat="44.6928214" lon="7.766288"><ele>285.0</ele><time>2026-05-03T07:19:42.974Z</time></trkpt><trkpt lat="44.6925179" lon="7.7663714"><ele>285.0</ele><time>2026-05-03T07:19:43.978Z</time></trkpt><trkpt lat="44.692213" lon="7.7664545"><ele>285.0</ele><time>2026-05-03T07:19:44.979Z</time></trkpt><trkpt lat="44.6919141" lon="7.7665398"><ele>285.5</ele><time>2026-05-03T07:19:45.974Z</time></trkpt><trkpt lat="44.6916139" lon="7.7666167"><ele>286.0</ele><time>2026-05-03T07:19:46.984Z</time></trkpt><trkpt lat="44.6913135" lon="7.7666966"><ele>285.5</ele><time>2026-05-03T07:19:47.977Z</time></trkpt><trkpt lat="44.6910129" lon="7.7667767"><ele>285.0</ele><time>2026-05-03T07:19:48.968Z</time></trkpt><trkpt lat="44.690712" lon="7.7668585"><ele>285.0</ele><time>2026-05-03T07:19:49.975Z</time></trkpt><trkpt lat="44.6904096" lon="7.7669378"><ele>285.0</ele><time>2026-05-03T07:19:50.971Z</time></trkpt><trkpt lat="44.6901076" lon="7.7670246"><ele>285.0</ele><time>2026-05-03T07:19:51.986Z</time></trkpt><trkpt lat="44.68981" lon="7.7671135"><ele>285.0</ele><time>2026-05-03T07:19:52.979Z</time></trkpt><trkpt lat="44.6895116" lon="7.7672024"><ele>285.5</ele><time>2026-05-03T07:19:53.976Z</time></trkpt><trkpt lat="44.689211" lon="7.7672882"><ele>286.0</ele><time>2026-05-03T07:19:54.974Z</time></trkpt><trkpt lat="44.6889132" lon="7.7673725"><ele>286.0</ele><time>2026-05-03T07:19:55.976Z</time></trkpt><trkpt lat="44.6886131" lon="7.7674575"><ele>286.0</ele><time>2026-05-03T07:19:56.979Z</time></trkpt><trkpt lat="44.6883194" lon="7.767545"><ele>286.0</ele><time>2026-05-03T07:19:57.979Z</time></trkpt><trkpt lat="44.6880254" lon="7.7676325"><ele>286.0</ele><time>2026-05-03T07:19:58.982Z</time></trkpt><trkpt lat="44.6877311" lon="7.7677194"><ele>286.0</ele><time>2026-05-03T07:19:59.975Z</time></trkpt><trkpt lat="44.687432" lon="7.767806"><ele>286.0</ele><time>2026-05-03T07:20:00.984Z</time></trkpt><trkpt lat="44.6871328" lon="7.767892"><ele>287.0</ele><time>2026-05-03T07:20:01.976Z</time></trkpt><trkpt lat="44.6868356" lon="7.7679781"><ele>288.0</ele><time>2026-05-03T07:20:02.978Z</time></trkpt><trkpt lat="44.6865382" lon="7.7680659"><ele>288.0</ele><time>2026-05-03T07:20:03.977Z</time></trkpt><trkpt lat="44.6862421" lon="7.7681474"><ele>288.0</ele><time>2026-05-03T07:20:04.98Z</time></trkpt><trkpt lat="44.6859467" lon="7.7682319"><ele>288.0</ele><time>2026-05-03T07:20:05.985Z</time></trkpt><trkpt lat="44.6856475" lon="7.7683104"><ele>288.0</ele><time>2026-05-03T07:20:06.979Z</time></trkpt><trkpt lat="44.6853504" lon="7.768397"><ele>288.0</ele><time>2026-05-03T07:20:07.979Z</time></trkpt><trkpt lat="44.6850485" lon="7.7684857"><ele>288.0</ele><time>2026-05-03T07:20:08.98Z</time></trkpt><trkpt lat="44.6847526" lon="7.7685717"><ele>287.5</ele><time>2026-05-03T07:20:09.98Z</time></trkpt><trkpt lat="44.6844555" lon="7.7686567"><ele>287.0</ele><time>2026-05-03T07:20:10.981Z</time></trkpt><trkpt lat="44.6841591" lon="7.768745"><ele>287.0</ele><time>2026-05-03T07:20:11.986Z</time></trkpt><trkpt lat="44.683859" lon="7.7688356"><ele>287.0</ele><time>2026-05-03T07:20:12.975Z</time></trkpt><trkpt lat="44.6835603" lon="7.7689201"><ele>287.0</ele><time>2026-05-03T07:20:13.988Z</time></trkpt><trkpt lat="44.6832658" lon="7.7690048"><ele>287.0</ele><time>2026-05-03T07:20:14.972Z</time></trkpt><trkpt lat="44.68297" lon="7.7690866"><ele>286.5</ele><time>2026-05-03T07:20:15.978Z</time></trkpt><trkpt lat="44.6826744" lon="7.769171"><ele>286.0</ele><time>2026-05-03T07:20:16.984Z</time></trkpt><trkpt lat="44.6823784" lon="7.7692536"><ele>286.0</ele><time>2026-05-03T07:20:17.985Z</time></trkpt><trkpt lat="44.6820863" lon="7.7693347"><ele>286.0</ele><time>2026-05-03T07:20:18.981Z</time></trkpt><trkpt lat="44.6817932" lon="7.7694167"><ele>287.0</ele><time>2026-05-03T07:20:19.974Z</time></trkpt><trkpt lat="44.6814973" lon="7.7695031"><ele>288.0</ele><time>2026-05-03T07:20:20.969Z</time></trkpt><trkpt lat="44.6812042" lon="7.7695939"><ele>288.5</ele><time>2026-05-03T07:20:21.969Z</time></trkpt><trkpt lat="44.68091" lon="7.769681"><ele>289.0</ele><time>2026-05-03T07:20:22.979Z</time></trkpt><trkpt lat="44.680611" lon="7.7697691"><ele>289.0</ele><time>2026-05-03T07:20:23.983Z</time></trkpt><trkpt lat="44.6803101" lon="7.7698557"><ele>289.0</ele><time>2026-05-03T07:20:24.98Z</time></trkpt><trkpt lat="44.6800044" lon="7.7699396"><ele>289.5</ele><time>2026-05-03T07:20:25.981Z</time></trkpt><trkpt lat="44.6796958" lon="7.770032"><ele>290.0</ele><time>2026-05-03T07:20:26.978Z</time></trkpt><trkpt lat="44.6793916" lon="7.7701238"><ele>290.5</ele><time>2026-05-03T07:20:27.977Z</time></trkpt><trkpt lat="44.6790846" lon="7.7702179"><ele>291.0</ele><time>2026-05-03T07:20:28.981Z</time></trkpt><trkpt lat="44.6787771" lon="7.7703076"><ele>292.5</ele><time>2026-05-03T07:20:29.979Z</time></trkpt><trkpt lat="44.67847" lon="7.7703947"><ele>294.0</ele><time>2026-05-03T07:20:30.976Z</time></trkpt><trkpt lat="44.6781656" lon="7.7704841"><ele>294.0</ele><time>2026-05-03T07:20:31.984Z</time></trkpt><trkpt lat="44.6778587" lon="7.7705722"><ele>294.0</ele><time>2026-05-03T07:20:32.982Z</time></trkpt><trkpt lat="44.6775533" lon="7.7706567"><ele>292.5</ele><time>2026-05-03T07:20:33.969Z</time></trkpt><trkpt lat="44.6772469" lon="7.7707431"><ele>291.0</ele><time>2026-05-03T07:20:34.978Z</time></trkpt><trkpt lat="44.6769477" lon="7.7708236"><ele>291.0</ele><time>2026-05-03T07:20:35.976Z</time></trkpt><trkpt lat="44.6766452" lon="7.7709098"><ele>291.0</ele><time>2026-05-03T07:20:36.977Z</time></trkpt><trkpt lat="44.6763437" lon="7.7709904"><ele>292.5</ele><time>2026-05-03T07:20:37.975Z</time></trkpt><trkpt lat="44.6760413" lon="7.7710756"><ele>294.0</ele><time>2026-05-03T07:20:38.978Z</time></trkpt><trkpt lat="44.6757349" lon="7.771164"><ele>294.0</ele><time>2026-05-03T07:20:39.97Z</time></trkpt><trkpt lat="44.6754292" lon="7.7712557"><ele>294.0</ele><time>2026-05-03T07:20:40.98Z</time></trkpt><trkpt lat="44.6751241" lon="7.7713439"><ele>293.5</ele><time>2026-05-03T07:20:41.975Z</time></trkpt><trkpt lat="44.6748188" lon="7.7714323"><ele>293.0</ele><time>2026-05-03T07:20:42.971Z</time></trkpt><trkpt lat="44.6745104" lon="7.7715186"><ele>293.5</ele><time>2026-05-03T07:20:43.977Z</time></trkpt><trkpt lat="44.6741966" lon="7.7716067"><ele>294.0</ele><time>2026-05-03T07:20:44.981Z</time></trkpt><trkpt lat="44.6738835" lon="7.7716951"><ele>293.5</ele><time>2026-05-03T07:20:45.972Z</time></trkpt><trkpt lat="44.6735698" lon="7.7717859"><ele>293.0</ele><time>2026-05-03T07:20:46.974Z</time></trkpt><trkpt lat="44.6732512" lon="7.7718776"><ele>293.0</ele><time>2026-05-03T07:20:47.976Z</time></trkpt><trkpt lat="44.672938" lon="7.7719698"><ele>293.0</ele><time>2026-05-03T07:20:48.988Z</time></trkpt><trkpt lat="44.6726238" lon="7.77206"><ele>293.5</ele><time>2026-05-03T07:20:49.971Z</time></trkpt><trkpt lat="44.6723084" lon="7.7721539"><ele>294.0</ele><time>2026-05-03T07:20:50.98Z</time></trkpt><trkpt lat="44.671992" lon="7.7722462"><ele>294.0</ele><time>2026-05-03T07:20:51.969Z</time></trkpt><trkpt lat="44.6716761" lon="7.7723317"><ele>294.0</ele><time>2026-05-03T07:20:52.975Z</time></trkpt><trkpt lat="44.6713617" lon="7.772421"><ele>295.5</ele><time>2026-05-03T07:20:53.98Z</time></trkpt><trkpt lat="44.6710452" lon="7.7725099"><ele>297.0</ele><time>2026-05-03T07:20:54.968Z</time></trkpt><trkpt lat="44.6707316" lon="7.7725971"><ele>297.0</ele><time>2026-05-03T07:20:55.971Z</time></trkpt><trkpt lat="44.6704154" lon="7.7726837"><ele>297.0</ele><time>2026-05-03T07:20:56.994Z</time></trkpt><trkpt lat="44.6700993" lon="7.7727698"><ele>295.0</ele><time>2026-05-03T07:20:57.981Z</time></trkpt><trkpt lat="44.6697868" lon="7.7728568"><ele>293.0</ele><time>2026-05-03T07:20:58.973Z</time></trkpt><trkpt lat="44.6694742" lon="7.7729437"><ele>294.0</ele><time>2026-05-03T07:20:59.971Z</time></trkpt><trkpt lat="44.6691631" lon="7.7730406"><ele>295.0</ele><time>2026-05-03T07:21:00.982Z</time></trkpt><trkpt lat="44.6688469" lon="7.7731308"><ele>295.5</ele><time>2026-05-03T07:21:01.976Z</time></trkpt><trkpt lat="44.6685306" lon="7.7732197"><ele>296.0</ele><time>2026-05-03T07:21:02.983Z</time></trkpt><trkpt lat="44.6682132" lon="7.7733113"><ele>296.0</ele><time>2026-05-03T07:21:03.978Z</time></trkpt><trkpt lat="44.6679007" lon="7.7734044"><ele>296.0</ele><time>2026-05-03T07:21:04.971Z</time></trkpt><trkpt lat="44.6675859" lon="7.7735003"><ele>295.5</ele><time>2026-05-03T07:21:05.971Z</time></trkpt><trkpt lat="44.6672744" lon="7.7735922"><ele>295.0</ele><time>2026-05-03T07:21:06.973Z</time></trkpt><trkpt lat="44.6669641" lon="7.7736787"><ele>296.0</ele><time>2026-05-03T07:21:07.977Z</time></trkpt><trkpt lat="44.6666488" lon="7.7737674"><ele>297.0</ele><time>2026-05-03T07:21:08.975Z</time></trkpt><trkpt lat="44.6663359" lon="7.773859"><ele>298.0</ele><time>2026-05-03T07:21:09.975Z</time></trkpt><trkpt lat="44.6660241" lon="7.7739497"><ele>299.0</ele><time>2026-05-03T07:21:10.986Z</time></trkpt><trkpt lat="44.6657106" lon="7.7740422"><ele>299.0</ele><time>2026-05-03T07:21:11.977Z</time></trkpt><trkpt lat="44.6653966" lon="7.7741336"><ele>299.0</ele><time>2026-05-03T07:21:12.976Z</time></trkpt><trkpt lat="44.6650889" lon="7.7742284"><ele>299.0</ele><time>2026-05-03T07:21:13.976Z</time></trkpt><trkpt lat="44.6647787" lon="7.7743143"><ele>299.0</ele><time>2026-05-03T07:21:14.976Z</time></trkpt><trkpt lat="44.6644662" lon="7.774398"><ele>300.5</ele><time>2026-05-03T07:21:15.982Z</time></trkpt><trkpt lat="44.6641539" lon="7.7744825"><ele>302.0</ele><time>2026-05-03T07:21:16.985Z</time></trkpt><trkpt lat="44.6638431" lon="7.7745682"><ele>300.0</ele><time>2026-05-03T07:21:17.968Z</time></trkpt><trkpt lat="44.6635345" lon="7.774659"><ele>298.0</ele><time>2026-05-03T07:21:18.978Z</time></trkpt><trkpt lat="44.6632239" lon="7.7747515"><ele>298.0</ele><time>2026-05-03T07:21:19.98Z</time></trkpt><trkpt lat="44.6629188" lon="7.774839"><ele>298.0</ele><time>2026-05-03T07:21:20.973Z</time></trkpt><trkpt lat="44.6626108" lon="7.7749287"><ele>298.5</ele><time>2026-05-03T07:21:21.982Z</time></trkpt><trkpt lat="44.6623003" lon="7.7750178"><ele>299.0</ele><time>2026-05-03T07:21:22.97Z</time></trkpt><trkpt lat="44.6619985" lon="7.77511"><ele>300.0</ele><time>2026-05-03T07:21:23.982Z</time></trkpt><trkpt lat="44.6616854" lon="7.7751974"><ele>301.0</ele><time>2026-05-03T07:21:24.973Z</time></trkpt><trkpt lat="44.6613741" lon="7.7752851"><ele>300.0</ele><time>2026-05-03T07:21:25.965Z</time></trkpt><trkpt lat="44.6610655" lon="7.7753744"><ele>299.0</ele><time>2026-05-03T07:21:26.975Z</time></trkpt><trkpt lat="44.6607558" lon="7.7754722"><ele>299.0</ele><time>2026-05-03T07:21:27.975Z</time></trkpt><trkpt lat="44.6604468" lon="7.7755731"><ele>299.0</ele><time>2026-05-03T07:21:28.981Z</time></trkpt><trkpt lat="44.6601362" lon="7.77567"><ele>299.5</ele><time>2026-05-03T07:21:29.979Z</time></trkpt><trkpt lat="44.6598244" lon="7.7757682"><ele>300.0</ele><time>2026-05-03T07:21:30.974Z</time></trkpt><trkpt lat="44.6595146" lon="7.7758627"><ele>300.5</ele><time>2026-05-03T07:21:31.983Z</time></trkpt><trkpt lat="44.6592047" lon="7.7759567"><ele>301.0</ele><time>2026-05-03T07:21:32.981Z</time></trkpt><trkpt lat="44.6588873" lon="7.7760461"><ele>302.0</ele><time>2026-05-03T07:21:33.988Z</time></trkpt><trkpt lat="44.6585725" lon="7.7761356"><ele>303.0</ele><time>2026-05-03T07:21:34.978Z</time></trkpt><trkpt lat="44.6582564" lon="7.77623"><ele>303.0</ele><time>2026-05-03T07:21:35.973Z</time></trkpt><trkpt lat="44.6579376" lon="7.7763249"><ele>303.0</ele><time>2026-05-03T07:21:36.979Z</time></trkpt><trkpt lat="44.6576208" lon="7.7764192"><ele>303.5</ele><time>2026-05-03T07:21:37.974Z</time></trkpt><trkpt lat="44.6573058" lon="7.7765086"><ele>304.0</ele><time>2026-05-03T07:21:38.976Z</time></trkpt><trkpt lat="44.6569883" lon="7.7765954"><ele>304.0</ele><time>2026-05-03T07:21:39.977Z</time></trkpt><trkpt lat="44.6566708" lon="7.7766868"><ele>304.0</ele><time>2026-05-03T07:21:40.974Z</time></trkpt><trkpt lat="44.6563553" lon="7.7767746"><ele>302.0</ele><time>2026-05-03T07:21:41.975Z</time></trkpt><trkpt lat="44.6560419" lon="7.77686"><ele>300.0</ele><time>2026-05-03T07:21:42.975Z</time></trkpt><trkpt lat="44.6557285" lon="7.7769515"><ele>300.0</ele><time>2026-05-03T07:21:43.973Z</time></trkpt><trkpt lat="44.6554183" lon="7.7770388"><ele>300.0</ele><time>2026-05-03T07:21:44.967Z</time></trkpt><trkpt lat="44.6551064" lon="7.7771275"><ele>301.0</ele><time>2026-05-03T07:21:45.967Z</time></trkpt><trkpt lat="44.6547943" lon="7.7772127"><ele>302.0</ele><time>2026-05-03T07:21:46.978Z</time></trkpt><trkpt lat="44.6544817" lon="7.7772943"><ele>302.0</ele><time>2026-05-03T07:21:47.973Z</time></trkpt><trkpt lat="44.6541687" lon="7.7773771"><ele>302.0</ele><time>2026-05-03T07:21:48.974Z</time></trkpt><trkpt lat="44.6538567" lon="7.7774654"><ele>303.0</ele><time>2026-05-03T07:21:49.977Z</time></trkpt><trkpt lat="44.6535467" lon="7.7775508"><ele>304.0</ele><time>2026-05-03T07:21:50.983Z</time></trkpt><trkpt lat="44.6532368" lon="7.7776402"><ele>303.5</ele><time>2026-05-03T07:21:51.974Z</time></trkpt><trkpt lat="44.6529222" lon="7.777725"><ele>303.0</ele><time>2026-05-03T07:21:52.971Z</time></trkpt><trkpt lat="44.6526043" lon="7.7778062"><ele>303.0</ele><time>2026-05-03T07:21:53.973Z</time></trkpt><trkpt lat="44.6522936" lon="7.7778888"><ele>303.0</ele><time>2026-05-03T07:21:54.977Z</time></trkpt><trkpt lat="44.6519869" lon="7.7779692"><ele>304.5</ele><time>2026-05-03T07:21:55.981Z</time></trkpt><trkpt lat="44.6516828" lon="7.7780431"><ele>306.0</ele><time>2026-05-03T07:21:56.976Z</time></trkpt><trkpt lat="44.6513754" lon="7.7781184"><ele>306.0</ele><time>2026-05-03T07:21:57.972Z</time></trkpt><trkpt lat="44.6510723" lon="7.7781884"><ele>306.0</ele><time>2026-05-03T07:21:58.973Z</time></trkpt><trkpt lat="44.6507691" lon="7.7782492"><ele>306.0</ele><time>2026-05-03T07:21:59.966Z</time></trkpt><trkpt lat="44.6504638" lon="7.7783151"><ele>306.0</ele><time>2026-05-03T07:22:00.971Z</time></trkpt><trkpt lat="44.6501615" lon="7.778379"><ele>305.5</ele><time>2026-05-03T07:22:01.975Z</time></trkpt><trkpt lat="44.6498643" lon="7.7784371"><ele>305.0</ele><time>2026-05-03T07:22:02.979Z</time></trkpt><trkpt lat="44.6495624" lon="7.7784901"><ele>305.0</ele><time>2026-05-03T07:22:03.982Z</time></trkpt><trkpt lat="44.64926" lon="7.7785398"><ele>305.0</ele><time>2026-05-03T07:22:04.972Z</time></trkpt><trkpt lat="44.6489615" lon="7.7785846"><ele>305.0</ele><time>2026-05-03T07:22:05.973Z</time></trkpt><trkpt lat="44.6486612" lon="7.7786316"><ele>305.0</ele><time>2026-05-03T07:22:06.976Z</time></trkpt><trkpt lat="44.6483622" lon="7.7786709"><ele>306.5</ele><time>2026-05-03T07:22:07.973Z</time></trkpt><trkpt lat="44.6480624" lon="7.7787125"><ele>308.0</ele><time>2026-05-03T07:22:08.982Z</time></trkpt><trkpt lat="44.6477621" lon="7.7787477"><ele>308.0</ele><time>2026-05-03T07:22:09.969Z</time></trkpt><trkpt lat="44.6474582" lon="7.7787785"><ele>308.0</ele><time>2026-05-03T07:22:10.972Z</time></trkpt><trkpt lat="44.6471538" lon="7.7788105"><ele>308.0</ele><time>2026-05-03T07:22:11.989Z</time></trkpt><trkpt lat="44.6468492" lon="7.7788418"><ele>308.0</ele><time>2026-05-03T07:22:12.975Z</time></trkpt><trkpt lat="44.646544" lon="7.7788661"><ele>308.0</ele><time>2026-05-03T07:22:13.976Z</time></trkpt><trkpt lat="44.6462356" lon="7.77889"><ele>308.0</ele><time>2026-05-03T07:22:14.973Z</time></trkpt><trkpt lat="44.6459251" lon="7.7789154"><ele>307.5</ele><time>2026-05-03T07:22:15.978Z</time></trkpt><trkpt lat="44.6456167" lon="7.7789356"><ele>307.0</ele><time>2026-05-03T07:22:16.973Z</time></trkpt><trkpt lat="44.6453011" lon="7.7789525"><ele>307.0</ele><time>2026-05-03T07:22:17.967Z</time></trkpt><trkpt lat="44.6449878" lon="7.7789656"><ele>307.0</ele><time>2026-05-03T07:22:18.974Z</time></trkpt><trkpt lat="44.6446736" lon="7.7789715"><ele>306.5</ele><time>2026-05-03T07:22:19.976Z</time></trkpt><trkpt lat="44.6443631" lon="7.778977"><ele>306.0</ele><time>2026-05-03T07:22:20.972Z</time></trkpt><trkpt lat="44.6440498" lon="7.7789768"><ele>306.0</ele><time>2026-05-03T07:22:21.979Z</time></trkpt><trkpt lat="44.6437379" lon="7.7789779"><ele>306.0</ele><time>2026-05-03T07:22:22.968Z</time></trkpt><trkpt lat="44.6434243" lon="7.7789725"><ele>306.0</ele><time>2026-05-03T07:22:23.974Z</time></trkpt><trkpt lat="44.6431091" lon="7.7789633"><ele>306.0</ele><time>2026-05-03T07:22:24.976Z</time></trkpt><trkpt lat="44.642794" lon="7.7789475"><ele>306.0</ele><time>2026-05-03T07:22:25.979Z</time></trkpt><trkpt lat="44.642479" lon="7.7789363"><ele>306.0</ele><time>2026-05-03T07:22:26.991Z</time></trkpt><trkpt lat="44.642161" lon="7.7789195"><ele>307.5</ele><time>2026-05-03T07:22:27.972Z</time></trkpt><trkpt lat="44.6418413" lon="7.7788995"><ele>309.0</ele><time>2026-05-03T07:22:28.969Z</time></trkpt><trkpt lat="44.6415247" lon="7.7788758"><ele>309.0</ele><time>2026-05-03T07:22:29.975Z</time></trkpt><trkpt lat="44.6412059" lon="7.778848"><ele>309.0</ele><time>2026-05-03T07:22:30.968Z</time></trkpt><trkpt lat="44.6408835" lon="7.7788179"><ele>308.5</ele><time>2026-05-03T07:22:31.97Z</time></trkpt><trkpt lat="44.6405646" lon="7.7787833"><ele>308.0</ele><time>2026-05-03T07:22:32.965Z</time></trkpt><trkpt lat="44.6402403" lon="7.7787464"><ele>307.5</ele><time>2026-05-03T07:22:33.974Z</time></trkpt><trkpt lat="44.6399159" lon="7.7787075"><ele>307.0</ele><time>2026-05-03T07:22:34.977Z</time></trkpt><trkpt lat="44.6395939" lon="7.7786584"><ele>308.0</ele><time>2026-05-03T07:22:35.967Z</time></trkpt><trkpt lat="44.6392703" lon="7.7786107"><ele>309.0</ele><time>2026-05-03T07:22:36.974Z</time></trkpt><trkpt lat="44.6389436" lon="7.7785587"><ele>308.5</ele><time>2026-05-03T07:22:37.981Z</time></trkpt><trkpt lat="44.6386156" lon="7.778511"><ele>308.0</ele><time>2026-05-03T07:22:38.974Z</time></trkpt><trkpt lat="44.6382881" lon="7.7784561"><ele>308.0</ele><time>2026-05-03T07:22:39.975Z</time></trkpt><trkpt lat="44.6379612" lon="7.7783944"><ele>308.0</ele><time>2026-05-03T07:22:40.965Z</time></trkpt><trkpt lat="44.6376367" lon="7.7783299"><ele>309.0</ele><time>2026-05-03T07:22:41.961Z</time></trkpt><trkpt lat="44.6373067" lon="7.7782574"><ele>310.0</ele><time>2026-05-03T07:22:42.968Z</time></trkpt><trkpt lat="44.636975" lon="7.7781871"><ele>309.5</ele><time>2026-05-03T07:22:43.962Z</time></trkpt><trkpt lat="44.6366435" lon="7.7781171"><ele>309.0</ele><time>2026-05-03T07:22:44.98Z</time></trkpt><trkpt lat="44.6363129" lon="7.7780521"><ele>310.0</ele><time>2026-05-03T07:22:45.964Z</time></trkpt><trkpt lat="44.6359764" lon="7.7779895"><ele>311.0</ele><time>2026-05-03T07:22:46.962Z</time></trkpt><trkpt lat="44.6356447" lon="7.7779106"><ele>311.0</ele><time>2026-05-03T07:22:47.958Z</time></trkpt><trkpt lat="44.6353072" lon="7.7778258"><ele>311.0</ele><time>2026-05-03T07:22:48.979Z</time></trkpt><trkpt lat="44.6349744" lon="7.7777347"><ele>310.5</ele><time>2026-05-03T07:22:49.965Z</time></trkpt><trkpt lat="44.6346402" lon="7.7776409"><ele>310.0</ele><time>2026-05-03T07:22:50.963Z</time></trkpt><trkpt lat="44.6343058" lon="7.7775338"><ele>310.0</ele><time>2026-05-03T07:22:51.979Z</time></trkpt><trkpt lat="44.6339727" lon="7.7774288"><ele>310.0</ele><time>2026-05-03T07:22:52.963Z</time></trkpt><trkpt lat="44.6336422" lon="7.7773208"><ele>310.5</ele><time>2026-05-03T07:22:53.968Z</time></trkpt><trkpt lat="44.6333156" lon="7.7772106"><ele>311.0</ele><time>2026-05-03T07:22:54.962Z</time></trkpt><trkpt lat="44.6329862" lon="7.7770921"><ele>311.0</ele><time>2026-05-03T07:22:55.97Z</time></trkpt><trkpt lat="44.6326602" lon="7.776973"><ele>311.0</ele><time>2026-05-03T07:22:56.968Z</time></trkpt><trkpt lat="44.6323376" lon="7.7768522"><ele>311.0</ele><time>2026-05-03T07:22:57.969Z</time></trkpt><trkpt lat="44.6320134" lon="7.7767325"><ele>311.0</ele><time>2026-05-03T07:22:58.974Z</time></trkpt><trkpt lat="44.6316891" lon="7.7766022"><ele>311.5</ele><time>2026-05-03T07:22:59.967Z</time></trkpt><trkpt lat="44.6313651" lon="7.7764671"><ele>312.0</ele><time>2026-05-03T07:23:00.963Z</time></trkpt><trkpt lat="44.6310445" lon="7.7763299"><ele>312.0</ele><time>2026-05-03T07:23:01.96Z</time></trkpt><trkpt lat="44.6307271" lon="7.7761828"><ele>312.0</ele><time>2026-05-03T07:23:02.974Z</time></trkpt><trkpt lat="44.630409" lon="7.7760321"><ele>312.0</ele><time>2026-05-03T07:23:03.959Z</time></trkpt><trkpt lat="44.6300903" lon="7.7758823"><ele>312.0</ele><time>2026-05-03T07:23:04.969Z</time></trkpt><trkpt lat="44.6297733" lon="7.7757343"><ele>312.0</ele><time>2026-05-03T07:23:05.958Z</time></trkpt><trkpt lat="44.6294597" lon="7.7755883"><ele>312.0</ele><time>2026-05-03T07:23:06.972Z</time></trkpt><trkpt lat="44.6291421" lon="7.7754343"><ele>312.0</ele><time>2026-05-03T07:23:07.959Z</time></trkpt><trkpt lat="44.6288308" lon="7.7752853"><ele>312.0</ele><time>2026-05-03T07:23:08.96Z</time></trkpt><trkpt lat="44.62852" lon="7.7751351"><ele>313.0</ele><time>2026-05-03T07:23:09.97Z</time></trkpt><trkpt lat="44.6282088" lon="7.7749828"><ele>314.0</ele><time>2026-05-03T07:23:10.962Z</time></trkpt><trkpt lat="44.6279051" lon="7.7748244"><ele>313.0</ele><time>2026-05-03T07:23:11.954Z</time></trkpt><trkpt lat="44.6272987" lon="7.7744979"><ele>313.5</ele><time>2026-05-03T07:23:13.967Z</time></trkpt><trkpt lat="44.6270017" lon="7.7743273"><ele>314.0</ele><time>2026-05-03T07:23:14.956Z</time></trkpt><trkpt lat="44.6267046" lon="7.7741514"><ele>314.0</ele><time>2026-05-03T07:23:15.964Z</time></trkpt><trkpt lat="44.6264066" lon="7.7739659"><ele>314.0</ele><time>2026-05-03T07:23:16.98Z</time></trkpt><trkpt lat="44.6261116" lon="7.7737794"><ele>314.0</ele><time>2026-05-03T07:23:17.958Z</time></trkpt><trkpt lat="44.6258099" lon="7.7735968"><ele>314.0</ele><time>2026-05-03T07:23:18.962Z</time></trkpt><trkpt lat="44.6255064" lon="7.7734117"><ele>315.0</ele><time>2026-05-03T07:23:19.968Z</time></trkpt><trkpt lat="44.6252046" lon="7.773225"><ele>316.0</ele><time>2026-05-03T07:23:20.97Z</time></trkpt><trkpt lat="44.6248996" lon="7.7730344"><ele>316.0</ele><time>2026-05-03T07:23:21.958Z</time></trkpt><trkpt lat="44.6245952" lon="7.7728415"><ele>316.0</ele><time>2026-05-03T07:23:22.961Z</time></trkpt><trkpt lat="44.624298" lon="7.7726484"><ele>316.0</ele><time>2026-05-03T07:23:23.963Z</time></trkpt><trkpt lat="44.6240098" lon="7.7724506"><ele>316.0</ele><time>2026-05-03T07:23:24.986Z</time></trkpt><trkpt lat="44.6237172" lon="7.7722598"><ele>316.0</ele><time>2026-05-03T07:23:25.96Z</time></trkpt><trkpt lat="44.6234285" lon="7.7720722"><ele>316.0</ele><time>2026-05-03T07:23:26.973Z</time></trkpt><trkpt lat="44.6231407" lon="7.7718861"><ele>315.5</ele><time>2026-05-03T07:23:27.986Z</time></trkpt><trkpt lat="44.6228507" lon="7.7716955"><ele>315.0</ele><time>2026-05-03T07:23:28.968Z</time></trkpt><trkpt lat="44.6225622" lon="7.771501"><ele>315.0</ele><time>2026-05-03T07:23:29.975Z</time></trkpt><trkpt lat="44.6222689" lon="7.7713097"><ele>315.0</ele><time>2026-05-03T07:23:30.973Z</time></trkpt><trkpt lat="44.621974" lon="7.7711156"><ele>315.0</ele><time>2026-05-03T07:23:31.969Z</time></trkpt><trkpt lat="44.6216824" lon="7.7709231"><ele>315.0</ele><time>2026-05-03T07:23:32.963Z</time></trkpt><trkpt lat="44.6213942" lon="7.7707224"><ele>314.5</ele><time>2026-05-03T07:23:33.974Z</time></trkpt><trkpt lat="44.6211008" lon="7.7705292"><ele>314.0</ele><time>2026-05-03T07:23:34.987Z</time></trkpt><trkpt lat="44.620808" lon="7.7703405"><ele>314.5</ele><time>2026-05-03T07:23:35.972Z</time></trkpt><trkpt lat="44.6205151" lon="7.7701558"><ele>315.0</ele><time>2026-05-03T07:23:36.973Z</time></trkpt><trkpt lat="44.6202254" lon="7.7699697"><ele>315.5</ele><time>2026-05-03T07:23:37.958Z</time></trkpt><trkpt lat="44.619937" lon="7.7697766"><ele>316.0</ele><time>2026-05-03T07:23:38.963Z</time></trkpt><trkpt lat="44.6196493" lon="7.7695869"><ele>316.0</ele><time>2026-05-03T07:23:39.958Z</time></trkpt><trkpt lat="44.6193585" lon="7.7693988"><ele>316.0</ele><time>2026-05-03T07:23:40.969Z</time></trkpt><trkpt lat="44.6190703" lon="7.7692131"><ele>316.5</ele><time>2026-05-03T07:23:41.98Z</time></trkpt><trkpt lat="44.6187824" lon="7.769027"><ele>317.0</ele><time>2026-05-03T07:23:42.973Z</time></trkpt><trkpt lat="44.6184962" lon="7.7688419"><ele>317.5</ele><time>2026-05-03T07:23:43.964Z</time></trkpt><trkpt lat="44.6182098" lon="7.7686525"><ele>318.0</ele><time>2026-05-03T07:23:44.97Z</time></trkpt><trkpt lat="44.6179181" lon="7.7684669"><ele>318.5</ele><time>2026-05-03T07:23:45.962Z</time></trkpt><trkpt lat="44.6176325" lon="7.7682857"><ele>319.0</ele><time>2026-05-03T07:23:46.963Z</time></trkpt><trkpt lat="44.6173486" lon="7.7681066"><ele>319.0</ele><time>2026-05-03T07:23:47.959Z</time></trkpt><trkpt lat="44.6170679" lon="7.7679223"><ele>319.0</ele><time>2026-05-03T07:23:48.969Z</time></trkpt><trkpt lat="44.6167856" lon="7.767738"><ele>318.5</ele><time>2026-05-03T07:23:49.96Z</time></trkpt><trkpt lat="44.6165078" lon="7.7675512"><ele>318.0</ele><time>2026-05-03T07:23:50.965Z</time></trkpt><trkpt lat="44.6162265" lon="7.7673682"><ele>318.0</ele><time>2026-05-03T07:23:51.963Z</time></trkpt><trkpt lat="44.6159459" lon="7.7671851"><ele>318.0</ele><time>2026-05-03T07:23:52.968Z</time></trkpt><trkpt lat="44.6156658" lon="7.7670104"><ele>317.5</ele><time>2026-05-03T07:23:53.976Z</time></trkpt><trkpt lat="44.6153866" lon="7.7668319"><ele>317.0</ele><time>2026-05-03T07:23:54.962Z</time></trkpt><trkpt lat="44.6151083" lon="7.766654"><ele>318.5</ele><time>2026-05-03T07:23:55.966Z</time></trkpt><trkpt lat="44.6148289" lon="7.7664703"><ele>320.0</ele><time>2026-05-03T07:23:56.965Z</time></trkpt><trkpt lat="44.6145487" lon="7.7662889"><ele>320.0</ele><time>2026-05-03T07:23:57.963Z</time></trkpt><trkpt lat="44.6142695" lon="7.7661081"><ele>320.0</ele><time>2026-05-03T07:23:58.965Z</time></trkpt><trkpt lat="44.6139898" lon="7.7659251"><ele>320.0</ele><time>2026-05-03T07:23:59.969Z</time></trkpt><trkpt lat="44.6137113" lon="7.7657448"><ele>320.0</ele><time>2026-05-03T07:24:00.973Z</time></trkpt><trkpt lat="44.6134263" lon="7.7655652"><ele>319.5</ele><time>2026-05-03T07:24:01.976Z</time></trkpt><trkpt lat="44.6131454" lon="7.7653869"><ele>319.0</ele><time>2026-05-03T07:24:02.973Z</time></trkpt><trkpt lat="44.6128682" lon="7.7651993"><ele>320.0</ele><time>2026-05-03T07:24:03.967Z</time></trkpt><trkpt lat="44.612592" lon="7.7650171"><ele>321.0</ele><time>2026-05-03T07:24:04.976Z</time></trkpt><trkpt lat="44.612312" lon="7.7648419"><ele>321.0</ele><time>2026-05-03T07:24:05.977Z</time></trkpt><trkpt lat="44.6120242" lon="7.7646565"><ele>321.0</ele><time>2026-05-03T07:24:06.972Z</time></trkpt><trkpt lat="44.6117406" lon="7.7644719"><ele>321.0</ele><time>2026-05-03T07:24:07.969Z</time></trkpt><trkpt lat="44.6114578" lon="7.7642889"><ele>321.0</ele><time>2026-05-03T07:24:08.97Z</time></trkpt><trkpt lat="44.6111747" lon="7.7641039"><ele>321.5</ele><time>2026-05-03T07:24:09.976Z</time></trkpt><trkpt lat="44.6108897" lon="7.7639188"><ele>322.0</ele><time>2026-05-03T07:24:10.977Z</time></trkpt><trkpt lat="44.6106045" lon="7.763739"><ele>322.0</ele><time>2026-05-03T07:24:11.978Z</time></trkpt><trkpt lat="44.6103166" lon="7.7635646"><ele>322.0</ele><time>2026-05-03T07:24:12.976Z</time></trkpt><trkpt lat="44.6100286" lon="7.7633934"><ele>322.0</ele><time>2026-05-03T07:24:13.97Z</time></trkpt><trkpt lat="44.6097337" lon="7.7632349"><ele>322.0</ele><time>2026-05-03T07:24:14.976Z</time></trkpt><trkpt lat="44.6094374" lon="7.7630795"><ele>322.0</ele><time>2026-05-03T07:24:15.977Z</time></trkpt><trkpt lat="44.6091392" lon="7.7629236"><ele>322.0</ele><time>2026-05-03T07:24:16.977Z</time></trkpt><trkpt lat="44.6088432" lon="7.7627765"><ele>322.0</ele><time>2026-05-03T07:24:17.976Z</time></trkpt><trkpt lat="44.6085426" lon="7.7626383"><ele>322.0</ele><time>2026-05-03T07:24:18.983Z</time></trkpt><trkpt lat="44.6082433" lon="7.7625005"><ele>322.0</ele><time>2026-05-03T07:24:19.974Z</time></trkpt><trkpt lat="44.6079467" lon="7.7623648"><ele>322.0</ele><time>2026-05-03T07:24:20.976Z</time></trkpt><trkpt lat="44.6076474" lon="7.7622309"><ele>323.5</ele><time>2026-05-03T07:24:21.971Z</time></trkpt><trkpt lat="44.6073477" lon="7.7621074"><ele>325.0</ele><time>2026-05-03T07:24:22.976Z</time></trkpt><trkpt lat="44.6070458" lon="7.761979"><ele>323.5</ele><time>2026-05-03T07:24:23.969Z</time></trkpt><trkpt lat="44.6067401" lon="7.7618655"><ele>322.0</ele><time>2026-05-03T07:24:24.969Z</time></trkpt><trkpt lat="44.6064356" lon="7.7617573"><ele>322.0</ele><time>2026-05-03T07:24:25.979Z</time></trkpt><trkpt lat="44.6061282" lon="7.7616592"><ele>322.0</ele><time>2026-05-03T07:24:26.971Z</time></trkpt><trkpt lat="44.6058239" lon="7.7615589"><ele>322.0</ele><time>2026-05-03T07:24:27.979Z</time></trkpt><trkpt lat="44.6055143" lon="7.76146"><ele>322.0</ele><time>2026-05-03T07:24:29Z</time></trkpt><trkpt lat="44.6052076" lon="7.7613738"><ele>322.0</ele><time>2026-05-03T07:24:29.966Z</time></trkpt><trkpt lat="44.6049009" lon="7.7612916"><ele>322.0</ele><time>2026-05-03T07:24:30.979Z</time></trkpt><trkpt lat="44.6045928" lon="7.7612104"><ele>323.5</ele><time>2026-05-03T07:24:31.969Z</time></trkpt><trkpt lat="44.6042846" lon="7.7611316"><ele>325.0</ele><time>2026-05-03T07:24:32.976Z</time></trkpt><trkpt lat="44.6039767" lon="7.7610615"><ele>325.0</ele><time>2026-05-03T07:24:33.969Z</time></trkpt><trkpt lat="44.6036662" lon="7.7609948"><ele>325.0</ele><time>2026-05-03T07:24:34.976Z</time></trkpt><trkpt lat="44.6033559" lon="7.7609314"><ele>324.5</ele><time>2026-05-03T07:24:35.965Z</time></trkpt><trkpt lat="44.6030484" lon="7.7608768"><ele>324.0</ele><time>2026-05-03T07:24:36.981Z</time></trkpt><trkpt lat="44.6027358" lon="7.7608342"><ele>324.0</ele><time>2026-05-03T07:24:37.973Z</time></trkpt><trkpt lat="44.6024169" lon="7.7607987"><ele>324.0</ele><time>2026-05-03T07:24:38.974Z</time></trkpt><trkpt lat="44.6020953" lon="7.7607697"><ele>324.5</ele><time>2026-05-03T07:24:39.969Z</time></trkpt><trkpt lat="44.6017736" lon="7.7607482"><ele>325.0</ele><time>2026-05-03T07:24:40.971Z</time></trkpt><trkpt lat="44.601447" lon="7.7607284"><ele>324.5</ele><time>2026-05-03T07:24:41.973Z</time></trkpt><trkpt lat="44.6011166" lon="7.7607001"><ele>324.0</ele><time>2026-05-03T07:24:42.971Z</time></trkpt><trkpt lat="44.6007815" lon="7.7606778"><ele>324.0</ele><time>2026-05-03T07:24:43.971Z</time></trkpt><trkpt lat="44.6004434" lon="7.7606684"><ele>324.0</ele><time>2026-05-03T07:24:44.971Z</time></trkpt><trkpt lat="44.6001051" lon="7.7606637"><ele>325.0</ele><time>2026-05-03T07:24:45.966Z</time></trkpt><trkpt lat="44.5997632" lon="7.7606625"><ele>326.0</ele><time>2026-05-03T07:24:46.972Z</time></trkpt><trkpt lat="44.5994204" lon="7.7606653"><ele>327.5</ele><time>2026-05-03T07:24:47.97Z</time></trkpt><trkpt lat="44.5990789" lon="7.760676"><ele>329.0</ele><time>2026-05-03T07:24:48.971Z</time></trkpt><trkpt lat="44.5987376" lon="7.7606933"><ele>329.5</ele><time>2026-05-03T07:24:49.968Z</time></trkpt><trkpt lat="44.5984008" lon="7.7606951"><ele>330.0</ele><time>2026-05-03T07:24:50.972Z</time></trkpt><trkpt lat="44.5980659" lon="7.7607259"><ele>328.5</ele><time>2026-05-03T07:24:51.975Z</time></trkpt><trkpt lat="44.5977351" lon="7.7607596"><ele>327.0</ele><time>2026-05-03T07:24:52.963Z</time></trkpt><trkpt lat="44.5974003" lon="7.7607922"><ele>327.0</ele><time>2026-05-03T07:24:53.979Z</time></trkpt><trkpt lat="44.5970683" lon="7.7608237"><ele>327.0</ele><time>2026-05-03T07:24:54.977Z</time></trkpt><trkpt lat="44.5967374" lon="7.760868"><ele>327.0</ele><time>2026-05-03T07:24:55.973Z</time></trkpt><trkpt lat="44.5964125" lon="7.760925"><ele>327.0</ele><time>2026-05-03T07:24:56.969Z</time></trkpt><trkpt lat="44.5960933" lon="7.7609822"><ele>327.0</ele><time>2026-05-03T07:24:57.974Z</time></trkpt><trkpt lat="44.5957758" lon="7.7610453"><ele>327.0</ele><time>2026-05-03T07:24:58.977Z</time></trkpt><trkpt lat="44.5954629" lon="7.7611121"><ele>326.5</ele><time>2026-05-03T07:24:59.971Z</time></trkpt><trkpt lat="44.5951538" lon="7.7611889"><ele>326.0</ele><time>2026-05-03T07:25:00.978Z</time></trkpt><trkpt lat="44.5948487" lon="7.7612626"><ele>326.0</ele><time>2026-05-03T07:25:01.97Z</time></trkpt><trkpt lat="44.5945469" lon="7.7613416"><ele>326.0</ele><time>2026-05-03T07:25:02.97Z</time></trkpt><trkpt lat="44.5942494" lon="7.7614282"><ele>327.0</ele><time>2026-05-03T07:25:03.98Z</time></trkpt><trkpt lat="44.5939545" lon="7.7615197"><ele>328.0</ele><time>2026-05-03T07:25:04.966Z</time></trkpt><trkpt lat="44.5936591" lon="7.7616128"><ele>328.0</ele><time>2026-05-03T07:25:05.975Z</time></trkpt><trkpt lat="44.5933632" lon="7.7617128"><ele>328.0</ele><time>2026-05-03T07:25:06.972Z</time></trkpt><trkpt lat="44.5930713" lon="7.7618153"><ele>329.0</ele><time>2026-05-03T07:25:07.971Z</time></trkpt><trkpt lat="44.5927838" lon="7.7619221"><ele>330.0</ele><time>2026-05-03T07:25:08.974Z</time></trkpt><trkpt lat="44.5924942" lon="7.7620365"><ele>330.0</ele><time>2026-05-03T07:25:09.976Z</time></trkpt><trkpt lat="44.5922031" lon="7.7621556"><ele>330.0</ele><time>2026-05-03T07:25:10.971Z</time></trkpt><trkpt lat="44.5919137" lon="7.7622711"><ele>329.0</ele><time>2026-05-03T07:25:11.987Z</time></trkpt><trkpt lat="44.5916214" lon="7.7623937"><ele>328.0</ele><time>2026-05-03T07:25:12.978Z</time></trkpt><trkpt lat="44.5913315" lon="7.7625218"><ele>328.0</ele><time>2026-05-03T07:25:13.974Z</time></trkpt><trkpt lat="44.5910386" lon="7.7626531"><ele>328.0</ele><time>2026-05-03T07:25:14.975Z</time></trkpt><trkpt lat="44.5907414" lon="7.7627943"><ele>328.0</ele><time>2026-05-03T07:25:15.971Z</time></trkpt><trkpt lat="44.5904491" lon="7.7629449"><ele>328.0</ele><time>2026-05-03T07:25:16.978Z</time></trkpt><trkpt lat="44.5901544" lon="7.7631061"><ele>328.0</ele><time>2026-05-03T07:25:17.979Z</time></trkpt><trkpt lat="44.5898609" lon="7.7632721"><ele>328.0</ele><time>2026-05-03T07:25:18.974Z</time></trkpt><trkpt lat="44.5895665" lon="7.7634433"><ele>328.5</ele><time>2026-05-03T07:25:19.968Z</time></trkpt><trkpt lat="44.5892703" lon="7.7636104"><ele>329.0</ele><time>2026-05-03T07:25:20.969Z</time></trkpt><trkpt lat="44.5889772" lon="7.7637857"><ele>329.0</ele><time>2026-05-03T07:25:21.979Z</time></trkpt><trkpt lat="44.5886878" lon="7.7639632"><ele>329.0</ele><time>2026-05-03T07:25:22.977Z</time></trkpt><trkpt lat="44.5883992" lon="7.7641504"><ele>329.0</ele><time>2026-05-03T07:25:23.978Z</time></trkpt><trkpt lat="44.5881103" lon="7.7643456"><ele>329.0</ele><time>2026-05-03T07:25:24.977Z</time></trkpt><trkpt lat="44.5878211" lon="7.7645413"><ele>324.0</ele><time>2026-05-03T07:25:25.98Z</time></trkpt><trkpt lat="44.5875309" lon="7.7647299"><ele>319.0</ele><time>2026-05-03T07:25:26.977Z</time></trkpt><trkpt lat="44.5872432" lon="7.7649202"><ele>314.0</ele><time>2026-05-03T07:25:27.964Z</time></trkpt><trkpt lat="44.5869571" lon="7.7651154"><ele>309.0</ele><time>2026-05-03T07:25:28.961Z</time></trkpt><trkpt lat="44.5866695" lon="7.7653134"><ele>306.5</ele><time>2026-05-03T07:25:29.963Z</time></trkpt><trkpt lat="44.5863799" lon="7.7655134"><ele>304.0</ele><time>2026-05-03T07:25:30.974Z</time></trkpt><trkpt lat="44.5860945" lon="7.7657097"><ele>302.0</ele><time>2026-05-03T07:25:31.976Z</time></trkpt><trkpt lat="44.5858085" lon="7.7659054"><ele>300.0</ele><time>2026-05-03T07:25:32.967Z</time></trkpt><trkpt lat="44.5855259" lon="7.7661018"><ele>297.0</ele><time>2026-05-03T07:25:33.973Z</time></trkpt><trkpt lat="44.5852453" lon="7.766292"><ele>294.0</ele><time>2026-05-03T07:25:34.969Z</time></trkpt><trkpt lat="44.5849642" lon="7.7664841"><ele>294.0</ele><time>2026-05-03T07:25:35.963Z</time></trkpt><trkpt lat="44.5846801" lon="7.7666804"><ele>294.0</ele><time>2026-05-03T07:25:36.976Z</time></trkpt><trkpt lat="44.5843993" lon="7.7668752"><ele>291.5</ele><time>2026-05-03T07:25:37.973Z</time></trkpt><trkpt lat="44.5841206" lon="7.7670685"><ele>289.0</ele><time>2026-05-03T07:25:38.976Z</time></trkpt><trkpt lat="44.5838421" lon="7.7672628"><ele>288.5</ele><time>2026-05-03T07:25:39.972Z</time></trkpt><trkpt lat="44.5835691" lon="7.7674521"><ele>288.0</ele><time>2026-05-03T07:25:40.975Z</time></trkpt><trkpt lat="44.5832918" lon="7.7676395"><ele>288.5</ele><time>2026-05-03T07:25:41.965Z</time></trkpt><trkpt lat="44.5830219" lon="7.7678262"><ele>289.0</ele><time>2026-05-03T07:25:42.968Z</time></trkpt><trkpt lat="44.582755" lon="7.7680126"><ele>291.5</ele><time>2026-05-03T07:25:43.975Z</time></trkpt><trkpt lat="44.5824849" lon="7.7681988"><ele>294.0</ele><time>2026-05-03T07:25:44.975Z</time></trkpt><trkpt lat="44.5822213" lon="7.7683857"><ele>290.5</ele><time>2026-05-03T07:25:45.981Z</time></trkpt><trkpt lat="44.5819533" lon="7.7685614"><ele>287.0</ele><time>2026-05-03T07:25:46.976Z</time></trkpt><trkpt lat="44.58169" lon="7.7687418"><ele>287.0</ele><time>2026-05-03T07:25:47.97Z</time></trkpt><trkpt lat="44.5814311" lon="7.7689242"><ele>287.0</ele><time>2026-05-03T07:25:48.973Z</time></trkpt><trkpt lat="44.5811711" lon="7.7691093"><ele>285.5</ele><time>2026-05-03T07:25:49.976Z</time></trkpt><trkpt lat="44.5809129" lon="7.7692957"><ele>284.0</ele><time>2026-05-03T07:25:50.976Z</time></trkpt><trkpt lat="44.58065" lon="7.7694803"><ele>284.0</ele><time>2026-05-03T07:25:51.973Z</time></trkpt><trkpt lat="44.5803865" lon="7.7696599"><ele>284.0</ele><time>2026-05-03T07:25:52.978Z</time></trkpt><trkpt lat="44.5801187" lon="7.7698423"><ele>284.0</ele><time>2026-05-03T07:25:53.979Z</time></trkpt><trkpt lat="44.5798507" lon="7.7700229"><ele>284.0</ele><time>2026-05-03T07:25:54.983Z</time></trkpt><trkpt lat="44.5795794" lon="7.7702033"><ele>279.0</ele><time>2026-05-03T07:25:55.975Z</time></trkpt><trkpt lat="44.5793099" lon="7.7703898"><ele>274.0</ele><time>2026-05-03T07:25:56.968Z</time></trkpt><trkpt lat="44.5790387" lon="7.7705843"><ele>274.0</ele><time>2026-05-03T07:25:57.972Z</time></trkpt><trkpt lat="44.5787624" lon="7.7707812"><ele>274.0</ele><time>2026-05-03T07:25:58.973Z</time></trkpt><trkpt lat="44.5784869" lon="7.7709726"><ele>271.5</ele><time>2026-05-03T07:25:59.974Z</time></trkpt><trkpt lat="44.578208" lon="7.7711678"><ele>269.0</ele><time>2026-05-03T07:26:00.976Z</time></trkpt><trkpt lat="44.5779239" lon="7.7713607"><ele>269.5</ele><time>2026-05-03T07:26:01.983Z</time></trkpt><trkpt lat="44.5776426" lon="7.7715523"><ele>270.0</ele><time>2026-05-03T07:26:02.975Z</time></trkpt><trkpt lat="44.5773632" lon="7.771743"><ele>270.0</ele><time>2026-05-03T07:26:03.975Z</time></trkpt><trkpt lat="44.5770849" lon="7.7719352"><ele>270.0</ele><time>2026-05-03T07:26:04.974Z</time></trkpt><trkpt lat="44.5768053" lon="7.7721262"><ele>270.0</ele><time>2026-05-03T07:26:05.978Z</time></trkpt><trkpt lat="44.5765254" lon="7.7723235"><ele>270.0</ele><time>2026-05-03T07:26:06.974Z</time></trkpt><trkpt lat="44.5762445" lon="7.7725178"><ele>268.5</ele><time>2026-05-03T07:26:07.977Z</time></trkpt><trkpt lat="44.5759661" lon="7.772718"><ele>267.0</ele><time>2026-05-03T07:26:08.972Z</time></trkpt><trkpt lat="44.5756858" lon="7.7729113"><ele>267.0</ele><time>2026-05-03T07:26:09.973Z</time></trkpt><trkpt lat="44.5754093" lon="7.7731118"><ele>267.0</ele><time>2026-05-03T07:26:10.974Z</time></trkpt><trkpt lat="44.575127" lon="7.7733071"><ele>269.0</ele><time>2026-05-03T07:26:11.981Z</time></trkpt><trkpt lat="44.5748452" lon="7.7734983"><ele>271.0</ele><time>2026-05-03T07:26:12.975Z</time></trkpt><trkpt lat="44.574567" lon="7.7736881"><ele>274.5</ele><time>2026-05-03T07:26:13.973Z</time></trkpt><trkpt lat="44.5742874" lon="7.7738787"><ele>278.0</ele><time>2026-05-03T07:26:14.978Z</time></trkpt><trkpt lat="44.5740074" lon="7.7740696"><ele>278.0</ele><time>2026-05-03T07:26:15.978Z</time></trkpt><trkpt lat="44.5737248" lon="7.7742643"><ele>278.0</ele><time>2026-05-03T07:26:16.974Z</time></trkpt><trkpt lat="44.5734433" lon="7.774458"><ele>281.5</ele><time>2026-05-03T07:26:17.985Z</time></trkpt><trkpt lat="44.5731642" lon="7.7746466"><ele>285.0</ele><time>2026-05-03T07:26:18.974Z</time></trkpt><trkpt lat="44.5728852" lon="7.7748391"><ele>288.5</ele><time>2026-05-03T07:26:19.973Z</time></trkpt><trkpt lat="44.5726052" lon="7.7750308"><ele>292.0</ele><time>2026-05-03T07:26:20.976Z</time></trkpt><trkpt lat="44.5723228" lon="7.7752243"><ele>292.0</ele><time>2026-05-03T07:26:21.976Z</time></trkpt><trkpt lat="44.5720454" lon="7.7754164"><ele>292.0</ele><time>2026-05-03T07:26:22.98Z</time></trkpt><trkpt lat="44.571766" lon="7.7756102"><ele>299.0</ele><time>2026-05-03T07:26:23.979Z</time></trkpt><trkpt lat="44.5714879" lon="7.7758093"><ele>306.0</ele><time>2026-05-03T07:26:24.972Z</time></trkpt><trkpt lat="44.5712051" lon="7.7760058"><ele>315.5</ele><time>2026-05-03T07:26:25.979Z</time></trkpt><trkpt lat="44.5709217" lon="7.7761998"><ele>325.0</ele><time>2026-05-03T07:26:26.978Z</time></trkpt><trkpt lat="44.5706371" lon="7.7763995"><ele>331.0</ele><time>2026-05-03T07:26:27.975Z</time></trkpt><trkpt lat="44.5703508" lon="7.776596"><ele>337.0</ele><time>2026-05-03T07:26:28.976Z</time></trkpt><trkpt lat="44.5700635" lon="7.7767998"><ele>340.5</ele><time>2026-05-03T07:26:29.979Z</time></trkpt><trkpt lat="44.5697725" lon="7.7770008"><ele>344.0</ele><time>2026-05-03T07:26:30.975Z</time></trkpt><trkpt lat="44.5694828" lon="7.7772031"><ele>347.0</ele><time>2026-05-03T07:26:31.975Z</time></trkpt><trkpt lat="44.5691855" lon="7.7774045"><ele>350.0</ele><time>2026-05-03T07:26:32.977Z</time></trkpt><trkpt lat="44.5688917" lon="7.7776085"><ele>357.0</ele><time>2026-05-03T07:26:33.976Z</time></trkpt><trkpt lat="44.5685966" lon="7.7778102"><ele>364.0</ele><time>2026-05-03T07:26:34.97Z</time></trkpt><trkpt lat="44.5682991" lon="7.7780124"><ele>364.0</ele><time>2026-05-03T07:26:35.97Z</time></trkpt><trkpt lat="44.5680016" lon="7.7782212"><ele>364.0</ele><time>2026-05-03T07:26:36.983Z</time></trkpt><trkpt lat="44.5677013" lon="7.7784315"><ele>363.5</ele><time>2026-05-03T07:26:37.971Z</time></trkpt><trkpt lat="44.5673989" lon="7.7786446"><ele>363.0</ele><time>2026-05-03T07:26:38.978Z</time></trkpt><trkpt lat="44.5670979" lon="7.7788516"><ele>365.5</ele><time>2026-05-03T07:26:39.971Z</time></trkpt><trkpt lat="44.5667955" lon="7.7790578"><ele>368.0</ele><time>2026-05-03T07:26:40.976Z</time></trkpt><trkpt lat="44.5664919" lon="7.7792663"><ele>369.5</ele><time>2026-05-03T07:26:41.977Z</time></trkpt><trkpt lat="44.5661893" lon="7.7794784"><ele>371.0</ele><time>2026-05-03T07:26:42.97Z</time></trkpt><trkpt lat="44.5658858" lon="7.7796882"><ele>371.0</ele><time>2026-05-03T07:26:43.985Z</time></trkpt><trkpt lat="44.5655865" lon="7.7798927"><ele>371.0</ele><time>2026-05-03T07:26:44.971Z</time></trkpt><trkpt lat="44.5652879" lon="7.7800973"><ele>377.5</ele><time>2026-05-03T07:26:45.979Z</time></trkpt><trkpt lat="44.564985" lon="7.7803027"><ele>384.0</ele><time>2026-05-03T07:26:46.976Z</time></trkpt><trkpt lat="44.5646811" lon="7.7805078"><ele>385.5</ele><time>2026-05-03T07:26:47.975Z</time></trkpt><trkpt lat="44.56438" lon="7.7807117"><ele>387.0</ele><time>2026-05-03T07:26:48.974Z</time></trkpt><trkpt lat="44.5640824" lon="7.7809073"><ele>388.0</ele><time>2026-05-03T07:26:49.975Z</time></trkpt><trkpt lat="44.5637739" lon="7.7811031"><ele>389.0</ele><time>2026-05-03T07:26:50.975Z</time></trkpt><trkpt lat="44.5634601" lon="7.7812894"><ele>389.0</ele><time>2026-05-03T07:26:51.973Z</time></trkpt><trkpt lat="44.5631435" lon="7.7814718"><ele>389.0</ele><time>2026-05-03T07:26:52.973Z</time></trkpt><trkpt lat="44.5628234" lon="7.781646"><ele>389.5</ele><time>2026-05-03T07:26:53.967Z</time></trkpt><trkpt lat="44.5625019" lon="7.7818123"><ele>390.0</ele><time>2026-05-03T07:26:54.976Z</time></trkpt><trkpt lat="44.5621736" lon="7.7819668"><ele>390.5</ele><time>2026-05-03T07:26:55.971Z</time></trkpt><trkpt lat="44.5618482" lon="7.7821182"><ele>391.0</ele><time>2026-05-03T07:26:56.974Z</time></trkpt><trkpt lat="44.5615196" lon="7.7822654"><ele>391.0</ele><time>2026-05-03T07:26:57.971Z</time></trkpt><trkpt lat="44.5611946" lon="7.7824039"><ele>391.0</ele><time>2026-05-03T07:26:58.977Z</time></trkpt><trkpt lat="44.5608648" lon="7.7825367"><ele>391.0</ele><time>2026-05-03T07:26:59.978Z</time></trkpt><trkpt lat="44.5605322" lon="7.7826592"><ele>391.0</ele><time>2026-05-03T07:27:00.979Z</time></trkpt><trkpt lat="44.5601997" lon="7.7827803"><ele>392.0</ele><time>2026-05-03T07:27:01.967Z</time></trkpt><trkpt lat="44.5598635" lon="7.7828912"><ele>393.0</ele><time>2026-05-03T07:27:02.964Z</time></trkpt><trkpt lat="44.5595309" lon="7.7829941"><ele>394.0</ele><time>2026-05-03T07:27:03.972Z</time></trkpt><trkpt lat="44.559194" lon="7.7830825"><ele>395.0</ele><time>2026-05-03T07:27:04.976Z</time></trkpt><trkpt lat="44.5588596" lon="7.7831699"><ele>395.5</ele><time>2026-05-03T07:27:05.971Z</time></trkpt><trkpt lat="44.5585212" lon="7.7832506"><ele>396.0</ele><time>2026-05-03T07:27:06.981Z</time></trkpt><trkpt lat="44.558187" lon="7.7833226"><ele>395.5</ele><time>2026-05-03T07:27:07.969Z</time></trkpt><trkpt lat="44.557852" lon="7.7833887"><ele>395.0</ele><time>2026-05-03T07:27:08.971Z</time></trkpt><trkpt lat="44.5575205" lon="7.7834526"><ele>395.0</ele><time>2026-05-03T07:27:09.971Z</time></trkpt><trkpt lat="44.5571863" lon="7.7835146"><ele>395.0</ele><time>2026-05-03T07:27:10.977Z</time></trkpt><trkpt lat="44.5568544" lon="7.7835794"><ele>395.5</ele><time>2026-05-03T07:27:11.976Z</time></trkpt><trkpt lat="44.5565274" lon="7.7836435"><ele>396.0</ele><time>2026-05-03T07:27:12.974Z</time></trkpt><trkpt lat="44.5562013" lon="7.7837074"><ele>396.0</ele><time>2026-05-03T07:27:13.971Z</time></trkpt><trkpt lat="44.5558762" lon="7.7837675"><ele>396.0</ele><time>2026-05-03T07:27:14.976Z</time></trkpt><trkpt lat="44.5555517" lon="7.7838255"><ele>396.5</ele><time>2026-05-03T07:27:15.972Z</time></trkpt><trkpt lat="44.5552252" lon="7.7838877"><ele>397.0</ele><time>2026-05-03T07:27:16.981Z</time></trkpt><trkpt lat="44.5548965" lon="7.7839514"><ele>397.0</ele><time>2026-05-03T07:27:17.97Z</time></trkpt><trkpt lat="44.5545692" lon="7.7840118"><ele>397.0</ele><time>2026-05-03T07:27:18.979Z</time></trkpt><trkpt lat="44.5542387" lon="7.7840777"><ele>396.0</ele><time>2026-05-03T07:27:19.978Z</time></trkpt><trkpt lat="44.5539053" lon="7.7841422"><ele>395.0</ele><time>2026-05-03T07:27:20.971Z</time></trkpt><trkpt lat="44.553573" lon="7.7842022"><ele>394.0</ele><time>2026-05-03T07:27:21.97Z</time></trkpt><trkpt lat="44.5532434" lon="7.7842648"><ele>393.0</ele><time>2026-05-03T07:27:22.98Z</time></trkpt><trkpt lat="44.5529115" lon="7.7843237"><ele>393.0</ele><time>2026-05-03T07:27:23.971Z</time></trkpt><trkpt lat="44.552579" lon="7.7843858"><ele>393.0</ele><time>2026-05-03T07:27:24.973Z</time></trkpt><trkpt lat="44.5522459" lon="7.7844565"><ele>394.0</ele><time>2026-05-03T07:27:25.972Z</time></trkpt><trkpt lat="44.551911" lon="7.7845233"><ele>395.0</ele><time>2026-05-03T07:27:26.978Z</time></trkpt><trkpt lat="44.5515782" lon="7.7845849"><ele>395.0</ele><time>2026-05-03T07:27:27.965Z</time></trkpt><trkpt lat="44.5512465" lon="7.7846468"><ele>395.0</ele><time>2026-05-03T07:27:28.966Z</time></trkpt><trkpt lat="44.5509165" lon="7.7847126"><ele>395.0</ele><time>2026-05-03T07:27:29.969Z</time></trkpt><trkpt lat="44.5505859" lon="7.784781"><ele>395.0</ele><time>2026-05-03T07:27:30.98Z</time></trkpt><trkpt lat="44.5502539" lon="7.7848476"><ele>396.0</ele><time>2026-05-03T07:27:31.974Z</time></trkpt><trkpt lat="44.5499237" lon="7.7849113"><ele>397.0</ele><time>2026-05-03T07:27:32.98Z</time></trkpt><trkpt lat="44.5495915" lon="7.7849738"><ele>398.0</ele><time>2026-05-03T07:27:33.982Z</time></trkpt><trkpt lat="44.5492569" lon="7.7850396"><ele>399.0</ele><time>2026-05-03T07:27:34.969Z</time></trkpt><trkpt lat="44.5489226" lon="7.7851026"><ele>399.0</ele><time>2026-05-03T07:27:35.982Z</time></trkpt><trkpt lat="44.5485911" lon="7.7851647"><ele>399.0</ele><time>2026-05-03T07:27:36.971Z</time></trkpt><trkpt lat="44.5482599" lon="7.7852259"><ele>399.0</ele><time>2026-05-03T07:27:37.976Z</time></trkpt><trkpt lat="44.5479236" lon="7.7852843"><ele>399.0</ele><time>2026-05-03T07:27:38.984Z</time></trkpt><trkpt lat="44.5475902" lon="7.7853468"><ele>399.5</ele><time>2026-05-03T07:27:39.975Z</time></trkpt><trkpt lat="44.5472541" lon="7.7854117"><ele>400.0</ele><time>2026-05-03T07:27:40.966Z</time></trkpt><trkpt lat="44.5469191" lon="7.7854764"><ele>400.5</ele><time>2026-05-03T07:27:41.97Z</time></trkpt><trkpt lat="44.5465848" lon="7.7855431"><ele>401.0</ele><time>2026-05-03T07:27:42.98Z</time></trkpt><trkpt lat="44.5462492" lon="7.7856075"><ele>400.0</ele><time>2026-05-03T07:27:43.974Z</time></trkpt><trkpt lat="44.5459164" lon="7.7856744"><ele>399.0</ele><time>2026-05-03T07:27:44.974Z</time></trkpt><trkpt lat="44.5455838" lon="7.7857334"><ele>398.5</ele><time>2026-05-03T07:27:45.979Z</time></trkpt><trkpt lat="44.5452543" lon="7.7857967"><ele>398.0</ele><time>2026-05-03T07:27:46.983Z</time></trkpt><trkpt lat="44.544928" lon="7.7858594"><ele>398.0</ele><time>2026-05-03T07:27:47.981Z</time></trkpt><trkpt lat="44.5445986" lon="7.7859259"><ele>398.0</ele><time>2026-05-03T07:27:48.985Z</time></trkpt><trkpt lat="44.5442667" lon="7.7859939"><ele>399.0</ele><time>2026-05-03T07:27:49.98Z</time></trkpt><trkpt lat="44.5439406" lon="7.7860623"><ele>400.0</ele><time>2026-05-03T07:27:50.978Z</time></trkpt><trkpt lat="44.5436163" lon="7.7861413"><ele>400.0</ele><time>2026-05-03T07:27:51.971Z</time></trkpt><trkpt lat="44.5432905" lon="7.7862361"><ele>400.0</ele><time>2026-05-03T07:27:52.973Z</time></trkpt><trkpt lat="44.5429638" lon="7.7863286"><ele>400.5</ele><time>2026-05-03T07:27:53.978Z</time></trkpt><trkpt lat="44.5426339" lon="7.7864251"><ele>401.0</ele><time>2026-05-03T07:27:54.977Z</time></trkpt><trkpt lat="44.5423058" lon="7.7865222"><ele>401.0</ele><time>2026-05-03T07:27:55.971Z</time></trkpt><trkpt lat="44.5419811" lon="7.7866209"><ele>401.0</ele><time>2026-05-03T07:27:56.975Z</time></trkpt><trkpt lat="44.5416593" lon="7.7867278"><ele>401.0</ele><time>2026-05-03T07:27:57.979Z</time></trkpt><trkpt lat="44.5413397" lon="7.7868357"><ele>401.0</ele><time>2026-05-03T07:27:58.974Z</time></trkpt><trkpt lat="44.5410198" lon="7.7869562"><ele>400.5</ele><time>2026-05-03T07:27:59.989Z</time></trkpt><trkpt lat="44.5407012" lon="7.7870662"><ele>400.0</ele><time>2026-05-03T07:28:00.979Z</time></trkpt><trkpt lat="44.540381" lon="7.7871873"><ele>401.0</ele><time>2026-05-03T07:28:01.968Z</time></trkpt><trkpt lat="44.5400678" lon="7.7873131"><ele>402.0</ele><time>2026-05-03T07:28:02.969Z</time></trkpt><trkpt lat="44.5397469" lon="7.7874372"><ele>402.5</ele><time>2026-05-03T07:28:03.972Z</time></trkpt><trkpt lat="44.5394306" lon="7.7875653"><ele>403.0</ele><time>2026-05-03T07:28:04.973Z</time></trkpt><trkpt lat="44.5391152" lon="7.7876947"><ele>403.5</ele><time>2026-05-03T07:28:05.971Z</time></trkpt><trkpt lat="44.5387985" lon="7.787835"><ele>404.0</ele><time>2026-05-03T07:28:06.972Z</time></trkpt><trkpt lat="44.5384882" lon="7.7879859"><ele>403.0</ele><time>2026-05-03T07:28:07.979Z</time></trkpt><trkpt lat="44.5381829" lon="7.7881402"><ele>402.0</ele><time>2026-05-03T07:28:08.972Z</time></trkpt><trkpt lat="44.5378764" lon="7.7882921"><ele>402.0</ele><time>2026-05-03T07:28:09.979Z</time></trkpt><trkpt lat="44.5375712" lon="7.7884477"><ele>402.0</ele><time>2026-05-03T07:28:10.977Z</time></trkpt><trkpt lat="44.5372663" lon="7.7886024"><ele>401.5</ele><time>2026-05-03T07:28:11.968Z</time></trkpt><trkpt lat="44.5369655" lon="7.7887622"><ele>401.0</ele><time>2026-05-03T07:28:12.975Z</time></trkpt><trkpt lat="44.5366641" lon="7.7889264"><ele>401.0</ele><time>2026-05-03T07:28:13.974Z</time></trkpt><trkpt lat="44.5363676" lon="7.7890895"><ele>401.0</ele><time>2026-05-03T07:28:14.979Z</time></trkpt><trkpt lat="44.5360693" lon="7.7892619"><ele>401.5</ele><time>2026-05-03T07:28:15.97Z</time></trkpt><trkpt lat="44.5357711" lon="7.7894323"><ele>402.0</ele><time>2026-05-03T07:28:16.976Z</time></trkpt><trkpt lat="44.5354694" lon="7.7896001"><ele>401.5</ele><time>2026-05-03T07:28:17.972Z</time></trkpt><trkpt lat="44.5351684" lon="7.7897684"><ele>401.0</ele><time>2026-05-03T07:28:18.991Z</time></trkpt><trkpt lat="44.5348703" lon="7.7899346"><ele>401.0</ele><time>2026-05-03T07:28:19.975Z</time></trkpt><trkpt lat="44.534577" lon="7.7900975"><ele>401.0</ele><time>2026-05-03T07:28:20.98Z</time></trkpt><trkpt lat="44.5342855" lon="7.7902617"><ele>401.5</ele><time>2026-05-03T07:28:21.974Z</time></trkpt><trkpt lat="44.5339908" lon="7.7904291"><ele>402.0</ele><time>2026-05-03T07:28:22.97Z</time></trkpt><trkpt lat="44.5336994" lon="7.7906006"><ele>403.5</ele><time>2026-05-03T07:28:23.973Z</time></trkpt><trkpt lat="44.533408" lon="7.7907686"><ele>405.0</ele><time>2026-05-03T07:28:24.978Z</time></trkpt><trkpt lat="44.5331146" lon="7.7909351"><ele>404.0</ele><time>2026-05-03T07:28:25.971Z</time></trkpt><trkpt lat="44.5328184" lon="7.79111"><ele>403.0</ele><time>2026-05-03T07:28:26.974Z</time></trkpt><trkpt lat="44.5325261" lon="7.7912801"><ele>403.0</ele><time>2026-05-03T07:28:27.977Z</time></trkpt><trkpt lat="44.5322332" lon="7.7914543"><ele>403.0</ele><time>2026-05-03T07:28:28.975Z</time></trkpt><trkpt lat="44.531943" lon="7.7916223"><ele>403.0</ele><time>2026-05-03T07:28:29.973Z</time></trkpt><trkpt lat="44.5316491" lon="7.791793"><ele>403.0</ele><time>2026-05-03T07:28:30.975Z</time></trkpt><trkpt lat="44.5313559" lon="7.7919666"><ele>395.0</ele><time>2026-05-03T07:28:31.972Z</time></trkpt><trkpt lat="44.5310569" lon="7.792137"><ele>387.0</ele><time>2026-05-03T07:28:32.972Z</time></trkpt><trkpt lat="44.530758" lon="7.7923135"><ele>387.0</ele><time>2026-05-03T07:28:33.965Z</time></trkpt><trkpt lat="44.5304572" lon="7.7924868"><ele>387.0</ele><time>2026-05-03T07:28:34.97Z</time></trkpt><trkpt lat="44.530155" lon="7.7926584"><ele>376.0</ele><time>2026-05-03T07:28:35.975Z</time></trkpt><trkpt lat="44.5298595" lon="7.7928327"><ele>365.0</ele><time>2026-05-03T07:28:36.977Z</time></trkpt><trkpt lat="44.5295648" lon="7.793007"><ele>364.5</ele><time>2026-05-03T07:28:37.969Z</time></trkpt><trkpt lat="44.5292658" lon="7.7931879"><ele>364.0</ele><time>2026-05-03T07:28:38.969Z</time></trkpt><trkpt lat="44.5289647" lon="7.793371"><ele>362.5</ele><time>2026-05-03T07:28:39.97Z</time></trkpt><trkpt lat="44.528661" lon="7.7935538"><ele>361.0</ele><time>2026-05-03T07:28:40.973Z</time></trkpt><trkpt lat="44.5283536" lon="7.7937387"><ele>361.0</ele><time>2026-05-03T07:28:41.972Z</time></trkpt><trkpt lat="44.5280408" lon="7.7939235"><ele>361.0</ele><time>2026-05-03T07:28:42.984Z</time></trkpt><trkpt lat="44.5277252" lon="7.7941036"><ele>361.5</ele><time>2026-05-03T07:28:43.968Z</time></trkpt><trkpt lat="44.527407" lon="7.7942832"><ele>362.0</ele><time>2026-05-03T07:28:44.979Z</time></trkpt><trkpt lat="44.5270921" lon="7.7944701"><ele>362.0</ele><time>2026-05-03T07:28:45.99Z</time></trkpt><trkpt lat="44.5267769" lon="7.7946543"><ele>362.0</ele><time>2026-05-03T07:28:46.971Z</time></trkpt><trkpt lat="44.5264615" lon="7.794839"><ele>361.5</ele><time>2026-05-03T07:28:47.965Z</time></trkpt><trkpt lat="44.5261435" lon="7.7950235"><ele>361.0</ele><time>2026-05-03T07:28:48.976Z</time></trkpt><trkpt lat="44.5258336" lon="7.7952096"><ele>361.0</ele><time>2026-05-03T07:28:49.968Z</time></trkpt><trkpt lat="44.5255151" lon="7.7953937"><ele>361.0</ele><time>2026-05-03T07:28:50.977Z</time></trkpt><trkpt lat="44.5251928" lon="7.7955745"><ele>362.5</ele><time>2026-05-03T07:28:51.976Z</time></trkpt><trkpt lat="44.5248724" lon="7.795761"><ele>364.0</ele><time>2026-05-03T07:28:52.967Z</time></trkpt><trkpt lat="44.5245534" lon="7.7959459"><ele>363.5</ele><time>2026-05-03T07:28:53.972Z</time></trkpt><trkpt lat="44.5242342" lon="7.7961252"><ele>363.0</ele><time>2026-05-03T07:28:54.971Z</time></trkpt><trkpt lat="44.5239125" lon="7.7963071"><ele>363.5</ele><time>2026-05-03T07:28:55.971Z</time></trkpt><trkpt lat="44.5235884" lon="7.7964912"><ele>364.0</ele><time>2026-05-03T07:28:56.972Z</time></trkpt><trkpt lat="44.5232668" lon="7.7966791"><ele>363.5</ele><time>2026-05-03T07:28:57.972Z</time></trkpt><trkpt lat="44.5229437" lon="7.7968647"><ele>363.0</ele><time>2026-05-03T07:28:58.98Z</time></trkpt><trkpt lat="44.5226199" lon="7.7970527"><ele>363.0</ele><time>2026-05-03T07:28:59.977Z</time></trkpt><trkpt lat="44.5222963" lon="7.7972362"><ele>363.0</ele><time>2026-05-03T07:29:00.982Z</time></trkpt><trkpt lat="44.5219724" lon="7.7974259"><ele>363.0</ele><time>2026-05-03T07:29:01.97Z</time></trkpt><trkpt lat="44.5216425" lon="7.7976114"><ele>363.0</ele><time>2026-05-03T07:29:02.969Z</time></trkpt><trkpt lat="44.5213147" lon="7.7977985"><ele>362.5</ele><time>2026-05-03T07:29:03.968Z</time></trkpt><trkpt lat="44.5209801" lon="7.7979999"><ele>362.0</ele><time>2026-05-03T07:29:04.977Z</time></trkpt><trkpt lat="44.5206317" lon="7.7981995"><ele>362.0</ele><time>2026-05-03T07:29:05.972Z</time></trkpt><trkpt lat="44.5202764" lon="7.7984025"><ele>362.0</ele><time>2026-05-03T07:29:06.988Z</time></trkpt><trkpt lat="44.5199143" lon="7.7986121"><ele>362.0</ele><time>2026-05-03T07:29:07.985Z</time></trkpt><trkpt lat="44.519552" lon="7.7988229"><ele>362.0</ele><time>2026-05-03T07:29:08.974Z</time></trkpt><trkpt lat="44.5191873" lon="7.7990326"><ele>362.0</ele><time>2026-05-03T07:29:09.968Z</time></trkpt><trkpt lat="44.5188229" lon="7.7992394"><ele>362.0</ele><time>2026-05-03T07:29:10.975Z</time></trkpt><trkpt lat="44.5184605" lon="7.799445"><ele>363.0</ele><time>2026-05-03T07:29:11.97Z</time></trkpt><trkpt lat="44.5180941" lon="7.7996637"><ele>364.0</ele><time>2026-05-03T07:29:12.973Z</time></trkpt><trkpt lat="44.5177305" lon="7.7998771"><ele>364.0</ele><time>2026-05-03T07:29:13.983Z</time></trkpt><trkpt lat="44.5173618" lon="7.8000856"><ele>364.0</ele><time>2026-05-03T07:29:14.963Z</time></trkpt><trkpt lat="44.5169997" lon="7.8002893"><ele>364.0</ele><time>2026-05-03T07:29:15.965Z</time></trkpt><trkpt lat="44.5166353" lon="7.8004961"><ele>364.0</ele><time>2026-05-03T07:29:16.966Z</time></trkpt><trkpt lat="44.516272" lon="7.8007037"><ele>363.0</ele><time>2026-05-03T07:29:17.964Z</time></trkpt><trkpt lat="44.5159142" lon="7.8009111"><ele>362.0</ele><time>2026-05-03T07:29:18.984Z</time></trkpt><trkpt lat="44.5155598" lon="7.801118"><ele>362.0</ele><time>2026-05-03T07:29:19.973Z</time></trkpt><trkpt lat="44.515208" lon="7.8013192"><ele>362.0</ele><time>2026-05-03T07:29:20.974Z</time></trkpt><trkpt lat="44.5148572" lon="7.8015196"><ele>362.0</ele><time>2026-05-03T07:29:21.976Z</time></trkpt><trkpt lat="44.5145123" lon="7.8017214"><ele>362.0</ele><time>2026-05-03T07:29:22.971Z</time></trkpt><trkpt lat="44.5141678" lon="7.8019274"><ele>362.0</ele><time>2026-05-03T07:29:23.975Z</time></trkpt><trkpt lat="44.5138273" lon="7.8021243"><ele>362.0</ele><time>2026-05-03T07:29:24.975Z</time></trkpt><trkpt lat="44.5134894" lon="7.8023232"><ele>361.5</ele><time>2026-05-03T07:29:25.977Z</time></trkpt><trkpt lat="44.5131613" lon="7.8025152"><ele>361.0</ele><time>2026-05-03T07:29:26.977Z</time></trkpt><trkpt lat="44.5128346" lon="7.8027012"><ele>361.0</ele><time>2026-05-03T07:29:27.974Z</time></trkpt><trkpt lat="44.5125139" lon="7.8028882"><ele>361.0</ele><time>2026-05-03T07:29:28.967Z</time></trkpt><trkpt lat="44.5121877" lon="7.8030732"><ele>361.0</ele><time>2026-05-03T07:29:29.975Z</time></trkpt><trkpt lat="44.5118592" lon="7.8032516"><ele>361.0</ele><time>2026-05-03T07:29:30.968Z</time></trkpt><trkpt lat="44.5115337" lon="7.8034276"><ele>361.5</ele><time>2026-05-03T07:29:31.971Z</time></trkpt><trkpt lat="44.5112104" lon="7.8036075"><ele>362.0</ele><time>2026-05-03T07:29:32.971Z</time></trkpt><trkpt lat="44.5108899" lon="7.8037827"><ele>362.0</ele><time>2026-05-03T07:29:33.97Z</time></trkpt><trkpt lat="44.5105746" lon="7.8039617"><ele>362.0</ele><time>2026-05-03T07:29:34.968Z</time></trkpt><trkpt lat="44.5102585" lon="7.8041424"><ele>362.0</ele><time>2026-05-03T07:29:35.96Z</time></trkpt><trkpt lat="44.5099472" lon="7.8043206"><ele>362.0</ele><time>2026-05-03T07:29:36.971Z</time></trkpt><trkpt lat="44.5096359" lon="7.8044963"><ele>362.5</ele><time>2026-05-03T07:29:37.968Z</time></trkpt><trkpt lat="44.5093322" lon="7.8046728"><ele>363.0</ele><time>2026-05-03T07:29:38.967Z</time></trkpt><trkpt lat="44.5090289" lon="7.8048494"><ele>363.5</ele><time>2026-05-03T07:29:39.972Z</time></trkpt><trkpt lat="44.5087276" lon="7.8050212"><ele>364.0</ele><time>2026-05-03T07:29:40.97Z</time></trkpt><trkpt lat="44.5084305" lon="7.8051883"><ele>364.5</ele><time>2026-05-03T07:29:41.969Z</time></trkpt><trkpt lat="44.50813" lon="7.8053614"><ele>365.0</ele><time>2026-05-03T07:29:42.981Z</time></trkpt><trkpt lat="44.5078331" lon="7.8055376"><ele>365.5</ele><time>2026-05-03T07:29:43.971Z</time></trkpt><trkpt lat="44.5075408" lon="7.8057131"><ele>366.0</ele><time>2026-05-03T07:29:44.973Z</time></trkpt><trkpt lat="44.5072464" lon="7.8058798"><ele>370.5</ele><time>2026-05-03T07:29:45.972Z</time></trkpt><trkpt lat="44.5069493" lon="7.8060439"><ele>375.0</ele><time>2026-05-03T07:29:46.974Z</time></trkpt><trkpt lat="44.506652" lon="7.806205"><ele>375.0</ele><time>2026-05-03T07:29:47.971Z</time></trkpt><trkpt lat="44.5063557" lon="7.8063733"><ele>375.0</ele><time>2026-05-03T07:29:48.961Z</time></trkpt><trkpt lat="44.5060582" lon="7.8065429"><ele>377.5</ele><time>2026-05-03T07:29:49.969Z</time></trkpt><trkpt lat="44.5057616" lon="7.8067206"><ele>380.0</ele><time>2026-05-03T07:29:50.968Z</time></trkpt><trkpt lat="44.505459" lon="7.8069049"><ele>386.0</ele><time>2026-05-03T07:29:51.969Z</time></trkpt><trkpt lat="44.5051567" lon="7.8070926"><ele>392.0</ele><time>2026-05-03T07:29:52.976Z</time></trkpt><trkpt lat="44.5048534" lon="7.8072793"><ele>392.5</ele><time>2026-05-03T07:29:53.974Z</time></trkpt><trkpt lat="44.5045473" lon="7.8074628"><ele>393.0</ele><time>2026-05-03T07:29:54.973Z</time></trkpt><trkpt lat="44.504239" lon="7.8076462"><ele>398.5</ele><time>2026-05-03T07:29:55.98Z</time></trkpt><trkpt lat="44.5039308" lon="7.8078215"><ele>404.0</ele><time>2026-05-03T07:29:56.976Z</time></trkpt><trkpt lat="44.5036232" lon="7.8079964"><ele>404.0</ele><time>2026-05-03T07:29:57.971Z</time></trkpt><trkpt lat="44.503316" lon="7.8081771"><ele>404.0</ele><time>2026-05-03T07:29:58.98Z</time></trkpt><trkpt lat="44.5030099" lon="7.8083576"><ele>407.5</ele><time>2026-05-03T07:29:59.975Z</time></trkpt><trkpt lat="44.5027005" lon="7.8085367"><ele>411.0</ele><time>2026-05-03T07:30:00.978Z</time></trkpt><trkpt lat="44.502389" lon="7.8087193"><ele>411.5</ele><time>2026-05-03T07:30:01.962Z</time></trkpt><trkpt lat="44.5020815" lon="7.8089002"><ele>412.0</ele><time>2026-05-03T07:30:02.969Z</time></trkpt><trkpt lat="44.5017693" lon="7.8090732"><ele>412.0</ele><time>2026-05-03T07:30:03.975Z</time></trkpt><trkpt lat="44.5014655" lon="7.8092506"><ele>412.0</ele><time>2026-05-03T07:30:04.971Z</time></trkpt><trkpt lat="44.5011583" lon="7.8094261"><ele>412.0</ele><time>2026-05-03T07:30:05.966Z</time></trkpt><trkpt lat="44.5008525" lon="7.8095988"><ele>412.0</ele><time>2026-05-03T07:30:06.969Z</time></trkpt><trkpt lat="44.5005536" lon="7.8097673"><ele>412.0</ele><time>2026-05-03T07:30:07.97Z</time></trkpt><trkpt lat="44.5002526" lon="7.8099381"><ele>412.0</ele><time>2026-05-03T07:30:08.977Z</time></trkpt><trkpt lat="44.4999543" lon="7.8101074"><ele>412.0</ele><time>2026-05-03T07:30:09.969Z</time></trkpt><trkpt lat="44.4996537" lon="7.8102735"><ele>412.0</ele><time>2026-05-03T07:30:10.977Z</time></trkpt><trkpt lat="44.4993522" lon="7.810443"><ele>412.5</ele><time>2026-05-03T07:30:11.973Z</time></trkpt><trkpt lat="44.4990509" lon="7.8106144"><ele>413.0</ele><time>2026-05-03T07:30:12.975Z</time></trkpt><trkpt lat="44.4987491" lon="7.8107788"><ele>413.5</ele><time>2026-05-03T07:30:13.977Z</time></trkpt><trkpt lat="44.4984491" lon="7.8109467"><ele>414.0</ele><time>2026-05-03T07:30:14.979Z</time></trkpt><trkpt lat="44.4981526" lon="7.8111184"><ele>414.5</ele><time>2026-05-03T07:30:15.982Z</time></trkpt><trkpt lat="44.4978596" lon="7.8112912"><ele>415.0</ele><time>2026-05-03T07:30:16.976Z</time></trkpt><trkpt lat="44.497563" lon="7.8114715"><ele>415.0</ele><time>2026-05-03T07:30:17.963Z</time></trkpt><trkpt lat="44.497269" lon="7.811653"><ele>415.0</ele><time>2026-05-03T07:30:18.966Z</time></trkpt><trkpt lat="44.4969706" lon="7.8118435"><ele>412.5</ele><time>2026-05-03T07:30:19.971Z</time></trkpt><trkpt lat="44.4966757" lon="7.8120519"><ele>410.0</ele><time>2026-05-03T07:30:20.97Z</time></trkpt><trkpt lat="44.4963784" lon="7.8122578"><ele>409.5</ele><time>2026-05-03T07:30:21.982Z</time></trkpt><trkpt lat="44.4960814" lon="7.812464"><ele>409.0</ele><time>2026-05-03T07:30:22.973Z</time></trkpt><trkpt lat="44.4957833" lon="7.8126742"><ele>408.5</ele><time>2026-05-03T07:30:23.974Z</time></trkpt><trkpt lat="44.495492" lon="7.8128968"><ele>408.0</ele><time>2026-05-03T07:30:24.974Z</time></trkpt><trkpt lat="44.495192" lon="7.8131188"><ele>408.0</ele><time>2026-05-03T07:30:25.966Z</time></trkpt><trkpt lat="44.4948936" lon="7.813334"><ele>408.0</ele><time>2026-05-03T07:30:26.975Z</time></trkpt><trkpt lat="44.494594" lon="7.813552"><ele>408.0</ele><time>2026-05-03T07:30:27.973Z</time></trkpt><trkpt lat="44.4942915" lon="7.8137669"><ele>408.0</ele><time>2026-05-03T07:30:28.978Z</time></trkpt><trkpt lat="44.493987" lon="7.8139766"><ele>408.0</ele><time>2026-05-03T07:30:29.974Z</time></trkpt><trkpt lat="44.4936866" lon="7.8141905"><ele>408.0</ele><time>2026-05-03T07:30:30.971Z</time></trkpt><trkpt lat="44.4933827" lon="7.8143994"><ele>408.0</ele><time>2026-05-03T07:30:31.985Z</time></trkpt><trkpt lat="44.4930794" lon="7.8146142"><ele>408.0</ele><time>2026-05-03T07:30:32.988Z</time></trkpt><trkpt lat="44.4927771" lon="7.8148232"><ele>408.0</ele><time>2026-05-03T07:30:33.977Z</time></trkpt><trkpt lat="44.4924758" lon="7.815033"><ele>408.0</ele><time>2026-05-03T07:30:34.979Z</time></trkpt><trkpt lat="44.4921777" lon="7.815247"><ele>409.5</ele><time>2026-05-03T07:30:35.975Z</time></trkpt><trkpt lat="44.4918777" lon="7.815453"><ele>411.0</ele><time>2026-05-03T07:30:36.973Z</time></trkpt><trkpt lat="44.4915792" lon="7.815664"><ele>411.0</ele><time>2026-05-03T07:30:37.973Z</time></trkpt><trkpt lat="44.4912816" lon="7.815871"><ele>411.0</ele><time>2026-05-03T07:30:38.978Z</time></trkpt><trkpt lat="44.4909843" lon="7.8160815"><ele>410.5</ele><time>2026-05-03T07:30:39.984Z</time></trkpt><trkpt lat="44.4906856" lon="7.8162919"><ele>410.0</ele><time>2026-05-03T07:30:40.974Z</time></trkpt><trkpt lat="44.4903884" lon="7.8164985"><ele>409.5</ele><time>2026-05-03T07:30:41.972Z</time></trkpt><trkpt lat="44.4900953" lon="7.8166953"><ele>409.0</ele><time>2026-05-03T07:30:42.988Z</time></trkpt><trkpt lat="44.4897976" lon="7.8169074"><ele>410.5</ele><time>2026-05-03T07:30:43.97Z</time></trkpt><trkpt lat="44.4895021" lon="7.8171113"><ele>412.0</ele><time>2026-05-03T07:30:44.976Z</time></trkpt><trkpt lat="44.489207" lon="7.8173207"><ele>412.0</ele><time>2026-05-03T07:30:45.978Z</time></trkpt><trkpt lat="44.4889106" lon="7.8175279"><ele>412.0</ele><time>2026-05-03T07:30:46.977Z</time></trkpt><trkpt lat="44.4886178" lon="7.8177324"><ele>411.5</ele><time>2026-05-03T07:30:47.97Z</time></trkpt><trkpt lat="44.4883277" lon="7.8179385"><ele>411.0</ele><time>2026-05-03T07:30:48.978Z</time></trkpt><trkpt lat="44.4880409" lon="7.8181437"><ele>410.5</ele><time>2026-05-03T07:30:49.976Z</time></trkpt><trkpt lat="44.4877605" lon="7.818345"><ele>410.0</ele><time>2026-05-03T07:30:50.979Z</time></trkpt><trkpt lat="44.4874791" lon="7.8185472"><ele>410.0</ele><time>2026-05-03T07:30:51.972Z</time></trkpt><trkpt lat="44.4872013" lon="7.818741"><ele>410.0</ele><time>2026-05-03T07:30:52.976Z</time></trkpt><trkpt lat="44.4869198" lon="7.8189311"><ele>410.5</ele><time>2026-05-03T07:30:53.978Z</time></trkpt><trkpt lat="44.4866435" lon="7.8191216"><ele>411.0</ele><time>2026-05-03T07:30:54.977Z</time></trkpt><trkpt lat="44.4863649" lon="7.8193046"><ele>412.0</ele><time>2026-05-03T07:30:55.971Z</time></trkpt><trkpt lat="44.486095" lon="7.8194961"><ele>413.0</ele><time>2026-05-03T07:30:56.983Z</time></trkpt><trkpt lat="44.4858187" lon="7.8196851"><ele>413.0</ele><time>2026-05-03T07:30:57.97Z</time></trkpt><trkpt lat="44.4855447" lon="7.8198788"><ele>413.0</ele><time>2026-05-03T07:30:58.971Z</time></trkpt><trkpt lat="44.4852685" lon="7.8200686"><ele>412.5</ele><time>2026-05-03T07:30:59.975Z</time></trkpt><trkpt lat="44.4849908" lon="7.8202617"><ele>412.0</ele><time>2026-05-03T07:31:00.981Z</time></trkpt><trkpt lat="44.4847127" lon="7.8204588"><ele>412.0</ele><time>2026-05-03T07:31:01.965Z</time></trkpt><trkpt lat="44.4844302" lon="7.8206516"><ele>412.0</ele><time>2026-05-03T07:31:02.977Z</time></trkpt><trkpt lat="44.4841505" lon="7.8208497"><ele>411.5</ele><time>2026-05-03T07:31:03.97Z</time></trkpt><trkpt lat="44.4838696" lon="7.8210463"><ele>411.0</ele><time>2026-05-03T07:31:04.975Z</time></trkpt><trkpt lat="44.4835873" lon="7.821246"><ele>410.5</ele><time>2026-05-03T07:31:05.969Z</time></trkpt><trkpt lat="44.4833039" lon="7.8214569"><ele>410.0</ele><time>2026-05-03T07:31:06.97Z</time></trkpt><trkpt lat="44.4830198" lon="7.821666"><ele>409.5</ele><time>2026-05-03T07:31:07.975Z</time></trkpt><trkpt lat="44.4827297" lon="7.8218799"><ele>409.0</ele><time>2026-05-03T07:31:08.978Z</time></trkpt><trkpt lat="44.4824429" lon="7.8220817"><ele>409.0</ele><time>2026-05-03T07:31:09.976Z</time></trkpt><trkpt lat="44.4821533" lon="7.822284"><ele>409.0</ele><time>2026-05-03T07:31:10.975Z</time></trkpt><trkpt lat="44.4818623" lon="7.8224782"><ele>409.5</ele><time>2026-05-03T07:31:11.988Z</time></trkpt><trkpt lat="44.481572" lon="7.8226667"><ele>410.0</ele><time>2026-05-03T07:31:12.969Z</time></trkpt><trkpt lat="44.4812829" lon="7.8228595"><ele>409.5</ele><time>2026-05-03T07:31:13.971Z</time></trkpt><trkpt lat="44.4809953" lon="7.8230553"><ele>409.0</ele><time>2026-05-03T07:31:14.974Z</time></trkpt><trkpt lat="44.4807157" lon="7.8232519"><ele>409.0</ele><time>2026-05-03T07:31:15.972Z</time></trkpt><trkpt lat="44.4804342" lon="7.8234515"><ele>409.0</ele><time>2026-05-03T07:31:16.975Z</time></trkpt><trkpt lat="44.4801514" lon="7.823651"><ele>409.5</ele><time>2026-05-03T07:31:17.975Z</time></trkpt><trkpt lat="44.4798716" lon="7.8238518"><ele>410.0</ele><time>2026-05-03T07:31:18.971Z</time></trkpt><trkpt lat="44.4795936" lon="7.8240493"><ele>409.0</ele><time>2026-05-03T07:31:19.974Z</time></trkpt><trkpt lat="44.479313" lon="7.8242429"><ele>408.0</ele><time>2026-05-03T07:31:20.966Z</time></trkpt><trkpt lat="44.4790309" lon="7.8244361"><ele>408.0</ele><time>2026-05-03T07:31:21.984Z</time></trkpt><trkpt lat="44.4787508" lon="7.8246252"><ele>408.0</ele><time>2026-05-03T07:31:22.984Z</time></trkpt><trkpt lat="44.478472" lon="7.8248212"><ele>408.0</ele><time>2026-05-03T07:31:23.987Z</time></trkpt><trkpt lat="44.4781957" lon="7.8250119"><ele>408.0</ele><time>2026-05-03T07:31:24.979Z</time></trkpt><trkpt lat="44.4779211" lon="7.825206"><ele>408.5</ele><time>2026-05-03T07:31:25.97Z</time></trkpt><trkpt lat="44.4776442" lon="7.8254015"><ele>409.0</ele><time>2026-05-03T07:31:26.967Z</time></trkpt><trkpt lat="44.4773685" lon="7.8255988"><ele>408.5</ele><time>2026-05-03T07:31:27.969Z</time></trkpt><trkpt lat="44.4770906" lon="7.8257964"><ele>408.0</ele><time>2026-05-03T07:31:28.974Z</time></trkpt><trkpt lat="44.4768076" lon="7.8259919"><ele>407.5</ele><time>2026-05-03T07:31:29.972Z</time></trkpt><trkpt lat="44.4765247" lon="7.8261887"><ele>407.0</ele><time>2026-05-03T07:31:30.979Z</time></trkpt><trkpt lat="44.4762432" lon="7.8263795"><ele>408.5</ele><time>2026-05-03T07:31:31.979Z</time></trkpt><trkpt lat="44.4759612" lon="7.8265747"><ele>410.0</ele><time>2026-05-03T07:31:32.977Z</time></trkpt><trkpt lat="44.4756792" lon="7.826769"><ele>410.5</ele><time>2026-05-03T07:31:33.977Z</time></trkpt><trkpt lat="44.4753958" lon="7.826959"><ele>411.0</ele><time>2026-05-03T07:31:34.98Z</time></trkpt><trkpt lat="44.4751087" lon="7.8271465"><ele>411.0</ele><time>2026-05-03T07:31:35.975Z</time></trkpt><trkpt lat="44.4748185" lon="7.8273305"><ele>411.0</ele><time>2026-05-03T07:31:36.975Z</time></trkpt><trkpt lat="44.4745252" lon="7.8275026"><ele>408.0</ele><time>2026-05-03T07:31:37.978Z</time></trkpt><trkpt lat="44.4742292" lon="7.8276729"><ele>405.0</ele><time>2026-05-03T07:31:38.983Z</time></trkpt><trkpt lat="44.4739301" lon="7.8278338"><ele>405.0</ele><time>2026-05-03T07:31:39.968Z</time></trkpt><trkpt lat="44.4736337" lon="7.8279842"><ele>405.0</ele><time>2026-05-03T07:31:40.989Z</time></trkpt><trkpt lat="44.4733354" lon="7.8281381"><ele>405.0</ele><time>2026-05-03T07:31:41.985Z</time></trkpt><trkpt lat="44.4730361" lon="7.8282921"><ele>405.0</ele><time>2026-05-03T07:31:42.978Z</time></trkpt><trkpt lat="44.4727365" lon="7.8284473"><ele>403.5</ele><time>2026-05-03T07:31:43.972Z</time></trkpt><trkpt lat="44.4724408" lon="7.8286021"><ele>402.0</ele><time>2026-05-03T07:31:44.978Z</time></trkpt><trkpt lat="44.4721434" lon="7.8287577"><ele>402.5</ele><time>2026-05-03T07:31:45.97Z</time></trkpt><trkpt lat="44.4718409" lon="7.8289148"><ele>403.0</ele><time>2026-05-03T07:31:46.979Z</time></trkpt><trkpt lat="44.4715343" lon="7.8290695"><ele>403.0</ele><time>2026-05-03T07:31:47.981Z</time></trkpt><trkpt lat="44.4712239" lon="7.8292255"><ele>403.0</ele><time>2026-05-03T07:31:48.97Z</time></trkpt><trkpt lat="44.4709217" lon="7.8293812"><ele>403.0</ele><time>2026-05-03T07:31:49.976Z</time></trkpt><trkpt lat="44.4706179" lon="7.8295345"><ele>403.0</ele><time>2026-05-03T07:31:50.978Z</time></trkpt><trkpt lat="44.4703103" lon="7.8296955"><ele>403.0</ele><time>2026-05-03T07:31:51.972Z</time></trkpt><trkpt lat="44.4699985" lon="7.8298528"><ele>403.0</ele><time>2026-05-03T07:31:52.974Z</time></trkpt><trkpt lat="44.469691" lon="7.8300075"><ele>396.5</ele><time>2026-05-03T07:31:53.98Z</time></trkpt><trkpt lat="44.4693806" lon="7.8301714"><ele>390.0</ele><time>2026-05-03T07:31:54.974Z</time></trkpt><trkpt lat="44.4690706" lon="7.8303328"><ele>387.0</ele><time>2026-05-03T07:31:55.974Z</time></trkpt><trkpt lat="44.4687647" lon="7.8304954"><ele>384.0</ele><time>2026-05-03T07:31:56.973Z</time></trkpt><trkpt lat="44.468456" lon="7.8306565"><ele>384.0</ele><time>2026-05-03T07:31:57.971Z</time></trkpt><trkpt lat="44.4681439" lon="7.8308193"><ele>384.0</ele><time>2026-05-03T07:31:58.973Z</time></trkpt><trkpt lat="44.4678349" lon="7.8309805"><ele>380.5</ele><time>2026-05-03T07:31:59.967Z</time></trkpt><trkpt lat="44.4675204" lon="7.8311376"><ele>377.0</ele><time>2026-05-03T07:32:00.979Z</time></trkpt><trkpt lat="44.4672046" lon="7.8312902"><ele>376.5</ele><time>2026-05-03T07:32:01.971Z</time></trkpt><trkpt lat="44.466889" lon="7.8314475"><ele>376.0</ele><time>2026-05-03T07:32:02.972Z</time></trkpt><trkpt lat="44.4665725" lon="7.8316051"><ele>376.0</ele><time>2026-05-03T07:32:03.975Z</time></trkpt><trkpt lat="44.466255" lon="7.8317668"><ele>376.0</ele><time>2026-05-03T07:32:04.974Z</time></trkpt><trkpt lat="44.465939" lon="7.8319296"><ele>375.5</ele><time>2026-05-03T07:32:05.972Z</time></trkpt><trkpt lat="44.4656189" lon="7.8320967"><ele>375.0</ele><time>2026-05-03T07:32:06.977Z</time></trkpt><trkpt lat="44.4653023" lon="7.8322636"><ele>375.0</ele><time>2026-05-03T07:32:07.97Z</time></trkpt><trkpt lat="44.4649849" lon="7.83243"><ele>375.0</ele><time>2026-05-03T07:32:08.976Z</time></trkpt><trkpt lat="44.4646679" lon="7.8325955"><ele>374.5</ele><time>2026-05-03T07:32:09.977Z</time></trkpt><trkpt lat="44.4643525" lon="7.8327566"><ele>374.0</ele><time>2026-05-03T07:32:10.977Z</time></trkpt><trkpt lat="44.4640358" lon="7.8329176"><ele>373.5</ele><time>2026-05-03T07:32:11.974Z</time></trkpt><trkpt lat="44.4637196" lon="7.8330807"><ele>373.0</ele><time>2026-05-03T07:32:12.979Z</time></trkpt><trkpt lat="44.4634017" lon="7.833245"><ele>373.0</ele><time>2026-05-03T07:32:13.971Z</time></trkpt><trkpt lat="44.4630838" lon="7.8334042"><ele>373.0</ele><time>2026-05-03T07:32:14.972Z</time></trkpt><trkpt lat="44.462768" lon="7.8335659"><ele>372.5</ele><time>2026-05-03T07:32:15.973Z</time></trkpt><trkpt lat="44.4624494" lon="7.8337278"><ele>372.0</ele><time>2026-05-03T07:32:16.975Z</time></trkpt><trkpt lat="44.4621293" lon="7.8338912"><ele>371.5</ele><time>2026-05-03T07:32:17.97Z</time></trkpt><trkpt lat="44.46181" lon="7.8340555"><ele>371.0</ele><time>2026-05-03T07:32:18.972Z</time></trkpt><trkpt lat="44.4614895" lon="7.8342209"><ele>371.0</ele><time>2026-05-03T07:32:19.97Z</time></trkpt><trkpt lat="44.4611728" lon="7.834384"><ele>371.0</ele><time>2026-05-03T07:32:20.975Z</time></trkpt><trkpt lat="44.4608528" lon="7.8345491"><ele>371.0</ele><time>2026-05-03T07:32:21.982Z</time></trkpt><trkpt lat="44.4605353" lon="7.8347127"><ele>371.0</ele><time>2026-05-03T07:32:22.975Z</time></trkpt><trkpt lat="44.4602159" lon="7.8348758"><ele>363.5</ele><time>2026-05-03T07:32:23.974Z</time></trkpt><trkpt lat="44.4598964" lon="7.8350345"><ele>356.0</ele><time>2026-05-03T07:32:24.976Z</time></trkpt><trkpt lat="44.4595787" lon="7.8351966"><ele>348.0</ele><time>2026-05-03T07:32:25.975Z</time></trkpt><trkpt lat="44.4592582" lon="7.8353583"><ele>340.0</ele><time>2026-05-03T07:32:26.966Z</time></trkpt><trkpt lat="44.4589406" lon="7.8355219"><ele>336.5</ele><time>2026-05-03T07:32:27.983Z</time></trkpt><trkpt lat="44.4586306" lon="7.8356827"><ele>333.0</ele><time>2026-05-03T07:32:28.979Z</time></trkpt><trkpt lat="44.4583168" lon="7.8358448"><ele>330.5</ele><time>2026-05-03T07:32:29.976Z</time></trkpt><trkpt lat="44.4580043" lon="7.8360024"><ele>328.0</ele><time>2026-05-03T07:32:30.971Z</time></trkpt><trkpt lat="44.4576925" lon="7.8361569"><ele>326.0</ele><time>2026-05-03T07:32:31.976Z</time></trkpt><trkpt lat="44.4573816" lon="7.8363096"><ele>324.0</ele><time>2026-05-03T07:32:32.971Z</time></trkpt><trkpt lat="44.4570698" lon="7.8364641"><ele>321.0</ele><time>2026-05-03T07:32:33.974Z</time></trkpt><trkpt lat="44.45676" lon="7.8366224"><ele>318.0</ele><time>2026-05-03T07:32:34.971Z</time></trkpt><trkpt lat="44.4564549" lon="7.8367825"><ele>312.0</ele><time>2026-05-03T07:32:35.977Z</time></trkpt><trkpt lat="44.4561502" lon="7.8369397"><ele>306.0</ele><time>2026-05-03T07:32:36.973Z</time></trkpt><trkpt lat="44.4558453" lon="7.8371009"><ele>306.0</ele><time>2026-05-03T07:32:37.979Z</time></trkpt><trkpt lat="44.4555421" lon="7.8372614"><ele>306.0</ele><time>2026-05-03T07:32:38.979Z</time></trkpt><trkpt lat="44.4552379" lon="7.8374151"><ele>306.0</ele><time>2026-05-03T07:32:39.969Z</time></trkpt><trkpt lat="44.4549351" lon="7.837567"><ele>306.0</ele><time>2026-05-03T07:32:40.975Z</time></trkpt><trkpt lat="44.454637" lon="7.8377162"><ele>307.0</ele><time>2026-05-03T07:32:41.974Z</time></trkpt><trkpt lat="44.4543416" lon="7.8378617"><ele>308.0</ele><time>2026-05-03T07:32:42.975Z</time></trkpt><trkpt lat="44.4540462" lon="7.8380133"><ele>308.0</ele><time>2026-05-03T07:32:43.968Z</time></trkpt><trkpt lat="44.4537559" lon="7.838162"><ele>308.0</ele><time>2026-05-03T07:32:44.973Z</time></trkpt><trkpt lat="44.4534633" lon="7.8383145"><ele>308.0</ele><time>2026-05-03T07:32:45.97Z</time></trkpt><trkpt lat="44.4531699" lon="7.8384616"><ele>308.0</ele><time>2026-05-03T07:32:46.965Z</time></trkpt><trkpt lat="44.452878" lon="7.838617"><ele>319.0</ele><time>2026-05-03T07:32:47.978Z</time></trkpt><trkpt lat="44.4525894" lon="7.8387633"><ele>330.0</ele><time>2026-05-03T07:32:48.972Z</time></trkpt><trkpt lat="44.4522983" lon="7.8389113"><ele>340.0</ele><time>2026-05-03T07:32:49.978Z</time></trkpt><trkpt lat="44.4520055" lon="7.8390591"><ele>350.0</ele><time>2026-05-03T07:32:50.978Z</time></trkpt><trkpt lat="44.4517083" lon="7.8392107"><ele>351.0</ele><time>2026-05-03T07:32:51.969Z</time></trkpt><trkpt lat="44.4514131" lon="7.8393618"><ele>352.0</ele><time>2026-05-03T07:32:52.973Z</time></trkpt><trkpt lat="44.4511213" lon="7.8395158"><ele>362.0</ele><time>2026-05-03T07:32:53.969Z</time></trkpt><trkpt lat="44.4508309" lon="7.8396678"><ele>372.0</ele><time>2026-05-03T07:32:54.967Z</time></trkpt><trkpt lat="44.4505348" lon="7.8398265"><ele>377.5</ele><time>2026-05-03T07:32:55.973Z</time></trkpt><trkpt lat="44.4502465" lon="7.8399865"><ele>383.0</ele><time>2026-05-03T07:32:56.974Z</time></trkpt><trkpt lat="44.4499577" lon="7.8401433"><ele>385.0</ele><time>2026-05-03T07:32:57.978Z</time></trkpt><trkpt lat="44.449671" lon="7.8403114"><ele>387.0</ele><time>2026-05-03T07:32:58.979Z</time></trkpt><trkpt lat="44.4493851" lon="7.8404901"><ele>387.0</ele><time>2026-05-03T07:32:59.966Z</time></trkpt><trkpt lat="44.4490975" lon="7.8406642"><ele>387.0</ele><time>2026-05-03T07:33:00.976Z</time></trkpt><trkpt lat="44.4488045" lon="7.840839"><ele>387.0</ele><time>2026-05-03T07:33:01.971Z</time></trkpt><trkpt lat="44.4485159" lon="7.8410134"><ele>387.0</ele><time>2026-05-03T07:33:02.968Z</time></trkpt><trkpt lat="44.4482278" lon="7.8411852"><ele>386.5</ele><time>2026-05-03T07:33:03.97Z</time></trkpt><trkpt lat="44.4479385" lon="7.8413532"><ele>386.0</ele><time>2026-05-03T07:33:04.97Z</time></trkpt><trkpt lat="44.4476499" lon="7.841518"><ele>386.0</ele><time>2026-05-03T07:33:05.978Z</time></trkpt><trkpt lat="44.4473609" lon="7.8416919"><ele>386.0</ele><time>2026-05-03T07:33:06.973Z</time></trkpt><trkpt lat="44.4470702" lon="7.8418701"><ele>385.0</ele><time>2026-05-03T07:33:07.977Z</time></trkpt><trkpt lat="44.4467796" lon="7.8420462"><ele>384.0</ele><time>2026-05-03T07:33:08.981Z</time></trkpt><trkpt lat="44.446487" lon="7.8422227"><ele>385.0</ele><time>2026-05-03T07:33:09.975Z</time></trkpt><trkpt lat="44.446191" lon="7.842397"><ele>386.0</ele><time>2026-05-03T07:33:10.983Z</time></trkpt><trkpt lat="44.4458969" lon="7.8425761"><ele>386.0</ele><time>2026-05-03T07:33:11.977Z</time></trkpt><trkpt lat="44.4456014" lon="7.8427519"><ele>386.0</ele><time>2026-05-03T07:33:12.978Z</time></trkpt><trkpt lat="44.4453105" lon="7.8429231"><ele>385.5</ele><time>2026-05-03T07:33:13.969Z</time></trkpt><trkpt lat="44.4450189" lon="7.8431024"><ele>385.0</ele><time>2026-05-03T07:33:14.986Z</time></trkpt><trkpt lat="44.4447279" lon="7.8432757"><ele>385.0</ele><time>2026-05-03T07:33:15.965Z</time></trkpt><trkpt lat="44.4444393" lon="7.8434536"><ele>385.0</ele><time>2026-05-03T07:33:16.969Z</time></trkpt><trkpt lat="44.4441504" lon="7.8436294"><ele>385.0</ele><time>2026-05-03T07:33:17.969Z</time></trkpt><trkpt lat="44.4438596" lon="7.8438107"><ele>385.0</ele><time>2026-05-03T07:33:18.974Z</time></trkpt><trkpt lat="44.4435643" lon="7.8439968"><ele>385.0</ele><time>2026-05-03T07:33:19.976Z</time></trkpt><trkpt lat="44.443273" lon="7.844183"><ele>385.0</ele><time>2026-05-03T07:33:20.97Z</time></trkpt><trkpt lat="44.4429821" lon="7.84437"><ele>384.0</ele><time>2026-05-03T07:33:21.986Z</time></trkpt><trkpt lat="44.4426869" lon="7.8445552"><ele>383.0</ele><time>2026-05-03T07:33:22.97Z</time></trkpt><trkpt lat="44.4423908" lon="7.8447326"><ele>382.5</ele><time>2026-05-03T07:33:23.985Z</time></trkpt><trkpt lat="44.4420949" lon="7.8449163"><ele>382.0</ele><time>2026-05-03T07:33:24.985Z</time></trkpt><trkpt lat="44.4417966" lon="7.8450949"><ele>382.5</ele><time>2026-05-03T07:33:25.979Z</time></trkpt><trkpt lat="44.4414966" lon="7.8452724"><ele>383.0</ele><time>2026-05-03T07:33:26.989Z</time></trkpt><trkpt lat="44.4412005" lon="7.8454516"><ele>383.0</ele><time>2026-05-03T07:33:27.973Z</time></trkpt><trkpt lat="44.4409052" lon="7.8456273"><ele>383.0</ele><time>2026-05-03T07:33:28.976Z</time></trkpt><trkpt lat="44.4406075" lon="7.8458068"><ele>382.5</ele><time>2026-05-03T07:33:29.97Z</time></trkpt><trkpt lat="44.4403112" lon="7.8459827"><ele>382.0</ele><time>2026-05-03T07:33:30.969Z</time></trkpt><trkpt lat="44.440016" lon="7.8461581"><ele>382.0</ele><time>2026-05-03T07:33:31.974Z</time></trkpt><trkpt lat="44.43972" lon="7.8463304"><ele>382.0</ele><time>2026-05-03T07:33:32.978Z</time></trkpt><trkpt lat="44.439428" lon="7.8465052"><ele>382.0</ele><time>2026-05-03T07:33:33.969Z</time></trkpt><trkpt lat="44.4391345" lon="7.8466793"><ele>382.0</ele><time>2026-05-03T07:33:34.972Z</time></trkpt><trkpt lat="44.4388415" lon="7.846859"><ele>382.5</ele><time>2026-05-03T07:33:35.971Z</time></trkpt><trkpt lat="44.43855" lon="7.8470343"><ele>383.0</ele><time>2026-05-03T07:33:36.975Z</time></trkpt><trkpt lat="44.4382593" lon="7.8472106"><ele>383.0</ele><time>2026-05-03T07:33:37.969Z</time></trkpt><trkpt lat="44.4379751" lon="7.8473838"><ele>383.0</ele><time>2026-05-03T07:33:38.986Z</time></trkpt><trkpt lat="44.4376928" lon="7.8475555"><ele>384.0</ele><time>2026-05-03T07:33:39.981Z</time></trkpt><trkpt lat="44.4374078" lon="7.8477248"><ele>385.0</ele><time>2026-05-03T07:33:40.972Z</time></trkpt><trkpt lat="44.4371199" lon="7.8478955"><ele>386.5</ele><time>2026-05-03T07:33:41.973Z</time></trkpt><trkpt lat="44.4368328" lon="7.8480729"><ele>388.0</ele><time>2026-05-03T07:33:42.978Z</time></trkpt><trkpt lat="44.4365437" lon="7.848241"><ele>388.5</ele><time>2026-05-03T07:33:43.973Z</time></trkpt><trkpt lat="44.4362547" lon="7.8484063"><ele>389.0</ele><time>2026-05-03T07:33:44.97Z</time></trkpt><trkpt lat="44.4359605" lon="7.8485692"><ele>388.5</ele><time>2026-05-03T07:33:45.979Z</time></trkpt><trkpt lat="44.435664" lon="7.8487382"><ele>388.0</ele><time>2026-05-03T07:33:46.978Z</time></trkpt><trkpt lat="44.435367" lon="7.8489079"><ele>388.0</ele><time>2026-05-03T07:33:47.971Z</time></trkpt><trkpt lat="44.4350661" lon="7.8490835"><ele>388.0</ele><time>2026-05-03T07:33:48.979Z</time></trkpt><trkpt lat="44.4347656" lon="7.8492605"><ele>387.0</ele><time>2026-05-03T07:33:49.981Z</time></trkpt><trkpt lat="44.4344676" lon="7.8494356"><ele>386.0</ele><time>2026-05-03T07:33:50.973Z</time></trkpt><trkpt lat="44.4341732" lon="7.849618"><ele>386.0</ele><time>2026-05-03T07:33:51.97Z</time></trkpt><trkpt lat="44.4338798" lon="7.849797"><ele>386.0</ele><time>2026-05-03T07:33:52.975Z</time></trkpt><trkpt lat="44.4335845" lon="7.8499706"><ele>384.0</ele><time>2026-05-03T07:33:53.972Z</time></trkpt><trkpt lat="44.4332894" lon="7.8501515"><ele>382.0</ele><time>2026-05-03T07:33:54.977Z</time></trkpt><trkpt lat="44.4329913" lon="7.8503297"><ele>375.5</ele><time>2026-05-03T07:33:55.97Z</time></trkpt><trkpt lat="44.4326931" lon="7.8505076"><ele>369.0</ele><time>2026-05-03T07:33:56.987Z</time></trkpt><trkpt lat="44.4323981" lon="7.8506835"><ele>362.0</ele><time>2026-05-03T07:33:57.976Z</time></trkpt><trkpt lat="44.4321035" lon="7.850861"><ele>355.0</ele><time>2026-05-03T07:33:58.976Z</time></trkpt><trkpt lat="44.4318111" lon="7.8510395"><ele>350.5</ele><time>2026-05-03T07:33:59.976Z</time></trkpt><trkpt lat="44.4315184" lon="7.8512101"><ele>346.0</ele><time>2026-05-03T07:34:00.972Z</time></trkpt><trkpt lat="44.4312271" lon="7.8513805"><ele>344.5</ele><time>2026-05-03T07:34:01.976Z</time></trkpt><trkpt lat="44.4309351" lon="7.85156"><ele>343.0</ele><time>2026-05-03T07:34:02.978Z</time></trkpt><trkpt lat="44.4306453" lon="7.8517403"><ele>356.0</ele><time>2026-05-03T07:34:03.973Z</time></trkpt><trkpt lat="44.4303564" lon="7.8519163"><ele>369.0</ele><time>2026-05-03T07:34:04.968Z</time></trkpt><trkpt lat="44.4300651" lon="7.852095"><ele>369.0</ele><time>2026-05-03T07:34:05.976Z</time></trkpt><trkpt lat="44.4297732" lon="7.8522684"><ele>369.0</ele><time>2026-05-03T07:34:06.981Z</time></trkpt><trkpt lat="44.4294844" lon="7.8524359"><ele>371.5</ele><time>2026-05-03T07:34:07.98Z</time></trkpt><trkpt lat="44.4291947" lon="7.8526069"><ele>374.0</ele><time>2026-05-03T07:34:08.972Z</time></trkpt><trkpt lat="44.4289046" lon="7.8527878"><ele>377.0</ele><time>2026-05-03T07:34:09.974Z</time></trkpt><trkpt lat="44.4286153" lon="7.8529636"><ele>380.0</ele><time>2026-05-03T07:34:10.973Z</time></trkpt><trkpt lat="44.4283257" lon="7.8531381"><ele>380.0</ele><time>2026-05-03T07:34:11.968Z</time></trkpt><trkpt lat="44.4280334" lon="7.8533122"><ele>380.0</ele><time>2026-05-03T07:34:12.973Z</time></trkpt><trkpt lat="44.4277432" lon="7.8534859"><ele>380.0</ele><time>2026-05-03T07:34:13.982Z</time></trkpt><trkpt lat="44.4274549" lon="7.8536621"><ele>380.0</ele><time>2026-05-03T07:34:14.979Z</time></trkpt><trkpt lat="44.4271667" lon="7.8538369"><ele>380.5</ele><time>2026-05-03T07:34:15.972Z</time></trkpt><trkpt lat="44.4268808" lon="7.8540091"><ele>381.0</ele><time>2026-05-03T07:34:16.978Z</time></trkpt><trkpt lat="44.4265942" lon="7.854179"><ele>382.0</ele><time>2026-05-03T07:34:17.974Z</time></trkpt><trkpt lat="44.426305" lon="7.8543547"><ele>383.0</ele><time>2026-05-03T07:34:18.974Z</time></trkpt><trkpt lat="44.4260196" lon="7.8545258"><ele>383.0</ele><time>2026-05-03T07:34:19.972Z</time></trkpt><trkpt lat="44.4257358" lon="7.8547007"><ele>383.0</ele><time>2026-05-03T07:34:20.975Z</time></trkpt><trkpt lat="44.4254515" lon="7.8548675"><ele>383.5</ele><time>2026-05-03T07:34:21.976Z</time></trkpt><trkpt lat="44.4251636" lon="7.8550333"><ele>384.0</ele><time>2026-05-03T07:34:22.975Z</time></trkpt><trkpt lat="44.4248811" lon="7.8552034"><ele>382.0</ele><time>2026-05-03T07:34:23.97Z</time></trkpt><trkpt lat="44.4245951" lon="7.8553781"><ele>380.0</ele><time>2026-05-03T07:34:24.975Z</time></trkpt><trkpt lat="44.4243083" lon="7.8555532"><ele>380.0</ele><time>2026-05-03T07:34:25.964Z</time></trkpt><trkpt lat="44.4240214" lon="7.8557257"><ele>380.0</ele><time>2026-05-03T07:34:26.978Z</time></trkpt><trkpt lat="44.4237376" lon="7.8559012"><ele>379.5</ele><time>2026-05-03T07:34:27.971Z</time></trkpt><trkpt lat="44.423451" lon="7.8560739"><ele>379.0</ele><time>2026-05-03T07:34:28.975Z</time></trkpt><trkpt lat="44.4231667" lon="7.8562494"><ele>378.0</ele><time>2026-05-03T07:34:29.969Z</time></trkpt><trkpt lat="44.4228819" lon="7.8564205"><ele>377.0</ele><time>2026-05-03T07:34:30.985Z</time></trkpt><trkpt lat="44.4225973" lon="7.8565976"><ele>377.0</ele><time>2026-05-03T07:34:31.981Z</time></trkpt><trkpt lat="44.4223073" lon="7.8567798"><ele>377.0</ele><time>2026-05-03T07:34:32.971Z</time></trkpt><trkpt lat="44.4220222" lon="7.8569597"><ele>375.0</ele><time>2026-05-03T07:34:33.982Z</time></trkpt><trkpt lat="44.4217404" lon="7.8571406"><ele>373.0</ele><time>2026-05-03T07:34:34.972Z</time></trkpt><trkpt lat="44.4214611" lon="7.8573327"><ele>373.0</ele><time>2026-05-03T07:34:35.973Z</time></trkpt><trkpt lat="44.4211825" lon="7.8575383"><ele>373.0</ele><time>2026-05-03T07:34:36.969Z</time></trkpt><trkpt lat="44.4209058" lon="7.8577457"><ele>370.0</ele><time>2026-05-03T07:34:37.969Z</time></trkpt><trkpt lat="44.4206293" lon="7.8579532"><ele>367.0</ele><time>2026-05-03T07:34:38.981Z</time></trkpt><trkpt lat="44.4203509" lon="7.8581559"><ele>358.5</ele><time>2026-05-03T07:34:39.973Z</time></trkpt><trkpt lat="44.4200744" lon="7.8583604"><ele>350.0</ele><time>2026-05-03T07:34:40.981Z</time></trkpt><trkpt lat="44.4198038" lon="7.8585631"><ele>356.0</ele><time>2026-05-03T07:34:41.975Z</time></trkpt><trkpt lat="44.4195343" lon="7.8587757"><ele>362.0</ele><time>2026-05-03T07:34:42.979Z</time></trkpt><trkpt lat="44.4192735" lon="7.8589925"><ele>362.0</ele><time>2026-05-03T07:34:43.975Z</time></trkpt><trkpt lat="44.4190337" lon="7.8592345"><ele>362.0</ele><time>2026-05-03T07:34:44.977Z</time></trkpt><trkpt lat="44.418791" lon="7.8595002"><ele>368.5</ele><time>2026-05-03T07:34:45.977Z</time></trkpt><trkpt lat="44.4185636" lon="7.8597901"><ele>375.0</ele><time>2026-05-03T07:34:46.967Z</time></trkpt><trkpt lat="44.4183407" lon="7.8601027"><ele>374.0</ele><time>2026-05-03T07:34:47.975Z</time></trkpt><trkpt lat="44.4181429" lon="7.860419"><ele>373.0</ele><time>2026-05-03T07:34:48.976Z</time></trkpt><trkpt lat="44.4179575" lon="7.8607676"><ele>367.5</ele><time>2026-05-03T07:34:49.971Z</time></trkpt><trkpt lat="44.4177907" lon="7.8611349"><ele>362.0</ele><time>2026-05-03T07:34:50.979Z</time></trkpt><trkpt lat="44.4176364" lon="7.8615118"><ele>361.0</ele><time>2026-05-03T07:34:51.975Z</time></trkpt><trkpt lat="44.4174973" lon="7.8618964"><ele>360.0</ele><time>2026-05-03T07:34:52.972Z</time></trkpt><trkpt lat="44.4173795" lon="7.8622851"><ele>353.0</ele><time>2026-05-03T07:34:53.98Z</time></trkpt><trkpt lat="44.4172789" lon="7.8626937"><ele>346.0</ele><time>2026-05-03T07:34:54.984Z</time></trkpt><trkpt lat="44.4172015" lon="7.8631037"><ele>342.5</ele><time>2026-05-03T07:34:55.972Z</time></trkpt><trkpt lat="44.4171515" lon="7.8635214"><ele>339.0</ele><time>2026-05-03T07:34:56.981Z</time></trkpt><trkpt lat="44.4171218" lon="7.8639528"><ele>335.5</ele><time>2026-05-03T07:34:57.965Z</time></trkpt><trkpt lat="44.4171146" lon="7.8643808"><ele>332.0</ele><time>2026-05-03T07:34:58.972Z</time></trkpt><trkpt lat="44.4171291" lon="7.8648107"><ele>327.0</ele><time>2026-05-03T07:34:59.975Z</time></trkpt><trkpt lat="44.4171647" lon="7.8652374"><ele>322.0</ele><time>2026-05-03T07:35:00.976Z</time></trkpt><trkpt lat="44.4172145" lon="7.8656723"><ele>323.0</ele><time>2026-05-03T07:35:01.974Z</time></trkpt><trkpt lat="44.4172818" lon="7.8660958"><ele>324.0</ele><time>2026-05-03T07:35:02.979Z</time></trkpt><trkpt lat="44.4173602" lon="7.8665165"><ele>328.0</ele><time>2026-05-03T07:35:03.974Z</time></trkpt><trkpt lat="44.4174388" lon="7.8669399"><ele>332.0</ele><time>2026-05-03T07:35:04.976Z</time></trkpt><trkpt lat="44.4175155" lon="7.8673615"><ele>342.0</ele><time>2026-05-03T07:35:05.967Z</time></trkpt><trkpt lat="44.4175858" lon="7.8677817"><ele>352.0</ele><time>2026-05-03T07:35:06.97Z</time></trkpt><trkpt lat="44.4176584" lon="7.8681876"><ele>365.0</ele><time>2026-05-03T07:35:07.968Z</time></trkpt><trkpt lat="44.4177305" lon="7.8685878"><ele>378.0</ele><time>2026-05-03T07:35:08.979Z</time></trkpt><trkpt lat="44.4177963" lon="7.8689851"><ele>384.5</ele><time>2026-05-03T07:35:09.97Z</time></trkpt><trkpt lat="44.4178701" lon="7.8693736"><ele>391.0</ele><time>2026-05-03T07:35:10.979Z</time></trkpt><trkpt lat="44.4179559" lon="7.8697556"><ele>391.5</ele><time>2026-05-03T07:35:11.979Z</time></trkpt><trkpt lat="44.4180707" lon="7.8701139"><ele>392.0</ele><time>2026-05-03T07:35:12.971Z</time></trkpt><trkpt lat="44.418203" lon="7.8704656"><ele>392.0</ele><time>2026-05-03T07:35:13.977Z</time></trkpt><trkpt lat="44.4183528" lon="7.8708132"><ele>392.0</ele><time>2026-05-03T07:35:14.974Z</time></trkpt><trkpt lat="44.4185128" lon="7.8711556"><ele>396.0</ele><time>2026-05-03T07:35:15.976Z</time></trkpt><trkpt lat="44.418678" lon="7.871487"><ele>400.0</ele><time>2026-05-03T07:35:16.975Z</time></trkpt><trkpt lat="44.4188419" lon="7.8718267"><ele>400.0</ele><time>2026-05-03T07:35:17.977Z</time></trkpt><trkpt lat="44.419003" lon="7.8721664"><ele>400.0</ele><time>2026-05-03T07:35:18.975Z</time></trkpt><trkpt lat="44.4191696" lon="7.872507"><ele>406.5</ele><time>2026-05-03T07:35:19.98Z</time></trkpt><trkpt lat="44.4193359" lon="7.8728498"><ele>413.0</ele><time>2026-05-03T07:35:20.971Z</time></trkpt><trkpt lat="44.4195005" lon="7.8731962"><ele>411.5</ele><time>2026-05-03T07:35:21.97Z</time></trkpt><trkpt lat="44.4196684" lon="7.873551"><ele>410.0</ele><time>2026-05-03T07:35:22.984Z</time></trkpt><trkpt lat="44.4198395" lon="7.8739034"><ele>410.0</ele><time>2026-05-03T07:35:23.979Z</time></trkpt><trkpt lat="44.4200109" lon="7.8742595"><ele>410.0</ele><time>2026-05-03T07:35:24.97Z</time></trkpt><trkpt lat="44.4201813" lon="7.8746032"><ele>417.0</ele><time>2026-05-03T07:35:25.969Z</time></trkpt><trkpt lat="44.420352" lon="7.8749465"><ele>424.0</ele><time>2026-05-03T07:35:26.969Z</time></trkpt><trkpt lat="44.4227149" lon="7.8798382"><ele>422.5</ele><time>2026-05-03T07:35:40.97Z</time></trkpt><trkpt lat="44.4228873" lon="7.8802239"><ele>421.0</ele><time>2026-05-03T07:35:41.964Z</time></trkpt><trkpt lat="44.4230595" lon="7.880568"><ele>421.0</ele><time>2026-05-03T07:35:42.964Z</time></trkpt><trkpt lat="44.4232109" lon="7.8809101"><ele>421.0</ele><time>2026-05-03T07:35:43.962Z</time></trkpt><trkpt lat="44.4233458" lon="7.8812674"><ele>422.5</ele><time>2026-05-03T07:35:44.976Z</time></trkpt><trkpt lat="44.4234573" lon="7.8816306"><ele>424.0</ele><time>2026-05-03T07:35:45.963Z</time></trkpt><trkpt lat="44.4235418" lon="7.8820135"><ele>424.0</ele><time>2026-05-03T07:35:46.974Z</time></trkpt><trkpt lat="44.4235971" lon="7.8824064"><ele>424.0</ele><time>2026-05-03T07:35:47.965Z</time></trkpt><trkpt lat="44.4236404" lon="7.8828101"><ele>424.0</ele><time>2026-05-03T07:35:48.969Z</time></trkpt><trkpt lat="44.4236667" lon="7.8832169"><ele>424.0</ele><time>2026-05-03T07:35:49.976Z</time></trkpt><trkpt lat="44.4236793" lon="7.8836276"><ele>424.0</ele><time>2026-05-03T07:35:50.971Z</time></trkpt><trkpt lat="44.4236713" lon="7.8840441"><ele>424.0</ele><time>2026-05-03T07:35:51.975Z</time></trkpt><trkpt lat="44.423632" lon="7.8844704"><ele>423.0</ele><time>2026-05-03T07:35:52.974Z</time></trkpt><trkpt lat="44.4235683" lon="7.8848854"><ele>422.0</ele><time>2026-05-03T07:35:53.979Z</time></trkpt><trkpt lat="44.4234758" lon="7.8853035"><ele>420.0</ele><time>2026-05-03T07:35:54.967Z</time></trkpt><trkpt lat="44.4233594" lon="7.8857069"><ele>418.0</ele><time>2026-05-03T07:35:55.971Z</time></trkpt><trkpt lat="44.4232245" lon="7.8860946"><ele>418.5</ele><time>2026-05-03T07:35:56.966Z</time></trkpt><trkpt lat="44.423057" lon="7.8864702"><ele>419.0</ele><time>2026-05-03T07:35:57.962Z</time></trkpt><trkpt lat="44.4228647" lon="7.8868188"><ele>419.0</ele><time>2026-05-03T07:35:58.975Z</time></trkpt><trkpt lat="44.42266" lon="7.8871433"><ele>419.0</ele><time>2026-05-03T07:35:59.966Z</time></trkpt><trkpt lat="44.4224424" lon="7.8874622"><ele>420.5</ele><time>2026-05-03T07:36:00.969Z</time></trkpt><trkpt lat="44.4222159" lon="7.8877736"><ele>422.0</ele><time>2026-05-03T07:36:01.969Z</time></trkpt><trkpt lat="44.4219887" lon="7.8880672"><ele>422.0</ele><time>2026-05-03T07:36:02.965Z</time></trkpt><trkpt lat="44.4217501" lon="7.8883516"><ele>422.0</ele><time>2026-05-03T07:36:03.961Z</time></trkpt><trkpt lat="44.4215116" lon="7.8886309"><ele>424.0</ele><time>2026-05-03T07:36:04.966Z</time></trkpt><trkpt lat="44.4212704" lon="7.8889021"><ele>426.0</ele><time>2026-05-03T07:36:05.97Z</time></trkpt><trkpt lat="44.4210386" lon="7.8891668"><ele>421.5</ele><time>2026-05-03T07:36:06.964Z</time></trkpt><trkpt lat="44.4208112" lon="7.8894213"><ele>417.0</ele><time>2026-05-03T07:36:07.973Z</time></trkpt><trkpt lat="44.420581" lon="7.8896777"><ele>415.5</ele><time>2026-05-03T07:36:08.972Z</time></trkpt><trkpt lat="44.4203515" lon="7.8899309"><ele>414.0</ele><time>2026-05-03T07:36:09.97Z</time></trkpt><trkpt lat="44.4201238" lon="7.8901886"><ele>410.5</ele><time>2026-05-03T07:36:10.974Z</time></trkpt><trkpt lat="44.4199001" lon="7.8904453"><ele>407.0</ele><time>2026-05-03T07:36:11.972Z</time></trkpt><trkpt lat="44.4196709" lon="7.8907004"><ele>406.5</ele><time>2026-05-03T07:36:12.971Z</time></trkpt><trkpt lat="44.4194461" lon="7.8909487"><ele>406.0</ele><time>2026-05-03T07:36:13.973Z</time></trkpt><trkpt lat="44.41922" lon="7.8911999"><ele>406.0</ele><time>2026-05-03T07:36:14.984Z</time></trkpt><trkpt lat="44.4189928" lon="7.8914524"><ele>406.0</ele><time>2026-05-03T07:36:15.976Z</time></trkpt><trkpt lat="44.4187709" lon="7.891713"><ele>410.5</ele><time>2026-05-03T07:36:16.98Z</time></trkpt><trkpt lat="44.4185488" lon="7.8919908"><ele>415.0</ele><time>2026-05-03T07:36:17.973Z</time></trkpt><trkpt lat="44.418328" lon="7.892274"><ele>415.0</ele><time>2026-05-03T07:36:18.974Z</time></trkpt><trkpt lat="44.4181134" lon="7.8925683"><ele>415.0</ele><time>2026-05-03T07:36:19.98Z</time></trkpt><trkpt lat="44.4179043" lon="7.8928858"><ele>415.5</ele><time>2026-05-03T07:36:20.978Z</time></trkpt><trkpt lat="44.4177047" lon="7.893216"><ele>416.0</ele><time>2026-05-03T07:36:21.969Z</time></trkpt><trkpt lat="44.4175051" lon="7.8935585"><ele>416.0</ele><time>2026-05-03T07:36:22.973Z</time></trkpt><trkpt lat="44.4173132" lon="7.8939101"><ele>416.0</ele><time>2026-05-03T07:36:23.968Z</time></trkpt><trkpt lat="44.4171365" lon="7.8942464"><ele>419.5</ele><time>2026-05-03T07:36:24.973Z</time></trkpt><trkpt lat="44.41698" lon="7.8945719"><ele>423.0</ele><time>2026-05-03T07:36:25.967Z</time></trkpt><trkpt lat="44.4168359" lon="7.8948832"><ele>420.0</ele><time>2026-05-03T07:36:26.969Z</time></trkpt><trkpt lat="44.4167142" lon="7.8951772"><ele>417.0</ele><time>2026-05-03T07:36:27.97Z</time></trkpt><trkpt lat="44.4165898" lon="7.8954775"><ele>417.0</ele><time>2026-05-03T07:36:28.967Z</time></trkpt><trkpt lat="44.4164656" lon="7.8957889"><ele>417.0</ele><time>2026-05-03T07:36:29.973Z</time></trkpt><trkpt lat="44.4163362" lon="7.8960959"><ele>420.5</ele><time>2026-05-03T07:36:30.969Z</time></trkpt><trkpt lat="44.4162033" lon="7.8963996"><ele>424.0</ele><time>2026-05-03T07:36:31.969Z</time></trkpt><trkpt lat="44.4160683" lon="7.8967126"><ele>421.5</ele><time>2026-05-03T07:36:32.973Z</time></trkpt><trkpt lat="44.4159334" lon="7.897021"><ele>419.0</ele><time>2026-05-03T07:36:33.972Z</time></trkpt><trkpt lat="44.4157985" lon="7.8973324"><ele>417.0</ele><time>2026-05-03T07:36:34.973Z</time></trkpt><trkpt lat="44.4156682" lon="7.8976411"><ele>415.0</ele><time>2026-05-03T07:36:35.969Z</time></trkpt><trkpt lat="44.4155382" lon="7.8979502"><ele>417.5</ele><time>2026-05-03T07:36:36.968Z</time></trkpt><trkpt lat="44.4154044" lon="7.8982636"><ele>420.0</ele><time>2026-05-03T07:36:37.971Z</time></trkpt><trkpt lat="44.415269" lon="7.898574"><ele>413.0</ele><time>2026-05-03T07:36:38.963Z</time></trkpt><trkpt lat="44.415138" lon="7.898881"><ele>406.0</ele><time>2026-05-03T07:36:39.968Z</time></trkpt><trkpt lat="44.4150045" lon="7.8991868"><ele>395.0</ele><time>2026-05-03T07:36:40.976Z</time></trkpt><trkpt lat="44.4148719" lon="7.899496"><ele>384.0</ele><time>2026-05-03T07:36:41.975Z</time></trkpt><trkpt lat="44.4147456" lon="7.8998071"><ele>397.0</ele><time>2026-05-03T07:36:42.97Z</time></trkpt><trkpt lat="44.4146158" lon="7.9001276"><ele>410.0</ele><time>2026-05-03T07:36:43.969Z</time></trkpt><trkpt lat="44.4144829" lon="7.9004359"><ele>410.0</ele><time>2026-05-03T07:36:44.969Z</time></trkpt><trkpt lat="44.4143534" lon="7.9007451"><ele>410.0</ele><time>2026-05-03T07:36:45.975Z</time></trkpt><trkpt lat="44.4142339" lon="7.9010533"><ele>412.5</ele><time>2026-05-03T07:36:46.977Z</time></trkpt><trkpt lat="44.4141223" lon="7.9013701"><ele>415.0</ele><time>2026-05-03T07:36:47.973Z</time></trkpt><trkpt lat="44.4140229" lon="7.9017138"><ele>417.0</ele><time>2026-05-03T07:36:48.973Z</time></trkpt><trkpt lat="44.4139411" lon="7.9020666"><ele>419.0</ele><time>2026-05-03T07:36:49.973Z</time></trkpt><trkpt lat="44.4138737" lon="7.9024208"><ele>420.5</ele><time>2026-05-03T07:36:50.971Z</time></trkpt><trkpt lat="44.4138293" lon="7.9027868"><ele>422.0</ele><time>2026-05-03T07:36:51.968Z</time></trkpt><trkpt lat="44.4137961" lon="7.903155"><ele>430.0</ele><time>2026-05-03T07:36:52.988Z</time></trkpt><trkpt lat="44.4137644" lon="7.903524"><ele>438.0</ele><time>2026-05-03T07:36:53.969Z</time></trkpt><trkpt lat="44.4137357" lon="7.9039015"><ele>437.0</ele><time>2026-05-03T07:36:54.983Z</time></trkpt><trkpt lat="44.4137119" lon="7.904278"><ele>436.0</ele><time>2026-05-03T07:36:55.967Z</time></trkpt><trkpt lat="44.4136844" lon="7.9046462"><ele>436.0</ele><time>2026-05-03T07:36:56.971Z</time></trkpt><trkpt lat="44.4136616" lon="7.9050148"><ele>436.0</ele><time>2026-05-03T07:36:57.977Z</time></trkpt><trkpt lat="44.4136255" lon="7.9053812"><ele>435.5</ele><time>2026-05-03T07:36:58.969Z</time></trkpt><trkpt lat="44.4135792" lon="7.9057491"><ele>435.0</ele><time>2026-05-03T07:36:59.971Z</time></trkpt><trkpt lat="44.4135195" lon="7.9061215"><ele>431.0</ele><time>2026-05-03T07:37:00.966Z</time></trkpt><trkpt lat="44.4134405" lon="7.9064851"><ele>427.0</ele><time>2026-05-03T07:37:01.978Z</time></trkpt><trkpt lat="44.4133458" lon="7.9068395"><ele>424.0</ele><time>2026-05-03T07:37:02.968Z</time></trkpt><trkpt lat="44.4132341" lon="7.9071834"><ele>421.0</ele><time>2026-05-03T07:37:03.971Z</time></trkpt><trkpt lat="44.4131059" lon="7.9075278"><ele>424.5</ele><time>2026-05-03T07:37:04.965Z</time></trkpt><trkpt lat="44.4129558" lon="7.9078624"><ele>428.0</ele><time>2026-05-03T07:37:05.971Z</time></trkpt><trkpt lat="44.4127928" lon="7.9081834"><ele>425.0</ele><time>2026-05-03T07:37:06.964Z</time></trkpt><trkpt lat="44.4126221" lon="7.9084893"><ele>422.0</ele><time>2026-05-03T07:37:07.963Z</time></trkpt><trkpt lat="44.4124435" lon="7.9087886"><ele>422.0</ele><time>2026-05-03T07:37:08.975Z</time></trkpt><trkpt lat="44.4122717" lon="7.9090793"><ele>422.0</ele><time>2026-05-03T07:37:09.962Z</time></trkpt><trkpt lat="44.4121002" lon="7.9093716"><ele>421.0</ele><time>2026-05-03T07:37:10.965Z</time></trkpt><trkpt lat="44.4119322" lon="7.9096632"><ele>420.0</ele><time>2026-05-03T07:37:11.967Z</time></trkpt><trkpt lat="44.4117604" lon="7.9099596"><ele>416.5</ele><time>2026-05-03T07:37:12.966Z</time></trkpt><trkpt lat="44.4115868" lon="7.9102584"><ele>413.0</ele><time>2026-05-03T07:37:13.965Z</time></trkpt><trkpt lat="44.4114087" lon="7.9105555"><ele>413.0</ele><time>2026-05-03T07:37:14.98Z</time></trkpt><trkpt lat="44.4112374" lon="7.910853"><ele>413.0</ele><time>2026-05-03T07:37:15.971Z</time></trkpt><trkpt lat="44.4110619" lon="7.9111549"><ele>411.0</ele><time>2026-05-03T07:37:16.973Z</time></trkpt><trkpt lat="44.4108895" lon="7.9114664"><ele>409.0</ele><time>2026-05-03T07:37:17.972Z</time></trkpt><trkpt lat="44.4107142" lon="7.9117797"><ele>406.5</ele><time>2026-05-03T07:37:18.975Z</time></trkpt><trkpt lat="44.4105409" lon="7.9120922"><ele>404.0</ele><time>2026-05-03T07:37:19.972Z</time></trkpt><trkpt lat="44.410367" lon="7.9124086"><ele>401.5</ele><time>2026-05-03T07:37:20.977Z</time></trkpt><trkpt lat="44.4101893" lon="7.9127259"><ele>399.0</ele><time>2026-05-03T07:37:21.977Z</time></trkpt><trkpt lat="44.4100082" lon="7.9130388"><ele>399.0</ele><time>2026-05-03T07:37:22.979Z</time></trkpt><trkpt lat="44.409825" lon="7.9133569"><ele>399.0</ele><time>2026-05-03T07:37:23.974Z</time></trkpt><trkpt lat="44.4096413" lon="7.9136726"><ele>397.5</ele><time>2026-05-03T07:37:24.977Z</time></trkpt><trkpt lat="44.4094617" lon="7.9139872"><ele>396.0</ele><time>2026-05-03T07:37:25.98Z</time></trkpt><trkpt lat="44.4092821" lon="7.9142923"><ele>403.5</ele><time>2026-05-03T07:37:26.974Z</time></trkpt><trkpt lat="44.4091051" lon="7.9145969"><ele>411.0</ele><time>2026-05-03T07:37:27.97Z</time></trkpt><trkpt lat="44.4089211" lon="7.9149033"><ele>415.5</ele><time>2026-05-03T07:37:28.972Z</time></trkpt><trkpt lat="44.408739" lon="7.9152006"><ele>420.0</ele><time>2026-05-03T07:37:29.966Z</time></trkpt><trkpt lat="44.4085566" lon="7.9155049"><ele>420.0</ele><time>2026-05-03T07:37:30.967Z</time></trkpt><trkpt lat="44.4083797" lon="7.9158104"><ele>420.0</ele><time>2026-05-03T07:37:31.97Z</time></trkpt><trkpt lat="44.4082016" lon="7.9161171"><ele>420.0</ele><time>2026-05-03T07:37:32.97Z</time></trkpt><trkpt lat="44.4080261" lon="7.916435"><ele>420.0</ele><time>2026-05-03T07:37:33.968Z</time></trkpt><trkpt lat="44.4078532" lon="7.9167485"><ele>420.0</ele><time>2026-05-03T07:37:34.967Z</time></trkpt><trkpt lat="44.4076773" lon="7.9170709"><ele>420.0</ele><time>2026-05-03T07:37:35.966Z</time></trkpt><trkpt lat="44.4075059" lon="7.9173975"><ele>417.0</ele><time>2026-05-03T07:37:36.973Z</time></trkpt><trkpt lat="44.4073274" lon="7.9177247"><ele>414.0</ele><time>2026-05-03T07:37:37.971Z</time></trkpt><trkpt lat="44.4071445" lon="7.9180516"><ele>417.0</ele><time>2026-05-03T07:37:38.974Z</time></trkpt><trkpt lat="44.406965" lon="7.9183703"><ele>420.0</ele><time>2026-05-03T07:37:39.967Z</time></trkpt><trkpt lat="44.4067818" lon="7.9186907"><ele>420.0</ele><time>2026-05-03T07:37:40.981Z</time></trkpt><trkpt lat="44.4065988" lon="7.9190103"><ele>420.0</ele><time>2026-05-03T07:37:41.962Z</time></trkpt><trkpt lat="44.4064203" lon="7.9193272"><ele>422.0</ele><time>2026-05-03T07:37:42.974Z</time></trkpt><trkpt lat="44.4062444" lon="7.9196443"><ele>424.0</ele><time>2026-05-03T07:37:43.97Z</time></trkpt><trkpt lat="44.4060707" lon="7.919955"><ele>421.5</ele><time>2026-05-03T07:37:44.98Z</time></trkpt><trkpt lat="44.4058949" lon="7.9202685"><ele>419.0</ele><time>2026-05-03T07:37:45.969Z</time></trkpt><trkpt lat="44.4057176" lon="7.920589"><ele>418.5</ele><time>2026-05-03T07:37:46.974Z</time></trkpt><trkpt lat="44.4055382" lon="7.9209048"><ele>418.0</ele><time>2026-05-03T07:37:47.981Z</time></trkpt><trkpt lat="44.4053613" lon="7.9212233"><ele>417.5</ele><time>2026-05-03T07:37:48.976Z</time></trkpt><trkpt lat="44.4051861" lon="7.9215462"><ele>417.0</ele><time>2026-05-03T07:37:49.98Z</time></trkpt><trkpt lat="44.4050105" lon="7.9218653"><ele>417.0</ele><time>2026-05-03T07:37:50.977Z</time></trkpt><trkpt lat="44.4048386" lon="7.9221964"><ele>417.0</ele><time>2026-05-03T07:37:51.986Z</time></trkpt><trkpt lat="44.4046791" lon="7.9225341"><ele>419.0</ele><time>2026-05-03T07:37:52.973Z</time></trkpt><trkpt lat="44.4045252" lon="7.9228806"><ele>421.0</ele><time>2026-05-03T07:37:53.975Z</time></trkpt><trkpt lat="44.4043844" lon="7.9232411"><ele>419.5</ele><time>2026-05-03T07:37:54.979Z</time></trkpt><trkpt lat="44.4042438" lon="7.9236078"><ele>418.0</ele><time>2026-05-03T07:37:55.975Z</time></trkpt><trkpt lat="44.4041189" lon="7.9239842"><ele>417.5</ele><time>2026-05-03T07:37:56.975Z</time></trkpt><trkpt lat="44.4039971" lon="7.9243683"><ele>417.0</ele><time>2026-05-03T07:37:57.974Z</time></trkpt><trkpt lat="44.4038874" lon="7.924761"><ele>420.0</ele><time>2026-05-03T07:37:58.974Z</time></trkpt><trkpt lat="44.4037882" lon="7.9251611"><ele>423.0</ele><time>2026-05-03T07:37:59.973Z</time></trkpt><trkpt lat="44.4037002" lon="7.9255721"><ele>422.5</ele><time>2026-05-03T07:38:00.979Z</time></trkpt><trkpt lat="44.4036193" lon="7.9259854"><ele>422.0</ele><time>2026-05-03T07:38:01.973Z</time></trkpt><trkpt lat="44.4035526" lon="7.926401"><ele>424.0</ele><time>2026-05-03T07:38:02.976Z</time></trkpt><trkpt lat="44.4034918" lon="7.9268201"><ele>426.0</ele><time>2026-05-03T07:38:03.966Z</time></trkpt><trkpt lat="44.4034435" lon="7.9272432"><ele>427.5</ele><time>2026-05-03T07:38:04.97Z</time></trkpt><trkpt lat="44.403407" lon="7.9276663"><ele>429.0</ele><time>2026-05-03T07:38:05.966Z</time></trkpt><trkpt lat="44.403388" lon="7.9280783"><ele>428.5</ele><time>2026-05-03T07:38:06.978Z</time></trkpt><trkpt lat="44.4033787" lon="7.9284897"><ele>428.0</ele><time>2026-05-03T07:38:07.971Z</time></trkpt><trkpt lat="44.4033784" lon="7.9289066"><ele>429.0</ele><time>2026-05-03T07:38:08.975Z</time></trkpt><trkpt lat="44.4033881" lon="7.9293337"><ele>430.0</ele><time>2026-05-03T07:38:09.966Z</time></trkpt><trkpt lat="44.4034081" lon="7.9297605"><ele>431.0</ele><time>2026-05-03T07:38:10.978Z</time></trkpt><trkpt lat="44.4034469" lon="7.9301797"><ele>432.0</ele><time>2026-05-03T07:38:11.97Z</time></trkpt><trkpt lat="44.403487" lon="7.9305823"><ele>431.0</ele><time>2026-05-03T07:38:12.976Z</time></trkpt><trkpt lat="44.403539" lon="7.9309731"><ele>430.0</ele><time>2026-05-03T07:38:13.982Z</time></trkpt><trkpt lat="44.403601" lon="7.9313491"><ele>430.0</ele><time>2026-05-03T07:38:14.97Z</time></trkpt><trkpt lat="44.4036721" lon="7.9317127"><ele>430.0</ele><time>2026-05-03T07:38:15.965Z</time></trkpt><trkpt lat="44.4037501" lon="7.932062"><ele>426.0</ele><time>2026-05-03T07:38:16.973Z</time></trkpt><trkpt lat="44.4038415" lon="7.9323998"><ele>422.0</ele><time>2026-05-03T07:38:17.981Z</time></trkpt><trkpt lat="44.4039321" lon="7.9327403"><ele>422.0</ele><time>2026-05-03T07:38:18.975Z</time></trkpt><trkpt lat="44.4040272" lon="7.9330815"><ele>422.0</ele><time>2026-05-03T07:38:19.971Z</time></trkpt><trkpt lat="44.4041228" lon="7.9334377"><ele>423.0</ele><time>2026-05-03T07:38:20.968Z</time></trkpt><trkpt lat="44.4042265" lon="7.9337821"><ele>424.0</ele><time>2026-05-03T07:38:21.973Z</time></trkpt><trkpt lat="44.4043368" lon="7.9341279"><ele>423.5</ele><time>2026-05-03T07:38:22.973Z</time></trkpt><trkpt lat="44.4044424" lon="7.9344877"><ele>423.0</ele><time>2026-05-03T07:38:23.976Z</time></trkpt><trkpt lat="44.4045512" lon="7.9348447"><ele>423.0</ele><time>2026-05-03T07:38:24.972Z</time></trkpt><trkpt lat="44.4046588" lon="7.935211"><ele>423.0</ele><time>2026-05-03T07:38:25.97Z</time></trkpt><trkpt lat="44.4047682" lon="7.935581"><ele>422.5</ele><time>2026-05-03T07:38:26.975Z</time></trkpt><trkpt lat="44.4048851" lon="7.9359604"><ele>422.0</ele><time>2026-05-03T07:38:27.978Z</time></trkpt><trkpt lat="44.4050042" lon="7.9363389"><ele>421.0</ele><time>2026-05-03T07:38:28.973Z</time></trkpt><trkpt lat="44.40512" lon="7.9367208"><ele>420.0</ele><time>2026-05-03T07:38:29.983Z</time></trkpt><trkpt lat="44.4052419" lon="7.9371133"><ele>420.0</ele><time>2026-05-03T07:38:30.966Z</time></trkpt><trkpt lat="44.4053646" lon="7.9375015"><ele>420.0</ele><time>2026-05-03T07:38:31.969Z</time></trkpt><trkpt lat="44.4054865" lon="7.937899"><ele>419.5</ele><time>2026-05-03T07:38:32.982Z</time></trkpt><trkpt lat="44.4056105" lon="7.9383003"><ele>419.0</ele><time>2026-05-03T07:38:33.977Z</time></trkpt><trkpt lat="44.4057315" lon="7.9387011"><ele>419.0</ele><time>2026-05-03T07:38:34.972Z</time></trkpt><trkpt lat="44.4058529" lon="7.9391013"><ele>419.0</ele><time>2026-05-03T07:38:35.964Z</time></trkpt><trkpt lat="44.4059728" lon="7.9394993"><ele>419.0</ele><time>2026-05-03T07:38:36.965Z</time></trkpt><trkpt lat="44.4060926" lon="7.9398977"><ele>419.0</ele><time>2026-05-03T07:38:37.971Z</time></trkpt><trkpt lat="44.4062184" lon="7.9403012"><ele>419.0</ele><time>2026-05-03T07:38:38.972Z</time></trkpt><trkpt lat="44.4063465" lon="7.9407033"><ele>419.0</ele><time>2026-05-03T07:38:39.969Z</time></trkpt><trkpt lat="44.4064735" lon="7.9411064"><ele>419.0</ele><time>2026-05-03T07:38:40.978Z</time></trkpt><trkpt lat="44.4066024" lon="7.9415158"><ele>419.0</ele><time>2026-05-03T07:38:41.967Z</time></trkpt><trkpt lat="44.406725" lon="7.9419201"><ele>419.0</ele><time>2026-05-03T07:38:42.979Z</time></trkpt><trkpt lat="44.4068458" lon="7.9423275"><ele>419.0</ele><time>2026-05-03T07:38:43.973Z</time></trkpt><trkpt lat="44.4069693" lon="7.9427308"><ele>419.0</ele><time>2026-05-03T07:38:44.975Z</time></trkpt><trkpt lat="44.4070898" lon="7.9431331"><ele>419.0</ele><time>2026-05-03T07:38:45.968Z</time></trkpt><trkpt lat="44.407208" lon="7.9435422"><ele>417.0</ele><time>2026-05-03T07:38:46.97Z</time></trkpt><trkpt lat="44.4073264" lon="7.943962"><ele>415.0</ele><time>2026-05-03T07:38:47.971Z</time></trkpt><trkpt lat="44.4074447" lon="7.944374"><ele>414.5</ele><time>2026-05-03T07:38:48.978Z</time></trkpt><trkpt lat="44.407563" lon="7.9447926"><ele>414.0</ele><time>2026-05-03T07:38:49.979Z</time></trkpt><trkpt lat="44.4076841" lon="7.9452098"><ele>413.0</ele><time>2026-05-03T07:38:50.978Z</time></trkpt><trkpt lat="44.4078071" lon="7.9456224"><ele>412.0</ele><time>2026-05-03T07:38:51.967Z</time></trkpt><trkpt lat="44.4079259" lon="7.94603"><ele>409.0</ele><time>2026-05-03T07:38:52.974Z</time></trkpt><trkpt lat="44.4080487" lon="7.9464348"><ele>406.0</ele><time>2026-05-03T07:38:53.975Z</time></trkpt><trkpt lat="44.4081746" lon="7.9468392"><ele>405.0</ele><time>2026-05-03T07:38:54.978Z</time></trkpt><trkpt lat="44.4082995" lon="7.9472439"><ele>404.0</ele><time>2026-05-03T07:38:55.973Z</time></trkpt><trkpt lat="44.4084261" lon="7.9476495"><ele>400.5</ele><time>2026-05-03T07:38:56.966Z</time></trkpt><trkpt lat="44.4085551" lon="7.948057"><ele>397.0</ele><time>2026-05-03T07:38:57.982Z</time></trkpt><trkpt lat="44.4086835" lon="7.9484585"><ele>397.0</ele><time>2026-05-03T07:38:58.977Z</time></trkpt><trkpt lat="44.4088085" lon="7.9488665"><ele>397.0</ele><time>2026-05-03T07:38:59.971Z</time></trkpt><trkpt lat="44.4089328" lon="7.9492717"><ele>397.0</ele><time>2026-05-03T07:39:00.973Z</time></trkpt><trkpt lat="44.4090578" lon="7.9496809"><ele>397.0</ele><time>2026-05-03T07:39:01.97Z</time></trkpt><trkpt lat="44.4091813" lon="7.9500904"><ele>393.0</ele><time>2026-05-03T07:39:02.973Z</time></trkpt><trkpt lat="44.4093038" lon="7.950502"><ele>389.0</ele><time>2026-05-03T07:39:03.968Z</time></trkpt><trkpt lat="44.4094295" lon="7.950911"><ele>389.5</ele><time>2026-05-03T07:39:04.973Z</time></trkpt><trkpt lat="44.4095563" lon="7.9513147"><ele>390.0</ele><time>2026-05-03T07:39:05.964Z</time></trkpt><trkpt lat="44.409683" lon="7.9517149"><ele>390.0</ele><time>2026-05-03T07:39:06.972Z</time></trkpt><trkpt lat="44.4098048" lon="7.9521177"><ele>390.0</ele><time>2026-05-03T07:39:07.969Z</time></trkpt><trkpt lat="44.4099227" lon="7.9525196"><ele>389.0</ele><time>2026-05-03T07:39:08.97Z</time></trkpt><trkpt lat="44.4100435" lon="7.95292"><ele>388.0</ele><time>2026-05-03T07:39:09.966Z</time></trkpt><trkpt lat="44.4101642" lon="7.9533174"><ele>382.0</ele><time>2026-05-03T07:39:10.97Z</time></trkpt><trkpt lat="44.4102838" lon="7.9537125"><ele>376.0</ele><time>2026-05-03T07:39:11.968Z</time></trkpt><trkpt lat="44.4104016" lon="7.9540933"><ele>361.0</ele><time>2026-05-03T07:39:12.969Z</time></trkpt><trkpt lat="44.4105177" lon="7.9544673"><ele>346.0</ele><time>2026-05-03T07:39:13.969Z</time></trkpt><trkpt lat="44.4106293" lon="7.9548386"><ele>347.0</ele><time>2026-05-03T07:39:14.976Z</time></trkpt><trkpt lat="44.4107423" lon="7.955209"><ele>348.0</ele><time>2026-05-03T07:39:15.976Z</time></trkpt><trkpt lat="44.4108561" lon="7.9555717"><ele>350.5</ele><time>2026-05-03T07:39:16.97Z</time></trkpt><trkpt lat="44.4109651" lon="7.9559328"><ele>353.0</ele><time>2026-05-03T07:39:17.979Z</time></trkpt><trkpt lat="44.411072" lon="7.9562933"><ele>353.0</ele><time>2026-05-03T07:39:18.975Z</time></trkpt><trkpt lat="44.4111723" lon="7.9566449"><ele>353.0</ele><time>2026-05-03T07:39:19.969Z</time></trkpt><trkpt lat="44.4112652" lon="7.9569972"><ele>362.5</ele><time>2026-05-03T07:39:20.978Z</time></trkpt><trkpt lat="44.4113444" lon="7.9573565"><ele>372.0</ele><time>2026-05-03T07:39:21.971Z</time></trkpt><trkpt lat="44.4114133" lon="7.9577333"><ele>377.0</ele><time>2026-05-03T07:39:22.968Z</time></trkpt><trkpt lat="44.4114733" lon="7.9581139"><ele>382.0</ele><time>2026-05-03T07:39:23.988Z</time></trkpt><trkpt lat="44.4115266" lon="7.9584984"><ele>384.0</ele><time>2026-05-03T07:39:24.974Z</time></trkpt><trkpt lat="44.4115652" lon="7.9588808"><ele>386.0</ele><time>2026-05-03T07:39:25.978Z</time></trkpt><trkpt lat="44.411594" lon="7.959265"><ele>386.5</ele><time>2026-05-03T07:39:26.976Z</time></trkpt><trkpt lat="44.4116106" lon="7.9596555"><ele>387.0</ele><time>2026-05-03T07:39:27.967Z</time></trkpt><trkpt lat="44.4116103" lon="7.9600551"><ele>386.0</ele><time>2026-05-03T07:39:28.97Z</time></trkpt><trkpt lat="44.4115964" lon="7.9604647"><ele>385.0</ele><time>2026-05-03T07:39:29.969Z</time></trkpt><trkpt lat="44.4115813" lon="7.9608765"><ele>381.0</ele><time>2026-05-03T07:39:30.975Z</time></trkpt><trkpt lat="44.4115534" lon="7.9612918"><ele>377.0</ele><time>2026-05-03T07:39:31.979Z</time></trkpt><trkpt lat="44.411515" lon="7.9616982"><ele>374.0</ele><time>2026-05-03T07:39:32.976Z</time></trkpt><trkpt lat="44.4114588" lon="7.9621046"><ele>371.0</ele><time>2026-05-03T07:39:33.965Z</time></trkpt><trkpt lat="44.4113972" lon="7.9625185"><ele>371.5</ele><time>2026-05-03T07:39:34.979Z</time></trkpt><trkpt lat="44.4113171" lon="7.9629688"><ele>372.0</ele><time>2026-05-03T07:39:35.965Z</time></trkpt><trkpt lat="44.4112036" lon="7.9634466"><ele>378.0</ele><time>2026-05-03T07:39:36.972Z</time></trkpt><trkpt lat="44.4110752" lon="7.9639376"><ele>384.0</ele><time>2026-05-03T07:39:37.966Z</time></trkpt><trkpt lat="44.4109315" lon="7.9643803"><ele>389.0</ele><time>2026-05-03T07:39:38.959Z</time></trkpt><trkpt lat="44.410773" lon="7.9647865"><ele>394.0</ele><time>2026-05-03T07:39:39.976Z</time></trkpt><trkpt lat="44.4106168" lon="7.9651396"><ele>395.5</ele><time>2026-05-03T07:39:40.963Z</time></trkpt><trkpt lat="44.4104578" lon="7.9654853"><ele>397.0</ele><time>2026-05-03T07:39:41.958Z</time></trkpt><trkpt lat="44.410294" lon="7.9658107"><ele>397.5</ele><time>2026-05-03T07:39:42.966Z</time></trkpt><trkpt lat="44.4101245" lon="7.9661226"><ele>398.0</ele><time>2026-05-03T07:39:43.961Z</time></trkpt><trkpt lat="44.4099503" lon="7.9664199"><ele>398.0</ele><time>2026-05-03T07:39:44.978Z</time></trkpt><trkpt lat="44.4097666" lon="7.9667149"><ele>398.0</ele><time>2026-05-03T07:39:45.96Z</time></trkpt><trkpt lat="44.4095712" lon="7.9669933"><ele>398.5</ele><time>2026-05-03T07:39:46.961Z</time></trkpt><trkpt lat="44.409364" lon="7.9672657"><ele>399.0</ele><time>2026-05-03T07:39:47.964Z</time></trkpt><trkpt lat="44.4091524" lon="7.9675398"><ele>399.5</ele><time>2026-05-03T07:39:48.96Z</time></trkpt><trkpt lat="44.4089341" lon="7.9677977"><ele>400.0</ele><time>2026-05-03T07:39:49.971Z</time></trkpt><trkpt lat="44.4087081" lon="7.9680464"><ele>399.5</ele><time>2026-05-03T07:39:50.961Z</time></trkpt><trkpt lat="44.4084717" lon="7.9682804"><ele>399.0</ele><time>2026-05-03T07:39:51.983Z</time></trkpt><trkpt lat="44.4082249" lon="7.9685075"><ele>400.0</ele><time>2026-05-03T07:39:52.96Z</time></trkpt><trkpt lat="44.4079725" lon="7.9687154"><ele>401.0</ele><time>2026-05-03T07:39:53.964Z</time></trkpt><trkpt lat="44.407711" lon="7.9689235"><ele>401.0</ele><time>2026-05-03T07:39:54.962Z</time></trkpt><trkpt lat="44.4074486" lon="7.9691243"><ele>401.0</ele><time>2026-05-03T07:39:55.97Z</time></trkpt><trkpt lat="44.4071818" lon="7.9693367"><ele>403.5</ele><time>2026-05-03T07:39:56.966Z</time></trkpt><trkpt lat="44.406918" lon="7.969551"><ele>406.0</ele><time>2026-05-03T07:39:57.964Z</time></trkpt><trkpt lat="44.4066572" lon="7.9697651"><ele>406.0</ele><time>2026-05-03T07:39:58.968Z</time></trkpt><trkpt lat="44.4063924" lon="7.9699758"><ele>406.0</ele><time>2026-05-03T07:39:59.967Z</time></trkpt><trkpt lat="44.4061294" lon="7.9701845"><ele>406.5</ele><time>2026-05-03T07:40:00.968Z</time></trkpt><trkpt lat="44.4058698" lon="7.9703915"><ele>407.0</ele><time>2026-05-03T07:40:01.969Z</time></trkpt><trkpt lat="44.4056086" lon="7.9706077"><ele>408.0</ele><time>2026-05-03T07:40:02.975Z</time></trkpt><trkpt lat="44.4053487" lon="7.9708216"><ele>409.0</ele><time>2026-05-03T07:40:03.976Z</time></trkpt><trkpt lat="44.4050847" lon="7.971036"><ele>409.5</ele><time>2026-05-03T07:40:04.972Z</time></trkpt><trkpt lat="44.4048205" lon="7.971246"><ele>410.0</ele><time>2026-05-03T07:40:05.964Z</time></trkpt><trkpt lat="44.4045589" lon="7.9714542"><ele>410.5</ele><time>2026-05-03T07:40:06.97Z</time></trkpt><trkpt lat="44.4043028" lon="7.9716662"><ele>411.0</ele><time>2026-05-03T07:40:07.973Z</time></trkpt><trkpt lat="44.4040404" lon="7.9718737"><ele>412.0</ele><time>2026-05-03T07:40:08.969Z</time></trkpt><trkpt lat="44.4037785" lon="7.9720849"><ele>413.0</ele><time>2026-05-03T07:40:09.968Z</time></trkpt><trkpt lat="44.4035166" lon="7.9722998"><ele>413.0</ele><time>2026-05-03T07:40:10.979Z</time></trkpt><trkpt lat="44.4032535" lon="7.9725107"><ele>413.0</ele><time>2026-05-03T07:40:11.97Z</time></trkpt><trkpt lat="44.4029903" lon="7.9727231"><ele>414.0</ele><time>2026-05-03T07:40:12.978Z</time></trkpt><trkpt lat="44.402729" lon="7.9729322"><ele>415.0</ele><time>2026-05-03T07:40:13.972Z</time></trkpt><trkpt lat="44.4024696" lon="7.9731373"><ele>415.0</ele><time>2026-05-03T07:40:14.969Z</time></trkpt><trkpt lat="44.4022099" lon="7.9733404"><ele>415.0</ele><time>2026-05-03T07:40:15.975Z</time></trkpt><trkpt lat="44.4019517" lon="7.9735466"><ele>415.5</ele><time>2026-05-03T07:40:16.966Z</time></trkpt><trkpt lat="44.4016929" lon="7.9737596"><ele>416.0</ele><time>2026-05-03T07:40:17.977Z</time></trkpt><trkpt lat="44.4014339" lon="7.973974"><ele>419.0</ele><time>2026-05-03T07:40:18.969Z</time></trkpt><trkpt lat="44.4011724" lon="7.9741861"><ele>422.0</ele><time>2026-05-03T07:40:19.969Z</time></trkpt><trkpt lat="44.4009085" lon="7.974402"><ele>422.0</ele><time>2026-05-03T07:40:20.965Z</time></trkpt><trkpt lat="44.4006443" lon="7.9746159"><ele>422.0</ele><time>2026-05-03T07:40:21.967Z</time></trkpt><trkpt lat="44.4003802" lon="7.9748292"><ele>425.0</ele><time>2026-05-03T07:40:22.97Z</time></trkpt><trkpt lat="44.4001222" lon="7.9750413"><ele>428.0</ele><time>2026-05-03T07:40:23.966Z</time></trkpt><trkpt lat="44.3998589" lon="7.9752504"><ele>430.0</ele><time>2026-05-03T07:40:24.975Z</time></trkpt><trkpt lat="44.3995987" lon="7.9754529"><ele>432.0</ele><time>2026-05-03T07:40:25.975Z</time></trkpt><trkpt lat="44.3993367" lon="7.9756617"><ele>431.0</ele><time>2026-05-03T07:40:26.974Z</time></trkpt><trkpt lat="44.399082" lon="7.975875"><ele>430.0</ele><time>2026-05-03T07:40:27.972Z</time></trkpt><trkpt lat="44.3988289" lon="7.9761004"><ele>432.0</ele><time>2026-05-03T07:40:28.967Z</time></trkpt><trkpt lat="44.3985811" lon="7.9763439"><ele>434.0</ele><time>2026-05-03T07:40:29.969Z</time></trkpt><trkpt lat="44.3983445" lon="7.9766193"><ele>434.0</ele><time>2026-05-03T07:40:30.964Z</time></trkpt><trkpt lat="44.3981225" lon="7.9769175"><ele>434.0</ele><time>2026-05-03T07:40:31.965Z</time></trkpt><trkpt lat="44.3979153" lon="7.9772393"><ele>433.0</ele><time>2026-05-03T07:40:32.963Z</time></trkpt><trkpt lat="44.397708" lon="7.9775997"><ele>432.0</ele><time>2026-05-03T07:40:33.967Z</time></trkpt><trkpt lat="44.3974986" lon="7.9780062"><ele>432.0</ele><time>2026-05-03T07:40:34.967Z</time></trkpt><trkpt lat="44.3973235" lon="7.9784448"><ele>432.0</ele><time>2026-05-03T07:40:35.973Z</time></trkpt><trkpt lat="44.3971546" lon="7.9789554"><ele>434.0</ele><time>2026-05-03T07:40:36.967Z</time></trkpt><trkpt lat="44.3969954" lon="7.9794734"><ele>436.0</ele><time>2026-05-03T07:40:37.97Z</time></trkpt><trkpt lat="44.3968414" lon="7.9799891"><ele>434.5</ele><time>2026-05-03T07:40:38.975Z</time></trkpt><trkpt lat="44.3966816" lon="7.9804834"><ele>433.0</ele><time>2026-05-03T07:40:39.968Z</time></trkpt><trkpt lat="44.3965187" lon="7.9809568"><ele>432.0</ele><time>2026-05-03T07:40:40.986Z</time></trkpt><trkpt lat="44.3963593" lon="7.9814248"><ele>431.0</ele><time>2026-05-03T07:40:41.966Z</time></trkpt><trkpt lat="44.3962098" lon="7.9818752"><ele>431.0</ele><time>2026-05-03T07:40:42.969Z</time></trkpt><trkpt lat="44.3960617" lon="7.9823184"><ele>431.0</ele><time>2026-05-03T07:40:43.968Z</time></trkpt><trkpt lat="44.3959131" lon="7.9827653"><ele>429.5</ele><time>2026-05-03T07:40:44.977Z</time></trkpt><trkpt lat="44.395768" lon="7.9832125"><ele>428.0</ele><time>2026-05-03T07:40:45.974Z</time></trkpt><trkpt lat="44.3956255" lon="7.9836484"><ele>430.0</ele><time>2026-05-03T07:40:46.969Z</time></trkpt><trkpt lat="44.3954853" lon="7.9840742"><ele>432.0</ele><time>2026-05-03T07:40:47.968Z</time></trkpt><trkpt lat="44.3953442" lon="7.984507"><ele>432.0</ele><time>2026-05-03T07:40:48.971Z</time></trkpt><trkpt lat="44.3951985" lon="7.9849399"><ele>432.0</ele><time>2026-05-03T07:40:49.978Z</time></trkpt><trkpt lat="44.395054" lon="7.9853778"><ele>431.5</ele><time>2026-05-03T07:40:50.97Z</time></trkpt><trkpt lat="44.3949124" lon="7.9858163"><ele>431.0</ele><time>2026-05-03T07:40:51.97Z</time></trkpt><trkpt lat="44.3947653" lon="7.986254"><ele>432.5</ele><time>2026-05-03T07:40:52.977Z</time></trkpt><trkpt lat="44.3946183" lon="7.9866932"><ele>434.0</ele><time>2026-05-03T07:40:53.967Z</time></trkpt><trkpt lat="44.3944764" lon="7.9871309"><ele>430.5</ele><time>2026-05-03T07:40:54.969Z</time></trkpt><trkpt lat="44.3943324" lon="7.9875687"><ele>427.0</ele><time>2026-05-03T07:40:55.97Z</time></trkpt><trkpt lat="44.3941906" lon="7.9880076"><ele>425.0</ele><time>2026-05-03T07:40:56.97Z</time></trkpt><trkpt lat="44.3940426" lon="7.9884472"><ele>423.0</ele><time>2026-05-03T07:40:57.971Z</time></trkpt><trkpt lat="44.3938966" lon="7.9888897"><ele>425.5</ele><time>2026-05-03T07:40:58.975Z</time></trkpt><trkpt lat="44.393754" lon="7.9893318"><ele>428.0</ele><time>2026-05-03T07:40:59.958Z</time></trkpt><trkpt lat="44.393602" lon="7.9897814"><ele>426.0</ele><time>2026-05-03T07:41:00.963Z</time></trkpt><trkpt lat="44.3934536" lon="7.9902339"><ele>424.0</ele><time>2026-05-03T07:41:01.969Z</time></trkpt><trkpt lat="44.3933064" lon="7.9906905"><ele>423.5</ele><time>2026-05-03T07:41:02.975Z</time></trkpt><trkpt lat="44.3931532" lon="7.9911481"><ele>423.0</ele><time>2026-05-03T07:41:03.974Z</time></trkpt><trkpt lat="44.3930034" lon="7.9915987"><ele>422.5</ele><time>2026-05-03T07:41:04.97Z</time></trkpt><trkpt lat="44.3928523" lon="7.9920407"><ele>422.0</ele><time>2026-05-03T07:41:05.971Z</time></trkpt><trkpt lat="44.3926998" lon="7.9924934"><ele>422.5</ele><time>2026-05-03T07:41:06.972Z</time></trkpt><trkpt lat="44.3925512" lon="7.992942"><ele>423.0</ele><time>2026-05-03T07:41:07.972Z</time></trkpt><trkpt lat="44.3924007" lon="7.9933908"><ele>423.5</ele><time>2026-05-03T07:41:08.962Z</time></trkpt><trkpt lat="44.3922591" lon="7.9938357"><ele>424.0</ele><time>2026-05-03T07:41:09.968Z</time></trkpt><trkpt lat="44.3921166" lon="7.9942823"><ele>424.0</ele><time>2026-05-03T07:41:10.977Z</time></trkpt><trkpt lat="44.3919776" lon="7.9947217"><ele>424.0</ele><time>2026-05-03T07:41:11.962Z</time></trkpt><trkpt lat="44.3918332" lon="7.9951649"><ele>423.5</ele><time>2026-05-03T07:41:12.974Z</time></trkpt><trkpt lat="44.3916835" lon="7.9956043"><ele>423.0</ele><time>2026-05-03T07:41:13.975Z</time></trkpt><trkpt lat="44.3915377" lon="7.9960408"><ele>424.5</ele><time>2026-05-03T07:41:14.967Z</time></trkpt><trkpt lat="44.3913886" lon="7.9964865"><ele>426.0</ele><time>2026-05-03T07:41:15.972Z</time></trkpt><trkpt lat="44.3912418" lon="7.9969355"><ele>426.0</ele><time>2026-05-03T07:41:16.971Z</time></trkpt><trkpt lat="44.3910973" lon="7.9973877"><ele>426.0</ele><time>2026-05-03T07:41:17.971Z</time></trkpt><trkpt lat="44.3909476" lon="7.9978384"><ele>426.0</ele><time>2026-05-03T07:41:18.977Z</time></trkpt><trkpt lat="44.3908001" lon="7.9982856"><ele>426.0</ele><time>2026-05-03T07:41:19.969Z</time></trkpt><trkpt lat="44.3906463" lon="7.9987413"><ele>427.0</ele><time>2026-05-03T07:41:20.976Z</time></trkpt><trkpt lat="44.3904835" lon="7.9991991"><ele>428.0</ele><time>2026-05-03T07:41:21.974Z</time></trkpt><trkpt lat="44.3903123" lon="7.999658"><ele>428.0</ele><time>2026-05-03T07:41:22.969Z</time></trkpt><trkpt lat="44.3901481" lon="8.0001211"><ele>428.0</ele><time>2026-05-03T07:41:23.971Z</time></trkpt><trkpt lat="44.3900006" lon="8.0005756"><ele>428.0</ele><time>2026-05-03T07:41:24.971Z</time></trkpt><trkpt lat="44.389855" lon="8.0010153"><ele>428.0</ele><time>2026-05-03T07:41:25.963Z</time></trkpt><trkpt lat="44.389709" lon="8.0014474"><ele>428.5</ele><time>2026-05-03T07:41:26.972Z</time></trkpt><trkpt lat="44.389574" lon="8.0018678"><ele>429.0</ele><time>2026-05-03T07:41:27.971Z</time></trkpt><trkpt lat="44.3894413" lon="8.0022758"><ele>429.0</ele><time>2026-05-03T07:41:28.97Z</time></trkpt><trkpt lat="44.3893093" lon="8.0026782"><ele>429.0</ele><time>2026-05-03T07:41:29.969Z</time></trkpt><trkpt lat="44.3891744" lon="8.0030836"><ele>429.5</ele><time>2026-05-03T07:41:30.968Z</time></trkpt><trkpt lat="44.3890435" lon="8.0034919"><ele>430.0</ele><time>2026-05-03T07:41:31.976Z</time></trkpt><trkpt lat="44.3889127" lon="8.0038948"><ele>435.0</ele><time>2026-05-03T07:41:32.966Z</time></trkpt><trkpt lat="44.3887761" lon="8.0043052"><ele>440.0</ele><time>2026-05-03T07:41:33.968Z</time></trkpt><trkpt lat="44.3886436" lon="8.0047052"><ele>440.5</ele><time>2026-05-03T07:41:34.975Z</time></trkpt><trkpt lat="44.3885092" lon="8.0051097"><ele>441.0</ele><time>2026-05-03T07:41:35.97Z</time></trkpt><trkpt lat="44.3883781" lon="8.005512"><ele>439.5</ele><time>2026-05-03T07:41:36.977Z</time></trkpt><trkpt lat="44.3882461" lon="8.0059152"><ele>438.0</ele><time>2026-05-03T07:41:37.974Z</time></trkpt><trkpt lat="44.3881123" lon="8.0063181"><ele>441.5</ele><time>2026-05-03T07:41:38.969Z</time></trkpt><trkpt lat="44.3879724" lon="8.0067143"><ele>445.0</ele><time>2026-05-03T07:41:39.975Z</time></trkpt><trkpt lat="44.3878154" lon="8.0070892"><ele>445.0</ele><time>2026-05-03T07:41:40.975Z</time></trkpt><trkpt lat="44.3876304" lon="8.0074482"><ele>445.0</ele><time>2026-05-03T07:41:41.969Z</time></trkpt><trkpt lat="44.3874305" lon="8.0077752"><ele>444.5</ele><time>2026-05-03T07:41:42.982Z</time></trkpt><trkpt lat="44.3872155" lon="8.0080908"><ele>444.0</ele><time>2026-05-03T07:41:43.969Z</time></trkpt><trkpt lat="44.3869855" lon="8.0083858"><ele>444.0</ele><time>2026-05-03T07:41:44.968Z</time></trkpt><trkpt lat="44.3867391" lon="8.0086672"><ele>444.0</ele><time>2026-05-03T07:41:45.967Z</time></trkpt><trkpt lat="44.386489" lon="8.0089441"><ele>443.5</ele><time>2026-05-03T07:41:46.961Z</time></trkpt><trkpt lat="44.3862302" lon="8.0092175"><ele>443.0</ele><time>2026-05-03T07:41:47.959Z</time></trkpt><trkpt lat="44.3859754" lon="8.0094965"><ele>443.0</ele><time>2026-05-03T07:41:48.972Z</time></trkpt><trkpt lat="44.3857178" lon="8.0097866"><ele>443.0</ele><time>2026-05-03T07:41:49.974Z</time></trkpt><trkpt lat="44.385459" lon="8.0100765"><ele>440.0</ele><time>2026-05-03T07:41:50.968Z</time></trkpt><trkpt lat="44.3851952" lon="8.0103699"><ele>437.0</ele><time>2026-05-03T07:41:51.971Z</time></trkpt><trkpt lat="44.384934" lon="8.01065"><ele>436.5</ele><time>2026-05-03T07:41:52.97Z</time></trkpt><trkpt lat="44.3846686" lon="8.0109342"><ele>436.0</ele><time>2026-05-03T07:41:53.964Z</time></trkpt><trkpt lat="44.3844049" lon="8.0112175"><ele>436.0</ele><time>2026-05-03T07:41:54.968Z</time></trkpt><trkpt lat="44.3841371" lon="8.0114957"><ele>436.0</ele><time>2026-05-03T07:41:55.971Z</time></trkpt><trkpt lat="44.3838682" lon="8.0117757"><ele>436.5</ele><time>2026-05-03T07:41:56.971Z</time></trkpt><trkpt lat="44.3836012" lon="8.0120526"><ele>437.0</ele><time>2026-05-03T07:41:57.966Z</time></trkpt><trkpt lat="44.3833334" lon="8.0123277"><ele>431.0</ele><time>2026-05-03T07:41:58.968Z</time></trkpt><trkpt lat="44.3830627" lon="8.0126036"><ele>425.0</ele><time>2026-05-03T07:41:59.969Z</time></trkpt><trkpt lat="44.382795" lon="8.0128775"><ele>425.0</ele><time>2026-05-03T07:42:00.971Z</time></trkpt><trkpt lat="44.3825274" lon="8.0131532"><ele>425.0</ele><time>2026-05-03T07:42:01.972Z</time></trkpt><trkpt lat="44.3822604" lon="8.0134338"><ele>422.5</ele><time>2026-05-03T07:42:02.973Z</time></trkpt><trkpt lat="44.3819944" lon="8.0137043"><ele>420.0</ele><time>2026-05-03T07:42:03.972Z</time></trkpt><trkpt lat="44.3817289" lon="8.0139756"><ele>420.0</ele><time>2026-05-03T07:42:04.977Z</time></trkpt><trkpt lat="44.3814665" lon="8.0142399"><ele>420.0</ele><time>2026-05-03T07:42:05.966Z</time></trkpt><trkpt lat="44.3811993" lon="8.0145074"><ele>419.5</ele><time>2026-05-03T07:42:06.97Z</time></trkpt><trkpt lat="44.3809315" lon="8.0147744"><ele>419.0</ele><time>2026-05-03T07:42:07.976Z</time></trkpt><trkpt lat="44.3806655" lon="8.0150399"><ele>419.5</ele><time>2026-05-03T07:42:08.972Z</time></trkpt><trkpt lat="44.3804004" lon="8.0153097"><ele>420.0</ele><time>2026-05-03T07:42:09.975Z</time></trkpt><trkpt lat="44.3801374" lon="8.0155797"><ele>419.5</ele><time>2026-05-03T07:42:10.973Z</time></trkpt><trkpt lat="44.3798768" lon="8.0158479"><ele>419.0</ele><time>2026-05-03T07:42:11.965Z</time></trkpt><trkpt lat="44.3796121" lon="8.0161212"><ele>418.5</ele><time>2026-05-03T07:42:12.977Z</time></trkpt><trkpt lat="44.3793531" lon="8.0163918"><ele>418.0</ele><time>2026-05-03T07:42:13.974Z</time></trkpt><trkpt lat="44.3790969" lon="8.0166555"><ele>418.0</ele><time>2026-05-03T07:42:14.973Z</time></trkpt><trkpt lat="44.3788419" lon="8.0169112"><ele>418.0</ele><time>2026-05-03T07:42:15.965Z</time></trkpt><trkpt lat="44.3785823" lon="8.0171719"><ele>418.0</ele><time>2026-05-03T07:42:16.972Z</time></trkpt><trkpt lat="44.3783308" lon="8.0174332"><ele>418.0</ele><time>2026-05-03T07:42:17.969Z</time></trkpt><trkpt lat="44.3780704" lon="8.0176951"><ele>418.5</ele><time>2026-05-03T07:42:18.972Z</time></trkpt><trkpt lat="44.3778136" lon="8.0179581"><ele>419.0</ele><time>2026-05-03T07:42:19.973Z</time></trkpt><trkpt lat="44.3775539" lon="8.0182126"><ele>419.0</ele><time>2026-05-03T07:42:20.969Z</time></trkpt><trkpt lat="44.3773002" lon="8.0184682"><ele>419.0</ele><time>2026-05-03T07:42:21.971Z</time></trkpt><trkpt lat="44.377048" lon="8.0187306"><ele>419.0</ele><time>2026-05-03T07:42:22.975Z</time></trkpt><trkpt lat="44.3767932" lon="8.0189927"><ele>419.0</ele><time>2026-05-03T07:42:23.982Z</time></trkpt><trkpt lat="44.3765487" lon="8.019257"><ele>419.5</ele><time>2026-05-03T07:42:24.974Z</time></trkpt><trkpt lat="44.3763033" lon="8.0195235"><ele>420.0</ele><time>2026-05-03T07:42:25.967Z</time></trkpt><trkpt lat="44.3760647" lon="8.0197942"><ele>419.5</ele><time>2026-05-03T07:42:26.971Z</time></trkpt><trkpt lat="44.3758269" lon="8.0200775"><ele>419.0</ele><time>2026-05-03T07:42:27.971Z</time></trkpt><trkpt lat="44.3755986" lon="8.0203734"><ele>420.5</ele><time>2026-05-03T07:42:28.969Z</time></trkpt><trkpt lat="44.3753752" lon="8.0206736"><ele>422.0</ele><time>2026-05-03T07:42:29.961Z</time></trkpt><trkpt lat="44.3751571" lon="8.0209852"><ele>422.0</ele><time>2026-05-03T07:42:30.973Z</time></trkpt><trkpt lat="44.3749398" lon="8.0213141"><ele>422.0</ele><time>2026-05-03T07:42:31.968Z</time></trkpt><trkpt lat="44.3747316" lon="8.0216561"><ele>422.0</ele><time>2026-05-03T07:42:32.97Z</time></trkpt><trkpt lat="44.3745261" lon="8.0219996"><ele>422.0</ele><time>2026-05-03T07:42:33.976Z</time></trkpt><trkpt lat="44.3743299" lon="8.0223349"><ele>422.0</ele><time>2026-05-03T07:42:34.971Z</time></trkpt><trkpt lat="44.3741336" lon="8.0226655"><ele>422.0</ele><time>2026-05-03T07:42:35.968Z</time></trkpt><trkpt lat="44.3739404" lon="8.0229972"><ele>422.5</ele><time>2026-05-03T07:42:36.966Z</time></trkpt><trkpt lat="44.3737494" lon="8.0233208"><ele>423.0</ele><time>2026-05-03T07:42:37.975Z</time></trkpt><trkpt lat="44.3735588" lon="8.0236511"><ele>423.0</ele><time>2026-05-03T07:42:38.973Z</time></trkpt><trkpt lat="44.3733648" lon="8.0239817"><ele>423.0</ele><time>2026-05-03T07:42:39.965Z</time></trkpt><trkpt lat="44.3731718" lon="8.0243117"><ele>423.0</ele><time>2026-05-03T07:42:40.981Z</time></trkpt><trkpt lat="44.3729806" lon="8.0246318"><ele>423.0</ele><time>2026-05-03T07:42:41.971Z</time></trkpt><trkpt lat="44.3727867" lon="8.0249584"><ele>423.0</ele><time>2026-05-03T07:42:42.966Z</time></trkpt><trkpt lat="44.3725943" lon="8.0252827"><ele>423.0</ele><time>2026-05-03T07:42:43.978Z</time></trkpt><trkpt lat="44.3724036" lon="8.0256119"><ele>422.5</ele><time>2026-05-03T07:42:44.971Z</time></trkpt><trkpt lat="44.3722118" lon="8.0259336"><ele>422.0</ele><time>2026-05-03T07:42:45.966Z</time></trkpt><trkpt lat="44.3720184" lon="8.0262571"><ele>424.0</ele><time>2026-05-03T07:42:46.971Z</time></trkpt><trkpt lat="44.3718259" lon="8.0265815"><ele>426.0</ele><time>2026-05-03T07:42:47.971Z</time></trkpt><trkpt lat="44.3716389" lon="8.0269028"><ele>426.0</ele><time>2026-05-03T07:42:48.962Z</time></trkpt><trkpt lat="44.3714496" lon="8.0272229"><ele>426.0</ele><time>2026-05-03T07:42:49.967Z</time></trkpt><trkpt lat="44.3712601" lon="8.0275455"><ele>430.5</ele><time>2026-05-03T07:42:50.965Z</time></trkpt><trkpt lat="44.3710732" lon="8.0278638"><ele>435.0</ele><time>2026-05-03T07:42:51.968Z</time></trkpt><trkpt lat="44.3708908" lon="8.028177"><ele>433.0</ele><time>2026-05-03T07:42:52.976Z</time></trkpt><trkpt lat="44.3707105" lon="8.0284763"><ele>431.0</ele><time>2026-05-03T07:42:53.971Z</time></trkpt><trkpt lat="44.3705417" lon="8.0287808"><ele>436.0</ele><time>2026-05-03T07:42:54.971Z</time></trkpt><trkpt lat="44.3703793" lon="8.0290964"><ele>441.0</ele><time>2026-05-03T07:42:55.984Z</time></trkpt><trkpt lat="44.3702368" lon="8.0294184"><ele>441.0</ele><time>2026-05-03T07:42:56.964Z</time></trkpt><trkpt lat="44.3701113" lon="8.029749"><ele>441.0</ele><time>2026-05-03T07:42:57.972Z</time></trkpt><trkpt lat="44.3699955" lon="8.0300895"><ele>438.5</ele><time>2026-05-03T07:42:58.969Z</time></trkpt><trkpt lat="44.3698928" lon="8.0304439"><ele>436.0</ele><time>2026-05-03T07:42:59.977Z</time></trkpt><trkpt lat="44.3698022" lon="8.030808"><ele>436.0</ele><time>2026-05-03T07:43:00.97Z</time></trkpt><trkpt lat="44.3697315" lon="8.0311869"><ele>436.0</ele><time>2026-05-03T07:43:01.965Z</time></trkpt><trkpt lat="44.3696724" lon="8.03157"><ele>440.0</ele><time>2026-05-03T07:43:02.968Z</time></trkpt><trkpt lat="44.3696376" lon="8.0319549"><ele>444.0</ele><time>2026-05-03T07:43:03.964Z</time></trkpt><trkpt lat="44.3696206" lon="8.0323549"><ele>442.0</ele><time>2026-05-03T07:43:04.972Z</time></trkpt><trkpt lat="44.3696158" lon="8.0327568"><ele>440.0</ele><time>2026-05-03T07:43:05.971Z</time></trkpt><trkpt lat="44.3696281" lon="8.0331492"><ele>444.0</ele><time>2026-05-03T07:43:06.982Z</time></trkpt><trkpt lat="44.3696624" lon="8.0335339"><ele>448.0</ele><time>2026-05-03T07:43:07.971Z</time></trkpt><trkpt lat="44.3697119" lon="8.0339138"><ele>435.0</ele><time>2026-05-03T07:43:08.972Z</time></trkpt><trkpt lat="44.3697783" lon="8.0342883"><ele>422.0</ele><time>2026-05-03T07:43:09.973Z</time></trkpt><trkpt lat="44.369863" lon="8.0346631"><ele>420.0</ele><time>2026-05-03T07:43:10.974Z</time></trkpt><trkpt lat="44.3699632" lon="8.0350185"><ele>418.0</ele><time>2026-05-03T07:43:11.978Z</time></trkpt><trkpt lat="44.3700657" lon="8.0353595"><ele>418.0</ele><time>2026-05-03T07:43:12.964Z</time></trkpt><trkpt lat="44.3701865" lon="8.035672"><ele>418.0</ele><time>2026-05-03T07:43:13.968Z</time></trkpt><trkpt lat="44.3703073" lon="8.0359672"><ele>418.0</ele><time>2026-05-03T07:43:14.97Z</time></trkpt><trkpt lat="44.3704316" lon="8.0362351"><ele>418.0</ele><time>2026-05-03T07:43:15.97Z</time></trkpt><trkpt lat="44.3705467" lon="8.0364766"><ele>418.0</ele><time>2026-05-03T07:43:16.972Z</time></trkpt><trkpt lat="44.3706688" lon="8.0366937"><ele>418.0</ele><time>2026-05-03T07:43:17.976Z</time></trkpt><trkpt lat="44.3707915" lon="8.0368975"><ele>418.0</ele><time>2026-05-03T07:43:18.962Z</time></trkpt><trkpt lat="44.3709088" lon="8.0370875"><ele>418.0</ele><time>2026-05-03T07:43:19.965Z</time></trkpt><trkpt lat="44.3710233" lon="8.0372643"><ele>418.0</ele><time>2026-05-03T07:43:20.97Z</time></trkpt><trkpt lat="44.3711271" lon="8.0374322"><ele>418.0</ele><time>2026-05-03T07:43:21.967Z</time></trkpt><trkpt lat="44.3712271" lon="8.0376066"><ele>418.0</ele><time>2026-05-03T07:43:22.975Z</time></trkpt><trkpt lat="44.3713266" lon="8.0377892"><ele>421.6666666666667</ele><time>2026-05-03T07:43:23.971Z</time></trkpt><trkpt lat="44.3714071" lon="8.0379882"><ele>425.33333333333337</ele><time>2026-05-03T07:43:24.977Z</time></trkpt><trkpt lat="44.3714434" lon="8.0382021"><ele>429.0</ele><time>2026-05-03T07:43:25.973Z</time></trkpt><trkpt lat="44.3714493" lon="8.038427"><ele>430.0</ele><time>2026-05-03T07:43:26.97Z</time></trkpt><trkpt lat="44.3714277" lon="8.0386243"><ele>431.0</ele><time>2026-05-03T07:43:27.976Z</time></trkpt><trkpt lat="44.3713913" lon="8.038808"><ele>432.0</ele><time>2026-05-03T07:43:28.969Z</time></trkpt><trkpt lat="44.3713791" lon="8.0389751"><ele>433.0</ele><time>2026-05-03T07:43:29.977Z</time></trkpt><trkpt lat="44.371424" lon="8.0391167"><ele>433.5</ele><time>2026-05-03T07:43:30.969Z</time></trkpt><trkpt lat="44.3715157" lon="8.0392287"><ele>434.0</ele><time>2026-05-03T07:43:31.959Z</time></trkpt><trkpt lat="44.3716241" lon="8.0392947"><ele>434.5</ele><time>2026-05-03T07:43:32.984Z</time></trkpt><trkpt lat="44.3717351" lon="8.0393016"><ele>435.0</ele><time>2026-05-03T07:43:33.964Z</time></trkpt><trkpt lat="44.3718489" lon="8.0392302"><ele>434.5</ele><time>2026-05-03T07:43:34.969Z</time></trkpt><trkpt lat="44.3719622" lon="8.0390914"><ele>434.0</ele><time>2026-05-03T07:43:35.968Z</time></trkpt><trkpt lat="44.3720626" lon="8.0389567"><ele>433.5</ele><time>2026-05-03T07:43:36.967Z</time></trkpt><trkpt lat="44.3721601" lon="8.0388418"><ele>433.0</ele><time>2026-05-03T07:43:37.965Z</time></trkpt><trkpt lat="44.3722534" lon="8.0387219"><ele>433.0</ele><time>2026-05-03T07:43:38.967Z</time></trkpt><trkpt lat="44.3723519" lon="8.03862"><ele>432.99999999999994</ele><time>2026-05-03T07:43:39.966Z</time></trkpt><trkpt lat="44.3724519" lon="8.0385388"><ele>432.99999999999994</ele><time>2026-05-03T07:43:40.97Z</time></trkpt><trkpt lat="44.3725489" lon="8.0385123"><ele>433.0</ele><time>2026-05-03T07:43:41.967Z</time></trkpt><trkpt lat="44.372648" lon="8.0385092"><ele>433.0</ele><time>2026-05-03T07:43:42.969Z</time></trkpt><trkpt lat="44.3727538" lon="8.0385265"><ele>433.0</ele><time>2026-05-03T07:43:43.966Z</time></trkpt><trkpt lat="44.3728614" lon="8.0385577"><ele>432.99999999999994</ele><time>2026-05-03T07:43:44.97Z</time></trkpt><trkpt lat="44.3729576" lon="8.0386053"><ele>432.99999999999994</ele><time>2026-05-03T07:43:45.97Z</time></trkpt><trkpt lat="44.3730513" lon="8.0386626"><ele>433.0</ele><time>2026-05-03T07:43:46.963Z</time></trkpt><trkpt lat="44.3731486" lon="8.0387295"><ele>433.0</ele><time>2026-05-03T07:43:47.967Z</time></trkpt><trkpt lat="44.3732483" lon="8.038801"><ele>433.0</ele><time>2026-05-03T07:43:48.966Z</time></trkpt><trkpt lat="44.3733431" lon="8.0388662"><ele>432.99999999999994</ele><time>2026-05-03T07:43:49.959Z</time></trkpt><trkpt lat="44.3734407" lon="8.0389316"><ele>432.99999999999994</ele><time>2026-05-03T07:43:50.968Z</time></trkpt><trkpt lat="44.3735397" lon="8.0389921"><ele>433.0</ele><time>2026-05-03T07:43:51.967Z</time></trkpt><trkpt lat="44.3736253" lon="8.0390455"><ele>433.0</ele><time>2026-05-03T07:43:52.969Z</time></trkpt><trkpt lat="44.3737023" lon="8.0390886"><ele>432.99999999999994</ele><time>2026-05-03T07:43:53.974Z</time></trkpt><trkpt lat="44.3737741" lon="8.0391284"><ele>433.0</ele><time>2026-05-03T07:43:54.964Z</time></trkpt><trkpt lat="44.3738417" lon="8.039171"><ele>433.0</ele><time>2026-05-03T07:43:55.965Z</time></trkpt><trkpt lat="44.3739176" lon="8.0392138"><ele>433.0</ele><time>2026-05-03T07:43:56.968Z</time></trkpt><trkpt lat="44.3739836" lon="8.0392618"><ele>433.0</ele><time>2026-05-03T07:43:57.964Z</time></trkpt><trkpt lat="44.3740362" lon="8.0393159"><ele>432.99999999999994</ele><time>2026-05-03T07:43:58.968Z</time></trkpt><trkpt lat="44.3740942" lon="8.0393803"><ele>433.0</ele><time>2026-05-03T07:43:59.972Z</time></trkpt><trkpt lat="44.3741515" lon="8.0394374"><ele>433.4</ele><time>2026-05-03T07:44:00.967Z</time></trkpt><trkpt lat="44.3742053" lon="8.0394932"><ele>433.79999999999995</ele><time>2026-05-03T07:44:01.965Z</time></trkpt><trkpt lat="44.3743053" lon="8.0395329"><ele>434.2</ele><time>2026-05-03T07:44:03.958Z</time></trkpt><trkpt lat="44.3744219" lon="8.0395295"><ele>434.6</ele><time>2026-05-03T07:45:15.972Z</time></trkpt><trkpt lat="44.3745059" lon="8.0395427"><ele>435.0</ele><time>2026-05-03T07:45:16.981Z</time></trkpt><trkpt lat="44.3745917" lon="8.0395949"><ele>435.0</ele><time>2026-05-03T07:45:17.995Z</time></trkpt><trkpt lat="44.3746736" lon="8.0396913"><ele>435.0</ele><time>2026-05-03T07:45:18.981Z</time></trkpt><trkpt lat="44.3747371" lon="8.0397981"><ele>435.0</ele><time>2026-05-03T07:45:19.97Z</time></trkpt><trkpt lat="44.3747759" lon="8.0399162"><ele>435.0</ele><time>2026-05-03T07:45:20.976Z</time></trkpt><trkpt lat="44.3748088" lon="8.0400404"><ele>435.0</ele><time>2026-05-03T07:45:21.97Z</time></trkpt><trkpt lat="44.3748101" lon="8.0401534"><ele>435.0</ele><time>2026-05-03T07:45:22.985Z</time></trkpt><trkpt lat="44.3747828" lon="8.0402638"><ele>435.0</ele><time>2026-05-03T07:45:23.982Z</time></trkpt><trkpt lat="44.3747317" lon="8.0403326"><ele>435.0</ele><time>2026-05-03T07:45:24.981Z</time></trkpt><trkpt lat="44.3746166" lon="8.0403622"><ele>435.0</ele><time>2026-05-03T07:45:26.987Z</time></trkpt><trkpt lat="44.3745326" lon="8.0403476"><ele>435.0</ele><time>2026-05-03T07:45:27.985Z</time></trkpt><trkpt lat="44.3744247" lon="8.0403309"><ele>435.0</ele><time>2026-05-03T07:45:28.989Z</time></trkpt><trkpt lat="44.3743083" lon="8.0403147"><ele>435.0</ele><time>2026-05-03T07:45:29.979Z</time></trkpt><trkpt lat="44.3741945" lon="8.0402897"><ele>435.0</ele><time>2026-05-03T07:45:30.972Z</time></trkpt><trkpt lat="44.3740616" lon="8.0402704"><ele>435.0</ele><time>2026-05-03T07:45:32.015Z</time></trkpt><trkpt lat="44.3739228" lon="8.0402256"><ele>435.33333333333337</ele><time>2026-05-03T07:45:32.981Z</time></trkpt><trkpt lat="44.3737698" lon="8.0401922"><ele>435.6666666666667</ele><time>2026-05-03T07:45:33.971Z</time></trkpt><trkpt lat="44.3736091" lon="8.0401573"><ele>436.0</ele><time>2026-05-03T07:45:34.972Z</time></trkpt><trkpt lat="44.3734431" lon="8.0401204"><ele>436.0</ele><time>2026-05-03T07:45:35.984Z</time></trkpt><trkpt lat="44.3732678" lon="8.0400767"><ele>436.0</ele><time>2026-05-03T07:45:36.976Z</time></trkpt><trkpt lat="44.3730881" lon="8.0400319"><ele>436.0</ele><time>2026-05-03T07:45:37.972Z</time></trkpt><trkpt lat="44.37291" lon="8.0399889"><ele>435.0</ele><time>2026-05-03T07:45:38.971Z</time></trkpt><trkpt lat="44.3727273" lon="8.039943"><ele>434.0</ele><time>2026-05-03T07:45:39.965Z</time></trkpt><trkpt lat="44.3725423" lon="8.0398914"><ele>433.0</ele><time>2026-05-03T07:45:40.972Z</time></trkpt><trkpt lat="44.3723375" lon="8.0398442"><ele>433.6666666666667</ele><time>2026-05-03T07:45:41.976Z</time></trkpt><trkpt lat="44.3721249" lon="8.0397919"><ele>434.33333333333337</ele><time>2026-05-03T07:45:42.973Z</time></trkpt><trkpt lat="44.371903" lon="8.039736"><ele>435.0</ele><time>2026-05-03T07:45:43.96Z</time></trkpt><trkpt lat="44.3716842" lon="8.0396844"><ele>435.0</ele><time>2026-05-03T07:45:44.976Z</time></trkpt><trkpt lat="44.3714746" lon="8.0396262"><ele>435.0</ele><time>2026-05-03T07:45:45.975Z</time></trkpt><trkpt lat="44.3712685" lon="8.0395753"><ele>435.0</ele><time>2026-05-03T07:45:46.979Z</time></trkpt><trkpt lat="44.3710727" lon="8.0395284"><ele>434.66666666666663</ele><time>2026-05-03T07:45:47.975Z</time></trkpt><trkpt lat="44.3708902" lon="8.0395039"><ele>434.3333333333333</ele><time>2026-05-03T07:45:48.969Z</time></trkpt><trkpt lat="44.3707092" lon="8.0395222"><ele>434.0</ele><time>2026-05-03T07:45:49.976Z</time></trkpt><trkpt lat="44.3705505" lon="8.0395801"><ele>435.0</ele><time>2026-05-03T07:45:50.977Z</time></trkpt><trkpt lat="44.3703876" lon="8.0396985"><ele>436.0</ele><time>2026-05-03T07:45:52.003Z</time></trkpt><trkpt lat="44.3702327" lon="8.0398636"><ele>437.0</ele><time>2026-05-03T07:45:52.967Z</time></trkpt><trkpt lat="44.3700903" lon="8.0400496"><ele>437.0</ele><time>2026-05-03T07:45:53.971Z</time></trkpt><trkpt lat="44.36994" lon="8.0402342"><ele>437.0</ele><time>2026-05-03T07:45:54.967Z</time></trkpt><trkpt lat="44.3698" lon="8.0404218"><ele>437.0</ele><time>2026-05-03T07:45:55.971Z</time></trkpt><trkpt lat="44.3696616" lon="8.0406247"><ele>431.3333333333333</ele><time>2026-05-03T07:45:56.968Z</time></trkpt><trkpt lat="44.3695322" lon="8.0408458"><ele>425.66666666666663</ele><time>2026-05-03T07:45:57.972Z</time></trkpt><trkpt lat="44.3693935" lon="8.0410723"><ele>420.0</ele><time>2026-05-03T07:45:58.965Z</time></trkpt><trkpt lat="44.3692655" lon="8.0412927"><ele>420.0</ele><time>2026-05-03T07:45:59.97Z</time></trkpt><trkpt lat="44.3691374" lon="8.0414973"><ele>420.0</ele><time>2026-05-03T07:46:00.967Z</time></trkpt><trkpt lat="44.3690133" lon="8.0417111"><ele>420.0</ele><time>2026-05-03T07:46:01.962Z</time></trkpt><trkpt lat="44.3688953" lon="8.041917"><ele>415.33333333333337</ele><time>2026-05-03T07:46:02.98Z</time></trkpt><trkpt lat="44.3687753" lon="8.0421072"><ele>410.6666666666667</ele><time>2026-05-03T07:46:03.968Z</time></trkpt><trkpt lat="44.368659" lon="8.0422901"><ele>406.0</ele><time>2026-05-03T07:46:04.968Z</time></trkpt><trkpt lat="44.3685532" lon="8.0424564"><ele>414.6666666666667</ele><time>2026-05-03T07:46:05.969Z</time></trkpt><trkpt lat="44.3684447" lon="8.0426093"><ele>423.33333333333337</ele><time>2026-05-03T07:46:06.968Z</time></trkpt><trkpt lat="44.3683355" lon="8.0427481"><ele>432.0</ele><time>2026-05-03T07:46:07.967Z</time></trkpt><trkpt lat="44.3682198" lon="8.0428776"><ele>432.0</ele><time>2026-05-03T07:46:08.971Z</time></trkpt><trkpt lat="44.3681046" lon="8.042996"><ele>432.0</ele><time>2026-05-03T07:46:09.969Z</time></trkpt><trkpt lat="44.3679853" lon="8.0431069"><ele>432.0</ele><time>2026-05-03T07:46:10.963Z</time></trkpt><trkpt lat="44.367866" lon="8.043217"><ele>432.0</ele><time>2026-05-03T07:46:11.987Z</time></trkpt><trkpt lat="44.3677428" lon="8.0433173"><ele>432.25</ele><time>2026-05-03T07:46:12.963Z</time></trkpt><trkpt lat="44.3676217" lon="8.0434042"><ele>432.5</ele><time>2026-05-03T07:46:13.968Z</time></trkpt><trkpt lat="44.3674946" lon="8.0434641"><ele>432.75</ele><time>2026-05-03T07:46:14.965Z</time></trkpt><trkpt lat="44.3673724" lon="8.0435176"><ele>433.0</ele><time>2026-05-03T07:46:15.958Z</time></trkpt><trkpt lat="44.3672424" lon="8.0435649"><ele>427.25</ele><time>2026-05-03T07:46:16.982Z</time></trkpt><trkpt lat="44.3671164" lon="8.0436203"><ele>421.5</ele><time>2026-05-03T07:46:17.964Z</time></trkpt><trkpt lat="44.3669975" lon="8.043697"><ele>415.75</ele><time>2026-05-03T07:46:18.961Z</time></trkpt><trkpt lat="44.3668902" lon="8.0437914"><ele>410.0</ele><time>2026-05-03T07:46:19.966Z</time></trkpt><trkpt lat="44.3667864" lon="8.0439027"><ele>410.0</ele><time>2026-05-03T07:46:20.97Z</time></trkpt><trkpt lat="44.3666901" lon="8.0440333"><ele>410.0</ele><time>2026-05-03T07:46:21.964Z</time></trkpt><trkpt lat="44.3666172" lon="8.0441836"><ele>410.0</ele><time>2026-05-03T07:46:22.963Z</time></trkpt><trkpt lat="44.3665629" lon="8.0443373"><ele>410.0</ele><time>2026-05-03T07:46:23.97Z</time></trkpt><trkpt lat="44.3665234" lon="8.0445033"><ele>414.5</ele><time>2026-05-03T07:46:24.982Z</time></trkpt><trkpt lat="44.3665033" lon="8.0446808"><ele>419.0</ele><time>2026-05-03T07:46:25.97Z</time></trkpt><trkpt lat="44.3664932" lon="8.0448783"><ele>423.5</ele><time>2026-05-03T07:46:26.969Z</time></trkpt><trkpt lat="44.3665023" lon="8.0450633"><ele>428.0</ele><time>2026-05-03T07:46:27.971Z</time></trkpt><trkpt lat="44.366525" lon="8.0452504"><ele>429.5</ele><time>2026-05-03T07:46:29.023Z</time></trkpt><trkpt lat="44.3665595" lon="8.0454367"><ele>431.0</ele><time>2026-05-03T07:46:29.978Z</time></trkpt><trkpt lat="44.3665928" lon="8.0456205"><ele>432.5</ele><time>2026-05-03T07:46:30.968Z</time></trkpt><trkpt lat="44.3666256" lon="8.0458089"><ele>434.0</ele><time>2026-05-03T07:46:31.972Z</time></trkpt><trkpt lat="44.3666474" lon="8.0460099"><ele>434.0</ele><time>2026-05-03T07:46:32.967Z</time></trkpt><trkpt lat="44.3666567" lon="8.0462021"><ele>434.0</ele><time>2026-05-03T07:46:33.971Z</time></trkpt><trkpt lat="44.3666622" lon="8.0464007"><ele>434.0</ele><time>2026-05-03T07:46:34.97Z</time></trkpt><trkpt lat="44.3666632" lon="8.046601"><ele>434.0</ele><time>2026-05-03T07:46:35.972Z</time></trkpt><trkpt lat="44.3666652" lon="8.046806"><ele>436.3333333333333</ele><time>2026-05-03T07:46:36.968Z</time></trkpt><trkpt lat="44.3666687" lon="8.0470135"><ele>438.66666666666663</ele><time>2026-05-03T07:46:37.969Z</time></trkpt><trkpt lat="44.3666676" lon="8.0472288"><ele>441.0</ele><time>2026-05-03T07:46:38.962Z</time></trkpt><trkpt lat="44.3666675" lon="8.047457"><ele>441.33333333333337</ele><time>2026-05-03T07:46:39.966Z</time></trkpt><trkpt lat="44.3666681" lon="8.0476922"><ele>441.6666666666667</ele><time>2026-05-03T07:46:40.968Z</time></trkpt><trkpt lat="44.366655" lon="8.0479184"><ele>442.0</ele><time>2026-05-03T07:46:41.966Z</time></trkpt><trkpt lat="44.3666325" lon="8.048136"><ele>443.25</ele><time>2026-05-03T07:46:42.967Z</time></trkpt><trkpt lat="44.3666104" lon="8.0483402"><ele>444.5</ele><time>2026-05-03T07:46:43.961Z</time></trkpt><trkpt lat="44.366584" lon="8.0485414"><ele>445.75</ele><time>2026-05-03T07:46:44.965Z</time></trkpt><trkpt lat="44.3665575" lon="8.0487482"><ele>447.0</ele><time>2026-05-03T07:46:45.964Z</time></trkpt><trkpt lat="44.3665395" lon="8.0489625"><ele>447.66666666666663</ele><time>2026-05-03T07:46:46.965Z</time></trkpt><trkpt lat="44.366534" lon="8.04918"><ele>448.3333333333333</ele><time>2026-05-03T07:46:47.966Z</time></trkpt><trkpt lat="44.3665417" lon="8.049402"><ele>449.0</ele><time>2026-05-03T07:46:48.964Z</time></trkpt><trkpt lat="44.3665595" lon="8.0496272"><ele>449.0</ele><time>2026-05-03T07:46:49.978Z</time></trkpt><trkpt lat="44.3665723" lon="8.0498498"><ele>449.0</ele><time>2026-05-03T07:46:50.961Z</time></trkpt><trkpt lat="44.3665867" lon="8.0500735"><ele>449.0</ele><time>2026-05-03T07:46:51.971Z</time></trkpt><trkpt lat="44.3665983" lon="8.0502978"><ele>448.66666666666663</ele><time>2026-05-03T07:46:52.963Z</time></trkpt><trkpt lat="44.3666099" lon="8.050519"><ele>448.33333333333337</ele><time>2026-05-03T07:46:53.958Z</time></trkpt><trkpt lat="44.3666183" lon="8.0507352"><ele>448.0</ele><time>2026-05-03T07:46:54.965Z</time></trkpt><trkpt lat="44.3666295" lon="8.0509473"><ele>446.0</ele><time>2026-05-03T07:46:55.949Z</time></trkpt><trkpt lat="44.3666419" lon="8.0511538"><ele>444.0</ele><time>2026-05-03T07:46:56.963Z</time></trkpt><trkpt lat="44.3666501" lon="8.0513742"><ele>442.0</ele><time>2026-05-03T07:46:57.96Z</time></trkpt><trkpt lat="44.3666447" lon="8.0515935"><ele>442.33333333333337</ele><time>2026-05-03T07:46:58.958Z</time></trkpt><trkpt lat="44.3666276" lon="8.0518201"><ele>442.66666666666663</ele><time>2026-05-03T07:46:59.97Z</time></trkpt><trkpt lat="44.3666053" lon="8.0520638"><ele>443.0</ele><time>2026-05-03T07:47:00.969Z</time></trkpt><trkpt lat="44.366583" lon="8.0523258"><ele>445.3333333333333</ele><time>2026-05-03T07:47:01.965Z</time></trkpt><trkpt lat="44.3665476" lon="8.0525972"><ele>447.66666666666663</ele><time>2026-05-03T07:47:02.967Z</time></trkpt><trkpt lat="44.3665148" lon="8.0528601"><ele>450.0</ele><time>2026-05-03T07:47:03.964Z</time></trkpt><trkpt lat="44.3664844" lon="8.0531361"><ele>451.66666666666663</ele><time>2026-05-03T07:47:04.96Z</time></trkpt><trkpt lat="44.3664502" lon="8.0534263"><ele>453.3333333333333</ele><time>2026-05-03T07:47:05.963Z</time></trkpt><trkpt lat="44.3663911" lon="8.0537429"><ele>455.0</ele><time>2026-05-03T07:47:06.966Z</time></trkpt><trkpt lat="44.3663144" lon="8.0540936"><ele>441.0</ele><time>2026-05-03T07:47:07.967Z</time></trkpt><trkpt lat="44.3662135" lon="8.0544677"><ele>427.0</ele><time>2026-05-03T07:47:08.97Z</time></trkpt><trkpt lat="44.3660986" lon="8.0548418"><ele>429.5</ele><time>2026-05-03T07:47:09.959Z</time></trkpt><trkpt lat="44.3659732" lon="8.0551991"><ele>432.0</ele><time>2026-05-03T07:47:10.969Z</time></trkpt><trkpt lat="44.3658724" lon="8.0555199"><ele>438.0</ele><time>2026-05-03T07:47:11.972Z</time></trkpt><trkpt lat="44.3657724" lon="8.0558387"><ele>444.0</ele><time>2026-05-03T07:47:12.996Z</time></trkpt><trkpt lat="44.3656806" lon="8.0561469"><ele>444.0</ele><time>2026-05-03T07:47:13.964Z</time></trkpt><trkpt lat="44.3655904" lon="8.0564443"><ele>444.0</ele><time>2026-05-03T07:47:14.976Z</time></trkpt><trkpt lat="44.3654961" lon="8.0567355"><ele>438.66666666666663</ele><time>2026-05-03T07:47:15.964Z</time></trkpt><trkpt lat="44.3654028" lon="8.0569971"><ele>433.3333333333333</ele><time>2026-05-03T07:47:16.969Z</time></trkpt><trkpt lat="44.3652904" lon="8.0572203"><ele>428.0</ele><time>2026-05-03T07:47:17.97Z</time></trkpt><trkpt lat="44.365156" lon="8.0574205"><ele>428.66666666666663</ele><time>2026-05-03T07:47:18.97Z</time></trkpt><trkpt lat="44.3650043" lon="8.0575889"><ele>429.33333333333337</ele><time>2026-05-03T07:47:19.965Z</time></trkpt><trkpt lat="44.3648231" lon="8.0577133"><ele>430.0</ele><time>2026-05-03T07:47:20.958Z</time></trkpt><trkpt lat="44.3646332" lon="8.0578386"><ele>430.0</ele><time>2026-05-03T07:47:21.963Z</time></trkpt><trkpt lat="44.3644319" lon="8.0579439"><ele>430.0</ele><time>2026-05-03T07:47:22.963Z</time></trkpt><trkpt lat="44.3642231" lon="8.0580365"><ele>430.0</ele><time>2026-05-03T07:47:23.963Z</time></trkpt><trkpt lat="44.3640073" lon="8.0581045"><ele>429.33333333333337</ele><time>2026-05-03T07:47:24.957Z</time></trkpt><trkpt lat="44.3638013" lon="8.0581792"><ele>428.66666666666663</ele><time>2026-05-03T07:47:25.955Z</time></trkpt><trkpt lat="44.3636093" lon="8.0582481"><ele>428.0</ele><time>2026-05-03T07:47:26.956Z</time></trkpt><trkpt lat="44.363431" lon="8.0582817"><ele>428.0</ele><time>2026-05-03T07:47:27.953Z</time></trkpt><trkpt lat="44.3632577" lon="8.0582657"><ele>428.0</ele><time>2026-05-03T07:47:29.028Z</time></trkpt><trkpt lat="44.363081" lon="8.0581868"><ele>428.0</ele><time>2026-05-03T07:47:29.982Z</time></trkpt><trkpt lat="44.362906" lon="8.0581098"><ele>432.3333333333333</ele><time>2026-05-03T07:47:30.988Z</time></trkpt><trkpt lat="44.3627348" lon="8.0579637"><ele>436.66666666666663</ele><time>2026-05-03T07:47:31.99Z</time></trkpt><trkpt lat="44.3625558" lon="8.0578119"><ele>441.0</ele><time>2026-05-03T07:47:32.996Z</time></trkpt><trkpt lat="44.3623616" lon="8.057665"><ele>441.0</ele><time>2026-05-03T07:47:34.012Z</time></trkpt><trkpt lat="44.3621555" lon="8.0574997"><ele>441.0</ele><time>2026-05-03T07:47:34.998Z</time></trkpt><trkpt lat="44.3619547" lon="8.0573312"><ele>441.0</ele><time>2026-05-03T07:47:35.998Z</time></trkpt><trkpt lat="44.361748" lon="8.057156"><ele>441.0</ele><time>2026-05-03T07:47:36.999Z</time></trkpt><trkpt lat="44.3615462" lon="8.0569779"><ele>452.0</ele><time>2026-05-03T07:47:37.999Z</time></trkpt><trkpt lat="44.361332" lon="8.0568032"><ele>463.0</ele><time>2026-05-03T07:47:39.002Z</time></trkpt><trkpt lat="44.3611191" lon="8.056627"><ele>449.5</ele><time>2026-05-03T07:47:40Z</time></trkpt><trkpt lat="44.3609045" lon="8.056451"><ele>436.0</ele><time>2026-05-03T07:47:41.002Z</time></trkpt><trkpt lat="44.3606853" lon="8.0562718"><ele>447.5</ele><time>2026-05-03T07:47:42.006Z</time></trkpt><trkpt lat="44.3604732" lon="8.0560905"><ele>459.0</ele><time>2026-05-03T07:47:43.008Z</time></trkpt><trkpt lat="44.3602585" lon="8.0559079"><ele>449.5</ele><time>2026-05-03T07:47:44.002Z</time></trkpt><trkpt lat="44.3600405" lon="8.0557324"><ele>440.0</ele><time>2026-05-03T07:47:45.008Z</time></trkpt><trkpt lat="44.3598205" lon="8.0555518"><ele>447.0</ele><time>2026-05-03T07:47:46.008Z</time></trkpt><trkpt lat="44.3596052" lon="8.0553653"><ele>454.0</ele><time>2026-05-03T07:47:47.005Z</time></trkpt><trkpt lat="44.3593888" lon="8.0551711"><ele>454.0</ele><time>2026-05-03T07:47:48.011Z</time></trkpt><trkpt lat="44.3591757" lon="8.0549661"><ele>454.0</ele><time>2026-05-03T07:47:49.014Z</time></trkpt><trkpt lat="44.3589686" lon="8.054757"><ele>455.0</ele><time>2026-05-03T07:47:50.011Z</time></trkpt><trkpt lat="44.3587686" lon="8.0545278"><ele>456.0</ele><time>2026-05-03T07:47:51.03Z</time></trkpt><trkpt lat="44.3585666" lon="8.0543005"><ele>453.5</ele><time>2026-05-03T07:47:52.011Z</time></trkpt><trkpt lat="44.3583661" lon="8.0540679"><ele>451.0</ele><time>2026-05-03T07:47:52.996Z</time></trkpt><trkpt lat="44.3581565" lon="8.0538342"><ele>460.5</ele><time>2026-05-03T07:47:54.022Z</time></trkpt><trkpt lat="44.3579601" lon="8.053613"><ele>470.0</ele><time>2026-05-03T07:47:55.022Z</time></trkpt><trkpt lat="44.3577774" lon="8.0533924"><ele>464.0</ele><time>2026-05-03T07:47:56.023Z</time></trkpt><trkpt lat="44.3576085" lon="8.0531881"><ele>458.0</ele><time>2026-05-03T07:47:57.014Z</time></trkpt><trkpt lat="44.3574405" lon="8.053012"><ele>452.0</ele><time>2026-05-03T07:47:58.022Z</time></trkpt><trkpt lat="44.3572903" lon="8.0529082"><ele>451.66666666666663</ele><time>2026-05-03T07:47:59.01Z</time></trkpt><trkpt lat="44.3571167" lon="8.0528566"><ele>451.33333333333337</ele><time>2026-05-03T07:48:00.008Z</time></trkpt><trkpt lat="44.3569463" lon="8.0528744"><ele>451.0</ele><time>2026-05-03T07:48:01.008Z</time></trkpt><trkpt lat="44.356782" lon="8.0529638"><ele>451.0</ele><time>2026-05-03T07:48:02.009Z</time></trkpt><trkpt lat="44.3566292" lon="8.0531109"><ele>451.0</ele><time>2026-05-03T07:48:03.005Z</time></trkpt><trkpt lat="44.3564842" lon="8.0532992"><ele>451.0</ele><time>2026-05-03T07:48:04.012Z</time></trkpt><trkpt lat="44.3563357" lon="8.053494"><ele>450.33333333333337</ele><time>2026-05-03T07:48:05.017Z</time></trkpt><trkpt lat="44.3561746" lon="8.0536708"><ele>449.66666666666663</ele><time>2026-05-03T07:48:06.007Z</time></trkpt><trkpt lat="44.3560015" lon="8.053818"><ele>449.0</ele><time>2026-05-03T07:48:07.007Z</time></trkpt><trkpt lat="44.3558238" lon="8.0539592"><ele>449.0</ele><time>2026-05-03T07:48:08.003Z</time></trkpt><trkpt lat="44.355628" lon="8.054079"><ele>449.0</ele><time>2026-05-03T07:48:09.017Z</time></trkpt><trkpt lat="44.3554331" lon="8.0541997"><ele>449.0</ele><time>2026-05-03T07:48:10.007Z</time></trkpt><trkpt lat="44.3552309" lon="8.0543087"><ele>458.5</ele><time>2026-05-03T07:48:11.013Z</time></trkpt><trkpt lat="44.3549917" lon="8.0543556"><ele>468.0</ele><time>2026-05-03T07:48:11.97Z</time></trkpt><trkpt lat="44.3547824" lon="8.0544402"><ele>463.33333333333337</ele><time>2026-05-03T07:48:12.97Z</time></trkpt><trkpt lat="44.3545818" lon="8.0545198"><ele>458.6666666666667</ele><time>2026-05-03T07:48:13.96Z</time></trkpt><trkpt lat="44.3544002" lon="8.0545956"><ele>454.0</ele><time>2026-05-03T07:48:14.975Z</time></trkpt><trkpt lat="44.354235" lon="8.054692"><ele>454.0</ele><time>2026-05-03T07:48:15.968Z</time></trkpt><trkpt lat="44.3540877" lon="8.0548183"><ele>454.0</ele><time>2026-05-03T07:48:16.966Z</time></trkpt><trkpt lat="44.3539685" lon="8.055012"><ele>454.0</ele><time>2026-05-03T07:48:17.972Z</time></trkpt><trkpt lat="44.3538473" lon="8.0552239"><ele>457.0</ele><time>2026-05-03T07:48:18.959Z</time></trkpt><trkpt lat="44.3537198" lon="8.0553828"><ele>460.0</ele><time>2026-05-03T07:48:19.976Z</time></trkpt><trkpt lat="44.3535565" lon="8.0554893"><ele>463.0</ele><time>2026-05-03T07:48:20.966Z</time></trkpt><trkpt lat="44.3533715" lon="8.055572"><ele>463.0</ele><time>2026-05-03T07:48:21.96Z</time></trkpt><trkpt lat="44.3531744" lon="8.0556289"><ele>463.0</ele><time>2026-05-03T07:48:22.966Z</time></trkpt><trkpt lat="44.3529655" lon="8.0556893"><ele>463.0</ele><time>2026-05-03T07:48:23.97Z</time></trkpt><trkpt lat="44.3527564" lon="8.0557419"><ele>462.6666666666667</ele><time>2026-05-03T07:48:24.964Z</time></trkpt><trkpt lat="44.3525497" lon="8.0557954"><ele>462.33333333333337</ele><time>2026-05-03T07:48:25.966Z</time></trkpt><trkpt lat="44.3523471" lon="8.0558476"><ele>462.0</ele><time>2026-05-03T07:48:26.969Z</time></trkpt><trkpt lat="44.3521431" lon="8.0559008"><ele>462.0</ele><time>2026-05-03T07:48:27.963Z</time></trkpt><trkpt lat="44.3519356" lon="8.0559491"><ele>462.0</ele><time>2026-05-03T07:48:28.969Z</time></trkpt><trkpt lat="44.3517312" lon="8.0559953"><ele>462.0</ele><time>2026-05-03T07:48:29.961Z</time></trkpt><trkpt lat="44.3515238" lon="8.056045"><ele>459.66666666666663</ele><time>2026-05-03T07:48:30.97Z</time></trkpt><trkpt lat="44.3513183" lon="8.0560933"><ele>457.3333333333333</ele><time>2026-05-03T07:48:31.957Z</time></trkpt><trkpt lat="44.3511059" lon="8.0561434"><ele>455.0</ele><time>2026-05-03T07:48:32.964Z</time></trkpt><trkpt lat="44.3508902" lon="8.056195"><ele>455.0</ele><time>2026-05-03T07:48:33.967Z</time></trkpt><trkpt lat="44.3506674" lon="8.0562496"><ele>455.0</ele><time>2026-05-03T07:48:34.962Z</time></trkpt><trkpt lat="44.3504375" lon="8.0563067"><ele>455.0</ele><time>2026-05-03T07:48:35.961Z</time></trkpt><trkpt lat="44.3502069" lon="8.0563614"><ele>455.0</ele><time>2026-05-03T07:48:36.974Z</time></trkpt><trkpt lat="44.3499739" lon="8.0564122"><ele>455.0</ele><time>2026-05-03T07:48:37.975Z</time></trkpt><trkpt lat="44.3497479" lon="8.05645"><ele>455.0</ele><time>2026-05-03T07:48:38.967Z</time></trkpt><trkpt lat="44.3495354" lon="8.0564587"><ele>455.0</ele><time>2026-05-03T07:48:39.967Z</time></trkpt><trkpt lat="44.3493274" lon="8.0564385"><ele>454.0</ele><time>2026-05-03T07:48:40.962Z</time></trkpt><trkpt lat="44.3491411" lon="8.0564245"><ele>453.0</ele><time>2026-05-03T07:48:41.972Z</time></trkpt><trkpt lat="44.3489629" lon="8.0564538"><ele>452.0</ele><time>2026-05-03T07:48:42.968Z</time></trkpt><trkpt lat="44.3487913" lon="8.0565479"><ele>452.3333333333333</ele><time>2026-05-03T07:48:43.97Z</time></trkpt><trkpt lat="44.3486333" lon="8.0566807"><ele>452.66666666666663</ele><time>2026-05-03T07:48:44.961Z</time></trkpt><trkpt lat="44.3484946" lon="8.0568873"><ele>453.0</ele><time>2026-05-03T07:48:45.961Z</time></trkpt><trkpt lat="44.3483686" lon="8.0571445"><ele>453.0</ele><time>2026-05-03T07:48:46.963Z</time></trkpt><trkpt lat="44.348234" lon="8.0574035"><ele>453.0</ele><time>2026-05-03T07:48:47.967Z</time></trkpt><trkpt lat="44.3480705" lon="8.0576321"><ele>452.33333333333337</ele><time>2026-05-03T07:48:48.961Z</time></trkpt><trkpt lat="44.3478821" lon="8.0578188"><ele>451.6666666666667</ele><time>2026-05-03T07:48:49.979Z</time></trkpt><trkpt lat="44.3477004" lon="8.0579813"><ele>451.0</ele><time>2026-05-03T07:48:50.966Z</time></trkpt><trkpt lat="44.3475268" lon="8.0581509"><ele>451.33333333333337</ele><time>2026-05-03T07:48:51.963Z</time></trkpt><trkpt lat="44.3473567" lon="8.0583182"><ele>451.66666666666663</ele><time>2026-05-03T07:48:52.956Z</time></trkpt><trkpt lat="44.3471937" lon="8.0584891"><ele>452.0</ele><time>2026-05-03T07:48:53.966Z</time></trkpt><trkpt lat="44.3470376" lon="8.0586477"><ele>452.0</ele><time>2026-05-03T07:48:54.969Z</time></trkpt><trkpt lat="44.3468858" lon="8.0587947"><ele>452.0</ele><time>2026-05-03T07:48:55.97Z</time></trkpt><trkpt lat="44.3467482" lon="8.0589328"><ele>452.0</ele><time>2026-05-03T07:48:56.967Z</time></trkpt><trkpt lat="44.3466117" lon="8.0590769"><ele>453.3333333333333</ele><time>2026-05-03T07:48:57.962Z</time></trkpt><trkpt lat="44.346468" lon="8.0592182"><ele>454.66666666666663</ele><time>2026-05-03T07:48:58.965Z</time></trkpt><trkpt lat="44.3463162" lon="8.0593616"><ele>456.0</ele><time>2026-05-03T07:48:59.962Z</time></trkpt><trkpt lat="44.3461446" lon="8.0594897"><ele>453.0</ele><time>2026-05-03T07:49:00.977Z</time></trkpt><trkpt lat="44.3459534" lon="8.0595997"><ele>450.0</ele><time>2026-05-03T07:49:01.963Z</time></trkpt><trkpt lat="44.3457574" lon="8.0596945"><ele>447.0</ele><time>2026-05-03T07:49:02.965Z</time></trkpt><trkpt lat="44.3455645" lon="8.0597827"><ele>448.33333333333337</ele><time>2026-05-03T07:49:03.96Z</time></trkpt><trkpt lat="44.3453907" lon="8.0598664"><ele>449.6666666666667</ele><time>2026-05-03T07:49:04.959Z</time></trkpt><trkpt lat="44.3452333" lon="8.0599825"><ele>451.0</ele><time>2026-05-03T07:49:05.972Z</time></trkpt><trkpt lat="44.3450905" lon="8.060158"><ele>451.33333333333337</ele><time>2026-05-03T07:49:06.965Z</time></trkpt><trkpt lat="44.34497" lon="8.0603786"><ele>451.66666666666663</ele><time>2026-05-03T07:49:07.961Z</time></trkpt><trkpt lat="44.3448598" lon="8.0606179"><ele>452.0</ele><time>2026-05-03T07:49:08.966Z</time></trkpt><trkpt lat="44.3447549" lon="8.0608641"><ele>455.66666666666663</ele><time>2026-05-03T07:49:09.964Z</time></trkpt><trkpt lat="44.3446474" lon="8.0611002"><ele>459.33333333333337</ele><time>2026-05-03T07:49:10.971Z</time></trkpt><trkpt lat="44.3445452" lon="8.0613211"><ele>463.0</ele><time>2026-05-03T07:49:11.962Z</time></trkpt><trkpt lat="44.3444457" lon="8.0615382"><ele>461.6666666666667</ele><time>2026-05-03T07:49:12.972Z</time></trkpt><trkpt lat="44.3443539" lon="8.06174"><ele>460.33333333333337</ele><time>2026-05-03T07:49:13.969Z</time></trkpt><trkpt lat="44.3442642" lon="8.0619259"><ele>459.0</ele><time>2026-05-03T07:49:14.965Z</time></trkpt><trkpt lat="44.3441628" lon="8.0620813"><ele>459.0</ele><time>2026-05-03T07:49:15.968Z</time></trkpt><trkpt lat="44.3440229" lon="8.0621998"><ele>459.0</ele><time>2026-05-03T07:49:16.974Z</time></trkpt><trkpt lat="44.3438714" lon="8.0622681"><ele>459.0</ele><time>2026-05-03T07:49:17.983Z</time></trkpt><trkpt lat="44.3437109" lon="8.0622703"><ele>461.0</ele><time>2026-05-03T07:49:18.964Z</time></trkpt><trkpt lat="44.3435504" lon="8.0622169"><ele>463.0</ele><time>2026-05-03T07:49:19.962Z</time></trkpt><trkpt lat="44.3433811" lon="8.0621157"><ele>465.0</ele><time>2026-05-03T07:49:20.965Z</time></trkpt><trkpt lat="44.3432153" lon="8.0619922"><ele>465.0</ele><time>2026-05-03T07:49:21.967Z</time></trkpt><trkpt lat="44.3430507" lon="8.0618611"><ele>465.0</ele><time>2026-05-03T07:49:22.966Z</time></trkpt><trkpt lat="44.3428931" lon="8.0617272"><ele>465.0</ele><time>2026-05-03T07:49:23.957Z</time></trkpt><trkpt lat="44.3427507" lon="8.0616022"><ele>467.25</ele><time>2026-05-03T07:49:24.964Z</time></trkpt><trkpt lat="44.3426455" lon="8.0615127"><ele>469.5</ele><time>2026-05-03T07:49:25.965Z</time></trkpt><trkpt lat="44.3425479" lon="8.0614301"><ele>471.75</ele><time>2026-05-03T07:49:26.974Z</time></trkpt><trkpt lat="44.3424447" lon="8.0613503"><ele>474.0</ele><time>2026-05-03T07:49:27.964Z</time></trkpt><trkpt lat="44.3423411" lon="8.0612605"><ele>474.0</ele><time>2026-05-03T07:49:28.975Z</time></trkpt><trkpt lat="44.3422395" lon="8.061174"><ele>474.0</ele><time>2026-05-03T07:49:29.963Z</time></trkpt><trkpt lat="44.3421358" lon="8.0610871"><ele>474.0</ele><time>2026-05-03T07:49:30.963Z</time></trkpt><trkpt lat="44.3420316" lon="8.0610007"><ele>474.0</ele><time>2026-05-03T07:49:31.958Z</time></trkpt><trkpt lat="44.3419257" lon="8.0609186"><ele>476.75</ele><time>2026-05-03T07:49:32.968Z</time></trkpt><trkpt lat="44.3418107" lon="8.0608389"><ele>479.5</ele><time>2026-05-03T07:49:33.97Z</time></trkpt><trkpt lat="44.3416925" lon="8.0607573"><ele>482.25</ele><time>2026-05-03T07:49:34.968Z</time></trkpt><trkpt lat="44.3415713" lon="8.0606783"><ele>485.0</ele><time>2026-05-03T07:49:35.962Z</time></trkpt><trkpt lat="44.3414517" lon="8.0605966"><ele>480.75</ele><time>2026-05-03T07:49:36.967Z</time></trkpt><trkpt lat="44.3413415" lon="8.0605156"><ele>476.5</ele><time>2026-05-03T07:49:37.969Z</time></trkpt><trkpt lat="44.3412257" lon="8.0604354"><ele>472.25</ele><time>2026-05-03T07:49:38.964Z</time></trkpt><trkpt lat="44.3411032" lon="8.0603604"><ele>468.0</ele><time>2026-05-03T07:49:39.968Z</time></trkpt><trkpt lat="44.3409857" lon="8.0602804"><ele>468.0</ele><time>2026-05-03T07:49:40.976Z</time></trkpt><trkpt lat="44.3408761" lon="8.0601903"><ele>468.0</ele><time>2026-05-03T07:49:41.966Z</time></trkpt><trkpt lat="44.3407604" lon="8.0601127"><ele>468.0</ele><time>2026-05-03T07:49:42.964Z</time></trkpt><trkpt lat="44.340649" lon="8.0600397"><ele>468.0</ele><time>2026-05-03T07:49:43.962Z</time></trkpt><trkpt lat="44.3405384" lon="8.0599606"><ele>468.0</ele><time>2026-05-03T07:49:44.966Z</time></trkpt><trkpt lat="44.3404407" lon="8.059897"><ele>467.99999999999994</ele><time>2026-05-03T07:49:45.969Z</time></trkpt><trkpt lat="44.3403413" lon="8.0598337"><ele>467.99999999999994</ele><time>2026-05-03T07:49:46.97Z</time></trkpt><trkpt lat="44.3402488" lon="8.0597473"><ele>468.0</ele><time>2026-05-03T07:49:47.968Z</time></trkpt><trkpt lat="44.3401437" lon="8.0596675"><ele>468.0</ele><time>2026-05-03T07:49:48.953Z</time></trkpt><trkpt lat="44.340037" lon="8.059588"><ele>468.0</ele><time>2026-05-03T07:49:49.957Z</time></trkpt><trkpt lat="44.3399242" lon="8.059507"><ele>468.0</ele><time>2026-05-03T07:49:50.959Z</time></trkpt><trkpt lat="44.3397997" lon="8.0594325"><ele>468.0</ele><time>2026-05-03T07:49:51.958Z</time></trkpt><trkpt lat="44.3396681" lon="8.0593413"><ele>468.0</ele><time>2026-05-03T07:49:52.968Z</time></trkpt><trkpt lat="44.3395342" lon="8.0592494"><ele>467.0</ele><time>2026-05-03T07:49:53.967Z</time></trkpt><trkpt lat="44.3394053" lon="8.0591545"><ele>466.0</ele><time>2026-05-03T07:49:54.964Z</time></trkpt><trkpt lat="44.3392784" lon="8.0590463"><ele>465.0</ele><time>2026-05-03T07:49:55.965Z</time></trkpt><trkpt lat="44.339159" lon="8.0589284"><ele>464.0</ele><time>2026-05-03T07:49:56.964Z</time></trkpt><trkpt lat="44.3390369" lon="8.0588171"><ele>464.0</ele><time>2026-05-03T07:49:57.963Z</time></trkpt><trkpt lat="44.3389175" lon="8.0587073"><ele>464.0</ele><time>2026-05-03T07:49:58.967Z</time></trkpt><trkpt lat="44.3387991" lon="8.0585906"><ele>464.0</ele><time>2026-05-03T07:49:59.965Z</time></trkpt><trkpt lat="44.3386795" lon="8.0584762"><ele>464.0</ele><time>2026-05-03T07:50:00.961Z</time></trkpt><trkpt lat="44.3385594" lon="8.0583699"><ele>463.25</ele><time>2026-05-03T07:50:01.972Z</time></trkpt><trkpt lat="44.3384444" lon="8.0582592"><ele>462.5</ele><time>2026-05-03T07:50:02.964Z</time></trkpt><trkpt lat="44.3383264" lon="8.0581543"><ele>461.75</ele><time>2026-05-03T07:50:03.976Z</time></trkpt><trkpt lat="44.3382116" lon="8.0580434"><ele>461.0</ele><time>2026-05-03T07:50:04.973Z</time></trkpt><trkpt lat="44.3380967" lon="8.057929"><ele>460.6</ele><time>2026-05-03T07:50:05.972Z</time></trkpt><trkpt lat="44.337995" lon="8.0578243"><ele>460.20000000000005</ele><time>2026-05-03T07:50:06.974Z</time></trkpt><trkpt lat="44.3378976" lon="8.0577285"><ele>459.79999999999995</ele><time>2026-05-03T07:50:07.964Z</time></trkpt><trkpt lat="44.3378108" lon="8.0576504"><ele>459.4</ele><time>2026-05-03T07:50:08.969Z</time></trkpt><trkpt lat="44.3377424" lon="8.0575904"><ele>459.0</ele><time>2026-05-03T07:50:09.981Z</time></trkpt><trkpt lat="44.3376561" lon="8.0574792"><ele>459.3333333333333</ele><time>2026-05-03T07:50:11.961Z</time></trkpt><trkpt lat="44.3376043" lon="8.0573747"><ele>459.66666666666663</ele><time>2026-05-03T07:50:13.957Z</time></trkpt><trkpt lat="44.3375753" lon="8.0572801"><ele>460.0</ele><time>2026-05-03T07:50:15.962Z</time></trkpt><trkpt lat="44.3375304" lon="8.0572129"><ele>460.3333333333333</ele><time>2026-05-03T07:54:32.968Z</time></trkpt><trkpt lat="44.3374768" lon="8.0571501"><ele>460.66666666666663</ele><time>2026-05-03T07:54:34.966Z</time></trkpt><trkpt lat="44.3374132" lon="8.0571225"><ele>461.0</ele><time>2026-05-03T07:54:35.967Z</time></trkpt><trkpt lat="44.3373123" lon="8.0570992"><ele>460.99999999999994</ele><time>2026-05-03T07:54:37.962Z</time></trkpt><trkpt lat="44.3372217" lon="8.0570996"><ele>461.0</ele><time>2026-05-03T07:55:18.972Z</time></trkpt><trkpt lat="44.3371572" lon="8.057057"><ele>461.0</ele><time>2026-05-03T07:55:19.963Z</time></trkpt><trkpt lat="44.3370812" lon="8.0570016"><ele>461.0</ele><time>2026-05-03T07:55:20.963Z</time></trkpt><trkpt lat="44.3370054" lon="8.0569255"><ele>460.99999999999994</ele><time>2026-05-03T07:55:21.971Z</time></trkpt><trkpt lat="44.3369193" lon="8.0568368"><ele>461.0</ele><time>2026-05-03T07:55:22.968Z</time></trkpt><trkpt lat="44.336826" lon="8.056748"><ele>461.25</ele><time>2026-05-03T07:55:23.966Z</time></trkpt><trkpt lat="44.3367241" lon="8.056654"><ele>461.5</ele><time>2026-05-03T07:55:24.964Z</time></trkpt><trkpt lat="44.3366144" lon="8.0565553"><ele>461.75</ele><time>2026-05-03T07:55:25.974Z</time></trkpt><trkpt lat="44.3364996" lon="8.0564464"><ele>462.0</ele><time>2026-05-03T07:55:26.965Z</time></trkpt><trkpt lat="44.3363794" lon="8.0563331"><ele>462.0</ele><time>2026-05-03T07:55:27.965Z</time></trkpt><trkpt lat="44.3362513" lon="8.0562126"><ele>462.0</ele><time>2026-05-03T07:55:28.973Z</time></trkpt><trkpt lat="44.3361168" lon="8.0560889"><ele>462.0</ele><time>2026-05-03T07:55:29.963Z</time></trkpt><trkpt lat="44.3359816" lon="8.0559583"><ele>462.0</ele><time>2026-05-03T07:55:30.998Z</time></trkpt><trkpt lat="44.3358378" lon="8.055821"><ele>462.0</ele><time>2026-05-03T07:55:31.968Z</time></trkpt><trkpt lat="44.3356923" lon="8.055685"><ele>462.0</ele><time>2026-05-03T07:55:32.968Z</time></trkpt><trkpt lat="44.3355337" lon="8.0555324"><ele>462.66666666666663</ele><time>2026-05-03T07:55:33.966Z</time></trkpt><trkpt lat="44.3353749" lon="8.0553839"><ele>463.3333333333333</ele><time>2026-05-03T07:55:34.964Z</time></trkpt><trkpt lat="44.3352157" lon="8.0552359"><ele>464.0</ele><time>2026-05-03T07:55:35.981Z</time></trkpt><trkpt lat="44.3350515" lon="8.0550841"><ele>464.66666666666663</ele><time>2026-05-03T07:55:36.962Z</time></trkpt><trkpt lat="44.3348845" lon="8.0549293"><ele>465.33333333333337</ele><time>2026-05-03T07:55:37.973Z</time></trkpt><trkpt lat="44.3347117" lon="8.0547701"><ele>466.0</ele><time>2026-05-03T07:55:38.968Z</time></trkpt><trkpt lat="44.3345475" lon="8.0546102"><ele>466.0</ele><time>2026-05-03T07:55:39.972Z</time></trkpt><trkpt lat="44.3343836" lon="8.0544592"><ele>466.0</ele><time>2026-05-03T07:55:40.969Z</time></trkpt><trkpt lat="44.3342128" lon="8.0543227"><ele>466.0</ele><time>2026-05-03T07:55:41.97Z</time></trkpt><trkpt lat="44.3340287" lon="8.0542052"><ele>469.6666666666667</ele><time>2026-05-03T07:55:42.971Z</time></trkpt><trkpt lat="44.3338354" lon="8.0541081"><ele>473.33333333333337</ele><time>2026-05-03T07:55:43.989Z</time></trkpt><trkpt lat="44.3336243" lon="8.0540402"><ele>477.0</ele><time>2026-05-03T07:55:44.969Z</time></trkpt><trkpt lat="44.3334077" lon="8.0539734"><ele>477.0</ele><time>2026-05-03T07:55:45.968Z</time></trkpt><trkpt lat="44.333192" lon="8.0539211"><ele>477.0</ele><time>2026-05-03T07:55:46.968Z</time></trkpt><trkpt lat="44.3329647" lon="8.0538724"><ele>477.0</ele><time>2026-05-03T07:55:47.974Z</time></trkpt><trkpt lat="44.3327393" lon="8.0538209"><ele>472.5</ele><time>2026-05-03T07:55:48.967Z</time></trkpt><trkpt lat="44.3325063" lon="8.0537704"><ele>468.0</ele><time>2026-05-03T07:55:49.972Z</time></trkpt><trkpt lat="44.3322712" lon="8.0537151"><ele>465.5</ele><time>2026-05-03T07:55:50.971Z</time></trkpt><trkpt lat="44.3320374" lon="8.0536624"><ele>463.0</ele><time>2026-05-03T07:55:51.966Z</time></trkpt><trkpt lat="44.3318044" lon="8.0536128"><ele>463.0</ele><time>2026-05-03T07:55:52.959Z</time></trkpt><trkpt lat="44.3315701" lon="8.0535553"><ele>463.0</ele><time>2026-05-03T07:55:53.969Z</time></trkpt><trkpt lat="44.3313335" lon="8.0534956"><ele>462.5</ele><time>2026-05-03T07:55:54.967Z</time></trkpt><trkpt lat="44.3310938" lon="8.053441"><ele>462.0</ele><time>2026-05-03T07:55:55.978Z</time></trkpt><trkpt lat="44.3308545" lon="8.0533875"><ele>462.0</ele><time>2026-05-03T07:55:56.976Z</time></trkpt><trkpt lat="44.3306097" lon="8.0533372"><ele>462.0</ele><time>2026-05-03T07:55:57.971Z</time></trkpt><trkpt lat="44.3303633" lon="8.0532838"><ele>463.0</ele><time>2026-05-03T07:55:58.97Z</time></trkpt><trkpt lat="44.3301178" lon="8.0532294"><ele>464.0</ele><time>2026-05-03T07:55:59.97Z</time></trkpt><trkpt lat="44.3298694" lon="8.0531768"><ele>464.5</ele><time>2026-05-03T07:56:00.971Z</time></trkpt><trkpt lat="44.3296217" lon="8.053125"><ele>465.0</ele><time>2026-05-03T07:56:01.971Z</time></trkpt><trkpt lat="44.3293678" lon="8.053069"><ele>465.0</ele><time>2026-05-03T07:56:02.974Z</time></trkpt><trkpt lat="44.3291174" lon="8.0530175"><ele>465.0</ele><time>2026-05-03T07:56:03.973Z</time></trkpt><trkpt lat="44.3288692" lon="8.0529602"><ele>464.5</ele><time>2026-05-03T07:56:04.968Z</time></trkpt><trkpt lat="44.3286175" lon="8.0529022"><ele>464.0</ele><time>2026-05-03T07:56:05.965Z</time></trkpt><trkpt lat="44.3283647" lon="8.0528456"><ele>464.0</ele><time>2026-05-03T07:56:06.981Z</time></trkpt><trkpt lat="44.3281108" lon="8.0527909"><ele>464.0</ele><time>2026-05-03T07:56:07.965Z</time></trkpt><trkpt lat="44.3278583" lon="8.0527351"><ele>464.5</ele><time>2026-05-03T07:56:08.968Z</time></trkpt><trkpt lat="44.3276021" lon="8.0526768"><ele>465.0</ele><time>2026-05-03T07:56:09.961Z</time></trkpt><trkpt lat="44.3273482" lon="8.052612"><ele>464.5</ele><time>2026-05-03T07:56:10.971Z</time></trkpt><trkpt lat="44.3270947" lon="8.0525498"><ele>464.0</ele><time>2026-05-03T07:56:11.967Z</time></trkpt><trkpt lat="44.3268364" lon="8.052493"><ele>464.0</ele><time>2026-05-03T07:56:12.971Z</time></trkpt><trkpt lat="44.3265733" lon="8.0524341"><ele>464.0</ele><time>2026-05-03T07:56:13.968Z</time></trkpt><trkpt lat="44.3263102" lon="8.052372"><ele>464.0</ele><time>2026-05-03T07:56:14.969Z</time></trkpt><trkpt lat="44.3260437" lon="8.0523149"><ele>464.0</ele><time>2026-05-03T07:56:15.973Z</time></trkpt><trkpt lat="44.3257773" lon="8.0522584"><ele>465.0</ele><time>2026-05-03T07:56:16.968Z</time></trkpt><trkpt lat="44.3255059" lon="8.0522008"><ele>466.0</ele><time>2026-05-03T07:56:17.984Z</time></trkpt><trkpt lat="44.3252303" lon="8.0521381"><ele>466.0</ele><time>2026-05-03T07:56:18.966Z</time></trkpt><trkpt lat="44.3249511" lon="8.0520799"><ele>466.0</ele><time>2026-05-03T07:56:19.973Z</time></trkpt><trkpt lat="44.3246709" lon="8.052023"><ele>467.0</ele><time>2026-05-03T07:56:20.979Z</time></trkpt><trkpt lat="44.3243934" lon="8.0519608"><ele>468.0</ele><time>2026-05-03T07:56:21.974Z</time></trkpt><trkpt lat="44.3241156" lon="8.0518967"><ele>468.5</ele><time>2026-05-03T07:56:22.97Z</time></trkpt><trkpt lat="44.32384" lon="8.051834"><ele>469.0</ele><time>2026-05-03T07:56:23.978Z</time></trkpt><trkpt lat="44.3235738" lon="8.0517711"><ele>469.0</ele><time>2026-05-03T07:56:24.975Z</time></trkpt><trkpt lat="44.3233007" lon="8.0517072"><ele>469.0</ele><time>2026-05-03T07:56:25.969Z</time></trkpt><trkpt lat="44.3230278" lon="8.051642"><ele>471.5</ele><time>2026-05-03T07:56:26.972Z</time></trkpt><trkpt lat="44.3227537" lon="8.051575"><ele>474.0</ele><time>2026-05-03T07:56:27.972Z</time></trkpt><trkpt lat="44.3224805" lon="8.051515"><ele>473.5</ele><time>2026-05-03T07:56:28.972Z</time></trkpt><trkpt lat="44.3222095" lon="8.0514534"><ele>473.0</ele><time>2026-05-03T07:56:29.968Z</time></trkpt><trkpt lat="44.321936" lon="8.051389"><ele>473.0</ele><time>2026-05-03T07:56:30.966Z</time></trkpt><trkpt lat="44.3216638" lon="8.0513296"><ele>473.0</ele><time>2026-05-03T07:56:31.968Z</time></trkpt><trkpt lat="44.321394" lon="8.0512677"><ele>472.0</ele><time>2026-05-03T07:56:32.973Z</time></trkpt><trkpt lat="44.3211248" lon="8.0512124"><ele>471.0</ele><time>2026-05-03T07:56:33.971Z</time></trkpt><trkpt lat="44.3208514" lon="8.0511534"><ele>471.0</ele><time>2026-05-03T07:56:34.966Z</time></trkpt><trkpt lat="44.3205802" lon="8.0510902"><ele>471.0</ele><time>2026-05-03T07:56:35.973Z</time></trkpt><trkpt lat="44.3203083" lon="8.0510285"><ele>472.0</ele><time>2026-05-03T07:56:36.971Z</time></trkpt><trkpt lat="44.3200344" lon="8.0509659"><ele>473.0</ele><time>2026-05-03T07:56:37.969Z</time></trkpt><trkpt lat="44.3197596" lon="8.0509024"><ele>474.0</ele><time>2026-05-03T07:56:38.976Z</time></trkpt><trkpt lat="44.3194865" lon="8.0508426"><ele>475.0</ele><time>2026-05-03T07:56:39.969Z</time></trkpt><trkpt lat="44.3192178" lon="8.0507781"><ele>477.0</ele><time>2026-05-03T07:56:40.973Z</time></trkpt><trkpt lat="44.3189564" lon="8.0507125"><ele>479.0</ele><time>2026-05-03T07:56:41.966Z</time></trkpt><trkpt lat="44.3186928" lon="8.0506387"><ele>479.0</ele><time>2026-05-03T07:56:42.967Z</time></trkpt><trkpt lat="44.3184341" lon="8.0505522"><ele>479.0</ele><time>2026-05-03T07:56:43.974Z</time></trkpt><trkpt lat="44.3181803" lon="8.0504593"><ele>478.5</ele><time>2026-05-03T07:56:44.971Z</time></trkpt><trkpt lat="44.3179209" lon="8.050361"><ele>478.0</ele><time>2026-05-03T07:56:45.969Z</time></trkpt><trkpt lat="44.3176605" lon="8.050265"><ele>478.0</ele><time>2026-05-03T07:56:46.969Z</time></trkpt><trkpt lat="44.3173969" lon="8.050163"><ele>478.0</ele><time>2026-05-03T07:56:47.969Z</time></trkpt><trkpt lat="44.3171399" lon="8.050056"><ele>479.5</ele><time>2026-05-03T07:56:48.975Z</time></trkpt><trkpt lat="44.3168768" lon="8.0499526"><ele>481.0</ele><time>2026-05-03T07:56:49.978Z</time></trkpt><trkpt lat="44.3166139" lon="8.0498516"><ele>481.5</ele><time>2026-05-03T07:56:50.971Z</time></trkpt><trkpt lat="44.3163623" lon="8.0497517"><ele>482.0</ele><time>2026-05-03T07:56:51.978Z</time></trkpt><trkpt lat="44.3161142" lon="8.0496619"><ele>482.0</ele><time>2026-05-03T07:56:52.969Z</time></trkpt><trkpt lat="44.3158772" lon="8.0495709"><ele>482.0</ele><time>2026-05-03T07:56:53.981Z</time></trkpt><trkpt lat="44.3156379" lon="8.049481"><ele>480.5</ele><time>2026-05-03T07:56:54.969Z</time></trkpt><trkpt lat="44.3154017" lon="8.0493998"><ele>479.0</ele><time>2026-05-03T07:56:55.981Z</time></trkpt><trkpt lat="44.3151659" lon="8.0493145"><ele>479.0</ele><time>2026-05-03T07:56:56.974Z</time></trkpt><trkpt lat="44.3149331" lon="8.0492238"><ele>479.0</ele><time>2026-05-03T07:56:57.974Z</time></trkpt><trkpt lat="44.3147162" lon="8.0491437"><ele>478.3333333333333</ele><time>2026-05-03T07:56:58.976Z</time></trkpt><trkpt lat="44.3145192" lon="8.0490713"><ele>477.66666666666663</ele><time>2026-05-03T07:57:00.022Z</time></trkpt><trkpt lat="44.3143581" lon="8.049009"><ele>477.0</ele><time>2026-05-03T07:57:00.966Z</time></trkpt><trkpt lat="44.3142112" lon="8.0489521"><ele>477.0</ele><time>2026-05-03T07:57:01.975Z</time></trkpt><trkpt lat="44.3140576" lon="8.0488993"><ele>477.0</ele><time>2026-05-03T07:57:02.978Z</time></trkpt><trkpt lat="44.3139046" lon="8.0488393"><ele>477.0</ele><time>2026-05-03T07:57:03.972Z</time></trkpt><trkpt lat="44.3137439" lon="8.0487762"><ele>477.33333333333337</ele><time>2026-05-03T07:57:04.981Z</time></trkpt><trkpt lat="44.3135723" lon="8.0487083"><ele>477.6666666666667</ele><time>2026-05-03T07:57:05.97Z</time></trkpt><trkpt lat="44.3133912" lon="8.0486362"><ele>478.0</ele><time>2026-05-03T07:57:06.968Z</time></trkpt><trkpt lat="44.3132032" lon="8.0485675"><ele>478.33333333333337</ele><time>2026-05-03T07:57:07.973Z</time></trkpt><trkpt lat="44.313017" lon="8.0484928"><ele>478.66666666666663</ele><time>2026-05-03T07:57:08.973Z</time></trkpt><trkpt lat="44.3128296" lon="8.0484163"><ele>479.0</ele><time>2026-05-03T07:57:09.97Z</time></trkpt><trkpt lat="44.3126407" lon="8.0483453"><ele>479.3333333333333</ele><time>2026-05-03T07:57:10.973Z</time></trkpt><trkpt lat="44.3124522" lon="8.0482769"><ele>479.66666666666663</ele><time>2026-05-03T07:57:11.968Z</time></trkpt><trkpt lat="44.3122654" lon="8.048207"><ele>480.0</ele><time>2026-05-03T07:57:12.975Z</time></trkpt><trkpt lat="44.312081" lon="8.048137"><ele>480.66666666666663</ele><time>2026-05-03T07:57:13.972Z</time></trkpt><trkpt lat="44.3118953" lon="8.0480675"><ele>481.3333333333333</ele><time>2026-05-03T07:57:14.977Z</time></trkpt><trkpt lat="44.3117119" lon="8.0479951"><ele>482.0</ele><time>2026-05-03T07:57:15.978Z</time></trkpt><trkpt lat="44.311536" lon="8.0479275"><ele>482.3333333333333</ele><time>2026-05-03T07:57:16.969Z</time></trkpt><trkpt lat="44.3113614" lon="8.0478616"><ele>482.66666666666663</ele><time>2026-05-03T07:57:17.973Z</time></trkpt><trkpt lat="44.3111897" lon="8.0477941"><ele>483.0</ele><time>2026-05-03T07:57:18.973Z</time></trkpt><trkpt lat="44.3110293" lon="8.0477362"><ele>483.0</ele><time>2026-05-03T07:57:19.977Z</time></trkpt><trkpt lat="44.3108768" lon="8.0476798"><ele>483.0</ele><time>2026-05-03T07:57:20.97Z</time></trkpt><trkpt lat="44.3107312" lon="8.0476273"><ele>483.0</ele><time>2026-05-03T07:57:21.971Z</time></trkpt><trkpt lat="44.3105891" lon="8.0475736"><ele>482.5</ele><time>2026-05-03T07:57:22.97Z</time></trkpt><trkpt lat="44.3104533" lon="8.0475128"><ele>482.0</ele><time>2026-05-03T07:57:23.97Z</time></trkpt><trkpt lat="44.3103122" lon="8.0474547"><ele>481.5</ele><time>2026-05-03T07:57:24.969Z</time></trkpt><trkpt lat="44.3101686" lon="8.0473979"><ele>481.0</ele><time>2026-05-03T07:57:25.963Z</time></trkpt><trkpt lat="44.3100176" lon="8.0473428"><ele>482.0</ele><time>2026-05-03T07:57:26.976Z</time></trkpt><trkpt lat="44.3098672" lon="8.0472853"><ele>483.0</ele><time>2026-05-03T07:57:27.97Z</time></trkpt><trkpt lat="44.3097176" lon="8.0472244"><ele>484.0</ele><time>2026-05-03T07:57:28.977Z</time></trkpt><trkpt lat="44.3095784" lon="8.0471689"><ele>484.0</ele><time>2026-05-03T07:57:29.975Z</time></trkpt><trkpt lat="44.3094464" lon="8.0471214"><ele>484.0</ele><time>2026-05-03T07:57:30.969Z</time></trkpt><trkpt lat="44.3093193" lon="8.0470769"><ele>484.0</ele><time>2026-05-03T07:57:31.97Z</time></trkpt><trkpt lat="44.3092071" lon="8.0470328"><ele>484.0</ele><time>2026-05-03T07:57:32.968Z</time></trkpt><trkpt lat="44.3090996" lon="8.0469876"><ele>484.0</ele><time>2026-05-03T07:57:33.965Z</time></trkpt><trkpt lat="44.308986" lon="8.0469483"><ele>484.0</ele><time>2026-05-03T07:57:34.982Z</time></trkpt><trkpt lat="44.3088789" lon="8.046911"><ele>484.0</ele><time>2026-05-03T07:57:35.979Z</time></trkpt><trkpt lat="44.3087695" lon="8.0468785"><ele>484.0</ele><time>2026-05-03T07:57:36.996Z</time></trkpt><trkpt lat="44.3086596" lon="8.0468381"><ele>484.25</ele><time>2026-05-03T07:57:37.975Z</time></trkpt><trkpt lat="44.3085394" lon="8.0467887"><ele>484.5</ele><time>2026-05-03T07:57:38.971Z</time></trkpt><trkpt lat="44.3084054" lon="8.0467336"><ele>484.75</ele><time>2026-05-03T07:57:39.967Z</time></trkpt><trkpt lat="44.3082732" lon="8.0466787"><ele>485.0</ele><time>2026-05-03T07:57:40.976Z</time></trkpt><trkpt lat="44.3081342" lon="8.0466307"><ele>486.25</ele><time>2026-05-03T07:57:41.972Z</time></trkpt><trkpt lat="44.3079958" lon="8.046582"><ele>487.5</ele><time>2026-05-03T07:57:42.969Z</time></trkpt><trkpt lat="44.3078539" lon="8.046527"><ele>488.75</ele><time>2026-05-03T07:57:43.968Z</time></trkpt><trkpt lat="44.3077112" lon="8.046474"><ele>490.0</ele><time>2026-05-03T07:57:44.983Z</time></trkpt><trkpt lat="44.3075639" lon="8.0464247"><ele>490.0</ele><time>2026-05-03T07:57:45.97Z</time></trkpt><trkpt lat="44.3074148" lon="8.0463717"><ele>490.0</ele><time>2026-05-03T07:57:46.979Z</time></trkpt><trkpt lat="44.307267" lon="8.0463209"><ele>490.0</ele><time>2026-05-03T07:57:47.959Z</time></trkpt><trkpt lat="44.3071277" lon="8.046276"><ele>490.0</ele><time>2026-05-03T07:57:48.969Z</time></trkpt><trkpt lat="44.3069998" lon="8.0462286"><ele>489.25</ele><time>2026-05-03T07:57:49.978Z</time></trkpt><trkpt lat="44.3068678" lon="8.046182"><ele>488.5</ele><time>2026-05-03T07:57:50.974Z</time></trkpt><trkpt lat="44.3067453" lon="8.0461322"><ele>487.75</ele><time>2026-05-03T07:57:51.972Z</time></trkpt><trkpt lat="44.3066238" lon="8.0460765"><ele>487.0</ele><time>2026-05-03T07:57:52.968Z</time></trkpt><trkpt lat="44.3065064" lon="8.0460229"><ele>486.8</ele><time>2026-05-03T07:57:53.98Z</time></trkpt><trkpt lat="44.3063866" lon="8.0459727"><ele>486.6</ele><time>2026-05-03T07:57:54.979Z</time></trkpt><trkpt lat="44.3062769" lon="8.0459291"><ele>486.40000000000003</ele><time>2026-05-03T07:57:55.971Z</time></trkpt><trkpt lat="44.3061798" lon="8.0458856"><ele>486.20000000000005</ele><time>2026-05-03T07:57:56.979Z</time></trkpt><trkpt lat="44.3060815" lon="8.0458375"><ele>486.0</ele><time>2026-05-03T07:57:57.973Z</time></trkpt><trkpt lat="44.3059852" lon="8.0458032"><ele>486.0</ele><time>2026-05-03T07:57:58.963Z</time></trkpt><trkpt lat="44.3058969" lon="8.0457686"><ele>486.0</ele><time>2026-05-03T07:57:59.966Z</time></trkpt><trkpt lat="44.3058116" lon="8.0457394"><ele>486.0</ele><time>2026-05-03T07:58:00.967Z</time></trkpt><trkpt lat="44.3057286" lon="8.0457093"><ele>486.0</ele><time>2026-05-03T07:58:01.975Z</time></trkpt><trkpt lat="44.305647" lon="8.0456838"><ele>486.0</ele><time>2026-05-03T07:58:02.971Z</time></trkpt><trkpt lat="44.3055626" lon="8.0456464"><ele>486.0</ele><time>2026-05-03T07:58:03.973Z</time></trkpt><trkpt lat="44.3054703" lon="8.0456174"><ele>486.0</ele><time>2026-05-03T07:58:04.971Z</time></trkpt><trkpt lat="44.3053771" lon="8.0455779"><ele>486.0</ele><time>2026-05-03T07:58:05.972Z</time></trkpt><trkpt lat="44.305283" lon="8.0455438"><ele>486.0</ele><time>2026-05-03T07:58:06.98Z</time></trkpt><trkpt lat="44.3051945" lon="8.0455103"><ele>486.0</ele><time>2026-05-03T07:58:07.965Z</time></trkpt><trkpt lat="44.3051056" lon="8.0454702"><ele>486.0</ele><time>2026-05-03T07:58:08.965Z</time></trkpt><trkpt lat="44.3050041" lon="8.0454226"><ele>486.0</ele><time>2026-05-03T07:58:09.966Z</time></trkpt><trkpt lat="44.3048919" lon="8.0453775"><ele>486.0</ele><time>2026-05-03T07:58:10.973Z</time></trkpt><trkpt lat="44.3047775" lon="8.0453391"><ele>486.0</ele><time>2026-05-03T07:58:11.965Z</time></trkpt><trkpt lat="44.3046656" lon="8.0452957"><ele>486.0</ele><time>2026-05-03T07:58:12.966Z</time></trkpt><trkpt lat="44.3045547" lon="8.0452464"><ele>486.4</ele><time>2026-05-03T07:58:13.973Z</time></trkpt><trkpt lat="44.304449" lon="8.0452039"><ele>486.8</ele><time>2026-05-03T07:58:14.979Z</time></trkpt><trkpt lat="44.3043497" lon="8.0451607"><ele>487.19999999999993</ele><time>2026-05-03T07:58:15.977Z</time></trkpt><trkpt lat="44.3042614" lon="8.0451313"><ele>487.59999999999997</ele><time>2026-05-03T07:58:16.975Z</time></trkpt><trkpt lat="44.3041786" lon="8.0451094"><ele>488.0</ele><time>2026-05-03T07:58:18.051Z</time></trkpt><trkpt lat="44.3040999" lon="8.045087"><ele>487.99999999999994</ele><time>2026-05-03T07:58:19.02Z</time></trkpt><trkpt lat="44.3040378" lon="8.0450596"><ele>488.0</ele><time>2026-05-03T07:58:20.022Z</time></trkpt><trkpt lat="44.3039518" lon="8.045032"><ele>488.0</ele><time>2026-05-03T07:58:22.024Z</time></trkpt><trkpt lat="44.3038726" lon="8.0450103"><ele>488.0</ele><time>2026-05-03T07:58:25.027Z</time></trkpt><trkpt lat="44.3037914" lon="8.0449965"><ele>487.99999999999994</ele><time>2026-05-03T07:58:36.024Z</time></trkpt><trkpt lat="44.3036903" lon="8.0449499"><ele>488.0</ele><time>2026-05-03T07:58:42.025Z</time></trkpt><trkpt lat="44.3036277" lon="8.0449245"><ele>489.2</ele><time>2026-05-03T07:58:43.022Z</time></trkpt><trkpt lat="44.3035493" lon="8.0448998"><ele>490.4</ele><time>2026-05-03T07:58:44.021Z</time></trkpt><trkpt lat="44.3034498" lon="8.0448723"><ele>491.59999999999997</ele><time>2026-05-03T07:58:45.022Z</time></trkpt><trkpt lat="44.3033399" lon="8.0448406"><ele>492.79999999999995</ele><time>2026-05-03T07:58:46.026Z</time></trkpt><trkpt lat="44.3032326" lon="8.0447955"><ele>494.0</ele><time>2026-05-03T07:58:47.024Z</time></trkpt><trkpt lat="44.3030938" lon="8.0447165"><ele>494.0</ele><time>2026-05-03T07:58:48.024Z</time></trkpt><trkpt lat="44.3029683" lon="8.044657"><ele>494.0</ele><time>2026-05-03T07:58:49.013Z</time></trkpt><trkpt lat="44.3028428" lon="8.0446049"><ele>494.0</ele><time>2026-05-03T07:58:50.022Z</time></trkpt><trkpt lat="44.3027256" lon="8.0445633"><ele>494.0</ele><time>2026-05-03T07:58:51.032Z</time></trkpt><trkpt lat="44.302605" lon="8.0445103"><ele>494.0</ele><time>2026-05-03T07:58:52.035Z</time></trkpt><trkpt lat="44.3024857" lon="8.044469"><ele>494.0</ele><time>2026-05-03T07:58:53.027Z</time></trkpt><trkpt lat="44.30237" lon="8.0444301"><ele>494.0</ele><time>2026-05-03T07:58:54.023Z</time></trkpt><trkpt lat="44.3022553" lon="8.044383"><ele>494.0</ele><time>2026-05-03T07:58:55.04Z</time></trkpt><trkpt lat="44.302141" lon="8.0443369"><ele>493.75</ele><time>2026-05-03T07:58:56.03Z</time></trkpt><trkpt lat="44.3020245" lon="8.0442879"><ele>493.5</ele><time>2026-05-03T07:58:57.03Z</time></trkpt><trkpt lat="44.3019102" lon="8.0442425"><ele>493.25</ele><time>2026-05-03T07:58:58.041Z</time></trkpt><trkpt lat="44.3017971" lon="8.0442219"><ele>493.0</ele><time>2026-05-03T07:58:59.022Z</time></trkpt><trkpt lat="44.3016814" lon="8.0442258"><ele>493.0</ele><time>2026-05-03T07:59:00.034Z</time></trkpt><trkpt lat="44.3015635" lon="8.0442542"><ele>493.0</ele><time>2026-05-03T07:59:01.029Z</time></trkpt><trkpt lat="44.3014417" lon="8.0442993"><ele>493.0</ele><time>2026-05-03T07:59:02.021Z</time></trkpt><trkpt lat="44.3013175" lon="8.0443539"><ele>493.0</ele><time>2026-05-03T07:59:03.029Z</time></trkpt><trkpt lat="44.3011952" lon="8.04441"><ele>493.0</ele><time>2026-05-03T07:59:04.025Z</time></trkpt><trkpt lat="44.3010763" lon="8.0444706"><ele>493.0</ele><time>2026-05-03T07:59:05.025Z</time></trkpt><trkpt lat="44.3009589" lon="8.0445342"><ele>493.0</ele><time>2026-05-03T07:59:06.034Z</time></trkpt><trkpt lat="44.3008385" lon="8.044599"><ele>493.0</ele><time>2026-05-03T07:59:07.029Z</time></trkpt><trkpt lat="44.300713" lon="8.044671"><ele>492.0</ele><time>2026-05-03T07:59:08.03Z</time></trkpt><trkpt lat="44.3005783" lon="8.0447486"><ele>491.0</ele><time>2026-05-03T07:59:09.027Z</time></trkpt><trkpt lat="44.3004495" lon="8.0448245"><ele>490.0</ele><time>2026-05-03T07:59:10.027Z</time></trkpt><trkpt lat="44.3003225" lon="8.0448961"><ele>489.0</ele><time>2026-05-03T07:59:11.029Z</time></trkpt><trkpt lat="44.3001971" lon="8.0449629"><ele>489.0</ele><time>2026-05-03T07:59:12.027Z</time></trkpt><trkpt lat="44.3000716" lon="8.0450175"><ele>489.0</ele><time>2026-05-03T07:59:13.026Z</time></trkpt><trkpt lat="44.2999488" lon="8.0450548"><ele>489.0</ele><time>2026-05-03T07:59:14.024Z</time></trkpt><trkpt lat="44.2998293" lon="8.0450733"><ele>489.0</ele><time>2026-05-03T07:59:15.022Z</time></trkpt><trkpt lat="44.2997113" lon="8.0450725"><ele>488.75</ele><time>2026-05-03T07:59:16.028Z</time></trkpt><trkpt lat="44.2995901" lon="8.0450474"><ele>488.5</ele><time>2026-05-03T07:59:17.026Z</time></trkpt><trkpt lat="44.2994717" lon="8.0450001"><ele>488.25</ele><time>2026-05-03T07:59:18.035Z</time></trkpt><trkpt lat="44.2993656" lon="8.0449296"><ele>488.0</ele><time>2026-05-03T07:59:19.034Z</time></trkpt><trkpt lat="44.2992714" lon="8.0448414"><ele>488.5</ele><time>2026-05-03T07:59:20.019Z</time></trkpt><trkpt lat="44.2991899" lon="8.0447375"><ele>489.0</ele><time>2026-05-03T07:59:21.035Z</time></trkpt><trkpt lat="44.2991166" lon="8.0446127"><ele>489.5</ele><time>2026-05-03T07:59:22.024Z</time></trkpt><trkpt lat="44.2990475" lon="8.0444711"><ele>490.0</ele><time>2026-05-03T07:59:23.032Z</time></trkpt><trkpt lat="44.2989805" lon="8.0443225"><ele>490.0</ele><time>2026-05-03T07:59:24.035Z</time></trkpt><trkpt lat="44.2989154" lon="8.0441742"><ele>490.0</ele><time>2026-05-03T07:59:25.019Z</time></trkpt><trkpt lat="44.298849" lon="8.0440232"><ele>490.0</ele><time>2026-05-03T07:59:26.018Z</time></trkpt><trkpt lat="44.2987844" lon="8.0438805"><ele>490.0</ele><time>2026-05-03T07:59:27.016Z</time></trkpt><trkpt lat="44.298719" lon="8.0437394"><ele>490.0</ele><time>2026-05-03T07:59:28.014Z</time></trkpt><trkpt lat="44.2986443" lon="8.0435992"><ele>490.0</ele><time>2026-05-03T07:59:29.02Z</time></trkpt><trkpt lat="44.2985533" lon="8.0434666"><ele>490.0</ele><time>2026-05-03T07:59:30.021Z</time></trkpt><trkpt lat="44.2984516" lon="8.0433403"><ele>490.0</ele><time>2026-05-03T07:59:31.019Z</time></trkpt><trkpt lat="44.2983464" lon="8.0432258"><ele>490.5</ele><time>2026-05-03T07:59:32.016Z</time></trkpt><trkpt lat="44.2982384" lon="8.0431165"><ele>491.0</ele><time>2026-05-03T07:59:33.03Z</time></trkpt><trkpt lat="44.2981277" lon="8.0430118"><ele>491.5</ele><time>2026-05-03T07:59:34.023Z</time></trkpt><trkpt lat="44.2980149" lon="8.0429054"><ele>492.0</ele><time>2026-05-03T07:59:35.039Z</time></trkpt><trkpt lat="44.297903" lon="8.0427994"><ele>492.0</ele><time>2026-05-03T07:59:36.022Z</time></trkpt><trkpt lat="44.2977927" lon="8.0427103"><ele>492.0</ele><time>2026-05-03T07:59:37.024Z</time></trkpt><trkpt lat="44.2976788" lon="8.0426449"><ele>492.0</ele><time>2026-05-03T07:59:38.025Z</time></trkpt><trkpt lat="44.2975627" lon="8.0425919"><ele>492.0</ele><time>2026-05-03T07:59:39.02Z</time></trkpt><trkpt lat="44.2974454" lon="8.0425356"><ele>492.0</ele><time>2026-05-03T07:59:40.026Z</time></trkpt><trkpt lat="44.2973253" lon="8.0424685"><ele>492.0</ele><time>2026-05-03T07:59:41.023Z</time></trkpt><trkpt lat="44.2972062" lon="8.0423853"><ele>492.0</ele><time>2026-05-03T07:59:42.021Z</time></trkpt><trkpt lat="44.2970856" lon="8.0422844"><ele>492.0</ele><time>2026-05-03T07:59:43.024Z</time></trkpt><trkpt lat="44.2969661" lon="8.0421693"><ele>492.66666666666663</ele><time>2026-05-03T07:59:44.029Z</time></trkpt><trkpt lat="44.2968484" lon="8.0420452"><ele>493.3333333333333</ele><time>2026-05-03T07:59:45.024Z</time></trkpt><trkpt lat="44.2967329" lon="8.0419058"><ele>494.0</ele><time>2026-05-03T07:59:46.021Z</time></trkpt><trkpt lat="44.2966315" lon="8.0417466"><ele>492.0</ele><time>2026-05-03T07:59:47.022Z</time></trkpt><trkpt lat="44.2965421" lon="8.0415741"><ele>490.0</ele><time>2026-05-03T07:59:48.011Z</time></trkpt><trkpt lat="44.2964645" lon="8.0413922"><ele>488.0</ele><time>2026-05-03T07:59:49.016Z</time></trkpt><trkpt lat="44.2963887" lon="8.0412036"><ele>488.0</ele><time>2026-05-03T07:59:50.026Z</time></trkpt><trkpt lat="44.2963174" lon="8.0410181"><ele>488.0</ele><time>2026-05-03T07:59:51.012Z</time></trkpt><trkpt lat="44.2962505" lon="8.0408427"><ele>488.0</ele><time>2026-05-03T07:59:52.017Z</time></trkpt><trkpt lat="44.296184" lon="8.0406705"><ele>488.0</ele><time>2026-05-03T07:59:53.024Z</time></trkpt><trkpt lat="44.2961199" lon="8.040498"><ele>489.0</ele><time>2026-05-03T07:59:54.016Z</time></trkpt><trkpt lat="44.2960534" lon="8.0403274"><ele>490.0</ele><time>2026-05-03T07:59:55.015Z</time></trkpt><trkpt lat="44.2959848" lon="8.0401572"><ele>491.0</ele><time>2026-05-03T07:59:56.019Z</time></trkpt><trkpt lat="44.29591" lon="8.039986"><ele>492.0</ele><time>2026-05-03T07:59:57.031Z</time></trkpt><trkpt lat="44.2958289" lon="8.0398134"><ele>491.33333333333337</ele><time>2026-05-03T07:59:58.027Z</time></trkpt><trkpt lat="44.2957424" lon="8.0396414"><ele>490.6666666666667</ele><time>2026-05-03T07:59:59.014Z</time></trkpt><trkpt lat="44.2956481" lon="8.0394714"><ele>490.0</ele><time>2026-05-03T08:00:00.023Z</time></trkpt><trkpt lat="44.295553" lon="8.0392993"><ele>490.6666666666667</ele><time>2026-05-03T08:00:01.01Z</time></trkpt><trkpt lat="44.2954582" lon="8.0391249"><ele>491.33333333333337</ele><time>2026-05-03T08:00:02.022Z</time></trkpt><trkpt lat="44.2953629" lon="8.0389517"><ele>492.0</ele><time>2026-05-03T08:00:03.014Z</time></trkpt><trkpt lat="44.2952669" lon="8.038776"><ele>492.0</ele><time>2026-05-03T08:00:04.016Z</time></trkpt><trkpt lat="44.2951649" lon="8.0385921"><ele>492.0</ele><time>2026-05-03T08:00:05.018Z</time></trkpt><trkpt lat="44.2950646" lon="8.0384071"><ele>492.0</ele><time>2026-05-03T08:00:06.03Z</time></trkpt><trkpt lat="44.294966" lon="8.038221"><ele>491.66666666666663</ele><time>2026-05-03T08:00:07.025Z</time></trkpt><trkpt lat="44.2948662" lon="8.0380363"><ele>491.3333333333333</ele><time>2026-05-03T08:00:08.022Z</time></trkpt><trkpt lat="44.2947716" lon="8.0378638"><ele>491.0</ele><time>2026-05-03T08:00:09.017Z</time></trkpt><trkpt lat="44.2946782" lon="8.0376935"><ele>491.0</ele><time>2026-05-03T08:00:10.022Z</time></trkpt><trkpt lat="44.2945825" lon="8.0375235"><ele>491.0</ele><time>2026-05-03T08:00:11.016Z</time></trkpt><trkpt lat="44.2944877" lon="8.0373563"><ele>491.0</ele><time>2026-05-03T08:00:12.021Z</time></trkpt><trkpt lat="44.2943932" lon="8.0371895"><ele>492.3333333333333</ele><time>2026-05-03T08:00:13.023Z</time></trkpt><trkpt lat="44.2942961" lon="8.0370115"><ele>493.66666666666663</ele><time>2026-05-03T08:00:14.038Z</time></trkpt><trkpt lat="44.294194" lon="8.0368218"><ele>495.0</ele><time>2026-05-03T08:00:15.025Z</time></trkpt><trkpt lat="44.2940913" lon="8.0366281"><ele>495.33333333333337</ele><time>2026-05-03T08:00:16.025Z</time></trkpt><trkpt lat="44.2939839" lon="8.036438"><ele>495.6666666666667</ele><time>2026-05-03T08:00:17.027Z</time></trkpt><trkpt lat="44.2938668" lon="8.0362587"><ele>496.0</ele><time>2026-05-03T08:00:18.033Z</time></trkpt><trkpt lat="44.2937351" lon="8.0361036"><ele>496.0</ele><time>2026-05-03T08:00:19.02Z</time></trkpt><trkpt lat="44.293588" lon="8.0359788"><ele>496.0</ele><time>2026-05-03T08:00:20.014Z</time></trkpt><trkpt lat="44.2934304" lon="8.0358815"><ele>496.0</ele><time>2026-05-03T08:00:21.021Z</time></trkpt><trkpt lat="44.2932579" lon="8.0358027"><ele>497.0</ele><time>2026-05-03T08:00:22.026Z</time></trkpt><trkpt lat="44.2930507" lon="8.0357206"><ele>498.0</ele><time>2026-05-03T08:00:23.025Z</time></trkpt><trkpt lat="44.2928141" lon="8.0356337"><ele>498.0</ele><time>2026-05-03T08:00:24.018Z</time></trkpt><trkpt lat="44.2925701" lon="8.0355436"><ele>498.0</ele><time>2026-05-03T08:00:25.023Z</time></trkpt><trkpt lat="44.2923301" lon="8.035451"><ele>497.0</ele><time>2026-05-03T08:00:26.021Z</time></trkpt><trkpt lat="44.2920882" lon="8.0353511"><ele>496.0</ele><time>2026-05-03T08:00:27.019Z</time></trkpt><trkpt lat="44.2918294" lon="8.0352418"><ele>496.0</ele><time>2026-05-03T08:00:28.015Z</time></trkpt><trkpt lat="44.2915547" lon="8.0351316"><ele>496.0</ele><time>2026-05-03T08:00:29.021Z</time></trkpt><trkpt lat="44.2912712" lon="8.0350177"><ele>497.5</ele><time>2026-05-03T08:00:30.021Z</time></trkpt><trkpt lat="44.2909884" lon="8.0349044"><ele>499.0</ele><time>2026-05-03T08:00:31.017Z</time></trkpt><trkpt lat="44.2907019" lon="8.0347905"><ele>498.0</ele><time>2026-05-03T08:00:32.018Z</time></trkpt><trkpt lat="44.2904144" lon="8.034676"><ele>497.0</ele><time>2026-05-03T08:00:33.019Z</time></trkpt><trkpt lat="44.2901478" lon="8.03456"><ele>497.0</ele><time>2026-05-03T08:00:34.023Z</time></trkpt><trkpt lat="44.289895" lon="8.0344451"><ele>497.0</ele><time>2026-05-03T08:00:35.028Z</time></trkpt><trkpt lat="44.2896464" lon="8.0343379"><ele>496.5</ele><time>2026-05-03T08:00:36.018Z</time></trkpt><trkpt lat="44.2893965" lon="8.0342334"><ele>496.0</ele><time>2026-05-03T08:00:37.015Z</time></trkpt><trkpt lat="44.2891447" lon="8.0341258"><ele>501.5</ele><time>2026-05-03T08:00:38.015Z</time></trkpt><trkpt lat="44.2888927" lon="8.034013"><ele>507.0</ele><time>2026-05-03T08:00:39.015Z</time></trkpt><trkpt lat="44.28865" lon="8.0338939"><ele>507.0</ele><time>2026-05-03T08:00:40.021Z</time></trkpt><trkpt lat="44.2884151" lon="8.0337649"><ele>507.0</ele><time>2026-05-03T08:00:41.023Z</time></trkpt><trkpt lat="44.2881827" lon="8.0336321"><ele>505.0</ele><time>2026-05-03T08:00:42.019Z</time></trkpt><trkpt lat="44.2879437" lon="8.0335366"><ele>503.0</ele><time>2026-05-03T08:00:43.015Z</time></trkpt><trkpt lat="44.2876985" lon="8.0334499"><ele>503.0</ele><time>2026-05-03T08:00:44.01Z</time></trkpt><trkpt lat="44.2874489" lon="8.0333701"><ele>503.0</ele><time>2026-05-03T08:00:45.013Z</time></trkpt><trkpt lat="44.2871933" lon="8.0332976"><ele>511.0</ele><time>2026-05-03T08:00:46.022Z</time></trkpt><trkpt lat="44.2869351" lon="8.0332303"><ele>519.0</ele><time>2026-05-03T08:00:47.016Z</time></trkpt><trkpt lat="44.2866721" lon="8.0331651"><ele>516.0</ele><time>2026-05-03T08:00:48.012Z</time></trkpt><trkpt lat="44.2864089" lon="8.0330911"><ele>513.0</ele><time>2026-05-03T08:00:49.019Z</time></trkpt><trkpt lat="44.2861472" lon="8.0330111"><ele>513.0</ele><time>2026-05-03T08:00:50.022Z</time></trkpt><trkpt lat="44.2858937" lon="8.0329267"><ele>513.0</ele><time>2026-05-03T08:00:51.026Z</time></trkpt><trkpt lat="44.2856516" lon="8.0328451"><ele>512.5</ele><time>2026-05-03T08:00:52.022Z</time></trkpt><trkpt lat="44.2854096" lon="8.0327769"><ele>512.0</ele><time>2026-05-03T08:00:53.031Z</time></trkpt><trkpt lat="44.285171" lon="8.0327306"><ele>512.0</ele><time>2026-05-03T08:00:54.021Z</time></trkpt><trkpt lat="44.2849274" lon="8.0327225"><ele>512.0</ele><time>2026-05-03T08:00:55.014Z</time></trkpt><trkpt lat="44.284684" lon="8.0327411"><ele>512.0</ele><time>2026-05-03T08:00:55.965Z</time></trkpt><trkpt lat="44.2844383" lon="8.0327794"><ele>512.0</ele><time>2026-05-03T08:00:56.972Z</time></trkpt><trkpt lat="44.2841901" lon="8.0327583"><ele>512.0</ele><time>2026-05-03T08:00:57.961Z</time></trkpt><trkpt lat="44.2839501" lon="8.0327039"><ele>512.0</ele><time>2026-05-03T08:00:58.97Z</time></trkpt><trkpt lat="44.2837088" lon="8.032678"><ele>511.0</ele><time>2026-05-03T08:00:59.963Z</time></trkpt><trkpt lat="44.2834624" lon="8.0326946"><ele>510.0</ele><time>2026-05-03T08:01:00.967Z</time></trkpt><trkpt lat="44.2832173" lon="8.0327531"><ele>521.5</ele><time>2026-05-03T08:01:01.962Z</time></trkpt><trkpt lat="44.2829854" lon="8.0328387"><ele>533.0</ele><time>2026-05-03T08:01:02.971Z</time></trkpt><trkpt lat="44.2827604" lon="8.0329584"><ele>533.0</ele><time>2026-05-03T08:01:03.956Z</time></trkpt><trkpt lat="44.2825446" lon="8.0331032"><ele>533.0</ele><time>2026-05-03T08:01:04.965Z</time></trkpt><trkpt lat="44.2823362" lon="8.0332606"><ele>531.5</ele><time>2026-05-03T08:01:05.96Z</time></trkpt><trkpt lat="44.2821216" lon="8.0334272"><ele>530.0</ele><time>2026-05-03T08:01:06.962Z</time></trkpt><trkpt lat="44.2819056" lon="8.0336194"><ele>530.0</ele><time>2026-05-03T08:01:07.96Z</time></trkpt><trkpt lat="44.2816918" lon="8.033822"><ele>530.0</ele><time>2026-05-03T08:01:08.957Z</time></trkpt><trkpt lat="44.2814825" lon="8.0340196"><ele>519.5</ele><time>2026-05-03T08:01:09.961Z</time></trkpt><trkpt lat="44.2812724" lon="8.0342136"><ele>509.0</ele><time>2026-05-03T08:01:10.961Z</time></trkpt><trkpt lat="44.2810627" lon="8.0343963"><ele>509.0</ele><time>2026-05-03T08:01:11.96Z</time></trkpt><trkpt lat="44.2808533" lon="8.0345687"><ele>509.0</ele><time>2026-05-03T08:01:12.967Z</time></trkpt><trkpt lat="44.2806498" lon="8.0347211"><ele>508.3333333333333</ele><time>2026-05-03T08:01:13.972Z</time></trkpt><trkpt lat="44.280466" lon="8.0348626"><ele>507.66666666666663</ele><time>2026-05-03T08:01:14.958Z</time></trkpt><trkpt lat="44.2803018" lon="8.0349971"><ele>507.0</ele><time>2026-05-03T08:01:15.961Z</time></trkpt><trkpt lat="44.2801502" lon="8.0351002"><ele>507.0</ele><time>2026-05-03T08:01:16.961Z</time></trkpt><trkpt lat="44.2799936" lon="8.0351663"><ele>507.0</ele><time>2026-05-03T08:01:17.973Z</time></trkpt><trkpt lat="44.2798355" lon="8.0351873"><ele>507.0</ele><time>2026-05-03T08:01:18.965Z</time></trkpt><trkpt lat="44.2796686" lon="8.0351559"><ele>507.0</ele><time>2026-05-03T08:01:19.967Z</time></trkpt><trkpt lat="44.2795123" lon="8.0351048"><ele>507.0</ele><time>2026-05-03T08:01:20.959Z</time></trkpt><trkpt lat="44.2793453" lon="8.0350082"><ele>507.0</ele><time>2026-05-03T08:01:21.959Z</time></trkpt><trkpt lat="44.2791983" lon="8.0348601"><ele>508.33333333333337</ele><time>2026-05-03T08:01:22.966Z</time></trkpt><trkpt lat="44.2790664" lon="8.0346983"><ele>509.6666666666667</ele><time>2026-05-03T08:01:23.954Z</time></trkpt><trkpt lat="44.2789302" lon="8.0345584"><ele>511.0</ele><time>2026-05-03T08:01:24.964Z</time></trkpt><trkpt lat="44.2787736" lon="8.0344593"><ele>511.0</ele><time>2026-05-03T08:01:25.959Z</time></trkpt><trkpt lat="44.2785887" lon="8.0344147"><ele>511.0</ele><time>2026-05-03T08:01:26.957Z</time></trkpt><trkpt lat="44.2783737" lon="8.0343987"><ele>511.0</ele><time>2026-05-03T08:01:27.963Z</time></trkpt><trkpt lat="44.2781476" lon="8.0343853"><ele>511.6666666666667</ele><time>2026-05-03T08:01:28.958Z</time></trkpt><trkpt lat="44.2779365" lon="8.0343673"><ele>512.3333333333334</ele><time>2026-05-03T08:01:29.958Z</time></trkpt><trkpt lat="44.2777406" lon="8.0343532"><ele>513.0</ele><time>2026-05-03T08:01:30.964Z</time></trkpt><trkpt lat="44.2775501" lon="8.0343406"><ele>513.0</ele><time>2026-05-03T08:01:31.968Z</time></trkpt><trkpt lat="44.2773512" lon="8.0343315"><ele>513.0</ele><time>2026-05-03T08:01:32.963Z</time></trkpt><trkpt lat="44.2771468" lon="8.0343269"><ele>513.0</ele><time>2026-05-03T08:01:33.954Z</time></trkpt><trkpt lat="44.2769352" lon="8.0343252"><ele>514.3333333333334</ele><time>2026-05-03T08:01:34.973Z</time></trkpt><trkpt lat="44.2767203" lon="8.0343165"><ele>515.6666666666667</ele><time>2026-05-03T08:01:35.956Z</time></trkpt><trkpt lat="44.2765114" lon="8.0343028"><ele>517.0</ele><time>2026-05-03T08:01:36.962Z</time></trkpt><trkpt lat="44.2763134" lon="8.034292"><ele>517.0</ele><time>2026-05-03T08:01:37.96Z</time></trkpt><trkpt lat="44.2761167" lon="8.0342609"><ele>517.0</ele><time>2026-05-03T08:01:38.959Z</time></trkpt><trkpt lat="44.2759195" lon="8.0341814"><ele>517.0</ele><time>2026-05-03T08:01:39.965Z</time></trkpt><trkpt lat="44.2757328" lon="8.0340582"><ele>519.0</ele><time>2026-05-03T08:01:40.957Z</time></trkpt><trkpt lat="44.275557" lon="8.0338859"><ele>521.0</ele><time>2026-05-03T08:01:41.962Z</time></trkpt><trkpt lat="44.2753883" lon="8.0337123"><ele>523.0</ele><time>2026-05-03T08:01:42.962Z</time></trkpt><trkpt lat="44.2752173" lon="8.0335546"><ele>523.0</ele><time>2026-05-03T08:01:43.959Z</time></trkpt><trkpt lat="44.2750533" lon="8.0334068"><ele>523.0</ele><time>2026-05-03T08:01:44.96Z</time></trkpt><trkpt lat="44.2748935" lon="8.0332528"><ele>523.0</ele><time>2026-05-03T08:01:45.969Z</time></trkpt><trkpt lat="44.2747568" lon="8.033076"><ele>521.6666666666667</ele><time>2026-05-03T08:01:46.959Z</time></trkpt><trkpt lat="44.274655" lon="8.0328583"><ele>520.3333333333334</ele><time>2026-05-03T08:01:47.95Z</time></trkpt><trkpt lat="44.2745389" lon="8.0326314"><ele>519.0</ele><time>2026-05-03T08:01:48.957Z</time></trkpt><trkpt lat="44.2744309" lon="8.0324041"><ele>524.3333333333334</ele><time>2026-05-03T08:01:49.961Z</time></trkpt><trkpt lat="44.2743376" lon="8.0321718"><ele>529.6666666666667</ele><time>2026-05-03T08:01:50.963Z</time></trkpt><trkpt lat="44.2742451" lon="8.0319325"><ele>535.0</ele><time>2026-05-03T08:01:51.962Z</time></trkpt><trkpt lat="44.2741546" lon="8.0317034"><ele>531.6666666666667</ele><time>2026-05-03T08:01:52.957Z</time></trkpt><trkpt lat="44.2740513" lon="8.0315004"><ele>528.3333333333334</ele><time>2026-05-03T08:01:53.963Z</time></trkpt><trkpt lat="44.2739424" lon="8.0313146"><ele>525.0</ele><time>2026-05-03T08:01:54.964Z</time></trkpt><trkpt lat="44.273805" lon="8.0311325"><ele>525.0</ele><time>2026-05-03T08:01:55.961Z</time></trkpt><trkpt lat="44.273639" lon="8.0309859"><ele>525.0</ele><time>2026-05-03T08:01:56.955Z</time></trkpt><trkpt lat="44.273444" lon="8.0309071"><ele>525.0</ele><time>2026-05-03T08:01:57.961Z</time></trkpt><trkpt lat="44.2732344" lon="8.0308348"><ele>524.0</ele><time>2026-05-03T08:01:58.978Z</time></trkpt><trkpt lat="44.2730234" lon="8.0307856"><ele>523.0</ele><time>2026-05-03T08:01:59.96Z</time></trkpt><trkpt lat="44.2727969" lon="8.0307257"><ele>522.0</ele><time>2026-05-03T08:02:00.966Z</time></trkpt><trkpt lat="44.2725771" lon="8.0306587"><ele>522.0</ele><time>2026-05-03T08:02:01.965Z</time></trkpt><trkpt lat="44.2723495" lon="8.0305968"><ele>522.0</ele><time>2026-05-03T08:02:02.964Z</time></trkpt><trkpt lat="44.2721173" lon="8.0305267"><ele>520.5</ele><time>2026-05-03T08:02:03.965Z</time></trkpt><trkpt lat="44.2718873" lon="8.0304516"><ele>519.0</ele><time>2026-05-03T08:02:04.962Z</time></trkpt><trkpt lat="44.2716538" lon="8.030381"><ele>520.0</ele><time>2026-05-03T08:02:05.967Z</time></trkpt><trkpt lat="44.2714258" lon="8.0303139"><ele>521.0</ele><time>2026-05-03T08:02:06.963Z</time></trkpt><trkpt lat="44.2712025" lon="8.030247"><ele>521.0</ele><time>2026-05-03T08:02:07.963Z</time></trkpt><trkpt lat="44.2709763" lon="8.0301776"><ele>521.0</ele><time>2026-05-03T08:02:08.964Z</time></trkpt><trkpt lat="44.2707496" lon="8.0301082"><ele>519.5</ele><time>2026-05-03T08:02:09.975Z</time></trkpt><trkpt lat="44.2705198" lon="8.0300349"><ele>518.0</ele><time>2026-05-03T08:02:10.967Z</time></trkpt><trkpt lat="44.270291" lon="8.0299657"><ele>521.5</ele><time>2026-05-03T08:02:11.963Z</time></trkpt><trkpt lat="44.2700613" lon="8.0299025"><ele>525.0</ele><time>2026-05-03T08:02:12.964Z</time></trkpt><trkpt lat="44.2698264" lon="8.0298378"><ele>522.0</ele><time>2026-05-03T08:02:13.962Z</time></trkpt><trkpt lat="44.2695861" lon="8.0297622"><ele>519.0</ele><time>2026-05-03T08:02:14.967Z</time></trkpt><trkpt lat="44.2693425" lon="8.0296702"><ele>519.0</ele><time>2026-05-03T08:02:15.953Z</time></trkpt><trkpt lat="44.269099" lon="8.0295503"><ele>519.0</ele><time>2026-05-03T08:02:16.964Z</time></trkpt><trkpt lat="44.2688598" lon="8.0293954"><ele>517.5</ele><time>2026-05-03T08:02:17.967Z</time></trkpt><trkpt lat="44.2686134" lon="8.0292421"><ele>516.0</ele><time>2026-05-03T08:02:18.975Z</time></trkpt><trkpt lat="44.2683654" lon="8.0290867"><ele>516.0</ele><time>2026-05-03T08:02:19.968Z</time></trkpt><trkpt lat="44.2681116" lon="8.0289347"><ele>516.0</ele><time>2026-05-03T08:02:20.97Z</time></trkpt><trkpt lat="44.2678631" lon="8.0287735"><ele>517.0</ele><time>2026-05-03T08:02:21.973Z</time></trkpt><trkpt lat="44.2676118" lon="8.0286122"><ele>518.0</ele><time>2026-05-03T08:02:22.975Z</time></trkpt><trkpt lat="44.2673647" lon="8.0284531"><ele>519.0</ele><time>2026-05-03T08:02:23.965Z</time></trkpt><trkpt lat="44.2671185" lon="8.0282956"><ele>520.0</ele><time>2026-05-03T08:02:24.982Z</time></trkpt><trkpt lat="44.2668732" lon="8.0281411"><ele>520.0</ele><time>2026-05-03T08:02:25.972Z</time></trkpt><trkpt lat="44.2666281" lon="8.0279869"><ele>520.0</ele><time>2026-05-03T08:02:26.963Z</time></trkpt><trkpt lat="44.2663829" lon="8.0278362"><ele>521.0</ele><time>2026-05-03T08:02:27.962Z</time></trkpt><trkpt lat="44.266139" lon="8.0276869"><ele>522.0</ele><time>2026-05-03T08:02:28.964Z</time></trkpt><trkpt lat="44.2658979" lon="8.0275373"><ele>523.5</ele><time>2026-05-03T08:02:29.966Z</time></trkpt><trkpt lat="44.2656561" lon="8.02739"><ele>525.0</ele><time>2026-05-03T08:02:30.972Z</time></trkpt><trkpt lat="44.2654173" lon="8.0272426"><ele>526.0</ele><time>2026-05-03T08:02:31.968Z</time></trkpt><trkpt lat="44.2651873" lon="8.0270974"><ele>527.0</ele><time>2026-05-03T08:02:32.973Z</time></trkpt><trkpt lat="44.2649619" lon="8.0269567"><ele>525.5</ele><time>2026-05-03T08:02:33.969Z</time></trkpt><trkpt lat="44.2647506" lon="8.0268262"><ele>524.0</ele><time>2026-05-03T08:02:34.967Z</time></trkpt><trkpt lat="44.2645483" lon="8.0266974"><ele>525.6666666666666</ele><time>2026-05-03T08:02:35.963Z</time></trkpt><trkpt lat="44.2643496" lon="8.0265707"><ele>527.3333333333334</ele><time>2026-05-03T08:02:36.969Z</time></trkpt><trkpt lat="44.2641498" lon="8.026447"><ele>529.0</ele><time>2026-05-03T08:02:37.959Z</time></trkpt><trkpt lat="44.2639525" lon="8.0263283"><ele>529.0</ele><time>2026-05-03T08:02:38.971Z</time></trkpt><trkpt lat="44.2637581" lon="8.026202"><ele>529.0</ele><time>2026-05-03T08:02:39.971Z</time></trkpt><trkpt lat="44.2635647" lon="8.0260786"><ele>529.0</ele><time>2026-05-03T08:02:40.965Z</time></trkpt><trkpt lat="44.2633781" lon="8.0259593"><ele>529.0</ele><time>2026-05-03T08:02:41.962Z</time></trkpt><trkpt lat="44.2631927" lon="8.025851"><ele>529.0</ele><time>2026-05-03T08:02:42.972Z</time></trkpt><trkpt lat="44.263007" lon="8.0257408"><ele>529.0</ele><time>2026-05-03T08:02:43.97Z</time></trkpt><trkpt lat="44.262816" lon="8.0256184"><ele>529.0</ele><time>2026-05-03T08:02:44.971Z</time></trkpt><trkpt lat="44.2626222" lon="8.025496"><ele>529.0</ele><time>2026-05-03T08:02:45.965Z</time></trkpt><trkpt lat="44.2624194" lon="8.0253682"><ele>529.0</ele><time>2026-05-03T08:02:46.97Z</time></trkpt><trkpt lat="44.2622077" lon="8.0252317"><ele>526.5</ele><time>2026-05-03T08:02:47.967Z</time></trkpt><trkpt lat="44.2619892" lon="8.0250887"><ele>524.0</ele><time>2026-05-03T08:02:48.963Z</time></trkpt><trkpt lat="44.2617637" lon="8.0249444"><ele>524.0</ele><time>2026-05-03T08:02:49.981Z</time></trkpt><trkpt lat="44.2615354" lon="8.0248017"><ele>524.0</ele><time>2026-05-03T08:02:50.961Z</time></trkpt><trkpt lat="44.2613034" lon="8.0246602"><ele>526.0</ele><time>2026-05-03T08:02:51.962Z</time></trkpt><trkpt lat="44.2610696" lon="8.0245087"><ele>528.0</ele><time>2026-05-03T08:02:52.96Z</time></trkpt><trkpt lat="44.2608293" lon="8.024354"><ele>526.5</ele><time>2026-05-03T08:02:53.969Z</time></trkpt><trkpt lat="44.2605872" lon="8.0242048"><ele>525.0</ele><time>2026-05-03T08:02:54.959Z</time></trkpt><trkpt lat="44.2603434" lon="8.0240553"><ele>532.0</ele><time>2026-05-03T08:02:55.965Z</time></trkpt><trkpt lat="44.2601055" lon="8.0239015"><ele>539.0</ele><time>2026-05-03T08:02:56.971Z</time></trkpt><trkpt lat="44.2598742" lon="8.0237595"><ele>535.6666666666666</ele><time>2026-05-03T08:02:57.976Z</time></trkpt><trkpt lat="44.2596585" lon="8.0236173"><ele>532.3333333333334</ele><time>2026-05-03T08:02:58.963Z</time></trkpt><trkpt lat="44.2594698" lon="8.0234911"><ele>529.0</ele><time>2026-05-03T08:02:59.967Z</time></trkpt><trkpt lat="44.2592973" lon="8.0233638"><ele>530.3333333333334</ele><time>2026-05-03T08:03:00.964Z</time></trkpt><trkpt lat="44.2591432" lon="8.0232173"><ele>531.6666666666666</ele><time>2026-05-03T08:03:01.976Z</time></trkpt><trkpt lat="44.2590022" lon="8.0230669"><ele>533.0</ele><time>2026-05-03T08:03:02.972Z</time></trkpt><trkpt lat="44.2588782" lon="8.0228944"><ele>533.0</ele><time>2026-05-03T08:03:03.968Z</time></trkpt><trkpt lat="44.258761" lon="8.0227276"><ele>533.0</ele><time>2026-05-03T08:03:04.968Z</time></trkpt><trkpt lat="44.2586426" lon="8.0225668"><ele>533.0</ele><time>2026-05-03T08:03:05.967Z</time></trkpt><trkpt lat="44.2585313" lon="8.0224134"><ele>535.3333333333333</ele><time>2026-05-03T08:03:06.968Z</time></trkpt><trkpt lat="44.2584155" lon="8.022263"><ele>537.6666666666666</ele><time>2026-05-03T08:03:07.969Z</time></trkpt><trkpt lat="44.2583036" lon="8.0221217"><ele>540.0</ele><time>2026-05-03T08:03:08.971Z</time></trkpt><trkpt lat="44.2581913" lon="8.0219699"><ele>540.6666666666666</ele><time>2026-05-03T08:03:09.972Z</time></trkpt><trkpt lat="44.2580723" lon="8.0218094"><ele>541.3333333333333</ele><time>2026-05-03T08:03:10.974Z</time></trkpt><trkpt lat="44.2579363" lon="8.0216623"><ele>542.0</ele><time>2026-05-03T08:03:11.967Z</time></trkpt><trkpt lat="44.2577799" lon="8.0215243"><ele>542.0</ele><time>2026-05-03T08:03:12.967Z</time></trkpt><trkpt lat="44.257615" lon="8.0213984"><ele>542.0</ele><time>2026-05-03T08:03:13.969Z</time></trkpt><trkpt lat="44.2574367" lon="8.0212777"><ele>542.0</ele><time>2026-05-03T08:03:14.964Z</time></trkpt><trkpt lat="44.2572524" lon="8.0211549"><ele>544.0</ele><time>2026-05-03T08:03:15.973Z</time></trkpt><trkpt lat="44.2570675" lon="8.0210274"><ele>546.0</ele><time>2026-05-03T08:03:16.97Z</time></trkpt><trkpt lat="44.2568817" lon="8.0208919"><ele>548.0</ele><time>2026-05-03T08:03:17.968Z</time></trkpt><trkpt lat="44.2566881" lon="8.0207623"><ele>548.0</ele><time>2026-05-03T08:03:18.976Z</time></trkpt><trkpt lat="44.2564968" lon="8.0206291"><ele>548.0</ele><time>2026-05-03T08:03:19.96Z</time></trkpt><trkpt lat="44.2562957" lon="8.0204955"><ele>548.0</ele><time>2026-05-03T08:03:20.969Z</time></trkpt><trkpt lat="44.2560936" lon="8.0203717"><ele>546.0</ele><time>2026-05-03T08:03:21.966Z</time></trkpt><trkpt lat="44.2558864" lon="8.0202577"><ele>544.0</ele><time>2026-05-03T08:03:22.966Z</time></trkpt><trkpt lat="44.2556778" lon="8.020159"><ele>542.0</ele><time>2026-05-03T08:03:23.976Z</time></trkpt><trkpt lat="44.255465" lon="8.0200983"><ele>541.5</ele><time>2026-05-03T08:03:24.971Z</time></trkpt><trkpt lat="44.2552449" lon="8.0200758"><ele>541.0</ele><time>2026-05-03T08:03:25.972Z</time></trkpt><trkpt lat="44.2550156" lon="8.0200663"><ele>546.0</ele><time>2026-05-03T08:03:26.964Z</time></trkpt><trkpt lat="44.2547814" lon="8.0200689"><ele>551.0</ele><time>2026-05-03T08:03:27.966Z</time></trkpt><trkpt lat="44.2545416" lon="8.0200894"><ele>551.0</ele><time>2026-05-03T08:03:28.966Z</time></trkpt><trkpt lat="44.2542963" lon="8.0201241"><ele>551.0</ele><time>2026-05-03T08:03:29.973Z</time></trkpt><trkpt lat="44.2540484" lon="8.0201666"><ele>557.5</ele><time>2026-05-03T08:03:30.978Z</time></trkpt><trkpt lat="44.2537978" lon="8.0202165"><ele>564.0</ele><time>2026-05-03T08:03:31.976Z</time></trkpt><trkpt lat="44.2535444" lon="8.0202573"><ele>564.0</ele><time>2026-05-03T08:03:32.966Z</time></trkpt><trkpt lat="44.2532951" lon="8.0203006"><ele>564.0</ele><time>2026-05-03T08:03:33.968Z</time></trkpt><trkpt lat="44.2530559" lon="8.0203554"><ele>565.0</ele><time>2026-05-03T08:03:34.969Z</time></trkpt><trkpt lat="44.2528238" lon="8.0204406"><ele>566.0</ele><time>2026-05-03T08:03:35.958Z</time></trkpt><trkpt lat="44.2525915" lon="8.0205359"><ele>566.0</ele><time>2026-05-03T08:03:36.99Z</time></trkpt><trkpt lat="44.2523557" lon="8.0206566"><ele>566.0</ele><time>2026-05-03T08:03:37.964Z</time></trkpt><trkpt lat="44.2521284" lon="8.0207997"><ele>555.5</ele><time>2026-05-03T08:03:38.972Z</time></trkpt><trkpt lat="44.2519074" lon="8.0209479"><ele>545.0</ele><time>2026-05-03T08:03:39.972Z</time></trkpt><trkpt lat="44.251707" lon="8.0210922"><ele>545.0</ele><time>2026-05-03T08:03:40.964Z</time></trkpt><trkpt lat="44.251517" lon="8.0212217"><ele>545.0</ele><time>2026-05-03T08:03:41.98Z</time></trkpt><trkpt lat="44.2513217" lon="8.021327"><ele>545.0</ele><time>2026-05-03T08:03:42.956Z</time></trkpt><trkpt lat="44.2511263" lon="8.0213995"><ele>545.3333333333333</ele><time>2026-05-03T08:03:43.971Z</time></trkpt><trkpt lat="44.2509199" lon="8.0214429"><ele>545.6666666666666</ele><time>2026-05-03T08:03:44.966Z</time></trkpt><trkpt lat="44.2507006" lon="8.021464"><ele>546.0</ele><time>2026-05-03T08:03:45.967Z</time></trkpt><trkpt lat="44.250479" lon="8.0214778"><ele>546.0</ele><time>2026-05-03T08:03:46.97Z</time></trkpt><trkpt lat="44.2502593" lon="8.0214885"><ele>546.0</ele><time>2026-05-03T08:03:47.962Z</time></trkpt><trkpt lat="44.250037" lon="8.0214963"><ele>546.0</ele><time>2026-05-03T08:03:48.968Z</time></trkpt><trkpt lat="44.2498108" lon="8.021501"><ele>544.0</ele><time>2026-05-03T08:03:49.961Z</time></trkpt><trkpt lat="44.2495913" lon="8.0215113"><ele>542.0</ele><time>2026-05-03T08:03:50.974Z</time></trkpt><trkpt lat="44.2493711" lon="8.0215214"><ele>540.0</ele><time>2026-05-03T08:03:51.968Z</time></trkpt><trkpt lat="44.2491516" lon="8.0215268"><ele>540.0</ele><time>2026-05-03T08:03:52.967Z</time></trkpt><trkpt lat="44.2489324" lon="8.02153"><ele>540.0</ele><time>2026-05-03T08:03:53.969Z</time></trkpt><trkpt lat="44.2487137" lon="8.021534"><ele>540.0</ele><time>2026-05-03T08:03:54.969Z</time></trkpt><trkpt lat="44.248489" lon="8.021538"><ele>540.0</ele><time>2026-05-03T08:03:55.972Z</time></trkpt><trkpt lat="44.248262" lon="8.0215434"><ele>540.0</ele><time>2026-05-03T08:03:56.968Z</time></trkpt><trkpt lat="44.2480289" lon="8.0215429"><ele>544.0</ele><time>2026-05-03T08:03:57.967Z</time></trkpt><trkpt lat="44.2477972" lon="8.0215488"><ele>548.0</ele><time>2026-05-03T08:03:58.971Z</time></trkpt><trkpt lat="44.2475714" lon="8.0215522"><ele>548.0</ele><time>2026-05-03T08:03:59.969Z</time></trkpt><trkpt lat="44.2473521" lon="8.0215599"><ele>548.0</ele><time>2026-05-03T08:04:00.965Z</time></trkpt><trkpt lat="44.2471468" lon="8.0215655"><ele>548.0</ele><time>2026-05-03T08:04:01.966Z</time></trkpt><trkpt lat="44.2469443" lon="8.0215727"><ele>550.0</ele><time>2026-05-03T08:04:02.963Z</time></trkpt><trkpt lat="44.2467426" lon="8.0215762"><ele>552.0</ele><time>2026-05-03T08:04:03.968Z</time></trkpt><trkpt lat="44.2465489" lon="8.0215784"><ele>554.0</ele><time>2026-05-03T08:04:04.969Z</time></trkpt><trkpt lat="44.2463641" lon="8.0215812"><ele>556.3333333333333</ele><time>2026-05-03T08:04:05.973Z</time></trkpt><trkpt lat="44.246191" lon="8.0215871"><ele>558.6666666666666</ele><time>2026-05-03T08:04:06.972Z</time></trkpt><trkpt lat="44.2460264" lon="8.0215904"><ele>561.0</ele><time>2026-05-03T08:04:07.959Z</time></trkpt><trkpt lat="44.2458769" lon="8.0215984"><ele>561.0</ele><time>2026-05-03T08:04:08.967Z</time></trkpt><trkpt lat="44.2457394" lon="8.0216056"><ele>561.0</ele><time>2026-05-03T08:04:09.959Z</time></trkpt><trkpt lat="44.2456115" lon="8.0216094"><ele>561.0</ele><time>2026-05-03T08:04:10.96Z</time></trkpt><trkpt lat="44.2454841" lon="8.0216176"><ele>561.0</ele><time>2026-05-03T08:04:11.963Z</time></trkpt><trkpt lat="44.2453571" lon="8.0216253"><ele>561.25</ele><time>2026-05-03T08:04:12.963Z</time></trkpt><trkpt lat="44.245236" lon="8.0216247"><ele>561.5</ele><time>2026-05-03T08:04:13.964Z</time></trkpt><trkpt lat="44.2451091" lon="8.0216303"><ele>561.75</ele><time>2026-05-03T08:04:14.968Z</time></trkpt><trkpt lat="44.2449872" lon="8.0216308"><ele>562.0</ele><time>2026-05-03T08:04:15.962Z</time></trkpt><trkpt lat="44.2448652" lon="8.0216316"><ele>560.5</ele><time>2026-05-03T08:04:16.967Z</time></trkpt><trkpt lat="44.2447343" lon="8.0216382"><ele>559.0</ele><time>2026-05-03T08:04:17.971Z</time></trkpt><trkpt lat="44.2446036" lon="8.0216408"><ele>557.5</ele><time>2026-05-03T08:04:18.964Z</time></trkpt><trkpt lat="44.2444678" lon="8.0216483"><ele>556.0</ele><time>2026-05-03T08:04:19.969Z</time></trkpt><trkpt lat="44.2443247" lon="8.0216518"><ele>553.3333333333334</ele><time>2026-05-03T08:04:20.966Z</time></trkpt><trkpt lat="44.2441628" lon="8.0216512"><ele>550.6666666666666</ele><time>2026-05-03T08:04:21.968Z</time></trkpt><trkpt lat="44.2439878" lon="8.0216549"><ele>548.0</ele><time>2026-05-03T08:04:22.978Z</time></trkpt><trkpt lat="44.2438121" lon="8.0216631"><ele>548.0</ele><time>2026-05-03T08:04:23.965Z</time></trkpt><trkpt lat="44.2436241" lon="8.0216723"><ele>548.0</ele><time>2026-05-03T08:04:24.956Z</time></trkpt><trkpt lat="44.2434464" lon="8.0216729"><ele>548.0</ele><time>2026-05-03T08:04:25.969Z</time></trkpt><trkpt lat="44.2432601" lon="8.0216835"><ele>548.6666666666666</ele><time>2026-05-03T08:04:26.967Z</time></trkpt><trkpt lat="44.2430804" lon="8.0216901"><ele>549.3333333333334</ele><time>2026-05-03T08:04:27.96Z</time></trkpt><trkpt lat="44.2428893" lon="8.0216937"><ele>550.0</ele><time>2026-05-03T08:04:28.969Z</time></trkpt><trkpt lat="44.2426977" lon="8.0216943"><ele>550.0</ele><time>2026-05-03T08:04:29.966Z</time></trkpt><trkpt lat="44.2425062" lon="8.021695"><ele>550.0</ele><time>2026-05-03T08:04:30.965Z</time></trkpt><trkpt lat="44.2423094" lon="8.0216897"><ele>550.0</ele><time>2026-05-03T08:04:31.963Z</time></trkpt><trkpt lat="44.2421123" lon="8.0216682"><ele>551.6666666666667</ele><time>2026-05-03T08:04:32.964Z</time></trkpt><trkpt lat="44.2419232" lon="8.021628"><ele>553.3333333333334</ele><time>2026-05-03T08:04:33.981Z</time></trkpt><trkpt lat="44.2417308" lon="8.02155"><ele>555.0</ele><time>2026-05-03T08:04:34.964Z</time></trkpt><trkpt lat="44.2415396" lon="8.0214672"><ele>553.3333333333334</ele><time>2026-05-03T08:04:35.963Z</time></trkpt><trkpt lat="44.2413482" lon="8.0213834"><ele>551.6666666666667</ele><time>2026-05-03T08:04:36.97Z</time></trkpt><trkpt lat="44.2411601" lon="8.0212992"><ele>550.0</ele><time>2026-05-03T08:04:37.958Z</time></trkpt><trkpt lat="44.2409716" lon="8.0211986"><ele>550.0</ele><time>2026-05-03T08:04:38.954Z</time></trkpt><trkpt lat="44.2408019" lon="8.0210746"><ele>550.0</ele><time>2026-05-03T08:04:39.959Z</time></trkpt><trkpt lat="44.2406479" lon="8.020925"><ele>550.0</ele><time>2026-05-03T08:04:40.965Z</time></trkpt><trkpt lat="44.2405065" lon="8.0207442"><ele>550.0</ele><time>2026-05-03T08:04:41.965Z</time></trkpt><trkpt lat="44.2403729" lon="8.0205276"><ele>550.0</ele><time>2026-05-03T08:04:42.959Z</time></trkpt><trkpt lat="44.2402588" lon="8.0202902"><ele>550.0</ele><time>2026-05-03T08:04:43.962Z</time></trkpt><trkpt lat="44.2401503" lon="8.0200443"><ele>548.6666666666667</ele><time>2026-05-03T08:04:44.965Z</time></trkpt><trkpt lat="44.2400382" lon="8.0197984"><ele>547.3333333333334</ele><time>2026-05-03T08:04:45.964Z</time></trkpt><trkpt lat="44.2399159" lon="8.0195403"><ele>546.0</ele><time>2026-05-03T08:04:46.954Z</time></trkpt><trkpt lat="44.2397982" lon="8.0192819"><ele>546.6666666666666</ele><time>2026-05-03T08:04:47.966Z</time></trkpt><trkpt lat="44.2396824" lon="8.0190194"><ele>547.3333333333333</ele><time>2026-05-03T08:04:48.953Z</time></trkpt><trkpt lat="44.2395694" lon="8.0187503"><ele>548.0</ele><time>2026-05-03T08:04:49.972Z</time></trkpt><trkpt lat="44.2394764" lon="8.0184657"><ele>548.0</ele><time>2026-05-03T08:04:50.968Z</time></trkpt><trkpt lat="44.2394041" lon="8.0181798"><ele>548.0</ele><time>2026-05-03T08:04:51.966Z</time></trkpt><trkpt lat="44.2393383" lon="8.0178902"><ele>548.0</ele><time>2026-05-03T08:04:52.958Z</time></trkpt><trkpt lat="44.2392708" lon="8.0176042"><ele>547.6666666666666</ele><time>2026-05-03T08:04:53.966Z</time></trkpt><trkpt lat="44.239182" lon="8.0173316"><ele>547.3333333333334</ele><time>2026-05-03T08:04:54.97Z</time></trkpt><trkpt lat="44.2390761" lon="8.017045"><ele>547.0</ele><time>2026-05-03T08:04:55.965Z</time></trkpt><trkpt lat="44.2389478" lon="8.0167652"><ele>547.0</ele><time>2026-05-03T08:04:56.971Z</time></trkpt><trkpt lat="44.2388033" lon="8.0165012"><ele>547.0</ele><time>2026-05-03T08:04:57.971Z</time></trkpt><trkpt lat="44.2386387" lon="8.0162479"><ele>547.0</ele><time>2026-05-03T08:04:58.978Z</time></trkpt><trkpt lat="44.2384484" lon="8.0160121"><ele>547.0</ele><time>2026-05-03T08:04:59.963Z</time></trkpt><trkpt lat="44.2382372" lon="8.0158103"><ele>546.5</ele><time>2026-05-03T08:05:00.967Z</time></trkpt><trkpt lat="44.238014" lon="8.0156252"><ele>546.0</ele><time>2026-05-03T08:05:01.963Z</time></trkpt><trkpt lat="44.237776" lon="8.0154791"><ele>546.0</ele><time>2026-05-03T08:05:02.971Z</time></trkpt><trkpt lat="44.2375263" lon="8.0153433"><ele>546.0</ele><time>2026-05-03T08:05:03.964Z</time></trkpt><trkpt lat="44.2372684" lon="8.015259"><ele>546.5</ele><time>2026-05-03T08:05:04.965Z</time></trkpt><trkpt lat="44.2369987" lon="8.015209"><ele>547.0</ele><time>2026-05-03T08:05:05.961Z</time></trkpt><trkpt lat="44.2367294" lon="8.0151878"><ele>546.5</ele><time>2026-05-03T08:05:06.966Z</time></trkpt><trkpt lat="44.2364533" lon="8.0151804"><ele>546.0</ele><time>2026-05-03T08:05:07.963Z</time></trkpt><trkpt lat="44.2361791" lon="8.015175"><ele>546.0</ele><time>2026-05-03T08:05:08.98Z</time></trkpt><trkpt lat="44.2359044" lon="8.0151655"><ele>546.0</ele><time>2026-05-03T08:05:09.964Z</time></trkpt><trkpt lat="44.2356345" lon="8.0151486"><ele>548.0</ele><time>2026-05-03T08:05:10.967Z</time></trkpt><trkpt lat="44.235365" lon="8.0151404"><ele>550.0</ele><time>2026-05-03T08:05:11.973Z</time></trkpt><trkpt lat="44.2350986" lon="8.0151289"><ele>550.0</ele><time>2026-05-03T08:05:12.966Z</time></trkpt><trkpt lat="44.2348372" lon="8.0151165"><ele>550.0</ele><time>2026-05-03T08:05:13.967Z</time></trkpt><trkpt lat="44.2345827" lon="8.0151215"><ele>550.5</ele><time>2026-05-03T08:05:14.964Z</time></trkpt><trkpt lat="44.2343348" lon="8.0151538"><ele>551.0</ele><time>2026-05-03T08:05:15.966Z</time></trkpt><trkpt lat="44.2340845" lon="8.0152094"><ele>553.5</ele><time>2026-05-03T08:05:16.969Z</time></trkpt><trkpt lat="44.2338379" lon="8.0152997"><ele>556.0</ele><time>2026-05-03T08:05:17.969Z</time></trkpt><trkpt lat="44.2335959" lon="8.0154162"><ele>556.0</ele><time>2026-05-03T08:05:18.965Z</time></trkpt><trkpt lat="44.233359" lon="8.0155495"><ele>556.0</ele><time>2026-05-03T08:05:19.979Z</time></trkpt><trkpt lat="44.2331221" lon="8.0157038"><ele>558.0</ele><time>2026-05-03T08:05:20.969Z</time></trkpt><trkpt lat="44.2328847" lon="8.0158736"><ele>560.0</ele><time>2026-05-03T08:05:21.963Z</time></trkpt><trkpt lat="44.2326499" lon="8.0160453"><ele>560.0</ele><time>2026-05-03T08:05:22.965Z</time></trkpt><trkpt lat="44.23242" lon="8.0162053"><ele>560.0</ele><time>2026-05-03T08:05:23.97Z</time></trkpt><trkpt lat="44.2321922" lon="8.0163649"><ele>561.0</ele><time>2026-05-03T08:05:24.969Z</time></trkpt><trkpt lat="44.2319647" lon="8.0165202"><ele>562.0</ele><time>2026-05-03T08:05:25.983Z</time></trkpt><trkpt lat="44.2317413" lon="8.0166679"><ele>562.0</ele><time>2026-05-03T08:05:26.964Z</time></trkpt><trkpt lat="44.2315185" lon="8.0168134"><ele>562.0</ele><time>2026-05-03T08:05:27.963Z</time></trkpt><trkpt lat="44.2312975" lon="8.0169564"><ele>566.0</ele><time>2026-05-03T08:05:28.965Z</time></trkpt><trkpt lat="44.2310722" lon="8.0170983"><ele>570.0</ele><time>2026-05-03T08:05:29.963Z</time></trkpt><trkpt lat="44.2308417" lon="8.0172142"><ele>571.5</ele><time>2026-05-03T08:05:30.96Z</time></trkpt><trkpt lat="44.2306065" lon="8.0173075"><ele>573.0</ele><time>2026-05-03T08:05:31.964Z</time></trkpt><trkpt lat="44.2303576" lon="8.0173761"><ele>573.0</ele><time>2026-05-03T08:05:32.966Z</time></trkpt><trkpt lat="44.2301006" lon="8.0174125"><ele>573.0</ele><time>2026-05-03T08:05:33.967Z</time></trkpt><trkpt lat="44.2298506" lon="8.017412"><ele>570.5</ele><time>2026-05-03T08:05:34.983Z</time></trkpt><trkpt lat="44.2295992" lon="8.0173903"><ele>568.0</ele><time>2026-05-03T08:05:35.961Z</time></trkpt><trkpt lat="44.2293496" lon="8.017336"><ele>568.0</ele><time>2026-05-03T08:05:36.966Z</time></trkpt><trkpt lat="44.229102" lon="8.0172461"><ele>568.0</ele><time>2026-05-03T08:05:37.966Z</time></trkpt><trkpt lat="44.2288607" lon="8.0171165"><ele>566.0</ele><time>2026-05-03T08:05:38.97Z</time></trkpt><trkpt lat="44.2286256" lon="8.0169767"><ele>564.0</ele><time>2026-05-03T08:05:39.964Z</time></trkpt><trkpt lat="44.2283932" lon="8.0168309"><ele>564.0</ele><time>2026-05-03T08:05:40.971Z</time></trkpt><trkpt lat="44.2281579" lon="8.0166768"><ele>564.0</ele><time>2026-05-03T08:05:41.957Z</time></trkpt><trkpt lat="44.2279241" lon="8.0165285"><ele>570.0</ele><time>2026-05-03T08:05:42.964Z</time></trkpt><trkpt lat="44.227692" lon="8.0163815"><ele>576.0</ele><time>2026-05-03T08:05:43.963Z</time></trkpt><trkpt lat="44.2274549" lon="8.016237"><ele>571.0</ele><time>2026-05-03T08:05:44.962Z</time></trkpt><trkpt lat="44.2272078" lon="8.0160944"><ele>566.0</ele><time>2026-05-03T08:05:45.962Z</time></trkpt><trkpt lat="44.2269621" lon="8.0159661"><ele>566.0</ele><time>2026-05-03T08:05:46.963Z</time></trkpt><trkpt lat="44.2267136" lon="8.0158377"><ele>566.0</ele><time>2026-05-03T08:05:47.967Z</time></trkpt><trkpt lat="44.2264592" lon="8.0157233"><ele>569.0</ele><time>2026-05-03T08:05:48.974Z</time></trkpt><trkpt lat="44.2261998" lon="8.015615"><ele>572.0</ele><time>2026-05-03T08:05:49.964Z</time></trkpt><trkpt lat="44.2259332" lon="8.0155291"><ele>572.0</ele><time>2026-05-03T08:05:50.963Z</time></trkpt><trkpt lat="44.2256651" lon="8.0154434"><ele>572.0</ele><time>2026-05-03T08:05:51.968Z</time></trkpt><trkpt lat="44.225392" lon="8.0153695"><ele>566.0</ele><time>2026-05-03T08:05:52.963Z</time></trkpt><trkpt lat="44.2251147" lon="8.0153061"><ele>560.0</ele><time>2026-05-03T08:05:53.965Z</time></trkpt><trkpt lat="44.2248383" lon="8.0152566"><ele>560.5</ele><time>2026-05-03T08:05:54.966Z</time></trkpt><trkpt lat="44.2245576" lon="8.0152192"><ele>561.0</ele><time>2026-05-03T08:05:55.966Z</time></trkpt><trkpt lat="44.2242767" lon="8.0151956"><ele>561.0</ele><time>2026-05-03T08:05:56.972Z</time></trkpt><trkpt lat="44.224002" lon="8.0151697"><ele>561.0</ele><time>2026-05-03T08:05:57.961Z</time></trkpt><trkpt lat="44.2237207" lon="8.0151461"><ele>561.0</ele><time>2026-05-03T08:05:58.973Z</time></trkpt><trkpt lat="44.2234402" lon="8.0151182"><ele>561.0</ele><time>2026-05-03T08:05:59.967Z</time></trkpt><trkpt lat="44.223165" lon="8.0150937"><ele>560.5</ele><time>2026-05-03T08:06:00.961Z</time></trkpt><trkpt lat="44.2228893" lon="8.0150795"><ele>560.0</ele><time>2026-05-03T08:06:01.959Z</time></trkpt><trkpt lat="44.2226216" lon="8.0150604"><ele>560.0</ele><time>2026-05-03T08:06:02.964Z</time></trkpt><trkpt lat="44.2223541" lon="8.0150462"><ele>560.0</ele><time>2026-05-03T08:06:03.96Z</time></trkpt><trkpt lat="44.2220921" lon="8.0150307"><ele>560.5</ele><time>2026-05-03T08:06:04.967Z</time></trkpt><trkpt lat="44.2218323" lon="8.015017"><ele>561.0</ele><time>2026-05-03T08:06:05.967Z</time></trkpt><trkpt lat="44.2215701" lon="8.0150031"><ele>563.5</ele><time>2026-05-03T08:06:06.971Z</time></trkpt><trkpt lat="44.2213072" lon="8.0149869"><ele>566.0</ele><time>2026-05-03T08:06:07.961Z</time></trkpt><trkpt lat="44.22105" lon="8.0149683"><ele>566.0</ele><time>2026-05-03T08:06:08.971Z</time></trkpt><trkpt lat="44.2207923" lon="8.0149472"><ele>566.0</ele><time>2026-05-03T08:06:09.963Z</time></trkpt><trkpt lat="44.2205307" lon="8.0149264"><ele>565.5</ele><time>2026-05-03T08:06:10.967Z</time></trkpt><trkpt lat="44.2202731" lon="8.0149067"><ele>565.0</ele><time>2026-05-03T08:06:11.964Z</time></trkpt><trkpt lat="44.2200111" lon="8.0148855"><ele>564.5</ele><time>2026-05-03T08:06:12.967Z</time></trkpt><trkpt lat="44.2197534" lon="8.0148642"><ele>564.0</ele><time>2026-05-03T08:06:13.965Z</time></trkpt><trkpt lat="44.2195057" lon="8.0148439"><ele>564.0</ele><time>2026-05-03T08:06:14.969Z</time></trkpt><trkpt lat="44.2192585" lon="8.0148307"><ele>564.0</ele><time>2026-05-03T08:06:15.964Z</time></trkpt><trkpt lat="44.2190189" lon="8.0148168"><ele>564.5</ele><time>2026-05-03T08:06:16.967Z</time></trkpt><trkpt lat="44.2187847" lon="8.0147988"><ele>565.0</ele><time>2026-05-03T08:06:17.967Z</time></trkpt><trkpt lat="44.2185576" lon="8.0147829"><ele>565.0</ele><time>2026-05-03T08:06:18.969Z</time></trkpt><trkpt lat="44.2183279" lon="8.0147652"><ele>565.0</ele><time>2026-05-03T08:06:19.962Z</time></trkpt><trkpt lat="44.2181024" lon="8.0147481"><ele>565.0</ele><time>2026-05-03T08:06:20.97Z</time></trkpt><trkpt lat="44.2178746" lon="8.0147318"><ele>565.0</ele><time>2026-05-03T08:06:21.974Z</time></trkpt><trkpt lat="44.2176475" lon="8.0147171"><ele>565.0</ele><time>2026-05-03T08:06:22.982Z</time></trkpt><trkpt lat="44.2174157" lon="8.0147008"><ele>565.0</ele><time>2026-05-03T08:06:23.965Z</time></trkpt><trkpt lat="44.2171867" lon="8.0146816"><ele>565.0</ele><time>2026-05-03T08:06:24.97Z</time></trkpt><trkpt lat="44.2169534" lon="8.0146673"><ele>565.0</ele><time>2026-05-03T08:06:25.972Z</time></trkpt><trkpt lat="44.2167189" lon="8.0146472"><ele>565.0</ele><time>2026-05-03T08:06:26.971Z</time></trkpt><trkpt lat="44.2164866" lon="8.0146307"><ele>565.0</ele><time>2026-05-03T08:06:27.963Z</time></trkpt><trkpt lat="44.2162455" lon="8.0146142"><ele>565.5</ele><time>2026-05-03T08:06:28.964Z</time></trkpt><trkpt lat="44.2160101" lon="8.0145961"><ele>566.0</ele><time>2026-05-03T08:06:29.962Z</time></trkpt><trkpt lat="44.2157805" lon="8.0145826"><ele>566.6666666666666</ele><time>2026-05-03T08:06:30.965Z</time></trkpt><trkpt lat="44.2155549" lon="8.0145695"><ele>567.3333333333334</ele><time>2026-05-03T08:06:31.966Z</time></trkpt><trkpt lat="44.2153341" lon="8.0145527"><ele>568.0</ele><time>2026-05-03T08:06:32.972Z</time></trkpt><trkpt lat="44.2151144" lon="8.0145366"><ele>568.0</ele><time>2026-05-03T08:06:33.964Z</time></trkpt><trkpt lat="44.214899" lon="8.0145167"><ele>568.0</ele><time>2026-05-03T08:06:34.965Z</time></trkpt><trkpt lat="44.2146822" lon="8.0144991"><ele>568.0</ele><time>2026-05-03T08:06:35.977Z</time></trkpt><trkpt lat="44.2144725" lon="8.0144824"><ele>568.3333333333334</ele><time>2026-05-03T08:06:36.964Z</time></trkpt><trkpt lat="44.2142672" lon="8.0144652"><ele>568.6666666666666</ele><time>2026-05-03T08:06:37.965Z</time></trkpt><trkpt lat="44.2140672" lon="8.0144485"><ele>569.0</ele><time>2026-05-03T08:06:38.964Z</time></trkpt><trkpt lat="44.2138612" lon="8.0144394"><ele>569.6666666666666</ele><time>2026-05-03T08:06:39.964Z</time></trkpt><trkpt lat="44.2136528" lon="8.0144207"><ele>570.3333333333334</ele><time>2026-05-03T08:06:40.962Z</time></trkpt><trkpt lat="44.2134439" lon="8.0144063"><ele>571.0</ele><time>2026-05-03T08:06:41.964Z</time></trkpt><trkpt lat="44.2132329" lon="8.0143956"><ele>571.0</ele><time>2026-05-03T08:06:42.971Z</time></trkpt><trkpt lat="44.2130217" lon="8.0143859"><ele>571.0</ele><time>2026-05-03T08:06:43.97Z</time></trkpt><trkpt lat="44.2128103" lon="8.014368"><ele>571.0</ele><time>2026-05-03T08:06:44.969Z</time></trkpt><trkpt lat="44.2125958" lon="8.0143506"><ele>571.0</ele><time>2026-05-03T08:06:45.967Z</time></trkpt><trkpt lat="44.21238" lon="8.014329"><ele>571.0</ele><time>2026-05-03T08:06:46.969Z</time></trkpt><trkpt lat="44.2121708" lon="8.0143062"><ele>571.0</ele><time>2026-05-03T08:06:47.972Z</time></trkpt><trkpt lat="44.2119663" lon="8.0142907"><ele>571.3333333333334</ele><time>2026-05-03T08:06:48.972Z</time></trkpt><trkpt lat="44.2117662" lon="8.0142851"><ele>571.6666666666666</ele><time>2026-05-03T08:06:49.968Z</time></trkpt><trkpt lat="44.2115719" lon="8.0142872"><ele>572.0</ele><time>2026-05-03T08:06:50.973Z</time></trkpt><trkpt lat="44.2113889" lon="8.0143135"><ele>572.3333333333333</ele><time>2026-05-03T08:06:51.972Z</time></trkpt><trkpt lat="44.2112144" lon="8.0143422"><ele>572.6666666666666</ele><time>2026-05-03T08:06:52.969Z</time></trkpt><trkpt lat="44.2110459" lon="8.0143884"><ele>573.0</ele><time>2026-05-03T08:06:53.966Z</time></trkpt><trkpt lat="44.2108811" lon="8.0144448"><ele>573.0</ele><time>2026-05-03T08:06:54.97Z</time></trkpt><trkpt lat="44.2107182" lon="8.0145152"><ele>573.0</ele><time>2026-05-03T08:06:55.971Z</time></trkpt><trkpt lat="44.2105591" lon="8.0145782"><ele>573.0</ele><time>2026-05-03T08:06:56.968Z</time></trkpt><trkpt lat="44.2103969" lon="8.0146383"><ele>574.0</ele><time>2026-05-03T08:06:57.974Z</time></trkpt><trkpt lat="44.2102315" lon="8.0146982"><ele>575.0</ele><time>2026-05-03T08:06:58.963Z</time></trkpt><trkpt lat="44.2100738" lon="8.0147534"><ele>576.0</ele><time>2026-05-03T08:06:59.962Z</time></trkpt><trkpt lat="44.2099288" lon="8.0148067"><ele>576.25</ele><time>2026-05-03T08:07:00.964Z</time></trkpt><trkpt lat="44.2097885" lon="8.0148513"><ele>576.5</ele><time>2026-05-03T08:07:01.967Z</time></trkpt><trkpt lat="44.2096435" lon="8.014895"><ele>576.75</ele><time>2026-05-03T08:07:02.964Z</time></trkpt><trkpt lat="44.2094925" lon="8.014913"><ele>577.0</ele><time>2026-05-03T08:07:03.975Z</time></trkpt><trkpt lat="44.2093474" lon="8.0149189"><ele>577.0</ele><time>2026-05-03T08:07:04.967Z</time></trkpt><trkpt lat="44.209202" lon="8.0149147"><ele>577.0</ele><time>2026-05-03T08:07:05.969Z</time></trkpt><trkpt lat="44.2090643" lon="8.0149082"><ele>577.0</ele><time>2026-05-03T08:07:06.963Z</time></trkpt><trkpt lat="44.208924" lon="8.0148968"><ele>577.0</ele><time>2026-05-03T08:07:07.977Z</time></trkpt><trkpt lat="44.2087866" lon="8.0148874"><ele>577.0</ele><time>2026-05-03T08:07:08.967Z</time></trkpt><trkpt lat="44.2086529" lon="8.0148808"><ele>577.0</ele><time>2026-05-03T08:07:09.964Z</time></trkpt><trkpt lat="44.2085281" lon="8.0148701"><ele>577.0</ele><time>2026-05-03T08:07:10.972Z</time></trkpt><trkpt lat="44.2084127" lon="8.0148701"><ele>577.0</ele><time>2026-05-03T08:07:11.966Z</time></trkpt><trkpt lat="44.208308" lon="8.0148662"><ele>577.0</ele><time>2026-05-03T08:07:12.961Z</time></trkpt><trkpt lat="44.2082181" lon="8.0148544"><ele>577.0</ele><time>2026-05-03T08:07:13.961Z</time></trkpt><trkpt lat="44.2081323" lon="8.0148361"><ele>577.0</ele><time>2026-05-03T08:07:14.964Z</time></trkpt><trkpt lat="44.2080545" lon="8.0148267"><ele>577.0</ele><time>2026-05-03T08:07:15.976Z</time></trkpt><trkpt lat="44.2079765" lon="8.0148188"><ele>577.0</ele><time>2026-05-03T08:07:16.961Z</time></trkpt><trkpt lat="44.2079017" lon="8.0148046"><ele>577.0</ele><time>2026-05-03T08:07:17.964Z</time></trkpt><trkpt lat="44.2078271" lon="8.0147928"><ele>577.2</ele><time>2026-05-03T08:07:18.966Z</time></trkpt><trkpt lat="44.2077471" lon="8.014787"><ele>577.4000000000001</ele><time>2026-05-03T08:07:19.969Z</time></trkpt><trkpt lat="44.2076546" lon="8.0147879"><ele>577.5999999999999</ele><time>2026-05-03T08:07:20.964Z</time></trkpt><trkpt lat="44.2075569" lon="8.0147832"><ele>577.8</ele><time>2026-05-03T08:07:21.969Z</time></trkpt><trkpt lat="44.2074496" lon="8.0147756"><ele>578.0</ele><time>2026-05-03T08:07:22.966Z</time></trkpt><trkpt lat="44.2073506" lon="8.0147708"><ele>578.25</ele><time>2026-05-03T08:07:23.965Z</time></trkpt><trkpt lat="44.2072418" lon="8.0147646"><ele>578.5</ele><time>2026-05-03T08:07:24.967Z</time></trkpt><trkpt lat="44.2071212" lon="8.0147579"><ele>578.75</ele><time>2026-05-03T08:07:25.966Z</time></trkpt><trkpt lat="44.2069945" lon="8.0147454"><ele>579.0</ele><time>2026-05-03T08:07:26.973Z</time></trkpt><trkpt lat="44.2068746" lon="8.0147385"><ele>579.0</ele><time>2026-05-03T08:07:27.965Z</time></trkpt><trkpt lat="44.2067532" lon="8.0147312"><ele>579.0</ele><time>2026-05-03T08:07:28.973Z</time></trkpt><trkpt lat="44.2066346" lon="8.0147274"><ele>579.0</ele><time>2026-05-03T08:07:29.974Z</time></trkpt><trkpt lat="44.206514" lon="8.0147177"><ele>579.0</ele><time>2026-05-03T08:07:30.959Z</time></trkpt><trkpt lat="44.2063967" lon="8.0147135"><ele>580.0</ele><time>2026-05-03T08:07:31.964Z</time></trkpt><trkpt lat="44.20628" lon="8.0147"><ele>581.0</ele><time>2026-05-03T08:07:32.96Z</time></trkpt><trkpt lat="44.206166" lon="8.014692"><ele>582.0</ele><time>2026-05-03T08:07:33.968Z</time></trkpt><trkpt lat="44.2060468" lon="8.014685"><ele>583.0</ele><time>2026-05-03T08:07:34.966Z</time></trkpt><trkpt lat="44.2059258" lon="8.0146767"><ele>583.0</ele><time>2026-05-03T08:07:35.96Z</time></trkpt><trkpt lat="44.2058103" lon="8.014666"><ele>583.0</ele><time>2026-05-03T08:07:36.965Z</time></trkpt><trkpt lat="44.205702" lon="8.0146585"><ele>583.0</ele><time>2026-05-03T08:07:37.966Z</time></trkpt><trkpt lat="44.2056001" lon="8.0146484"><ele>583.0</ele><time>2026-05-03T08:07:38.966Z</time></trkpt><trkpt lat="44.2055061" lon="8.0146407"><ele>583.0</ele><time>2026-05-03T08:07:39.965Z</time></trkpt><trkpt lat="44.2054323" lon="8.0146292"><ele>583.6</ele><time>2026-05-03T08:07:40.987Z</time></trkpt><trkpt lat="44.2053155" lon="8.0146238"><ele>584.1999999999999</ele><time>2026-05-03T08:07:42.965Z</time></trkpt><trkpt lat="44.2051994" lon="8.0146212"><ele>584.8</ele><time>2026-05-03T08:07:44.965Z</time></trkpt><trkpt lat="44.2051364" lon="8.0146212"><ele>585.4</ele><time>2026-05-03T08:07:45.981Z</time></trkpt><trkpt lat="44.2050266" lon="8.0146083"><ele>586.0</ele><time>2026-05-03T08:07:47.966Z</time></trkpt><trkpt lat="44.2049017" lon="8.0146073"><ele>586.0</ele><time>2026-05-03T08:07:49.965Z</time></trkpt><trkpt lat="44.2048152" lon="8.0146106"><ele>586.0</ele><time>2026-05-03T08:07:50.97Z</time></trkpt><trkpt lat="44.2047163" lon="8.0146067"><ele>586.0</ele><time>2026-05-03T08:07:51.97Z</time></trkpt><trkpt lat="44.2046236" lon="8.0145886"><ele>586.0</ele><time>2026-05-03T08:07:52.977Z</time></trkpt><trkpt lat="44.2045205" lon="8.0145431"><ele>586.0</ele><time>2026-05-03T08:07:53.978Z</time></trkpt><trkpt lat="44.2044102" lon="8.0145016"><ele>586.0</ele><time>2026-05-03T08:07:54.965Z</time></trkpt><trkpt lat="44.2043048" lon="8.0144489"><ele>586.0</ele><time>2026-05-03T08:07:55.957Z</time></trkpt><trkpt lat="44.2042061" lon="8.0143964"><ele>586.0</ele><time>2026-05-03T08:07:56.957Z</time></trkpt><trkpt lat="44.20411" lon="8.0143547"><ele>586.0</ele><time>2026-05-03T08:07:57.956Z</time></trkpt><trkpt lat="44.2040065" lon="8.0142997"><ele>586.0</ele><time>2026-05-03T08:07:58.959Z</time></trkpt><trkpt lat="44.2038936" lon="8.0142457"><ele>585.75</ele><time>2026-05-03T08:07:59.971Z</time></trkpt><trkpt lat="44.2037621" lon="8.0141819"><ele>585.5</ele><time>2026-05-03T08:08:00.958Z</time></trkpt><trkpt lat="44.2036358" lon="8.0141148"><ele>585.25</ele><time>2026-05-03T08:08:01.958Z</time></trkpt><trkpt lat="44.2035097" lon="8.0140469"><ele>585.0</ele><time>2026-05-03T08:08:02.965Z</time></trkpt><trkpt lat="44.2033913" lon="8.0139921"><ele>585.0</ele><time>2026-05-03T08:08:03.965Z</time></trkpt><trkpt lat="44.2032735" lon="8.0139365"><ele>585.0</ele><time>2026-05-03T08:08:04.962Z</time></trkpt><trkpt lat="44.2031533" lon="8.0138912"><ele>585.0</ele><time>2026-05-03T08:08:05.966Z</time></trkpt><trkpt lat="44.2030222" lon="8.0138411"><ele>585.0</ele><time>2026-05-03T08:08:06.968Z</time></trkpt><trkpt lat="44.2028886" lon="8.0137838"><ele>585.0</ele><time>2026-05-03T08:08:07.965Z</time></trkpt><trkpt lat="44.2027543" lon="8.0137241"><ele>585.0</ele><time>2026-05-03T08:08:08.963Z</time></trkpt><trkpt lat="44.2026159" lon="8.0136686"><ele>585.0</ele><time>2026-05-03T08:08:09.963Z</time></trkpt><trkpt lat="44.2024788" lon="8.0136158"><ele>585.0</ele><time>2026-05-03T08:08:10.963Z</time></trkpt><trkpt lat="44.2023412" lon="8.013556"><ele>584.6666666666666</ele><time>2026-05-03T08:08:11.963Z</time></trkpt><trkpt lat="44.202199" lon="8.0134998"><ele>584.3333333333333</ele><time>2026-05-03T08:08:12.967Z</time></trkpt><trkpt lat="44.2020538" lon="8.0134433"><ele>584.0</ele><time>2026-05-03T08:08:13.967Z</time></trkpt><trkpt lat="44.2019023" lon="8.0133853"><ele>584.3333333333333</ele><time>2026-05-03T08:08:14.964Z</time></trkpt><trkpt lat="44.2017517" lon="8.0133212"><ele>584.6666666666666</ele><time>2026-05-03T08:08:15.965Z</time></trkpt><trkpt lat="44.201603" lon="8.0132573"><ele>585.0</ele><time>2026-05-03T08:08:16.961Z</time></trkpt><trkpt lat="44.2014594" lon="8.0131983"><ele>585.0</ele><time>2026-05-03T08:08:17.96Z</time></trkpt><trkpt lat="44.2013193" lon="8.013134"><ele>585.0</ele><time>2026-05-03T08:08:18.973Z</time></trkpt><trkpt lat="44.2011872" lon="8.0130794"><ele>585.0</ele><time>2026-05-03T08:08:19.962Z</time></trkpt><trkpt lat="44.2010576" lon="8.0130236"><ele>585.0</ele><time>2026-05-03T08:08:20.962Z</time></trkpt><trkpt lat="44.200923" lon="8.0129681"><ele>585.0</ele><time>2026-05-03T08:08:21.972Z</time></trkpt><trkpt lat="44.2007845" lon="8.0129103"><ele>585.0</ele><time>2026-05-03T08:08:22.967Z</time></trkpt><trkpt lat="44.2006355" lon="8.0128498"><ele>585.0</ele><time>2026-05-03T08:08:23.968Z</time></trkpt><trkpt lat="44.2004809" lon="8.0127875"><ele>585.0</ele><time>2026-05-03T08:08:24.964Z</time></trkpt><trkpt lat="44.2003178" lon="8.0127287"><ele>585.0</ele><time>2026-05-03T08:08:25.965Z</time></trkpt><trkpt lat="44.2001508" lon="8.0126597"><ele>585.0</ele><time>2026-05-03T08:08:26.971Z</time></trkpt><trkpt lat="44.1999769" lon="8.0125881"><ele>584.6666666666666</ele><time>2026-05-03T08:08:27.972Z</time></trkpt><trkpt lat="44.1997936" lon="8.0125136"><ele>584.3333333333333</ele><time>2026-05-03T08:08:28.965Z</time></trkpt><trkpt lat="44.1996017" lon="8.0124377"><ele>584.0</ele><time>2026-05-03T08:08:29.966Z</time></trkpt><trkpt lat="44.1994086" lon="8.0123558"><ele>588.0</ele><time>2026-05-03T08:08:30.966Z</time></trkpt><trkpt lat="44.1992172" lon="8.0122708"><ele>592.0</ele><time>2026-05-03T08:08:31.968Z</time></trkpt><trkpt lat="44.1990296" lon="8.0121958"><ele>596.0</ele><time>2026-05-03T08:08:32.965Z</time></trkpt><trkpt lat="44.1988497" lon="8.0121177"><ele>596.0</ele><time>2026-05-03T08:08:33.969Z</time></trkpt><trkpt lat="44.1986683" lon="8.0120436"><ele>596.0</ele><time>2026-05-03T08:08:34.966Z</time></trkpt><trkpt lat="44.1984819" lon="8.0119754"><ele>596.0</ele><time>2026-05-03T08:08:35.961Z</time></trkpt><trkpt lat="44.1982847" lon="8.0118962"><ele>594.6666666666666</ele><time>2026-05-03T08:08:36.957Z</time></trkpt><trkpt lat="44.1980867" lon="8.0118144"><ele>593.3333333333334</ele><time>2026-05-03T08:08:37.961Z</time></trkpt><trkpt lat="44.1978823" lon="8.0117318"><ele>592.0</ele><time>2026-05-03T08:08:38.961Z</time></trkpt><trkpt lat="44.1976604" lon="8.0116517"><ele>606.0</ele><time>2026-05-03T08:08:39.964Z</time></trkpt><trkpt lat="44.1974267" lon="8.011579"><ele>620.0</ele><time>2026-05-03T08:08:40.958Z</time></trkpt><trkpt lat="44.1971811" lon="8.0115194"><ele>620.0</ele><time>2026-05-03T08:08:41.956Z</time></trkpt><trkpt lat="44.1969291" lon="8.0114654"><ele>620.0</ele><time>2026-05-03T08:08:42.961Z</time></trkpt><trkpt lat="44.1966771" lon="8.0114173"><ele>616.5</ele><time>2026-05-03T08:08:43.963Z</time></trkpt><trkpt lat="44.1964254" lon="8.0113572"><ele>613.0</ele><time>2026-05-03T08:08:44.963Z</time></trkpt><trkpt lat="44.1961705" lon="8.0112916"><ele>613.0</ele><time>2026-05-03T08:08:45.964Z</time></trkpt><trkpt lat="44.195912" lon="8.0112122"><ele>613.0</ele><time>2026-05-03T08:08:46.955Z</time></trkpt><trkpt lat="44.1956507" lon="8.011135"><ele>606.0</ele><time>2026-05-03T08:08:47.955Z</time></trkpt><trkpt lat="44.1953873" lon="8.0110459"><ele>599.0</ele><time>2026-05-03T08:08:48.957Z</time></trkpt><trkpt lat="44.1951246" lon="8.0109478"><ele>599.0</ele><time>2026-05-03T08:08:49.956Z</time></trkpt><trkpt lat="44.1948554" lon="8.0108322"><ele>599.0</ele><time>2026-05-03T08:08:50.957Z</time></trkpt><trkpt lat="44.1945909" lon="8.0107159"><ele>609.5</ele><time>2026-05-03T08:08:51.963Z</time></trkpt><trkpt lat="44.1943272" lon="8.0106096"><ele>620.0</ele><time>2026-05-03T08:08:52.965Z</time></trkpt><trkpt lat="44.1940642" lon="8.0104998"><ele>613.0</ele><time>2026-05-03T08:08:53.953Z</time></trkpt><trkpt lat="44.193804" lon="8.010379"><ele>606.0</ele><time>2026-05-03T08:08:54.965Z</time></trkpt><trkpt lat="44.1935427" lon="8.0102655"><ele>606.0</ele><time>2026-05-03T08:08:55.96Z</time></trkpt><trkpt lat="44.1932872" lon="8.0101528"><ele>606.0</ele><time>2026-05-03T08:08:56.959Z</time></trkpt><trkpt lat="44.1930347" lon="8.010051"><ele>614.5</ele><time>2026-05-03T08:08:57.963Z</time></trkpt><trkpt lat="44.1927898" lon="8.0099461"><ele>623.0</ele><time>2026-05-03T08:08:58.956Z</time></trkpt><trkpt lat="44.19255" lon="8.0098411"><ele>613.5</ele><time>2026-05-03T08:08:59.954Z</time></trkpt><trkpt lat="44.1923168" lon="8.0097487"><ele>604.0</ele><time>2026-05-03T08:09:00.959Z</time></trkpt><trkpt lat="44.1920918" lon="8.0096563"><ele>604.0</ele><time>2026-05-03T08:09:01.954Z</time></trkpt><trkpt lat="44.1918683" lon="8.0095496"><ele>604.0</ele><time>2026-05-03T08:09:02.96Z</time></trkpt><trkpt lat="44.191646" lon="8.0094296"><ele>607.0</ele><time>2026-05-03T08:09:03.956Z</time></trkpt><trkpt lat="44.1914294" lon="8.0092862"><ele>610.0</ele><time>2026-05-03T08:09:04.962Z</time></trkpt><trkpt lat="44.1912217" lon="8.0091231"><ele>610.0</ele><time>2026-05-03T08:09:05.959Z</time></trkpt><trkpt lat="44.1910218" lon="8.0089315"><ele>610.0</ele><time>2026-05-03T08:09:06.958Z</time></trkpt><trkpt lat="44.1908291" lon="8.008713"><ele>603.5</ele><time>2026-05-03T08:09:07.968Z</time></trkpt><trkpt lat="44.1906602" lon="8.0084579"><ele>597.0</ele><time>2026-05-03T08:09:08.961Z</time></trkpt><trkpt lat="44.1905194" lon="8.0081683"><ele>597.0</ele><time>2026-05-03T08:09:09.963Z</time></trkpt><trkpt lat="44.1903998" lon="8.0078666"><ele>597.0</ele><time>2026-05-03T08:09:10.97Z</time></trkpt><trkpt lat="44.1903152" lon="8.0075418"><ele>599.0</ele><time>2026-05-03T08:09:11.961Z</time></trkpt><trkpt lat="44.1902458" lon="8.0072051"><ele>601.0</ele><time>2026-05-03T08:09:12.964Z</time></trkpt><trkpt lat="44.1901793" lon="8.0068636"><ele>604.5</ele><time>2026-05-03T08:09:13.96Z</time></trkpt><trkpt lat="44.1901075" lon="8.0065184"><ele>608.0</ele><time>2026-05-03T08:09:14.972Z</time></trkpt><trkpt lat="44.1900361" lon="8.0061704"><ele>612.5</ele><time>2026-05-03T08:09:15.967Z</time></trkpt><trkpt lat="44.1899601" lon="8.0058167"><ele>617.0</ele><time>2026-05-03T08:09:16.982Z</time></trkpt><trkpt lat="44.1898793" lon="8.0054664"><ele>610.5</ele><time>2026-05-03T08:09:17.97Z</time></trkpt><trkpt lat="44.1897792" lon="8.0051375"><ele>604.0</ele><time>2026-05-03T08:09:18.967Z</time></trkpt><trkpt lat="44.1896717" lon="8.0048085"><ele>604.0</ele><time>2026-05-03T08:09:19.969Z</time></trkpt><trkpt lat="44.1895612" lon="8.0044895"><ele>604.0</ele><time>2026-05-03T08:09:20.966Z</time></trkpt><trkpt lat="44.1894661" lon="8.0041889"><ele>608.0</ele><time>2026-05-03T08:09:21.961Z</time></trkpt><trkpt lat="44.1893784" lon="8.0038816"><ele>612.0</ele><time>2026-05-03T08:09:22.965Z</time></trkpt><trkpt lat="44.1893058" lon="8.003565"><ele>612.0</ele><time>2026-05-03T08:09:23.963Z</time></trkpt><trkpt lat="44.1892469" lon="8.0032473"><ele>612.0</ele><time>2026-05-03T08:09:24.961Z</time></trkpt><trkpt lat="44.1892038" lon="8.0029156"><ele>612.0</ele><time>2026-05-03T08:09:25.963Z</time></trkpt><trkpt lat="44.1891718" lon="8.0025866"><ele>612.0</ele><time>2026-05-03T08:09:26.964Z</time></trkpt><trkpt lat="44.1891489" lon="8.0022596"><ele>612.6666666666666</ele><time>2026-05-03T08:09:27.964Z</time></trkpt><trkpt lat="44.1891102" lon="8.001961"><ele>613.3333333333333</ele><time>2026-05-03T08:09:28.967Z</time></trkpt><trkpt lat="44.1890602" lon="8.0016834"><ele>614.0</ele><time>2026-05-03T08:09:29.97Z</time></trkpt><trkpt lat="44.1890226" lon="8.0014309"><ele>610.6666666666666</ele><time>2026-05-03T08:09:30.964Z</time></trkpt><trkpt lat="44.1889799" lon="8.0011981"><ele>607.3333333333334</ele><time>2026-05-03T08:09:31.972Z</time></trkpt><trkpt lat="44.1889423" lon="8.0009777"><ele>604.0</ele><time>2026-05-03T08:09:32.963Z</time></trkpt><trkpt lat="44.1888997" lon="8.0007705"><ele>604.0</ele><time>2026-05-03T08:09:33.973Z</time></trkpt><trkpt lat="44.1888471" lon="8.0005614"><ele>604.0</ele><time>2026-05-03T08:09:34.964Z</time></trkpt><trkpt lat="44.1887771" lon="8.0003524"><ele>604.0</ele><time>2026-05-03T08:09:35.959Z</time></trkpt><trkpt lat="44.1886994" lon="8.000157"><ele>604.0</ele><time>2026-05-03T08:09:36.969Z</time></trkpt><trkpt lat="44.1886117" lon="7.9999663"><ele>604.0</ele><time>2026-05-03T08:09:37.965Z</time></trkpt><trkpt lat="44.188515" lon="7.9997938"><ele>604.0</ele><time>2026-05-03T08:09:38.966Z</time></trkpt><trkpt lat="44.1884141" lon="7.9996241"><ele>604.0</ele><time>2026-05-03T08:09:39.959Z</time></trkpt><trkpt lat="44.1883079" lon="7.9994556"><ele>604.0</ele><time>2026-05-03T08:09:40.968Z</time></trkpt><trkpt lat="44.1882019" lon="7.999278"><ele>604.0</ele><time>2026-05-03T08:09:41.96Z</time></trkpt><trkpt lat="44.188089" lon="7.9990948"><ele>604.3333333333334</ele><time>2026-05-03T08:09:42.963Z</time></trkpt><trkpt lat="44.1879761" lon="7.9989068"><ele>604.6666666666666</ele><time>2026-05-03T08:09:43.972Z</time></trkpt><trkpt lat="44.1878766" lon="7.9987093"><ele>605.0</ele><time>2026-05-03T08:09:44.967Z</time></trkpt><trkpt lat="44.187786" lon="7.9984889"><ele>605.6666666666666</ele><time>2026-05-03T08:09:45.97Z</time></trkpt><trkpt lat="44.1877133" lon="7.9982575"><ele>606.3333333333334</ele><time>2026-05-03T08:09:46.968Z</time></trkpt><trkpt lat="44.1876464" lon="7.9980164"><ele>607.0</ele><time>2026-05-03T08:09:47.966Z</time></trkpt><trkpt lat="44.1875769" lon="7.9977795"><ele>607.0</ele><time>2026-05-03T08:09:48.959Z</time></trkpt><trkpt lat="44.1875136" lon="7.9975473"><ele>607.0</ele><time>2026-05-03T08:09:49.959Z</time></trkpt><trkpt lat="44.1874611" lon="7.9973395"><ele>607.0</ele><time>2026-05-03T08:09:50.962Z</time></trkpt><trkpt lat="44.1874113" lon="7.9971333"><ele>607.0</ele><time>2026-05-03T08:09:51.97Z</time></trkpt><trkpt lat="44.1873555" lon="7.9969234"><ele>607.0</ele><time>2026-05-03T08:09:52.965Z</time></trkpt><trkpt lat="44.1873024" lon="7.9967101"><ele>607.0</ele><time>2026-05-03T08:09:53.973Z</time></trkpt><trkpt lat="44.1872512" lon="7.9965054"><ele>607.75</ele><time>2026-05-03T08:09:54.966Z</time></trkpt><trkpt lat="44.1871998" lon="7.9963049"><ele>608.5</ele><time>2026-05-03T08:09:55.97Z</time></trkpt><trkpt lat="44.1871504" lon="7.9961117"><ele>609.25</ele><time>2026-05-03T08:09:56.984Z</time></trkpt><trkpt lat="44.1871023" lon="7.9959235"><ele>610.0</ele><time>2026-05-03T08:09:57.965Z</time></trkpt><trkpt lat="44.1870616" lon="7.9957539"><ele>610.5</ele><time>2026-05-03T08:09:58.969Z</time></trkpt><trkpt lat="44.1870129" lon="7.995586"><ele>611.0</ele><time>2026-05-03T08:09:59.966Z</time></trkpt><trkpt lat="44.1869411" lon="7.9954373"><ele>611.5</ele><time>2026-05-03T08:10:00.965Z</time></trkpt><trkpt lat="44.1868577" lon="7.9952825"><ele>612.0</ele><time>2026-05-03T08:10:01.965Z</time></trkpt><trkpt lat="44.1867549" lon="7.9951365"><ele>612.3333333333334</ele><time>2026-05-03T08:10:02.961Z</time></trkpt><trkpt lat="44.1866474" lon="7.9949848"><ele>612.6666666666667</ele><time>2026-05-03T08:10:03.959Z</time></trkpt><trkpt lat="44.1865296" lon="7.9948362"><ele>613.0</ele><time>2026-05-03T08:10:04.962Z</time></trkpt><trkpt lat="44.1864097" lon="7.9946841"><ele>613.0</ele><time>2026-05-03T08:10:05.956Z</time></trkpt><trkpt lat="44.1862866" lon="7.9945297"><ele>613.0</ele><time>2026-05-03T08:10:06.966Z</time></trkpt><trkpt lat="44.1861607" lon="7.9943724"><ele>613.0</ele><time>2026-05-03T08:10:07.959Z</time></trkpt><trkpt lat="44.1860398" lon="7.9942164"><ele>613.0</ele><time>2026-05-03T08:10:08.97Z</time></trkpt><trkpt lat="44.1859094" lon="7.9940651"><ele>613.0</ele><time>2026-05-03T08:10:09.97Z</time></trkpt><trkpt lat="44.185771" lon="7.9939093"><ele>613.0</ele><time>2026-05-03T08:10:10.964Z</time></trkpt><trkpt lat="44.185632" lon="7.9937475"><ele>613.0</ele><time>2026-05-03T08:10:11.968Z</time></trkpt><trkpt lat="44.1854739" lon="7.99359"><ele>613.0</ele><time>2026-05-03T08:10:12.965Z</time></trkpt><trkpt lat="44.1853063" lon="7.9934437"><ele>613.0</ele><time>2026-05-03T08:10:13.978Z</time></trkpt><trkpt lat="44.1851309" lon="7.9932898"><ele>613.6666666666667</ele><time>2026-05-03T08:10:14.967Z</time></trkpt><trkpt lat="44.1849612" lon="7.9931298"><ele>614.3333333333334</ele><time>2026-05-03T08:10:15.969Z</time></trkpt><trkpt lat="44.1848049" lon="7.9929421"><ele>615.0</ele><time>2026-05-03T08:10:16.961Z</time></trkpt><trkpt lat="44.1846717" lon="7.9927213"><ele>614.3333333333334</ele><time>2026-05-03T08:10:17.974Z</time></trkpt><trkpt lat="44.184565" lon="7.99246"><ele>613.6666666666667</ele><time>2026-05-03T08:10:18.965Z</time></trkpt><trkpt lat="44.1844646" lon="7.9921862"><ele>613.0</ele><time>2026-05-03T08:10:19.963Z</time></trkpt><trkpt lat="44.1843565" lon="7.9919081"><ele>614.0</ele><time>2026-05-03T08:10:20.966Z</time></trkpt><trkpt lat="44.1842428" lon="7.9916202"><ele>615.0</ele><time>2026-05-03T08:10:21.965Z</time></trkpt><trkpt lat="44.1841345" lon="7.9913341"><ele>615.0</ele><time>2026-05-03T08:10:22.965Z</time></trkpt><trkpt lat="44.1840221" lon="7.9910456"><ele>615.0</ele><time>2026-05-03T08:10:23.962Z</time></trkpt><trkpt lat="44.183914" lon="7.9907565"><ele>613.5</ele><time>2026-05-03T08:10:24.972Z</time></trkpt><trkpt lat="44.1838155" lon="7.9904592"><ele>612.0</ele><time>2026-05-03T08:10:25.961Z</time></trkpt><trkpt lat="44.1837398" lon="7.9901562"><ele>612.5</ele><time>2026-05-03T08:10:26.973Z</time></trkpt><trkpt lat="44.1836894" lon="7.9898402"><ele>613.0</ele><time>2026-05-03T08:10:27.962Z</time></trkpt><trkpt lat="44.1836638" lon="7.9895242"><ele>613.0</ele><time>2026-05-03T08:10:28.964Z</time></trkpt><trkpt lat="44.1836562" lon="7.9892098"><ele>613.0</ele><time>2026-05-03T08:10:29.96Z</time></trkpt><trkpt lat="44.1836529" lon="7.9888909"><ele>614.0</ele><time>2026-05-03T08:10:30.961Z</time></trkpt><trkpt lat="44.1836402" lon="7.9885693"><ele>615.0</ele><time>2026-05-03T08:10:31.951Z</time></trkpt><trkpt lat="44.183613" lon="7.988246"><ele>615.0</ele><time>2026-05-03T08:10:32.964Z</time></trkpt><trkpt lat="44.1835752" lon="7.987918"><ele>615.0</ele><time>2026-05-03T08:10:33.967Z</time></trkpt><trkpt lat="44.1835213" lon="7.9875941"><ele>619.0</ele><time>2026-05-03T08:10:34.961Z</time></trkpt><trkpt lat="44.1834549" lon="7.9872799"><ele>623.0</ele><time>2026-05-03T08:10:35.971Z</time></trkpt><trkpt lat="44.1833802" lon="7.9869666"><ele>620.5</ele><time>2026-05-03T08:10:36.962Z</time></trkpt><trkpt lat="44.183287" lon="7.9866607"><ele>618.0</ele><time>2026-05-03T08:10:37.956Z</time></trkpt><trkpt lat="44.183179" lon="7.9863577"><ele>618.0</ele><time>2026-05-03T08:10:38.956Z</time></trkpt><trkpt lat="44.1830581" lon="7.9860578"><ele>618.0</ele><time>2026-05-03T08:10:39.963Z</time></trkpt><trkpt lat="44.1829217" lon="7.9857711"><ele>619.5</ele><time>2026-05-03T08:10:40.965Z</time></trkpt><trkpt lat="44.1827742" lon="7.9854938"><ele>621.0</ele><time>2026-05-03T08:10:41.963Z</time></trkpt><trkpt lat="44.1826142" lon="7.9852229"><ele>619.0</ele><time>2026-05-03T08:10:42.957Z</time></trkpt><trkpt lat="44.1824493" lon="7.9849561"><ele>617.0</ele><time>2026-05-03T08:10:43.967Z</time></trkpt><trkpt lat="44.1822793" lon="7.9846875"><ele>617.0</ele><time>2026-05-03T08:10:44.964Z</time></trkpt><trkpt lat="44.1821038" lon="7.9844222"><ele>617.0</ele><time>2026-05-03T08:10:45.959Z</time></trkpt><trkpt lat="44.181926" lon="7.9841486"><ele>621.0</ele><time>2026-05-03T08:10:46.966Z</time></trkpt><trkpt lat="44.181753" lon="7.9838734"><ele>625.0</ele><time>2026-05-03T08:10:47.965Z</time></trkpt><trkpt lat="44.1815732" lon="7.9835954"><ele>623.0</ele><time>2026-05-03T08:10:48.957Z</time></trkpt><trkpt lat="44.181395" lon="7.9833123"><ele>621.0</ele><time>2026-05-03T08:10:49.963Z</time></trkpt><trkpt lat="44.1812134" lon="7.9830382"><ele>621.0</ele><time>2026-05-03T08:10:50.951Z</time></trkpt><trkpt lat="44.1810193" lon="7.9827675"><ele>621.0</ele><time>2026-05-03T08:10:51.956Z</time></trkpt><trkpt lat="44.1808151" lon="7.9825222"><ele>622.5</ele><time>2026-05-03T08:10:52.965Z</time></trkpt><trkpt lat="44.1805885" lon="7.9823084"><ele>624.0</ele><time>2026-05-03T08:10:53.96Z</time></trkpt><trkpt lat="44.1803519" lon="7.9821259"><ele>624.0</ele><time>2026-05-03T08:10:54.961Z</time></trkpt><trkpt lat="44.1801069" lon="7.9819714"><ele>624.0</ele><time>2026-05-03T08:10:55.955Z</time></trkpt><trkpt lat="44.1798572" lon="7.9818398"><ele>623.5</ele><time>2026-05-03T08:10:56.965Z</time></trkpt><trkpt lat="44.1796014" lon="7.9817219"><ele>623.0</ele><time>2026-05-03T08:10:57.969Z</time></trkpt><trkpt lat="44.1793432" lon="7.9816163"><ele>625.5</ele><time>2026-05-03T08:10:58.962Z</time></trkpt><trkpt lat="44.1790845" lon="7.9815131"><ele>628.0</ele><time>2026-05-03T08:10:59.975Z</time></trkpt><trkpt lat="44.1788328" lon="7.9814103"><ele>628.0</ele><time>2026-05-03T08:11:00.959Z</time></trkpt><trkpt lat="44.1785811" lon="7.9813049"><ele>628.0</ele><time>2026-05-03T08:11:01.96Z</time></trkpt><trkpt lat="44.1783217" lon="7.981205"><ele>627.0</ele><time>2026-05-03T08:11:02.959Z</time></trkpt><trkpt lat="44.1780656" lon="7.981112"><ele>626.0</ele><time>2026-05-03T08:11:03.963Z</time></trkpt><trkpt lat="44.1778157" lon="7.9810167"><ele>626.0</ele><time>2026-05-03T08:11:04.965Z</time></trkpt><trkpt lat="44.1775729" lon="7.980938"><ele>626.0</ele><time>2026-05-03T08:11:05.967Z</time></trkpt><trkpt lat="44.1773337" lon="7.9808835"><ele>627.0</ele><time>2026-05-03T08:11:06.96Z</time></trkpt><trkpt lat="44.1770941" lon="7.9808646"><ele>628.0</ele><time>2026-05-03T08:11:07.965Z</time></trkpt><trkpt lat="44.1768619" lon="7.9808704"><ele>628.0</ele><time>2026-05-03T08:11:08.955Z</time></trkpt><trkpt lat="44.1766517" lon="7.9808724"><ele>628.0</ele><time>2026-05-03T08:11:09.964Z</time></trkpt><trkpt lat="44.1764583" lon="7.9808643"><ele>628.0</ele><time>2026-05-03T08:11:10.959Z</time></trkpt><trkpt lat="44.1762857" lon="7.9808277"><ele>629.6666666666667</ele><time>2026-05-03T08:11:11.961Z</time></trkpt><trkpt lat="44.176114" lon="7.9807377"><ele>631.3333333333334</ele><time>2026-05-03T08:11:12.96Z</time></trkpt><trkpt lat="44.175961" lon="7.9805963"><ele>633.0</ele><time>2026-05-03T08:11:13.963Z</time></trkpt><trkpt lat="44.175819" lon="7.9803958"><ele>631.0</ele><time>2026-05-03T08:11:14.963Z</time></trkpt><trkpt lat="44.1756834" lon="7.9801466"><ele>629.0</ele><time>2026-05-03T08:11:15.964Z</time></trkpt><trkpt lat="44.1755462" lon="7.9798647"><ele>629.0</ele><time>2026-05-03T08:11:16.959Z</time></trkpt><trkpt lat="44.1753886" lon="7.9795878"><ele>629.0</ele><time>2026-05-03T08:11:17.967Z</time></trkpt><trkpt lat="44.1752161" lon="7.9793251"><ele>629.0</ele><time>2026-05-03T08:11:18.961Z</time></trkpt><trkpt lat="44.1750321" lon="7.9790678"><ele>629.0</ele><time>2026-05-03T08:11:19.966Z</time></trkpt><trkpt lat="44.1748404" lon="7.9788283"><ele>629.0</ele><time>2026-05-03T08:11:20.962Z</time></trkpt><trkpt lat="44.1746343" lon="7.9785989"><ele>629.0</ele><time>2026-05-03T08:11:21.957Z</time></trkpt><trkpt lat="44.1744105" lon="7.9783839"><ele>630.0</ele><time>2026-05-03T08:11:22.96Z</time></trkpt><trkpt lat="44.1741795" lon="7.9781807"><ele>631.0</ele><time>2026-05-03T08:11:23.968Z</time></trkpt><trkpt lat="44.1739405" lon="7.977985"><ele>631.0</ele><time>2026-05-03T08:11:24.96Z</time></trkpt><trkpt lat="44.1737092" lon="7.9777881"><ele>631.0</ele><time>2026-05-03T08:11:25.958Z</time></trkpt><trkpt lat="44.1734767" lon="7.977598"><ele>630.0</ele><time>2026-05-03T08:11:26.967Z</time></trkpt><trkpt lat="44.1732426" lon="7.9774179"><ele>629.0</ele><time>2026-05-03T08:11:27.966Z</time></trkpt><trkpt lat="44.17301" lon="7.9772407"><ele>629.0</ele><time>2026-05-03T08:11:28.96Z</time></trkpt><trkpt lat="44.1727702" lon="7.9770924"><ele>629.0</ele><time>2026-05-03T08:11:29.956Z</time></trkpt><trkpt lat="44.1725242" lon="7.9769692"><ele>629.0</ele><time>2026-05-03T08:11:30.963Z</time></trkpt><trkpt lat="44.1722711" lon="7.9768655"><ele>629.0</ele><time>2026-05-03T08:11:31.962Z</time></trkpt><trkpt lat="44.1720139" lon="7.9767796"><ele>629.0</ele><time>2026-05-03T08:11:32.96Z</time></trkpt><trkpt lat="44.171759" lon="7.9767145"><ele>629.0</ele><time>2026-05-03T08:11:33.958Z</time></trkpt><trkpt lat="44.1715099" lon="7.9766613"><ele>633.0</ele><time>2026-05-03T08:11:34.96Z</time></trkpt><trkpt lat="44.1712635" lon="7.9766135"><ele>637.0</ele><time>2026-05-03T08:11:35.96Z</time></trkpt><trkpt lat="44.171023" lon="7.9765478"><ele>637.0</ele><time>2026-05-03T08:11:36.961Z</time></trkpt><trkpt lat="44.1707951" lon="7.9764817"><ele>637.0</ele><time>2026-05-03T08:11:37.956Z</time></trkpt><trkpt lat="44.1705755" lon="7.9763787"><ele>636.0</ele><time>2026-05-03T08:11:38.969Z</time></trkpt><trkpt lat="44.1703683" lon="7.9762302"><ele>635.0</ele><time>2026-05-03T08:11:39.964Z</time></trkpt><trkpt lat="44.1701621" lon="7.9760532"><ele>635.0</ele><time>2026-05-03T08:11:40.964Z</time></trkpt><trkpt lat="44.1699605" lon="7.975868"><ele>635.0</ele><time>2026-05-03T08:11:41.958Z</time></trkpt><trkpt lat="44.169755" lon="7.975688"><ele>636.0</ele><time>2026-05-03T08:11:42.961Z</time></trkpt><trkpt lat="44.1695499" lon="7.9755142"><ele>637.0</ele><time>2026-05-03T08:11:43.961Z</time></trkpt><trkpt lat="44.1693464" lon="7.9753379"><ele>637.0</ele><time>2026-05-03T08:11:44.964Z</time></trkpt><trkpt lat="44.1691394" lon="7.975166"><ele>637.0</ele><time>2026-05-03T08:11:45.963Z</time></trkpt><trkpt lat="44.1689341" lon="7.9749925"><ele>640.0</ele><time>2026-05-03T08:11:46.962Z</time></trkpt><trkpt lat="44.1687294" lon="7.9748163"><ele>643.0</ele><time>2026-05-03T08:11:47.968Z</time></trkpt><trkpt lat="44.1685269" lon="7.9746462"><ele>643.0</ele><time>2026-05-03T08:11:48.953Z</time></trkpt><trkpt lat="44.1683254" lon="7.9744801"><ele>643.0</ele><time>2026-05-03T08:11:49.957Z</time></trkpt><trkpt lat="44.168129" lon="7.9743146"><ele>643.0</ele><time>2026-05-03T08:11:50.963Z</time></trkpt><trkpt lat="44.167938" lon="7.9741405"><ele>643.0</ele><time>2026-05-03T08:11:51.954Z</time></trkpt><trkpt lat="44.1677626" lon="7.9739481"><ele>643.0</ele><time>2026-05-03T08:11:52.964Z</time></trkpt><trkpt lat="44.1676103" lon="7.9737369"><ele>643.0</ele><time>2026-05-03T08:11:53.962Z</time></trkpt><trkpt lat="44.1674809" lon="7.973513"><ele>643.0</ele><time>2026-05-03T08:11:54.964Z</time></trkpt><trkpt lat="44.1673569" lon="7.973293"><ele>644.6666666666667</ele><time>2026-05-03T08:11:55.955Z</time></trkpt><trkpt lat="44.1672198" lon="7.9731027"><ele>646.3333333333334</ele><time>2026-05-03T08:11:56.963Z</time></trkpt><trkpt lat="44.1670676" lon="7.9729422"><ele>648.0</ele><time>2026-05-03T08:11:57.958Z</time></trkpt><trkpt lat="44.1668959" lon="7.9728079"><ele>648.0</ele><time>2026-05-03T08:11:58.965Z</time></trkpt><trkpt lat="44.1667081" lon="7.9726978"><ele>648.0</ele><time>2026-05-03T08:11:59.956Z</time></trkpt><trkpt lat="44.1665127" lon="7.9726196"><ele>648.0</ele><time>2026-05-03T08:12:00.955Z</time></trkpt><trkpt lat="44.1663222" lon="7.9725578"><ele>648.6666666666666</ele><time>2026-05-03T08:12:01.964Z</time></trkpt><trkpt lat="44.166134" lon="7.9725091"><ele>649.3333333333333</ele><time>2026-05-03T08:12:02.964Z</time></trkpt><trkpt lat="44.1659568" lon="7.9724599"><ele>650.0</ele><time>2026-05-03T08:12:03.962Z</time></trkpt><trkpt lat="44.1657882" lon="7.9724083"><ele>649.6666666666666</ele><time>2026-05-03T08:12:04.987Z</time></trkpt><trkpt lat="44.1656243" lon="7.9723654"><ele>649.3333333333334</ele><time>2026-05-03T08:12:05.958Z</time></trkpt><trkpt lat="44.1654599" lon="7.972317"><ele>649.0</ele><time>2026-05-03T08:12:06.965Z</time></trkpt><trkpt lat="44.1653023" lon="7.9722706"><ele>649.0</ele><time>2026-05-03T08:12:07.968Z</time></trkpt><trkpt lat="44.165149" lon="7.9722242"><ele>649.0</ele><time>2026-05-03T08:12:08.967Z</time></trkpt><trkpt lat="44.1650053" lon="7.972176"><ele>649.0</ele><time>2026-05-03T08:12:09.959Z</time></trkpt><trkpt lat="44.1648643" lon="7.972133"><ele>649.0</ele><time>2026-05-03T08:12:10.963Z</time></trkpt><trkpt lat="44.1647154" lon="7.9720962"><ele>648.3333333333334</ele><time>2026-05-03T08:12:11.957Z</time></trkpt><trkpt lat="44.1645693" lon="7.9720582"><ele>647.6666666666666</ele><time>2026-05-03T08:12:12.964Z</time></trkpt><trkpt lat="44.164413" lon="7.9720027"><ele>647.0</ele><time>2026-05-03T08:12:13.956Z</time></trkpt><trkpt lat="44.1642492" lon="7.971931"><ele>647.0</ele><time>2026-05-03T08:12:14.964Z</time></trkpt><trkpt lat="44.164079" lon="7.971845"><ele>647.0</ele><time>2026-05-03T08:12:15.956Z</time></trkpt><trkpt lat="44.1639037" lon="7.9717203"><ele>647.0</ele><time>2026-05-03T08:12:16.962Z</time></trkpt><trkpt lat="44.1637308" lon="7.9715866"><ele>648.0</ele><time>2026-05-03T08:12:17.972Z</time></trkpt><trkpt lat="44.1635556" lon="7.9714275"><ele>649.0</ele><time>2026-05-03T08:12:18.958Z</time></trkpt><trkpt lat="44.1633843" lon="7.9712681"><ele>650.0</ele><time>2026-05-03T08:12:19.963Z</time></trkpt><trkpt lat="44.1632145" lon="7.9711214"><ele>650.3333333333333</ele><time>2026-05-03T08:12:20.953Z</time></trkpt><trkpt lat="44.1630512" lon="7.9709728"><ele>650.6666666666666</ele><time>2026-05-03T08:12:21.966Z</time></trkpt><trkpt lat="44.162889" lon="7.9708101"><ele>651.0</ele><time>2026-05-03T08:12:22.955Z</time></trkpt><trkpt lat="44.1627372" lon="7.9706503"><ele>651.0</ele><time>2026-05-03T08:12:23.965Z</time></trkpt><trkpt lat="44.1626073" lon="7.9704879"><ele>651.0</ele><time>2026-05-03T08:12:24.957Z</time></trkpt><trkpt lat="44.1624908" lon="7.9703002"><ele>651.0</ele><time>2026-05-03T08:12:25.967Z</time></trkpt><trkpt lat="44.1623997" lon="7.9700807"><ele>650.6666666666666</ele><time>2026-05-03T08:12:26.958Z</time></trkpt><trkpt lat="44.1623278" lon="7.9698346"><ele>650.3333333333333</ele><time>2026-05-03T08:12:27.976Z</time></trkpt><trkpt lat="44.16225" lon="7.9695832"><ele>650.0</ele><time>2026-05-03T08:12:28.965Z</time></trkpt><trkpt lat="44.1621677" lon="7.9693191"><ele>651.6666666666666</ele><time>2026-05-03T08:12:29.962Z</time></trkpt><trkpt lat="44.1620742" lon="7.9690685"><ele>653.3333333333334</ele><time>2026-05-03T08:12:30.963Z</time></trkpt><trkpt lat="44.1619873" lon="7.9688005"><ele>655.0</ele><time>2026-05-03T08:12:31.962Z</time></trkpt><trkpt lat="44.1619081" lon="7.9685243"><ele>656.0</ele><time>2026-05-03T08:12:32.959Z</time></trkpt><trkpt lat="44.1618497" lon="7.9682354"><ele>657.0</ele><time>2026-05-03T08:12:33.957Z</time></trkpt><trkpt lat="44.1618251" lon="7.9679346"><ele>658.0</ele><time>2026-05-03T08:12:34.966Z</time></trkpt><trkpt lat="44.1617973" lon="7.9676185"><ele>660.3333333333334</ele><time>2026-05-03T08:12:35.964Z</time></trkpt><trkpt lat="44.1617645" lon="7.9673177"><ele>662.6666666666666</ele><time>2026-05-03T08:12:36.981Z</time></trkpt><trkpt lat="44.1617239" lon="7.9670308"><ele>665.0</ele><time>2026-05-03T08:12:37.956Z</time></trkpt><trkpt lat="44.1616801" lon="7.9667469"><ele>667.3333333333333</ele><time>2026-05-03T08:12:38.963Z</time></trkpt><trkpt lat="44.161625" lon="7.9664844"><ele>669.6666666666666</ele><time>2026-05-03T08:12:39.959Z</time></trkpt><trkpt lat="44.1615257" lon="7.9662616"><ele>672.0</ele><time>2026-05-03T08:12:40.958Z</time></trkpt><trkpt lat="44.1614052" lon="7.9660909"><ele>665.6666666666666</ele><time>2026-05-03T08:12:41.958Z</time></trkpt><trkpt lat="44.1612874" lon="7.9659449"><ele>659.3333333333333</ele><time>2026-05-03T08:12:42.959Z</time></trkpt><trkpt lat="44.1611704" lon="7.9657739"><ele>653.0</ele><time>2026-05-03T08:12:43.968Z</time></trkpt><trkpt lat="44.1610999" lon="7.9655679"><ele>653.0</ele><time>2026-05-03T08:12:44.965Z</time></trkpt><trkpt lat="44.1610431" lon="7.9653689"><ele>653.0</ele><time>2026-05-03T08:12:45.953Z</time></trkpt><trkpt lat="44.1609866" lon="7.9651661"><ele>653.0</ele><time>2026-05-03T08:12:46.961Z</time></trkpt><trkpt lat="44.1609219" lon="7.9649531"><ele>654.6666666666666</ele><time>2026-05-03T08:12:47.956Z</time></trkpt><trkpt lat="44.1608507" lon="7.9647441"><ele>656.3333333333334</ele><time>2026-05-03T08:12:48.964Z</time></trkpt><trkpt lat="44.1607672" lon="7.9645317"><ele>658.0</ele><time>2026-05-03T08:12:49.957Z</time></trkpt><trkpt lat="44.160682" lon="7.9643209"><ele>661.3333333333334</ele><time>2026-05-03T08:12:50.96Z</time></trkpt><trkpt lat="44.1606095" lon="7.964093"><ele>664.6666666666666</ele><time>2026-05-03T08:12:51.961Z</time></trkpt><trkpt lat="44.1605338" lon="7.9638481"><ele>668.0</ele><time>2026-05-03T08:12:52.969Z</time></trkpt><trkpt lat="44.1604692" lon="7.9635861"><ele>666.0</ele><time>2026-05-03T08:12:53.955Z</time></trkpt><trkpt lat="44.1604081" lon="7.9633084"><ele>664.0</ele><time>2026-05-03T08:12:54.954Z</time></trkpt><trkpt lat="44.1603545" lon="7.9630304"><ele>662.0</ele><time>2026-05-03T08:12:55.957Z</time></trkpt><trkpt lat="44.1603106" lon="7.9627438"><ele>663.0</ele><time>2026-05-03T08:12:56.967Z</time></trkpt><trkpt lat="44.1602853" lon="7.9624392"><ele>664.0</ele><time>2026-05-03T08:12:57.959Z</time></trkpt><trkpt lat="44.1602942" lon="7.9621317"><ele>665.0</ele><time>2026-05-03T08:12:58.97Z</time></trkpt><trkpt lat="44.1603178" lon="7.9618215"><ele>663.0</ele><time>2026-05-03T08:12:59.963Z</time></trkpt><trkpt lat="44.1603559" lon="7.9615048"><ele>661.0</ele><time>2026-05-03T08:13:00.962Z</time></trkpt><trkpt lat="44.1604019" lon="7.9611876"><ele>661.0</ele><time>2026-05-03T08:13:01.955Z</time></trkpt><trkpt lat="44.160434" lon="7.9608754"><ele>661.0</ele><time>2026-05-03T08:13:02.966Z</time></trkpt><trkpt lat="44.1604595" lon="7.9605683"><ele>661.0</ele><time>2026-05-03T08:13:03.958Z</time></trkpt><trkpt lat="44.1604752" lon="7.9602737"><ele>661.0</ele><time>2026-05-03T08:13:04.953Z</time></trkpt><trkpt lat="44.160466" lon="7.9599758"><ele>661.0</ele><time>2026-05-03T08:13:05.958Z</time></trkpt><trkpt lat="44.1604146" lon="7.9596835"><ele>661.0</ele><time>2026-05-03T08:13:06.957Z</time></trkpt><trkpt lat="44.1603358" lon="7.9593931"><ele>661.6666666666667</ele><time>2026-05-03T08:13:07.968Z</time></trkpt><trkpt lat="44.1602539" lon="7.9591167"><ele>662.3333333333334</ele><time>2026-05-03T08:13:08.96Z</time></trkpt><trkpt lat="44.1601644" lon="7.9588424"><ele>663.0</ele><time>2026-05-03T08:13:09.965Z</time></trkpt><trkpt lat="44.1600606" lon="7.9585622"><ele>662.6666666666666</ele><time>2026-05-03T08:13:10.961Z</time></trkpt><trkpt lat="44.1599424" lon="7.9583077"><ele>662.3333333333333</ele><time>2026-05-03T08:13:11.961Z</time></trkpt><trkpt lat="44.1598152" lon="7.9580707"><ele>662.0</ele><time>2026-05-03T08:13:12.964Z</time></trkpt><trkpt lat="44.1596692" lon="7.9578608"><ele>662.0</ele><time>2026-05-03T08:13:13.961Z</time></trkpt><trkpt lat="44.1595164" lon="7.9576497"><ele>662.0</ele><time>2026-05-03T08:13:14.959Z</time></trkpt><trkpt lat="44.1593635" lon="7.9574453"><ele>662.0</ele><time>2026-05-03T08:13:15.965Z</time></trkpt><trkpt lat="44.1592194" lon="7.9572594"><ele>662.0</ele><time>2026-05-03T08:13:16.959Z</time></trkpt><trkpt lat="44.1590818" lon="7.9570849"><ele>662.0</ele><time>2026-05-03T08:13:17.965Z</time></trkpt><trkpt lat="44.1589535" lon="7.9569147"><ele>662.0</ele><time>2026-05-03T08:13:18.967Z</time></trkpt><trkpt lat="44.1588306" lon="7.9567461"><ele>663.0</ele><time>2026-05-03T08:13:19.968Z</time></trkpt><trkpt lat="44.1587113" lon="7.9565843"><ele>664.0</ele><time>2026-05-03T08:13:20.964Z</time></trkpt><trkpt lat="44.158603" lon="7.9564197"><ele>665.0</ele><time>2026-05-03T08:13:21.967Z</time></trkpt><trkpt lat="44.1585065" lon="7.9562301"><ele>665.0</ele><time>2026-05-03T08:13:22.965Z</time></trkpt><trkpt lat="44.158416" lon="7.9560177"><ele>665.0</ele><time>2026-05-03T08:13:23.963Z</time></trkpt><trkpt lat="44.1583536" lon="7.9557844"><ele>665.0</ele><time>2026-05-03T08:13:24.972Z</time></trkpt><trkpt lat="44.1583068" lon="7.9555379"><ele>667.0</ele><time>2026-05-03T08:13:25.963Z</time></trkpt><trkpt lat="44.1582786" lon="7.9552833"><ele>669.0</ele><time>2026-05-03T08:13:26.961Z</time></trkpt><trkpt lat="44.1582692" lon="7.955011"><ele>671.0</ele><time>2026-05-03T08:13:27.964Z</time></trkpt><trkpt lat="44.1582667" lon="7.9547327"><ele>671.6666666666666</ele><time>2026-05-03T08:13:28.968Z</time></trkpt><trkpt lat="44.1582641" lon="7.9544406"><ele>672.3333333333334</ele><time>2026-05-03T08:13:29.971Z</time></trkpt><trkpt lat="44.1582607" lon="7.9541416"><ele>673.0</ele><time>2026-05-03T08:13:30.964Z</time></trkpt><trkpt lat="44.158255" lon="7.9538276"><ele>673.0</ele><time>2026-05-03T08:13:31.966Z</time></trkpt><trkpt lat="44.1582513" lon="7.9535228"><ele>673.0</ele><time>2026-05-03T08:13:32.964Z</time></trkpt><trkpt lat="44.158247" lon="7.9532174"><ele>673.0</ele><time>2026-05-03T08:13:33.975Z</time></trkpt><trkpt lat="44.1582448" lon="7.952912"><ele>673.6666666666667</ele><time>2026-05-03T08:13:34.961Z</time></trkpt><trkpt lat="44.1582411" lon="7.9526005"><ele>674.3333333333334</ele><time>2026-05-03T08:13:35.972Z</time></trkpt><trkpt lat="44.1582356" lon="7.9522871"><ele>675.0</ele><time>2026-05-03T08:13:36.973Z</time></trkpt><trkpt lat="44.1582303" lon="7.9519763"><ele>678.5</ele><time>2026-05-03T08:13:37.963Z</time></trkpt><trkpt lat="44.1582294" lon="7.951656"><ele>682.0</ele><time>2026-05-03T08:13:38.965Z</time></trkpt><trkpt lat="44.1582322" lon="7.9513383"><ele>682.0</ele><time>2026-05-03T08:13:39.96Z</time></trkpt><trkpt lat="44.1582488" lon="7.9510179"><ele>682.0</ele><time>2026-05-03T08:13:40.97Z</time></trkpt><trkpt lat="44.1582765" lon="7.9506984"><ele>683.0</ele><time>2026-05-03T08:13:41.967Z</time></trkpt><trkpt lat="44.1582985" lon="7.9503714"><ele>684.0</ele><time>2026-05-03T08:13:42.961Z</time></trkpt><trkpt lat="44.158315" lon="7.9500384"><ele>684.0</ele><time>2026-05-03T08:13:43.972Z</time></trkpt><trkpt lat="44.1583348" lon="7.9497056"><ele>684.0</ele><time>2026-05-03T08:13:44.965Z</time></trkpt><trkpt lat="44.1583541" lon="7.9493606"><ele>683.5</ele><time>2026-05-03T08:13:45.969Z</time></trkpt><trkpt lat="44.1583732" lon="7.9490113"><ele>683.0</ele><time>2026-05-03T08:13:46.965Z</time></trkpt><trkpt lat="44.1583945" lon="7.9486592"><ele>680.0</ele><time>2026-05-03T08:13:47.962Z</time></trkpt><trkpt lat="44.158411" lon="7.9483035"><ele>677.0</ele><time>2026-05-03T08:13:48.966Z</time></trkpt><trkpt lat="44.1584244" lon="7.9479427"><ele>677.0</ele><time>2026-05-03T08:13:49.969Z</time></trkpt><trkpt lat="44.1584257" lon="7.9475727"><ele>677.0</ele><time>2026-05-03T08:13:50.961Z</time></trkpt><trkpt lat="44.1584174" lon="7.9472085"><ele>678.0</ele><time>2026-05-03T08:13:51.954Z</time></trkpt><trkpt lat="44.1584004" lon="7.9468566"><ele>679.0</ele><time>2026-05-03T08:13:52.972Z</time></trkpt><trkpt lat="44.1583797" lon="7.9465309"><ele>679.3333333333334</ele><time>2026-05-03T08:13:53.954Z</time></trkpt><trkpt lat="44.1583616" lon="7.9462491"><ele>679.6666666666666</ele><time>2026-05-03T08:13:54.964Z</time></trkpt><trkpt lat="44.1583391" lon="7.9460044"><ele>680.0</ele><time>2026-05-03T08:13:55.957Z</time></trkpt><trkpt lat="44.1583304" lon="7.9457911"><ele>679.5</ele><time>2026-05-03T08:13:56.959Z</time></trkpt><trkpt lat="44.1583294" lon="7.9456081"><ele>679.0</ele><time>2026-05-03T08:13:57.955Z</time></trkpt><trkpt lat="44.1583224" lon="7.9454346"><ele>678.5</ele><time>2026-05-03T08:13:58.955Z</time></trkpt><trkpt lat="44.1583056" lon="7.9452592"><ele>678.0</ele><time>2026-05-03T08:13:59.958Z</time></trkpt><trkpt lat="44.1582527" lon="7.9450804"><ele>677.0</ele><time>2026-05-03T08:14:00.95Z</time></trkpt><trkpt lat="44.1581717" lon="7.9449125"><ele>676.0</ele><time>2026-05-03T08:14:01.951Z</time></trkpt><trkpt lat="44.1580639" lon="7.9447293"><ele>675.0</ele><time>2026-05-03T08:14:02.956Z</time></trkpt><trkpt lat="44.1579946" lon="7.944519"><ele>675.0</ele><time>2026-05-03T08:14:03.956Z</time></trkpt><trkpt lat="44.1579556" lon="7.9442643"><ele>675.0</ele><time>2026-05-03T08:14:04.965Z</time></trkpt><trkpt lat="44.1579291" lon="7.9439962"><ele>675.0</ele><time>2026-05-03T08:14:05.953Z</time></trkpt><trkpt lat="44.1579109" lon="7.9436923"><ele>674.3333333333334</ele><time>2026-05-03T08:14:06.956Z</time></trkpt><trkpt lat="44.1578789" lon="7.9433975"><ele>673.6666666666667</ele><time>2026-05-03T08:14:07.969Z</time></trkpt><trkpt lat="44.1578419" lon="7.9431058"><ele>673.0</ele><time>2026-05-03T08:14:08.964Z</time></trkpt><trkpt lat="44.1577965" lon="7.9428096"><ele>673.3333333333334</ele><time>2026-05-03T08:14:09.957Z</time></trkpt><trkpt lat="44.1577488" lon="7.9425086"><ele>673.6666666666666</ele><time>2026-05-03T08:14:10.958Z</time></trkpt><trkpt lat="44.1576966" lon="7.9422026"><ele>674.0</ele><time>2026-05-03T08:14:11.972Z</time></trkpt><trkpt lat="44.1576501" lon="7.9418875"><ele>676.0</ele><time>2026-05-03T08:14:12.958Z</time></trkpt><trkpt lat="44.1576022" lon="7.9415699"><ele>678.0</ele><time>2026-05-03T08:14:13.962Z</time></trkpt><trkpt lat="44.1575551" lon="7.9412403"><ele>678.0</ele><time>2026-05-03T08:14:14.954Z</time></trkpt><trkpt lat="44.157506" lon="7.9409061"><ele>678.0</ele><time>2026-05-03T08:14:15.958Z</time></trkpt><trkpt lat="44.1574625" lon="7.9405865"><ele>678.5</ele><time>2026-05-03T08:14:16.96Z</time></trkpt><trkpt lat="44.1574153" lon="7.9402718"><ele>679.0</ele><time>2026-05-03T08:14:17.959Z</time></trkpt><trkpt lat="44.1573748" lon="7.9399584"><ele>681.0</ele><time>2026-05-03T08:14:18.966Z</time></trkpt><trkpt lat="44.1573354" lon="7.9396492"><ele>683.0</ele><time>2026-05-03T08:14:19.958Z</time></trkpt><trkpt lat="44.157298" lon="7.9393413"><ele>685.0</ele><time>2026-05-03T08:14:20.956Z</time></trkpt><trkpt lat="44.1572643" lon="7.93904"><ele>685.0</ele><time>2026-05-03T08:14:21.958Z</time></trkpt><trkpt lat="44.1572293" lon="7.9387527"><ele>685.0</ele><time>2026-05-03T08:14:22.96Z</time></trkpt><trkpt lat="44.1571921" lon="7.9384637"><ele>685.0</ele><time>2026-05-03T08:14:23.952Z</time></trkpt><trkpt lat="44.1571555" lon="7.9381725"><ele>685.0</ele><time>2026-05-03T08:14:24.961Z</time></trkpt><trkpt lat="44.1571245" lon="7.9378774"><ele>685.0</ele><time>2026-05-03T08:14:25.955Z</time></trkpt><trkpt lat="44.1570961" lon="7.9375755"><ele>685.0</ele><time>2026-05-03T08:14:26.958Z</time></trkpt><trkpt lat="44.1570724" lon="7.9372604"><ele>685.5</ele><time>2026-05-03T08:14:27.965Z</time></trkpt><trkpt lat="44.1570519" lon="7.93694"><ele>686.0</ele><time>2026-05-03T08:14:28.956Z</time></trkpt><trkpt lat="44.1570366" lon="7.9366232"><ele>686.0</ele><time>2026-05-03T08:14:29.963Z</time></trkpt><trkpt lat="44.15702" lon="7.9363118"><ele>686.0</ele><time>2026-05-03T08:14:30.957Z</time></trkpt><trkpt lat="44.1570016" lon="7.9360049"><ele>686.0</ele><time>2026-05-03T08:14:31.954Z</time></trkpt><trkpt lat="44.1569745" lon="7.9356977"><ele>686.0</ele><time>2026-05-03T08:14:32.958Z</time></trkpt><trkpt lat="44.1569361" lon="7.9353912"><ele>686.0</ele><time>2026-05-03T08:14:33.963Z</time></trkpt><trkpt lat="44.1568879" lon="7.9350876"><ele>686.0</ele><time>2026-05-03T08:14:34.957Z</time></trkpt><trkpt lat="44.1568378" lon="7.9347845"><ele>685.6666666666666</ele><time>2026-05-03T08:14:35.961Z</time></trkpt><trkpt lat="44.1567904" lon="7.9344851"><ele>685.3333333333334</ele><time>2026-05-03T08:14:36.959Z</time></trkpt><trkpt lat="44.1567406" lon="7.934177"><ele>685.0</ele><time>2026-05-03T08:14:37.959Z</time></trkpt><trkpt lat="44.1566882" lon="7.9338749"><ele>686.0</ele><time>2026-05-03T08:14:38.963Z</time></trkpt><trkpt lat="44.1566316" lon="7.9335622"><ele>687.0</ele><time>2026-05-03T08:14:39.961Z</time></trkpt><trkpt lat="44.1565803" lon="7.9332507"><ele>687.0</ele><time>2026-05-03T08:14:40.975Z</time></trkpt><trkpt lat="44.1565249" lon="7.9329311"><ele>687.0</ele><time>2026-05-03T08:14:41.962Z</time></trkpt><trkpt lat="44.1564726" lon="7.9326243"><ele>687.3333333333334</ele><time>2026-05-03T08:14:42.969Z</time></trkpt><trkpt lat="44.1564205" lon="7.9323259"><ele>687.6666666666667</ele><time>2026-05-03T08:14:43.962Z</time></trkpt><trkpt lat="44.1563725" lon="7.9320308"><ele>688.0</ele><time>2026-05-03T08:14:44.962Z</time></trkpt><trkpt lat="44.1563282" lon="7.9317452"><ele>687.6666666666667</ele><time>2026-05-03T08:14:45.954Z</time></trkpt><trkpt lat="44.1562837" lon="7.9314687"><ele>687.3333333333334</ele><time>2026-05-03T08:14:46.967Z</time></trkpt><trkpt lat="44.1562396" lon="7.9311937"><ele>687.0</ele><time>2026-05-03T08:14:47.96Z</time></trkpt><trkpt lat="44.156197" lon="7.9309281"><ele>687.6666666666666</ele><time>2026-05-03T08:14:48.965Z</time></trkpt><trkpt lat="44.1561537" lon="7.9306593"><ele>688.3333333333333</ele><time>2026-05-03T08:14:49.957Z</time></trkpt><trkpt lat="44.1561088" lon="7.9303885"><ele>689.0</ele><time>2026-05-03T08:14:50.961Z</time></trkpt><trkpt lat="44.156065" lon="7.9301088"><ele>689.3333333333333</ele><time>2026-05-03T08:14:51.962Z</time></trkpt><trkpt lat="44.1560227" lon="7.9298297"><ele>689.6666666666666</ele><time>2026-05-03T08:14:52.966Z</time></trkpt><trkpt lat="44.1559745" lon="7.929545"><ele>690.0</ele><time>2026-05-03T08:14:53.955Z</time></trkpt><trkpt lat="44.1559245" lon="7.9292565"><ele>690.0</ele><time>2026-05-03T08:14:54.96Z</time></trkpt><trkpt lat="44.1558763" lon="7.9289616"><ele>690.0</ele><time>2026-05-03T08:14:55.98Z</time></trkpt><trkpt lat="44.1558263" lon="7.928667"><ele>690.0</ele><time>2026-05-03T08:14:56.96Z</time></trkpt><trkpt lat="44.1557791" lon="7.9283747"><ele>691.3333333333334</ele><time>2026-05-03T08:14:57.962Z</time></trkpt><trkpt lat="44.1557295" lon="7.9280852"><ele>692.6666666666667</ele><time>2026-05-03T08:14:58.954Z</time></trkpt><trkpt lat="44.1556811" lon="7.9277919"><ele>694.0</ele><time>2026-05-03T08:14:59.957Z</time></trkpt><trkpt lat="44.1556315" lon="7.9274987"><ele>694.5</ele><time>2026-05-03T08:15:00.962Z</time></trkpt><trkpt lat="44.155581" lon="7.927193"><ele>695.0</ele><time>2026-05-03T08:15:01.973Z</time></trkpt><trkpt lat="44.1555294" lon="7.9268879"><ele>695.3333333333333</ele><time>2026-05-03T08:15:02.961Z</time></trkpt><trkpt lat="44.1554791" lon="7.9265812"><ele>695.6666666666666</ele><time>2026-05-03T08:15:03.963Z</time></trkpt><trkpt lat="44.1554245" lon="7.9262824"><ele>696.0</ele><time>2026-05-03T08:15:04.958Z</time></trkpt><trkpt lat="44.155376" lon="7.9259728"><ele>695.0</ele><time>2026-05-03T08:15:05.96Z</time></trkpt><trkpt lat="44.1553312" lon="7.9256584"><ele>694.0</ele><time>2026-05-03T08:15:06.961Z</time></trkpt><trkpt lat="44.1552811" lon="7.9253488"><ele>694.6666666666667</ele><time>2026-05-03T08:15:07.963Z</time></trkpt><trkpt lat="44.1552334" lon="7.9250511"><ele>695.3333333333334</ele><time>2026-05-03T08:15:08.962Z</time></trkpt><trkpt lat="44.1551817" lon="7.9247477"><ele>696.0</ele><time>2026-05-03T08:15:09.961Z</time></trkpt><trkpt lat="44.1551313" lon="7.924441"><ele>696.3333333333334</ele><time>2026-05-03T08:15:10.963Z</time></trkpt><trkpt lat="44.1550815" lon="7.9241392"><ele>696.6666666666667</ele><time>2026-05-03T08:15:11.959Z</time></trkpt><trkpt lat="44.1550351" lon="7.9238411"><ele>697.0</ele><time>2026-05-03T08:15:12.962Z</time></trkpt><trkpt lat="44.1549895" lon="7.923543"><ele>696.6666666666667</ele><time>2026-05-03T08:15:13.953Z</time></trkpt><trkpt lat="44.1549429" lon="7.9232397"><ele>696.3333333333334</ele><time>2026-05-03T08:15:14.97Z</time></trkpt><trkpt lat="44.1548951" lon="7.9229354"><ele>696.0</ele><time>2026-05-03T08:15:15.961Z</time></trkpt><trkpt lat="44.1548488" lon="7.922632"><ele>696.6666666666666</ele><time>2026-05-03T08:15:16.964Z</time></trkpt><trkpt lat="44.1547954" lon="7.9223403"><ele>697.3333333333333</ele><time>2026-05-03T08:15:17.966Z</time></trkpt><trkpt lat="44.1547484" lon="7.9220621"><ele>698.0</ele><time>2026-05-03T08:15:18.978Z</time></trkpt><trkpt lat="44.1547068" lon="7.9218051"><ele>698.3333333333333</ele><time>2026-05-03T08:15:19.953Z</time></trkpt><trkpt lat="44.1546743" lon="7.9215623"><ele>698.6666666666666</ele><time>2026-05-03T08:15:20.97Z</time></trkpt><trkpt lat="44.1546484" lon="7.921333"><ele>699.0</ele><time>2026-05-03T08:15:21.949Z</time></trkpt><trkpt lat="44.1546293" lon="7.9210973"><ele>698.6666666666666</ele><time>2026-05-03T08:15:22.944Z</time></trkpt><trkpt lat="44.1546174" lon="7.9208566"><ele>698.3333333333333</ele><time>2026-05-03T08:15:23.95Z</time></trkpt><trkpt lat="44.1546094" lon="7.9206074"><ele>698.0</ele><time>2026-05-03T08:15:24.963Z</time></trkpt><trkpt lat="44.1546093" lon="7.9203521"><ele>698.0</ele><time>2026-05-03T08:15:25.95Z</time></trkpt><trkpt lat="44.1546199" lon="7.9200938"><ele>698.0</ele><time>2026-05-03T08:15:26.951Z</time></trkpt><trkpt lat="44.154636" lon="7.9198287"><ele>698.0</ele><time>2026-05-03T08:15:27.96Z</time></trkpt><trkpt lat="44.1546615" lon="7.9195642"><ele>699.6666666666666</ele><time>2026-05-03T08:15:28.944Z</time></trkpt><trkpt lat="44.1546912" lon="7.9192919"><ele>701.3333333333334</ele><time>2026-05-03T08:15:29.954Z</time></trkpt><trkpt lat="44.1547244" lon="7.9190068"><ele>703.0</ele><time>2026-05-03T08:15:30.95Z</time></trkpt><trkpt lat="44.1547641" lon="7.918726"><ele>703.6666666666667</ele><time>2026-05-03T08:15:31.953Z</time></trkpt><trkpt lat="44.1548014" lon="7.9184506"><ele>704.3333333333334</ele><time>2026-05-03T08:15:32.973Z</time></trkpt><trkpt lat="44.1548401" lon="7.9181726"><ele>705.0</ele><time>2026-05-03T08:15:33.952Z</time></trkpt><trkpt lat="44.1548764" lon="7.9178913"><ele>707.3333333333334</ele><time>2026-05-03T08:15:34.964Z</time></trkpt><trkpt lat="44.1549067" lon="7.9176208"><ele>709.6666666666667</ele><time>2026-05-03T08:15:35.961Z</time></trkpt><trkpt lat="44.1549355" lon="7.9173654"><ele>712.0</ele><time>2026-05-03T08:15:36.966Z</time></trkpt><trkpt lat="44.1549689" lon="7.9171329"><ele>712.25</ele><time>2026-05-03T08:15:37.957Z</time></trkpt><trkpt lat="44.1550058" lon="7.9169495"><ele>712.5</ele><time>2026-05-03T08:15:38.962Z</time></trkpt><trkpt lat="44.155068" lon="7.9167914"><ele>712.75</ele><time>2026-05-03T08:15:39.952Z</time></trkpt><trkpt lat="44.1551019" lon="7.916616"><ele>713.0</ele><time>2026-05-03T08:15:40.972Z</time></trkpt><trkpt lat="44.1551133" lon="7.9163968"><ele>714.3333333333333</ele><time>2026-05-03T08:15:41.968Z</time></trkpt><trkpt lat="44.1550938" lon="7.9161812"><ele>715.6666666666666</ele><time>2026-05-03T08:15:42.957Z</time></trkpt><trkpt lat="44.1550275" lon="7.9159705"><ele>717.0</ele><time>2026-05-03T08:15:43.96Z</time></trkpt><trkpt lat="44.1549574" lon="7.9157445"><ele>717.6666666666666</ele><time>2026-05-03T08:15:44.953Z</time></trkpt><trkpt lat="44.1548948" lon="7.9155219"><ele>718.3333333333333</ele><time>2026-05-03T08:15:45.958Z</time></trkpt><trkpt lat="44.1548249" lon="7.915284"><ele>719.0</ele><time>2026-05-03T08:15:46.96Z</time></trkpt><trkpt lat="44.1547592" lon="7.9150453"><ele>716.0</ele><time>2026-05-03T08:15:47.971Z</time></trkpt><trkpt lat="44.154689" lon="7.914798"><ele>713.0</ele><time>2026-05-03T08:15:48.969Z</time></trkpt><trkpt lat="44.1546162" lon="7.9145332"><ele>710.0</ele><time>2026-05-03T08:15:49.956Z</time></trkpt><trkpt lat="44.1545378" lon="7.9142689"><ele>711.0</ele><time>2026-05-03T08:15:50.961Z</time></trkpt><trkpt lat="44.1544543" lon="7.9139917"><ele>712.0</ele><time>2026-05-03T08:15:51.957Z</time></trkpt><trkpt lat="44.1543593" lon="7.9137276"><ele>713.0</ele><time>2026-05-03T08:15:52.957Z</time></trkpt><trkpt lat="44.1542555" lon="7.9134617"><ele>712.3333333333333</ele><time>2026-05-03T08:15:53.955Z</time></trkpt><trkpt lat="44.1541406" lon="7.9132079"><ele>711.6666666666666</ele><time>2026-05-03T08:15:54.954Z</time></trkpt><trkpt lat="44.1540137" lon="7.9129748"><ele>711.0</ele><time>2026-05-03T08:15:55.958Z</time></trkpt><trkpt lat="44.1538778" lon="7.9127486"><ele>713.6666666666666</ele><time>2026-05-03T08:15:56.961Z</time></trkpt><trkpt lat="44.1537305" lon="7.912543"><ele>716.3333333333333</ele><time>2026-05-03T08:15:57.959Z</time></trkpt><trkpt lat="44.1535572" lon="7.9123705"><ele>719.0</ele><time>2026-05-03T08:15:58.957Z</time></trkpt><trkpt lat="44.1533758" lon="7.9122465"><ele>719.0</ele><time>2026-05-03T08:15:59.954Z</time></trkpt><trkpt lat="44.1531821" lon="7.9121604"><ele>719.0</ele><time>2026-05-03T08:16:00.963Z</time></trkpt><trkpt lat="44.1529749" lon="7.9121138"><ele>719.0</ele><time>2026-05-03T08:16:01.956Z</time></trkpt><trkpt lat="44.1527606" lon="7.9121196"><ele>719.0</ele><time>2026-05-03T08:16:02.956Z</time></trkpt><trkpt lat="44.152549" lon="7.9121482"><ele>719.0</ele><time>2026-05-03T08:16:03.952Z</time></trkpt><trkpt lat="44.1523472" lon="7.9121793"><ele>719.0</ele><time>2026-05-03T08:16:04.958Z</time></trkpt><trkpt lat="44.1521627" lon="7.9122048"><ele>718.6666666666666</ele><time>2026-05-03T08:16:05.957Z</time></trkpt><trkpt lat="44.1520034" lon="7.9122096"><ele>718.3333333333334</ele><time>2026-05-03T08:16:06.959Z</time></trkpt><trkpt lat="44.1518523" lon="7.9122122"><ele>718.0</ele><time>2026-05-03T08:16:07.959Z</time></trkpt><trkpt lat="44.1517103" lon="7.9122133"><ele>718.0</ele><time>2026-05-03T08:16:08.954Z</time></trkpt><trkpt lat="44.1515888" lon="7.9122178"><ele>718.0</ele><time>2026-05-03T08:16:09.959Z</time></trkpt><trkpt lat="44.1514663" lon="7.9122359"><ele>718.0</ele><time>2026-05-03T08:16:10.96Z</time></trkpt><trkpt lat="44.151345" lon="7.9122432"><ele>718.0</ele><time>2026-05-03T08:16:11.962Z</time></trkpt><trkpt lat="44.1512249" lon="7.912277"><ele>718.0</ele><time>2026-05-03T08:16:12.971Z</time></trkpt><trkpt lat="44.1511235" lon="7.9123123"><ele>718.0</ele><time>2026-05-03T08:16:13.964Z</time></trkpt><trkpt lat="44.1510338" lon="7.9124099"><ele>718.0</ele><time>2026-05-03T08:16:14.979Z</time></trkpt><trkpt lat="44.1509358" lon="7.912535"><ele>718.0</ele><time>2026-05-03T08:16:15.96Z</time></trkpt><trkpt lat="44.1508387" lon="7.9126525"><ele>718.0</ele><time>2026-05-03T08:16:16.958Z</time></trkpt><trkpt lat="44.1507474" lon="7.9127641"><ele>718.0</ele><time>2026-05-03T08:16:17.964Z</time></trkpt><trkpt lat="44.15066" lon="7.9128845"><ele>718.0</ele><time>2026-05-03T08:16:18.96Z</time></trkpt><trkpt lat="44.1505807" lon="7.9130021"><ele>718.0</ele><time>2026-05-03T08:16:19.96Z</time></trkpt><trkpt lat="44.1505062" lon="7.9131129"><ele>718.8</ele><time>2026-05-03T08:16:20.962Z</time></trkpt><trkpt lat="44.1504372" lon="7.9132281"><ele>719.5999999999999</ele><time>2026-05-03T08:16:21.968Z</time></trkpt><trkpt lat="44.1503717" lon="7.9133531"><ele>720.4000000000001</ele><time>2026-05-03T08:16:22.964Z</time></trkpt><trkpt lat="44.1503278" lon="7.913481"><ele>721.2</ele><time>2026-05-03T08:16:23.959Z</time></trkpt><trkpt lat="44.1502841" lon="7.9136177"><ele>722.0</ele><time>2026-05-03T08:16:24.962Z</time></trkpt><trkpt lat="44.150215" lon="7.9137405"><ele>722.0</ele><time>2026-05-03T08:16:25.956Z</time></trkpt><trkpt lat="44.150143" lon="7.9138541"><ele>722.0</ele><time>2026-05-03T08:16:26.965Z</time></trkpt><trkpt lat="44.1500401" lon="7.9139527"><ele>722.0</ele><time>2026-05-03T08:16:27.957Z</time></trkpt><trkpt lat="44.1499281" lon="7.9140299"><ele>722.0</ele><time>2026-05-03T08:16:28.968Z</time></trkpt><trkpt lat="44.1498125" lon="7.9140902"><ele>721.25</ele><time>2026-05-03T08:16:29.952Z</time></trkpt><trkpt lat="44.1496939" lon="7.9141409"><ele>720.5</ele><time>2026-05-03T08:16:30.963Z</time></trkpt><trkpt lat="44.1495635" lon="7.9141854"><ele>719.75</ele><time>2026-05-03T08:16:31.958Z</time></trkpt><trkpt lat="44.1494297" lon="7.9142261"><ele>719.0</ele><time>2026-05-03T08:16:32.961Z</time></trkpt><trkpt lat="44.1492931" lon="7.9142705"><ele>719.0</ele><time>2026-05-03T08:16:33.964Z</time></trkpt><trkpt lat="44.1491471" lon="7.9143167"><ele>719.0</ele><time>2026-05-03T08:16:34.96Z</time></trkpt><trkpt lat="44.1489959" lon="7.9143573"><ele>719.0</ele><time>2026-05-03T08:16:35.963Z</time></trkpt><trkpt lat="44.1488449" lon="7.9143937"><ele>719.6666666666666</ele><time>2026-05-03T08:16:36.955Z</time></trkpt><trkpt lat="44.1486946" lon="7.9144238"><ele>720.3333333333334</ele><time>2026-05-03T08:16:37.967Z</time></trkpt><trkpt lat="44.1485387" lon="7.9144415"><ele>721.0</ele><time>2026-05-03T08:16:38.96Z</time></trkpt><trkpt lat="44.1483907" lon="7.9144584"><ele>721.0</ele><time>2026-05-03T08:16:39.959Z</time></trkpt><trkpt lat="44.1482551" lon="7.9144687"><ele>721.0</ele><time>2026-05-03T08:16:40.96Z</time></trkpt><trkpt lat="44.1481302" lon="7.9144728"><ele>721.0</ele><time>2026-05-03T08:16:41.958Z</time></trkpt><trkpt lat="44.1480305" lon="7.9144784"><ele>721.0</ele><time>2026-05-03T08:16:42.97Z</time></trkpt><trkpt lat="44.1479408" lon="7.9144718"><ele>721.4</ele><time>2026-05-03T08:16:43.963Z</time></trkpt><trkpt lat="44.1478556" lon="7.9144429"><ele>721.8</ele><time>2026-05-03T08:16:44.96Z</time></trkpt><trkpt lat="44.1477693" lon="7.9143777"><ele>722.1999999999999</ele><time>2026-05-03T08:16:45.961Z</time></trkpt><trkpt lat="44.1476917" lon="7.9142818"><ele>722.5999999999999</ele><time>2026-05-03T08:16:46.959Z</time></trkpt><trkpt lat="44.1476376" lon="7.9141589"><ele>723.0</ele><time>2026-05-03T08:16:47.959Z</time></trkpt><trkpt lat="44.1476138" lon="7.914021"><ele>723.5999999999999</ele><time>2026-05-03T08:16:48.964Z</time></trkpt><trkpt lat="44.147621" lon="7.9138678"><ele>724.1999999999999</ele><time>2026-05-03T08:16:49.959Z</time></trkpt><trkpt lat="44.147648" lon="7.9137182"><ele>724.8</ele><time>2026-05-03T08:16:50.965Z</time></trkpt><trkpt lat="44.147695" lon="7.9135736"><ele>725.4</ele><time>2026-05-03T08:16:51.961Z</time></trkpt><trkpt lat="44.1477519" lon="7.9134442"><ele>726.0</ele><time>2026-05-03T08:16:52.961Z</time></trkpt><trkpt lat="44.1477994" lon="7.9133063"><ele>727.0</ele><time>2026-05-03T08:16:53.968Z</time></trkpt><trkpt lat="44.1478435" lon="7.9131913"><ele>728.0</ele><time>2026-05-03T08:16:54.962Z</time></trkpt><trkpt lat="44.147867" lon="7.9130861"><ele>729.0</ele><time>2026-05-03T08:16:55.954Z</time></trkpt><trkpt lat="44.1478846" lon="7.9129996"><ele>730.0</ele><time>2026-05-03T08:16:56.967Z</time></trkpt><trkpt lat="44.1479239" lon="7.9128333"><ele>731.0</ele><time>2026-05-03T08:16:58.96Z</time></trkpt><trkpt lat="44.1479454" lon="7.9127188"><ele>732.0</ele><time>2026-05-03T08:16:59.967Z</time></trkpt><trkpt lat="44.1479631" lon="7.9125861"><ele>732.0</ele><time>2026-05-03T08:17:00.957Z</time></trkpt><trkpt lat="44.1479792" lon="7.9124366"><ele>732.0</ele><time>2026-05-03T08:17:01.958Z</time></trkpt><trkpt lat="44.1479932" lon="7.912292"><ele>732.0</ele><time>2026-05-03T08:17:02.95Z</time></trkpt><trkpt lat="44.1480066" lon="7.9121342"><ele>732.0</ele><time>2026-05-03T08:17:03.958Z</time></trkpt><trkpt lat="44.1480203" lon="7.9119802"><ele>732.0</ele><time>2026-05-03T08:17:04.954Z</time></trkpt><trkpt lat="44.1480424" lon="7.9118247"><ele>732.75</ele><time>2026-05-03T08:17:05.961Z</time></trkpt><trkpt lat="44.1480566" lon="7.9116473"><ele>733.5</ele><time>2026-05-03T08:17:06.96Z</time></trkpt><trkpt lat="44.1480842" lon="7.9114867"><ele>734.25</ele><time>2026-05-03T08:17:07.962Z</time></trkpt><trkpt lat="44.1481185" lon="7.911328"><ele>735.0</ele><time>2026-05-03T08:17:08.958Z</time></trkpt><trkpt lat="44.1481529" lon="7.911192"><ele>735.0</ele><time>2026-05-03T08:17:09.947Z</time></trkpt><trkpt lat="44.1481859" lon="7.9110601"><ele>735.0</ele><time>2026-05-03T08:17:10.957Z</time></trkpt><trkpt lat="44.1482256" lon="7.9109426"><ele>735.0</ele><time>2026-05-03T08:17:11.964Z</time></trkpt><trkpt lat="44.1482642" lon="7.910833"><ele>735.0</ele><time>2026-05-03T08:17:12.962Z</time></trkpt><trkpt lat="44.1482837" lon="7.9107251"><ele>735.0</ele><time>2026-05-03T08:17:13.966Z</time></trkpt><trkpt lat="44.1482856" lon="7.9106302"><ele>735.0</ele><time>2026-05-03T08:17:14.963Z</time></trkpt><trkpt lat="44.1482525" lon="7.9105128"><ele>735.25</ele><time>2026-05-03T08:17:15.959Z</time></trkpt><trkpt lat="44.1481977" lon="7.9103794"><ele>735.5</ele><time>2026-05-03T08:17:16.965Z</time></trkpt><trkpt lat="44.1481161" lon="7.9102608"><ele>735.75</ele><time>2026-05-03T08:17:17.962Z</time></trkpt><trkpt lat="44.148041" lon="7.910136"><ele>736.0</ele><time>2026-05-03T08:17:18.964Z</time></trkpt><trkpt lat="44.1479698" lon="7.9100159"><ele>738.25</ele><time>2026-05-03T08:17:19.965Z</time></trkpt><trkpt lat="44.1478868" lon="7.9099045"><ele>740.5</ele><time>2026-05-03T08:17:20.968Z</time></trkpt><trkpt lat="44.1477909" lon="7.9098148"><ele>742.75</ele><time>2026-05-03T08:17:21.97Z</time></trkpt><trkpt lat="44.1476776" lon="7.9097608"><ele>745.0</ele><time>2026-05-03T08:17:22.969Z</time></trkpt><trkpt lat="44.1475509" lon="7.9097424"><ele>745.0</ele><time>2026-05-03T08:17:23.957Z</time></trkpt><trkpt lat="44.1474192" lon="7.9097562"><ele>745.0</ele><time>2026-05-03T08:17:24.969Z</time></trkpt><trkpt lat="44.1472835" lon="7.9097742"><ele>745.0</ele><time>2026-05-03T08:17:25.957Z</time></trkpt><trkpt lat="44.1471452" lon="7.9097846"><ele>745.0</ele><time>2026-05-03T08:17:26.965Z</time></trkpt><trkpt lat="44.1469983" lon="7.9097615"><ele>743.0</ele><time>2026-05-03T08:17:27.963Z</time></trkpt><trkpt lat="44.146852" lon="7.9097273"><ele>741.0</ele><time>2026-05-03T08:17:28.957Z</time></trkpt><trkpt lat="44.1467123" lon="7.9096586"><ele>739.0</ele><time>2026-05-03T08:17:29.966Z</time></trkpt><trkpt lat="44.1465867" lon="7.9095891"><ele>737.0</ele><time>2026-05-03T08:17:30.961Z</time></trkpt><trkpt lat="44.1464736" lon="7.9094994"><ele>736.0</ele><time>2026-05-03T08:17:31.968Z</time></trkpt><trkpt lat="44.1463666" lon="7.9093993"><ele>735.0</ele><time>2026-05-03T08:17:32.962Z</time></trkpt><trkpt lat="44.1462543" lon="7.9092621"><ele>734.0</ele><time>2026-05-03T08:17:33.956Z</time></trkpt><trkpt lat="44.1461399" lon="7.9091075"><ele>733.0</ele><time>2026-05-03T08:17:34.961Z</time></trkpt><trkpt lat="44.1460297" lon="7.9089513"><ele>733.0</ele><time>2026-05-03T08:17:35.969Z</time></trkpt><trkpt lat="44.1459308" lon="7.9087759"><ele>733.0</ele><time>2026-05-03T08:17:36.961Z</time></trkpt><trkpt lat="44.145833" lon="7.9085696"><ele>733.0</ele><time>2026-05-03T08:17:37.954Z</time></trkpt><trkpt lat="44.1457344" lon="7.9083536"><ele>732.0</ele><time>2026-05-03T08:17:38.965Z</time></trkpt><trkpt lat="44.1456339" lon="7.9081301"><ele>731.0</ele><time>2026-05-03T08:17:39.961Z</time></trkpt><trkpt lat="44.145531" lon="7.9078989"><ele>730.0</ele><time>2026-05-03T08:17:40.964Z</time></trkpt><trkpt lat="44.1454291" lon="7.9076649"><ele>731.6666666666667</ele><time>2026-05-03T08:17:41.959Z</time></trkpt><trkpt lat="44.1453274" lon="7.9074346"><ele>733.3333333333334</ele><time>2026-05-03T08:17:42.97Z</time></trkpt><trkpt lat="44.1452296" lon="7.9072093"><ele>735.0</ele><time>2026-05-03T08:17:43.964Z</time></trkpt><trkpt lat="44.1451412" lon="7.9069973"><ele>735.0</ele><time>2026-05-03T08:17:44.968Z</time></trkpt><trkpt lat="44.1450488" lon="7.9068037"><ele>735.0</ele><time>2026-05-03T08:17:45.964Z</time></trkpt><trkpt lat="44.1449683" lon="7.9066188"><ele>735.0</ele><time>2026-05-03T08:17:46.959Z</time></trkpt><trkpt lat="44.1448835" lon="7.9064395"><ele>734.5</ele><time>2026-05-03T08:17:47.961Z</time></trkpt><trkpt lat="44.1447966" lon="7.9062633"><ele>734.0</ele><time>2026-05-03T08:17:48.956Z</time></trkpt><trkpt lat="44.1447108" lon="7.9060934"><ele>733.5</ele><time>2026-05-03T08:17:49.959Z</time></trkpt><trkpt lat="44.1446191" lon="7.9059469"><ele>733.0</ele><time>2026-05-03T08:17:50.968Z</time></trkpt><trkpt lat="44.1445139" lon="7.9058029"><ele>735.25</ele><time>2026-05-03T08:17:51.96Z</time></trkpt><trkpt lat="44.1444091" lon="7.9056765"><ele>737.5</ele><time>2026-05-03T08:17:52.969Z</time></trkpt><trkpt lat="44.1443066" lon="7.9055668"><ele>739.75</ele><time>2026-05-03T08:17:53.958Z</time></trkpt><trkpt lat="44.1442058" lon="7.9054567"><ele>742.0</ele><time>2026-05-03T08:17:54.964Z</time></trkpt><trkpt lat="44.1441042" lon="7.9053491"><ele>741.75</ele><time>2026-05-03T08:17:55.959Z</time></trkpt><trkpt lat="44.1439926" lon="7.9052279"><ele>741.5</ele><time>2026-05-03T08:17:56.968Z</time></trkpt><trkpt lat="44.143885" lon="7.9051064"><ele>741.25</ele><time>2026-05-03T08:17:57.959Z</time></trkpt><trkpt lat="44.1437705" lon="7.9049789"><ele>741.0</ele><time>2026-05-03T08:17:58.963Z</time></trkpt><trkpt lat="44.1436529" lon="7.904846"><ele>741.0</ele><time>2026-05-03T08:17:59.969Z</time></trkpt><trkpt lat="44.1435305" lon="7.9047134"><ele>741.0</ele><time>2026-05-03T08:18:00.962Z</time></trkpt><trkpt lat="44.1434023" lon="7.9045788"><ele>741.0</ele><time>2026-05-03T08:18:01.955Z</time></trkpt><trkpt lat="44.1432726" lon="7.9044343"><ele>741.6666666666666</ele><time>2026-05-03T08:18:02.962Z</time></trkpt><trkpt lat="44.1431473" lon="7.9042937"><ele>742.3333333333333</ele><time>2026-05-03T08:18:03.967Z</time></trkpt><trkpt lat="44.1430177" lon="7.9041504"><ele>743.0</ele><time>2026-05-03T08:18:04.964Z</time></trkpt><trkpt lat="44.1428903" lon="7.9040071"><ele>743.0</ele><time>2026-05-03T08:18:05.97Z</time></trkpt><trkpt lat="44.1427644" lon="7.9038686"><ele>743.0</ele><time>2026-05-03T08:18:06.961Z</time></trkpt><trkpt lat="44.1426388" lon="7.9037275"><ele>743.0</ele><time>2026-05-03T08:18:07.967Z</time></trkpt><trkpt lat="44.1425111" lon="7.9035956"><ele>743.0</ele><time>2026-05-03T08:18:08.962Z</time></trkpt><trkpt lat="44.1423881" lon="7.9034699"><ele>743.0</ele><time>2026-05-03T08:18:09.965Z</time></trkpt><trkpt lat="44.1422705" lon="7.9033459"><ele>743.0</ele><time>2026-05-03T08:18:10.968Z</time></trkpt><trkpt lat="44.1421576" lon="7.9032202"><ele>743.0</ele><time>2026-05-03T08:18:11.967Z</time></trkpt><trkpt lat="44.1420479" lon="7.9031028"><ele>743.25</ele><time>2026-05-03T08:18:12.97Z</time></trkpt><trkpt lat="44.141934" lon="7.902987"><ele>743.5</ele><time>2026-05-03T08:18:13.967Z</time></trkpt><trkpt lat="44.1418185" lon="7.9028678"><ele>743.75</ele><time>2026-05-03T08:18:14.959Z</time></trkpt><trkpt lat="44.1417036" lon="7.9027402"><ele>744.0</ele><time>2026-05-03T08:18:15.965Z</time></trkpt><trkpt lat="44.1415861" lon="7.9026034"><ele>743.6666666666666</ele><time>2026-05-03T08:18:16.961Z</time></trkpt><trkpt lat="44.1414683" lon="7.902466"><ele>743.3333333333333</ele><time>2026-05-03T08:18:17.965Z</time></trkpt><trkpt lat="44.1413536" lon="7.9023184"><ele>743.0</ele><time>2026-05-03T08:18:18.967Z</time></trkpt><trkpt lat="44.1412311" lon="7.9021795"><ele>743.0</ele><time>2026-05-03T08:18:19.961Z</time></trkpt><trkpt lat="44.1411151" lon="7.9020427"><ele>743.0</ele><time>2026-05-03T08:18:20.963Z</time></trkpt><trkpt lat="44.1410126" lon="7.9019247"><ele>743.0</ele><time>2026-05-03T08:18:21.966Z</time></trkpt><trkpt lat="44.1409087" lon="7.901808"><ele>743.0</ele><time>2026-05-03T08:18:22.961Z</time></trkpt><trkpt lat="44.1407992" lon="7.9016908"><ele>744.5</ele><time>2026-05-03T08:18:23.961Z</time></trkpt><trkpt lat="44.1406884" lon="7.9015721"><ele>746.0</ele><time>2026-05-03T08:18:24.956Z</time></trkpt><trkpt lat="44.1405718" lon="7.9014516"><ele>747.5</ele><time>2026-05-03T08:18:25.961Z</time></trkpt><trkpt lat="44.140444" lon="7.9013433"><ele>749.0</ele><time>2026-05-03T08:18:26.961Z</time></trkpt><trkpt lat="44.1402953" lon="7.9012519"><ele>749.0</ele><time>2026-05-03T08:18:27.969Z</time></trkpt><trkpt lat="44.1401298" lon="7.9011814"><ele>749.0</ele><time>2026-05-03T08:18:28.963Z</time></trkpt><trkpt lat="44.1399488" lon="7.901134"><ele>749.0</ele><time>2026-05-03T08:18:29.964Z</time></trkpt><trkpt lat="44.139759" lon="7.9010982"><ele>747.0</ele><time>2026-05-03T08:18:30.969Z</time></trkpt><trkpt lat="44.1395683" lon="7.9010556"><ele>745.0</ele><time>2026-05-03T08:18:31.954Z</time></trkpt><trkpt lat="44.1393878" lon="7.9009886"><ele>743.0</ele><time>2026-05-03T08:18:32.961Z</time></trkpt><trkpt lat="44.1392277" lon="7.9008956"><ele>748.3333333333333</ele><time>2026-05-03T08:18:33.964Z</time></trkpt><trkpt lat="44.1390732" lon="7.9008065"><ele>753.6666666666666</ele><time>2026-05-03T08:18:34.963Z</time></trkpt><trkpt lat="44.1389081" lon="7.9007897"><ele>759.0</ele><time>2026-05-03T08:18:35.96Z</time></trkpt><trkpt lat="44.1387587" lon="7.9008578"><ele>754.6666666666666</ele><time>2026-05-03T08:18:36.965Z</time></trkpt><trkpt lat="44.1386138" lon="7.9009485"><ele>750.3333333333333</ele><time>2026-05-03T08:18:37.958Z</time></trkpt><trkpt lat="44.1384673" lon="7.901016"><ele>746.0</ele><time>2026-05-03T08:18:38.954Z</time></trkpt><trkpt lat="44.1383153" lon="7.9010411"><ele>747.0</ele><time>2026-05-03T08:18:39.971Z</time></trkpt><trkpt lat="44.1381432" lon="7.9010304"><ele>748.0</ele><time>2026-05-03T08:18:40.964Z</time></trkpt><trkpt lat="44.1379554" lon="7.9010394"><ele>749.0</ele><time>2026-05-03T08:18:41.962Z</time></trkpt><trkpt lat="44.1377613" lon="7.9010604"><ele>749.0</ele><time>2026-05-03T08:18:42.969Z</time></trkpt><trkpt lat="44.1375693" lon="7.9010781"><ele>749.0</ele><time>2026-05-03T08:18:43.957Z</time></trkpt><trkpt lat="44.1373602" lon="7.9010759"><ele>749.0</ele><time>2026-05-03T08:18:44.962Z</time></trkpt><trkpt lat="44.1371439" lon="7.9010489"><ele>748.3333333333333</ele><time>2026-05-03T08:18:45.962Z</time></trkpt><trkpt lat="44.1369423" lon="7.9010227"><ele>747.6666666666666</ele><time>2026-05-03T08:18:46.961Z</time></trkpt><trkpt lat="44.1367484" lon="7.9010332"><ele>747.0</ele><time>2026-05-03T08:18:47.967Z</time></trkpt><trkpt lat="44.1365811" lon="7.9010308"><ele>747.0</ele><time>2026-05-03T08:18:48.967Z</time></trkpt><trkpt lat="44.1364131" lon="7.9009542"><ele>747.0</ele><time>2026-05-03T08:18:49.959Z</time></trkpt><trkpt lat="44.1362661" lon="7.9008359"><ele>747.0</ele><time>2026-05-03T08:18:50.957Z</time></trkpt><trkpt lat="44.1361007" lon="7.9007126"><ele>749.3333333333334</ele><time>2026-05-03T08:18:51.956Z</time></trkpt><trkpt lat="44.135913" lon="7.9005945"><ele>751.6666666666667</ele><time>2026-05-03T08:18:52.961Z</time></trkpt><trkpt lat="44.13572" lon="7.9004899"><ele>754.0</ele><time>2026-05-03T08:18:53.961Z</time></trkpt><trkpt lat="44.135523" lon="7.9003914"><ele>754.0</ele><time>2026-05-03T08:18:54.958Z</time></trkpt><trkpt lat="44.1353115" lon="7.900311"><ele>754.0</ele><time>2026-05-03T08:18:55.962Z</time></trkpt><trkpt lat="44.1350991" lon="7.9002843"><ele>754.0</ele><time>2026-05-03T08:18:56.972Z</time></trkpt><trkpt lat="44.1348946" lon="7.900292"><ele>753.0</ele><time>2026-05-03T08:18:57.952Z</time></trkpt><trkpt lat="44.1346932" lon="7.9002825"><ele>752.0</ele><time>2026-05-03T08:18:58.953Z</time></trkpt><trkpt lat="44.1345" lon="7.9002313"><ele>751.0</ele><time>2026-05-03T08:18:59.961Z</time></trkpt><trkpt lat="44.1343051" lon="7.9001029"><ele>754.3333333333334</ele><time>2026-05-03T08:19:00.968Z</time></trkpt><trkpt lat="44.1341102" lon="7.8999501"><ele>757.6666666666666</ele><time>2026-05-03T08:19:01.952Z</time></trkpt><trkpt lat="44.1339072" lon="7.899825"><ele>761.0</ele><time>2026-05-03T08:19:02.951Z</time></trkpt><trkpt lat="44.1336937" lon="7.8997237"><ele>761.0</ele><time>2026-05-03T08:19:03.961Z</time></trkpt><trkpt lat="44.1334736" lon="7.899636"><ele>761.0</ele><time>2026-05-03T08:19:04.967Z</time></trkpt><trkpt lat="44.1332397" lon="7.8995624"><ele>758.5</ele><time>2026-05-03T08:19:05.964Z</time></trkpt><trkpt lat="44.1330022" lon="7.8994785"><ele>756.0</ele><time>2026-05-03T08:19:06.958Z</time></trkpt><trkpt lat="44.1327593" lon="7.8993849"><ele>756.0</ele><time>2026-05-03T08:19:07.955Z</time></trkpt><trkpt lat="44.1325209" lon="7.8992798"><ele>756.0</ele><time>2026-05-03T08:19:08.954Z</time></trkpt><trkpt lat="44.1322813" lon="7.8991606"><ele>760.5</ele><time>2026-05-03T08:19:09.959Z</time></trkpt><trkpt lat="44.1320434" lon="7.8990346"><ele>765.0</ele><time>2026-05-03T08:19:10.955Z</time></trkpt><trkpt lat="44.1318043" lon="7.8988973"><ele>765.0</ele><time>2026-05-03T08:19:11.953Z</time></trkpt><trkpt lat="44.1315626" lon="7.898754"><ele>765.0</ele><time>2026-05-03T08:19:12.956Z</time></trkpt><trkpt lat="44.1313227" lon="7.8986163"><ele>765.0</ele><time>2026-05-03T08:19:13.956Z</time></trkpt><trkpt lat="44.1311012" lon="7.8984793"><ele>765.0</ele><time>2026-05-03T08:19:14.952Z</time></trkpt><trkpt lat="44.1308868" lon="7.8983305"><ele>770.5</ele><time>2026-05-03T08:19:15.957Z</time></trkpt><trkpt lat="44.1306869" lon="7.8981525"><ele>776.0</ele><time>2026-05-03T08:19:16.952Z</time></trkpt><trkpt lat="44.1305231" lon="7.8979391"><ele>776.0</ele><time>2026-05-03T08:19:17.952Z</time></trkpt><trkpt lat="44.1303894" lon="7.8977111"><ele>776.0</ele><time>2026-05-03T08:19:18.958Z</time></trkpt><trkpt lat="44.1365811" lon="7.9010308"><ele>770.0</ele><time>2026-05-03T08:18:48.967Z</time></trkpt><trkpt lat="44.1364131" lon="7.9009542"><ele>764.0</ele><time>2026-05-03T08:18:49.959Z</time></trkpt><trkpt lat="44.1362661" lon="7.9008359"><ele>758.0</ele><time>2026-05-03T08:18:50.957Z</time></trkpt><trkpt lat="44.1361007" lon="7.9007126"><ele>758.0</ele><time>2026-05-03T08:18:51.956Z</time></trkpt><trkpt lat="44.135913" lon="7.9005945"><ele>758.0</ele><time>2026-05-03T08:18:52.961Z</time></trkpt><trkpt lat="44.13572" lon="7.9004899"><ele>758.0</ele><time>2026-05-03T08:18:53.961Z</time></trkpt><trkpt lat="44.135523" lon="7.9003914"><ele>756.6666666666666</ele><time>2026-05-03T08:18:54.958Z</time></trkpt><trkpt lat="44.1353115" lon="7.900311"><ele>755.3333333333334</ele><time>2026-05-03T08:18:55.962Z</time></trkpt><trkpt lat="44.1350991" lon="7.9002843"><ele>754.0</ele><time>2026-05-03T08:18:56.972Z</time></trkpt><trkpt lat="44.1348946" lon="7.900292"><ele>753.0</ele><time>2026-05-03T08:18:57.952Z</time></trkpt><trkpt lat="44.1346932" lon="7.9002825"><ele>752.0</ele><time>2026-05-03T08:18:58.953Z</time></trkpt><trkpt lat="44.1345" lon="7.9002313"><ele>751.0</ele><time>2026-05-03T08:18:59.961Z</time></trkpt><trkpt lat="44.1343051" lon="7.9001029"><ele>754.3333333333334</ele><time>2026-05-03T08:19:00.968Z</time></trkpt><trkpt lat="44.1341102" lon="7.8999501"><ele>757.6666666666666</ele><time>2026-05-03T08:19:01.952Z</time></trkpt><trkpt lat="44.1339072" lon="7.899825"><ele>761.0</ele><time>2026-05-03T08:19:02.951Z</time></trkpt><trkpt lat="44.1336937" lon="7.8997237"><ele>761.0</ele><time>2026-05-03T08:19:03.961Z</time></trkpt><trkpt lat="44.1334736" lon="7.899636"><ele>761.0</ele><time>2026-05-03T08:19:04.967Z</time></trkpt><trkpt lat="44.1332397" lon="7.8995624"><ele>758.5</ele><time>2026-05-03T08:19:05.964Z</time></trkpt><trkpt lat="44.1330022" lon="7.8994785"><ele>756.0</ele><time>2026-05-03T08:19:06.958Z</time></trkpt><trkpt lat="44.1327593" lon="7.8993849"><ele>756.0</ele><time>2026-05-03T08:19:07.955Z</time></trkpt><trkpt lat="44.1325209" lon="7.8992798"><ele>756.0</ele><time>2026-05-03T08:19:08.954Z</time></trkpt><trkpt lat="44.1322813" lon="7.8991606"><ele>760.5</ele><time>2026-05-03T08:19:09.959Z</time></trkpt><trkpt lat="44.1320434" lon="7.8990346"><ele>765.0</ele><time>2026-05-03T08:19:10.955Z</time></trkpt><trkpt lat="44.1318043" lon="7.8988973"><ele>765.0</ele><time>2026-05-03T08:19:11.953Z</time></trkpt><trkpt lat="44.1315626" lon="7.898754"><ele>765.0</ele><time>2026-05-03T08:19:12.956Z</time></trkpt><trkpt lat="44.1313227" lon="7.8986163"><ele>765.0</ele><time>2026-05-03T08:19:13.956Z</time></trkpt><trkpt lat="44.1311012" lon="7.8984793"><ele>765.0</ele><time>2026-05-03T08:19:14.952Z</time></trkpt><trkpt lat="44.1308868" lon="7.8983305"><ele>770.5</ele><time>2026-05-03T08:19:15.957Z</time></trkpt><trkpt lat="44.1306869" lon="7.8981525"><ele>776.0</ele><time>2026-05-03T08:19:16.952Z</time></trkpt><trkpt lat="44.1305231" lon="7.8979391"><ele>776.0</ele><time>2026-05-03T08:19:17.952Z</time></trkpt><trkpt lat="44.1303894" lon="7.8977111"><ele>776.0</ele><time>2026-05-03T08:19:18.958Z</time></trkpt><trkpt lat="44.1302664" lon="7.8974791"><ele>776.0</ele><time>2026-05-03T08:19:19.96Z</time></trkpt><trkpt lat="44.1301396" lon="7.8972567"><ele>776.0</ele><time>2026-05-03T08:19:20.963Z</time></trkpt><trkpt lat="44.1299839" lon="7.8970701"><ele>776.0</ele><time>2026-05-03T08:19:21.951Z</time></trkpt><trkpt lat="44.1297976" lon="7.8969312"><ele>776.0</ele><time>2026-05-03T08:19:22.956Z</time></trkpt><trkpt lat="44.1295918" lon="7.8968328"><ele>776.0</ele><time>2026-05-03T08:19:23.955Z</time></trkpt><trkpt lat="44.1293818" lon="7.8967818"><ele>776.0</ele><time>2026-05-03T08:19:24.965Z</time></trkpt><trkpt lat="44.1291492" lon="7.8967836"><ele>776.0</ele><time>2026-05-03T08:19:25.961Z</time></trkpt><trkpt lat="44.1289125" lon="7.896804"><ele>779.0</ele><time>2026-05-03T08:19:26.963Z</time></trkpt><trkpt lat="44.128676" lon="7.8968198"><ele>782.0</ele><time>2026-05-03T08:19:27.961Z</time></trkpt><trkpt lat="44.1284404" lon="7.8968263"><ele>782.0</ele><time>2026-05-03T08:19:28.957Z</time></trkpt><trkpt lat="44.1282026" lon="7.8968325"><ele>782.0</ele><time>2026-05-03T08:19:29.962Z</time></trkpt><trkpt lat="44.1279714" lon="7.8968322"><ele>782.0</ele><time>2026-05-03T08:19:30.954Z</time></trkpt><trkpt lat="44.1277495" lon="7.8967963"><ele>782.0</ele><time>2026-05-03T08:19:31.967Z</time></trkpt><trkpt lat="44.1275286" lon="7.8967482"><ele>782.0</ele><time>2026-05-03T08:19:32.959Z</time></trkpt><trkpt lat="44.1273068" lon="7.896663"><ele>779.5</ele><time>2026-05-03T08:19:33.953Z</time></trkpt><trkpt lat="44.1270903" lon="7.8965674"><ele>777.0</ele><time>2026-05-03T08:19:34.958Z</time></trkpt><trkpt lat="44.1268733" lon="7.8964547"><ele>777.0</ele><time>2026-05-03T08:19:35.959Z</time></trkpt><trkpt lat="44.126655" lon="7.8963321"><ele>777.0</ele><time>2026-05-03T08:19:36.955Z</time></trkpt><trkpt lat="44.1264409" lon="7.8962026"><ele>776.5</ele><time>2026-05-03T08:19:37.954Z</time></trkpt><trkpt lat="44.1262339" lon="7.8960365"><ele>776.0</ele><time>2026-05-03T08:19:38.954Z</time></trkpt><trkpt lat="44.1260356" lon="7.8958442"><ele>775.0</ele><time>2026-05-03T08:19:39.959Z</time></trkpt><trkpt lat="44.1258245" lon="7.8956514"><ele>774.0</ele><time>2026-05-03T08:19:40.953Z</time></trkpt><trkpt lat="44.1256149" lon="7.8954588"><ele>774.0</ele><time>2026-05-03T08:19:41.952Z</time></trkpt><trkpt lat="44.1254077" lon="7.8952578"><ele>774.0</ele><time>2026-05-03T08:19:42.959Z</time></trkpt><trkpt lat="44.1252089" lon="7.8950648"><ele>775.0</ele><time>2026-05-03T08:19:43.966Z</time></trkpt><trkpt lat="44.1250117" lon="7.8948843"><ele>776.0</ele><time>2026-05-03T08:19:44.962Z</time></trkpt><trkpt lat="44.1248058" lon="7.8947197"><ele>776.0</ele><time>2026-05-03T08:19:45.959Z</time></trkpt><trkpt lat="44.124596" lon="7.8945738"><ele>776.0</ele><time>2026-05-03T08:19:46.964Z</time></trkpt><trkpt lat="44.1243934" lon="7.8944508"><ele>776.0</ele><time>2026-05-03T08:19:47.957Z</time></trkpt><trkpt lat="44.1241832" lon="7.894349"><ele>776.0</ele><time>2026-05-03T08:19:48.961Z</time></trkpt><trkpt lat="44.1239738" lon="7.8942622"><ele>776.0</ele><time>2026-05-03T08:19:49.958Z</time></trkpt><trkpt lat="44.1237605" lon="7.8941647"><ele>776.0</ele><time>2026-05-03T08:19:50.965Z</time></trkpt><trkpt lat="44.1235533" lon="7.8940428"><ele>776.0</ele><time>2026-05-03T08:19:51.964Z</time></trkpt><trkpt lat="44.1233572" lon="7.8939164"><ele>776.0</ele><time>2026-05-03T08:19:52.967Z</time></trkpt><trkpt lat="44.1231666" lon="7.8938141"><ele>776.0</ele><time>2026-05-03T08:19:53.961Z</time></trkpt><trkpt lat="44.1229797" lon="7.8937332"><ele>776.0</ele><time>2026-05-03T08:19:54.966Z</time></trkpt><trkpt lat="44.1228032" lon="7.893658"><ele>776.0</ele><time>2026-05-03T08:19:55.956Z</time></trkpt><trkpt lat="44.12263" lon="7.8935825"><ele>776.0</ele><time>2026-05-03T08:19:56.958Z</time></trkpt><trkpt lat="44.1224744" lon="7.8934931"><ele>776.0</ele><time>2026-05-03T08:19:57.954Z</time></trkpt><trkpt lat="44.122333" lon="7.8934092"><ele>776.0</ele><time>2026-05-03T08:19:58.961Z</time></trkpt><trkpt lat="44.1222224" lon="7.8933137"><ele>775.8</ele><time>2026-05-03T08:19:59.957Z</time></trkpt><trkpt lat="44.1221538" lon="7.8931966"><ele>775.5999999999999</ele><time>2026-05-03T08:20:00.963Z</time></trkpt><trkpt lat="44.1221176" lon="7.8930782"><ele>775.4</ele><time>2026-05-03T08:20:01.957Z</time></trkpt><trkpt lat="44.1220972" lon="7.8929509"><ele>775.2</ele><time>2026-05-03T08:20:02.976Z</time></trkpt><trkpt lat="44.1220676" lon="7.8928296"><ele>775.0</ele><time>2026-05-03T08:20:03.954Z</time></trkpt><trkpt lat="44.1220378" lon="7.892701"><ele>776.6</ele><time>2026-05-03T08:20:04.958Z</time></trkpt><trkpt lat="44.1220081" lon="7.8925851"><ele>778.2</ele><time>2026-05-03T08:20:05.962Z</time></trkpt><trkpt lat="44.1219792" lon="7.8924838"><ele>779.8</ele><time>2026-05-03T08:20:06.96Z</time></trkpt><trkpt lat="44.1219465" lon="7.8923733"><ele>781.4</ele><time>2026-05-03T08:20:07.96Z</time></trkpt><trkpt lat="44.1219084" lon="7.8922461"><ele>783.0</ele><time>2026-05-03T08:20:08.958Z</time></trkpt><trkpt lat="44.1218613" lon="7.8920985"><ele>783.0</ele><time>2026-05-03T08:20:09.957Z</time></trkpt><trkpt lat="44.1218031" lon="7.8919487"><ele>783.0</ele><time>2026-05-03T08:20:10.96Z</time></trkpt><trkpt lat="44.1217281" lon="7.8918058"><ele>783.0</ele><time>2026-05-03T08:20:11.959Z</time></trkpt><trkpt lat="44.1216455" lon="7.8916768"><ele>783.0</ele><time>2026-05-03T08:20:12.961Z</time></trkpt><trkpt lat="44.1215589" lon="7.8915521"><ele>782.2</ele><time>2026-05-03T08:20:13.961Z</time></trkpt><trkpt lat="44.1214781" lon="7.8914351"><ele>781.4</ele><time>2026-05-03T08:20:14.962Z</time></trkpt><trkpt lat="44.1214116" lon="7.8913322"><ele>780.6</ele><time>2026-05-03T08:20:15.962Z</time></trkpt><trkpt lat="44.1213545" lon="7.8912155"><ele>779.8000000000001</ele><time>2026-05-03T08:20:16.964Z</time></trkpt><trkpt lat="44.1213178" lon="7.8910816"><ele>779.0</ele><time>2026-05-03T08:20:17.963Z</time></trkpt><trkpt lat="44.1213121" lon="7.8909425"><ele>779.0</ele><time>2026-05-03T08:20:18.958Z</time></trkpt><trkpt lat="44.1213351" lon="7.8907974"><ele>779.0</ele><time>2026-05-03T08:20:19.956Z</time></trkpt><trkpt lat="44.1213636" lon="7.8906331"><ele>779.0</ele><time>2026-05-03T08:20:20.96Z</time></trkpt><trkpt lat="44.1213891" lon="7.8904639"><ele>779.0</ele><time>2026-05-03T08:20:21.969Z</time></trkpt><trkpt lat="44.1213994" lon="7.8903052"><ele>779.0</ele><time>2026-05-03T08:20:22.963Z</time></trkpt><trkpt lat="44.1214028" lon="7.8901294"><ele>779.0</ele><time>2026-05-03T08:20:23.958Z</time></trkpt><trkpt lat="44.1213886" lon="7.8899676"><ele>779.0</ele><time>2026-05-03T08:20:24.959Z</time></trkpt><trkpt lat="44.1213651" lon="7.8898145"><ele>779.0</ele><time>2026-05-03T08:20:25.953Z</time></trkpt><trkpt lat="44.1213373" lon="7.88966"><ele>779.25</ele><time>2026-05-03T08:20:26.963Z</time></trkpt><trkpt lat="44.1213132" lon="7.8894945"><ele>779.5</ele><time>2026-05-03T08:20:27.968Z</time></trkpt><trkpt lat="44.1213124" lon="7.8893236"><ele>779.75</ele><time>2026-05-03T08:20:28.951Z</time></trkpt><trkpt lat="44.1213225" lon="7.8891315"><ele>780.0</ele><time>2026-05-03T08:20:29.957Z</time></trkpt><trkpt lat="44.1213414" lon="7.8889239"><ele>781.3333333333333</ele><time>2026-05-03T08:20:30.955Z</time></trkpt><trkpt lat="44.1213614" lon="7.8887112"><ele>782.6666666666666</ele><time>2026-05-03T08:20:31.96Z</time></trkpt><trkpt lat="44.1213807" lon="7.888496"><ele>784.0</ele><time>2026-05-03T08:20:32.964Z</time></trkpt><trkpt lat="44.1213934" lon="7.8882734"><ele>785.0</ele><time>2026-05-03T08:20:33.959Z</time></trkpt><trkpt lat="44.1214141" lon="7.8880528"><ele>786.0</ele><time>2026-05-03T08:20:34.957Z</time></trkpt><trkpt lat="44.1214312" lon="7.8878263"><ele>787.0</ele><time>2026-05-03T08:20:35.956Z</time></trkpt><trkpt lat="44.1214534" lon="7.8876125"><ele>787.0</ele><time>2026-05-03T08:20:36.963Z</time></trkpt><trkpt lat="44.1214782" lon="7.8873885"><ele>787.0</ele><time>2026-05-03T08:20:37.957Z</time></trkpt><trkpt lat="44.1214921" lon="7.8871684"><ele>787.0</ele><time>2026-05-03T08:20:38.965Z</time></trkpt><trkpt lat="44.1215022" lon="7.8869441"><ele>788.0</ele><time>2026-05-03T08:20:39.956Z</time></trkpt><trkpt lat="44.1215034" lon="7.8867072"><ele>789.0</ele><time>2026-05-03T08:20:40.949Z</time></trkpt><trkpt lat="44.1214872" lon="7.8864576"><ele>790.0</ele><time>2026-05-03T08:20:41.965Z</time></trkpt><trkpt lat="44.1214638" lon="7.8862253"><ele>790.0</ele><time>2026-05-03T08:20:42.966Z</time></trkpt><trkpt lat="44.1214264" lon="7.886003"><ele>790.0</ele><time>2026-05-03T08:20:43.948Z</time></trkpt><trkpt lat="44.1213775" lon="7.8858038"><ele>790.0</ele><time>2026-05-03T08:20:44.957Z</time></trkpt><trkpt lat="44.1213162" lon="7.8856135"><ele>789.6666666666666</ele><time>2026-05-03T08:20:45.959Z</time></trkpt><trkpt lat="44.1212475" lon="7.885422"><ele>789.3333333333333</ele><time>2026-05-03T08:20:46.958Z</time></trkpt><trkpt lat="44.1211826" lon="7.8852269"><ele>789.0</ele><time>2026-05-03T08:20:47.967Z</time></trkpt><trkpt lat="44.121127" lon="7.8850193"><ele>792.6666666666667</ele><time>2026-05-03T08:20:48.969Z</time></trkpt><trkpt lat="44.1210859" lon="7.8847976"><ele>796.3333333333334</ele><time>2026-05-03T08:20:49.959Z</time></trkpt><trkpt lat="44.1210561" lon="7.8845733"><ele>800.0</ele><time>2026-05-03T08:20:50.963Z</time></trkpt><trkpt lat="44.1210249" lon="7.8843539"><ele>802.0</ele><time>2026-05-03T08:20:51.959Z</time></trkpt><trkpt lat="44.1209969" lon="7.8841164"><ele>804.0</ele><time>2026-05-03T08:20:52.96Z</time></trkpt><trkpt lat="44.1209644" lon="7.8838773"><ele>806.0</ele><time>2026-05-03T08:20:53.964Z</time></trkpt><trkpt lat="44.1209228" lon="7.8836492"><ele>806.0</ele><time>2026-05-03T08:20:54.963Z</time></trkpt><trkpt lat="44.1208651" lon="7.8834385"><ele>806.0</ele><time>2026-05-03T08:20:55.96Z</time></trkpt><trkpt lat="44.120798" lon="7.8832337"><ele>806.0</ele><time>2026-05-03T08:20:56.953Z</time></trkpt><trkpt lat="44.1207187" lon="7.8830399"><ele>802.6666666666667</ele><time>2026-05-03T08:20:57.958Z</time></trkpt><trkpt lat="44.1206257" lon="7.8828706"><ele>799.3333333333333</ele><time>2026-05-03T08:20:58.96Z</time></trkpt><trkpt lat="44.120508" lon="7.8827139"><ele>796.0</ele><time>2026-05-03T08:20:59.953Z</time></trkpt><trkpt lat="44.1203821" lon="7.882571"><ele>796.0</ele><time>2026-05-03T08:21:00.959Z</time></trkpt><trkpt lat="44.1202558" lon="7.8824386"><ele>796.0</ele><time>2026-05-03T08:21:01.959Z</time></trkpt><trkpt lat="44.1201382" lon="7.8823024"><ele>796.0</ele><time>2026-05-03T08:21:02.953Z</time></trkpt><trkpt lat="44.1200306" lon="7.8821626"><ele>796.0</ele><time>2026-05-03T08:21:03.954Z</time></trkpt><trkpt lat="44.1199298" lon="7.8820061"><ele>796.0</ele><time>2026-05-03T08:21:04.944Z</time></trkpt><trkpt lat="44.1198405" lon="7.8818318"><ele>796.0</ele><time>2026-05-03T08:21:05.957Z</time></trkpt><trkpt lat="44.1197601" lon="7.8816378"><ele>795.0</ele><time>2026-05-03T08:21:06.959Z</time></trkpt><trkpt lat="44.1196829" lon="7.8814342"><ele>794.0</ele><time>2026-05-03T08:21:07.956Z</time></trkpt><trkpt lat="44.1196104" lon="7.8812306"><ele>793.0</ele><time>2026-05-03T08:21:08.946Z</time></trkpt><trkpt lat="44.1195307" lon="7.8810253"><ele>794.3333333333333</ele><time>2026-05-03T08:21:09.951Z</time></trkpt><trkpt lat="44.1194466" lon="7.8808136"><ele>795.6666666666667</ele><time>2026-05-03T08:21:10.958Z</time></trkpt><trkpt lat="44.1193824" lon="7.8805705"><ele>797.0</ele><time>2026-05-03T08:21:11.956Z</time></trkpt><trkpt lat="44.119333" lon="7.8802981"><ele>800.0</ele><time>2026-05-03T08:21:12.961Z</time></trkpt><trkpt lat="44.1192748" lon="7.8800197"><ele>803.0</ele><time>2026-05-03T08:21:13.956Z</time></trkpt><trkpt lat="44.1192174" lon="7.8797469"><ele>806.0</ele><time>2026-05-03T08:21:14.956Z</time></trkpt><trkpt lat="44.1191562" lon="7.8794713"><ele>807.3333333333334</ele><time>2026-05-03T08:21:15.962Z</time></trkpt><trkpt lat="44.1190945" lon="7.8791867"><ele>808.6666666666667</ele><time>2026-05-03T08:21:16.953Z</time></trkpt><trkpt lat="44.1190281" lon="7.878898"><ele>810.0</ele><time>2026-05-03T08:21:17.967Z</time></trkpt><trkpt lat="44.1189612" lon="7.8786293"><ele>805.6666666666667</ele><time>2026-05-03T08:21:18.966Z</time></trkpt><trkpt lat="44.1188888" lon="7.8783751"><ele>801.3333333333334</ele><time>2026-05-03T08:21:19.95Z</time></trkpt><trkpt lat="44.1188223" lon="7.8781371"><ele>797.0</ele><time>2026-05-03T08:21:20.962Z</time></trkpt><trkpt lat="44.1187583" lon="7.8779028"><ele>797.0</ele><time>2026-05-03T08:21:21.957Z</time></trkpt><trkpt lat="44.1187077" lon="7.8776791"><ele>797.0</ele><time>2026-05-03T08:21:22.957Z</time></trkpt><trkpt lat="44.1186773" lon="7.8774385"><ele>797.0</ele><time>2026-05-03T08:21:23.961Z</time></trkpt><trkpt lat="44.1186846" lon="7.8772077"><ele>797.6666666666667</ele><time>2026-05-03T08:21:24.956Z</time></trkpt><trkpt lat="44.1187391" lon="7.8770052"><ele>798.3333333333333</ele><time>2026-05-03T08:21:25.962Z</time></trkpt><trkpt lat="44.1188138" lon="7.8768212"><ele>799.0</ele><time>2026-05-03T08:21:26.961Z</time></trkpt><trkpt lat="44.1188876" lon="7.8766224"><ele>799.6666666666666</ele><time>2026-05-03T08:21:27.954Z</time></trkpt><trkpt lat="44.1189464" lon="7.8764045"><ele>800.3333333333333</ele><time>2026-05-03T08:21:28.953Z</time></trkpt><trkpt lat="44.1189618" lon="7.8761912"><ele>801.0</ele><time>2026-05-03T08:21:29.96Z</time></trkpt><trkpt lat="44.1189517" lon="7.8759893"><ele>801.0</ele><time>2026-05-03T08:21:30.959Z</time></trkpt><trkpt lat="44.1189268" lon="7.8757976"><ele>801.0</ele><time>2026-05-03T08:21:31.983Z</time></trkpt><trkpt lat="44.1188749" lon="7.8755971"><ele>801.0</ele><time>2026-05-03T08:21:32.958Z</time></trkpt><trkpt lat="44.1188026" lon="7.8753983"><ele>801.0</ele><time>2026-05-03T08:21:33.957Z</time></trkpt><trkpt lat="44.1187371" lon="7.8752024"><ele>801.0</ele><time>2026-05-03T08:21:34.955Z</time></trkpt><trkpt lat="44.1186687" lon="7.8750058"><ele>801.0</ele><time>2026-05-03T08:21:35.966Z</time></trkpt><trkpt lat="44.1186021" lon="7.8748143"><ele>802.0</ele><time>2026-05-03T08:21:36.961Z</time></trkpt><trkpt lat="44.1185382" lon="7.8746296"><ele>803.0</ele><time>2026-05-03T08:21:37.955Z</time></trkpt><trkpt lat="44.1184765" lon="7.8744358"><ele>804.0</ele><time>2026-05-03T08:21:38.962Z</time></trkpt><trkpt lat="44.118417" lon="7.8742446"><ele>805.0</ele><time>2026-05-03T08:21:39.961Z</time></trkpt><trkpt lat="44.1183624" lon="7.8740501"><ele>807.0</ele><time>2026-05-03T08:21:40.954Z</time></trkpt><trkpt lat="44.1183094" lon="7.8738494"><ele>809.0</ele><time>2026-05-03T08:21:41.964Z</time></trkpt><trkpt lat="44.1182703" lon="7.8736336"><ele>811.0</ele><time>2026-05-03T08:21:42.959Z</time></trkpt><trkpt lat="44.1182435" lon="7.8734134"><ele>811.3333333333333</ele><time>2026-05-03T08:21:43.957Z</time></trkpt><trkpt lat="44.1182243" lon="7.8731856"><ele>811.6666666666667</ele><time>2026-05-03T08:21:44.953Z</time></trkpt><trkpt lat="44.1182072" lon="7.8729606"><ele>812.0</ele><time>2026-05-03T08:21:45.957Z</time></trkpt><trkpt lat="44.1182022" lon="7.8727335"><ele>812.3333333333334</ele><time>2026-05-03T08:21:46.96Z</time></trkpt><trkpt lat="44.1182111" lon="7.8725228"><ele>812.6666666666667</ele><time>2026-05-03T08:21:47.971Z</time></trkpt><trkpt lat="44.1182391" lon="7.8723075"><ele>813.0</ele><time>2026-05-03T08:21:48.971Z</time></trkpt><trkpt lat="44.1182785" lon="7.8720975"><ele>814.3333333333333</ele><time>2026-05-03T08:21:49.956Z</time></trkpt><trkpt lat="44.1183046" lon="7.8719071"><ele>815.6666666666666</ele><time>2026-05-03T08:21:50.96Z</time></trkpt><trkpt lat="44.1183211" lon="7.8717105"><ele>817.0</ele><time>2026-05-03T08:21:51.96Z</time></trkpt><trkpt lat="44.1182973" lon="7.8714741"><ele>817.0</ele><time>2026-05-03T08:21:52.955Z</time></trkpt><trkpt lat="44.1182373" lon="7.8711352"><ele>817.0</ele><time>2026-05-03T08:21:53.957Z</time></trkpt><trkpt lat="44.1181349" lon="7.8708019"><ele>814.6666666666666</ele><time>2026-05-03T08:21:54.958Z</time></trkpt><trkpt lat="44.1180369" lon="7.8705052"><ele>812.3333333333333</ele><time>2026-05-03T08:21:55.95Z</time></trkpt><trkpt lat="44.1179548" lon="7.870263"><ele>810.0</ele><time>2026-05-03T08:21:56.955Z</time></trkpt><trkpt lat="44.1179054" lon="7.8700737"><ele>810.0</ele><time>2026-05-03T08:21:57.957Z</time></trkpt><trkpt lat="44.1178755" lon="7.8698961"><ele>810.0</ele><time>2026-05-03T08:21:58.955Z</time></trkpt><trkpt lat="44.1178823" lon="7.869693"><ele>810.0</ele><time>2026-05-03T08:21:59.958Z</time></trkpt><trkpt lat="44.117909" lon="7.869504"><ele>810.0</ele><time>2026-05-03T08:22:00.953Z</time></trkpt><trkpt lat="44.117941" lon="7.8693306"><ele>810.8</ele><time>2026-05-03T08:22:01.958Z</time></trkpt><trkpt lat="44.1179685" lon="7.8691825"><ele>811.6</ele><time>2026-05-03T08:22:02.947Z</time></trkpt><trkpt lat="44.1179943" lon="7.8690407"><ele>812.4000000000001</ele><time>2026-05-03T08:22:03.96Z</time></trkpt><trkpt lat="44.1180256" lon="7.8688903"><ele>813.2</ele><time>2026-05-03T08:22:04.952Z</time></trkpt><trkpt lat="44.118063" lon="7.8687391"><ele>814.0</ele><time>2026-05-03T08:22:05.971Z</time></trkpt><trkpt lat="44.1180984" lon="7.8685839"><ele>814.0</ele><time>2026-05-03T08:22:06.959Z</time></trkpt><trkpt lat="44.1181332" lon="7.8684409"><ele>814.0</ele><time>2026-05-03T08:22:07.951Z</time></trkpt><trkpt lat="44.1181517" lon="7.8683084"><ele>814.0</ele><time>2026-05-03T08:22:08.953Z</time></trkpt><trkpt lat="44.1181683" lon="7.8681954"><ele>814.0</ele><time>2026-05-03T08:22:09.952Z</time></trkpt><trkpt lat="44.1181773" lon="7.8680938"><ele>814.0</ele><time>2026-05-03T08:22:10.954Z</time></trkpt><trkpt lat="44.1181459" lon="7.8679495"><ele>813.9999999999999</ele><time>2026-05-03T08:22:12.958Z</time></trkpt><trkpt lat="44.1181405" lon="7.8678344"><ele>814.0</ele><time>2026-05-03T08:22:14.95Z</time></trkpt><trkpt lat="44.1181473" lon="7.8677359"><ele>814.0</ele><time>2026-05-03T08:22:16.954Z</time></trkpt><trkpt lat="44.1181728" lon="7.8676266"><ele>814.0</ele><time>2026-05-03T08:22:18.954Z</time></trkpt><trkpt lat="44.1182084" lon="7.8675492"><ele>813.9999999999999</ele><time>2026-05-03T08:22:20.961Z</time></trkpt><trkpt lat="44.1182299" lon="7.8674588"><ele>814.0</ele><time>2026-05-03T08:23:01.958Z</time></trkpt><trkpt lat="44.1182741" lon="7.8672589"><ele>814.75</ele><time>2026-05-03T08:23:03.95Z</time></trkpt><trkpt lat="44.1183094" lon="7.867118"><ele>815.5</ele><time>2026-05-03T08:23:04.957Z</time></trkpt><trkpt lat="44.1183561" lon="7.8669882"><ele>816.25</ele><time>2026-05-03T08:23:05.959Z</time></trkpt><trkpt lat="44.1184155" lon="7.8668596"><ele>817.0</ele><time>2026-05-03T08:23:06.958Z</time></trkpt><trkpt lat="44.118497" lon="7.8667016"><ele>817.0</ele><time>2026-05-03T08:23:07.952Z</time></trkpt><trkpt lat="44.1185716" lon="7.866539"><ele>817.0</ele><time>2026-05-03T08:23:08.957Z</time></trkpt><trkpt lat="44.1186234" lon="7.8663589"><ele>817.0</ele><time>2026-05-03T08:23:09.953Z</time></trkpt><trkpt lat="44.1186702" lon="7.866171"><ele>817.0</ele><time>2026-05-03T08:23:10.954Z</time></trkpt><trkpt lat="44.1187005" lon="7.8659679"><ele>819.6666666666666</ele><time>2026-05-03T08:23:11.949Z</time></trkpt><trkpt lat="44.1187224" lon="7.8657544"><ele>822.3333333333333</ele><time>2026-05-03T08:23:12.959Z</time></trkpt><trkpt lat="44.11874" lon="7.8655371"><ele>825.0</ele><time>2026-05-03T08:23:13.953Z</time></trkpt><trkpt lat="44.118747" lon="7.8653307"><ele>825.0</ele><time>2026-05-03T08:23:14.967Z</time></trkpt><trkpt lat="44.1187641" lon="7.865135"><ele>825.0</ele><time>2026-05-03T08:23:15.961Z</time></trkpt><trkpt lat="44.1187837" lon="7.864935"><ele>825.0</ele><time>2026-05-03T08:23:16.957Z</time></trkpt><trkpt lat="44.1188018" lon="7.86472"><ele>825.0</ele><time>2026-05-03T08:23:17.962Z</time></trkpt><trkpt lat="44.1188233" lon="7.8645089"><ele>828.3333333333333</ele><time>2026-05-03T08:23:18.956Z</time></trkpt><trkpt lat="44.1188429" lon="7.8642837"><ele>831.6666666666666</ele><time>2026-05-03T08:23:19.961Z</time></trkpt><trkpt lat="44.1188624" lon="7.8640539"><ele>835.0</ele><time>2026-05-03T08:23:20.962Z</time></trkpt><trkpt lat="44.1188787" lon="7.8638192"><ele>838.0</ele><time>2026-05-03T08:23:21.967Z</time></trkpt><trkpt lat="44.1188863" lon="7.8635728"><ele>841.0</ele><time>2026-05-03T08:23:22.955Z</time></trkpt><trkpt lat="44.1188823" lon="7.8633272"><ele>844.0</ele><time>2026-05-03T08:23:23.956Z</time></trkpt><trkpt lat="44.1188805" lon="7.863096"><ele>848.0</ele><time>2026-05-03T08:23:24.956Z</time></trkpt><trkpt lat="44.1188861" lon="7.8628928"><ele>852.0</ele><time>2026-05-03T08:23:25.953Z</time></trkpt><trkpt lat="44.1189082" lon="7.8627237"><ele>856.0</ele><time>2026-05-03T08:23:26.946Z</time></trkpt><trkpt lat="44.1189603" lon="7.8625608"><ele>860.0</ele><time>2026-05-03T08:23:27.954Z</time></trkpt><trkpt lat="44.1190337" lon="7.8624084"><ele>851.6666666666667</ele><time>2026-05-03T08:23:28.961Z</time></trkpt><trkpt lat="44.1191261" lon="7.8622416"><ele>843.3333333333333</ele><time>2026-05-03T08:23:29.949Z</time></trkpt><trkpt lat="44.1192182" lon="7.8620657"><ele>835.0</ele><time>2026-05-03T08:23:30.953Z</time></trkpt><trkpt lat="44.1193006" lon="7.8618716"><ele>833.3333333333333</ele><time>2026-05-03T08:23:31.953Z</time></trkpt><trkpt lat="44.1193662" lon="7.861656"><ele>831.6666666666667</ele><time>2026-05-03T08:23:32.95Z</time></trkpt><trkpt lat="44.1194247" lon="7.8614167"><ele>830.0</ele><time>2026-05-03T08:23:33.961Z</time></trkpt><trkpt lat="44.119478" lon="7.8611669"><ele>831.3333333333334</ele><time>2026-05-03T08:23:34.95Z</time></trkpt><trkpt lat="44.1195196" lon="7.8609277"><ele>832.6666666666667</ele><time>2026-05-03T08:23:35.944Z</time></trkpt><trkpt lat="44.1195571" lon="7.8606837"><ele>834.0</ele><time>2026-05-03T08:23:36.948Z</time></trkpt><trkpt lat="44.1195968" lon="7.8604479"><ele>834.0</ele><time>2026-05-03T08:23:37.952Z</time></trkpt><trkpt lat="44.1196331" lon="7.8602061"><ele>834.0</ele><time>2026-05-03T08:23:38.957Z</time></trkpt><trkpt lat="44.1196523" lon="7.8599555"><ele>834.0</ele><time>2026-05-03T08:23:39.957Z</time></trkpt><trkpt lat="44.1196664" lon="7.8596924"><ele>833.6666666666667</ele><time>2026-05-03T08:23:40.942Z</time></trkpt><trkpt lat="44.1196778" lon="7.859424"><ele>833.3333333333334</ele><time>2026-05-03T08:23:41.954Z</time></trkpt><trkpt lat="44.1196596" lon="7.8591554"><ele>833.0</ele><time>2026-05-03T08:23:42.954Z</time></trkpt><trkpt lat="44.119625" lon="7.8589054"><ele>834.0</ele><time>2026-05-03T08:23:43.955Z</time></trkpt><trkpt lat="44.1195716" lon="7.8586681"><ele>835.0</ele><time>2026-05-03T08:23:44.943Z</time></trkpt><trkpt lat="44.1195216" lon="7.8584464"><ele>836.0</ele><time>2026-05-03T08:23:45.955Z</time></trkpt><trkpt lat="44.1194952" lon="7.8582491"><ele>837.5</ele><time>2026-05-03T08:23:46.95Z</time></trkpt><trkpt lat="44.1195" lon="7.8580553"><ele>839.0</ele><time>2026-05-03T08:23:47.971Z</time></trkpt><trkpt lat="44.1195743" lon="7.8578749"><ele>840.5</ele><time>2026-05-03T08:23:48.969Z</time></trkpt><trkpt lat="44.1196645" lon="7.8576956"><ele>842.0</ele><time>2026-05-03T08:23:49.954Z</time></trkpt><trkpt lat="44.1197806" lon="7.8575274"><ele>847.6666666666667</ele><time>2026-05-03T08:23:50.949Z</time></trkpt><trkpt lat="44.1199244" lon="7.8573793"><ele>853.3333333333333</ele><time>2026-05-03T08:23:51.953Z</time></trkpt><trkpt lat="44.1200558" lon="7.8572022"><ele>859.0</ele><time>2026-05-03T08:23:52.948Z</time></trkpt><trkpt lat="44.1201506" lon="7.8569944"><ele>856.0</ele><time>2026-05-03T08:23:53.954Z</time></trkpt><trkpt lat="44.1202282" lon="7.8567513"><ele>853.0</ele><time>2026-05-03T08:23:54.958Z</time></trkpt><trkpt lat="44.1202815" lon="7.8565029"><ele>850.0</ele><time>2026-05-03T08:23:55.958Z</time></trkpt><trkpt lat="44.1203209" lon="7.8562389"><ele>850.0</ele><time>2026-05-03T08:23:56.959Z</time></trkpt><trkpt lat="44.1203294" lon="7.8559688"><ele>850.0</ele><time>2026-05-03T08:23:57.956Z</time></trkpt><trkpt lat="44.1203123" lon="7.8556925"><ele>850.0</ele><time>2026-05-03T08:23:58.951Z</time></trkpt><trkpt lat="44.1202707" lon="7.8554155"><ele>850.0</ele><time>2026-05-03T08:23:59.952Z</time></trkpt><trkpt lat="44.1202308" lon="7.8551277"><ele>850.0</ele><time>2026-05-03T08:24:00.945Z</time></trkpt><trkpt lat="44.1201969" lon="7.8548488"><ele>850.0</ele><time>2026-05-03T08:24:01.949Z</time></trkpt><trkpt lat="44.1201546" lon="7.8545948"><ele>851.3333333333333</ele><time>2026-05-03T08:24:02.944Z</time></trkpt><trkpt lat="44.1200935" lon="7.8543601"><ele>852.6666666666667</ele><time>2026-05-03T08:24:03.95Z</time></trkpt><trkpt lat="44.1200147" lon="7.8541215"><ele>854.0</ele><time>2026-05-03T08:24:04.95Z</time></trkpt><trkpt lat="44.1199306" lon="7.8538754"><ele>853.3333333333334</ele><time>2026-05-03T08:24:05.951Z</time></trkpt><trkpt lat="44.1198448" lon="7.8536204"><ele>852.6666666666667</ele><time>2026-05-03T08:24:06.958Z</time></trkpt><trkpt lat="44.1197569" lon="7.8533537"><ele>852.0</ele><time>2026-05-03T08:24:07.967Z</time></trkpt><trkpt lat="44.1196724" lon="7.8530757"><ele>850.3333333333333</ele><time>2026-05-03T08:24:08.96Z</time></trkpt><trkpt lat="44.119602" lon="7.8527962"><ele>848.6666666666666</ele><time>2026-05-03T08:24:09.943Z</time></trkpt><trkpt lat="44.1195546" lon="7.8525195"><ele>847.0</ele><time>2026-05-03T08:24:10.959Z</time></trkpt><trkpt lat="44.1195472" lon="7.8522341"><ele>847.0</ele><time>2026-05-03T08:24:11.953Z</time></trkpt><trkpt lat="44.119562" lon="7.851976"><ele>847.0</ele><time>2026-05-03T08:24:12.957Z</time></trkpt><trkpt lat="44.1196196" lon="7.851746"><ele>847.0</ele><time>2026-05-03T08:24:13.947Z</time></trkpt><trkpt lat="44.1197037" lon="7.8515403"><ele>847.0</ele><time>2026-05-03T08:24:14.954Z</time></trkpt><trkpt lat="44.1198187" lon="7.8513678"><ele>847.0</ele><time>2026-05-03T08:24:15.953Z</time></trkpt><trkpt lat="44.119943" lon="7.8512126"><ele>847.0</ele><time>2026-05-03T08:24:16.95Z</time></trkpt><trkpt lat="44.1200639" lon="7.8510551"><ele>848.0</ele><time>2026-05-03T08:24:17.952Z</time></trkpt><trkpt lat="44.1201782" lon="7.850885"><ele>849.0</ele><time>2026-05-03T08:24:18.95Z</time></trkpt><trkpt lat="44.1202596" lon="7.8506835"><ele>850.0</ele><time>2026-05-03T08:24:19.951Z</time></trkpt><trkpt lat="44.1203268" lon="7.8504841"><ele>850.0</ele><time>2026-05-03T08:24:20.955Z</time></trkpt><trkpt lat="44.1203833" lon="7.8502608"><ele>850.0</ele><time>2026-05-03T08:24:21.969Z</time></trkpt><trkpt lat="44.1204168" lon="7.85002"><ele>850.0</ele><time>2026-05-03T08:24:22.954Z</time></trkpt><trkpt lat="44.1204296" lon="7.8497682"><ele>851.0</ele><time>2026-05-03T08:24:23.954Z</time></trkpt><trkpt lat="44.1204077" lon="7.8495105"><ele>852.0</ele><time>2026-05-03T08:24:24.947Z</time></trkpt><trkpt lat="44.1203639" lon="7.8492519"><ele>853.0</ele><time>2026-05-03T08:24:25.953Z</time></trkpt><trkpt lat="44.1203082" lon="7.8489756"><ele>854.0</ele><time>2026-05-03T08:24:26.955Z</time></trkpt><trkpt lat="44.1202505" lon="7.8486912"><ele>855.0</ele><time>2026-05-03T08:24:27.945Z</time></trkpt><trkpt lat="44.1202052" lon="7.8484051"><ele>856.0</ele><time>2026-05-03T08:24:28.948Z</time></trkpt><trkpt lat="44.1201512" lon="7.8481284"><ele>856.0</ele><time>2026-05-03T08:24:29.946Z</time></trkpt><trkpt lat="44.1200777" lon="7.8478593"><ele>856.0</ele><time>2026-05-03T08:24:30.951Z</time></trkpt><trkpt lat="44.1199826" lon="7.8475942"><ele>856.0</ele><time>2026-05-03T08:24:31.961Z</time></trkpt><trkpt lat="44.1198843" lon="7.8473333"><ele>856.0</ele><time>2026-05-03T08:24:32.947Z</time></trkpt><trkpt lat="44.1198008" lon="7.847072"><ele>856.0</ele><time>2026-05-03T08:24:33.955Z</time></trkpt><trkpt lat="44.11973" lon="7.8468045"><ele>856.0</ele><time>2026-05-03T08:24:34.939Z</time></trkpt><trkpt lat="44.1196674" lon="7.8465361"><ele>856.0</ele><time>2026-05-03T08:24:35.957Z</time></trkpt><trkpt lat="44.1196063" lon="7.8462728"><ele>856.0</ele><time>2026-05-03T08:24:36.953Z</time></trkpt><trkpt lat="44.1195466" lon="7.8460261"><ele>856.0</ele><time>2026-05-03T08:24:37.95Z</time></trkpt><trkpt lat="44.1194934" lon="7.845795"><ele>857.3333333333333</ele><time>2026-05-03T08:24:38.954Z</time></trkpt><trkpt lat="44.1194693" lon="7.8455718"><ele>858.6666666666667</ele><time>2026-05-03T08:24:39.957Z</time></trkpt><trkpt lat="44.1194847" lon="7.845334"><ele>860.0</ele><time>2026-05-03T08:24:40.951Z</time></trkpt><trkpt lat="44.1195314" lon="7.8451016"><ele>860.3333333333334</ele><time>2026-05-03T08:24:41.95Z</time></trkpt><trkpt lat="44.1196126" lon="7.8448834"><ele>860.6666666666667</ele><time>2026-05-03T08:24:42.956Z</time></trkpt><trkpt lat="44.1197233" lon="7.8446844"><ele>861.0</ele><time>2026-05-03T08:24:43.951Z</time></trkpt><trkpt lat="44.1198291" lon="7.8444871"><ele>867.6666666666667</ele><time>2026-05-03T08:24:44.955Z</time></trkpt><trkpt lat="44.1199399" lon="7.8442795"><ele>874.3333333333334</ele><time>2026-05-03T08:24:45.948Z</time></trkpt><trkpt lat="44.1200155" lon="7.8440478"><ele>881.0</ele><time>2026-05-03T08:24:46.954Z</time></trkpt><trkpt lat="44.1200508" lon="7.8437852"><ele>881.0</ele><time>2026-05-03T08:24:47.95Z</time></trkpt><trkpt lat="44.1200864" lon="7.8435106"><ele>881.0</ele><time>2026-05-03T08:24:48.952Z</time></trkpt><trkpt lat="44.1201279" lon="7.8432217"><ele>881.0</ele><time>2026-05-03T08:24:49.953Z</time></trkpt><trkpt lat="44.1201616" lon="7.8429303"><ele>878.3333333333334</ele><time>2026-05-03T08:24:50.945Z</time></trkpt><trkpt lat="44.1201839" lon="7.8426382"><ele>875.6666666666667</ele><time>2026-05-03T08:24:51.95Z</time></trkpt><trkpt lat="44.1202015" lon="7.8423596"><ele>873.0</ele><time>2026-05-03T08:24:52.961Z</time></trkpt><trkpt lat="44.1202079" lon="7.8420781"><ele>873.0</ele><time>2026-05-03T08:24:53.953Z</time></trkpt><trkpt lat="44.1202121" lon="7.841806"><ele>873.0</ele><time>2026-05-03T08:24:54.951Z</time></trkpt><trkpt lat="44.120204" lon="7.8415329"><ele>873.0</ele><time>2026-05-03T08:24:55.954Z</time></trkpt><trkpt lat="44.120181" lon="7.841263"><ele>877.0</ele><time>2026-05-03T08:24:56.952Z</time></trkpt><trkpt lat="44.1201427" lon="7.8409887"><ele>881.0</ele><time>2026-05-03T08:24:57.949Z</time></trkpt><trkpt lat="44.1201088" lon="7.8407368"><ele>885.0</ele><time>2026-05-03T08:24:58.944Z</time></trkpt><trkpt lat="44.1200883" lon="7.8405117"><ele>884.5</ele><time>2026-05-03T08:24:59.951Z</time></trkpt><trkpt lat="44.1201111" lon="7.8403099"><ele>884.0</ele><time>2026-05-03T08:25:00.948Z</time></trkpt><trkpt lat="44.1201536" lon="7.8401182"><ele>883.5</ele><time>2026-05-03T08:25:01.959Z</time></trkpt><trkpt lat="44.1201958" lon="7.8399254"><ele>883.0</ele><time>2026-05-03T08:25:02.958Z</time></trkpt><trkpt lat="44.1202295" lon="7.839702"><ele>883.0</ele><time>2026-05-03T08:25:03.952Z</time></trkpt><trkpt lat="44.1202583" lon="7.839481"><ele>883.0</ele><time>2026-05-03T08:25:04.941Z</time></trkpt><trkpt lat="44.1202977" lon="7.839252"><ele>883.0</ele><time>2026-05-03T08:25:05.953Z</time></trkpt><trkpt lat="44.1203624" lon="7.8390205"><ele>882.6666666666666</ele><time>2026-05-03T08:25:06.955Z</time></trkpt><trkpt lat="44.1204321" lon="7.8387857"><ele>882.3333333333333</ele><time>2026-05-03T08:25:07.943Z</time></trkpt><trkpt lat="44.1204957" lon="7.8385558"><ele>882.0</ele><time>2026-05-03T08:25:08.941Z</time></trkpt><trkpt lat="44.1205689" lon="7.8383406"><ele>878.0</ele><time>2026-05-03T08:25:09.944Z</time></trkpt><trkpt lat="44.1206757" lon="7.8381508"><ele>874.0</ele><time>2026-05-03T08:25:10.947Z</time></trkpt><trkpt lat="44.1207963" lon="7.8380122"><ele>870.0</ele><time>2026-05-03T08:25:11.94Z</time></trkpt><trkpt lat="44.1209369" lon="7.8378902"><ele>874.6666666666667</ele><time>2026-05-03T08:25:12.943Z</time></trkpt><trkpt lat="44.1211082" lon="7.8377911"><ele>879.3333333333334</ele><time>2026-05-03T08:25:13.943Z</time></trkpt><trkpt lat="44.1212892" lon="7.8376895"><ele>884.0</ele><time>2026-05-03T08:25:14.951Z</time></trkpt><trkpt lat="44.121459" lon="7.8375809"><ele>890.5</ele><time>2026-05-03T08:25:15.943Z</time></trkpt><trkpt lat="44.1216038" lon="7.8374819"><ele>897.0</ele><time>2026-05-03T08:25:16.938Z</time></trkpt><trkpt lat="44.1217239" lon="7.8373965"><ele>903.5</ele><time>2026-05-03T08:25:17.944Z</time></trkpt><trkpt lat="44.1218306" lon="7.8373039"><ele>910.0</ele><time>2026-05-03T08:25:18.951Z</time></trkpt><trkpt lat="44.1219104" lon="7.8371853"><ele>910.0</ele><time>2026-05-03T08:25:19.946Z</time></trkpt><trkpt lat="44.1219485" lon="7.837027"><ele>910.0</ele><time>2026-05-03T08:25:20.949Z</time></trkpt><trkpt lat="44.1219557" lon="7.8368736"><ele>910.0</ele><time>2026-05-03T08:25:21.945Z</time></trkpt><trkpt lat="44.1219404" lon="7.8367058"><ele>910.0</ele><time>2026-05-03T08:25:22.954Z</time></trkpt><trkpt lat="44.1219279" lon="7.8365397"><ele>905.0</ele><time>2026-05-03T08:25:23.956Z</time></trkpt><trkpt lat="44.1219674" lon="7.8363869"><ele>900.0</ele><time>2026-05-03T08:25:24.952Z</time></trkpt><trkpt lat="44.1220572" lon="7.836244"><ele>895.0</ele><time>2026-05-03T08:25:25.963Z</time></trkpt><trkpt lat="44.122108" lon="7.8360972"><ele>890.0</ele><time>2026-05-03T08:25:26.945Z</time></trkpt><trkpt lat="44.1221117" lon="7.8359469"><ele>889.0</ele><time>2026-05-03T08:25:27.945Z</time></trkpt><trkpt lat="44.1220613" lon="7.8357949"><ele>888.0</ele><time>2026-05-03T08:25:28.953Z</time></trkpt><trkpt lat="44.1220002" lon="7.8356424"><ele>887.0</ele><time>2026-05-03T08:25:29.952Z</time></trkpt><trkpt lat="44.1219129" lon="7.83546"><ele>886.0</ele><time>2026-05-03T08:25:30.946Z</time></trkpt><trkpt lat="44.1218038" lon="7.8352692"><ele>886.3333333333333</ele><time>2026-05-03T08:25:31.968Z</time></trkpt><trkpt lat="44.1216946" lon="7.8350629"><ele>886.6666666666667</ele><time>2026-05-03T08:25:32.95Z</time></trkpt><trkpt lat="44.1215812" lon="7.8348739"><ele>887.0</ele><time>2026-05-03T08:25:33.947Z</time></trkpt><trkpt lat="44.1214599" lon="7.8346804"><ele>887.0</ele><time>2026-05-03T08:25:34.956Z</time></trkpt><trkpt lat="44.1213393" lon="7.8344892"><ele>887.0</ele><time>2026-05-03T08:25:35.95Z</time></trkpt><trkpt lat="44.1212241" lon="7.8342849"><ele>887.0</ele><time>2026-05-03T08:25:36.957Z</time></trkpt><trkpt lat="44.1211076" lon="7.8340748"><ele>889.3333333333334</ele><time>2026-05-03T08:25:37.955Z</time></trkpt><trkpt lat="44.1209999" lon="7.8338649"><ele>891.6666666666667</ele><time>2026-05-03T08:25:38.954Z</time></trkpt><trkpt lat="44.1208933" lon="7.8336593"><ele>894.0</ele><time>2026-05-03T08:25:39.945Z</time></trkpt><trkpt lat="44.1207952" lon="7.8334613"><ele>894.25</ele><time>2026-05-03T08:25:40.951Z</time></trkpt><trkpt lat="44.1207089" lon="7.8332913"><ele>894.5</ele><time>2026-05-03T08:25:41.954Z</time></trkpt><trkpt lat="44.1206464" lon="7.8331084"><ele>894.75</ele><time>2026-05-03T08:25:42.953Z</time></trkpt><trkpt lat="44.1205957" lon="7.8329085"><ele>895.0</ele><time>2026-05-03T08:25:43.942Z</time></trkpt><trkpt lat="44.1205626" lon="7.8326892"><ele>894.3333333333333</ele><time>2026-05-03T08:25:44.956Z</time></trkpt><trkpt lat="44.120542" lon="7.8324741"><ele>893.6666666666667</ele><time>2026-05-03T08:25:45.948Z</time></trkpt><trkpt lat="44.120532" lon="7.8322455"><ele>893.0</ele><time>2026-05-03T08:25:46.951Z</time></trkpt><trkpt lat="44.1205529" lon="7.8320109"><ele>891.0</ele><time>2026-05-03T08:25:47.956Z</time></trkpt><trkpt lat="44.1205908" lon="7.8317782"><ele>889.0</ele><time>2026-05-03T08:25:48.939Z</time></trkpt><trkpt lat="44.1206345" lon="7.831531"><ele>887.0</ele><time>2026-05-03T08:25:49.963Z</time></trkpt><trkpt lat="44.1206703" lon="7.8312784"><ele>887.0</ele><time>2026-05-03T08:25:50.943Z</time></trkpt><trkpt lat="44.120723" lon="7.8310357"><ele>887.0</ele><time>2026-05-03T08:25:51.951Z</time></trkpt><trkpt lat="44.1207995" lon="7.8308107"><ele>887.0</ele><time>2026-05-03T08:25:52.942Z</time></trkpt><trkpt lat="44.1209065" lon="7.8306261"><ele>887.0</ele><time>2026-05-03T08:25:53.949Z</time></trkpt><trkpt lat="44.1210169" lon="7.8304526"><ele>887.0</ele><time>2026-05-03T08:25:54.953Z</time></trkpt><trkpt lat="44.1211456" lon="7.8302651"><ele>887.0</ele><time>2026-05-03T08:25:55.946Z</time></trkpt><trkpt lat="44.1212972" lon="7.8300737"><ele>887.0</ele><time>2026-05-03T08:25:56.949Z</time></trkpt><trkpt lat="44.121457" lon="7.8298954"><ele>887.0</ele><time>2026-05-03T08:25:57.95Z</time></trkpt><trkpt lat="44.1216328" lon="7.8297362"><ele>887.0</ele><time>2026-05-03T08:25:58.943Z</time></trkpt><trkpt lat="44.1218024" lon="7.8296056"><ele>887.6666666666667</ele><time>2026-05-03T08:25:59.96Z</time></trkpt><trkpt lat="44.1219579" lon="7.829467"><ele>888.3333333333333</ele><time>2026-05-03T08:26:00.955Z</time></trkpt><trkpt lat="44.1220979" lon="7.8293203"><ele>889.0</ele><time>2026-05-03T08:26:01.948Z</time></trkpt><trkpt lat="44.122218" lon="7.8291495"><ele>889.0</ele><time>2026-05-03T08:26:02.957Z</time></trkpt><trkpt lat="44.1223271" lon="7.8289631"><ele>889.0</ele><time>2026-05-03T08:26:03.945Z</time></trkpt><trkpt lat="44.1224043" lon="7.828759"><ele>889.0</ele><time>2026-05-03T08:26:04.949Z</time></trkpt><trkpt lat="44.1224585" lon="7.8285607"><ele>893.25</ele><time>2026-05-03T08:26:05.944Z</time></trkpt><trkpt lat="44.1224969" lon="7.8283842"><ele>897.5</ele><time>2026-05-03T08:26:06.95Z</time></trkpt><trkpt lat="44.1225532" lon="7.8282446"><ele>901.75</ele><time>2026-05-03T08:26:07.955Z</time></trkpt><trkpt lat="44.122645" lon="7.8281361"><ele>906.0</ele><time>2026-05-03T08:26:08.955Z</time></trkpt><trkpt lat="44.1227616" lon="7.8280649"><ele>906.0</ele><time>2026-05-03T08:26:09.951Z</time></trkpt><trkpt lat="44.1228833" lon="7.8280123"><ele>906.0</ele><time>2026-05-03T08:26:10.958Z</time></trkpt><trkpt lat="44.1230065" lon="7.827971"><ele>906.0</ele><time>2026-05-03T08:26:11.952Z</time></trkpt><trkpt lat="44.1231265" lon="7.8279371"><ele>906.0</ele><time>2026-05-03T08:26:12.942Z</time></trkpt><trkpt lat="44.1232397" lon="7.8279154"><ele>909.1999999999999</ele><time>2026-05-03T08:26:13.955Z</time></trkpt><trkpt lat="44.1233288" lon="7.8279012"><ele>912.3999999999999</ele><time>2026-05-03T08:26:14.951Z</time></trkpt><trkpt lat="44.1233943" lon="7.8278644"><ele>915.6</ele><time>2026-05-03T08:26:15.946Z</time></trkpt><trkpt lat="44.1234108" lon="7.8277158"><ele>918.8</ele><time>2026-05-03T08:26:17.94Z</time></trkpt><trkpt lat="44.1233493" lon="7.8276201"><ele>922.0</ele><time>2026-05-03T08:26:18.946Z</time></trkpt><trkpt lat="44.1232449" lon="7.8275129"><ele>914.3333333333333</ele><time>2026-05-03T08:26:19.956Z</time></trkpt><trkpt lat="44.1231098" lon="7.8274"><ele>906.6666666666667</ele><time>2026-05-03T08:26:20.947Z</time></trkpt><trkpt lat="44.1229704" lon="7.8272814"><ele>899.0</ele><time>2026-05-03T08:26:21.951Z</time></trkpt><trkpt lat="44.1228296" lon="7.827184"><ele>899.0</ele><time>2026-05-03T08:26:22.951Z</time></trkpt><trkpt lat="44.122678" lon="7.8271216"><ele>899.0</ele><time>2026-05-03T08:26:23.956Z</time></trkpt><trkpt lat="44.1225309" lon="7.8270939"><ele>899.0</ele><time>2026-05-03T08:26:24.962Z</time></trkpt><trkpt lat="44.1223857" lon="7.8270847"><ele>901.0</ele><time>2026-05-03T08:26:25.953Z</time></trkpt><trkpt lat="44.1222472" lon="7.8270799"><ele>903.0</ele><time>2026-05-03T08:26:26.958Z</time></trkpt><trkpt lat="44.1221293" lon="7.8270638"><ele>905.0</ele><time>2026-05-03T08:26:27.951Z</time></trkpt><trkpt lat="44.1220544" lon="7.8269666"><ele>907.0</ele><time>2026-05-03T08:26:28.956Z</time></trkpt><trkpt lat="44.1219977" lon="7.8268271"><ele>906.6666666666666</ele><time>2026-05-03T08:26:29.956Z</time></trkpt><trkpt lat="44.1219656" lon="7.8265967"><ele>906.3333333333333</ele><time>2026-05-03T08:26:30.958Z</time></trkpt><trkpt lat="44.1219848" lon="7.826346"><ele>906.0</ele><time>2026-05-03T08:26:31.947Z</time></trkpt><trkpt lat="44.1220406" lon="7.8261184"><ele>910.0</ele><time>2026-05-03T08:26:32.963Z</time></trkpt><trkpt lat="44.1221186" lon="7.825908"><ele>914.0</ele><time>2026-05-03T08:26:33.945Z</time></trkpt><trkpt lat="44.1222089" lon="7.8257268"><ele>918.0</ele><time>2026-05-03T08:26:34.946Z</time></trkpt><trkpt lat="44.1222965" lon="7.8255579"><ele>918.0</ele><time>2026-05-03T08:26:35.949Z</time></trkpt><trkpt lat="44.1223667" lon="7.8253989"><ele>918.0</ele><time>2026-05-03T08:26:36.954Z</time></trkpt><trkpt lat="44.122398" lon="7.8252125"><ele>918.0</ele><time>2026-05-03T08:26:37.948Z</time></trkpt><trkpt lat="44.1224028" lon="7.8250198"><ele>918.0</ele><time>2026-05-03T08:26:38.958Z</time></trkpt><trkpt lat="44.12238" lon="7.824821"><ele>919.6666666666667</ele><time>2026-05-03T08:26:39.947Z</time></trkpt><trkpt lat="44.1223434" lon="7.8246279"><ele>921.3333333333334</ele><time>2026-05-03T08:26:40.956Z</time></trkpt><trkpt lat="44.1222937" lon="7.8244161"><ele>923.0</ele><time>2026-05-03T08:26:41.958Z</time></trkpt><trkpt lat="44.1222415" lon="7.8241967"><ele>923.0</ele><time>2026-05-03T08:26:42.952Z</time></trkpt><trkpt lat="44.1221911" lon="7.8239811"><ele>923.0</ele><time>2026-05-03T08:26:43.945Z</time></trkpt><trkpt lat="44.1221267" lon="7.8237651"><ele>923.0</ele><time>2026-05-03T08:26:44.954Z</time></trkpt><trkpt lat="44.1220319" lon="7.8235657"><ele>918.3333333333334</ele><time>2026-05-03T08:26:45.955Z</time></trkpt><trkpt lat="44.1219016" lon="7.8233918"><ele>913.6666666666667</ele><time>2026-05-03T08:26:46.946Z</time></trkpt><trkpt lat="44.1217776" lon="7.8232383"><ele>909.0</ele><time>2026-05-03T08:26:47.952Z</time></trkpt><trkpt lat="44.1216812" lon="7.8230704"><ele>909.0</ele><time>2026-05-03T08:26:48.946Z</time></trkpt><trkpt lat="44.1216349" lon="7.8228835"><ele>909.0</ele><time>2026-05-03T08:26:49.951Z</time></trkpt><trkpt lat="44.1216022" lon="7.8226706"><ele>909.0</ele><time>2026-05-03T08:26:50.957Z</time></trkpt><trkpt lat="44.121614" lon="7.8224639"><ele>909.0</ele><time>2026-05-03T08:26:51.949Z</time></trkpt><trkpt lat="44.121643" lon="7.82228"><ele>907.0</ele><time>2026-05-03T08:26:52.951Z</time></trkpt><trkpt lat="44.1217042" lon="7.8221276"><ele>905.0</ele><time>2026-05-03T08:26:53.953Z</time></trkpt><trkpt lat="44.1218008" lon="7.8219981"><ele>903.0</ele><time>2026-05-03T08:26:54.95Z</time></trkpt><trkpt lat="44.121903" lon="7.8218953"><ele>901.0</ele><time>2026-05-03T08:26:55.948Z</time></trkpt><trkpt lat="44.1220269" lon="7.8218547"><ele>901.0</ele><time>2026-05-03T08:26:56.952Z</time></trkpt><trkpt lat="44.122176" lon="7.8218462"><ele>901.0</ele><time>2026-05-03T08:26:57.954Z</time></trkpt><trkpt lat="44.1223269" lon="7.8218849"><ele>901.0</ele><time>2026-05-03T08:26:58.95Z</time></trkpt><trkpt lat="44.122485" lon="7.821904"><ele>904.3333333333333</ele><time>2026-05-03T08:26:59.937Z</time></trkpt><trkpt lat="44.1226331" lon="7.8218761"><ele>907.6666666666667</ele><time>2026-05-03T08:27:00.952Z</time></trkpt><trkpt lat="44.1227877" lon="7.8218112"><ele>911.0</ele><time>2026-05-03T08:27:01.947Z</time></trkpt><trkpt lat="44.1229331" lon="7.8217107"><ele>911.0</ele><time>2026-05-03T08:27:02.955Z</time></trkpt><trkpt lat="44.123066" lon="7.8215838"><ele>911.0</ele><time>2026-05-03T08:27:03.948Z</time></trkpt><trkpt lat="44.1231965" lon="7.8214386"><ele>911.0</ele><time>2026-05-03T08:27:04.942Z</time></trkpt><trkpt lat="44.1233095" lon="7.821283"><ele>911.6666666666667</ele><time>2026-05-03T08:27:05.955Z</time></trkpt><trkpt lat="44.1234103" lon="7.8211119"><ele>912.3333333333333</ele><time>2026-05-03T08:27:06.946Z</time></trkpt><trkpt lat="44.1234872" lon="7.8209129"><ele>913.0</ele><time>2026-05-03T08:27:07.95Z</time></trkpt><trkpt lat="44.1235608" lon="7.8207009"><ele>913.0</ele><time>2026-05-03T08:27:08.957Z</time></trkpt><trkpt lat="44.1236059" lon="7.8204775"><ele>913.0</ele><time>2026-05-03T08:27:09.957Z</time></trkpt><trkpt lat="44.1236152" lon="7.8202398"><ele>913.0</ele><time>2026-05-03T08:27:10.947Z</time></trkpt><trkpt lat="44.1236118" lon="7.8199818"><ele>915.0</ele><time>2026-05-03T08:27:11.949Z</time></trkpt><trkpt lat="44.1236032" lon="7.8197142"><ele>917.0</ele><time>2026-05-03T08:27:12.95Z</time></trkpt><trkpt lat="44.1235956" lon="7.8194426"><ele>919.0</ele><time>2026-05-03T08:27:13.956Z</time></trkpt><trkpt lat="44.1235891" lon="7.8191671"><ele>919.0</ele><time>2026-05-03T08:27:14.945Z</time></trkpt><trkpt lat="44.1235731" lon="7.8188815"><ele>919.0</ele><time>2026-05-03T08:27:15.957Z</time></trkpt><trkpt lat="44.1235494" lon="7.8185964"><ele>919.0</ele><time>2026-05-03T08:27:16.949Z</time></trkpt><trkpt lat="44.1235257" lon="7.8183135"><ele>918.3333333333333</ele><time>2026-05-03T08:27:17.951Z</time></trkpt><trkpt lat="44.1235146" lon="7.8180437"><ele>917.6666666666667</ele><time>2026-05-03T08:27:18.944Z</time></trkpt><trkpt lat="44.1235218" lon="7.8177903"><ele>917.0</ele><time>2026-05-03T08:27:19.952Z</time></trkpt><trkpt lat="44.123535" lon="7.8175562"><ele>917.0</ele><time>2026-05-03T08:27:20.939Z</time></trkpt><trkpt lat="44.1235331" lon="7.8173242"><ele>917.0</ele><time>2026-05-03T08:27:21.955Z</time></trkpt><trkpt lat="44.1235181" lon="7.8170917"><ele>917.0</ele><time>2026-05-03T08:27:22.941Z</time></trkpt><trkpt lat="44.1235161" lon="7.8168606"><ele>918.0</ele><time>2026-05-03T08:27:23.943Z</time></trkpt><trkpt lat="44.1235323" lon="7.8166345"><ele>919.0</ele><time>2026-05-03T08:27:24.95Z</time></trkpt><trkpt lat="44.1235625" lon="7.816421"><ele>920.0</ele><time>2026-05-03T08:27:25.95Z</time></trkpt><trkpt lat="44.123623" lon="7.8162025"><ele>920.0</ele><time>2026-05-03T08:27:26.955Z</time></trkpt><trkpt lat="44.1236907" lon="7.8159926"><ele>920.0</ele><time>2026-05-03T08:27:27.954Z</time></trkpt><trkpt lat="44.1237785" lon="7.8157925"><ele>920.0</ele><time>2026-05-03T08:27:28.951Z</time></trkpt><trkpt lat="44.1238726" lon="7.8156002"><ele>920.6666666666667</ele><time>2026-05-03T08:27:29.949Z</time></trkpt><trkpt lat="44.1239812" lon="7.8154131"><ele>921.3333333333333</ele><time>2026-05-03T08:27:30.944Z</time></trkpt><trkpt lat="44.1241009" lon="7.8152531"><ele>922.0</ele><time>2026-05-03T08:27:31.95Z</time></trkpt><trkpt lat="44.1242181" lon="7.8151228"><ele>920.5</ele><time>2026-05-03T08:27:32.944Z</time></trkpt><trkpt lat="44.1243417" lon="7.815033"><ele>919.0</ele><time>2026-05-03T08:27:33.953Z</time></trkpt><trkpt lat="44.1244664" lon="7.8150128"><ele>917.5</ele><time>2026-05-03T08:27:34.946Z</time></trkpt><trkpt lat="44.1245989" lon="7.8150247"><ele>916.0</ele><time>2026-05-03T08:27:35.948Z</time></trkpt><trkpt lat="44.1247283" lon="7.8149941"><ele>916.0</ele><time>2026-05-03T08:27:36.945Z</time></trkpt><trkpt lat="44.1248607" lon="7.8149034"><ele>916.0</ele><time>2026-05-03T08:27:37.949Z</time></trkpt><trkpt lat="44.1249726" lon="7.8147668"><ele>916.0</ele><time>2026-05-03T08:27:38.951Z</time></trkpt><trkpt lat="44.1250371" lon="7.8145766"><ele>916.0</ele><time>2026-05-03T08:27:39.948Z</time></trkpt><trkpt lat="44.1250926" lon="7.8143904"><ele>917.6666666666666</ele><time>2026-05-03T08:27:40.943Z</time></trkpt><trkpt lat="44.125134" lon="7.8141538"><ele>919.3333333333333</ele><time>2026-05-03T08:27:41.95Z</time></trkpt><trkpt lat="44.1251593" lon="7.8138866"><ele>921.0</ele><time>2026-05-03T08:27:42.948Z</time></trkpt><trkpt lat="44.1251936" lon="7.8136238"><ele>920.6666666666667</ele><time>2026-05-03T08:27:43.954Z</time></trkpt><trkpt lat="44.1252324" lon="7.813354"><ele>920.3333333333334</ele><time>2026-05-03T08:27:44.962Z</time></trkpt><trkpt lat="44.125273" lon="7.8130888"><ele>920.0</ele><time>2026-05-03T08:27:45.948Z</time></trkpt><trkpt lat="44.1253174" lon="7.8128253"><ele>921.3333333333334</ele><time>2026-05-03T08:27:46.946Z</time></trkpt><trkpt lat="44.1253619" lon="7.8125603"><ele>922.6666666666667</ele><time>2026-05-03T08:27:47.942Z</time></trkpt><trkpt lat="44.1254025" lon="7.8122907"><ele>924.0</ele><time>2026-05-03T08:27:48.947Z</time></trkpt><trkpt lat="44.1254437" lon="7.8120337"><ele>926.3333333333333</ele><time>2026-05-03T08:27:49.94Z</time></trkpt><trkpt lat="44.1254793" lon="7.8117914"><ele>928.6666666666666</ele><time>2026-05-03T08:27:50.947Z</time></trkpt><trkpt lat="44.125508" lon="7.8115761"><ele>931.0</ele><time>2026-05-03T08:27:51.945Z</time></trkpt><trkpt lat="44.1255466" lon="7.8113798"><ele>931.0</ele><time>2026-05-03T08:27:52.947Z</time></trkpt><trkpt lat="44.1256127" lon="7.8112241"><ele>931.0</ele><time>2026-05-03T08:27:53.96Z</time></trkpt><trkpt lat="44.1257256" lon="7.8111144"><ele>931.0</ele><time>2026-05-03T08:27:54.951Z</time></trkpt><trkpt lat="44.1258336" lon="7.8110327"><ele>931.0</ele><time>2026-05-03T08:27:55.943Z</time></trkpt><trkpt lat="44.1259529" lon="7.8110004"><ele>934.25</ele><time>2026-05-03T08:27:56.951Z</time></trkpt><trkpt lat="44.1260646" lon="7.8110057"><ele>937.5</ele><time>2026-05-03T08:27:57.947Z</time></trkpt><trkpt lat="44.12618" lon="7.8110335"><ele>940.75</ele><time>2026-05-03T08:27:58.951Z</time></trkpt><trkpt lat="44.1263016" lon="7.8110716"><ele>944.0</ele><time>2026-05-03T08:27:59.947Z</time></trkpt><trkpt lat="44.1264259" lon="7.8111147"><ele>944.0</ele><time>2026-05-03T08:28:00.944Z</time></trkpt><trkpt lat="44.1265422" lon="7.8111701"><ele>944.0</ele><time>2026-05-03T08:28:01.947Z</time></trkpt><trkpt lat="44.1266588" lon="7.8112245"><ele>944.0</ele><time>2026-05-03T08:28:02.942Z</time></trkpt><trkpt lat="44.1267797" lon="7.8112906"><ele>944.0</ele><time>2026-05-03T08:28:03.939Z</time></trkpt><trkpt lat="44.1269044" lon="7.811351"><ele>950.0</ele><time>2026-05-03T08:28:04.953Z</time></trkpt><trkpt lat="44.1270405" lon="7.8114147"><ele>956.0</ele><time>2026-05-03T08:28:05.944Z</time></trkpt><trkpt lat="44.1271734" lon="7.8114755"><ele>962.0</ele><time>2026-05-03T08:28:06.959Z</time></trkpt><trkpt lat="44.1272922" lon="7.8115152"><ele>968.0</ele><time>2026-05-03T08:28:07.951Z</time></trkpt><trkpt lat="44.1273981" lon="7.8115393"><ele>968.0</ele><time>2026-05-03T08:28:08.949Z</time></trkpt><trkpt lat="44.127505" lon="7.8115323"><ele>968.0</ele><time>2026-05-03T08:28:09.951Z</time></trkpt><trkpt lat="44.1276171" lon="7.8114947"><ele>968.0</ele><time>2026-05-03T08:28:10.952Z</time></trkpt><trkpt lat="44.1277427" lon="7.811417"><ele>968.0</ele><time>2026-05-03T08:28:11.95Z</time></trkpt><trkpt lat="44.127878" lon="7.8113288"><ele>968.0</ele><time>2026-05-03T08:28:12.953Z</time></trkpt><trkpt lat="44.1280144" lon="7.811231"><ele>968.0</ele><time>2026-05-03T08:28:13.951Z</time></trkpt><trkpt lat="44.1281502" lon="7.8111367"><ele>968.0</ele><time>2026-05-03T08:28:14.95Z</time></trkpt><trkpt lat="44.1282677" lon="7.8110381"><ele>968.0</ele><time>2026-05-03T08:28:15.969Z</time></trkpt><trkpt lat="44.1283592" lon="7.8109081"><ele>966.0</ele><time>2026-05-03T08:28:16.949Z</time></trkpt><trkpt lat="44.1284227" lon="7.8107377"><ele>964.0</ele><time>2026-05-03T08:28:17.95Z</time></trkpt><trkpt lat="44.1284688" lon="7.8105388"><ele>962.0</ele><time>2026-05-03T08:28:18.945Z</time></trkpt><trkpt lat="44.1285018" lon="7.8103165"><ele>959.0</ele><time>2026-05-03T08:28:19.961Z</time></trkpt><trkpt lat="44.1285801" lon="7.810123"><ele>956.0</ele><time>2026-05-03T08:28:20.956Z</time></trkpt><trkpt lat="44.1286646" lon="7.8099227"><ele>953.0</ele><time>2026-05-03T08:28:21.959Z</time></trkpt><trkpt lat="44.1287359" lon="7.8097056"><ele>953.0</ele><time>2026-05-03T08:28:22.955Z</time></trkpt><trkpt lat="44.1288058" lon="7.8094815"><ele>953.0</ele><time>2026-05-03T08:28:23.957Z</time></trkpt><trkpt lat="44.1288561" lon="7.8092436"><ele>953.0</ele><time>2026-05-03T08:28:24.954Z</time></trkpt><trkpt lat="44.1289055" lon="7.8090049"><ele>951.3333333333334</ele><time>2026-05-03T08:28:25.951Z</time></trkpt><trkpt lat="44.1289354" lon="7.8087475"><ele>949.6666666666667</ele><time>2026-05-03T08:28:26.954Z</time></trkpt><trkpt lat="44.1289452" lon="7.808472"><ele>948.0</ele><time>2026-05-03T08:28:27.953Z</time></trkpt><trkpt lat="44.1289576" lon="7.8081931"><ele>947.3333333333333</ele><time>2026-05-03T08:28:28.954Z</time></trkpt><trkpt lat="44.1289787" lon="7.8079148"><ele>946.6666666666666</ele><time>2026-05-03T08:28:29.952Z</time></trkpt><trkpt lat="44.1290126" lon="7.8076351"><ele>946.0</ele><time>2026-05-03T08:28:30.953Z</time></trkpt><trkpt lat="44.129047" lon="7.807362"><ele>956.3333333333333</ele><time>2026-05-03T08:28:31.953Z</time></trkpt><trkpt lat="44.1290846" lon="7.8071002"><ele>966.6666666666667</ele><time>2026-05-03T08:28:32.955Z</time></trkpt><trkpt lat="44.1291305" lon="7.8068665"><ele>977.0</ele><time>2026-05-03T08:28:33.953Z</time></trkpt><trkpt lat="44.1291861" lon="7.8066694"><ele>977.0</ele><time>2026-05-03T08:28:34.944Z</time></trkpt><trkpt lat="44.1292507" lon="7.8065172"><ele>977.0</ele><time>2026-05-03T08:28:35.948Z</time></trkpt><trkpt lat="44.1293377" lon="7.8063901"><ele>977.0</ele><time>2026-05-03T08:28:36.955Z</time></trkpt><trkpt lat="44.1294419" lon="7.8062659"><ele>977.0</ele><time>2026-05-03T08:28:37.946Z</time></trkpt><trkpt lat="44.1295537" lon="7.8061206"><ele>972.0</ele><time>2026-05-03T08:28:38.945Z</time></trkpt><trkpt lat="44.1296658" lon="7.8059727"><ele>967.0</ele><time>2026-05-03T08:28:39.947Z</time></trkpt><trkpt lat="44.1297918" lon="7.8058705"><ele>962.0</ele><time>2026-05-03T08:28:40.947Z</time></trkpt><trkpt lat="44.1299204" lon="7.8058041"><ele>957.0</ele><time>2026-05-03T08:28:41.941Z</time></trkpt><trkpt lat="44.1300178" lon="7.8057488"><ele>964.0</ele><time>2026-05-03T08:28:42.95Z</time></trkpt><trkpt lat="44.1300752" lon="7.8056682"><ele>971.0</ele><time>2026-05-03T08:28:43.945Z</time></trkpt><trkpt lat="44.1301299" lon="7.8055737"><ele>978.0</ele><time>2026-05-03T08:28:44.95Z</time></trkpt><trkpt lat="44.1301715" lon="7.8054421"><ele>985.0</ele><time>2026-05-03T08:28:45.946Z</time></trkpt><trkpt lat="44.1301911" lon="7.8052759"><ele>992.0</ele><time>2026-05-03T08:28:46.953Z</time></trkpt><trkpt lat="44.1301855" lon="7.8050825"><ele>992.0</ele><time>2026-05-03T08:28:47.95Z</time></trkpt><trkpt lat="44.1301623" lon="7.8048777"><ele>992.0</ele><time>2026-05-03T08:28:48.969Z</time></trkpt><trkpt lat="44.1301234" lon="7.8046559"><ele>992.0</ele><time>2026-05-03T08:28:49.947Z</time></trkpt><trkpt lat="44.1300973" lon="7.8044265"><ele>991.3333333333334</ele><time>2026-05-03T08:28:50.952Z</time></trkpt><trkpt lat="44.1301153" lon="7.804198"><ele>990.6666666666667</ele><time>2026-05-03T08:28:51.944Z</time></trkpt><trkpt lat="44.1301422" lon="7.8039809"><ele>990.0</ele><time>2026-05-03T08:28:52.956Z</time></trkpt><trkpt lat="44.1301627" lon="7.8037599"><ele>990.0</ele><time>2026-05-03T08:28:53.957Z</time></trkpt><trkpt lat="44.130189" lon="7.803548"><ele>990.0</ele><time>2026-05-03T08:28:54.958Z</time></trkpt><trkpt lat="44.1302366" lon="7.803339"><ele>990.0</ele><time>2026-05-03T08:28:55.961Z</time></trkpt><trkpt lat="44.1302976" lon="7.8031498"><ele>990.0</ele><time>2026-05-03T08:28:56.948Z</time></trkpt><trkpt lat="44.130345" lon="7.8029427"><ele>990.0</ele><time>2026-05-03T08:28:57.958Z</time></trkpt><trkpt lat="44.1303744" lon="7.8027396"><ele>990.0</ele><time>2026-05-03T08:28:58.958Z</time></trkpt><trkpt lat="44.1303582" lon="7.8025319"><ele>994.0</ele><time>2026-05-03T08:28:59.96Z</time></trkpt><trkpt lat="44.1303425" lon="7.802319"><ele>998.0</ele><time>2026-05-03T08:29:00.953Z</time></trkpt><trkpt lat="44.130326" lon="7.8020737"><ele>1002.0</ele><time>2026-05-03T08:29:01.948Z</time></trkpt><trkpt lat="44.130306" lon="7.8018279"><ele>1008.0</ele><time>2026-05-03T08:29:02.949Z</time></trkpt><trkpt lat="44.1302657" lon="7.8015747"><ele>1014.0</ele><time>2026-05-03T08:29:03.944Z</time></trkpt><trkpt lat="44.1302104" lon="7.8013129"><ele>1020.0</ele><time>2026-05-03T08:29:04.951Z</time></trkpt><trkpt lat="44.1301449" lon="7.801053"><ele>1023.6666666666667</ele><time>2026-05-03T08:29:05.947Z</time></trkpt><trkpt lat="44.1300817" lon="7.8007797"><ele>1027.3333333333335</ele><time>2026-05-03T08:29:06.947Z</time></trkpt><trkpt lat="44.1300195" lon="7.8005098"><ele>1031.0</ele><time>2026-05-03T08:29:07.947Z</time></trkpt><trkpt lat="44.1299574" lon="7.8002462"><ele>1034.6666666666667</ele><time>2026-05-03T08:29:08.953Z</time></trkpt><trkpt lat="44.1298995" lon="7.7999942"><ele>1038.3333333333333</ele><time>2026-05-03T08:29:09.943Z</time></trkpt><trkpt lat="44.1298476" lon="7.7997699"><ele>1042.0</ele><time>2026-05-03T08:29:10.973Z</time></trkpt><trkpt lat="44.1297988" lon="7.7995741"><ele>1030.0</ele><time>2026-05-03T08:29:11.949Z</time></trkpt><trkpt lat="44.1297612" lon="7.7993959"><ele>1018.0</ele><time>2026-05-03T08:29:12.951Z</time></trkpt><trkpt lat="44.1297492" lon="7.7992322"><ele>1006.0</ele><time>2026-05-03T08:29:13.947Z</time></trkpt><trkpt lat="44.1297681" lon="7.7990975"><ele>994.0</ele><time>2026-05-03T08:29:14.955Z</time></trkpt><trkpt lat="44.1298478" lon="7.7990039"><ele>1005.5</ele><time>2026-05-03T08:29:15.948Z</time></trkpt><trkpt lat="44.1299663" lon="7.7989358"><ele>1017.0</ele><time>2026-05-03T08:29:16.948Z</time></trkpt><trkpt lat="44.1300873" lon="7.7988737"><ele>1028.5</ele><time>2026-05-03T08:29:17.951Z</time></trkpt><trkpt lat="44.1302206" lon="7.7988109"><ele>1040.0</ele><time>2026-05-03T08:29:18.947Z</time></trkpt><trkpt lat="44.130378" lon="7.7987397"><ele>1040.0</ele><time>2026-05-03T08:29:19.957Z</time></trkpt><trkpt lat="44.1305525" lon="7.7986656"><ele>1040.0</ele><time>2026-05-03T08:29:20.954Z</time></trkpt><trkpt lat="44.1307264" lon="7.79858"><ele>1040.0</ele><time>2026-05-03T08:29:21.944Z</time></trkpt><trkpt lat="44.1309017" lon="7.7984602"><ele>1042.6666666666667</ele><time>2026-05-03T08:29:22.951Z</time></trkpt><trkpt lat="44.131059" lon="7.7982876"><ele>1045.3333333333333</ele><time>2026-05-03T08:29:23.957Z</time></trkpt><trkpt lat="44.1312222" lon="7.7981242"><ele>1048.0</ele><time>2026-05-03T08:29:24.957Z</time></trkpt><trkpt lat="44.1313702" lon="7.7979573"><ele>1048.0</ele><time>2026-05-03T08:29:25.953Z</time></trkpt><trkpt lat="44.1315282" lon="7.797794"><ele>1048.0</ele><time>2026-05-03T08:29:26.953Z</time></trkpt><trkpt lat="44.1316731" lon="7.797614"><ele>1048.0</ele><time>2026-05-03T08:29:27.964Z</time></trkpt><trkpt lat="44.131804" lon="7.7974034"><ele>1049.6666666666665</ele><time>2026-05-03T08:29:28.951Z</time></trkpt><trkpt lat="44.131939" lon="7.7971917"><ele>1051.3333333333333</ele><time>2026-05-03T08:29:29.949Z</time></trkpt><trkpt lat="44.1320625" lon="7.7969628"><ele>1053.0</ele><time>2026-05-03T08:29:30.954Z</time></trkpt><trkpt lat="44.1321774" lon="7.7967409"><ele>1053.0</ele><time>2026-05-03T08:29:31.952Z</time></trkpt><trkpt lat="44.1322815" lon="7.7965395"><ele>1053.0</ele><time>2026-05-03T08:29:32.951Z</time></trkpt><trkpt lat="44.1323715" lon="7.7963629"><ele>1053.0</ele><time>2026-05-03T08:29:33.95Z</time></trkpt><trkpt lat="44.1324614" lon="7.7962179"><ele>1056.5</ele><time>2026-05-03T08:29:34.95Z</time></trkpt><trkpt lat="44.1325723" lon="7.7960925"><ele>1060.0</ele><time>2026-05-03T08:29:35.953Z</time></trkpt><trkpt lat="44.1326938" lon="7.7959817"><ele>1063.5</ele><time>2026-05-03T08:29:36.954Z</time></trkpt><trkpt lat="44.1328375" lon="7.7958824"><ele>1067.0</ele><time>2026-05-03T08:29:37.953Z</time></trkpt><trkpt lat="44.1329581" lon="7.7958316"><ele>1067.0</ele><time>2026-05-03T08:29:38.948Z</time></trkpt><trkpt lat="44.1330903" lon="7.7958346"><ele>1067.0</ele><time>2026-05-03T08:29:39.946Z</time></trkpt><trkpt lat="44.1332164" lon="7.7958508"><ele>1067.0</ele><time>2026-05-03T08:29:40.946Z</time></trkpt><trkpt lat="44.1333297" lon="7.7958626"><ele>1067.0</ele><time>2026-05-03T08:29:41.948Z</time></trkpt><trkpt lat="44.1334136" lon="7.7958484"><ele>1070.0</ele><time>2026-05-03T08:29:42.951Z</time></trkpt><trkpt lat="44.1334825" lon="7.7958167"><ele>1073.0</ele><time>2026-05-03T08:29:43.951Z</time></trkpt><trkpt lat="44.1335317" lon="7.7957537"><ele>1076.0</ele><time>2026-05-03T08:29:44.945Z</time></trkpt><trkpt lat="44.1335351" lon="7.7956433"><ele>1079.0</ele><time>2026-05-03T08:29:45.943Z</time></trkpt><trkpt lat="44.1334742" lon="7.7955049"><ele>1082.0</ele><time>2026-05-03T08:29:46.951Z</time></trkpt><trkpt lat="44.1333692" lon="7.7953473"><ele>1082.0</ele><time>2026-05-03T08:29:47.948Z</time></trkpt><trkpt lat="44.1332561" lon="7.7951878"><ele>1082.0</ele><time>2026-05-03T08:29:48.949Z</time></trkpt><trkpt lat="44.1331328" lon="7.7950561"><ele>1082.0</ele><time>2026-05-03T08:29:49.954Z</time></trkpt><trkpt lat="44.1329943" lon="7.7949665"><ele>1079.6</ele><time>2026-05-03T08:29:50.951Z</time></trkpt><trkpt lat="44.1328527" lon="7.7948954"><ele>1077.2</ele><time>2026-05-03T08:29:51.954Z</time></trkpt><trkpt lat="44.1327407" lon="7.794812"><ele>1074.8</ele><time>2026-05-03T08:29:52.952Z</time></trkpt><trkpt lat="44.1327338" lon="7.7947031"><ele>1072.4</ele><time>2026-05-03T08:29:53.968Z</time></trkpt><trkpt lat="44.1327407" lon="7.7945832"><ele>1070.0</ele><time>2026-05-03T08:29:54.957Z</time></trkpt><trkpt lat="44.1327848" lon="7.794439"><ele>1069.0</ele><time>2026-05-03T08:29:55.948Z</time></trkpt><trkpt lat="44.1328594" lon="7.794283"><ele>1068.0</ele><time>2026-05-03T08:29:56.949Z</time></trkpt><trkpt lat="44.1329392" lon="7.7941117"><ele>1067.0</ele><time>2026-05-03T08:29:57.956Z</time></trkpt><trkpt lat="44.1330124" lon="7.7939209"><ele>1066.0</ele><time>2026-05-03T08:29:58.955Z</time></trkpt><trkpt lat="44.1330707" lon="7.7937258"><ele>1066.0</ele><time>2026-05-03T08:29:59.956Z</time></trkpt><trkpt lat="44.1331308" lon="7.79353"><ele>1066.0</ele><time>2026-05-03T08:30:00.952Z</time></trkpt><trkpt lat="44.1332" lon="7.7933535"><ele>1066.0</ele><time>2026-05-03T08:30:01.964Z</time></trkpt><trkpt lat="44.1333046" lon="7.7932128"><ele>1066.0</ele><time>2026-05-03T08:30:02.96Z</time></trkpt><trkpt lat="44.133433" lon="7.7930924"><ele>1068.6666666666665</ele><time>2026-05-03T08:30:03.962Z</time></trkpt><trkpt lat="44.1335589" lon="7.7929696"><ele>1071.3333333333333</ele><time>2026-05-03T08:30:04.951Z</time></trkpt><trkpt lat="44.1336782" lon="7.7928118"><ele>1074.0</ele><time>2026-05-03T08:30:05.946Z</time></trkpt><trkpt lat="44.1337804" lon="7.7926106"><ele>1074.0</ele><time>2026-05-03T08:30:06.957Z</time></trkpt><trkpt lat="44.1338881" lon="7.7924171"><ele>1074.0</ele><time>2026-05-03T08:30:07.948Z</time></trkpt><trkpt lat="44.1339948" lon="7.7922395"><ele>1074.0</ele><time>2026-05-03T08:30:08.947Z</time></trkpt><trkpt lat="44.1340935" lon="7.7920739"><ele>1077.5</ele><time>2026-05-03T08:30:09.951Z</time></trkpt><trkpt lat="44.1341959" lon="7.7919432"><ele>1081.0</ele><time>2026-05-03T08:30:10.955Z</time></trkpt><trkpt lat="44.1343037" lon="7.7918437"><ele>1084.5</ele><time>2026-05-03T08:30:11.949Z</time></trkpt><trkpt lat="44.1344173" lon="7.79178"><ele>1088.0</ele><time>2026-05-03T08:30:12.956Z</time></trkpt><trkpt lat="44.1345566" lon="7.7917563"><ele>1088.0</ele><time>2026-05-03T08:30:13.952Z</time></trkpt><trkpt lat="44.1347104" lon="7.7917524"><ele>1088.0</ele><time>2026-05-03T08:30:14.949Z</time></trkpt><trkpt lat="44.13485" lon="7.7917608"><ele>1088.0</ele><time>2026-05-03T08:30:15.945Z</time></trkpt><trkpt lat="44.1349796" lon="7.7917753"><ele>1088.0</ele><time>2026-05-03T08:30:16.947Z</time></trkpt><trkpt lat="44.1350859" lon="7.791747"><ele>1096.75</ele><time>2026-05-03T08:30:17.945Z</time></trkpt><trkpt lat="44.1351686" lon="7.7916763"><ele>1105.5</ele><time>2026-05-03T08:30:18.957Z</time></trkpt><trkpt lat="44.1352153" lon="7.7915487"><ele>1114.25</ele><time>2026-05-03T08:30:19.941Z</time></trkpt><trkpt lat="44.1352571" lon="7.7913811"><ele>1123.0</ele><time>2026-05-03T08:30:20.957Z</time></trkpt><trkpt lat="44.1353023" lon="7.7911705"><ele>1116.3333333333333</ele><time>2026-05-03T08:30:21.947Z</time></trkpt><trkpt lat="44.1353559" lon="7.7909734"><ele>1109.6666666666667</ele><time>2026-05-03T08:30:22.954Z</time></trkpt><trkpt lat="44.1354175" lon="7.7907817"><ele>1103.0</ele><time>2026-05-03T08:30:23.954Z</time></trkpt><trkpt lat="44.1354801" lon="7.7905936"><ele>1103.0</ele><time>2026-05-03T08:30:24.955Z</time></trkpt><trkpt lat="44.1355269" lon="7.790383"><ele>1103.0</ele><time>2026-05-03T08:30:25.955Z</time></trkpt><trkpt lat="44.1355483" lon="7.7901544"><ele>1103.0</ele><time>2026-05-03T08:30:26.973Z</time></trkpt><trkpt lat="44.1355352" lon="7.7899444"><ele>1101.75</ele><time>2026-05-03T08:30:27.963Z</time></trkpt><trkpt lat="44.1355237" lon="7.7897465"><ele>1100.5</ele><time>2026-05-03T08:30:28.964Z</time></trkpt><trkpt lat="44.1355376" lon="7.789562"><ele>1099.25</ele><time>2026-05-03T08:30:29.941Z</time></trkpt><trkpt lat="44.1355743" lon="7.78938"><ele>1098.0</ele><time>2026-05-03T08:30:30.954Z</time></trkpt><trkpt lat="44.1356319" lon="7.7891991"><ele>1095.6666666666667</ele><time>2026-05-03T08:30:31.953Z</time></trkpt><trkpt lat="44.1357156" lon="7.7890189"><ele>1093.3333333333335</ele><time>2026-05-03T08:30:32.952Z</time></trkpt><trkpt lat="44.1358098" lon="7.7888381"><ele>1091.0</ele><time>2026-05-03T08:30:33.947Z</time></trkpt><trkpt lat="44.1359125" lon="7.7886606"><ele>1100.0</ele><time>2026-05-03T08:30:34.947Z</time></trkpt><trkpt lat="44.1360149" lon="7.7885015"><ele>1109.0</ele><time>2026-05-03T08:30:35.953Z</time></trkpt><trkpt lat="44.1361417" lon="7.7883638"><ele>1118.0</ele><time>2026-05-03T08:30:36.95Z</time></trkpt><trkpt lat="44.136287" lon="7.7882468"><ele>1118.0</ele><time>2026-05-03T08:30:37.953Z</time></trkpt><trkpt lat="44.1364388" lon="7.7881354"><ele>1118.0</ele><time>2026-05-03T08:30:38.945Z</time></trkpt><trkpt lat="44.1365911" lon="7.7880117"><ele>1118.0</ele><time>2026-05-03T08:30:39.949Z</time></trkpt><trkpt lat="44.1367456" lon="7.7878826"><ele>1121.3333333333335</ele><time>2026-05-03T08:30:40.946Z</time></trkpt><trkpt lat="44.1369045" lon="7.7877746"><ele>1124.6666666666667</ele><time>2026-05-03T08:30:41.946Z</time></trkpt><trkpt lat="44.1370583" lon="7.7876904"><ele>1128.0</ele><time>2026-05-03T08:30:42.948Z</time></trkpt><trkpt lat="44.1372022" lon="7.787635"><ele>1128.0</ele><time>2026-05-03T08:30:43.946Z</time></trkpt><trkpt lat="44.1373281" lon="7.7875807"><ele>1128.0</ele><time>2026-05-03T08:30:44.946Z</time></trkpt><trkpt lat="44.1374341" lon="7.7875114"><ele>1128.0</ele><time>2026-05-03T08:30:45.954Z</time></trkpt><trkpt lat="44.1375173" lon="7.7873928"><ele>1128.0</ele><time>2026-05-03T08:30:46.952Z</time></trkpt><trkpt lat="44.1375535" lon="7.7872498"><ele>1133.0</ele><time>2026-05-03T08:30:47.954Z</time></trkpt><trkpt lat="44.1375656" lon="7.7870574"><ele>1138.0</ele><time>2026-05-03T08:30:48.942Z</time></trkpt><trkpt lat="44.1375659" lon="7.7868582"><ele>1143.0</ele><time>2026-05-03T08:30:49.955Z</time></trkpt><trkpt lat="44.1375577" lon="7.7866324"><ele>1148.0</ele><time>2026-05-03T08:30:50.954Z</time></trkpt><trkpt lat="44.1375676" lon="7.786425"><ele>1148.0</ele><time>2026-05-03T08:30:51.946Z</time></trkpt><trkpt lat="44.1376144" lon="7.7862269"><ele>1148.0</ele><time>2026-05-03T08:30:52.96Z</time></trkpt><trkpt lat="44.137693" lon="7.7860452"><ele>1148.0</ele><time>2026-05-03T08:30:53.953Z</time></trkpt><trkpt lat="44.1378007" lon="7.7859007"><ele>1144.0</ele><time>2026-05-03T08:30:54.955Z</time></trkpt><trkpt lat="44.1379183" lon="7.7857797"><ele>1140.0</ele><time>2026-05-03T08:30:55.959Z</time></trkpt><trkpt lat="44.138042" lon="7.7856671"><ele>1136.0</ele><time>2026-05-03T08:30:56.963Z</time></trkpt><trkpt lat="44.1381987" lon="7.7855813"><ele>1147.6666666666667</ele><time>2026-05-03T08:30:57.958Z</time></trkpt><trkpt lat="44.1383521" lon="7.7855013"><ele>1159.3333333333333</ele><time>2026-05-03T08:30:58.947Z</time></trkpt><trkpt lat="44.1385129" lon="7.7854372"><ele>1171.0</ele><time>2026-05-03T08:30:59.943Z</time></trkpt><trkpt lat="44.1386794" lon="7.7853785"><ele>1171.0</ele><time>2026-05-03T08:31:00.949Z</time></trkpt><trkpt lat="44.1388305" lon="7.7852973"><ele>1171.0</ele><time>2026-05-03T08:31:01.945Z</time></trkpt><trkpt lat="44.1389617" lon="7.7851876"><ele>1171.0</ele><time>2026-05-03T08:31:02.951Z</time></trkpt><trkpt lat="44.1390798" lon="7.7850241"><ele>1171.3333333333333</ele><time>2026-05-03T08:31:03.941Z</time></trkpt><trkpt lat="44.1391896" lon="7.7848475"><ele>1171.6666666666667</ele><time>2026-05-03T08:31:04.949Z</time></trkpt><trkpt lat="44.1392828" lon="7.7846641"><ele>1172.0</ele><time>2026-05-03T08:31:05.95Z</time></trkpt><trkpt lat="44.1394" lon="7.7844658"><ele>1165.6666666666667</ele><time>2026-05-03T08:31:06.956Z</time></trkpt><trkpt lat="44.1395282" lon="7.7842627"><ele>1159.3333333333333</ele><time>2026-05-03T08:31:07.954Z</time></trkpt><trkpt lat="44.1396529" lon="7.7840503"><ele>1153.0</ele><time>2026-05-03T08:31:08.959Z</time></trkpt><trkpt lat="44.1397593" lon="7.7838521"><ele>1153.0</ele><time>2026-05-03T08:31:09.955Z</time></trkpt><trkpt lat="44.1398396" lon="7.7836587"><ele>1153.0</ele><time>2026-05-03T08:31:10.954Z</time></trkpt><trkpt lat="44.139891" lon="7.7834659"><ele>1153.0</ele><time>2026-05-03T08:31:11.956Z</time></trkpt><trkpt lat="44.1398986" lon="7.78325"><ele>1151.3333333333333</ele><time>2026-05-03T08:31:12.957Z</time></trkpt><trkpt lat="44.1398739" lon="7.7830316"><ele>1149.6666666666667</ele><time>2026-05-03T08:31:13.961Z</time></trkpt><trkpt lat="44.1398142" lon="7.7828428"><ele>1148.0</ele><time>2026-05-03T08:31:14.957Z</time></trkpt><trkpt lat="44.1397472" lon="7.7826114"><ele>1148.0</ele><time>2026-05-03T08:31:15.959Z</time></trkpt><trkpt lat="44.1396839" lon="7.7823812"><ele>1148.0</ele><time>2026-05-03T08:31:16.955Z</time></trkpt><trkpt lat="44.1396552" lon="7.7821382"><ele>1148.0</ele><time>2026-05-03T08:31:17.959Z</time></trkpt><trkpt lat="44.1396382" lon="7.7818901"><ele>1147.3333333333335</ele><time>2026-05-03T08:31:18.959Z</time></trkpt><trkpt lat="44.1396447" lon="7.7816494"><ele>1146.6666666666667</ele><time>2026-05-03T08:31:19.955Z</time></trkpt><trkpt lat="44.1396361" lon="7.7814315"><ele>1146.0</ele><time>2026-05-03T08:31:20.955Z</time></trkpt><trkpt lat="44.1396249" lon="7.7812249"><ele>1146.0</ele><time>2026-05-03T08:31:21.96Z</time></trkpt><trkpt lat="44.1396294" lon="7.7810319"><ele>1146.0</ele><time>2026-05-03T08:31:22.956Z</time></trkpt><trkpt lat="44.139668" lon="7.7808589"><ele>1146.0</ele><time>2026-05-03T08:31:23.964Z</time></trkpt><trkpt lat="44.1397368" lon="7.7807054"><ele>1146.0</ele><time>2026-05-03T08:31:24.947Z</time></trkpt><trkpt lat="44.1398259" lon="7.7805715"><ele>1152.3333333333333</ele><time>2026-05-03T08:31:25.963Z</time></trkpt><trkpt lat="44.1399038" lon="7.7804936"><ele>1158.6666666666667</ele><time>2026-05-03T08:31:26.964Z</time></trkpt><trkpt lat="44.1399721" lon="7.780484"><ele>1165.0</ele><time>2026-05-03T08:31:27.962Z</time></trkpt><trkpt lat="44.1400405" lon="7.7805429"><ele>1171.3333333333335</ele><time>2026-05-03T08:31:28.961Z</time></trkpt><trkpt lat="44.1400646" lon="7.7806401"><ele>1177.6666666666667</ele><time>2026-05-03T08:31:29.96Z</time></trkpt><trkpt lat="44.1400629" lon="7.7807658"><ele>1184.0</ele><time>2026-05-03T08:31:30.955Z</time></trkpt><trkpt lat="44.14004" lon="7.7809086"><ele>1184.75</ele><time>2026-05-03T08:31:31.957Z</time></trkpt><trkpt lat="44.1400387" lon="7.7810552"><ele>1185.5</ele><time>2026-05-03T08:31:32.959Z</time></trkpt><trkpt lat="44.140061" lon="7.7812008"><ele>1186.25</ele><time>2026-05-03T08:31:33.962Z</time></trkpt><trkpt lat="44.1400889" lon="7.7813577"><ele>1187.0</ele><time>2026-05-03T08:31:34.953Z</time></trkpt><trkpt lat="44.140123" lon="7.7815212"><ele>1187.0</ele><time>2026-05-03T08:31:35.963Z</time></trkpt><trkpt lat="44.140167" lon="7.7816718"><ele>1187.0</ele><time>2026-05-03T08:31:36.96Z</time></trkpt><trkpt lat="44.1402189" lon="7.7818099"><ele>1187.0</ele><time>2026-05-03T08:31:37.956Z</time></trkpt><trkpt lat="44.1402756" lon="7.781952"><ele>1187.0</ele><time>2026-05-03T08:31:38.954Z</time></trkpt><trkpt lat="44.1403319" lon="7.7821084"><ele>1187.25</ele><time>2026-05-03T08:31:39.953Z</time></trkpt><trkpt lat="44.140389" lon="7.7822804"><ele>1187.5</ele><time>2026-05-03T08:31:40.965Z</time></trkpt><trkpt lat="44.1404334" lon="7.782474"><ele>1187.75</ele><time>2026-05-03T08:31:41.956Z</time></trkpt><trkpt lat="44.1404734" lon="7.782671"><ele>1188.0</ele><time>2026-05-03T08:31:42.966Z</time></trkpt><trkpt lat="44.1405276" lon="7.7828645"><ele>1186.3333333333333</ele><time>2026-05-03T08:31:43.952Z</time></trkpt><trkpt lat="44.1406027" lon="7.7830477"><ele>1184.6666666666665</ele><time>2026-05-03T08:31:44.963Z</time></trkpt><trkpt lat="44.1407019" lon="7.7832236"><ele>1183.0</ele><time>2026-05-03T08:31:45.965Z</time></trkpt><trkpt lat="44.1408215" lon="7.7833664"><ele>1192.0</ele><time>2026-05-03T08:31:46.959Z</time></trkpt><trkpt lat="44.1409555" lon="7.7835006"><ele>1201.0</ele><time>2026-05-03T08:31:47.947Z</time></trkpt><trkpt lat="44.1411006" lon="7.7836153"><ele>1210.0</ele><time>2026-05-03T08:31:48.952Z</time></trkpt><trkpt lat="44.1412577" lon="7.7837204"><ele>1214.0</ele><time>2026-05-03T08:31:49.955Z</time></trkpt><trkpt lat="44.1414281" lon="7.7837975"><ele>1218.0</ele><time>2026-05-03T08:31:50.95Z</time></trkpt><trkpt lat="44.1416082" lon="7.7838438"><ele>1222.0</ele><time>2026-05-03T08:31:51.957Z</time></trkpt><trkpt lat="44.1417816" lon="7.7838986"><ele>1226.3333333333333</ele><time>2026-05-03T08:31:52.958Z</time></trkpt><trkpt lat="44.1419611" lon="7.7839497"><ele>1230.6666666666667</ele><time>2026-05-03T08:31:53.96Z</time></trkpt><trkpt lat="44.1421475" lon="7.7840086"><ele>1235.0</ele><time>2026-05-03T08:31:54.957Z</time></trkpt><trkpt lat="44.1423259" lon="7.7840621"><ele>1236.0</ele><time>2026-05-03T08:31:55.961Z</time></trkpt><trkpt lat="44.1425212" lon="7.7841234"><ele>1237.0</ele><time>2026-05-03T08:31:56.967Z</time></trkpt><trkpt lat="44.1427118" lon="7.7841723"><ele>1238.0</ele><time>2026-05-03T08:31:57.957Z</time></trkpt><trkpt lat="44.1428934" lon="7.7842337"><ele>1238.0</ele><time>2026-05-03T08:31:58.962Z</time></trkpt><trkpt lat="44.1430688" lon="7.7842969"><ele>1238.0</ele><time>2026-05-03T08:31:59.946Z</time></trkpt><trkpt lat="44.1432431" lon="7.7843575"><ele>1238.0</ele><time>2026-05-03T08:32:00.948Z</time></trkpt><trkpt lat="44.1434123" lon="7.7844099"><ele>1248.0</ele><time>2026-05-03T08:32:01.963Z</time></trkpt><trkpt lat="44.1435716" lon="7.7844544"><ele>1258.0</ele><time>2026-05-03T08:32:02.96Z</time></trkpt><trkpt lat="44.1437206" lon="7.7845002"><ele>1268.0</ele><time>2026-05-03T08:32:03.961Z</time></trkpt><trkpt lat="44.143852" lon="7.7845429"><ele>1268.0</ele><time>2026-05-03T08:32:04.967Z</time></trkpt><trkpt lat="44.1439688" lon="7.7845871"><ele>1268.0</ele><time>2026-05-03T08:32:05.959Z</time></trkpt><trkpt lat="44.1440768" lon="7.784641"><ele>1268.0</ele><time>2026-05-03T08:32:06.958Z</time></trkpt><trkpt lat="44.144178" lon="7.7846996"><ele>1268.0</ele><time>2026-05-03T08:32:07.956Z</time></trkpt><trkpt lat="44.1442919" lon="7.7847119"><ele>1266.2</ele><time>2026-05-03T08:32:08.964Z</time></trkpt><trkpt lat="44.1444008" lon="7.7846817"><ele>1264.4</ele><time>2026-05-03T08:32:09.95Z</time></trkpt><trkpt lat="44.1444888" lon="7.7845773"><ele>1262.6000000000001</ele><time>2026-05-03T08:32:10.955Z</time></trkpt><trkpt lat="44.1445601" lon="7.7844595"><ele>1260.8</ele><time>2026-05-03T08:32:11.955Z</time></trkpt><trkpt lat="44.1446193" lon="7.7843473"><ele>1259.0</ele><time>2026-05-03T08:32:12.954Z</time></trkpt><trkpt lat="44.1446749" lon="7.7842261"><ele>1254.4</ele><time>2026-05-03T08:32:13.963Z</time></trkpt><trkpt lat="44.1447077" lon="7.7840966"><ele>1249.8000000000002</ele><time>2026-05-03T08:32:14.951Z</time></trkpt><trkpt lat="44.1446793" lon="7.7839768"><ele>1245.1999999999998</ele><time>2026-05-03T08:32:15.962Z</time></trkpt><trkpt lat="44.1446072" lon="7.7838696"><ele>1240.6</ele><time>2026-05-03T08:32:16.958Z</time></trkpt><trkpt lat="44.1445336" lon="7.783797"><ele>1236.0</ele><time>2026-05-03T08:32:17.949Z</time></trkpt><trkpt lat="44.1444472" lon="7.7837457"><ele>1236.0</ele><time>2026-05-03T08:32:18.954Z</time></trkpt><trkpt lat="44.1443549" lon="7.7837123"><ele>1236.0</ele><time>2026-05-03T08:32:19.954Z</time></trkpt><trkpt lat="44.1442577" lon="7.7836865"><ele>1236.0</ele><time>2026-05-03T08:32:20.959Z</time></trkpt><trkpt lat="44.1441689" lon="7.7836649"><ele>1236.0</ele><time>2026-05-03T08:32:21.955Z</time></trkpt><trkpt lat="44.1440878" lon="7.7836362"><ele>1236.0</ele><time>2026-05-03T08:32:22.962Z</time></trkpt><trkpt lat="44.1440229" lon="7.7835984"><ele>1236.0</ele><time>2026-05-03T08:32:23.968Z</time></trkpt><trkpt lat="44.1439191" lon="7.7835043"><ele>1235.3333333333333</ele><time>2026-05-03T08:32:25.966Z</time></trkpt><trkpt lat="44.1438831" lon="7.7834284"><ele>1234.6666666666667</ele><time>2026-05-03T08:32:26.954Z</time></trkpt><trkpt lat="44.1438548" lon="7.7833283"><ele>1234.0</ele><time>2026-05-03T08:32:27.957Z</time></trkpt><trkpt lat="44.1438356" lon="7.7832194"><ele>1233.3333333333335</ele><time>2026-05-03T08:32:28.96Z</time></trkpt><trkpt lat="44.1438158" lon="7.7830917"><ele>1232.6666666666667</ele><time>2026-05-03T08:32:29.958Z</time></trkpt><trkpt lat="44.1437913" lon="7.782956"><ele>1232.0</ele><time>2026-05-03T08:32:30.959Z</time></trkpt><trkpt lat="44.1437649" lon="7.7828144"><ele>1232.0</ele><time>2026-05-03T08:32:31.965Z</time></trkpt><trkpt lat="44.1437419" lon="7.7826813"><ele>1232.0</ele><time>2026-05-03T08:32:32.961Z</time></trkpt><trkpt lat="44.1437243" lon="7.7825548"><ele>1232.0</ele><time>2026-05-03T08:32:33.962Z</time></trkpt><trkpt lat="44.1437024" lon="7.7824208"><ele>1232.0</ele><time>2026-05-03T08:32:34.961Z</time></trkpt><trkpt lat="44.1436943" lon="7.7822895"><ele>1232.0</ele><time>2026-05-03T08:32:35.963Z</time></trkpt><trkpt lat="44.1436885" lon="7.782149"><ele>1231.8</ele><time>2026-05-03T08:32:36.954Z</time></trkpt><trkpt lat="44.1436785" lon="7.782004"><ele>1231.6</ele><time>2026-05-03T08:32:37.957Z</time></trkpt><trkpt lat="44.1436727" lon="7.7818503"><ele>1231.3999999999999</ele><time>2026-05-03T08:32:38.963Z</time></trkpt><trkpt lat="44.1436589" lon="7.7817038"><ele>1231.2</ele><time>2026-05-03T08:32:39.959Z</time></trkpt><trkpt lat="44.143657" lon="7.781542"><ele>1231.0</ele><time>2026-05-03T08:32:40.961Z</time></trkpt><trkpt lat="44.1436678" lon="7.7813774"><ele>1231.0</ele><time>2026-05-03T08:32:41.958Z</time></trkpt><trkpt lat="44.1436896" lon="7.7812035"><ele>1231.0</ele><time>2026-05-03T08:32:42.968Z</time></trkpt><trkpt lat="44.1437185" lon="7.7810143"><ele>1231.0</ele><time>2026-05-03T08:32:43.96Z</time></trkpt><trkpt lat="44.1437339" lon="7.780819"><ele>1231.0</ele><time>2026-05-03T08:32:44.958Z</time></trkpt><trkpt lat="44.143722" lon="7.7806173"><ele>1231.25</ele><time>2026-05-03T08:32:45.959Z</time></trkpt><trkpt lat="44.1436767" lon="7.7804297"><ele>1231.5</ele><time>2026-05-03T08:32:46.958Z</time></trkpt><trkpt lat="44.1436171" lon="7.7802528"><ele>1231.75</ele><time>2026-05-03T08:32:47.964Z</time></trkpt><trkpt lat="44.1435697" lon="7.7800678"><ele>1232.0</ele><time>2026-05-03T08:32:48.955Z</time></trkpt><trkpt lat="44.1435602" lon="7.7798778"><ele>1232.0</ele><time>2026-05-03T08:32:49.963Z</time></trkpt><trkpt lat="44.1435749" lon="7.7796939"><ele>1232.0</ele><time>2026-05-03T08:32:50.952Z</time></trkpt><trkpt lat="44.1435887" lon="7.7795085"><ele>1232.0</ele><time>2026-05-03T08:32:51.956Z</time></trkpt><trkpt lat="44.1435878" lon="7.7793149"><ele>1232.0</ele><time>2026-05-03T08:32:52.957Z</time></trkpt><trkpt lat="44.1435694" lon="7.7791101"><ele>1232.0</ele><time>2026-05-03T08:32:53.958Z</time></trkpt><trkpt lat="44.1435697" lon="7.7789241"><ele>1232.0</ele><time>2026-05-03T08:32:54.96Z</time></trkpt><trkpt lat="44.1435967" lon="7.7787693"><ele>1232.0</ele><time>2026-05-03T08:32:55.951Z</time></trkpt><trkpt lat="44.143645" lon="7.7786085"><ele>1232.0</ele><time>2026-05-03T08:32:56.959Z</time></trkpt><trkpt lat="44.1436908" lon="7.7784355"><ele>1232.0</ele><time>2026-05-03T08:32:57.953Z</time></trkpt><trkpt lat="44.1437287" lon="7.778234"><ele>1232.0</ele><time>2026-05-03T08:32:58.958Z</time></trkpt><trkpt lat="44.1437511" lon="7.7780274"><ele>1232.0</ele><time>2026-05-03T08:32:59.952Z</time></trkpt><trkpt lat="44.143774" lon="7.7778327"><ele>1232.0</ele><time>2026-05-03T08:33:00.953Z</time></trkpt><trkpt lat="44.1437994" lon="7.7776648"><ele>1232.0</ele><time>2026-05-03T08:33:01.956Z</time></trkpt><trkpt lat="44.1438474" lon="7.7775136"><ele>1232.0</ele><time>2026-05-03T08:33:02.955Z</time></trkpt><trkpt lat="44.1439071" lon="7.7773753"><ele>1232.0</ele><time>2026-05-03T08:33:03.95Z</time></trkpt><trkpt lat="44.1439677" lon="7.7772328"><ele>1232.0</ele><time>2026-05-03T08:33:04.951Z</time></trkpt><trkpt lat="44.1440184" lon="7.7770733"><ele>1240.3333333333335</ele><time>2026-05-03T08:33:05.96Z</time></trkpt><trkpt lat="44.1440507" lon="7.776866"><ele>1248.6666666666667</ele><time>2026-05-03T08:33:06.956Z</time></trkpt><trkpt lat="44.1440769" lon="7.7766356"><ele>1257.0</ele><time>2026-05-03T08:33:07.952Z</time></trkpt><trkpt lat="44.1441072" lon="7.7763826"><ele>1257.0</ele><time>2026-05-03T08:33:08.959Z</time></trkpt><trkpt lat="44.1441317" lon="7.7761227"><ele>1257.0</ele><time>2026-05-03T08:33:09.954Z</time></trkpt><trkpt lat="44.1441714" lon="7.7758706"><ele>1257.0</ele><time>2026-05-03T08:33:10.954Z</time></trkpt><trkpt lat="44.1442305" lon="7.7756358"><ele>1256.0</ele><time>2026-05-03T08:33:11.957Z</time></trkpt><trkpt lat="44.1443102" lon="7.7754165"><ele>1255.0</ele><time>2026-05-03T08:33:12.959Z</time></trkpt><trkpt lat="44.1443859" lon="7.7752125"><ele>1254.0</ele><time>2026-05-03T08:33:13.951Z</time></trkpt><trkpt lat="44.1444502" lon="7.7750057"><ele>1250.0</ele><time>2026-05-03T08:33:14.956Z</time></trkpt><trkpt lat="44.1445187" lon="7.7748052"><ele>1246.0</ele><time>2026-05-03T08:33:15.955Z</time></trkpt><trkpt lat="44.144614" lon="7.7745965"><ele>1242.0</ele><time>2026-05-03T08:33:16.956Z</time></trkpt><trkpt lat="44.1447378" lon="7.7743953"><ele>1236.3333333333333</ele><time>2026-05-03T08:33:17.966Z</time></trkpt><trkpt lat="44.1448501" lon="7.7741939"><ele>1230.6666666666665</ele><time>2026-05-03T08:33:18.955Z</time></trkpt><trkpt lat="44.1449399" lon="7.7740111"><ele>1225.0</ele><time>2026-05-03T08:33:19.955Z</time></trkpt><trkpt lat="44.1450174" lon="7.773836"><ele>1235.0</ele><time>2026-05-03T08:33:20.952Z</time></trkpt><trkpt lat="44.1450611" lon="7.7736527"><ele>1245.0</ele><time>2026-05-03T08:33:21.954Z</time></trkpt><trkpt lat="44.1450715" lon="7.7734624"><ele>1255.0</ele><time>2026-05-03T08:33:22.949Z</time></trkpt><trkpt lat="44.1450736" lon="7.7732413"><ele>1265.0</ele><time>2026-05-03T08:33:23.962Z</time></trkpt><trkpt lat="44.1450619" lon="7.7729961"><ele>1265.0</ele><time>2026-05-03T08:33:24.951Z</time></trkpt><trkpt lat="44.1450724" lon="7.7727684"><ele>1265.0</ele><time>2026-05-03T08:33:25.958Z</time></trkpt><trkpt lat="44.1451003" lon="7.7725451"><ele>1265.0</ele><time>2026-05-03T08:33:26.952Z</time></trkpt><trkpt lat="44.1451377" lon="7.7723556"><ele>1266.25</ele><time>2026-05-03T08:33:27.954Z</time></trkpt><trkpt lat="44.1451496" lon="7.772189"><ele>1267.5</ele><time>2026-05-03T08:33:28.957Z</time></trkpt><trkpt lat="44.1451143" lon="7.7720426"><ele>1268.75</ele><time>2026-05-03T08:33:29.952Z</time></trkpt><trkpt lat="44.1450344" lon="7.7718984"><ele>1270.0</ele><time>2026-05-03T08:33:30.954Z</time></trkpt><trkpt lat="44.1449353" lon="7.7717965"><ele>1263.75</ele><time>2026-05-03T08:33:31.951Z</time></trkpt><trkpt lat="44.1448025" lon="7.7717185"><ele>1257.5</ele><time>2026-05-03T08:33:32.953Z</time></trkpt><trkpt lat="44.1446812" lon="7.7716279"><ele>1251.25</ele><time>2026-05-03T08:33:33.966Z</time></trkpt><trkpt lat="44.1445912" lon="7.7714984"><ele>1245.0</ele><time>2026-05-03T08:33:34.96Z</time></trkpt><trkpt lat="44.1445445" lon="7.7713569"><ele>1245.0</ele><time>2026-05-03T08:33:35.964Z</time></trkpt><trkpt lat="44.1445112" lon="7.7712008"><ele>1245.0</ele><time>2026-05-03T08:33:36.957Z</time></trkpt><trkpt lat="44.1445065" lon="7.7710354"><ele>1245.0</ele><time>2026-05-03T08:33:37.955Z</time></trkpt><trkpt lat="44.1445239" lon="7.7708277"><ele>1245.0</ele><time>2026-05-03T08:33:38.949Z</time></trkpt><trkpt lat="44.1445465" lon="7.77061"><ele>1246.3333333333333</ele><time>2026-05-03T08:33:39.951Z</time></trkpt><trkpt lat="44.1445707" lon="7.7703802"><ele>1247.6666666666665</ele><time>2026-05-03T08:33:40.964Z</time></trkpt><trkpt lat="44.1446054" lon="7.7701744"><ele>1249.0</ele><time>2026-05-03T08:33:41.957Z</time></trkpt><trkpt lat="44.1446646" lon="7.7699897"><ele>1249.0</ele><time>2026-05-03T08:33:42.953Z</time></trkpt><trkpt lat="44.1447166" lon="7.7698104"><ele>1249.0</ele><time>2026-05-03T08:33:43.955Z</time></trkpt><trkpt lat="44.1447343" lon="7.7696487"><ele>1249.0</ele><time>2026-05-03T08:33:44.958Z</time></trkpt><trkpt lat="44.1447107" lon="7.7694834"><ele>1249.0</ele><time>2026-05-03T08:33:45.947Z</time></trkpt><trkpt lat="44.1446839" lon="7.7693046"><ele>1250.0</ele><time>2026-05-03T08:33:46.963Z</time></trkpt><trkpt lat="44.1446658" lon="7.7691241"><ele>1251.0</ele><time>2026-05-03T08:33:47.961Z</time></trkpt><trkpt lat="44.1446412" lon="7.768957"><ele>1252.0</ele><time>2026-05-03T08:33:48.964Z</time></trkpt><trkpt lat="44.144582" lon="7.7687844"><ele>1253.0</ele><time>2026-05-03T08:33:49.958Z</time></trkpt><trkpt lat="44.1444963" lon="7.768608"><ele>1258.3333333333335</ele><time>2026-05-03T08:33:50.951Z</time></trkpt><trkpt lat="44.1443975" lon="7.7684282"><ele>1263.6666666666667</ele><time>2026-05-03T08:33:51.958Z</time></trkpt><trkpt lat="44.1443162" lon="7.7682407"><ele>1269.0</ele><time>2026-05-03T08:33:52.953Z</time></trkpt><trkpt lat="44.1442698" lon="7.768035"><ele>1269.0</ele><time>2026-05-03T08:33:53.953Z</time></trkpt><trkpt lat="44.1442504" lon="7.7678238"><ele>1269.0</ele><time>2026-05-03T08:33:54.962Z</time></trkpt><trkpt lat="44.1442513" lon="7.7676114"><ele>1269.0</ele><time>2026-05-03T08:33:55.956Z</time></trkpt><trkpt lat="44.14425" lon="7.767388"><ele>1271.25</ele><time>2026-05-03T08:33:56.965Z</time></trkpt><trkpt lat="44.1442582" lon="7.7671663"><ele>1273.5</ele><time>2026-05-03T08:33:57.955Z</time></trkpt><trkpt lat="44.1442654" lon="7.7669717"><ele>1275.75</ele><time>2026-05-03T08:33:58.962Z</time></trkpt><trkpt lat="44.1442504" lon="7.7668017"><ele>1278.0</ele><time>2026-05-03T08:33:59.953Z</time></trkpt><trkpt lat="44.1441994" lon="7.7666724"><ele>1280.25</ele><time>2026-05-03T08:34:00.954Z</time></trkpt><trkpt lat="44.1441229" lon="7.7665827"><ele>1282.5</ele><time>2026-05-03T08:34:01.958Z</time></trkpt><trkpt lat="44.144031" lon="7.7665806"><ele>1284.75</ele><time>2026-05-03T08:34:02.954Z</time></trkpt><trkpt lat="44.1438964" lon="7.7666116"><ele>1287.0</ele><time>2026-05-03T08:34:03.954Z</time></trkpt><trkpt lat="44.1437474" lon="7.7666412"><ele>1287.0</ele><time>2026-05-03T08:34:04.959Z</time></trkpt><trkpt lat="44.143577" lon="7.7666664"><ele>1287.0</ele><time>2026-05-03T08:34:05.953Z</time></trkpt><trkpt lat="44.143424" lon="7.7666784"><ele>1287.0</ele><time>2026-05-03T08:34:06.962Z</time></trkpt><trkpt lat="44.1432816" lon="7.7666711"><ele>1281.6</ele><time>2026-05-03T08:34:07.956Z</time></trkpt><trkpt lat="44.1431641" lon="7.7666105"><ele>1276.1999999999998</ele><time>2026-05-03T08:34:08.973Z</time></trkpt><trkpt lat="44.1430685" lon="7.7665132"><ele>1270.8</ele><time>2026-05-03T08:34:09.945Z</time></trkpt><trkpt lat="44.1430089" lon="7.7663955"><ele>1265.4</ele><time>2026-05-03T08:34:10.948Z</time></trkpt><trkpt lat="44.1429882" lon="7.7662704"><ele>1260.0</ele><time>2026-05-03T08:34:11.957Z</time></trkpt><trkpt lat="44.1429882" lon="7.7661179"><ele>1258.0</ele><time>2026-05-03T08:34:12.947Z</time></trkpt><trkpt lat="44.1430271" lon="7.7659722"><ele>1256.0</ele><time>2026-05-03T08:34:13.962Z</time></trkpt><trkpt lat="44.1430906" lon="7.7658076"><ele>1254.0</ele><time>2026-05-03T08:34:14.952Z</time></trkpt><trkpt lat="44.1431613" lon="7.7656448"><ele>1252.0</ele><time>2026-05-03T08:34:15.954Z</time></trkpt><trkpt lat="44.143229" lon="7.7654753"><ele>1263.3333333333333</ele><time>2026-05-03T08:34:16.954Z</time></trkpt><trkpt lat="44.1433011" lon="7.7652931"><ele>1274.6666666666667</ele><time>2026-05-03T08:34:17.959Z</time></trkpt><trkpt lat="44.1433556" lon="7.7650867"><ele>1286.0</ele><time>2026-05-03T08:34:18.954Z</time></trkpt><trkpt lat="44.1433898" lon="7.7648705"><ele>1286.0</ele><time>2026-05-03T08:34:19.955Z</time></trkpt><trkpt lat="44.143417" lon="7.7646669"><ele>1286.0</ele><time>2026-05-03T08:34:20.954Z</time></trkpt><trkpt lat="44.1434343" lon="7.7644794"><ele>1286.0</ele><time>2026-05-03T08:34:21.953Z</time></trkpt><trkpt lat="44.143442" lon="7.7642967"><ele>1286.0</ele><time>2026-05-03T08:34:22.952Z</time></trkpt><trkpt lat="44.1434368" lon="7.7641453"><ele>1283.3999999999999</ele><time>2026-05-03T08:34:23.955Z</time></trkpt><trkpt lat="44.143435" lon="7.7640066"><ele>1280.8</ele><time>2026-05-03T08:34:24.952Z</time></trkpt><trkpt lat="44.1434484" lon="7.7638821"><ele>1278.1999999999998</ele><time>2026-05-03T08:34:25.952Z</time></trkpt><trkpt lat="44.1434935" lon="7.7637651"><ele>1275.6</ele><time>2026-05-03T08:34:26.949Z</time></trkpt><trkpt lat="44.1435563" lon="7.7636466"><ele>1273.0</ele><time>2026-05-03T08:34:27.956Z</time></trkpt><trkpt lat="44.1436349" lon="7.7635381"><ele>1270.25</ele><time>2026-05-03T08:34:28.954Z</time></trkpt><trkpt lat="44.1437326" lon="7.7634859"><ele>1267.5</ele><time>2026-05-03T08:34:29.963Z</time></trkpt><trkpt lat="44.1438399" lon="7.7634212"><ele>1264.75</ele><time>2026-05-03T08:34:30.946Z</time></trkpt><trkpt lat="44.1439428" lon="7.7633481"><ele>1262.0</ele><time>2026-05-03T08:34:31.952Z</time></trkpt><trkpt lat="44.1440335" lon="7.7632551"><ele>1269.6</ele><time>2026-05-03T08:34:32.957Z</time></trkpt><trkpt lat="44.1441015" lon="7.763134"><ele>1277.2</ele><time>2026-05-03T08:34:33.947Z</time></trkpt><trkpt lat="44.1441541" lon="7.7629961"><ele>1284.8</ele><time>2026-05-03T08:34:34.954Z</time></trkpt><trkpt lat="44.1441962" lon="7.7628585"><ele>1292.4</ele><time>2026-05-03T08:34:35.951Z</time></trkpt><trkpt lat="44.1442206" lon="7.7627154"><ele>1300.0</ele><time>2026-05-03T08:34:36.953Z</time></trkpt><trkpt lat="44.1442262" lon="7.7625627"><ele>1300.0</ele><time>2026-05-03T08:34:37.951Z</time></trkpt><trkpt lat="44.1442097" lon="7.7624074"><ele>1300.0</ele><time>2026-05-03T08:34:38.949Z</time></trkpt><trkpt lat="44.1441575" lon="7.762257"><ele>1300.0</ele><time>2026-05-03T08:34:39.954Z</time></trkpt><trkpt lat="44.144091" lon="7.7621033"><ele>1300.0</ele><time>2026-05-03T08:34:40.956Z</time></trkpt><trkpt lat="44.1440451" lon="7.7619645"><ele>1301.2</ele><time>2026-05-03T08:34:41.959Z</time></trkpt><trkpt lat="44.1440312" lon="7.7618297"><ele>1302.4</ele><time>2026-05-03T08:34:42.957Z</time></trkpt><trkpt lat="44.144016" lon="7.7617051"><ele>1303.6</ele><time>2026-05-03T08:34:43.95Z</time></trkpt><trkpt lat="44.1440322" lon="7.7615805"><ele>1304.8</ele><time>2026-05-03T08:34:44.961Z</time></trkpt><trkpt lat="44.1440737" lon="7.7614551"><ele>1306.0</ele><time>2026-05-03T08:34:45.962Z</time></trkpt><trkpt lat="44.1441377" lon="7.7613372"><ele>1306.0</ele><time>2026-05-03T08:34:46.95Z</time></trkpt><trkpt lat="44.1441879" lon="7.7612046"><ele>1306.0</ele><time>2026-05-03T08:34:47.953Z</time></trkpt><trkpt lat="44.1442067" lon="7.7610382"><ele>1306.0</ele><time>2026-05-03T08:34:48.955Z</time></trkpt><trkpt lat="44.1442141" lon="7.7608802"><ele>1306.0</ele><time>2026-05-03T08:34:49.962Z</time></trkpt><trkpt lat="44.1442097" lon="7.7607401"><ele>1306.0</ele><time>2026-05-03T08:34:50.969Z</time></trkpt><trkpt lat="44.1441929" lon="7.7606048"><ele>1305.6</ele><time>2026-05-03T08:34:51.962Z</time></trkpt><trkpt lat="44.1441761" lon="7.7604736"><ele>1305.1999999999998</ele><time>2026-05-03T08:34:52.954Z</time></trkpt><trkpt lat="44.1441483" lon="7.7603396"><ele>1304.8000000000002</ele><time>2026-05-03T08:34:53.95Z</time></trkpt><trkpt lat="44.1441121" lon="7.7602098"><ele>1304.4</ele><time>2026-05-03T08:34:54.973Z</time></trkpt><trkpt lat="44.1440606" lon="7.7600913"><ele>1304.0</ele><time>2026-05-03T08:34:55.958Z</time></trkpt><trkpt lat="44.1439785" lon="7.760001"><ele>1301.1666666666667</ele><time>2026-05-03T08:34:56.956Z</time></trkpt><trkpt lat="44.1438885" lon="7.7599461"><ele>1298.3333333333335</ele><time>2026-05-03T08:34:57.957Z</time></trkpt><trkpt lat="44.1438023" lon="7.7599003"><ele>1295.5</ele><time>2026-05-03T08:34:58.955Z</time></trkpt><trkpt lat="44.1437273" lon="7.7598399"><ele>1292.6666666666667</ele><time>2026-05-03T08:34:59.956Z</time></trkpt><trkpt lat="44.1436716" lon="7.7597598"><ele>1289.8333333333333</ele><time>2026-05-03T08:35:00.955Z</time></trkpt><trkpt lat="44.1436403" lon="7.759658"><ele>1287.0</ele><time>2026-05-03T08:35:01.955Z</time></trkpt><trkpt lat="44.1436398" lon="7.7595478"><ele>1287.0</ele><time>2026-05-03T08:35:02.953Z</time></trkpt><trkpt lat="44.1436548" lon="7.7594403"><ele>1287.0</ele><time>2026-05-03T08:35:03.953Z</time></trkpt><trkpt lat="44.1436915" lon="7.7593214"><ele>1287.0</ele><time>2026-05-03T08:35:04.959Z</time></trkpt><trkpt lat="44.1437123" lon="7.7591817"><ele>1287.0</ele><time>2026-05-03T08:35:05.959Z</time></trkpt><trkpt lat="44.1437215" lon="7.7590396"><ele>1287.0</ele><time>2026-05-03T08:35:06.956Z</time></trkpt><trkpt lat="44.1437193" lon="7.7589155"><ele>1286.3999999999999</ele><time>2026-05-03T08:35:07.952Z</time></trkpt><trkpt lat="44.1437303" lon="7.7588058"><ele>1285.8</ele><time>2026-05-03T08:35:08.96Z</time></trkpt><trkpt lat="44.1437547" lon="7.7586887"><ele>1285.2</ele><time>2026-05-03T08:35:09.952Z</time></trkpt><trkpt lat="44.1437916" lon="7.7585481"><ele>1284.6</ele><time>2026-05-03T08:35:10.969Z</time></trkpt><trkpt lat="44.1438347" lon="7.7584055"><ele>1284.0</ele><time>2026-05-03T08:35:11.961Z</time></trkpt><trkpt lat="44.1438938" lon="7.7582671"><ele>1280.8</ele><time>2026-05-03T08:35:12.953Z</time></trkpt><trkpt lat="44.143961" lon="7.7581509"><ele>1277.6000000000001</ele><time>2026-05-03T08:35:13.958Z</time></trkpt><trkpt lat="44.1440339" lon="7.758045"><ele>1274.4</ele><time>2026-05-03T08:35:14.96Z</time></trkpt><trkpt lat="44.1441126" lon="7.757945"><ele>1271.2</ele><time>2026-05-03T08:35:15.96Z</time></trkpt><trkpt lat="44.1441825" lon="7.7578442"><ele>1268.0</ele><time>2026-05-03T08:35:16.955Z</time></trkpt><trkpt lat="44.1442353" lon="7.7577619"><ele>1271.0</ele><time>2026-05-03T08:35:17.947Z</time></trkpt><trkpt lat="44.1442811" lon="7.7576782"><ele>1274.0</ele><time>2026-05-03T08:35:18.962Z</time></trkpt><trkpt lat="44.1443172" lon="7.7575883"><ele>1277.0</ele><time>2026-05-03T08:35:19.959Z</time></trkpt><trkpt lat="44.1443432" lon="7.7575043"><ele>1280.0</ele><time>2026-05-03T08:35:20.957Z</time></trkpt><trkpt lat="44.1443898" lon="7.7573386"><ele>1283.0</ele><time>2026-05-03T08:35:22.951Z</time></trkpt><trkpt lat="44.1444109" lon="7.7572421"><ele>1286.0</ele><time>2026-05-03T08:35:23.952Z</time></trkpt><trkpt lat="44.1444146" lon="7.757133"><ele>1286.0</ele><time>2026-05-03T08:35:24.958Z</time></trkpt><trkpt lat="44.1443718" lon="7.7569844"><ele>1286.0</ele><time>2026-05-03T08:35:25.954Z</time></trkpt><trkpt lat="44.1443119" lon="7.7568538"><ele>1286.0</ele><time>2026-05-03T08:35:26.955Z</time></trkpt><trkpt lat="44.1442623" lon="7.756727"><ele>1286.0</ele><time>2026-05-03T08:35:27.95Z</time></trkpt><trkpt lat="44.1442646" lon="7.7565758"><ele>1286.0</ele><time>2026-05-03T08:35:28.949Z</time></trkpt><trkpt lat="44.1443601" lon="7.7563938"><ele>1283.3333333333335</ele><time>2026-05-03T08:35:29.965Z</time></trkpt><trkpt lat="44.1444525" lon="7.7561688"><ele>1280.6666666666667</ele><time>2026-05-03T08:35:30.953Z</time></trkpt><trkpt lat="44.1445537" lon="7.755925"><ele>1278.0</ele><time>2026-05-03T08:35:31.955Z</time></trkpt><trkpt lat="44.1446514" lon="7.755666"><ele>1280.6666666666667</ele><time>2026-05-03T08:35:32.951Z</time></trkpt><trkpt lat="44.1447647" lon="7.7554166"><ele>1283.3333333333335</ele><time>2026-05-03T08:35:33.949Z</time></trkpt><trkpt lat="44.1448936" lon="7.7551811"><ele>1286.0</ele><time>2026-05-03T08:35:34.953Z</time></trkpt><trkpt lat="44.1450201" lon="7.754963"><ele>1286.0</ele><time>2026-05-03T08:35:35.948Z</time></trkpt><trkpt lat="44.1451282" lon="7.7547623"><ele>1286.0</ele><time>2026-05-03T08:35:36.945Z</time></trkpt><trkpt lat="44.145225" lon="7.7545753"><ele>1286.0</ele><time>2026-05-03T08:35:37.955Z</time></trkpt><trkpt lat="44.145325" lon="7.7544218"><ele>1282.0</ele><time>2026-05-03T08:35:38.958Z</time></trkpt><trkpt lat="44.145455" lon="7.7542859"><ele>1278.0</ele><time>2026-05-03T08:35:39.956Z</time></trkpt><trkpt lat="44.1455952" lon="7.7541547"><ele>1274.0</ele><time>2026-05-03T08:35:40.957Z</time></trkpt><trkpt lat="44.1457091" lon="7.7540387"><ele>1277.2</ele><time>2026-05-03T08:35:41.95Z</time></trkpt><trkpt lat="44.1457886" lon="7.7539223"><ele>1280.4</ele><time>2026-05-03T08:35:42.947Z</time></trkpt><trkpt lat="44.1458201" lon="7.7537779"><ele>1283.6</ele><time>2026-05-03T08:35:43.95Z</time></trkpt><trkpt lat="44.1458079" lon="7.7536281"><ele>1286.8</ele><time>2026-05-03T08:35:44.943Z</time></trkpt><trkpt lat="44.1457604" lon="7.7534939"><ele>1290.0</ele><time>2026-05-03T08:35:45.946Z</time></trkpt><trkpt lat="44.145672" lon="7.7534236"><ele>1291.75</ele><time>2026-05-03T08:35:46.945Z</time></trkpt><trkpt lat="44.1455923" lon="7.7534181"><ele>1293.5</ele><time>2026-05-03T08:35:47.948Z</time></trkpt><trkpt lat="44.1454772" lon="7.7534539"><ele>1295.25</ele><time>2026-05-03T08:35:48.942Z</time></trkpt><trkpt lat="44.1453553" lon="7.7535318"><ele>1297.0</ele><time>2026-05-03T08:35:49.938Z</time></trkpt><trkpt lat="44.1452284" lon="7.7536235"><ele>1292.3333333333333</ele><time>2026-05-03T08:35:50.963Z</time></trkpt><trkpt lat="44.1450668" lon="7.7536706"><ele>1287.6666666666667</ele><time>2026-05-03T08:35:51.949Z</time></trkpt><trkpt lat="44.1448956" lon="7.7537217"><ele>1283.0</ele><time>2026-05-03T08:35:52.946Z</time></trkpt><trkpt lat="44.1447241" lon="7.7538024"><ele>1283.0</ele><time>2026-05-03T08:35:53.956Z</time></trkpt><trkpt lat="44.1445606" lon="7.7539226"><ele>1283.0</ele><time>2026-05-03T08:35:54.954Z</time></trkpt><trkpt lat="44.1443995" lon="7.754099"><ele>1283.0</ele><time>2026-05-03T08:35:55.941Z</time></trkpt><trkpt lat="44.144229" lon="7.7542633"><ele>1283.3333333333335</ele><time>2026-05-03T08:35:56.944Z</time></trkpt><trkpt lat="44.1440576" lon="7.7544146"><ele>1283.6666666666667</ele><time>2026-05-03T08:35:57.96Z</time></trkpt><trkpt lat="44.1438838" lon="7.7545911"><ele>1284.0</ele><time>2026-05-03T08:35:58.953Z</time></trkpt><trkpt lat="44.1437349" lon="7.7547657"><ele>1284.0</ele><time>2026-05-03T08:35:59.954Z</time></trkpt><trkpt lat="44.1435775" lon="7.7549649"><ele>1284.0</ele><time>2026-05-03T08:36:00.94Z</time></trkpt><trkpt lat="44.1434172" lon="7.7551533"><ele>1284.0</ele><time>2026-05-03T08:36:01.951Z</time></trkpt><trkpt lat="44.1432517" lon="7.7553446"><ele>1293.0</ele><time>2026-05-03T08:36:02.951Z</time></trkpt><trkpt lat="44.143096" lon="7.7555432"><ele>1302.0</ele><time>2026-05-03T08:36:03.943Z</time></trkpt><trkpt lat="44.1429584" lon="7.7557527"><ele>1311.0</ele><time>2026-05-03T08:36:04.948Z</time></trkpt><trkpt lat="44.1428199" lon="7.7559468"><ele>1309.3333333333333</ele><time>2026-05-03T08:36:05.956Z</time></trkpt><trkpt lat="44.1426788" lon="7.7561161"><ele>1307.6666666666665</ele><time>2026-05-03T08:36:06.96Z</time></trkpt><trkpt lat="44.1425192" lon="7.7562002"><ele>1306.0</ele><time>2026-05-03T08:36:07.951Z</time></trkpt><trkpt lat="44.1423663" lon="7.7562627"><ele>1306.0</ele><time>2026-05-03T08:36:08.943Z</time></trkpt><trkpt lat="44.1422195" lon="7.7563008"><ele>1306.0</ele><time>2026-05-03T08:36:09.941Z</time></trkpt><trkpt lat="44.142071" lon="7.75632"><ele>1306.0</ele><time>2026-05-03T08:36:10.939Z</time></trkpt><trkpt lat="44.140355" lon="7.7562272"><ele>1288.6666666666665</ele><time>2026-05-03T08:36:20.94Z</time></trkpt><trkpt lat="44.140183" lon="7.7561282"><ele>1271.3333333333333</ele><time>2026-05-03T08:36:21.944Z</time></trkpt><trkpt lat="44.1401064" lon="7.7559394"><ele>1254.0</ele><time>2026-05-03T08:36:22.94Z</time></trkpt><trkpt lat="44.1399766" lon="7.7558199"><ele>1254.0</ele><time>2026-05-03T08:36:23.958Z</time></trkpt><trkpt lat="44.139885" lon="7.7556773"><ele>1254.0</ele><time>2026-05-03T08:36:24.943Z</time></trkpt><trkpt lat="44.1398364" lon="7.7555225"><ele>1254.0</ele><time>2026-05-03T08:36:25.96Z</time></trkpt><trkpt lat="44.1398154" lon="7.755361"><ele>1254.0</ele><time>2026-05-03T08:36:26.948Z</time></trkpt><trkpt lat="44.1397966" lon="7.7551811"><ele>1243.3333333333333</ele><time>2026-05-03T08:36:27.951Z</time></trkpt><trkpt lat="44.1397627" lon="7.7549847"><ele>1232.6666666666665</ele><time>2026-05-03T08:36:28.953Z</time></trkpt><trkpt lat="44.1396968" lon="7.7547739"><ele>1222.0</ele><time>2026-05-03T08:36:29.96Z</time></trkpt><trkpt lat="44.1395909" lon="7.7545818"><ele>1222.0</ele><time>2026-05-03T08:36:30.959Z</time></trkpt><trkpt lat="44.139503" lon="7.7543995"><ele>1222.0</ele><time>2026-05-03T08:36:31.953Z</time></trkpt><trkpt lat="44.1394043" lon="7.7542394"><ele>1222.0</ele><time>2026-05-03T08:36:32.954Z</time></trkpt><trkpt lat="44.1392912" lon="7.7541274"><ele>1222.0</ele><time>2026-05-03T08:36:33.951Z</time></trkpt><trkpt lat="44.1391595" lon="7.7540446"><ele>1208.75</ele><time>2026-05-03T08:36:34.965Z</time></trkpt><trkpt lat="44.1390323" lon="7.7539705"><ele>1195.5</ele><time>2026-05-03T08:36:35.944Z</time></trkpt><trkpt lat="44.1389065" lon="7.7539146"><ele>1182.25</ele><time>2026-05-03T08:36:36.959Z</time></trkpt><trkpt lat="44.1388114" lon="7.7538278"><ele>1169.0</ele><time>2026-05-03T08:36:37.956Z</time></trkpt><trkpt lat="44.1387726" lon="7.7536802"><ele>1171.0</ele><time>2026-05-03T08:36:38.951Z</time></trkpt><trkpt lat="44.1387767" lon="7.7534659"><ele>1173.0</ele><time>2026-05-03T08:36:39.948Z</time></trkpt><trkpt lat="44.1387957" lon="7.7532642"><ele>1175.0</ele><time>2026-05-03T08:36:40.947Z</time></trkpt><trkpt lat="44.1388322" lon="7.753096"><ele>1177.0</ele><time>2026-05-03T08:36:41.95Z</time></trkpt><trkpt lat="44.1388964" lon="7.7529555"><ele>1177.0</ele><time>2026-05-03T08:36:42.955Z</time></trkpt><trkpt lat="44.1389833" lon="7.7528345"><ele>1177.0</ele><time>2026-05-03T08:36:43.947Z</time></trkpt><trkpt lat="44.1390985" lon="7.7527356"><ele>1177.0</ele><time>2026-05-03T08:36:44.948Z</time></trkpt><trkpt lat="44.139184" lon="7.7526222"><ele>1177.0</ele><time>2026-05-03T08:36:45.944Z</time></trkpt><trkpt lat="44.1392282" lon="7.7524775"><ele>1183.25</ele><time>2026-05-03T08:36:46.937Z</time></trkpt><trkpt lat="44.1392332" lon="7.7523059"><ele>1189.5</ele><time>2026-05-03T08:36:47.935Z</time></trkpt><trkpt lat="44.1392111" lon="7.7521506"><ele>1195.75</ele><time>2026-05-03T08:36:48.945Z</time></trkpt><trkpt lat="44.1391423" lon="7.7520122"><ele>1202.0</ele><time>2026-05-03T08:36:49.945Z</time></trkpt><trkpt lat="44.1390475" lon="7.7518653"><ele>1202.0</ele><time>2026-05-03T08:36:50.938Z</time></trkpt><trkpt lat="44.1389369" lon="7.7517307"><ele>1202.0</ele><time>2026-05-03T08:36:51.942Z</time></trkpt><trkpt lat="44.138811" lon="7.7516024"><ele>1202.0</ele><time>2026-05-03T08:36:52.942Z</time></trkpt><trkpt lat="44.1387273" lon="7.7514582"><ele>1202.0</ele><time>2026-05-03T08:36:53.954Z</time></trkpt><trkpt lat="44.1386848" lon="7.7512826"><ele>1202.0</ele><time>2026-05-03T08:36:54.943Z</time></trkpt><trkpt lat="44.1386443" lon="7.7510847"><ele>1202.0</ele><time>2026-05-03T08:36:55.951Z</time></trkpt><trkpt lat="44.1385932" lon="7.7508962"><ele>1202.0</ele><time>2026-05-03T08:36:56.947Z</time></trkpt><trkpt lat="44.1385433" lon="7.7507006"><ele>1202.0</ele><time>2026-05-03T08:36:57.95Z</time></trkpt><trkpt lat="44.1384963" lon="7.750526"><ele>1201.4</ele><time>2026-05-03T08:36:58.945Z</time></trkpt><trkpt lat="44.1384591" lon="7.7503796"><ele>1200.8000000000002</ele><time>2026-05-03T08:36:59.955Z</time></trkpt><trkpt lat="44.1383722" lon="7.7502946"><ele>1200.2</ele><time>2026-05-03T08:37:00.955Z</time></trkpt><trkpt lat="44.1382655" lon="7.7502447"><ele>1199.6000000000001</ele><time>2026-05-03T08:37:01.944Z</time></trkpt><trkpt lat="44.1381655" lon="7.75023"><ele>1199.0</ele><time>2026-05-03T08:37:02.949Z</time></trkpt><trkpt lat="44.1380702" lon="7.75023"><ele>1199.0</ele><time>2026-05-03T08:37:03.947Z</time></trkpt><trkpt lat="44.137969" lon="7.7502656"><ele>1199.0</ele><time>2026-05-03T08:37:04.95Z</time></trkpt><trkpt lat="44.137857" lon="7.7503213"><ele>1199.0</ele><time>2026-05-03T08:37:05.953Z</time></trkpt><trkpt lat="44.1377514" lon="7.7503652"><ele>1199.0</ele><time>2026-05-03T08:37:06.946Z</time></trkpt><trkpt lat="44.1376401" lon="7.750384"><ele>1199.0</ele><time>2026-05-03T08:37:07.948Z</time></trkpt><trkpt lat="44.1375237" lon="7.7504261"><ele>1199.0</ele><time>2026-05-03T08:37:08.947Z</time></trkpt><trkpt lat="44.137409" lon="7.7504999"><ele>1199.0</ele><time>2026-05-03T08:37:09.948Z</time></trkpt><trkpt lat="44.1373115" lon="7.7505687"><ele>1199.0</ele><time>2026-05-03T08:37:10.951Z</time></trkpt><trkpt lat="44.1372183" lon="7.7506077"><ele>1199.0</ele><time>2026-05-03T08:37:11.949Z</time></trkpt><trkpt lat="44.1371392" lon="7.7505893"><ele>1199.0</ele><time>2026-05-03T08:37:12.942Z</time></trkpt><trkpt lat="44.1370901" lon="7.7505075"><ele>1195.5</ele><time>2026-05-03T08:37:13.958Z</time></trkpt><trkpt lat="44.1370478" lon="7.7503894"><ele>1192.0</ele><time>2026-05-03T08:37:14.944Z</time></trkpt><trkpt lat="44.1369895" lon="7.7502517"><ele>1188.5</ele><time>2026-05-03T08:37:15.955Z</time></trkpt><trkpt lat="44.1369499" lon="7.7500708"><ele>1185.0</ele><time>2026-05-03T08:37:16.948Z</time></trkpt><trkpt lat="44.1369017" lon="7.7498822"><ele>1185.0</ele><time>2026-05-03T08:37:17.952Z</time></trkpt><trkpt lat="44.1368822" lon="7.7496999"><ele>1185.0</ele><time>2026-05-03T08:37:18.944Z</time></trkpt><trkpt lat="44.1368923" lon="7.7495173"><ele>1185.0</ele><time>2026-05-03T08:37:19.958Z</time></trkpt><trkpt lat="44.1369116" lon="7.749343"><ele>1185.0</ele><time>2026-05-03T08:37:20.953Z</time></trkpt><trkpt lat="44.1369484" lon="7.749168"><ele>1183.8</ele><time>2026-05-03T08:37:21.951Z</time></trkpt><trkpt lat="44.1370057" lon="7.7489873"><ele>1182.6</ele><time>2026-05-03T08:37:22.958Z</time></trkpt><trkpt lat="44.1370506" lon="7.7488243"><ele>1181.4</ele><time>2026-05-03T08:37:23.947Z</time></trkpt><trkpt lat="44.1370803" lon="7.7486933"><ele>1180.2</ele><time>2026-05-03T08:37:24.955Z</time></trkpt><trkpt lat="44.137106" lon="7.7485832"><ele>1179.0</ele><time>2026-05-03T08:37:25.951Z</time></trkpt><trkpt lat="44.1371277" lon="7.7484822"><ele>1177.3333333333333</ele><time>2026-05-03T08:37:26.96Z</time></trkpt><trkpt lat="44.1371526" lon="7.7483896"><ele>1175.6666666666667</ele><time>2026-05-03T08:37:27.947Z</time></trkpt><trkpt lat="44.1371613" lon="7.7483014"><ele>1174.0</ele><time>2026-05-03T08:37:28.946Z</time></trkpt><trkpt lat="44.1371708" lon="7.748203"><ele>1172.3333333333335</ele><time>2026-05-03T08:37:29.957Z</time></trkpt><trkpt lat="44.1371797" lon="7.7480942"><ele>1170.6666666666667</ele><time>2026-05-03T08:37:30.955Z</time></trkpt><trkpt lat="44.1371831" lon="7.7479721"><ele>1169.0</ele><time>2026-05-03T08:37:31.954Z</time></trkpt><trkpt lat="44.1371772" lon="7.7478319"><ele>1169.25</ele><time>2026-05-03T08:37:32.961Z</time></trkpt><trkpt lat="44.1371685" lon="7.7476812"><ele>1169.5</ele><time>2026-05-03T08:37:33.951Z</time></trkpt><trkpt lat="44.1371542" lon="7.7475189"><ele>1169.75</ele><time>2026-05-03T08:37:34.956Z</time></trkpt><trkpt lat="44.137134" lon="7.7473496"><ele>1170.0</ele><time>2026-05-03T08:37:35.95Z</time></trkpt><trkpt lat="44.1371151" lon="7.7471622"><ele>1170.0</ele><time>2026-05-03T08:37:36.951Z</time></trkpt><trkpt lat="44.1370995" lon="7.7469636"><ele>1170.0</ele><time>2026-05-03T08:37:37.951Z</time></trkpt><trkpt lat="44.137091" lon="7.7467604"><ele>1170.0</ele><time>2026-05-03T08:37:38.95Z</time></trkpt><trkpt lat="44.1370907" lon="7.7465558"><ele>1170.0</ele><time>2026-05-03T08:37:39.955Z</time></trkpt><trkpt lat="44.1370803" lon="7.7463662"><ele>1173.75</ele><time>2026-05-03T08:37:40.954Z</time></trkpt><trkpt lat="44.1370628" lon="7.746177"><ele>1177.5</ele><time>2026-05-03T08:37:41.944Z</time></trkpt><trkpt lat="44.1370233" lon="7.7459916"><ele>1181.25</ele><time>2026-05-03T08:37:42.948Z</time></trkpt><trkpt lat="44.1369659" lon="7.7458212"><ele>1185.0</ele><time>2026-05-03T08:37:43.958Z</time></trkpt><trkpt lat="44.1369265" lon="7.7456591"><ele>1192.0</ele><time>2026-05-03T08:37:44.949Z</time></trkpt><trkpt lat="44.1369096" lon="7.7454861"><ele>1199.0</ele><time>2026-05-03T08:37:45.953Z</time></trkpt><trkpt lat="44.1369009" lon="7.7453202"><ele>1206.0</ele><time>2026-05-03T08:37:46.948Z</time></trkpt><trkpt lat="44.1369529" lon="7.7451706"><ele>1213.0</ele><time>2026-05-03T08:37:47.951Z</time></trkpt><trkpt lat="44.1370419" lon="7.7450289"><ele>1213.3333333333333</ele><time>2026-05-03T08:37:48.944Z</time></trkpt><trkpt lat="44.1371218" lon="7.7448492"><ele>1213.6666666666667</ele><time>2026-05-03T08:37:49.952Z</time></trkpt><trkpt lat="44.1371894" lon="7.7446614"><ele>1214.0</ele><time>2026-05-03T08:37:50.946Z</time></trkpt><trkpt lat="44.1372448" lon="7.7444609"><ele>1215.0</ele><time>2026-05-03T08:37:51.947Z</time></trkpt><trkpt lat="44.1372978" lon="7.7442603"><ele>1216.0</ele><time>2026-05-03T08:37:52.941Z</time></trkpt><trkpt lat="44.1373543" lon="7.7440609"><ele>1217.0</ele><time>2026-05-03T08:37:53.95Z</time></trkpt><trkpt lat="44.1374358" lon="7.7438596"><ele>1218.5</ele><time>2026-05-03T08:37:54.951Z</time></trkpt><trkpt lat="44.1375204" lon="7.7436777"><ele>1220.0</ele><time>2026-05-03T08:37:55.942Z</time></trkpt><trkpt lat="44.137611" lon="7.7435205"><ele>1221.5</ele><time>2026-05-03T08:37:56.947Z</time></trkpt><trkpt lat="44.1376979" lon="7.7433762"><ele>1223.0</ele><time>2026-05-03T08:37:57.953Z</time></trkpt><trkpt lat="44.1377749" lon="7.7432557"><ele>1223.0</ele><time>2026-05-03T08:37:58.942Z</time></trkpt><trkpt lat="44.1378406" lon="7.7431518"><ele>1223.0</ele><time>2026-05-03T08:37:59.941Z</time></trkpt><trkpt lat="44.137878" lon="7.743054"><ele>1223.0</ele><time>2026-05-03T08:38:00.949Z</time></trkpt><trkpt lat="44.1378983" lon="7.74297"><ele>1223.0</ele><time>2026-05-03T08:38:01.949Z</time></trkpt><trkpt lat="44.1378385" lon="7.7428421"><ele>1223.0</ele><time>2026-05-03T08:38:03.948Z</time></trkpt><trkpt lat="44.1377805" lon="7.7428074"><ele>1223.0</ele><time>2026-05-03T08:38:04.946Z</time></trkpt><trkpt lat="44.1376897" lon="7.7428096"><ele>1223.0</ele><time>2026-05-03T08:38:05.962Z</time></trkpt><trkpt lat="44.1375972" lon="7.742864"><ele>1223.0</ele><time>2026-05-03T08:38:06.947Z</time></trkpt><trkpt lat="44.1374949" lon="7.7429432"><ele>1223.0</ele><time>2026-05-03T08:38:07.953Z</time></trkpt><trkpt lat="44.1373944" lon="7.7430455"><ele>1223.0</ele><time>2026-05-03T08:38:08.94Z</time></trkpt><trkpt lat="44.1372832" lon="7.7431541"><ele>1221.5</ele><time>2026-05-03T08:38:09.949Z</time></trkpt><trkpt lat="44.1371737" lon="7.7432695"><ele>1220.0</ele><time>2026-05-03T08:38:10.949Z</time></trkpt><trkpt lat="44.1370603" lon="7.7434106"><ele>1218.5</ele><time>2026-05-03T08:38:11.944Z</time></trkpt><trkpt lat="44.1369457" lon="7.7435448"><ele>1217.0</ele><time>2026-05-03T08:38:12.942Z</time></trkpt><trkpt lat="44.1368324" lon="7.7436785"><ele>1217.0</ele><time>2026-05-03T08:38:13.936Z</time></trkpt><trkpt lat="44.136733" lon="7.7438252"><ele>1217.0</ele><time>2026-05-03T08:38:14.946Z</time></trkpt><trkpt lat="44.1366578" lon="7.7439754"><ele>1217.0</ele><time>2026-05-03T08:38:15.941Z</time></trkpt><trkpt lat="44.1365903" lon="7.7441169"><ele>1217.0</ele><time>2026-05-03T08:38:16.946Z</time></trkpt><trkpt lat="44.1365246" lon="7.7442436"><ele>1216.4</ele><time>2026-05-03T08:38:17.947Z</time></trkpt><trkpt lat="44.1364457" lon="7.7443457"><ele>1215.8000000000002</ele><time>2026-05-03T08:38:18.943Z</time></trkpt><trkpt lat="44.1363524" lon="7.744418"><ele>1215.2</ele><time>2026-05-03T08:38:19.949Z</time></trkpt><trkpt lat="44.1362533" lon="7.7444572"><ele>1214.6000000000001</ele><time>2026-05-03T08:38:20.948Z</time></trkpt><trkpt lat="44.1361656" lon="7.7444532"><ele>1214.0</ele><time>2026-05-03T08:38:21.955Z</time></trkpt><trkpt lat="44.1361056" lon="7.7443878"><ele>1214.0</ele><time>2026-05-03T08:38:22.954Z</time></trkpt><trkpt lat="44.1360777" lon="7.7442853"><ele>1214.0</ele><time>2026-05-03T08:38:23.949Z</time></trkpt><trkpt lat="44.1360799" lon="7.7441557"><ele>1214.0</ele><time>2026-05-03T08:38:24.95Z</time></trkpt><trkpt lat="44.1360712" lon="7.7440227"><ele>1214.0</ele><time>2026-05-03T08:38:25.95Z</time></trkpt><trkpt lat="44.1360525" lon="7.7438733"><ele>1214.0</ele><time>2026-05-03T08:38:26.952Z</time></trkpt><trkpt lat="44.1360041" lon="7.7437555"><ele>1214.0</ele><time>2026-05-03T08:38:27.95Z</time></trkpt><trkpt lat="44.1359193" lon="7.7436922"><ele>1214.0</ele><time>2026-05-03T08:38:28.949Z</time></trkpt><trkpt lat="44.1357841" lon="7.7436756"><ele>1214.0</ele><time>2026-05-03T08:38:29.951Z</time></trkpt><trkpt lat="44.1356416" lon="7.7436523"><ele>1214.0</ele><time>2026-05-03T08:38:30.942Z</time></trkpt><trkpt lat="44.1355131" lon="7.7436066"><ele>1216.25</ele><time>2026-05-03T08:38:31.947Z</time></trkpt><trkpt lat="44.1353808" lon="7.7435567"><ele>1218.5</ele><time>2026-05-03T08:38:32.945Z</time></trkpt><trkpt lat="44.1352519" lon="7.7435194"><ele>1220.75</ele><time>2026-05-03T08:38:33.946Z</time></trkpt><trkpt lat="44.1351107" lon="7.7434847"><ele>1223.0</ele><time>2026-05-03T08:38:34.95Z</time></trkpt><trkpt lat="44.1349612" lon="7.743456"><ele>1216.25</ele><time>2026-05-03T08:38:35.954Z</time></trkpt><trkpt lat="44.1348166" lon="7.7434088"><ele>1209.5</ele><time>2026-05-03T08:38:36.949Z</time></trkpt><trkpt lat="44.1346784" lon="7.7433446"><ele>1202.75</ele><time>2026-05-03T08:38:37.949Z</time></trkpt><trkpt lat="44.1345606" lon="7.7432602"><ele>1196.0</ele><time>2026-05-03T08:38:38.95Z</time></trkpt><trkpt lat="44.134457" lon="7.7431597"><ele>1196.0</ele><time>2026-05-03T08:38:39.962Z</time></trkpt><trkpt lat="44.1343684" lon="7.7430576"><ele>1196.0</ele><time>2026-05-03T08:38:40.949Z</time></trkpt><trkpt lat="44.1342844" lon="7.7429637"><ele>1196.0</ele><time>2026-05-03T08:38:41.963Z</time></trkpt><trkpt lat="44.1341968" lon="7.7428842"><ele>1196.0</ele><time>2026-05-03T08:38:42.955Z</time></trkpt><trkpt lat="44.1341099" lon="7.7428263"><ele>1196.0</ele><time>2026-05-03T08:38:43.95Z</time></trkpt><trkpt lat="44.1340209" lon="7.7427925"><ele>1196.0</ele><time>2026-05-03T08:38:44.946Z</time></trkpt><trkpt lat="44.1339264" lon="7.7427672"><ele>1196.0</ele><time>2026-05-03T08:38:45.943Z</time></trkpt><trkpt lat="44.133827" lon="7.7427497"><ele>1196.0</ele><time>2026-05-03T08:38:46.942Z</time></trkpt><trkpt lat="44.1337237" lon="7.7427273"><ele>1196.0</ele><time>2026-05-03T08:38:47.953Z</time></trkpt><trkpt lat="44.133633" lon="7.7427028"><ele>1196.0</ele><time>2026-05-03T08:38:48.946Z</time></trkpt><trkpt lat="44.1335431" lon="7.742676"><ele>1196.0</ele><time>2026-05-03T08:38:49.948Z</time></trkpt><trkpt lat="44.1334545" lon="7.7426941"><ele>1196.0</ele><time>2026-05-03T08:38:50.953Z</time></trkpt><trkpt lat="44.1333576" lon="7.7427347"><ele>1196.0</ele><time>2026-05-03T08:38:51.953Z</time></trkpt><trkpt lat="44.1332622" lon="7.7427753"><ele>1196.0</ele><time>2026-05-03T08:38:52.954Z</time></trkpt><trkpt lat="44.1331797" lon="7.7427993"><ele>1196.0</ele><time>2026-05-03T08:38:53.952Z</time></trkpt><trkpt lat="44.133099" lon="7.742807"><ele>1196.0</ele><time>2026-05-03T08:38:54.954Z</time></trkpt><trkpt lat="44.1330119" lon="7.7427715"><ele>1196.0</ele><time>2026-05-03T08:38:55.954Z</time></trkpt><trkpt lat="44.1329291" lon="7.742658"><ele>1196.0</ele><time>2026-05-03T08:38:56.954Z</time></trkpt><trkpt lat="44.1328409" lon="7.7425739"><ele>1196.0</ele><time>2026-05-03T08:38:57.951Z</time></trkpt><trkpt lat="44.1327385" lon="7.7425033"><ele>1196.0</ele><time>2026-05-03T08:38:58.953Z</time></trkpt><trkpt lat="44.1326392" lon="7.7424425"><ele>1196.0</ele><time>2026-05-03T08:38:59.953Z</time></trkpt><trkpt lat="44.1325408" lon="7.7423735"><ele>1196.0</ele><time>2026-05-03T08:39:00.955Z</time></trkpt><trkpt lat="44.1324882" lon="7.7422842"><ele>1196.0</ele><time>2026-05-03T08:39:01.948Z</time></trkpt><trkpt lat="44.1324664" lon="7.7421651"><ele>1196.0</ele><time>2026-05-03T08:39:02.954Z</time></trkpt><trkpt lat="44.1324588" lon="7.7420443"><ele>1196.0</ele><time>2026-05-03T08:39:03.946Z</time></trkpt><trkpt lat="44.1324397" lon="7.7419287"><ele>1207.25</ele><time>2026-05-03T08:39:04.954Z</time></trkpt><trkpt lat="44.1324093" lon="7.7417908"><ele>1218.5</ele><time>2026-05-03T08:39:05.952Z</time></trkpt><trkpt lat="44.1323522" lon="7.7416329"><ele>1229.75</ele><time>2026-05-03T08:39:06.957Z</time></trkpt><trkpt lat="44.1322927" lon="7.7414635"><ele>1241.0</ele><time>2026-05-03T08:39:07.955Z</time></trkpt><trkpt lat="44.1322395" lon="7.7412938"><ele>1240.5</ele><time>2026-05-03T08:39:08.959Z</time></trkpt><trkpt lat="44.1321611" lon="7.7411522"><ele>1240.0</ele><time>2026-05-03T08:39:09.969Z</time></trkpt><trkpt lat="44.1320755" lon="7.7410084"><ele>1239.5</ele><time>2026-05-03T08:39:10.944Z</time></trkpt><trkpt lat="44.1319906" lon="7.740885"><ele>1239.0</ele><time>2026-05-03T08:39:11.943Z</time></trkpt><trkpt lat="44.1319215" lon="7.7407587"><ele>1239.0</ele><time>2026-05-03T08:39:12.943Z</time></trkpt><trkpt lat="44.1318471" lon="7.7406892"><ele>1239.0</ele><time>2026-05-03T08:39:13.95Z</time></trkpt><trkpt lat="44.1317673" lon="7.7406522"><ele>1239.0</ele><time>2026-05-03T08:39:14.94Z</time></trkpt><trkpt lat="44.1316971" lon="7.7405551"><ele>1239.0</ele><time>2026-05-03T08:39:15.952Z</time></trkpt><trkpt lat="44.1316058" lon="7.7404804"><ele>1239.0</ele><time>2026-05-03T08:39:16.942Z</time></trkpt><trkpt lat="44.1315037" lon="7.7403881"><ele>1241.5</ele><time>2026-05-03T08:39:17.943Z</time></trkpt><trkpt lat="44.1313795" lon="7.7403475"><ele>1244.0</ele><time>2026-05-03T08:39:18.944Z</time></trkpt><trkpt lat="44.1312664" lon="7.7402643"><ele>1246.5</ele><time>2026-05-03T08:39:19.939Z</time></trkpt><trkpt lat="44.1311485" lon="7.7401951"><ele>1249.0</ele><time>2026-05-03T08:39:20.941Z</time></trkpt><trkpt lat="44.1310341" lon="7.7401259"><ele>1251.5</ele><time>2026-05-03T08:39:21.944Z</time></trkpt><trkpt lat="44.1309041" lon="7.7400904"><ele>1254.0</ele><time>2026-05-03T08:39:22.955Z</time></trkpt><trkpt lat="44.130795" lon="7.7400522"><ele>1256.5</ele><time>2026-05-03T08:39:23.943Z</time></trkpt><trkpt lat="44.1306749" lon="7.7400413"><ele>1259.0</ele><time>2026-05-03T08:39:24.949Z</time></trkpt><trkpt lat="44.1305569" lon="7.7400407"><ele>1263.4</ele><time>2026-05-03T08:39:25.945Z</time></trkpt><trkpt lat="44.1304456" lon="7.7400458"><ele>1267.8000000000002</ele><time>2026-05-03T08:39:26.95Z</time></trkpt><trkpt lat="44.1303238" lon="7.7400355"><ele>1272.1999999999998</ele><time>2026-05-03T08:39:27.95Z</time></trkpt><trkpt lat="44.1302119" lon="7.740015"><ele>1276.6</ele><time>2026-05-03T08:39:28.948Z</time></trkpt><trkpt lat="44.13014" lon="7.739985"><ele>1281.0</ele><time>2026-05-03T08:39:29.961Z</time></trkpt><trkpt lat="44.1300628" lon="7.7399716"><ele>1281.0</ele><time>2026-05-03T08:39:30.95Z</time></trkpt><trkpt lat="44.1299872" lon="7.7399734"><ele>1281.0</ele><time>2026-05-03T08:39:31.949Z</time></trkpt><trkpt lat="44.1299217" lon="7.739994"><ele>1281.0</ele><time>2026-05-03T08:39:32.951Z</time></trkpt><trkpt lat="44.1298391" lon="7.7399904"><ele>1281.0</ele><time>2026-05-03T08:39:33.945Z</time></trkpt><trkpt lat="44.1297236" lon="7.7400152"><ele>1281.0</ele><time>2026-05-03T08:39:34.945Z</time></trkpt><trkpt lat="44.1295523" lon="7.7400109"><ele>1283.6666666666667</ele><time>2026-05-03T08:39:35.947Z</time></trkpt><trkpt lat="44.1293917" lon="7.7399672"><ele>1286.3333333333335</ele><time>2026-05-03T08:39:36.944Z</time></trkpt><trkpt lat="44.129236" lon="7.7398483"><ele>1289.0</ele><time>2026-05-03T08:39:37.956Z</time></trkpt><trkpt lat="44.1290953" lon="7.7397425"><ele>1290.25</ele><time>2026-05-03T08:39:38.95Z</time></trkpt><trkpt lat="44.1289882" lon="7.7396271"><ele>1291.5</ele><time>2026-05-03T08:39:39.943Z</time></trkpt><trkpt lat="44.128914" lon="7.7394511"><ele>1292.75</ele><time>2026-05-03T08:39:40.946Z</time></trkpt><trkpt lat="44.1288616" lon="7.7392306"><ele>1294.0</ele><time>2026-05-03T08:39:41.95Z</time></trkpt><trkpt lat="44.1288209" lon="7.7389982"><ele>1284.0</ele><time>2026-05-03T08:39:42.949Z</time></trkpt><trkpt lat="44.1287631" lon="7.7387822"><ele>1274.0</ele><time>2026-05-03T08:39:43.955Z</time></trkpt><trkpt lat="44.1286861" lon="7.7385696"><ele>1264.0</ele><time>2026-05-03T08:39:44.946Z</time></trkpt><trkpt lat="44.1286107" lon="7.7383464"><ele>1258.6666666666665</ele><time>2026-05-03T08:39:45.948Z</time></trkpt><trkpt lat="44.1285409" lon="7.7381479"><ele>1253.3333333333333</ele><time>2026-05-03T08:39:46.957Z</time></trkpt><trkpt lat="44.1284692" lon="7.7379616"><ele>1248.0</ele><time>2026-05-03T08:39:47.952Z</time></trkpt><trkpt lat="44.1284027" lon="7.7377848"><ele>1250.5</ele><time>2026-05-03T08:39:48.966Z</time></trkpt><trkpt lat="44.1283421" lon="7.7376022"><ele>1253.0</ele><time>2026-05-03T08:39:49.945Z</time></trkpt><trkpt lat="44.1282976" lon="7.7374059"><ele>1255.5</ele><time>2026-05-03T08:39:50.951Z</time></trkpt><trkpt lat="44.1282638" lon="7.7372066"><ele>1258.0</ele><time>2026-05-03T08:39:51.956Z</time></trkpt><trkpt lat="44.1282346" lon="7.7369952"><ele>1258.3333333333333</ele><time>2026-05-03T08:39:52.952Z</time></trkpt><trkpt lat="44.1282096" lon="7.7367786"><ele>1258.6666666666667</ele><time>2026-05-03T08:39:53.954Z</time></trkpt><trkpt lat="44.1281831" lon="7.736569"><ele>1259.0</ele><time>2026-05-03T08:39:54.952Z</time></trkpt><trkpt lat="44.1281663" lon="7.736368"><ele>1259.0</ele><time>2026-05-03T08:39:55.944Z</time></trkpt><trkpt lat="44.1281673" lon="7.7361819"><ele>1259.0</ele><time>2026-05-03T08:39:56.952Z</time></trkpt><trkpt lat="44.1281978" lon="7.7360126"><ele>1259.0</ele><time>2026-05-03T08:39:57.953Z</time></trkpt><trkpt lat="44.1282518" lon="7.7358604"><ele>1259.0</ele><time>2026-05-03T08:39:58.958Z</time></trkpt><trkpt lat="44.1283265" lon="7.7357133"><ele>1260.25</ele><time>2026-05-03T08:39:59.951Z</time></trkpt><trkpt lat="44.1284137" lon="7.7355581"><ele>1261.5</ele><time>2026-05-03T08:40:00.951Z</time></trkpt><trkpt lat="44.1285002" lon="7.7354078"><ele>1262.75</ele><time>2026-05-03T08:40:01.96Z</time></trkpt><trkpt lat="44.1285619" lon="7.7352407"><ele>1264.0</ele><time>2026-05-03T08:40:02.955Z</time></trkpt><trkpt lat="44.1285883" lon="7.7350568"><ele>1264.0</ele><time>2026-05-03T08:40:03.963Z</time></trkpt><trkpt lat="44.1285824" lon="7.734861"><ele>1264.0</ele><time>2026-05-03T08:40:04.961Z</time></trkpt><trkpt lat="44.1285679" lon="7.7346443"><ele>1264.0</ele><time>2026-05-03T08:40:05.956Z</time></trkpt><trkpt lat="44.1285548" lon="7.7344304"><ele>1265.6666666666665</ele><time>2026-05-03T08:40:06.961Z</time></trkpt><trkpt lat="44.1285502" lon="7.7342123"><ele>1267.3333333333333</ele><time>2026-05-03T08:40:07.961Z</time></trkpt><trkpt lat="44.1285276" lon="7.7339987"><ele>1269.0</ele><time>2026-05-03T08:40:08.953Z</time></trkpt><trkpt lat="44.1284798" lon="7.7337954"><ele>1269.0</ele><time>2026-05-03T08:40:09.961Z</time></trkpt><trkpt lat="44.1284089" lon="7.7336125"><ele>1269.0</ele><time>2026-05-03T08:40:10.957Z</time></trkpt><trkpt lat="44.1283417" lon="7.7334406"><ele>1269.0</ele><time>2026-05-03T08:40:11.959Z</time></trkpt><trkpt lat="44.1282941" lon="7.7332864"><ele>1269.0</ele><time>2026-05-03T08:40:12.96Z</time></trkpt><trkpt lat="44.1282717" lon="7.7331183"><ele>1270.25</ele><time>2026-05-03T08:40:13.975Z</time></trkpt><trkpt lat="44.1282636" lon="7.7329344"><ele>1271.5</ele><time>2026-05-03T08:40:14.962Z</time></trkpt><trkpt lat="44.1282722" lon="7.7327644"><ele>1272.75</ele><time>2026-05-03T08:40:15.966Z</time></trkpt><trkpt lat="44.1283148" lon="7.7326125"><ele>1274.0</ele><time>2026-05-03T08:40:16.952Z</time></trkpt><trkpt lat="44.1283798" lon="7.7324721"><ele>1274.0</ele><time>2026-05-03T08:40:17.96Z</time></trkpt><trkpt lat="44.128456" lon="7.7323331"><ele>1274.0</ele><time>2026-05-03T08:40:18.953Z</time></trkpt><trkpt lat="44.1285249" lon="7.7321737"><ele>1274.0</ele><time>2026-05-03T08:40:19.955Z</time></trkpt><trkpt lat="44.1285751" lon="7.7319798"><ele>1274.0</ele><time>2026-05-03T08:40:20.951Z</time></trkpt><trkpt lat="44.1286141" lon="7.7317726"><ele>1273.75</ele><time>2026-05-03T08:40:21.958Z</time></trkpt><trkpt lat="44.1286534" lon="7.7315574"><ele>1273.5</ele><time>2026-05-03T08:40:22.96Z</time></trkpt><trkpt lat="44.1286941" lon="7.7313578"><ele>1273.25</ele><time>2026-05-03T08:40:23.959Z</time></trkpt><trkpt lat="44.1287334" lon="7.731175"><ele>1273.0</ele><time>2026-05-03T08:40:24.96Z</time></trkpt><trkpt lat="44.1287721" lon="7.7310061"><ele>1274.8</ele><time>2026-05-03T08:40:25.961Z</time></trkpt><trkpt lat="44.1288087" lon="7.7308489"><ele>1276.6</ele><time>2026-05-03T08:40:26.957Z</time></trkpt><trkpt lat="44.1288376" lon="7.7307004"><ele>1278.3999999999999</ele><time>2026-05-03T08:40:27.969Z</time></trkpt><trkpt lat="44.1288546" lon="7.7305577"><ele>1280.1999999999998</ele><time>2026-05-03T08:40:28.955Z</time></trkpt><trkpt lat="44.1288629" lon="7.7304228"><ele>1282.0</ele><time>2026-05-03T08:40:29.954Z</time></trkpt><trkpt lat="44.128866" lon="7.730299"><ele>1283.142857142857</ele><time>2026-05-03T08:40:30.962Z</time></trkpt><trkpt lat="44.1288638" lon="7.730197"><ele>1284.2857142857142</ele><time>2026-05-03T08:40:31.962Z</time></trkpt><trkpt lat="44.1288678" lon="7.7301069"><ele>1285.4285714285716</ele><time>2026-05-03T08:40:32.948Z</time></trkpt><trkpt lat="44.1288685" lon="7.730019"><ele>1286.5714285714284</ele><time>2026-05-03T08:40:33.962Z</time></trkpt><trkpt lat="44.1288641" lon="7.729924"><ele>1287.7142857142856</ele><time>2026-05-03T08:40:34.956Z</time></trkpt><trkpt lat="44.1288514" lon="7.7298255"><ele>1288.857142857143</ele><time>2026-05-03T08:40:35.96Z</time></trkpt><trkpt lat="44.1288334" lon="7.7297248"><ele>1290.0</ele><time>2026-05-03T08:40:36.953Z</time></trkpt><trkpt lat="44.1288163" lon="7.7296067"><ele>1290.0</ele><time>2026-05-03T08:40:37.948Z</time></trkpt><trkpt lat="44.1287946" lon="7.7294902"><ele>1290.0</ele><time>2026-05-03T08:40:38.953Z</time></trkpt><trkpt lat="44.1287659" lon="7.7293615"><ele>1290.0</ele><time>2026-05-03T08:40:39.953Z</time></trkpt><trkpt lat="44.1287277" lon="7.729237"><ele>1290.0</ele><time>2026-05-03T08:40:40.955Z</time></trkpt><trkpt lat="44.1286924" lon="7.7291083"><ele>1290.0</ele><time>2026-05-03T08:40:41.955Z</time></trkpt><trkpt lat="44.1286656" lon="7.7289751"><ele>1289.6</ele><time>2026-05-03T08:40:42.96Z</time></trkpt><trkpt lat="44.1286443" lon="7.7288477"><ele>1289.2</ele><time>2026-05-03T08:40:43.952Z</time></trkpt><trkpt lat="44.1286212" lon="7.728714"><ele>1288.8000000000002</ele><time>2026-05-03T08:40:44.957Z</time></trkpt><trkpt lat="44.1286032" lon="7.7285824"><ele>1288.4</ele><time>2026-05-03T08:40:45.956Z</time></trkpt><trkpt lat="44.1285853" lon="7.728464"><ele>1288.0</ele><time>2026-05-03T08:40:46.954Z</time></trkpt><trkpt lat="44.1285747" lon="7.7283525"><ele>1287.6666666666665</ele><time>2026-05-03T08:40:47.959Z</time></trkpt><trkpt lat="44.1285643" lon="7.7282491"><ele>1287.3333333333333</ele><time>2026-05-03T08:40:48.955Z</time></trkpt><trkpt lat="44.1285546" lon="7.7281481"><ele>1287.0</ele><time>2026-05-03T08:40:49.95Z</time></trkpt><trkpt lat="44.1285372" lon="7.7280492"><ele>1286.6666666666667</ele><time>2026-05-03T08:40:50.958Z</time></trkpt><trkpt lat="44.1285258" lon="7.7279444"><ele>1286.3333333333335</ele><time>2026-05-03T08:40:51.959Z</time></trkpt><trkpt lat="44.1285084" lon="7.7278232"><ele>1286.0</ele><time>2026-05-03T08:40:52.953Z</time></trkpt><trkpt lat="44.128493" lon="7.7277075"><ele>1287.0</ele><time>2026-05-03T08:40:53.967Z</time></trkpt><trkpt lat="44.1284665" lon="7.7275921"><ele>1288.0</ele><time>2026-05-03T08:40:54.952Z</time></trkpt><trkpt lat="44.1284309" lon="7.7274876"><ele>1289.0</ele><time>2026-05-03T08:40:55.955Z</time></trkpt><trkpt lat="44.1283973" lon="7.7273949"><ele>1290.0</ele><time>2026-05-03T08:40:56.959Z</time></trkpt><trkpt lat="44.1283595" lon="7.7273202"><ele>1291.0</ele><time>2026-05-03T08:40:58.954Z</time></trkpt><trkpt lat="44.1283257" lon="7.7272432"><ele>1292.0</ele><time>2026-05-03T08:41:01.958Z</time></trkpt><trkpt lat="44.1282752" lon="7.7271577"><ele>1293.0000000000002</ele><time>2026-05-03T08:41:03.975Z</time></trkpt><trkpt lat="44.1282168" lon="7.727062"><ele>1294.0</ele><time>2026-05-03T08:41:05.954Z</time></trkpt><trkpt lat="44.1281669" lon="7.7269805"><ele>1295.0</ele><time>2026-05-03T08:41:07.947Z</time></trkpt><trkpt lat="44.128091" lon="7.7269579"><ele>1296.0</ele><time>2026-05-03T08:41:16.95Z</time></trkpt><trkpt lat="44.1280364" lon="7.7270033"><ele>1297.0</ele><time>2026-05-03T08:41:20.963Z</time></trkpt><trkpt lat="44.1281083" lon="7.7269801"><ele>1298.0000000000002</ele><time>2026-05-03T08:42:16.959Z</time></trkpt><trkpt lat="44.1281702" lon="7.7270092"><ele>1299.0</ele><time>2026-05-03T08:42:19.946Z</time></trkpt><trkpt lat="44.128213" lon="7.7270817"><ele>1299.0</ele><time>2026-05-03T08:42:21.949Z</time></trkpt><trkpt lat="44.1282561" lon="7.7271713"><ele>1299.0</ele><time>2026-05-03T08:42:24.952Z</time></trkpt><trkpt lat="44.1283136" lon="7.7271259"><ele>1299.0</ele><time>2026-05-03T08:42:28.952Z</time></trkpt><trkpt lat="44.1282469" lon="7.7270878"><ele>1299.0</ele><time>2026-05-03T08:44:59.019Z</time></trkpt><trkpt lat="44.1281891" lon="7.7270277"><ele>1299.0</ele><time>2026-05-03T08:45:56.955Z</time></trkpt><trkpt lat="44.1281497" lon="7.7269471"><ele>1299.0</ele><time>2026-05-03T08:46:07.993Z</time></trkpt><trkpt lat="44.1281797" lon="7.7268056"><ele>1299.0000000000002</ele><time>2026-05-03T08:47:50.961Z</time></trkpt><trkpt lat="44.128109" lon="7.7268733"><ele>1299.0</ele><time>2026-05-03T08:48:46.01Z</time></trkpt><trkpt lat="44.1281454" lon="7.7269524"><ele>1299.0</ele><time>2026-05-03T08:48:51.946Z</time></trkpt><trkpt lat="44.1282024" lon="7.7270066"><ele>1299.0</ele><time>2026-05-03T08:48:57.969Z</time></trkpt><trkpt lat="44.1282493" lon="7.7270682"><ele>1299.0</ele><time>2026-05-03T08:49:03.995Z</time></trkpt><trkpt lat="44.128286" lon="7.7271419"><ele>1299.0000000000002</ele><time>2026-05-03T08:49:51.921Z</time></trkpt><trkpt lat="44.1283201" lon="7.7272272"><ele>1299.0</ele><time>2026-05-03T08:49:57.984Z</time></trkpt><trkpt lat="44.1283721" lon="7.727279"><ele>1297.25</ele><time>2026-05-03T08:50:05.901Z</time></trkpt><trkpt lat="44.1284119" lon="7.7273514"><ele>1295.5</ele><time>2026-05-03T08:50:14.963Z</time></trkpt><trkpt lat="44.1284753" lon="7.7273529"><ele>1293.75</ele><time>2026-05-03T08:50:28.987Z</time></trkpt><trkpt lat="44.1286576" lon="7.7270211"><ele>1292.0</ele><time>2026-05-03T08:52:04.968Z</time></trkpt><trkpt lat="44.1286193" lon="7.7269129"><ele>1293.1666666666667</ele><time>2026-05-03T08:52:06.967Z</time></trkpt><trkpt lat="44.1286236" lon="7.7268023"><ele>1294.3333333333335</ele><time>2026-05-03T08:52:09.97Z</time></trkpt><trkpt lat="44.1285575" lon="7.7267529"><ele>1295.5</ele><time>2026-05-03T08:52:18.964Z</time></trkpt><trkpt lat="44.1285035" lon="7.7266988"><ele>1296.6666666666667</ele><time>2026-05-03T08:52:23.966Z</time></trkpt><trkpt lat="44.1284834" lon="7.7266004"><ele>1297.8333333333333</ele><time>2026-05-03T08:52:26.987Z</time></trkpt><trkpt lat="44.1284583" lon="7.7264958"><ele>1299.0</ele><time>2026-05-03T08:52:29.973Z</time></trkpt><trkpt lat="44.1284627" lon="7.7263726"><ele>1299.0000000000002</ele><time>2026-05-03T08:52:32.926Z</time></trkpt><trkpt lat="44.1284917" lon="7.7262651"><ele>1299.0</ele><time>2026-05-03T08:52:35.939Z</time></trkpt><trkpt lat="44.1285423" lon="7.7263204"><ele>1299.0</ele><time>2026-05-03T08:52:41.977Z</time></trkpt><trkpt lat="44.1286302" lon="7.7262993"><ele>1299.0</ele><time>2026-05-03T08:53:02.959Z</time></trkpt><trkpt lat="44.1286569" lon="7.7262138"><ele>1299.0</ele><time>2026-05-03T08:53:09.963Z</time></trkpt><trkpt lat="44.1286918" lon="7.7261356"><ele>1299.0000000000002</ele><time>2026-05-03T08:53:16.975Z</time></trkpt><trkpt lat="44.1287428" lon="7.7260536"><ele>1299.0</ele><time>2026-05-03T08:53:22.969Z</time></trkpt><trkpt lat="44.1287404" lon="7.7263777"><ele>1299.0</ele><time>2026-05-03T08:55:36.958Z</time></trkpt><trkpt lat="44.1287161" lon="7.7267544"><ele>1299.0</ele><time>2026-05-03T08:55:39.987Z</time></trkpt><trkpt lat="44.1287017" lon="7.7268812"><ele>1299.0</ele><time>2026-05-03T08:55:41.99Z</time></trkpt><trkpt lat="44.1286803" lon="7.7269775"><ele>1299.0</ele><time>2026-05-03T08:55:43.959Z</time></trkpt><trkpt lat="44.1286376" lon="7.7271065"><ele>1297.8333333333333</ele><time>2026-05-03T08:55:44.982Z</time></trkpt><trkpt lat="44.1285825" lon="7.7272516"><ele>1296.6666666666667</ele><time>2026-05-03T08:55:45.982Z</time></trkpt><trkpt lat="44.1285257" lon="7.7273366"><ele>1295.5</ele><time>2026-05-03T08:55:49.005Z</time></trkpt><trkpt lat="44.1284946" lon="7.7274185"><ele>1294.3333333333335</ele><time>2026-05-03T08:55:57.935Z</time></trkpt><trkpt lat="44.1285646" lon="7.7274137"><ele>1293.1666666666667</ele><time>2026-05-03T08:58:45.989Z</time></trkpt><trkpt lat="44.1284991" lon="7.7274039"><ele>1292.0</ele><time>2026-05-03T09:03:33.982Z</time></trkpt><trkpt lat="44.1284338" lon="7.7273637"><ele>1292.0</ele><time>2026-05-03T09:12:26.995Z</time></trkpt><trkpt lat="44.1283909" lon="7.7272817"><ele>1292.0</ele><time>2026-05-03T09:12:33.985Z</time></trkpt><trkpt lat="44.1283537" lon="7.7272086"><ele>1292.0</ele><time>2026-05-03T09:12:40.952Z</time></trkpt><trkpt lat="44.1283168" lon="7.7271323"><ele>1292.0</ele><time>2026-05-03T09:12:50.003Z</time></trkpt><trkpt lat="44.1282331" lon="7.7271122"><ele>1292.0</ele><time>2026-05-03T09:17:10.947Z</time></trkpt><trkpt lat="44.1281726" lon="7.7270201"><ele>1292.0</ele><time>2026-05-03T09:17:12.943Z</time></trkpt><trkpt lat="44.1281099" lon="7.7269416"><ele>1296.0</ele><time>2026-05-03T09:17:14.957Z</time></trkpt><trkpt lat="44.1280404" lon="7.7268062"><ele>1300.0</ele><time>2026-05-03T09:17:16.947Z</time></trkpt><trkpt lat="44.1280004" lon="7.7267032"><ele>1304.0</ele><time>2026-05-03T09:17:17.942Z</time></trkpt><trkpt lat="44.1279854" lon="7.726599"><ele>1308.0</ele><time>2026-05-03T09:17:18.947Z</time></trkpt><trkpt lat="44.1279807" lon="7.7264849"><ele>1312.0</ele><time>2026-05-03T09:17:19.941Z</time></trkpt><trkpt lat="44.1279814" lon="7.7263747"><ele>1316.0</ele><time>2026-05-03T09:17:20.948Z</time></trkpt><trkpt lat="44.1279963" lon="7.7262461"><ele>1316.0</ele><time>2026-05-03T09:17:21.95Z</time></trkpt><trkpt lat="44.1280185" lon="7.7261311"><ele>1316.0</ele><time>2026-05-03T09:17:22.949Z</time></trkpt><trkpt lat="44.1280484" lon="7.726011"><ele>1316.0</ele><time>2026-05-03T09:17:23.954Z</time></trkpt><trkpt lat="44.1280875" lon="7.7258967"><ele>1316.0</ele><time>2026-05-03T09:17:24.954Z</time></trkpt><trkpt lat="44.1281334" lon="7.7258006"><ele>1316.0</ele><time>2026-05-03T09:17:25.944Z</time></trkpt><trkpt lat="44.1281926" lon="7.7257138"><ele>1316.0</ele><time>2026-05-03T09:17:26.948Z</time></trkpt><trkpt lat="44.1282556" lon="7.7256425"><ele>1315.8333333333335</ele><time>2026-05-03T09:17:27.95Z</time></trkpt><trkpt lat="44.1283191" lon="7.7255903"><ele>1315.6666666666667</ele><time>2026-05-03T09:17:28.943Z</time></trkpt><trkpt lat="44.1283928" lon="7.7255755"><ele>1315.5</ele><time>2026-05-03T09:17:29.956Z</time></trkpt><trkpt lat="44.1284655" lon="7.7255749"><ele>1315.3333333333333</ele><time>2026-05-03T09:17:30.942Z</time></trkpt><trkpt lat="44.1285491" lon="7.7255717"><ele>1315.1666666666665</ele><time>2026-05-03T09:17:31.948Z</time></trkpt><trkpt lat="44.1286381" lon="7.7255464"><ele>1315.0</ele><time>2026-05-03T09:17:32.943Z</time></trkpt><trkpt lat="44.1287264" lon="7.7254819"><ele>1315.0</ele><time>2026-05-03T09:17:33.952Z</time></trkpt><trkpt lat="44.1288023" lon="7.7253941"><ele>1315.0</ele><time>2026-05-03T09:17:34.938Z</time></trkpt><trkpt lat="44.1288469" lon="7.7252879"><ele>1315.0</ele><time>2026-05-03T09:17:35.945Z</time></trkpt><trkpt lat="44.1288545" lon="7.7251714"><ele>1315.0</ele><time>2026-05-03T09:17:36.943Z</time></trkpt><trkpt lat="44.1288419" lon="7.7250335"><ele>1315.0</ele><time>2026-05-03T09:17:37.944Z</time></trkpt><trkpt lat="44.1288117" lon="7.7248796"><ele>1320.5</ele><time>2026-05-03T09:17:38.944Z</time></trkpt><trkpt lat="44.128776" lon="7.7247213"><ele>1326.0</ele><time>2026-05-03T09:17:39.942Z</time></trkpt><trkpt lat="44.1287352" lon="7.7245605"><ele>1331.5</ele><time>2026-05-03T09:17:40.95Z</time></trkpt><trkpt lat="44.1287227" lon="7.7244033"><ele>1337.0</ele><time>2026-05-03T09:17:41.939Z</time></trkpt><trkpt lat="44.1287409" lon="7.7242611"><ele>1340.6</ele><time>2026-05-03T09:17:42.953Z</time></trkpt><trkpt lat="44.1287896" lon="7.7241227"><ele>1344.1999999999998</ele><time>2026-05-03T09:17:43.938Z</time></trkpt><trkpt lat="44.1288468" lon="7.7239872"><ele>1347.8</ele><time>2026-05-03T09:17:44.943Z</time></trkpt><trkpt lat="44.1289004" lon="7.7238588"><ele>1351.4</ele><time>2026-05-03T09:17:45.959Z</time></trkpt><trkpt lat="44.1289491" lon="7.723735"><ele>1355.0</ele><time>2026-05-03T09:17:46.939Z</time></trkpt><trkpt lat="44.1289814" lon="7.7236303"><ele>1355.0</ele><time>2026-05-03T09:17:47.942Z</time></trkpt><trkpt lat="44.1289844" lon="7.7235266"><ele>1355.0</ele><time>2026-05-03T09:17:48.944Z</time></trkpt><trkpt lat="44.1289585" lon="7.7233952"><ele>1355.0</ele><time>2026-05-03T09:17:49.947Z</time></trkpt><trkpt lat="44.1289109" lon="7.723233"><ele>1355.0</ele><time>2026-05-03T09:17:50.947Z</time></trkpt><trkpt lat="44.1288631" lon="7.7230721"><ele>1355.0</ele><time>2026-05-03T09:17:51.946Z</time></trkpt><trkpt lat="44.1288205" lon="7.7229146"><ele>1355.0</ele><time>2026-05-03T09:17:52.942Z</time></trkpt><trkpt lat="44.1287934" lon="7.7227423"><ele>1355.0</ele><time>2026-05-03T09:17:53.947Z</time></trkpt><trkpt lat="44.1287785" lon="7.7225683"><ele>1355.0</ele><time>2026-05-03T09:17:54.943Z</time></trkpt><trkpt lat="44.1287634" lon="7.7224117"><ele>1355.0</ele><time>2026-05-03T09:17:55.951Z</time></trkpt><trkpt lat="44.1287486" lon="7.7222676"><ele>1354.2</ele><time>2026-05-03T09:17:56.941Z</time></trkpt><trkpt lat="44.1287358" lon="7.7221197"><ele>1353.4</ele><time>2026-05-03T09:17:57.94Z</time></trkpt><trkpt lat="44.1287231" lon="7.7219679"><ele>1352.6</ele><time>2026-05-03T09:17:58.937Z</time></trkpt><trkpt lat="44.1287194" lon="7.7218164"><ele>1351.8</ele><time>2026-05-03T09:17:59.939Z</time></trkpt><trkpt lat="44.1287208" lon="7.7216713"><ele>1351.0</ele><time>2026-05-03T09:18:00.944Z</time></trkpt><trkpt lat="44.1287187" lon="7.7215498"><ele>1349.6666666666665</ele><time>2026-05-03T09:18:01.943Z</time></trkpt><trkpt lat="44.1287097" lon="7.7214449"><ele>1348.3333333333333</ele><time>2026-05-03T09:18:02.945Z</time></trkpt><trkpt lat="44.1286322" lon="7.7213299"><ele>1347.0</ele><time>2026-05-03T09:18:04.941Z</time></trkpt><trkpt lat="44.1285677" lon="7.7213164"><ele>1345.6666666666667</ele><time>2026-05-03T09:18:05.95Z</time></trkpt><trkpt lat="44.1285031" lon="7.7213408"><ele>1344.3333333333335</ele><time>2026-05-03T09:18:06.943Z</time></trkpt><trkpt lat="44.1284492" lon="7.7214182"><ele>1343.0</ele><time>2026-05-03T09:18:07.949Z</time></trkpt><trkpt lat="44.1284109" lon="7.7215527"><ele>1343.0</ele><time>2026-05-03T09:18:08.946Z</time></trkpt><trkpt lat="44.1283831" lon="7.7217043"><ele>1343.0</ele><time>2026-05-03T09:18:09.949Z</time></trkpt><trkpt lat="44.1283573" lon="7.7218468"><ele>1343.0</ele><time>2026-05-03T09:18:10.941Z</time></trkpt><trkpt lat="44.1283316" lon="7.7220086"><ele>1343.0</ele><time>2026-05-03T09:18:11.946Z</time></trkpt><trkpt lat="44.1283103" lon="7.7221755"><ele>1345.0</ele><time>2026-05-03T09:18:12.946Z</time></trkpt><trkpt lat="44.1282915" lon="7.7223425"><ele>1347.0</ele><time>2026-05-03T09:18:13.939Z</time></trkpt><trkpt lat="44.1282851" lon="7.7225032"><ele>1349.0</ele><time>2026-05-03T09:18:14.947Z</time></trkpt><trkpt lat="44.1282877" lon="7.72267"><ele>1351.0</ele><time>2026-05-03T09:18:15.966Z</time></trkpt><trkpt lat="44.1282872" lon="7.7228407"><ele>1352.0</ele><time>2026-05-03T09:18:16.94Z</time></trkpt><trkpt lat="44.1282856" lon="7.7230141"><ele>1353.0</ele><time>2026-05-03T09:18:17.95Z</time></trkpt><trkpt lat="44.1282682" lon="7.7231818"><ele>1354.0</ele><time>2026-05-03T09:18:18.946Z</time></trkpt><trkpt lat="44.1282346" lon="7.7233375"><ele>1355.0</ele><time>2026-05-03T09:18:19.939Z</time></trkpt><trkpt lat="44.1282008" lon="7.7234962"><ele>1362.75</ele><time>2026-05-03T09:18:20.947Z</time></trkpt><trkpt lat="44.128158" lon="7.7236545"><ele>1370.5</ele><time>2026-05-03T09:18:21.943Z</time></trkpt><trkpt lat="44.1281097" lon="7.7238218"><ele>1378.25</ele><time>2026-05-03T09:18:22.946Z</time></trkpt><trkpt lat="44.1280584" lon="7.7240049"><ele>1386.0</ele><time>2026-05-03T09:18:23.948Z</time></trkpt><trkpt lat="44.1280123" lon="7.724185"><ele>1386.0</ele><time>2026-05-03T09:18:24.944Z</time></trkpt><trkpt lat="44.1279724" lon="7.7243648"><ele>1386.0</ele><time>2026-05-03T09:18:25.951Z</time></trkpt><trkpt lat="44.1279359" lon="7.7245155"><ele>1386.0</ele><time>2026-05-03T09:18:26.948Z</time></trkpt><trkpt lat="44.1278962" lon="7.7246292"><ele>1386.0</ele><time>2026-05-03T09:18:27.941Z</time></trkpt><trkpt lat="44.1278362" lon="7.7247177"><ele>1386.0</ele><time>2026-05-03T09:18:28.947Z</time></trkpt><trkpt lat="44.1277564" lon="7.724804"><ele>1382.25</ele><time>2026-05-03T09:18:29.946Z</time></trkpt><trkpt lat="44.1276586" lon="7.7248988"><ele>1378.5</ele><time>2026-05-03T09:18:30.937Z</time></trkpt><trkpt lat="44.1275445" lon="7.7249906"><ele>1374.75</ele><time>2026-05-03T09:18:31.936Z</time></trkpt><trkpt lat="44.127428" lon="7.7250894"><ele>1371.0</ele><time>2026-05-03T09:18:32.931Z</time></trkpt><trkpt lat="44.1273239" lon="7.7251752"><ele>1369.1999999999998</ele><time>2026-05-03T09:18:33.946Z</time></trkpt><trkpt lat="44.1272409" lon="7.7252206"><ele>1367.3999999999999</ele><time>2026-05-03T09:18:34.95Z</time></trkpt><trkpt lat="44.1271647" lon="7.7252257"><ele>1365.6</ele><time>2026-05-03T09:18:35.944Z</time></trkpt><trkpt lat="44.1270826" lon="7.7251806"><ele>1363.8</ele><time>2026-05-03T09:18:36.953Z</time></trkpt><trkpt lat="44.1270006" lon="7.7250915"><ele>1362.0</ele><time>2026-05-03T09:18:37.935Z</time></trkpt><trkpt lat="44.1268958" lon="7.7249719"><ele>1362.0</ele><time>2026-05-03T09:18:38.947Z</time></trkpt><trkpt lat="44.1267973" lon="7.7248487"><ele>1362.0</ele><time>2026-05-03T09:18:39.947Z</time></trkpt><trkpt lat="44.1266949" lon="7.7247193"><ele>1362.0</ele><time>2026-05-03T09:18:40.954Z</time></trkpt><trkpt lat="44.1265821" lon="7.7245789"><ele>1362.0</ele><time>2026-05-03T09:18:41.956Z</time></trkpt><trkpt lat="44.126479" lon="7.7244545"><ele>1365.5</ele><time>2026-05-03T09:18:42.943Z</time></trkpt><trkpt lat="44.1263761" lon="7.7243248"><ele>1369.0</ele><time>2026-05-03T09:18:43.95Z</time></trkpt><trkpt lat="44.1262795" lon="7.7241907"><ele>1372.5</ele><time>2026-05-03T09:18:44.946Z</time></trkpt><trkpt lat="44.1261908" lon="7.7240652"><ele>1376.0</ele><time>2026-05-03T09:18:45.954Z</time></trkpt><trkpt lat="44.1261223" lon="7.723953"><ele>1376.0</ele><time>2026-05-03T09:18:46.947Z</time></trkpt><trkpt lat="44.1260515" lon="7.7238701"><ele>1376.0</ele><time>2026-05-03T09:18:47.941Z</time></trkpt><trkpt lat="44.125961" lon="7.7238158"><ele>1376.0</ele><time>2026-05-03T09:18:48.956Z</time></trkpt><trkpt lat="44.1258579" lon="7.7237845"><ele>1376.0</ele><time>2026-05-03T09:18:49.942Z</time></trkpt><trkpt lat="44.1257487" lon="7.7237744"><ele>1376.0</ele><time>2026-05-03T09:18:50.948Z</time></trkpt><trkpt lat="44.1256435" lon="7.7237659"><ele>1373.4</ele><time>2026-05-03T09:18:51.951Z</time></trkpt><trkpt lat="44.1255488" lon="7.7237173"><ele>1370.8</ele><time>2026-05-03T09:18:52.951Z</time></trkpt><trkpt lat="44.1254634" lon="7.7236456"><ele>1368.2</ele><time>2026-05-03T09:18:53.954Z</time></trkpt><trkpt lat="44.1253818" lon="7.7235628"><ele>1365.6000000000001</ele><time>2026-05-03T09:18:54.945Z</time></trkpt><trkpt lat="44.1252947" lon="7.7234866"><ele>1363.0</ele><time>2026-05-03T09:18:55.952Z</time></trkpt><trkpt lat="44.1252104" lon="7.7234276"><ele>1363.2</ele><time>2026-05-03T09:18:56.941Z</time></trkpt><trkpt lat="44.1251214" lon="7.7234146"><ele>1363.4</ele><time>2026-05-03T09:18:57.94Z</time></trkpt><trkpt lat="44.1250252" lon="7.7234323"><ele>1363.6000000000001</ele><time>2026-05-03T09:18:58.941Z</time></trkpt><trkpt lat="44.1249309" lon="7.7234149"><ele>1363.8000000000002</ele><time>2026-05-03T09:18:59.942Z</time></trkpt><trkpt lat="44.1248473" lon="7.7233419"><ele>1364.0</ele><time>2026-05-03T09:19:00.949Z</time></trkpt><trkpt lat="44.1247771" lon="7.7232388"><ele>1364.0</ele><time>2026-05-03T09:19:01.943Z</time></trkpt><trkpt lat="44.1247167" lon="7.723135"><ele>1364.0</ele><time>2026-05-03T09:19:02.944Z</time></trkpt><trkpt lat="44.1246674" lon="7.7230098"><ele>1364.0</ele><time>2026-05-03T09:19:03.949Z</time></trkpt><trkpt lat="44.1246357" lon="7.7228644"><ele>1364.0</ele><time>2026-05-03T09:19:04.94Z</time></trkpt><trkpt lat="44.1246074" lon="7.7227343"><ele>1364.0</ele><time>2026-05-03T09:19:05.946Z</time></trkpt><trkpt lat="44.1245858" lon="7.7226199"><ele>1368.6666666666667</ele><time>2026-05-03T09:19:06.951Z</time></trkpt><trkpt lat="44.1245291" lon="7.7225414"><ele>1373.3333333333335</ele><time>2026-05-03T09:19:07.946Z</time></trkpt><trkpt lat="44.1244564" lon="7.7224871"><ele>1378.0</ele><time>2026-05-03T09:19:08.954Z</time></trkpt><trkpt lat="44.124367" lon="7.7224527"><ele>1382.6666666666667</ele><time>2026-05-03T09:19:09.943Z</time></trkpt><trkpt lat="44.1242782" lon="7.7224243"><ele>1387.3333333333333</ele><time>2026-05-03T09:19:10.942Z</time></trkpt><trkpt lat="44.1241916" lon="7.7223722"><ele>1392.0</ele><time>2026-05-03T09:19:11.936Z</time></trkpt><trkpt lat="44.124099" lon="7.722293"><ele>1390.0</ele><time>2026-05-03T09:19:12.938Z</time></trkpt><trkpt lat="44.124001" lon="7.7221914"><ele>1388.0</ele><time>2026-05-03T09:19:13.944Z</time></trkpt><trkpt lat="44.123897" lon="7.7220954"><ele>1386.0</ele><time>2026-05-03T09:19:14.944Z</time></trkpt><trkpt lat="44.1237928" lon="7.7219987"><ele>1384.0</ele><time>2026-05-03T09:19:15.962Z</time></trkpt><trkpt lat="44.1236688" lon="7.7219285"><ele>1388.0</ele><time>2026-05-03T09:19:16.937Z</time></trkpt><trkpt lat="44.1235455" lon="7.7218657"><ele>1392.0</ele><time>2026-05-03T09:19:17.942Z</time></trkpt><trkpt lat="44.1234238" lon="7.7218244"><ele>1396.0</ele><time>2026-05-03T09:19:18.942Z</time></trkpt><trkpt lat="44.1232904" lon="7.7217972"><ele>1400.0</ele><time>2026-05-03T09:19:19.938Z</time></trkpt><trkpt lat="44.1231631" lon="7.7217829"><ele>1400.0</ele><time>2026-05-03T09:19:20.945Z</time></trkpt><trkpt lat="44.1230381" lon="7.721769"><ele>1400.0</ele><time>2026-05-03T09:19:21.939Z</time></trkpt><trkpt lat="44.1229254" lon="7.721727"><ele>1400.0</ele><time>2026-05-03T09:19:22.943Z</time></trkpt><trkpt lat="44.1228365" lon="7.7216752"><ele>1400.0</ele><time>2026-05-03T09:19:23.95Z</time></trkpt><trkpt lat="44.1227652" lon="7.7216061"><ele>1400.0</ele><time>2026-05-03T09:19:24.947Z</time></trkpt><trkpt lat="44.1226992" lon="7.7215128"><ele>1400.0</ele><time>2026-05-03T09:19:25.941Z</time></trkpt><trkpt lat="44.122626" lon="7.7213861"><ele>1400.0</ele><time>2026-05-03T09:19:26.946Z</time></trkpt><trkpt lat="44.1225338" lon="7.7212585"><ele>1400.0</ele><time>2026-05-03T09:19:27.95Z</time></trkpt><trkpt lat="44.1224285" lon="7.7211527"><ele>1400.0</ele><time>2026-05-03T09:19:28.939Z</time></trkpt><trkpt lat="44.1223333" lon="7.7210642"><ele>1406.0</ele><time>2026-05-03T09:19:29.944Z</time></trkpt><trkpt lat="44.1222636" lon="7.7209598"><ele>1412.0</ele><time>2026-05-03T09:19:30.946Z</time></trkpt><trkpt lat="44.1222173" lon="7.7208346"><ele>1418.0</ele><time>2026-05-03T09:19:31.934Z</time></trkpt><trkpt lat="44.1221839" lon="7.7206898"><ele>1424.0</ele><time>2026-05-03T09:19:32.947Z</time></trkpt><trkpt lat="44.1221608" lon="7.7205541"><ele>1430.0</ele><time>2026-05-03T09:19:33.945Z</time></trkpt><trkpt lat="44.122149" lon="7.7204305"><ele>1430.0</ele><time>2026-05-03T09:19:34.937Z</time></trkpt><trkpt lat="44.1221197" lon="7.7203277"><ele>1430.0</ele><time>2026-05-03T09:19:35.944Z</time></trkpt><trkpt lat="44.1220613" lon="7.7202738"><ele>1430.0</ele><time>2026-05-03T09:19:36.939Z</time></trkpt><trkpt lat="44.1219803" lon="7.7202611"><ele>1430.0</ele><time>2026-05-03T09:19:37.936Z</time></trkpt><trkpt lat="44.1218912" lon="7.7202622"><ele>1430.0</ele><time>2026-05-03T09:19:38.935Z</time></trkpt><trkpt lat="44.1218231" lon="7.7203242"><ele>1430.0</ele><time>2026-05-03T09:19:39.939Z</time></trkpt><trkpt lat="44.1217707" lon="7.7204346"><ele>1430.0</ele><time>2026-05-03T09:19:40.943Z</time></trkpt><trkpt lat="44.1217235" lon="7.7205893"><ele>1430.0</ele><time>2026-05-03T09:19:41.938Z</time></trkpt><trkpt lat="44.1216913" lon="7.7207433"><ele>1430.0</ele><time>2026-05-03T09:19:42.944Z</time></trkpt><trkpt lat="44.1216558" lon="7.7208959"><ele>1430.0</ele><time>2026-05-03T09:19:43.937Z</time></trkpt><trkpt lat="44.1216242" lon="7.7210361"><ele>1431.6</ele><time>2026-05-03T09:19:44.935Z</time></trkpt><trkpt lat="44.1215712" lon="7.7211506"><ele>1433.2</ele><time>2026-05-03T09:19:45.936Z</time></trkpt><trkpt lat="44.1214965" lon="7.7212423"><ele>1434.8000000000002</ele><time>2026-05-03T09:19:46.941Z</time></trkpt><trkpt lat="44.1214078" lon="7.7213143"><ele>1436.4</ele><time>2026-05-03T09:19:47.939Z</time></trkpt><trkpt lat="44.1213056" lon="7.7213709"><ele>1438.0</ele><time>2026-05-03T09:19:48.936Z</time></trkpt><trkpt lat="44.1211895" lon="7.7214338"><ele>1438.0</ele><time>2026-05-03T09:19:49.944Z</time></trkpt><trkpt lat="44.1210635" lon="7.7214824"><ele>1438.0</ele><time>2026-05-03T09:19:50.944Z</time></trkpt><trkpt lat="44.1209363" lon="7.7215418"><ele>1438.0</ele><time>2026-05-03T09:19:51.942Z</time></trkpt><trkpt lat="44.1208128" lon="7.7215939"><ele>1438.0</ele><time>2026-05-03T09:19:52.942Z</time></trkpt><trkpt lat="44.1206865" lon="7.7216421"><ele>1441.75</ele><time>2026-05-03T09:19:53.956Z</time></trkpt><trkpt lat="44.1205708" lon="7.7216957"><ele>1445.5</ele><time>2026-05-03T09:19:54.94Z</time></trkpt><trkpt lat="44.1204543" lon="7.7217477"><ele>1449.25</ele><time>2026-05-03T09:19:55.946Z</time></trkpt><trkpt lat="44.1203442" lon="7.7217949"><ele>1453.0</ele><time>2026-05-03T09:19:56.937Z</time></trkpt><trkpt lat="44.1202306" lon="7.7218348"><ele>1453.0</ele><time>2026-05-03T09:19:57.94Z</time></trkpt><trkpt lat="44.1201132" lon="7.7218782"><ele>1453.0</ele><time>2026-05-03T09:19:58.944Z</time></trkpt><trkpt lat="44.1200057" lon="7.72191"><ele>1453.0</ele><time>2026-05-03T09:19:59.935Z</time></trkpt><trkpt lat="44.1199133" lon="7.7219334"><ele>1453.0</ele><time>2026-05-03T09:20:00.942Z</time></trkpt><trkpt lat="44.1198437" lon="7.7219378"><ele>1453.0</ele><time>2026-05-03T09:20:01.944Z</time></trkpt><trkpt lat="44.1197965" lon="7.7218557"><ele>1453.0</ele><time>2026-05-03T09:20:03.943Z</time></trkpt><trkpt lat="44.1198167" lon="7.7217441"><ele>1453.0</ele><time>2026-05-03T09:20:05.941Z</time></trkpt><trkpt lat="44.1198755" lon="7.7217052"><ele>1453.0</ele><time>2026-05-03T09:20:06.945Z</time></trkpt><trkpt lat="44.1199658" lon="7.7216519"><ele>1453.0</ele><time>2026-05-03T09:20:07.942Z</time></trkpt><trkpt lat="44.1200676" lon="7.7215668"><ele>1453.0</ele><time>2026-05-03T09:20:08.947Z</time></trkpt><trkpt lat="44.1201626" lon="7.7214846"><ele>1453.0</ele><time>2026-05-03T09:20:09.944Z</time></trkpt><trkpt lat="44.1202261" lon="7.7214243"><ele>1453.0</ele><time>2026-05-03T09:20:10.943Z</time></trkpt><trkpt lat="44.1202836" lon="7.7213651"><ele>1453.0</ele><time>2026-05-03T09:20:11.959Z</time></trkpt><trkpt lat="44.1203438" lon="7.7213053"><ele>1453.0</ele><time>2026-05-03T09:20:12.945Z</time></trkpt><trkpt lat="44.1203552" lon="7.7211797"><ele>1453.0</ele><time>2026-05-03T09:20:14.94Z</time></trkpt><trkpt lat="44.1202558" lon="7.7211355"><ele>1453.0</ele><time>2026-05-03T09:20:16.941Z</time></trkpt><trkpt lat="44.1201678" lon="7.7211584"><ele>1453.0</ele><time>2026-05-03T09:20:17.946Z</time></trkpt><trkpt lat="44.12009" lon="7.7211748"><ele>1453.0</ele><time>2026-05-03T09:20:18.936Z</time></trkpt><trkpt lat="44.1199776" lon="7.7212099"><ele>1453.0</ele><time>2026-05-03T09:20:19.946Z</time></trkpt><trkpt lat="44.119857" lon="7.7212468"><ele>1453.0</ele><time>2026-05-03T09:20:20.937Z</time></trkpt><trkpt lat="44.1197422" lon="7.7212824"><ele>1453.0</ele><time>2026-05-03T09:20:21.949Z</time></trkpt><trkpt lat="44.119632" lon="7.7213155"><ele>1457.2</ele><time>2026-05-03T09:20:22.937Z</time></trkpt><trkpt lat="44.1195122" lon="7.7213699"><ele>1461.4</ele><time>2026-05-03T09:20:23.942Z</time></trkpt><trkpt lat="44.1193936" lon="7.7214226"><ele>1465.6000000000001</ele><time>2026-05-03T09:20:24.942Z</time></trkpt><trkpt lat="44.1193047" lon="7.7214703"><ele>1469.8000000000002</ele><time>2026-05-03T09:20:25.943Z</time></trkpt><trkpt lat="44.119224" lon="7.7214983"><ele>1474.0</ele><time>2026-05-03T09:20:26.948Z</time></trkpt><trkpt lat="44.1191314" lon="7.7215037"><ele>1478.5</ele><time>2026-05-03T09:20:27.952Z</time></trkpt><trkpt lat="44.1190184" lon="7.7214887"><ele>1483.0</ele><time>2026-05-03T09:20:28.953Z</time></trkpt><trkpt lat="44.1189359" lon="7.7214593"><ele>1487.5</ele><time>2026-05-03T09:20:29.943Z</time></trkpt><trkpt lat="44.1188597" lon="7.7214416"><ele>1492.0</ele><time>2026-05-03T09:20:30.943Z</time></trkpt><trkpt lat="44.1187871" lon="7.7214649"><ele>1496.5</ele><time>2026-05-03T09:20:31.942Z</time></trkpt><trkpt lat="44.1187175" lon="7.7215605"><ele>1501.0</ele><time>2026-05-03T09:20:32.938Z</time></trkpt><trkpt lat="44.1186999" lon="7.7217036"><ele>1501.0</ele><time>2026-05-03T09:20:33.947Z</time></trkpt><trkpt lat="44.118696" lon="7.721843"><ele>1501.0</ele><time>2026-05-03T09:20:34.94Z</time></trkpt><trkpt lat="44.1186744" lon="7.7219484"><ele>1501.0</ele><time>2026-05-03T09:20:35.955Z</time></trkpt><trkpt lat="44.1186213" lon="7.7220291"><ele>1501.0</ele><time>2026-05-03T09:20:36.944Z</time></trkpt><trkpt lat="44.1185194" lon="7.7220884"><ele>1501.0</ele><time>2026-05-03T09:20:37.941Z</time></trkpt><trkpt lat="44.1184126" lon="7.7221469"><ele>1503.25</ele><time>2026-05-03T09:20:38.945Z</time></trkpt><trkpt lat="44.1182985" lon="7.722218"><ele>1505.5</ele><time>2026-05-03T09:20:39.937Z</time></trkpt><trkpt lat="44.1181837" lon="7.7223023"><ele>1507.75</ele><time>2026-05-03T09:20:40.95Z</time></trkpt><trkpt lat="44.1180667" lon="7.7223834"><ele>1510.0</ele><time>2026-05-03T09:20:41.944Z</time></trkpt><trkpt lat="44.1179595" lon="7.7224584"><ele>1510.0</ele><time>2026-05-03T09:20:42.94Z</time></trkpt><trkpt lat="44.1178896" lon="7.7225415"><ele>1510.0</ele><time>2026-05-03T09:20:43.946Z</time></trkpt><trkpt lat="44.1178306" lon="7.7226133"><ele>1510.0</ele><time>2026-05-03T09:20:44.938Z</time></trkpt><trkpt lat="44.1177728" lon="7.7226611"><ele>1510.0</ele><time>2026-05-03T09:20:45.947Z</time></trkpt><trkpt lat="44.1176977" lon="7.722601"><ele>1510.0</ele><time>2026-05-03T09:20:47.943Z</time></trkpt><trkpt lat="44.1177432" lon="7.722436"><ele>1510.0</ele><time>2026-05-03T09:20:49.932Z</time></trkpt><trkpt lat="44.1178015" lon="7.7223421"><ele>1510.0</ele><time>2026-05-03T09:20:50.94Z</time></trkpt><trkpt lat="44.1178736" lon="7.7222463"><ele>1510.0</ele><time>2026-05-03T09:20:51.937Z</time></trkpt><trkpt lat="44.1179357" lon="7.7221393"><ele>1510.0</ele><time>2026-05-03T09:20:52.934Z</time></trkpt><trkpt lat="44.1179857" lon="7.7220482"><ele>1510.0</ele><time>2026-05-03T09:20:53.938Z</time></trkpt><trkpt lat="44.1180378" lon="7.7219453"><ele>1508.2</ele><time>2026-05-03T09:20:54.946Z</time></trkpt><trkpt lat="44.1181061" lon="7.7218239"><ele>1506.4</ele><time>2026-05-03T09:20:55.934Z</time></trkpt><trkpt lat="44.1181566" lon="7.7216759"><ele>1504.6</ele><time>2026-05-03T09:20:56.935Z</time></trkpt><trkpt lat="44.1181992" lon="7.7215316"><ele>1502.8</ele><time>2026-05-03T09:20:57.941Z</time></trkpt><trkpt lat="44.1182364" lon="7.7214146"><ele>1501.0</ele><time>2026-05-03T09:20:58.938Z</time></trkpt><trkpt lat="44.1182522" lon="7.7213211"><ele>1505.6666666666665</ele><time>2026-05-03T09:20:59.951Z</time></trkpt><trkpt lat="44.1182114" lon="7.7212121"><ele>1510.3333333333333</ele><time>2026-05-03T09:21:01.945Z</time></trkpt><trkpt lat="44.1181399" lon="7.72121"><ele>1515.0</ele><time>2026-05-03T09:21:02.96Z</time></trkpt><trkpt lat="44.1180859" lon="7.7212571"><ele>1519.6666666666667</ele><time>2026-05-03T09:21:03.942Z</time></trkpt><trkpt lat="44.1180151" lon="7.7213171"><ele>1524.3333333333335</ele><time>2026-05-03T09:21:04.939Z</time></trkpt><trkpt lat="44.1179387" lon="7.7213901"><ele>1529.0</ele><time>2026-05-03T09:21:05.939Z</time></trkpt><trkpt lat="44.1178584" lon="7.721477"><ele>1529.0</ele><time>2026-05-03T09:21:06.942Z</time></trkpt><trkpt lat="44.1177729" lon="7.7216048"><ele>1529.0</ele><time>2026-05-03T09:21:07.943Z</time></trkpt><trkpt lat="44.1176832" lon="7.721712"><ele>1529.0</ele><time>2026-05-03T09:21:08.939Z</time></trkpt><trkpt lat="44.1175769" lon="7.7218091"><ele>1529.0</ele><time>2026-05-03T09:21:09.943Z</time></trkpt><trkpt lat="44.1174601" lon="7.7219111"><ele>1530.75</ele><time>2026-05-03T09:21:10.951Z</time></trkpt><trkpt lat="44.1173452" lon="7.7220104"><ele>1532.5</ele><time>2026-05-03T09:21:11.943Z</time></trkpt><trkpt lat="44.1172376" lon="7.7220929"><ele>1534.25</ele><time>2026-05-03T09:21:12.94Z</time></trkpt><trkpt lat="44.1171392" lon="7.7221537"><ele>1536.0</ele><time>2026-05-03T09:21:13.939Z</time></trkpt><trkpt lat="44.1170548" lon="7.7221823"><ele>1536.0</ele><time>2026-05-03T09:21:14.938Z</time></trkpt><trkpt lat="44.1169798" lon="7.7221986"><ele>1536.0</ele><time>2026-05-03T09:21:15.936Z</time></trkpt><trkpt lat="44.1169196" lon="7.7222357"><ele>1536.0</ele><time>2026-05-03T09:21:16.943Z</time></trkpt><trkpt lat="44.116866" lon="7.7223199"><ele>1536.0</ele><time>2026-05-03T09:21:17.943Z</time></trkpt><trkpt lat="44.1167971" lon="7.7224379"><ele>1536.0</ele><time>2026-05-03T09:21:18.942Z</time></trkpt><trkpt lat="44.1167083" lon="7.7225469"><ele>1536.0</ele><time>2026-05-03T09:21:19.936Z</time></trkpt><trkpt lat="44.1166138" lon="7.7226522"><ele>1536.0</ele><time>2026-05-03T09:21:20.94Z</time></trkpt><trkpt lat="44.1165144" lon="7.7227617"><ele>1536.0</ele><time>2026-05-03T09:21:21.941Z</time></trkpt><trkpt lat="44.1164197" lon="7.7228692"><ele>1536.0</ele><time>2026-05-03T09:21:22.938Z</time></trkpt><trkpt lat="44.1163348" lon="7.7229714"><ele>1538.5</ele><time>2026-05-03T09:21:23.942Z</time></trkpt><trkpt lat="44.1162573" lon="7.7230718"><ele>1541.0</ele><time>2026-05-03T09:21:24.952Z</time></trkpt><trkpt lat="44.1161707" lon="7.7231772"><ele>1543.5</ele><time>2026-05-03T09:21:25.946Z</time></trkpt><trkpt lat="44.1160771" lon="7.723275"><ele>1546.0</ele><time>2026-05-03T09:21:26.94Z</time></trkpt><trkpt lat="44.115972" lon="7.7233636"><ele>1546.0</ele><time>2026-05-03T09:21:27.937Z</time></trkpt><trkpt lat="44.1158639" lon="7.7234429"><ele>1546.0</ele><time>2026-05-03T09:21:28.952Z</time></trkpt><trkpt lat="44.1157469" lon="7.7235219"><ele>1546.0</ele><time>2026-05-03T09:21:29.945Z</time></trkpt><trkpt lat="44.1156349" lon="7.7235952"><ele>1546.0</ele><time>2026-05-03T09:21:30.939Z</time></trkpt><trkpt lat="44.1155159" lon="7.7236739"><ele>1546.5</ele><time>2026-05-03T09:21:31.946Z</time></trkpt><trkpt lat="44.1153982" lon="7.7237374"><ele>1547.0</ele><time>2026-05-03T09:21:32.939Z</time></trkpt><trkpt lat="44.1152715" lon="7.7238001"><ele>1547.5</ele><time>2026-05-03T09:21:33.94Z</time></trkpt><trkpt lat="44.1151483" lon="7.7238317"><ele>1548.0</ele><time>2026-05-03T09:21:34.942Z</time></trkpt><trkpt lat="44.1150141" lon="7.7238469"><ele>1550.6000000000001</ele><time>2026-05-03T09:21:35.941Z</time></trkpt><trkpt lat="44.1148801" lon="7.7238669"><ele>1553.2</ele><time>2026-05-03T09:21:36.939Z</time></trkpt><trkpt lat="44.1147703" lon="7.7238842"><ele>1555.8</ele><time>2026-05-03T09:21:37.94Z</time></trkpt><trkpt lat="44.1146933" lon="7.7238911"><ele>1558.4</ele><time>2026-05-03T09:21:38.941Z</time></trkpt><trkpt lat="44.1146057" lon="7.7238353"><ele>1561.0</ele><time>2026-05-03T09:21:40.939Z</time></trkpt><trkpt lat="44.1146229" lon="7.7237059"><ele>1561.0</ele><time>2026-05-03T09:21:42.947Z</time></trkpt><trkpt lat="44.1146849" lon="7.7236407"><ele>1561.0</ele><time>2026-05-03T09:21:43.945Z</time></trkpt><trkpt lat="44.1147564" lon="7.7235673"><ele>1561.0</ele><time>2026-05-03T09:21:44.942Z</time></trkpt><trkpt lat="44.1148371" lon="7.7234972"><ele>1561.0</ele><time>2026-05-03T09:21:45.944Z</time></trkpt><trkpt lat="44.1149188" lon="7.723412"><ele>1561.0</ele><time>2026-05-03T09:21:46.953Z</time></trkpt><trkpt lat="44.1150125" lon="7.7232959"><ele>1562.0</ele><time>2026-05-03T09:21:47.939Z</time></trkpt><trkpt lat="44.1151076" lon="7.7231665"><ele>1563.0</ele><time>2026-05-03T09:21:48.944Z</time></trkpt><trkpt lat="44.1151949" lon="7.7230411"><ele>1564.0</ele><time>2026-05-03T09:21:49.945Z</time></trkpt><trkpt lat="44.1152752" lon="7.7229184"><ele>1565.0</ele><time>2026-05-03T09:21:50.94Z</time></trkpt><trkpt lat="44.115348" lon="7.7228176"><ele>1568.2</ele><time>2026-05-03T09:21:51.948Z</time></trkpt><trkpt lat="44.115403" lon="7.72273"><ele>1571.4</ele><time>2026-05-03T09:21:52.95Z</time></trkpt><trkpt lat="44.1154307" lon="7.7226464"><ele>1574.6</ele><time>2026-05-03T09:21:53.951Z</time></trkpt><trkpt lat="44.1153894" lon="7.7225144"><ele>1577.8</ele><time>2026-05-03T09:21:55.951Z</time></trkpt><trkpt lat="44.1152641" lon="7.7225024"><ele>1581.0</ele><time>2026-05-03T09:21:57.961Z</time></trkpt><trkpt lat="44.1151618" lon="7.7225786"><ele>1581.0</ele><time>2026-05-03T09:21:58.95Z</time></trkpt><trkpt lat="44.1150498" lon="7.7226264"><ele>1581.0</ele><time>2026-05-03T09:21:59.944Z</time></trkpt><trkpt lat="44.1149295" lon="7.722675"><ele>1581.0</ele><time>2026-05-03T09:22:00.952Z</time></trkpt><trkpt lat="44.1148047" lon="7.7227092"><ele>1581.0</ele><time>2026-05-03T09:22:01.949Z</time></trkpt><trkpt lat="44.1146813" lon="7.7227375"><ele>1579.0</ele><time>2026-05-03T09:22:02.945Z</time></trkpt><trkpt lat="44.1145592" lon="7.722769"><ele>1577.0</ele><time>2026-05-03T09:22:03.95Z</time></trkpt><trkpt lat="44.1144284" lon="7.7227844"><ele>1575.0</ele><time>2026-05-03T09:22:04.954Z</time></trkpt><trkpt lat="44.1142868" lon="7.7227835"><ele>1573.0</ele><time>2026-05-03T09:22:05.946Z</time></trkpt><trkpt lat="44.1141445" lon="7.7227729"><ele>1573.75</ele><time>2026-05-03T09:22:06.95Z</time></trkpt><trkpt lat="44.1140024" lon="7.7227552"><ele>1574.5</ele><time>2026-05-03T09:22:07.947Z</time></trkpt><trkpt lat="44.1138482" lon="7.7227499"><ele>1575.25</ele><time>2026-05-03T09:22:08.948Z</time></trkpt><trkpt lat="44.1136966" lon="7.7227286"><ele>1576.0</ele><time>2026-05-03T09:22:09.951Z</time></trkpt><trkpt lat="44.1135506" lon="7.7226812"><ele>1581.25</ele><time>2026-05-03T09:22:10.958Z</time></trkpt><trkpt lat="44.1134121" lon="7.722626"><ele>1586.5</ele><time>2026-05-03T09:22:11.951Z</time></trkpt><trkpt lat="44.1132789" lon="7.7225545"><ele>1591.75</ele><time>2026-05-03T09:22:12.947Z</time></trkpt><trkpt lat="44.1131449" lon="7.7224759"><ele>1597.0</ele><time>2026-05-03T09:22:13.951Z</time></trkpt><trkpt lat="44.1130058" lon="7.7223925"><ele>1597.0</ele><time>2026-05-03T09:22:14.949Z</time></trkpt><trkpt lat="44.1128684" lon="7.7223123"><ele>1597.0</ele><time>2026-05-03T09:22:15.956Z</time></trkpt><trkpt lat="44.112737" lon="7.7222503"><ele>1597.0</ele><time>2026-05-03T09:22:16.95Z</time></trkpt><trkpt lat="44.1126139" lon="7.7222073"><ele>1597.0</ele><time>2026-05-03T09:22:17.946Z</time></trkpt><trkpt lat="44.1125119" lon="7.7221627"><ele>1597.0</ele><time>2026-05-03T09:22:18.95Z</time></trkpt><trkpt lat="44.1124157" lon="7.7221132"><ele>1597.0</ele><time>2026-05-03T09:22:19.957Z</time></trkpt><trkpt lat="44.1123312" lon="7.7220563"><ele>1597.0</ele><time>2026-05-03T09:22:20.947Z</time></trkpt><trkpt lat="44.1122503" lon="7.7219948"><ele>1597.0</ele><time>2026-05-03T09:22:21.948Z</time></trkpt><trkpt lat="44.1121771" lon="7.7219323"><ele>1597.0</ele><time>2026-05-03T09:22:22.955Z</time></trkpt><trkpt lat="44.1121096" lon="7.7218783"><ele>1599.1666666666667</ele><time>2026-05-03T09:22:23.946Z</time></trkpt><trkpt lat="44.1120471" lon="7.7218607"><ele>1601.3333333333335</ele><time>2026-05-03T09:22:24.955Z</time></trkpt><trkpt lat="44.1119403" lon="7.72192"><ele>1603.5</ele><time>2026-05-03T09:22:26.948Z</time></trkpt><trkpt lat="44.1119117" lon="7.7220044"><ele>1605.6666666666665</ele><time>2026-05-03T09:22:27.956Z</time></trkpt><trkpt lat="44.1118861" lon="7.7221049"><ele>1607.8333333333333</ele><time>2026-05-03T09:22:28.947Z</time></trkpt><trkpt lat="44.1118581" lon="7.7222351"><ele>1610.0</ele><time>2026-05-03T09:22:29.946Z</time></trkpt><trkpt lat="44.111831" lon="7.7223875"><ele>1610.5</ele><time>2026-05-03T09:22:30.949Z</time></trkpt><trkpt lat="44.1118184" lon="7.7225573"><ele>1611.0</ele><time>2026-05-03T09:22:31.949Z</time></trkpt><trkpt lat="44.1118273" lon="7.7227274"><ele>1611.5</ele><time>2026-05-03T09:22:32.947Z</time></trkpt><trkpt lat="44.111854" lon="7.7229094"><ele>1612.0</ele><time>2026-05-03T09:22:33.946Z</time></trkpt><trkpt lat="44.1118929" lon="7.7230994"><ele>1614.75</ele><time>2026-05-03T09:22:34.945Z</time></trkpt><trkpt lat="44.1119305" lon="7.7232917"><ele>1617.5</ele><time>2026-05-03T09:22:35.945Z</time></trkpt><trkpt lat="44.1119712" lon="7.7234792"><ele>1620.25</ele><time>2026-05-03T09:22:36.943Z</time></trkpt><trkpt lat="44.1120115" lon="7.7236835"><ele>1623.0</ele><time>2026-05-03T09:22:37.943Z</time></trkpt><trkpt lat="44.1120578" lon="7.7238881"><ele>1621.6666666666665</ele><time>2026-05-03T09:22:38.95Z</time></trkpt><trkpt lat="44.1121101" lon="7.7240916"><ele>1620.3333333333333</ele><time>2026-05-03T09:22:39.957Z</time></trkpt><trkpt lat="44.1121549" lon="7.7242942"><ele>1619.0</ele><time>2026-05-03T09:22:40.953Z</time></trkpt><trkpt lat="44.1122007" lon="7.7244936"><ele>1619.0</ele><time>2026-05-03T09:22:41.943Z</time></trkpt><trkpt lat="44.1122441" lon="7.7246858"><ele>1619.0</ele><time>2026-05-03T09:22:42.943Z</time></trkpt><trkpt lat="44.1122885" lon="7.7248644"><ele>1619.0</ele><time>2026-05-03T09:22:43.947Z</time></trkpt><trkpt lat="44.1123385" lon="7.7250179"><ele>1619.0</ele><time>2026-05-03T09:22:44.949Z</time></trkpt><trkpt lat="44.1123859" lon="7.7251505"><ele>1619.6666666666665</ele><time>2026-05-03T09:22:45.956Z</time></trkpt><trkpt lat="44.112433" lon="7.7252651"><ele>1620.3333333333333</ele><time>2026-05-03T09:22:46.952Z</time></trkpt><trkpt lat="44.112467" lon="7.7253728"><ele>1621.0</ele><time>2026-05-03T09:22:47.953Z</time></trkpt><trkpt lat="44.1124896" lon="7.7254991"><ele>1621.6666666666665</ele><time>2026-05-03T09:22:48.946Z</time></trkpt><trkpt lat="44.1124779" lon="7.7256009"><ele>1622.3333333333333</ele><time>2026-05-03T09:22:49.949Z</time></trkpt><trkpt lat="44.1124539" lon="7.725687"><ele>1623.0</ele><time>2026-05-03T09:22:50.949Z</time></trkpt><trkpt lat="44.1124303" lon="7.7257785"><ele>1623.0</ele><time>2026-05-03T09:22:51.951Z</time></trkpt><trkpt lat="44.112414" lon="7.7258789"><ele>1623.0</ele><time>2026-05-03T09:22:52.949Z</time></trkpt><trkpt lat="44.1124205" lon="7.7259791"><ele>1623.0</ele><time>2026-05-03T09:22:53.949Z</time></trkpt><trkpt lat="44.1124491" lon="7.7260906"><ele>1623.0</ele><time>2026-05-03T09:22:54.952Z</time></trkpt><trkpt lat="44.1124872" lon="7.7262004"><ele>1623.0</ele><time>2026-05-03T09:22:55.952Z</time></trkpt><trkpt lat="44.1125294" lon="7.7263197"><ele>1623.0</ele><time>2026-05-03T09:22:56.943Z</time></trkpt><trkpt lat="44.1125749" lon="7.7264393"><ele>1620.2</ele><time>2026-05-03T09:22:57.956Z</time></trkpt><trkpt lat="44.1126261" lon="7.7265626"><ele>1617.4</ele><time>2026-05-03T09:22:58.948Z</time></trkpt><trkpt lat="44.1126801" lon="7.7266889"><ele>1614.6000000000001</ele><time>2026-05-03T09:22:59.96Z</time></trkpt><trkpt lat="44.1127378" lon="7.7268223"><ele>1611.8000000000002</ele><time>2026-05-03T09:23:00.947Z</time></trkpt><trkpt lat="44.1128098" lon="7.7269633"><ele>1609.0</ele><time>2026-05-03T09:23:01.951Z</time></trkpt><trkpt lat="44.1128861" lon="7.7271271"><ele>1601.75</ele><time>2026-05-03T09:23:02.953Z</time></trkpt><trkpt lat="44.1129702" lon="7.7272853"><ele>1594.5</ele><time>2026-05-03T09:23:03.952Z</time></trkpt><trkpt lat="44.1130654" lon="7.727435"><ele>1587.25</ele><time>2026-05-03T09:23:04.945Z</time></trkpt><trkpt lat="44.1131495" lon="7.7275912"><ele>1580.0</ele><time>2026-05-03T09:23:05.962Z</time></trkpt><trkpt lat="44.1132363" lon="7.727741"><ele>1584.0</ele><time>2026-05-03T09:23:06.955Z</time></trkpt><trkpt lat="44.1133173" lon="7.7278857"><ele>1588.0</ele><time>2026-05-03T09:23:07.952Z</time></trkpt><trkpt lat="44.1134038" lon="7.7280402"><ele>1592.0</ele><time>2026-05-03T09:23:08.964Z</time></trkpt><trkpt lat="44.1134779" lon="7.7281962"><ele>1596.0</ele><time>2026-05-03T09:23:09.951Z</time></trkpt><trkpt lat="44.1135494" lon="7.728349"><ele>1596.0</ele><time>2026-05-03T09:23:10.957Z</time></trkpt><trkpt lat="44.1136085" lon="7.7284938"><ele>1596.0</ele><time>2026-05-03T09:23:11.947Z</time></trkpt><trkpt lat="44.1136471" lon="7.7286382"><ele>1596.0</ele><time>2026-05-03T09:23:12.948Z</time></trkpt><trkpt lat="44.1136582" lon="7.7287806"><ele>1596.0</ele><time>2026-05-03T09:23:13.95Z</time></trkpt><trkpt lat="44.1136412" lon="7.7289275"><ele>1596.0</ele><time>2026-05-03T09:23:14.943Z</time></trkpt><trkpt lat="44.1135936" lon="7.7290634"><ele>1594.0</ele><time>2026-05-03T09:23:15.953Z</time></trkpt><trkpt lat="44.1135302" lon="7.7291766"><ele>1592.0</ele><time>2026-05-03T09:23:16.947Z</time></trkpt><trkpt lat="44.1134819" lon="7.7292878"><ele>1590.0</ele><time>2026-05-03T09:23:17.937Z</time></trkpt><trkpt lat="44.1134422" lon="7.7294008"><ele>1588.0</ele><time>2026-05-03T09:23:18.953Z</time></trkpt><trkpt lat="44.1134242" lon="7.7295335"><ele>1586.0</ele><time>2026-05-03T09:23:19.951Z</time></trkpt><trkpt lat="44.1134489" lon="7.7296473"><ele>1582.25</ele><time>2026-05-03T09:23:20.947Z</time></trkpt><trkpt lat="44.113524" lon="7.7297575"><ele>1578.5</ele><time>2026-05-03T09:23:21.934Z</time></trkpt><trkpt lat="44.113621" lon="7.7298478"><ele>1574.75</ele><time>2026-05-03T09:23:22.934Z</time></trkpt><trkpt lat="44.1137358" lon="7.7299541"><ele>1571.0</ele><time>2026-05-03T09:23:23.937Z</time></trkpt><trkpt lat="44.1138517" lon="7.7300519"><ele>1571.0</ele><time>2026-05-03T09:23:24.936Z</time></trkpt><trkpt lat="44.1139641" lon="7.7301555"><ele>1571.0</ele><time>2026-05-03T09:23:25.95Z</time></trkpt><trkpt lat="44.1140781" lon="7.7302686"><ele>1571.0</ele><time>2026-05-03T09:23:26.94Z</time></trkpt><trkpt lat="44.1141786" lon="7.7303872"><ele>1571.0</ele><time>2026-05-03T09:23:27.944Z</time></trkpt><trkpt lat="44.1142831" lon="7.7304971"><ele>1569.5</ele><time>2026-05-03T09:23:28.945Z</time></trkpt><trkpt lat="44.1143836" lon="7.7306034"><ele>1568.0</ele><time>2026-05-03T09:23:29.943Z</time></trkpt><trkpt lat="44.114473" lon="7.7307313"><ele>1566.5</ele><time>2026-05-03T09:23:30.941Z</time></trkpt><trkpt lat="44.1145492" lon="7.7308622"><ele>1565.0</ele><time>2026-05-03T09:23:31.942Z</time></trkpt><trkpt lat="44.1146197" lon="7.7309955"><ele>1561.2</ele><time>2026-05-03T09:23:32.942Z</time></trkpt><trkpt lat="44.1146894" lon="7.7311277"><ele>1557.4</ele><time>2026-05-03T09:23:33.949Z</time></trkpt><trkpt lat="44.1147554" lon="7.7312467"><ele>1553.6</ele><time>2026-05-03T09:23:34.955Z</time></trkpt><trkpt lat="44.1148089" lon="7.7313653"><ele>1549.8</ele><time>2026-05-03T09:23:35.933Z</time></trkpt><trkpt lat="44.1148244" lon="7.7314941"><ele>1546.0</ele><time>2026-05-03T09:23:36.942Z</time></trkpt><trkpt lat="44.1147986" lon="7.7316309"><ele>1546.0</ele><time>2026-05-03T09:23:37.951Z</time></trkpt><trkpt lat="44.1147448" lon="7.7317645"><ele>1546.0</ele><time>2026-05-03T09:23:38.942Z</time></trkpt><trkpt lat="44.1146968" lon="7.7318987"><ele>1546.0</ele><time>2026-05-03T09:23:39.942Z</time></trkpt><trkpt lat="44.1146502" lon="7.7320275"><ele>1546.0</ele><time>2026-05-03T09:23:40.962Z</time></trkpt><trkpt lat="44.1146083" lon="7.7321549"><ele>1546.0</ele><time>2026-05-03T09:23:41.946Z</time></trkpt><trkpt lat="44.1145669" lon="7.7322794"><ele>1547.75</ele><time>2026-05-03T09:23:42.939Z</time></trkpt><trkpt lat="44.1145115" lon="7.7324066"><ele>1549.5</ele><time>2026-05-03T09:23:43.945Z</time></trkpt><trkpt lat="44.1144454" lon="7.7325355"><ele>1551.25</ele><time>2026-05-03T09:23:44.947Z</time></trkpt><trkpt lat="44.1143717" lon="7.732657"><ele>1553.0</ele><time>2026-05-03T09:23:45.952Z</time></trkpt><trkpt lat="44.1142893" lon="7.7327694"><ele>1554.6000000000001</ele><time>2026-05-03T09:23:46.943Z</time></trkpt><trkpt lat="44.1142086" lon="7.732878"><ele>1556.2</ele><time>2026-05-03T09:23:47.943Z</time></trkpt><trkpt lat="44.1141393" lon="7.7329872"><ele>1557.8</ele><time>2026-05-03T09:23:48.956Z</time></trkpt><trkpt lat="44.1140793" lon="7.7330984"><ele>1559.4</ele><time>2026-05-03T09:23:49.949Z</time></trkpt><trkpt lat="44.1140385" lon="7.7332327"><ele>1561.0</ele><time>2026-05-03T09:23:50.95Z</time></trkpt><trkpt lat="44.1140388" lon="7.7333871"><ele>1558.75</ele><time>2026-05-03T09:23:51.945Z</time></trkpt><trkpt lat="44.1140568" lon="7.7335475"><ele>1556.5</ele><time>2026-05-03T09:23:52.949Z</time></trkpt><trkpt lat="44.1140703" lon="7.7337078"><ele>1554.25</ele><time>2026-05-03T09:23:53.949Z</time></trkpt><trkpt lat="44.1140838" lon="7.7338738"><ele>1552.0</ele><time>2026-05-03T09:23:54.949Z</time></trkpt><trkpt lat="44.1140785" lon="7.7340284"><ele>1552.0</ele><time>2026-05-03T09:23:55.949Z</time></trkpt><trkpt lat="44.1140669" lon="7.7341805"><ele>1552.0</ele><time>2026-05-03T09:23:56.95Z</time></trkpt><trkpt lat="44.1140763" lon="7.7343286"><ele>1552.0</ele><time>2026-05-03T09:23:57.959Z</time></trkpt><trkpt lat="44.1141175" lon="7.7344558"><ele>1552.0</ele><time>2026-05-03T09:23:58.948Z</time></trkpt><trkpt lat="44.1141703" lon="7.7346107"><ele>1552.0</ele><time>2026-05-03T09:23:59.948Z</time></trkpt><trkpt lat="44.1142245" lon="7.7347719"><ele>1549.25</ele><time>2026-05-03T09:24:00.948Z</time></trkpt><trkpt lat="44.1142601" lon="7.7349472"><ele>1546.5</ele><time>2026-05-03T09:24:01.936Z</time></trkpt><trkpt lat="44.1142699" lon="7.7351278"><ele>1543.75</ele><time>2026-05-03T09:24:02.947Z</time></trkpt><trkpt lat="44.114262" lon="7.7352947"><ele>1541.0</ele><time>2026-05-03T09:24:03.942Z</time></trkpt><trkpt lat="44.1142436" lon="7.7354587"><ele>1539.25</ele><time>2026-05-03T09:24:04.94Z</time></trkpt><trkpt lat="44.114224" lon="7.7356356"><ele>1537.5</ele><time>2026-05-03T09:24:05.943Z</time></trkpt><trkpt lat="44.1142219" lon="7.7358265"><ele>1535.75</ele><time>2026-05-03T09:24:06.951Z</time></trkpt><trkpt lat="44.1142288" lon="7.7360379"><ele>1534.0</ele><time>2026-05-03T09:24:07.944Z</time></trkpt><trkpt lat="44.1142339" lon="7.7362391"><ele>1533.25</ele><time>2026-05-03T09:24:08.947Z</time></trkpt><trkpt lat="44.1142354" lon="7.7364402"><ele>1532.5</ele><time>2026-05-03T09:24:09.945Z</time></trkpt><trkpt lat="44.1142217" lon="7.7366387"><ele>1531.75</ele><time>2026-05-03T09:24:10.939Z</time></trkpt><trkpt lat="44.1142192" lon="7.7368329"><ele>1531.0</ele><time>2026-05-03T09:24:11.942Z</time></trkpt><trkpt lat="44.1142319" lon="7.7370189"><ele>1527.5</ele><time>2026-05-03T09:24:12.951Z</time></trkpt><trkpt lat="44.1142582" lon="7.7372046"><ele>1524.0</ele><time>2026-05-03T09:24:13.942Z</time></trkpt><trkpt lat="44.1142998" lon="7.737358"><ele>1520.5</ele><time>2026-05-03T09:24:14.944Z</time></trkpt><trkpt lat="44.1143518" lon="7.7375201"><ele>1517.0</ele><time>2026-05-03T09:24:15.949Z</time></trkpt><trkpt lat="44.1144352" lon="7.7376788"><ele>1513.5</ele><time>2026-05-03T09:24:16.952Z</time></trkpt><trkpt lat="44.1145149" lon="7.73784"><ele>1510.0</ele><time>2026-05-03T09:24:17.945Z</time></trkpt><trkpt lat="44.114584" lon="7.7380036"><ele>1506.5</ele><time>2026-05-03T09:24:18.95Z</time></trkpt><trkpt lat="44.1146443" lon="7.7381588"><ele>1503.0</ele><time>2026-05-03T09:24:19.935Z</time></trkpt><trkpt lat="44.1146897" lon="7.7383048"><ele>1503.0</ele><time>2026-05-03T09:24:20.947Z</time></trkpt><trkpt lat="44.1147109" lon="7.7384388"><ele>1503.0</ele><time>2026-05-03T09:24:21.946Z</time></trkpt><trkpt lat="44.1147126" lon="7.7385893"><ele>1503.0</ele><time>2026-05-03T09:24:22.943Z</time></trkpt><trkpt lat="44.1146779" lon="7.7387467"><ele>1503.0</ele><time>2026-05-03T09:24:23.943Z</time></trkpt><trkpt lat="44.1146185" lon="7.7388991"><ele>1503.0</ele><time>2026-05-03T09:24:24.935Z</time></trkpt><trkpt lat="44.1145367" lon="7.7390667"><ele>1502.6666666666667</ele><time>2026-05-03T09:24:25.946Z</time></trkpt><trkpt lat="44.1144496" lon="7.7392418"><ele>1502.3333333333335</ele><time>2026-05-03T09:24:26.943Z</time></trkpt><trkpt lat="44.1143651" lon="7.7394141"><ele>1502.0</ele><time>2026-05-03T09:24:27.939Z</time></trkpt><trkpt lat="44.1142783" lon="7.7395815"><ele>1504.5</ele><time>2026-05-03T09:24:28.942Z</time></trkpt><trkpt lat="44.1141912" lon="7.7397394"><ele>1507.0</ele><time>2026-05-03T09:24:29.941Z</time></trkpt><trkpt lat="44.1141053" lon="7.7398974"><ele>1509.5</ele><time>2026-05-03T09:24:30.941Z</time></trkpt><trkpt lat="44.114026" lon="7.74006"><ele>1512.0</ele><time>2026-05-03T09:24:31.941Z</time></trkpt><trkpt lat="44.1139506" lon="7.7402371"><ele>1506.1999999999998</ele><time>2026-05-03T09:24:32.944Z</time></trkpt><trkpt lat="44.1138841" lon="7.7404023"><ele>1500.4</ele><time>2026-05-03T09:24:33.944Z</time></trkpt><trkpt lat="44.1138285" lon="7.7405386"><ele>1494.6</ele><time>2026-05-03T09:24:34.943Z</time></trkpt><trkpt lat="44.1137783" lon="7.7406375"><ele>1488.8000000000002</ele><time>2026-05-03T09:24:35.939Z</time></trkpt><trkpt lat="44.1137209" lon="7.7406939"><ele>1483.0</ele><time>2026-05-03T09:24:36.947Z</time></trkpt><trkpt lat="44.1136542" lon="7.7406976"><ele>1483.0</ele><time>2026-05-03T09:24:37.939Z</time></trkpt><trkpt lat="44.1135978" lon="7.7405486"><ele>1483.0</ele><time>2026-05-03T09:24:39.942Z</time></trkpt><trkpt lat="44.1135845" lon="7.7404127"><ele>1483.0</ele><time>2026-05-03T09:24:40.948Z</time></trkpt><trkpt lat="44.1135693" lon="7.7402636"><ele>1483.0</ele><time>2026-05-03T09:24:41.937Z</time></trkpt><trkpt lat="44.1135327" lon="7.7400934"><ele>1482.75</ele><time>2026-05-03T09:24:42.934Z</time></trkpt><trkpt lat="44.1134858" lon="7.7399193"><ele>1482.5</ele><time>2026-05-03T09:24:43.955Z</time></trkpt><trkpt lat="44.1134339" lon="7.7397642"><ele>1482.25</ele><time>2026-05-03T09:24:44.937Z</time></trkpt><trkpt lat="44.1134008" lon="7.739614"><ele>1482.0</ele><time>2026-05-03T09:24:45.946Z</time></trkpt><trkpt lat="44.1133886" lon="7.7394602"><ele>1481.6</ele><time>2026-05-03T09:24:46.941Z</time></trkpt><trkpt lat="44.1134013" lon="7.7393134"><ele>1481.1999999999998</ele><time>2026-05-03T09:24:47.936Z</time></trkpt><trkpt lat="44.1134424" lon="7.7391774"><ele>1480.8</ele><time>2026-05-03T09:24:48.94Z</time></trkpt><trkpt lat="44.1134909" lon="7.7390668"><ele>1480.4</ele><time>2026-05-03T09:24:49.939Z</time></trkpt><trkpt lat="44.1135241" lon="7.7389621"><ele>1480.0</ele><time>2026-05-03T09:24:50.935Z</time></trkpt><trkpt lat="44.113486" lon="7.7388096"><ele>1480.0</ele><time>2026-05-03T09:24:52.94Z</time></trkpt><trkpt lat="44.1134124" lon="7.7387825"><ele>1480.0</ele><time>2026-05-03T09:24:53.94Z</time></trkpt><trkpt lat="44.1133302" lon="7.7388307"><ele>1480.0</ele><time>2026-05-03T09:24:54.95Z</time></trkpt><trkpt lat="44.1132437" lon="7.7389023"><ele>1480.0</ele><time>2026-05-03T09:24:55.95Z</time></trkpt><trkpt lat="44.1131493" lon="7.7390083"><ele>1480.0</ele><time>2026-05-03T09:24:56.944Z</time></trkpt><trkpt lat="44.1130739" lon="7.7391222"><ele>1472.5</ele><time>2026-05-03T09:24:57.95Z</time></trkpt><trkpt lat="44.1130131" lon="7.7392555"><ele>1465.0</ele><time>2026-05-03T09:24:58.941Z</time></trkpt><trkpt lat="44.1129629" lon="7.7394079"><ele>1457.5</ele><time>2026-05-03T09:24:59.943Z</time></trkpt><trkpt lat="44.1129253" lon="7.7395731"><ele>1450.0</ele><time>2026-05-03T09:25:00.946Z</time></trkpt><trkpt lat="44.1129059" lon="7.7397403"><ele>1448.25</ele><time>2026-05-03T09:25:01.946Z</time></trkpt><trkpt lat="44.1129139" lon="7.7399141"><ele>1446.5</ele><time>2026-05-03T09:25:02.941Z</time></trkpt><trkpt lat="44.1129387" lon="7.74009"><ele>1444.75</ele><time>2026-05-03T09:25:03.943Z</time></trkpt><trkpt lat="44.1129708" lon="7.7402651"><ele>1443.0</ele><time>2026-05-03T09:25:04.95Z</time></trkpt><trkpt lat="44.112989" lon="7.7404379"><ele>1442.75</ele><time>2026-05-03T09:25:05.944Z</time></trkpt><trkpt lat="44.1129664" lon="7.7406124"><ele>1442.5</ele><time>2026-05-03T09:25:06.948Z</time></trkpt><trkpt lat="44.1129467" lon="7.7407779"><ele>1442.25</ele><time>2026-05-03T09:25:07.939Z</time></trkpt><trkpt lat="44.112919" lon="7.7409395"><ele>1442.0</ele><time>2026-05-03T09:25:08.948Z</time></trkpt><trkpt lat="44.112888" lon="7.7411064"><ele>1441.1999999999998</ele><time>2026-05-03T09:25:09.942Z</time></trkpt><trkpt lat="44.1128482" lon="7.7412648"><ele>1440.4</ele><time>2026-05-03T09:25:10.947Z</time></trkpt><trkpt lat="44.1128139" lon="7.7414093"><ele>1439.6</ele><time>2026-05-03T09:25:11.944Z</time></trkpt><trkpt lat="44.1128106" lon="7.7415613"><ele>1438.8000000000002</ele><time>2026-05-03T09:25:12.948Z</time></trkpt><trkpt lat="44.1128261" lon="7.7417087"><ele>1438.0</ele><time>2026-05-03T09:25:13.948Z</time></trkpt><trkpt lat="44.1128468" lon="7.7418673"><ele>1438.5</ele><time>2026-05-03T09:25:14.94Z</time></trkpt><trkpt lat="44.1128288" lon="7.742012"><ele>1439.0</ele><time>2026-05-03T09:25:15.939Z</time></trkpt><trkpt lat="44.1127808" lon="7.7421466"><ele>1439.5</ele><time>2026-05-03T09:25:16.947Z</time></trkpt><trkpt lat="44.1127072" lon="7.7422887"><ele>1440.0</ele><time>2026-05-03T09:25:17.942Z</time></trkpt><trkpt lat="44.1126399" lon="7.7424199"><ele>1440.0</ele><time>2026-05-03T09:25:18.942Z</time></trkpt><trkpt lat="44.1125866" lon="7.7425605"><ele>1440.0</ele><time>2026-05-03T09:25:19.952Z</time></trkpt><trkpt lat="44.1125573" lon="7.7427296"><ele>1440.0</ele><time>2026-05-03T09:25:20.942Z</time></trkpt><trkpt lat="44.1125496" lon="7.7429115"><ele>1440.0</ele><time>2026-05-03T09:25:21.951Z</time></trkpt><trkpt lat="44.1125257" lon="7.7431008"><ele>1440.0</ele><time>2026-05-03T09:25:22.943Z</time></trkpt><trkpt lat="44.112504" lon="7.7432869"><ele>1440.0</ele><time>2026-05-03T09:25:23.947Z</time></trkpt><trkpt lat="44.1124839" lon="7.7434769"><ele>1440.0</ele><time>2026-05-03T09:25:24.943Z</time></trkpt><trkpt lat="44.1124792" lon="7.7436576"><ele>1440.0</ele><time>2026-05-03T09:25:25.947Z</time></trkpt><trkpt lat="44.1124839" lon="7.7438502"><ele>1439.5</ele><time>2026-05-03T09:25:26.939Z</time></trkpt><trkpt lat="44.1124904" lon="7.7440399"><ele>1439.0</ele><time>2026-05-03T09:25:27.942Z</time></trkpt><trkpt lat="44.1124915" lon="7.7442243"><ele>1438.5</ele><time>2026-05-03T09:25:28.957Z</time></trkpt><trkpt lat="44.1125011" lon="7.7444055"><ele>1438.0</ele><time>2026-05-03T09:25:29.936Z</time></trkpt><trkpt lat="44.1125111" lon="7.7445807"><ele>1437.2</ele><time>2026-05-03T09:25:30.944Z</time></trkpt><trkpt lat="44.1125197" lon="7.7447479"><ele>1436.4</ele><time>2026-05-03T09:25:31.943Z</time></trkpt><trkpt lat="44.1125356" lon="7.7448704"><ele>1435.6000000000001</ele><time>2026-05-03T09:25:32.94Z</time></trkpt><trkpt lat="44.112555" lon="7.7449726"><ele>1434.8000000000002</ele><time>2026-05-03T09:25:33.94Z</time></trkpt><trkpt lat="44.1125402" lon="7.7450742"><ele>1434.0</ele><time>2026-05-03T09:25:34.958Z</time></trkpt><trkpt lat="44.1124268" lon="7.7450477"><ele>1427.6</ele><time>2026-05-03T09:25:36.939Z</time></trkpt><trkpt lat="44.1123722" lon="7.7449504"><ele>1421.2</ele><time>2026-05-03T09:25:37.937Z</time></trkpt><trkpt lat="44.1123245" lon="7.744824"><ele>1414.8</ele><time>2026-05-03T09:25:38.941Z</time></trkpt><trkpt lat="44.1122807" lon="7.7446689"><ele>1408.3999999999999</ele><time>2026-05-03T09:25:39.939Z</time></trkpt><trkpt lat="44.1122311" lon="7.7444927"><ele>1402.0</ele><time>2026-05-03T09:25:40.943Z</time></trkpt><trkpt lat="44.1121716" lon="7.74433"><ele>1402.0</ele><time>2026-05-03T09:25:41.944Z</time></trkpt><trkpt lat="44.1121166" lon="7.7441523"><ele>1402.0</ele><time>2026-05-03T09:25:42.941Z</time></trkpt><trkpt lat="44.1120585" lon="7.7439824"><ele>1402.0</ele><time>2026-05-03T09:25:43.946Z</time></trkpt><trkpt lat="44.1120032" lon="7.7438085"><ele>1402.0</ele><time>2026-05-03T09:25:44.942Z</time></trkpt><trkpt lat="44.1119558" lon="7.7436305"><ele>1401.25</ele><time>2026-05-03T09:25:45.944Z</time></trkpt><trkpt lat="44.1119131" lon="7.7434586"><ele>1400.5</ele><time>2026-05-03T09:25:46.945Z</time></trkpt><trkpt lat="44.1118614" lon="7.7432888"><ele>1399.75</ele><time>2026-05-03T09:25:47.942Z</time></trkpt><trkpt lat="44.1118006" lon="7.7431319"><ele>1399.0</ele><time>2026-05-03T09:25:48.945Z</time></trkpt><trkpt lat="44.1117388" lon="7.7429727"><ele>1399.0</ele><time>2026-05-03T09:25:49.948Z</time></trkpt><trkpt lat="44.1116875" lon="7.7428176"><ele>1399.0</ele><time>2026-05-03T09:25:50.949Z</time></trkpt><trkpt lat="44.1116636" lon="7.7426544"><ele>1399.0</ele><time>2026-05-03T09:25:51.945Z</time></trkpt><trkpt lat="44.1116797" lon="7.7424961"><ele>1399.0</ele><time>2026-05-03T09:25:52.955Z</time></trkpt><trkpt lat="44.1117182" lon="7.7423454"><ele>1398.75</ele><time>2026-05-03T09:25:53.946Z</time></trkpt><trkpt lat="44.11176" lon="7.7421916"><ele>1398.5</ele><time>2026-05-03T09:25:54.941Z</time></trkpt><trkpt lat="44.1117784" lon="7.7420343"><ele>1398.25</ele><time>2026-05-03T09:25:55.95Z</time></trkpt><trkpt lat="44.1117713" lon="7.741877"><ele>1398.0</ele><time>2026-05-03T09:25:56.949Z</time></trkpt><trkpt lat="44.1117455" lon="7.7417099"><ele>1397.75</ele><time>2026-05-03T09:25:57.945Z</time></trkpt><trkpt lat="44.1117247" lon="7.7415352"><ele>1397.5</ele><time>2026-05-03T09:25:58.942Z</time></trkpt><trkpt lat="44.1116984" lon="7.7413649"><ele>1397.25</ele><time>2026-05-03T09:25:59.942Z</time></trkpt><trkpt lat="44.1116634" lon="7.7411943"><ele>1397.0</ele><time>2026-05-03T09:26:00.942Z</time></trkpt><trkpt lat="44.1116147" lon="7.7410231"><ele>1387.5</ele><time>2026-05-03T09:26:01.948Z</time></trkpt><trkpt lat="44.1115583" lon="7.7408519"><ele>1378.0</ele><time>2026-05-03T09:26:02.949Z</time></trkpt><trkpt lat="44.1114933" lon="7.7406906"><ele>1368.5</ele><time>2026-05-03T09:26:03.94Z</time></trkpt><trkpt lat="44.1114106" lon="7.7405357"><ele>1359.0</ele><time>2026-05-03T09:26:04.941Z</time></trkpt><trkpt lat="44.111322" lon="7.740394"><ele>1359.0</ele><time>2026-05-03T09:26:05.95Z</time></trkpt><trkpt lat="44.1112332" lon="7.7402554"><ele>1359.0</ele><time>2026-05-03T09:26:06.948Z</time></trkpt><trkpt lat="44.1111487" lon="7.7401124"><ele>1359.0</ele><time>2026-05-03T09:26:07.95Z</time></trkpt><trkpt lat="44.1110732" lon="7.739961"><ele>1359.0</ele><time>2026-05-03T09:26:08.95Z</time></trkpt><trkpt lat="44.1110228" lon="7.7397938"><ele>1360.5</ele><time>2026-05-03T09:26:09.947Z</time></trkpt><trkpt lat="44.1109975" lon="7.7396134"><ele>1362.0</ele><time>2026-05-03T09:26:10.946Z</time></trkpt><trkpt lat="44.1109802" lon="7.7394388"><ele>1363.5</ele><time>2026-05-03T09:26:11.956Z</time></trkpt><trkpt lat="44.1109607" lon="7.7392618"><ele>1365.0</ele><time>2026-05-03T09:26:12.954Z</time></trkpt><trkpt lat="44.1109273" lon="7.7390818"><ele>1366.0</ele><time>2026-05-03T09:26:13.941Z</time></trkpt><trkpt lat="44.110864" lon="7.7389198"><ele>1367.0</ele><time>2026-05-03T09:26:14.95Z</time></trkpt><trkpt lat="44.1107893" lon="7.7387592"><ele>1368.0</ele><time>2026-05-03T09:26:15.944Z</time></trkpt><trkpt lat="44.1107223" lon="7.7385949"><ele>1369.0</ele><time>2026-05-03T09:26:16.942Z</time></trkpt><trkpt lat="44.110665" lon="7.7384299"><ele>1363.75</ele><time>2026-05-03T09:26:17.953Z</time></trkpt><trkpt lat="44.1106292" lon="7.7382572"><ele>1358.5</ele><time>2026-05-03T09:26:18.955Z</time></trkpt><trkpt lat="44.1106194" lon="7.7380864"><ele>1353.25</ele><time>2026-05-03T09:26:19.943Z</time></trkpt><trkpt lat="44.1106219" lon="7.7379221"><ele>1348.0</ele><time>2026-05-03T09:26:20.955Z</time></trkpt><trkpt lat="44.1106318" lon="7.7377455"><ele>1349.75</ele><time>2026-05-03T09:26:21.952Z</time></trkpt><trkpt lat="44.1106515" lon="7.737578"><ele>1351.5</ele><time>2026-05-03T09:26:22.954Z</time></trkpt><trkpt lat="44.1106777" lon="7.7374144"><ele>1353.25</ele><time>2026-05-03T09:26:23.947Z</time></trkpt><trkpt lat="44.1107106" lon="7.7372594"><ele>1355.0</ele><time>2026-05-03T09:26:24.956Z</time></trkpt><trkpt lat="44.1107227" lon="7.7371223"><ele>1355.0</ele><time>2026-05-03T09:26:25.947Z</time></trkpt><trkpt lat="44.1107003" lon="7.7369926"><ele>1355.0</ele><time>2026-05-03T09:26:26.946Z</time></trkpt><trkpt lat="44.1106711" lon="7.7368744"><ele>1355.0</ele><time>2026-05-03T09:26:27.956Z</time></trkpt><trkpt lat="44.1106464" lon="7.7367898"><ele>1355.0</ele><time>2026-05-03T09:26:28.947Z</time></trkpt><trkpt lat="44.110605" lon="7.7367204"><ele>1355.0</ele><time>2026-05-03T09:26:29.951Z</time></trkpt><trkpt lat="44.1105121" lon="7.7366732"><ele>1355.0</ele><time>2026-05-03T09:26:31.943Z</time></trkpt><trkpt lat="44.1104506" lon="7.7366977"><ele>1355.0</ele><time>2026-05-03T09:26:32.949Z</time></trkpt><trkpt lat="44.1103916" lon="7.7367578"><ele>1355.0</ele><time>2026-05-03T09:26:33.951Z</time></trkpt><trkpt lat="44.1103478" lon="7.736834"><ele>1355.0</ele><time>2026-05-03T09:26:34.942Z</time></trkpt><trkpt lat="44.1102989" lon="7.7369234"><ele>1355.0</ele><time>2026-05-03T09:26:35.947Z</time></trkpt><trkpt lat="44.1102215" lon="7.737008"><ele>1355.0</ele><time>2026-05-03T09:26:36.942Z</time></trkpt><trkpt lat="44.1101409" lon="7.7370902"><ele>1355.0</ele><time>2026-05-03T09:26:37.956Z</time></trkpt><trkpt lat="44.1100527" lon="7.7371838"><ele>1355.0</ele><time>2026-05-03T09:26:38.941Z</time></trkpt><trkpt lat="44.1099519" lon="7.7372823"><ele>1355.0</ele><time>2026-05-03T09:26:39.943Z</time></trkpt><trkpt lat="44.1098502" lon="7.7373758"><ele>1355.0</ele><time>2026-05-03T09:26:40.946Z</time></trkpt><trkpt lat="44.1097407" lon="7.7374693"><ele>1355.0</ele><time>2026-05-03T09:26:41.946Z</time></trkpt><trkpt lat="44.1096283" lon="7.7375613"><ele>1353.5</ele><time>2026-05-03T09:26:42.938Z</time></trkpt><trkpt lat="44.1095149" lon="7.737649"><ele>1352.0</ele><time>2026-05-03T09:26:43.943Z</time></trkpt><trkpt lat="44.1094043" lon="7.7377435"><ele>1350.5</ele><time>2026-05-03T09:26:44.939Z</time></trkpt><trkpt lat="44.1093015" lon="7.7378457"><ele>1349.0</ele><time>2026-05-03T09:26:45.948Z</time></trkpt><trkpt lat="44.1092126" lon="7.7379537"><ele>1349.0</ele><time>2026-05-03T09:26:46.94Z</time></trkpt><trkpt lat="44.1091382" lon="7.7380676"><ele>1349.0</ele><time>2026-05-03T09:26:47.938Z</time></trkpt><trkpt lat="44.1090665" lon="7.7381734"><ele>1349.0</ele><time>2026-05-03T09:26:48.947Z</time></trkpt><trkpt lat="44.1089995" lon="7.7382657"><ele>1349.0</ele><time>2026-05-03T09:26:49.948Z</time></trkpt><trkpt lat="44.1089362" lon="7.7383335"><ele>1349.0</ele><time>2026-05-03T09:26:50.937Z</time></trkpt><trkpt lat="44.1088771" lon="7.7383814"><ele>1350.0</ele><time>2026-05-03T09:26:51.942Z</time></trkpt><trkpt lat="44.1087996" lon="7.7383943"><ele>1351.0</ele><time>2026-05-03T09:26:52.943Z</time></trkpt><trkpt lat="44.108712" lon="7.7383714"><ele>1352.0</ele><time>2026-05-03T09:26:53.957Z</time></trkpt><trkpt lat="44.1086279" lon="7.7383249"><ele>1353.0</ele><time>2026-05-03T09:26:54.942Z</time></trkpt><trkpt lat="44.108539" lon="7.73825"><ele>1354.0</ele><time>2026-05-03T09:26:55.938Z</time></trkpt><trkpt lat="44.1084353" lon="7.738188"><ele>1354.0</ele><time>2026-05-03T09:26:56.942Z</time></trkpt><trkpt lat="44.1083243" lon="7.7381486"><ele>1354.0</ele><time>2026-05-03T09:26:57.944Z</time></trkpt><trkpt lat="44.1082208" lon="7.7381235"><ele>1354.0</ele><time>2026-05-03T09:26:58.94Z</time></trkpt><trkpt lat="44.1081194" lon="7.7380991"><ele>1354.0</ele><time>2026-05-03T09:26:59.949Z</time></trkpt><trkpt lat="44.1080242" lon="7.7380731"><ele>1354.0</ele><time>2026-05-03T09:27:00.947Z</time></trkpt><trkpt lat="44.1079414" lon="7.738028"><ele>1354.1666666666665</ele><time>2026-05-03T09:27:01.94Z</time></trkpt><trkpt lat="44.1078622" lon="7.7379677"><ele>1354.3333333333333</ele><time>2026-05-03T09:27:02.945Z</time></trkpt><trkpt lat="44.1077944" lon="7.7378889"><ele>1354.5</ele><time>2026-05-03T09:27:03.948Z</time></trkpt><trkpt lat="44.1077381" lon="7.7378257"><ele>1354.6666666666667</ele><time>2026-05-03T09:27:04.949Z</time></trkpt><trkpt lat="44.1076811" lon="7.7377866"><ele>1354.8333333333335</ele><time>2026-05-03T09:27:05.943Z</time></trkpt><trkpt lat="44.1075587" lon="7.7377843"><ele>1355.0</ele><time>2026-05-03T09:27:07.939Z</time></trkpt><trkpt lat="44.1075076" lon="7.7378389"><ele>1355.0</ele><time>2026-05-03T09:27:08.946Z</time></trkpt><trkpt lat="44.107465" lon="7.7379419"><ele>1355.0</ele><time>2026-05-03T09:27:09.951Z</time></trkpt><trkpt lat="44.1074424" lon="7.7380652"><ele>1355.0</ele><time>2026-05-03T09:27:10.942Z</time></trkpt><trkpt lat="44.1074327" lon="7.7381968"><ele>1355.0</ele><time>2026-05-03T09:27:11.948Z</time></trkpt><trkpt lat="44.1074365" lon="7.7383258"><ele>1355.0</ele><time>2026-05-03T09:27:12.946Z</time></trkpt><trkpt lat="44.1074415" lon="7.7384445"><ele>1353.1666666666667</ele><time>2026-05-03T09:27:13.939Z</time></trkpt><trkpt lat="44.1074484" lon="7.738568"><ele>1351.3333333333335</ele><time>2026-05-03T09:27:14.949Z</time></trkpt><trkpt lat="44.1074502" lon="7.7386841"><ele>1349.5</ele><time>2026-05-03T09:27:15.94Z</time></trkpt><trkpt lat="44.1074221" lon="7.7387882"><ele>1347.6666666666667</ele><time>2026-05-03T09:27:16.941Z</time></trkpt><trkpt lat="44.1073776" lon="7.7388951"><ele>1345.8333333333333</ele><time>2026-05-03T09:27:17.941Z</time></trkpt><trkpt lat="44.1073185" lon="7.7390036"><ele>1344.0</ele><time>2026-05-03T09:27:18.939Z</time></trkpt><trkpt lat="44.1072554" lon="7.7391223"><ele>1346.0</ele><time>2026-05-03T09:27:19.952Z</time></trkpt><trkpt lat="44.1071853" lon="7.7392451"><ele>1348.0</ele><time>2026-05-03T09:27:20.94Z</time></trkpt><trkpt lat="44.1071073" lon="7.7393808"><ele>1350.0</ele><time>2026-05-03T09:27:21.953Z</time></trkpt><trkpt lat="44.107033" lon="7.7395227"><ele>1352.0</ele><time>2026-05-03T09:27:22.945Z</time></trkpt><trkpt lat="44.1069555" lon="7.7396611"><ele>1352.0</ele><time>2026-05-03T09:27:23.95Z</time></trkpt><trkpt lat="44.1068858" lon="7.7397968"><ele>1352.0</ele><time>2026-05-03T09:27:24.939Z</time></trkpt><trkpt lat="44.1068115" lon="7.7399201"><ele>1352.0</ele><time>2026-05-03T09:27:25.946Z</time></trkpt><trkpt lat="44.1067382" lon="7.7400123"><ele>1352.0</ele><time>2026-05-03T09:27:26.945Z</time></trkpt><trkpt lat="44.1066634" lon="7.7400813"><ele>1352.0</ele><time>2026-05-03T09:27:27.949Z</time></trkpt><trkpt lat="44.1065939" lon="7.740135"><ele>1356.5</ele><time>2026-05-03T09:27:28.946Z</time></trkpt><trkpt lat="44.1065309" lon="7.7402003"><ele>1361.0</ele><time>2026-05-03T09:27:29.949Z</time></trkpt><trkpt lat="44.1064879" lon="7.7402839"><ele>1365.5</ele><time>2026-05-03T09:27:30.946Z</time></trkpt><trkpt lat="44.1064661" lon="7.7403847"><ele>1370.0</ele><time>2026-05-03T09:27:31.943Z</time></trkpt><trkpt lat="44.1064532" lon="7.7404903"><ele>1374.5</ele><time>2026-05-03T09:27:32.942Z</time></trkpt><trkpt lat="44.106433" lon="7.7406052"><ele>1379.0</ele><time>2026-05-03T09:27:33.938Z</time></trkpt><trkpt lat="44.1064049" lon="7.7407206"><ele>1379.0</ele><time>2026-05-03T09:27:34.938Z</time></trkpt><trkpt lat="44.1063907" lon="7.7408585"><ele>1379.0</ele><time>2026-05-03T09:27:35.942Z</time></trkpt><trkpt lat="44.1063781" lon="7.7410038"><ele>1379.0</ele><time>2026-05-03T09:27:36.956Z</time></trkpt><trkpt lat="44.1063554" lon="7.7411542"><ele>1379.0</ele><time>2026-05-03T09:27:37.941Z</time></trkpt><trkpt lat="44.1063434" lon="7.7413102"><ele>1379.0</ele><time>2026-05-03T09:27:38.945Z</time></trkpt><trkpt lat="44.1063288" lon="7.7414724"><ele>1376.0</ele><time>2026-05-03T09:27:39.961Z</time></trkpt><trkpt lat="44.1063175" lon="7.7416192"><ele>1373.0</ele><time>2026-05-03T09:27:40.944Z</time></trkpt><trkpt lat="44.1063082" lon="7.7417628"><ele>1370.0</ele><time>2026-05-03T09:27:41.942Z</time></trkpt><trkpt lat="44.1063008" lon="7.7419036"><ele>1367.0</ele><time>2026-05-03T09:27:42.944Z</time></trkpt><trkpt lat="44.1062655" lon="7.7420224"><ele>1364.0</ele><time>2026-05-03T09:27:43.949Z</time></trkpt><trkpt lat="44.1061994" lon="7.7421417"><ele>1358.5</ele><time>2026-05-03T09:27:44.948Z</time></trkpt><trkpt lat="44.1061183" lon="7.7422441"><ele>1353.0</ele><time>2026-05-03T09:27:45.947Z</time></trkpt><trkpt lat="44.1060414" lon="7.7423601"><ele>1347.5</ele><time>2026-05-03T09:27:46.952Z</time></trkpt><trkpt lat="44.1059738" lon="7.7424904"><ele>1342.0</ele><time>2026-05-03T09:27:47.941Z</time></trkpt><trkpt lat="44.1059021" lon="7.742637"><ele>1337.75</ele><time>2026-05-03T09:27:48.943Z</time></trkpt><trkpt lat="44.1058285" lon="7.742776"><ele>1333.5</ele><time>2026-05-03T09:27:49.953Z</time></trkpt><trkpt lat="44.1057634" lon="7.7429178"><ele>1329.25</ele><time>2026-05-03T09:27:50.943Z</time></trkpt><trkpt lat="44.1057026" lon="7.7430629"><ele>1325.0</ele><time>2026-05-03T09:27:51.941Z</time></trkpt><trkpt lat="44.1056343" lon="7.7431892"><ele>1325.0</ele><time>2026-05-03T09:27:52.962Z</time></trkpt><trkpt lat="44.105562" lon="7.7432975"><ele>1325.0</ele><time>2026-05-03T09:27:53.947Z</time></trkpt><trkpt lat="44.1054684" lon="7.7433775"><ele>1325.0</ele><time>2026-05-03T09:27:54.951Z</time></trkpt><trkpt lat="44.1053636" lon="7.7434261"><ele>1325.0</ele><time>2026-05-03T09:27:55.944Z</time></trkpt><trkpt lat="44.1052507" lon="7.7434412"><ele>1325.0</ele><time>2026-05-03T09:27:56.945Z</time></trkpt><trkpt lat="44.105152" lon="7.7434581"><ele>1325.0</ele><time>2026-05-03T09:27:57.959Z</time></trkpt><trkpt lat="44.105057" lon="7.7434612"><ele>1325.0</ele><time>2026-05-03T09:27:58.946Z</time></trkpt><trkpt lat="44.104957" lon="7.7434314"><ele>1325.0</ele><time>2026-05-03T09:27:59.947Z</time></trkpt><trkpt lat="44.1048669" lon="7.7433744"><ele>1325.0</ele><time>2026-05-03T09:28:00.95Z</time></trkpt><trkpt lat="44.1047861" lon="7.743283"><ele>1325.0</ele><time>2026-05-03T09:28:01.941Z</time></trkpt><trkpt lat="44.1046944" lon="7.7431897"><ele>1325.6</ele><time>2026-05-03T09:28:02.95Z</time></trkpt><trkpt lat="44.1046089" lon="7.7431102"><ele>1326.2</ele><time>2026-05-03T09:28:03.947Z</time></trkpt><trkpt lat="44.1045291" lon="7.743017"><ele>1326.8000000000002</ele><time>2026-05-03T09:28:04.951Z</time></trkpt><trkpt lat="44.1044656" lon="7.7429157"><ele>1327.4</ele><time>2026-05-03T09:28:05.946Z</time></trkpt><trkpt lat="44.1044176" lon="7.7428184"><ele>1328.0</ele><time>2026-05-03T09:28:06.95Z</time></trkpt><trkpt lat="44.1043745" lon="7.7427245"><ele>1328.0</ele><time>2026-05-03T09:28:07.963Z</time></trkpt><trkpt lat="44.104265" lon="7.7426676"><ele>1328.0</ele><time>2026-05-03T09:28:09.944Z</time></trkpt><trkpt lat="44.1041854" lon="7.7427692"><ele>1328.0</ele><time>2026-05-03T09:28:11.945Z</time></trkpt><trkpt lat="44.1041621" lon="7.7428728"><ele>1328.0</ele><time>2026-05-03T09:28:12.946Z</time></trkpt><trkpt lat="44.1041211" lon="7.7429808"><ele>1328.0</ele><time>2026-05-03T09:28:13.946Z</time></trkpt><trkpt lat="44.1040641" lon="7.7430647"><ele>1329.6000000000001</ele><time>2026-05-03T09:28:14.941Z</time></trkpt><trkpt lat="44.1040031" lon="7.743163"><ele>1331.2</ele><time>2026-05-03T09:28:15.942Z</time></trkpt><trkpt lat="44.1039369" lon="7.7432587"><ele>1332.8</ele><time>2026-05-03T09:28:16.943Z</time></trkpt><trkpt lat="44.1038787" lon="7.7433724"><ele>1334.4</ele><time>2026-05-03T09:28:17.947Z</time></trkpt><trkpt lat="44.1038333" lon="7.7434865"><ele>1336.0</ele><time>2026-05-03T09:28:18.949Z</time></trkpt><trkpt lat="44.1037906" lon="7.7436067"><ele>1336.0</ele><time>2026-05-03T09:28:19.941Z</time></trkpt><trkpt lat="44.1037512" lon="7.7437118"><ele>1336.0</ele><time>2026-05-03T09:28:20.943Z</time></trkpt><trkpt lat="44.1037255" lon="7.7438163"><ele>1336.0</ele><time>2026-05-03T09:28:21.944Z</time></trkpt><trkpt lat="44.1036999" lon="7.7439254"><ele>1336.0</ele><time>2026-05-03T09:28:22.944Z</time></trkpt><trkpt lat="44.1036924" lon="7.7440424"><ele>1336.0</ele><time>2026-05-03T09:28:23.949Z</time></trkpt><trkpt lat="44.1037147" lon="7.744175"><ele>1336.0</ele><time>2026-05-03T09:28:24.942Z</time></trkpt><trkpt lat="44.1037355" lon="7.7443081"><ele>1332.1999999999998</ele><time>2026-05-03T09:28:25.942Z</time></trkpt><trkpt lat="44.1037566" lon="7.744436"><ele>1328.3999999999999</ele><time>2026-05-03T09:28:26.943Z</time></trkpt><trkpt lat="44.1037649" lon="7.7445696"><ele>1324.6</ele><time>2026-05-03T09:28:27.944Z</time></trkpt><trkpt lat="44.103769" lon="7.7447065"><ele>1320.8</ele><time>2026-05-03T09:28:28.949Z</time></trkpt><trkpt lat="44.1037705" lon="7.7448456"><ele>1317.0</ele><time>2026-05-03T09:28:29.936Z</time></trkpt><trkpt lat="44.1037483" lon="7.7449863"><ele>1317.0</ele><time>2026-05-03T09:28:30.941Z</time></trkpt><trkpt lat="44.1037104" lon="7.7451302"><ele>1317.0</ele><time>2026-05-03T09:28:31.942Z</time></trkpt><trkpt lat="44.1036693" lon="7.7452516"><ele>1317.0</ele><time>2026-05-03T09:28:32.937Z</time></trkpt><trkpt lat="44.1036127" lon="7.7453351"><ele>1317.0</ele><time>2026-05-03T09:28:33.945Z</time></trkpt><trkpt lat="44.1035152" lon="7.7453627"><ele>1317.0</ele><time>2026-05-03T09:28:34.94Z</time></trkpt><trkpt lat="44.103428" lon="7.745343"><ele>1311.6</ele><time>2026-05-03T09:28:35.942Z</time></trkpt><trkpt lat="44.1033394" lon="7.7453182"><ele>1306.1999999999998</ele><time>2026-05-03T09:28:36.946Z</time></trkpt><trkpt lat="44.1032447" lon="7.7452916"><ele>1300.8</ele><time>2026-05-03T09:28:37.948Z</time></trkpt><trkpt lat="44.1031524" lon="7.7452562"><ele>1295.4</ele><time>2026-05-03T09:28:38.955Z</time></trkpt><trkpt lat="44.1030735" lon="7.7452184"><ele>1290.0</ele><time>2026-05-03T09:28:39.944Z</time></trkpt><trkpt lat="44.1029977" lon="7.7451576"><ele>1290.0</ele><time>2026-05-03T09:28:40.947Z</time></trkpt><trkpt lat="44.1029279" lon="7.7450774"><ele>1290.0</ele><time>2026-05-03T09:28:41.957Z</time></trkpt><trkpt lat="44.1028684" lon="7.7449886"><ele>1290.0</ele><time>2026-05-03T09:28:42.951Z</time></trkpt><trkpt lat="44.102801" lon="7.7448918"><ele>1290.0</ele><time>2026-05-03T09:28:43.946Z</time></trkpt><trkpt lat="44.1027194" lon="7.7447746"><ele>1290.0</ele><time>2026-05-03T09:28:44.951Z</time></trkpt><trkpt lat="44.10263" lon="7.7446673"><ele>1290.0</ele><time>2026-05-03T09:28:45.95Z</time></trkpt><trkpt lat="44.1025335" lon="7.7445672"><ele>1290.0</ele><time>2026-05-03T09:28:46.95Z</time></trkpt><trkpt lat="44.1024405" lon="7.7444673"><ele>1290.0</ele><time>2026-05-03T09:28:47.94Z</time></trkpt><trkpt lat="44.1023527" lon="7.7443621"><ele>1290.0</ele><time>2026-05-03T09:28:48.955Z</time></trkpt><trkpt lat="44.1022725" lon="7.7442522"><ele>1292.3333333333333</ele><time>2026-05-03T09:28:49.938Z</time></trkpt><trkpt lat="44.1021934" lon="7.7441349"><ele>1294.6666666666667</ele><time>2026-05-03T09:28:50.946Z</time></trkpt><trkpt lat="44.1021198" lon="7.7440304"><ele>1297.0</ele><time>2026-05-03T09:28:51.95Z</time></trkpt><trkpt lat="44.1020615" lon="7.7439689"><ele>1299.3333333333335</ele><time>2026-05-03T09:28:52.953Z</time></trkpt><trkpt lat="44.1019976" lon="7.7439224"><ele>1301.6666666666667</ele><time>2026-05-03T09:28:53.949Z</time></trkpt><trkpt lat="44.1019293" lon="7.7438977"><ele>1304.0</ele><time>2026-05-03T09:28:54.949Z</time></trkpt><trkpt lat="44.1018591" lon="7.7439176"><ele>1304.0</ele><time>2026-05-03T09:28:55.948Z</time></trkpt><trkpt lat="44.1018092" lon="7.7439944"><ele>1304.0</ele><time>2026-05-03T09:28:56.949Z</time></trkpt><trkpt lat="44.1017758" lon="7.7440896"><ele>1304.0</ele><time>2026-05-03T09:28:57.947Z</time></trkpt><trkpt lat="44.1017756" lon="7.7442039"><ele>1304.0</ele><time>2026-05-03T09:28:58.945Z</time></trkpt><trkpt lat="44.1017634" lon="7.7443146"><ele>1304.0</ele><time>2026-05-03T09:28:59.942Z</time></trkpt><trkpt lat="44.1017352" lon="7.7444236"><ele>1304.0</ele><time>2026-05-03T09:29:00.945Z</time></trkpt><trkpt lat="44.1016866" lon="7.7445206"><ele>1304.6666666666667</ele><time>2026-05-03T09:29:01.943Z</time></trkpt><trkpt lat="44.1016183" lon="7.7445974"><ele>1305.3333333333335</ele><time>2026-05-03T09:29:02.954Z</time></trkpt><trkpt lat="44.1015433" lon="7.7446419"><ele>1306.0</ele><time>2026-05-03T09:29:03.956Z</time></trkpt><trkpt lat="44.1014723" lon="7.7446552"><ele>1306.6666666666667</ele><time>2026-05-03T09:29:04.941Z</time></trkpt><trkpt lat="44.1014094" lon="7.7446614"><ele>1307.3333333333333</ele><time>2026-05-03T09:29:05.937Z</time></trkpt><trkpt lat="44.1013261" lon="7.7447245"><ele>1308.0</ele><time>2026-05-03T09:29:07.946Z</time></trkpt><trkpt lat="44.1013931" lon="7.7448644"><ele>1308.0</ele><time>2026-05-03T09:29:09.943Z</time></trkpt><trkpt lat="44.1014303" lon="7.7449489"><ele>1308.0</ele><time>2026-05-03T09:29:10.941Z</time></trkpt><trkpt lat="44.101461" lon="7.7450385"><ele>1308.0</ele><time>2026-05-03T09:29:11.939Z</time></trkpt><trkpt lat="44.1014674" lon="7.7451301"><ele>1308.0</ele><time>2026-05-03T09:29:12.946Z</time></trkpt><trkpt lat="44.1013864" lon="7.7452635"><ele>1308.0</ele><time>2026-05-03T09:29:14.944Z</time></trkpt><trkpt lat="44.1013344" lon="7.7453171"><ele>1308.0</ele><time>2026-05-03T09:29:15.942Z</time></trkpt><trkpt lat="44.1012483" lon="7.7454254"><ele>1306.0</ele><time>2026-05-03T09:29:17.945Z</time></trkpt><trkpt lat="44.1012027" lon="7.7454982"><ele>1304.0</ele><time>2026-05-03T09:29:18.942Z</time></trkpt><trkpt lat="44.1011448" lon="7.7455886"><ele>1302.0</ele><time>2026-05-03T09:29:19.964Z</time></trkpt><trkpt lat="44.1011003" lon="7.7456881"><ele>1300.0</ele><time>2026-05-03T09:29:20.94Z</time></trkpt><trkpt lat="44.1010723" lon="7.7457929"><ele>1298.0</ele><time>2026-05-03T09:29:21.94Z</time></trkpt><trkpt lat="44.1010491" lon="7.7459074"><ele>1296.0</ele><time>2026-05-03T09:29:22.95Z</time></trkpt><trkpt lat="44.1010269" lon="7.7460409"><ele>1296.4</ele><time>2026-05-03T09:29:23.943Z</time></trkpt><trkpt lat="44.1009899" lon="7.7461539"><ele>1296.8</ele><time>2026-05-03T09:29:24.95Z</time></trkpt><trkpt lat="44.100933" lon="7.7462552"><ele>1297.2</ele><time>2026-05-03T09:29:25.947Z</time></trkpt><trkpt lat="44.1008601" lon="7.7463501"><ele>1297.6000000000001</ele><time>2026-05-03T09:29:26.943Z</time></trkpt><trkpt lat="44.1007913" lon="7.7464653"><ele>1298.0</ele><time>2026-05-03T09:29:27.948Z</time></trkpt><trkpt lat="44.1007292" lon="7.7466047"><ele>1298.0</ele><time>2026-05-03T09:29:28.947Z</time></trkpt><trkpt lat="44.1006766" lon="7.74675"><ele>1298.0</ele><time>2026-05-03T09:29:29.948Z</time></trkpt><trkpt lat="44.1006295" lon="7.746892"><ele>1298.0</ele><time>2026-05-03T09:29:30.944Z</time></trkpt><trkpt lat="44.1005678" lon="7.7470154"><ele>1298.0</ele><time>2026-05-03T09:29:31.949Z</time></trkpt><trkpt lat="44.1005018" lon="7.7471395"><ele>1298.0</ele><time>2026-05-03T09:29:32.95Z</time></trkpt><trkpt lat="44.1004407" lon="7.7472585"><ele>1294.2</ele><time>2026-05-03T09:29:33.953Z</time></trkpt><trkpt lat="44.100365" lon="7.7473561"><ele>1290.4</ele><time>2026-05-03T09:29:34.948Z</time></trkpt><trkpt lat="44.1002598" lon="7.7474446"><ele>1286.6000000000001</ele><time>2026-05-03T09:29:35.951Z</time></trkpt><trkpt lat="44.1001602" lon="7.7475079"><ele>1282.8000000000002</ele><time>2026-05-03T09:29:36.944Z</time></trkpt><trkpt lat="44.1000725" lon="7.7475892"><ele>1279.0</ele><time>2026-05-03T09:29:37.949Z</time></trkpt><trkpt lat="44.0999995" lon="7.7476819"><ele>1277.2</ele><time>2026-05-03T09:29:38.95Z</time></trkpt><trkpt lat="44.0999388" lon="7.7477893"><ele>1275.4</ele><time>2026-05-03T09:29:39.958Z</time></trkpt><trkpt lat="44.0998882" lon="7.7479219"><ele>1273.6</ele><time>2026-05-03T09:29:40.954Z</time></trkpt><trkpt lat="44.0998575" lon="7.7480787"><ele>1271.8</ele><time>2026-05-03T09:29:41.945Z</time></trkpt><trkpt lat="44.0998076" lon="7.7482334"><ele>1270.0</ele><time>2026-05-03T09:29:42.95Z</time></trkpt><trkpt lat="44.0997584" lon="7.748395"><ele>1273.75</ele><time>2026-05-03T09:29:43.958Z</time></trkpt><trkpt lat="44.0997054" lon="7.7485569"><ele>1277.5</ele><time>2026-05-03T09:29:44.952Z</time></trkpt><trkpt lat="44.0996492" lon="7.7487104"><ele>1281.25</ele><time>2026-05-03T09:29:45.952Z</time></trkpt><trkpt lat="44.09959" lon="7.7488648"><ele>1285.0</ele><time>2026-05-03T09:29:46.951Z</time></trkpt><trkpt lat="44.0995455" lon="7.7490173"><ele>1285.0</ele><time>2026-05-03T09:29:47.947Z</time></trkpt><trkpt lat="44.099501" lon="7.749165"><ele>1285.0</ele><time>2026-05-03T09:29:48.947Z</time></trkpt><trkpt lat="44.0994609" lon="7.7493192"><ele>1285.0</ele><time>2026-05-03T09:29:49.955Z</time></trkpt><trkpt lat="44.0994119" lon="7.7494671"><ele>1285.0</ele><time>2026-05-03T09:29:50.967Z</time></trkpt><trkpt lat="44.0993494" lon="7.749612"><ele>1282.25</ele><time>2026-05-03T09:29:51.948Z</time></trkpt><trkpt lat="44.0992729" lon="7.7497384"><ele>1279.5</ele><time>2026-05-03T09:29:52.946Z</time></trkpt><trkpt lat="44.0991918" lon="7.7498691"><ele>1276.75</ele><time>2026-05-03T09:29:53.953Z</time></trkpt><trkpt lat="44.09911" lon="7.7499917"><ele>1274.0</ele><time>2026-05-03T09:29:54.957Z</time></trkpt><trkpt lat="44.0990297" lon="7.7501327"><ele>1269.25</ele><time>2026-05-03T09:29:55.962Z</time></trkpt><trkpt lat="44.0989542" lon="7.7502789"><ele>1264.5</ele><time>2026-05-03T09:29:56.954Z</time></trkpt><trkpt lat="44.0988885" lon="7.7504217"><ele>1259.75</ele><time>2026-05-03T09:29:57.947Z</time></trkpt><trkpt lat="44.0988204" lon="7.7505451"><ele>1255.0</ele><time>2026-05-03T09:29:58.961Z</time></trkpt><trkpt lat="44.0987661" lon="7.7506506"><ele>1255.0</ele><time>2026-05-03T09:29:59.949Z</time></trkpt><trkpt lat="44.0986911" lon="7.7507287"><ele>1255.0</ele><time>2026-05-03T09:30:00.949Z</time></trkpt><trkpt lat="44.0986025" lon="7.7507754"><ele>1255.0</ele><time>2026-05-03T09:30:01.959Z</time></trkpt><trkpt lat="44.0985064" lon="7.7507947"><ele>1255.0</ele><time>2026-05-03T09:30:02.945Z</time></trkpt><trkpt lat="44.0983901" lon="7.7508003"><ele>1255.0</ele><time>2026-05-03T09:30:03.941Z</time></trkpt><trkpt lat="44.098276" lon="7.750806"><ele>1250.75</ele><time>2026-05-03T09:30:04.949Z</time></trkpt><trkpt lat="44.0981546" lon="7.7508283"><ele>1246.5</ele><time>2026-05-03T09:30:05.947Z</time></trkpt><trkpt lat="44.0980326" lon="7.7508578"><ele>1242.25</ele><time>2026-05-03T09:30:06.947Z</time></trkpt><trkpt lat="44.0979193" lon="7.7508762"><ele>1238.0</ele><time>2026-05-03T09:30:07.948Z</time></trkpt><trkpt lat="44.0978138" lon="7.7508813"><ele>1238.0</ele><time>2026-05-03T09:30:08.954Z</time></trkpt><trkpt lat="44.097722" lon="7.7508668"><ele>1238.0</ele><time>2026-05-03T09:30:09.957Z</time></trkpt><trkpt lat="44.0976512" lon="7.7508371"><ele>1238.0</ele><time>2026-05-03T09:30:10.959Z</time></trkpt><trkpt lat="44.0975986" lon="7.7507809"><ele>1238.0</ele><time>2026-05-03T09:30:11.949Z</time></trkpt><trkpt lat="44.0975832" lon="7.7506739"><ele>1238.0</ele><time>2026-05-03T09:30:12.952Z</time></trkpt><trkpt lat="44.0976043" lon="7.7505258"><ele>1238.0</ele><time>2026-05-03T09:30:13.944Z</time></trkpt><trkpt lat="44.0976271" lon="7.7503692"><ele>1237.5</ele><time>2026-05-03T09:30:14.955Z</time></trkpt><trkpt lat="44.0976409" lon="7.7501976"><ele>1237.0</ele><time>2026-05-03T09:30:15.949Z</time></trkpt><trkpt lat="44.0976503" lon="7.7500316"><ele>1236.5</ele><time>2026-05-03T09:30:16.941Z</time></trkpt><trkpt lat="44.0976595" lon="7.7498637"><ele>1236.0</ele><time>2026-05-03T09:30:17.943Z</time></trkpt><trkpt lat="44.0976668" lon="7.7496928"><ele>1236.0</ele><time>2026-05-03T09:30:18.956Z</time></trkpt><trkpt lat="44.0976691" lon="7.7495249"><ele>1236.0</ele><time>2026-05-03T09:30:19.938Z</time></trkpt><trkpt lat="44.0976691" lon="7.74936"><ele>1236.0</ele><time>2026-05-03T09:30:20.941Z</time></trkpt><trkpt lat="44.0976747" lon="7.7491946"><ele>1236.0</ele><time>2026-05-03T09:30:21.945Z</time></trkpt><trkpt lat="44.0976903" lon="7.7490295"><ele>1236.25</ele><time>2026-05-03T09:30:22.936Z</time></trkpt><trkpt lat="44.0977393" lon="7.7488821"><ele>1236.5</ele><time>2026-05-03T09:30:23.945Z</time></trkpt><trkpt lat="44.0977846" lon="7.7487335"><ele>1236.75</ele><time>2026-05-03T09:30:24.939Z</time></trkpt><trkpt lat="44.0978102" lon="7.7485788"><ele>1237.0</ele><time>2026-05-03T09:30:25.935Z</time></trkpt><trkpt lat="44.0978133" lon="7.7484278"><ele>1237.8333333333333</ele><time>2026-05-03T09:30:26.937Z</time></trkpt><trkpt lat="44.0978113" lon="7.7482815"><ele>1238.6666666666665</ele><time>2026-05-03T09:30:27.935Z</time></trkpt><trkpt lat="44.0978074" lon="7.7481396"><ele>1239.5</ele><time>2026-05-03T09:30:28.941Z</time></trkpt><trkpt lat="44.0977988" lon="7.7480181"><ele>1240.3333333333333</ele><time>2026-05-03T09:30:29.946Z</time></trkpt><trkpt lat="44.0977766" lon="7.747934"><ele>1241.1666666666667</ele><time>2026-05-03T09:30:30.948Z</time></trkpt><trkpt lat="44.097739" lon="7.7478412"><ele>1242.0</ele><time>2026-05-03T09:30:31.938Z</time></trkpt><trkpt lat="44.0975794" lon="7.7478617"><ele>1242.0</ele><time>2026-05-03T09:30:33.94Z</time></trkpt><trkpt lat="44.0974728" lon="7.747928"><ele>1242.0</ele><time>2026-05-03T09:30:34.944Z</time></trkpt><trkpt lat="44.0973897" lon="7.7480068"><ele>1242.0</ele><time>2026-05-03T09:30:35.939Z</time></trkpt><trkpt lat="44.097315" lon="7.7481063"><ele>1242.0</ele><time>2026-05-03T09:30:36.946Z</time></trkpt><trkpt lat="44.0972445" lon="7.7482217"><ele>1242.0</ele><time>2026-05-03T09:30:37.942Z</time></trkpt><trkpt lat="44.097172" lon="7.748342"><ele>1242.25</ele><time>2026-05-03T09:30:38.95Z</time></trkpt><trkpt lat="44.0970937" lon="7.7484542"><ele>1242.5</ele><time>2026-05-03T09:30:39.945Z</time></trkpt><trkpt lat="44.0970125" lon="7.7485765"><ele>1242.75</ele><time>2026-05-03T09:30:40.942Z</time></trkpt><trkpt lat="44.0969339" lon="7.7487101"><ele>1243.0</ele><time>2026-05-03T09:30:41.943Z</time></trkpt><trkpt lat="44.0968669" lon="7.7488388"><ele>1243.0</ele><time>2026-05-03T09:30:42.944Z</time></trkpt><trkpt lat="44.0967944" lon="7.7489681"><ele>1243.0</ele><time>2026-05-03T09:30:43.94Z</time></trkpt><trkpt lat="44.0967244" lon="7.7490882"><ele>1243.0</ele><time>2026-05-03T09:30:44.946Z</time></trkpt><trkpt lat="44.0966567" lon="7.7491914"><ele>1243.0</ele><time>2026-05-03T09:30:45.955Z</time></trkpt><trkpt lat="44.0965732" lon="7.7492798"><ele>1243.0</ele><time>2026-05-03T09:30:46.945Z</time></trkpt><trkpt lat="44.0964816" lon="7.7493604"><ele>1242.2</ele><time>2026-05-03T09:30:47.953Z</time></trkpt><trkpt lat="44.0963888" lon="7.7494328"><ele>1241.4</ele><time>2026-05-03T09:30:48.947Z</time></trkpt><trkpt lat="44.096296" lon="7.7494976"><ele>1240.6000000000001</ele><time>2026-05-03T09:30:49.945Z</time></trkpt><trkpt lat="44.0962029" lon="7.7495363"><ele>1239.8</ele><time>2026-05-03T09:30:50.943Z</time></trkpt><trkpt lat="44.0961058" lon="7.7495439"><ele>1239.0</ele><time>2026-05-03T09:30:51.948Z</time></trkpt><trkpt lat="44.0959962" lon="7.7495136"><ele>1239.0</ele><time>2026-05-03T09:30:52.944Z</time></trkpt><trkpt lat="44.095892" lon="7.749469"><ele>1239.0</ele><time>2026-05-03T09:30:53.957Z</time></trkpt><trkpt lat="44.0957957" lon="7.7494414"><ele>1239.0</ele><time>2026-05-03T09:30:54.951Z</time></trkpt><trkpt lat="44.0957162" lon="7.7494759"><ele>1239.0</ele><time>2026-05-03T09:30:55.955Z</time></trkpt><trkpt lat="44.0956568" lon="7.7495686"><ele>1239.0</ele><time>2026-05-03T09:30:56.951Z</time></trkpt><trkpt lat="44.0956222" lon="7.7496825"><ele>1240.3333333333333</ele><time>2026-05-03T09:30:57.948Z</time></trkpt><trkpt lat="44.0955903" lon="7.7497722"><ele>1241.6666666666667</ele><time>2026-05-03T09:30:58.949Z</time></trkpt><trkpt lat="44.0955278" lon="7.7498319"><ele>1243.0</ele><time>2026-05-03T09:30:59.952Z</time></trkpt><trkpt lat="44.0954509" lon="7.7498897"><ele>1244.3333333333335</ele><time>2026-05-03T09:31:00.954Z</time></trkpt><trkpt lat="44.0953604" lon="7.7499368"><ele>1245.6666666666667</ele><time>2026-05-03T09:31:01.942Z</time></trkpt><trkpt lat="44.0952547" lon="7.7499632"><ele>1247.0</ele><time>2026-05-03T09:31:02.948Z</time></trkpt><trkpt lat="44.095144" lon="7.7499666"><ele>1247.0</ele><time>2026-05-03T09:31:03.945Z</time></trkpt><trkpt lat="44.0950179" lon="7.7499501"><ele>1247.0</ele><time>2026-05-03T09:31:04.946Z</time></trkpt><trkpt lat="44.0948862" lon="7.7499177"><ele>1247.0</ele><time>2026-05-03T09:31:05.955Z</time></trkpt><trkpt lat="44.0947442" lon="7.7498923"><ele>1247.0</ele><time>2026-05-03T09:31:06.946Z</time></trkpt><trkpt lat="44.0946037" lon="7.7498893"><ele>1247.25</ele><time>2026-05-03T09:31:07.948Z</time></trkpt><trkpt lat="44.0944627" lon="7.7499021"><ele>1247.5</ele><time>2026-05-03T09:31:08.946Z</time></trkpt><trkpt lat="44.0943251" lon="7.7499192"><ele>1247.75</ele><time>2026-05-03T09:31:09.938Z</time></trkpt><trkpt lat="44.0941979" lon="7.7499395"><ele>1248.0</ele><time>2026-05-03T09:31:10.947Z</time></trkpt><trkpt lat="44.0940905" lon="7.7499563"><ele>1245.6</ele><time>2026-05-03T09:31:11.947Z</time></trkpt><trkpt lat="44.0939873" lon="7.7499437"><ele>1243.1999999999998</ele><time>2026-05-03T09:31:12.96Z</time></trkpt><trkpt lat="44.0938945" lon="7.7498751"><ele>1240.8</ele><time>2026-05-03T09:31:13.943Z</time></trkpt><trkpt lat="44.0938039" lon="7.7497721"><ele>1238.3999999999999</ele><time>2026-05-03T09:31:14.947Z</time></trkpt><trkpt lat="44.0937072" lon="7.7496783"><ele>1236.0</ele><time>2026-05-03T09:31:15.944Z</time></trkpt><trkpt lat="44.0936024" lon="7.7495934"><ele>1236.0</ele><time>2026-05-03T09:31:16.947Z</time></trkpt><trkpt lat="44.0934827" lon="7.7495093"><ele>1236.0</ele><time>2026-05-03T09:31:17.952Z</time></trkpt><trkpt lat="44.093346" lon="7.749455"><ele>1236.0</ele><time>2026-05-03T09:31:18.948Z</time></trkpt><trkpt lat="44.0932095" lon="7.7494221"><ele>1236.0</ele><time>2026-05-03T09:31:19.951Z</time></trkpt><trkpt lat="44.0930816" lon="7.7493859"><ele>1240.75</ele><time>2026-05-03T09:31:20.943Z</time></trkpt><trkpt lat="44.0929643" lon="7.7493219"><ele>1245.5</ele><time>2026-05-03T09:31:21.95Z</time></trkpt><trkpt lat="44.0928561" lon="7.7492577"><ele>1250.25</ele><time>2026-05-03T09:31:22.946Z</time></trkpt><trkpt lat="44.0927578" lon="7.7491918"><ele>1255.0</ele><time>2026-05-03T09:31:23.943Z</time></trkpt><trkpt lat="44.0926534" lon="7.7491161"><ele>1255.0</ele><time>2026-05-03T09:31:24.953Z</time></trkpt><trkpt lat="44.0925538" lon="7.7490365"><ele>1255.0</ele><time>2026-05-03T09:31:25.941Z</time></trkpt><trkpt lat="44.0924608" lon="7.7489606"><ele>1255.0</ele><time>2026-05-03T09:31:26.947Z</time></trkpt><trkpt lat="44.0923754" lon="7.7488902"><ele>1255.0</ele><time>2026-05-03T09:31:27.948Z</time></trkpt><trkpt lat="44.092297" lon="7.7488312"><ele>1255.0</ele><time>2026-05-03T09:31:28.943Z</time></trkpt><trkpt lat="44.0922184" lon="7.7488013"><ele>1260.8333333333333</ele><time>2026-05-03T09:31:29.941Z</time></trkpt><trkpt lat="44.0921395" lon="7.7487793"><ele>1266.6666666666665</ele><time>2026-05-03T09:31:30.944Z</time></trkpt><trkpt lat="44.0920655" lon="7.7488112"><ele>1272.5</ele><time>2026-05-03T09:31:31.952Z</time></trkpt><trkpt lat="44.0920113" lon="7.7488777"><ele>1278.3333333333333</ele><time>2026-05-03T09:31:32.947Z</time></trkpt><trkpt lat="44.0919782" lon="7.7489893"><ele>1284.1666666666667</ele><time>2026-05-03T09:31:33.959Z</time></trkpt><trkpt lat="44.0919622" lon="7.7491382"><ele>1290.0</ele><time>2026-05-03T09:31:34.942Z</time></trkpt><trkpt lat="44.0919577" lon="7.7493232"><ele>1289.2</ele><time>2026-05-03T09:31:35.943Z</time></trkpt><trkpt lat="44.0919715" lon="7.7494958"><ele>1288.4</ele><time>2026-05-03T09:31:36.95Z</time></trkpt><trkpt lat="44.0920119" lon="7.7496503"><ele>1287.6</ele><time>2026-05-03T09:31:37.937Z</time></trkpt><trkpt lat="44.092044" lon="7.74978"><ele>1286.8</ele><time>2026-05-03T09:31:38.955Z</time></trkpt><trkpt lat="44.0920681" lon="7.7498989"><ele>1286.0</ele><time>2026-05-03T09:31:39.942Z</time></trkpt><trkpt lat="44.0920682" lon="7.7500322"><ele>1286.0</ele><time>2026-05-03T09:31:40.958Z</time></trkpt><trkpt lat="44.092059" lon="7.7501702"><ele>1286.0</ele><time>2026-05-03T09:31:41.949Z</time></trkpt><trkpt lat="44.0920348" lon="7.7503071"><ele>1286.0</ele><time>2026-05-03T09:31:42.945Z</time></trkpt><trkpt lat="44.0920068" lon="7.7504519"><ele>1286.0</ele><time>2026-05-03T09:31:43.95Z</time></trkpt><trkpt lat="44.091976" lon="7.7505955"><ele>1286.0</ele><time>2026-05-03T09:31:44.945Z</time></trkpt><trkpt lat="44.0919352" lon="7.7507357"><ele>1283.8</ele><time>2026-05-03T09:31:45.96Z</time></trkpt><trkpt lat="44.0918834" lon="7.7508646"><ele>1281.6</ele><time>2026-05-03T09:31:46.946Z</time></trkpt><trkpt lat="44.0918219" lon="7.7509776"><ele>1279.4</ele><time>2026-05-03T09:31:47.949Z</time></trkpt><trkpt lat="44.0917513" lon="7.7510731"><ele>1277.2</ele><time>2026-05-03T09:31:48.947Z</time></trkpt><trkpt lat="44.0916789" lon="7.7511567"><ele>1275.0</ele><time>2026-05-03T09:31:49.949Z</time></trkpt><trkpt lat="44.0916118" lon="7.7512397"><ele>1278.4</ele><time>2026-05-03T09:31:50.956Z</time></trkpt><trkpt lat="44.0915461" lon="7.7513311"><ele>1281.8</ele><time>2026-05-03T09:31:51.947Z</time></trkpt><trkpt lat="44.0914796" lon="7.751429"><ele>1285.1999999999998</ele><time>2026-05-03T09:31:52.948Z</time></trkpt><trkpt lat="44.0914058" lon="7.7515289"><ele>1288.6</ele><time>2026-05-03T09:31:53.948Z</time></trkpt><trkpt lat="44.0913363" lon="7.7516505"><ele>1292.0</ele><time>2026-05-03T09:31:54.954Z</time></trkpt><trkpt lat="44.091274" lon="7.7517871"><ele>1289.0</ele><time>2026-05-03T09:31:55.954Z</time></trkpt><trkpt lat="44.0912162" lon="7.7519376"><ele>1286.0</ele><time>2026-05-03T09:31:56.954Z</time></trkpt><trkpt lat="44.0911675" lon="7.7521005"><ele>1283.0</ele><time>2026-05-03T09:31:57.948Z</time></trkpt><trkpt lat="44.0911214" lon="7.7522798"><ele>1280.0</ele><time>2026-05-03T09:31:58.955Z</time></trkpt><trkpt lat="44.091083" lon="7.7524695"><ele>1280.0</ele><time>2026-05-03T09:31:59.952Z</time></trkpt><trkpt lat="44.0910547" lon="7.7526684"><ele>1280.0</ele><time>2026-05-03T09:32:00.95Z</time></trkpt><trkpt lat="44.0910404" lon="7.7528799"><ele>1280.0</ele><time>2026-05-03T09:32:01.957Z</time></trkpt><trkpt lat="44.091026" lon="7.7530796"><ele>1280.0</ele><time>2026-05-03T09:32:02.959Z</time></trkpt><trkpt lat="44.0910121" lon="7.7532619"><ele>1278.2</ele><time>2026-05-03T09:32:03.948Z</time></trkpt><trkpt lat="44.0909959" lon="7.7534262"><ele>1276.4</ele><time>2026-05-03T09:32:04.955Z</time></trkpt><trkpt lat="44.0909792" lon="7.7535831"><ele>1274.6</ele><time>2026-05-03T09:32:05.951Z</time></trkpt><trkpt lat="44.0909578" lon="7.7537191"><ele>1272.8</ele><time>2026-05-03T09:32:06.953Z</time></trkpt><trkpt lat="44.0909274" lon="7.7538272"><ele>1271.0</ele><time>2026-05-03T09:32:07.957Z</time></trkpt><trkpt lat="44.0908797" lon="7.7538924"><ele>1269.2</ele><time>2026-05-03T09:32:08.953Z</time></trkpt><trkpt lat="44.0908155" lon="7.7538948"><ele>1267.3999999999999</ele><time>2026-05-03T09:32:09.961Z</time></trkpt><trkpt lat="44.0907634" lon="7.7537478"><ele>1265.6</ele><time>2026-05-03T09:32:11.953Z</time></trkpt><trkpt lat="44.0907476" lon="7.7536162"><ele>1263.8</ele><time>2026-05-03T09:32:12.951Z</time></trkpt><trkpt lat="44.0907245" lon="7.7534681"><ele>1262.0</ele><time>2026-05-03T09:32:13.944Z</time></trkpt><trkpt lat="44.0906851" lon="7.7533228"><ele>1258.0</ele><time>2026-05-03T09:32:14.955Z</time></trkpt><trkpt lat="44.0906321" lon="7.7531832"><ele>1254.0</ele><time>2026-05-03T09:32:15.95Z</time></trkpt><trkpt lat="44.0905651" lon="7.7530393"><ele>1250.0</ele><time>2026-05-03T09:32:16.952Z</time></trkpt><trkpt lat="44.0904966" lon="7.7528892"><ele>1246.0</ele><time>2026-05-03T09:32:17.952Z</time></trkpt><trkpt lat="44.0904309" lon="7.7527097"><ele>1251.6666666666665</ele><time>2026-05-03T09:32:18.96Z</time></trkpt><trkpt lat="44.0903614" lon="7.7525087"><ele>1257.3333333333333</ele><time>2026-05-03T09:32:19.947Z</time></trkpt><trkpt lat="44.0903012" lon="7.7522886"><ele>1263.0</ele><time>2026-05-03T09:32:20.945Z</time></trkpt><trkpt lat="44.0902354" lon="7.7520807"><ele>1263.0</ele><time>2026-05-03T09:32:21.955Z</time></trkpt><trkpt lat="44.0901577" lon="7.7518875"><ele>1263.0</ele><time>2026-05-03T09:32:22.944Z</time></trkpt><trkpt lat="44.0900817" lon="7.751703"><ele>1263.0</ele><time>2026-05-03T09:32:23.947Z</time></trkpt><trkpt lat="44.0900189" lon="7.7515452"><ele>1263.0</ele><time>2026-05-03T09:32:24.951Z</time></trkpt><trkpt lat="44.0899624" lon="7.7514132"><ele>1267.4</ele><time>2026-05-03T09:32:25.947Z</time></trkpt><trkpt lat="44.0898949" lon="7.7512872"><ele>1271.8</ele><time>2026-05-03T09:32:26.951Z</time></trkpt><trkpt lat="44.0898207" lon="7.7511997"><ele>1276.2</ele><time>2026-05-03T09:32:27.945Z</time></trkpt><trkpt lat="44.0897311" lon="7.7511481"><ele>1280.6</ele><time>2026-05-03T09:32:28.954Z</time></trkpt><trkpt lat="44.0896372" lon="7.7511337"><ele>1285.0</ele><time>2026-05-03T09:32:29.942Z</time></trkpt><trkpt lat="44.0895493" lon="7.7511353"><ele>1285.0</ele><time>2026-05-03T09:32:30.941Z</time></trkpt><trkpt lat="44.0894571" lon="7.7511857"><ele>1285.0</ele><time>2026-05-03T09:32:31.946Z</time></trkpt><trkpt lat="44.0893534" lon="7.7512489"><ele>1285.0</ele><time>2026-05-03T09:32:32.946Z</time></trkpt><trkpt lat="44.0892426" lon="7.7513184"><ele>1285.0</ele><time>2026-05-03T09:32:33.945Z</time></trkpt><trkpt lat="44.0891344" lon="7.7513851"><ele>1284.0</ele><time>2026-05-03T09:32:34.946Z</time></trkpt><trkpt lat="44.0890255" lon="7.75146"><ele>1283.0</ele><time>2026-05-03T09:32:35.946Z</time></trkpt><trkpt lat="44.0889152" lon="7.751524"><ele>1282.0</ele><time>2026-05-03T09:32:36.949Z</time></trkpt><trkpt lat="44.0888038" lon="7.751567"><ele>1281.0</ele><time>2026-05-03T09:32:37.942Z</time></trkpt><trkpt lat="44.0886791" lon="7.7515797"><ele>1281.0</ele><time>2026-05-03T09:32:38.948Z</time></trkpt><trkpt lat="44.0885645" lon="7.7515374"><ele>1281.0</ele><time>2026-05-03T09:32:39.952Z</time></trkpt><trkpt lat="44.0884627" lon="7.751475"><ele>1281.0</ele><time>2026-05-03T09:32:40.949Z</time></trkpt><trkpt lat="44.0883697" lon="7.7514029"><ele>1281.0</ele><time>2026-05-03T09:32:41.939Z</time></trkpt><trkpt lat="44.0882838" lon="7.7513188"><ele>1281.0</ele><time>2026-05-03T09:32:42.946Z</time></trkpt><trkpt lat="44.0882052" lon="7.7512369"><ele>1284.8</ele><time>2026-05-03T09:32:43.949Z</time></trkpt><trkpt lat="44.0881196" lon="7.7511485"><ele>1288.6</ele><time>2026-05-03T09:32:44.944Z</time></trkpt><trkpt lat="44.0880312" lon="7.7510644"><ele>1292.4</ele><time>2026-05-03T09:32:45.943Z</time></trkpt><trkpt lat="44.0879421" lon="7.7509772"><ele>1296.2</ele><time>2026-05-03T09:32:46.939Z</time></trkpt><trkpt lat="44.0878627" lon="7.7508772"><ele>1300.0</ele><time>2026-05-03T09:32:47.939Z</time></trkpt><trkpt lat="44.0877867" lon="7.7507655"><ele>1300.8</ele><time>2026-05-03T09:32:48.95Z</time></trkpt><trkpt lat="44.087723" lon="7.7506348"><ele>1301.6</ele><time>2026-05-03T09:32:49.942Z</time></trkpt><trkpt lat="44.0876655" lon="7.7505078"><ele>1302.4</ele><time>2026-05-03T09:32:50.948Z</time></trkpt><trkpt lat="44.0876239" lon="7.7504254"><ele>1303.2</ele><time>2026-05-03T09:32:51.942Z</time></trkpt><trkpt lat="44.0875795" lon="7.7503618"><ele>1304.0</ele><time>2026-05-03T09:32:52.946Z</time></trkpt><trkpt lat="44.087451" lon="7.7503801"><ele>1310.6</ele><time>2026-05-03T09:32:54.946Z</time></trkpt><trkpt lat="44.0873981" lon="7.7504666"><ele>1317.2</ele><time>2026-05-03T09:32:55.937Z</time></trkpt><trkpt lat="44.0873632" lon="7.7505987"><ele>1323.8</ele><time>2026-05-03T09:32:56.95Z</time></trkpt><trkpt lat="44.0873344" lon="7.7507439"><ele>1330.3999999999999</ele><time>2026-05-03T09:32:57.938Z</time></trkpt><trkpt lat="44.0873247" lon="7.7508922"><ele>1337.0</ele><time>2026-05-03T09:32:58.94Z</time></trkpt><trkpt lat="44.0872994" lon="7.7510586"><ele>1337.0</ele><time>2026-05-03T09:32:59.943Z</time></trkpt><trkpt lat="44.0872788" lon="7.7512349"><ele>1337.0</ele><time>2026-05-03T09:33:00.943Z</time></trkpt><trkpt lat="44.0872682" lon="7.7514026"><ele>1337.0</ele><time>2026-05-03T09:33:01.954Z</time></trkpt><trkpt lat="44.0872578" lon="7.7515769"><ele>1337.0</ele><time>2026-05-03T09:33:02.949Z</time></trkpt><trkpt lat="44.0872522" lon="7.7517562"><ele>1335.5</ele><time>2026-05-03T09:33:03.953Z</time></trkpt><trkpt lat="44.087244" lon="7.7519358"><ele>1334.0</ele><time>2026-05-03T09:33:04.945Z</time></trkpt><trkpt lat="44.0872323" lon="7.7521255"><ele>1332.5</ele><time>2026-05-03T09:33:05.962Z</time></trkpt><trkpt lat="44.087216" lon="7.7523194"><ele>1331.0</ele><time>2026-05-03T09:33:06.947Z</time></trkpt><trkpt lat="44.0872021" lon="7.7525259"><ele>1329.3333333333335</ele><time>2026-05-03T09:33:07.95Z</time></trkpt><trkpt lat="44.0871758" lon="7.7527281"><ele>1327.6666666666667</ele><time>2026-05-03T09:33:08.954Z</time></trkpt><trkpt lat="44.0871556" lon="7.7529442"><ele>1326.0</ele><time>2026-05-03T09:33:09.952Z</time></trkpt><trkpt lat="44.0871258" lon="7.7531641"><ele>1326.0</ele><time>2026-05-03T09:33:10.948Z</time></trkpt><trkpt lat="44.0870963" lon="7.7533764"><ele>1326.0</ele><time>2026-05-03T09:33:11.956Z</time></trkpt><trkpt lat="44.0870619" lon="7.753572"><ele>1326.0</ele><time>2026-05-03T09:33:12.954Z</time></trkpt><trkpt lat="44.0870203" lon="7.7537504"><ele>1326.0</ele><time>2026-05-03T09:33:13.949Z</time></trkpt><trkpt lat="44.0869781" lon="7.7539225"><ele>1323.75</ele><time>2026-05-03T09:33:14.939Z</time></trkpt><trkpt lat="44.0869293" lon="7.7540846"><ele>1321.5</ele><time>2026-05-03T09:33:15.953Z</time></trkpt><trkpt lat="44.0868732" lon="7.7542415"><ele>1319.25</ele><time>2026-05-03T09:33:16.952Z</time></trkpt><trkpt lat="44.0868069" lon="7.7543777"><ele>1317.0</ele><time>2026-05-03T09:33:17.95Z</time></trkpt><trkpt lat="44.0867367" lon="7.7545264"><ele>1314.0</ele><time>2026-05-03T09:33:18.962Z</time></trkpt><trkpt lat="44.0866619" lon="7.7546768"><ele>1311.0</ele><time>2026-05-03T09:33:19.954Z</time></trkpt><trkpt lat="44.0865984" lon="7.7548211"><ele>1308.0</ele><time>2026-05-03T09:33:20.951Z</time></trkpt><trkpt lat="44.0865248" lon="7.7549527"><ele>1305.0</ele><time>2026-05-03T09:33:21.944Z</time></trkpt><trkpt lat="44.0864511" lon="7.7550672"><ele>1305.5</ele><time>2026-05-03T09:33:22.948Z</time></trkpt><trkpt lat="44.0863508" lon="7.7551499"><ele>1306.0</ele><time>2026-05-03T09:33:23.95Z</time></trkpt><trkpt lat="44.0862385" lon="7.7552126"><ele>1306.5</ele><time>2026-05-03T09:33:24.95Z</time></trkpt><trkpt lat="44.0861189" lon="7.7552712"><ele>1307.0</ele><time>2026-05-03T09:33:25.947Z</time></trkpt><trkpt lat="44.0860004" lon="7.7553502"><ele>1307.0</ele><time>2026-05-03T09:33:26.958Z</time></trkpt><trkpt lat="44.0858841" lon="7.7554468"><ele>1307.0</ele><time>2026-05-03T09:33:27.947Z</time></trkpt><trkpt lat="44.0857814" lon="7.7555651"><ele>1307.0</ele><time>2026-05-03T09:33:28.951Z</time></trkpt><trkpt lat="44.085707" lon="7.7556866"><ele>1307.0</ele><time>2026-05-03T09:33:29.949Z</time></trkpt><trkpt lat="44.0856313" lon="7.7557732"><ele>1302.5</ele><time>2026-05-03T09:33:30.952Z</time></trkpt><trkpt lat="44.085548" lon="7.7558147"><ele>1298.0</ele><time>2026-05-03T09:33:31.945Z</time></trkpt><trkpt lat="44.0854587" lon="7.7557924"><ele>1293.5</ele><time>2026-05-03T09:33:32.948Z</time></trkpt><trkpt lat="44.0853707" lon="7.7557274"><ele>1289.0</ele><time>2026-05-03T09:33:33.953Z</time></trkpt><trkpt lat="44.0853212" lon="7.7556408"><ele>1284.5</ele><time>2026-05-03T09:33:34.943Z</time></trkpt><trkpt lat="44.0852717" lon="7.755536"><ele>1280.0</ele><time>2026-05-03T09:33:35.943Z</time></trkpt><trkpt lat="44.0852192" lon="7.7554283"><ele>1280.0</ele><time>2026-05-03T09:33:36.946Z</time></trkpt><trkpt lat="44.0851732" lon="7.7553048"><ele>1280.0</ele><time>2026-05-03T09:33:37.95Z</time></trkpt><trkpt lat="44.0851281" lon="7.7551681"><ele>1280.0</ele><time>2026-05-03T09:33:38.954Z</time></trkpt><trkpt lat="44.0850962" lon="7.7550115"><ele>1280.0</ele><time>2026-05-03T09:33:39.949Z</time></trkpt><trkpt lat="44.0850662" lon="7.7548666"><ele>1280.0</ele><time>2026-05-03T09:33:40.961Z</time></trkpt><trkpt lat="44.0850239" lon="7.7547279"><ele>1277.4</ele><time>2026-05-03T09:33:41.945Z</time></trkpt><trkpt lat="44.0849665" lon="7.7546155"><ele>1274.8</ele><time>2026-05-03T09:33:42.944Z</time></trkpt><trkpt lat="44.0848983" lon="7.7545128"><ele>1272.2</ele><time>2026-05-03T09:33:43.943Z</time></trkpt><trkpt lat="44.0848207" lon="7.7543942"><ele>1269.6</ele><time>2026-05-03T09:33:44.939Z</time></trkpt><trkpt lat="44.0847452" lon="7.7542575"><ele>1267.0</ele><time>2026-05-03T09:33:45.943Z</time></trkpt><trkpt lat="44.0846789" lon="7.7541056"><ele>1267.0</ele><time>2026-05-03T09:33:46.942Z</time></trkpt><trkpt lat="44.0846279" lon="7.7539378"><ele>1267.0</ele><time>2026-05-03T09:33:47.951Z</time></trkpt><trkpt lat="44.0845936" lon="7.7537759"><ele>1267.0</ele><time>2026-05-03T09:33:48.946Z</time></trkpt><trkpt lat="44.0845748" lon="7.7536138"><ele>1267.0</ele><time>2026-05-03T09:33:49.951Z</time></trkpt><trkpt lat="44.0845518" lon="7.7534608"><ele>1273.25</ele><time>2026-05-03T09:33:50.939Z</time></trkpt><trkpt lat="44.0844901" lon="7.7533272"><ele>1279.5</ele><time>2026-05-03T09:33:51.952Z</time></trkpt><trkpt lat="44.0844083" lon="7.7532141"><ele>1285.75</ele><time>2026-05-03T09:33:52.939Z</time></trkpt><trkpt lat="44.0843112" lon="7.7530847"><ele>1292.0</ele><time>2026-05-03T09:33:53.945Z</time></trkpt><trkpt lat="44.084231" lon="7.7529546"><ele>1292.0</ele><time>2026-05-03T09:33:54.946Z</time></trkpt><trkpt lat="44.084177" lon="7.7528101"><ele>1292.0</ele><time>2026-05-03T09:33:55.942Z</time></trkpt><trkpt lat="44.0841283" lon="7.7526512"><ele>1292.0</ele><time>2026-05-03T09:33:56.944Z</time></trkpt><trkpt lat="44.0840819" lon="7.752496"><ele>1292.0</ele><time>2026-05-03T09:33:57.94Z</time></trkpt><trkpt lat="44.0840344" lon="7.7523547"><ele>1292.1999999999998</ele><time>2026-05-03T09:33:58.943Z</time></trkpt><trkpt lat="44.0839752" lon="7.7522389"><ele>1292.4</ele><time>2026-05-03T09:33:59.946Z</time></trkpt><trkpt lat="44.0838957" lon="7.7521351"><ele>1292.6</ele><time>2026-05-03T09:34:00.945Z</time></trkpt><trkpt lat="44.0838227" lon="7.7520323"><ele>1292.8000000000002</ele><time>2026-05-03T09:34:01.946Z</time></trkpt><trkpt lat="44.0837568" lon="7.7519274"><ele>1293.0</ele><time>2026-05-03T09:34:02.957Z</time></trkpt><trkpt lat="44.0837054" lon="7.7518142"><ele>1293.0</ele><time>2026-05-03T09:34:03.951Z</time></trkpt><trkpt lat="44.0836662" lon="7.7517069"><ele>1293.0</ele><time>2026-05-03T09:34:04.945Z</time></trkpt><trkpt lat="44.0836257" lon="7.7516015"><ele>1293.0</ele><time>2026-05-03T09:34:05.95Z</time></trkpt><trkpt lat="44.0835916" lon="7.7514996"><ele>1293.0</ele><time>2026-05-03T09:34:06.944Z</time></trkpt><trkpt lat="44.0835547" lon="7.7514078"><ele>1293.0</ele><time>2026-05-03T09:34:07.941Z</time></trkpt><trkpt lat="44.0835165" lon="7.7513194"><ele>1293.0</ele><time>2026-05-03T09:34:08.94Z</time></trkpt><trkpt lat="44.0834776" lon="7.7512313"><ele>1293.0</ele><time>2026-05-03T09:34:09.942Z</time></trkpt><trkpt lat="44.0834399" lon="7.7511443"><ele>1293.0</ele><time>2026-05-03T09:34:10.942Z</time></trkpt><trkpt lat="44.0834032" lon="7.7510547"><ele>1293.0</ele><time>2026-05-03T09:34:11.947Z</time></trkpt><trkpt lat="44.0833663" lon="7.7509594"><ele>1293.0</ele><time>2026-05-03T09:34:12.957Z</time></trkpt><trkpt lat="44.083325" lon="7.7508567"><ele>1293.0</ele><time>2026-05-03T09:34:13.95Z</time></trkpt><trkpt lat="44.0832857" lon="7.7507475"><ele>1293.0</ele><time>2026-05-03T09:34:14.94Z</time></trkpt><trkpt lat="44.0832468" lon="7.7506486"><ele>1294.2857142857142</ele><time>2026-05-03T09:34:15.942Z</time></trkpt><trkpt lat="44.08321" lon="7.7505586"><ele>1295.5714285714287</ele><time>2026-05-03T09:34:16.942Z</time></trkpt><trkpt lat="44.0831697" lon="7.7504818"><ele>1296.857142857143</ele><time>2026-05-03T09:34:17.939Z</time></trkpt><trkpt lat="44.0831368" lon="7.750404"><ele>1298.142857142857</ele><time>2026-05-03T09:34:18.944Z</time></trkpt><trkpt lat="44.0830973" lon="7.7503153"><ele>1299.4285714285716</ele><time>2026-05-03T09:34:19.949Z</time></trkpt><trkpt lat="44.0830602" lon="7.7502315"><ele>1300.7142857142858</ele><time>2026-05-03T09:34:20.95Z</time></trkpt><trkpt lat="44.0830233" lon="7.750156"><ele>1302.0</ele><time>2026-05-03T09:34:21.954Z</time></trkpt><trkpt lat="44.0829799" lon="7.7500739"><ele>1302.0</ele><time>2026-05-03T09:34:22.939Z</time></trkpt><trkpt lat="44.082943" lon="7.749999"><ele>1302.0</ele><time>2026-05-03T09:34:23.941Z</time></trkpt><trkpt lat="44.0828993" lon="7.7499256"><ele>1302.0</ele><time>2026-05-03T09:34:24.945Z</time></trkpt><trkpt lat="44.0828499" lon="7.7498692"><ele>1302.0</ele><time>2026-05-03T09:34:25.943Z</time></trkpt><trkpt lat="44.0827905" lon="7.749812"><ele>1302.0</ele><time>2026-05-03T09:34:26.947Z</time></trkpt><trkpt lat="44.0827327" lon="7.7497467"><ele>1302.0</ele><time>2026-05-03T09:34:27.941Z</time></trkpt><trkpt lat="44.082675" lon="7.7496723"><ele>1302.0</ele><time>2026-05-03T09:34:28.949Z</time></trkpt><trkpt lat="44.0826235" lon="7.7496042"><ele>1302.0</ele><time>2026-05-03T09:34:29.946Z</time></trkpt><trkpt lat="44.082575" lon="7.7495291"><ele>1302.0</ele><time>2026-05-03T09:34:30.951Z</time></trkpt><trkpt lat="44.0825297" lon="7.7494335"><ele>1302.0</ele><time>2026-05-03T09:34:31.945Z</time></trkpt><trkpt lat="44.0824859" lon="7.7493408"><ele>1302.0</ele><time>2026-05-03T09:34:32.943Z</time></trkpt><trkpt lat="44.08245" lon="7.7492406"><ele>1302.0</ele><time>2026-05-03T09:34:33.946Z</time></trkpt><trkpt lat="44.0824234" lon="7.749149"><ele>1302.0</ele><time>2026-05-03T09:34:34.947Z</time></trkpt><trkpt lat="44.0824017" lon="7.7490563"><ele>1300.142857142857</ele><time>2026-05-03T09:34:35.944Z</time></trkpt><trkpt lat="44.0823816" lon="7.748969"><ele>1298.2857142857142</ele><time>2026-05-03T09:34:36.94Z</time></trkpt><trkpt lat="44.082349" lon="7.7488813"><ele>1296.4285714285716</ele><time>2026-05-03T09:34:37.946Z</time></trkpt><trkpt lat="44.0823138" lon="7.7487989"><ele>1294.5714285714284</ele><time>2026-05-03T09:34:38.942Z</time></trkpt><trkpt lat="44.0822627" lon="7.7487315"><ele>1292.7142857142858</ele><time>2026-05-03T09:34:39.958Z</time></trkpt><trkpt lat="44.0821992" lon="7.7487013"><ele>1290.857142857143</ele><time>2026-05-03T09:34:40.938Z</time></trkpt><trkpt lat="44.0821069" lon="7.7487058"><ele>1289.0</ele><time>2026-05-03T09:34:42.946Z</time></trkpt><trkpt lat="44.081983" lon="7.7486949"><ele>1289.0</ele><time>2026-05-03T09:34:44.937Z</time></trkpt><trkpt lat="44.0819007" lon="7.7487111"><ele>1289.0</ele><time>2026-05-03T09:34:45.946Z</time></trkpt><trkpt lat="44.0818138" lon="7.7486992"><ele>1289.0</ele><time>2026-05-03T09:34:46.939Z</time></trkpt><trkpt lat="44.0817366" lon="7.7486737"><ele>1289.0</ele><time>2026-05-03T09:34:47.945Z</time></trkpt><trkpt lat="44.081664" lon="7.7486509"><ele>1289.0</ele><time>2026-05-03T09:34:48.937Z</time></trkpt><trkpt lat="44.0815928" lon="7.7486334"><ele>1289.0</ele><time>2026-05-03T09:34:49.948Z</time></trkpt><trkpt lat="44.0815199" lon="7.7486153"><ele>1289.1666666666667</ele><time>2026-05-03T09:34:50.945Z</time></trkpt><trkpt lat="44.0814498" lon="7.7485839"><ele>1289.3333333333335</ele><time>2026-05-03T09:34:51.941Z</time></trkpt><trkpt lat="44.0813807" lon="7.7485405"><ele>1289.5</ele><time>2026-05-03T09:34:52.94Z</time></trkpt><trkpt lat="44.0813114" lon="7.7484821"><ele>1289.6666666666667</ele><time>2026-05-03T09:34:53.943Z</time></trkpt><trkpt lat="44.0812464" lon="7.7484053"><ele>1289.8333333333333</ele><time>2026-05-03T09:34:54.95Z</time></trkpt><trkpt lat="44.081183" lon="7.7483069"><ele>1290.0</ele><time>2026-05-03T09:34:55.942Z</time></trkpt><trkpt lat="44.0811229" lon="7.7482195"><ele>1290.0</ele><time>2026-05-03T09:34:56.94Z</time></trkpt><trkpt lat="44.0810513" lon="7.7481285"><ele>1290.0</ele><time>2026-05-03T09:34:57.941Z</time></trkpt><trkpt lat="44.0809708" lon="7.7480357"><ele>1290.0</ele><time>2026-05-03T09:34:58.94Z</time></trkpt><trkpt lat="44.0808733" lon="7.7479427"><ele>1290.0</ele><time>2026-05-03T09:34:59.938Z</time></trkpt><trkpt lat="44.0807662" lon="7.7478593"><ele>1290.0</ele><time>2026-05-03T09:35:00.944Z</time></trkpt><trkpt lat="44.0806572" lon="7.7477618"><ele>1289.75</ele><time>2026-05-03T09:35:01.956Z</time></trkpt><trkpt lat="44.0805435" lon="7.7476643"><ele>1289.5</ele><time>2026-05-03T09:35:02.946Z</time></trkpt><trkpt lat="44.0804325" lon="7.7475646"><ele>1289.25</ele><time>2026-05-03T09:35:03.942Z</time></trkpt><trkpt lat="44.0803221" lon="7.7474588"><ele>1289.0</ele><time>2026-05-03T09:35:04.94Z</time></trkpt><trkpt lat="44.0802181" lon="7.7473352"><ele>1289.0</ele><time>2026-05-03T09:35:05.945Z</time></trkpt><trkpt lat="44.0801311" lon="7.7471917"><ele>1289.0</ele><time>2026-05-03T09:35:06.948Z</time></trkpt><trkpt lat="44.0800514" lon="7.7470463"><ele>1289.0</ele><time>2026-05-03T09:35:07.947Z</time></trkpt><trkpt lat="44.0799596" lon="7.7469075"><ele>1289.0</ele><time>2026-05-03T09:35:08.945Z</time></trkpt><trkpt lat="44.0798541" lon="7.7467719"><ele>1286.6666666666667</ele><time>2026-05-03T09:35:09.945Z</time></trkpt><trkpt lat="44.079743" lon="7.7466323"><ele>1284.3333333333333</ele><time>2026-05-03T09:35:10.947Z</time></trkpt><trkpt lat="44.0796286" lon="7.7464782"><ele>1282.0</ele><time>2026-05-03T09:35:11.945Z</time></trkpt><trkpt lat="44.079517" lon="7.7463266"><ele>1282.0</ele><time>2026-05-03T09:35:12.949Z</time></trkpt><trkpt lat="44.0794044" lon="7.7461884"><ele>1282.0</ele><time>2026-05-03T09:35:13.947Z</time></trkpt><trkpt lat="44.0792986" lon="7.7460582"><ele>1282.0</ele><time>2026-05-03T09:35:14.94Z</time></trkpt><trkpt lat="44.0792057" lon="7.7459383"><ele>1282.0</ele><time>2026-05-03T09:35:15.953Z</time></trkpt><trkpt lat="44.0791239" lon="7.7458063"><ele>1284.25</ele><time>2026-05-03T09:35:16.952Z</time></trkpt><trkpt lat="44.0790652" lon="7.7456557"><ele>1286.5</ele><time>2026-05-03T09:35:17.945Z</time></trkpt><trkpt lat="44.0790205" lon="7.7454977"><ele>1288.75</ele><time>2026-05-03T09:35:18.952Z</time></trkpt><trkpt lat="44.0789841" lon="7.7453378"><ele>1291.0</ele><time>2026-05-03T09:35:19.943Z</time></trkpt><trkpt lat="44.0789394" lon="7.7451633"><ele>1294.5</ele><time>2026-05-03T09:35:20.949Z</time></trkpt><trkpt lat="44.0788935" lon="7.7449791"><ele>1298.0</ele><time>2026-05-03T09:35:21.952Z</time></trkpt><trkpt lat="44.0788484" lon="7.7447824"><ele>1301.5</ele><time>2026-05-03T09:35:22.949Z</time></trkpt><trkpt lat="44.0788008" lon="7.7445853"><ele>1305.0</ele><time>2026-05-03T09:35:23.95Z</time></trkpt><trkpt lat="44.0787503" lon="7.7443801"><ele>1308.0</ele><time>2026-05-03T09:35:24.949Z</time></trkpt><trkpt lat="44.0786968" lon="7.7441762"><ele>1311.0</ele><time>2026-05-03T09:35:25.942Z</time></trkpt><trkpt lat="44.0786455" lon="7.7439698"><ele>1314.0</ele><time>2026-05-03T09:35:26.959Z</time></trkpt><trkpt lat="44.0786004" lon="7.7437646"><ele>1314.0</ele><time>2026-05-03T09:35:27.945Z</time></trkpt><trkpt lat="44.0785711" lon="7.7435662"><ele>1314.0</ele><time>2026-05-03T09:35:28.947Z</time></trkpt><trkpt lat="44.078547" lon="7.743384"><ele>1314.0</ele><time>2026-05-03T09:35:29.944Z</time></trkpt><trkpt lat="44.0785309" lon="7.7432146"><ele>1314.0</ele><time>2026-05-03T09:35:30.944Z</time></trkpt><trkpt lat="44.078515" lon="7.7430604"><ele>1317.2</ele><time>2026-05-03T09:35:31.942Z</time></trkpt><trkpt lat="44.0784882" lon="7.7429277"><ele>1320.4</ele><time>2026-05-03T09:35:32.948Z</time></trkpt><trkpt lat="44.0784462" lon="7.7428162"><ele>1323.6</ele><time>2026-05-03T09:35:33.945Z</time></trkpt><trkpt lat="44.0783867" lon="7.7427276"><ele>1326.8</ele><time>2026-05-03T09:35:34.945Z</time></trkpt><trkpt lat="44.0783006" lon="7.7426674"><ele>1330.0</ele><time>2026-05-03T09:35:35.959Z</time></trkpt><trkpt lat="44.0782034" lon="7.7426638"><ele>1333.8</ele><time>2026-05-03T09:35:36.946Z</time></trkpt><trkpt lat="44.0781047" lon="7.7426807"><ele>1337.6</ele><time>2026-05-03T09:35:37.947Z</time></trkpt><trkpt lat="44.0780073" lon="7.7427269"><ele>1341.4</ele><time>2026-05-03T09:35:38.944Z</time></trkpt><trkpt lat="44.0779016" lon="7.7427852"><ele>1345.2</ele><time>2026-05-03T09:35:39.939Z</time></trkpt><trkpt lat="44.077791" lon="7.7428466"><ele>1349.0</ele><time>2026-05-03T09:35:40.943Z</time></trkpt><trkpt lat="44.0776707" lon="7.7428839"><ele>1349.0</ele><time>2026-05-03T09:35:41.951Z</time></trkpt><trkpt lat="44.0775472" lon="7.7429156"><ele>1349.0</ele><time>2026-05-03T09:35:42.945Z</time></trkpt><trkpt lat="44.0774308" lon="7.7429653"><ele>1349.0</ele><time>2026-05-03T09:35:43.947Z</time></trkpt><trkpt lat="44.0773175" lon="7.7430493"><ele>1349.0</ele><time>2026-05-03T09:35:44.952Z</time></trkpt><trkpt lat="44.0772129" lon="7.7431364"><ele>1355.0</ele><time>2026-05-03T09:35:45.946Z</time></trkpt><trkpt lat="44.0771257" lon="7.7432123"><ele>1361.0</ele><time>2026-05-03T09:35:46.946Z</time></trkpt><trkpt lat="44.077053" lon="7.7432842"><ele>1367.0</ele><time>2026-05-03T09:35:47.939Z</time></trkpt><trkpt lat="44.0770143" lon="7.7433736"><ele>1373.0</ele><time>2026-05-03T09:35:48.948Z</time></trkpt><trkpt lat="44.0769999" lon="7.7434951"><ele>1379.0</ele><time>2026-05-03T09:35:49.937Z</time></trkpt><trkpt lat="44.076981" lon="7.7436286"><ele>1379.0</ele><time>2026-05-03T09:35:50.943Z</time></trkpt><trkpt lat="44.0769619" lon="7.7437771"><ele>1379.0</ele><time>2026-05-03T09:35:51.94Z</time></trkpt><trkpt lat="44.0769267" lon="7.7439412"><ele>1379.0</ele><time>2026-05-03T09:35:52.941Z</time></trkpt><trkpt lat="44.0768895" lon="7.7440878"><ele>1379.0</ele><time>2026-05-03T09:35:53.943Z</time></trkpt><trkpt lat="44.0768456" lon="7.7442468"><ele>1376.25</ele><time>2026-05-03T09:35:54.943Z</time></trkpt><trkpt lat="44.0767951" lon="7.7444127"><ele>1373.5</ele><time>2026-05-03T09:35:55.935Z</time></trkpt><trkpt lat="44.076724" lon="7.7445581"><ele>1370.75</ele><time>2026-05-03T09:35:56.942Z</time></trkpt><trkpt lat="44.0766358" lon="7.7447085"><ele>1368.0</ele><time>2026-05-03T09:35:57.928Z</time></trkpt><trkpt lat="44.0765387" lon="7.7448559"><ele>1371.5</ele><time>2026-05-03T09:35:58.93Z</time></trkpt><trkpt lat="44.0764471" lon="7.7449935"><ele>1375.0</ele><time>2026-05-03T09:35:59.93Z</time></trkpt><trkpt lat="44.076367" lon="7.7451309"><ele>1378.5</ele><time>2026-05-03T09:36:00.932Z</time></trkpt><trkpt lat="44.0762887" lon="7.7452676"><ele>1382.0</ele><time>2026-05-03T09:36:01.935Z</time></trkpt><trkpt lat="44.0762079" lon="7.7454052"><ele>1382.0</ele><time>2026-05-03T09:36:02.944Z</time></trkpt><trkpt lat="44.0761183" lon="7.7455458"><ele>1382.0</ele><time>2026-05-03T09:36:03.936Z</time></trkpt><trkpt lat="44.0760304" lon="7.7456929"><ele>1382.0</ele><time>2026-05-03T09:36:04.933Z</time></trkpt><trkpt lat="44.0759498" lon="7.7458352"><ele>1382.0</ele><time>2026-05-03T09:36:05.929Z</time></trkpt><trkpt lat="44.0759039" lon="7.7459635"><ele>1381.8</ele><time>2026-05-03T09:36:06.942Z</time></trkpt><trkpt lat="44.075883" lon="7.7460921"><ele>1381.6</ele><time>2026-05-03T09:36:07.934Z</time></trkpt><trkpt lat="44.0759066" lon="7.7462335"><ele>1381.3999999999999</ele><time>2026-05-03T09:36:08.934Z</time></trkpt><trkpt lat="44.0759418" lon="7.746377"><ele>1381.1999999999998</ele><time>2026-05-03T09:36:09.929Z</time></trkpt><trkpt lat="44.0759902" lon="7.7465271"><ele>1381.0</ele><time>2026-05-03T09:36:10.941Z</time></trkpt><trkpt lat="44.0760308" lon="7.7466576"><ele>1381.0</ele><time>2026-05-03T09:36:11.935Z</time></trkpt><trkpt lat="44.0760664" lon="7.7467718"><ele>1381.0</ele><time>2026-05-03T09:36:12.935Z</time></trkpt><trkpt lat="44.0760859" lon="7.746861"><ele>1381.0</ele><time>2026-05-03T09:36:13.938Z</time></trkpt><trkpt lat="44.0761054" lon="7.7469467"><ele>1381.0</ele><time>2026-05-03T09:36:14.932Z</time></trkpt><trkpt lat="44.0761152" lon="7.747036"><ele>1381.0</ele><time>2026-05-03T09:36:15.932Z</time></trkpt><trkpt lat="44.0761131" lon="7.7471338"><ele>1381.0</ele><time>2026-05-03T09:36:16.948Z</time></trkpt><trkpt lat="44.0760897" lon="7.747243"><ele>1381.0</ele><time>2026-05-03T09:36:17.936Z</time></trkpt><trkpt lat="44.0760449" lon="7.7473582"><ele>1379.8</ele><time>2026-05-03T09:36:18.937Z</time></trkpt><trkpt lat="44.0759771" lon="7.7474614"><ele>1378.6</ele><time>2026-05-03T09:36:19.938Z</time></trkpt><trkpt lat="44.0758949" lon="7.7475288"><ele>1377.4</ele><time>2026-05-03T09:36:20.936Z</time></trkpt><trkpt lat="44.0757957" lon="7.7475813"><ele>1376.2</ele><time>2026-05-03T09:36:21.941Z</time></trkpt><trkpt lat="44.0756904" lon="7.7476203"><ele>1375.0</ele><time>2026-05-03T09:36:22.939Z</time></trkpt><trkpt lat="44.075593" lon="7.7476576"><ele>1374.8</ele><time>2026-05-03T09:36:23.942Z</time></trkpt><trkpt lat="44.0755085" lon="7.7477306"><ele>1374.6</ele><time>2026-05-03T09:36:24.937Z</time></trkpt><trkpt lat="44.0754419" lon="7.7478231"><ele>1374.4</ele><time>2026-05-03T09:36:25.939Z</time></trkpt><trkpt lat="44.0753925" lon="7.7479484"><ele>1374.2</ele><time>2026-05-03T09:36:26.941Z</time></trkpt><trkpt lat="44.0753428" lon="7.7480719"><ele>1374.0</ele><time>2026-05-03T09:36:27.945Z</time></trkpt><trkpt lat="44.0752823" lon="7.7481942"><ele>1374.0</ele><time>2026-05-03T09:36:28.945Z</time></trkpt><trkpt lat="44.0752123" lon="7.7483106"><ele>1374.0</ele><time>2026-05-03T09:36:29.94Z</time></trkpt><trkpt lat="44.0751311" lon="7.7484207"><ele>1374.0</ele><time>2026-05-03T09:36:30.94Z</time></trkpt><trkpt lat="44.075054" lon="7.7485423"><ele>1374.0</ele><time>2026-05-03T09:36:31.945Z</time></trkpt><trkpt lat="44.0749951" lon="7.7486771"><ele>1375.0</ele><time>2026-05-03T09:36:32.944Z</time></trkpt><trkpt lat="44.0749503" lon="7.7488234"><ele>1376.0</ele><time>2026-05-03T09:36:33.931Z</time></trkpt><trkpt lat="44.0749103" lon="7.7489699"><ele>1377.0</ele><time>2026-05-03T09:36:34.943Z</time></trkpt><trkpt lat="44.0748629" lon="7.749099"><ele>1378.0</ele><time>2026-05-03T09:36:35.933Z</time></trkpt><trkpt lat="44.0748199" lon="7.7491938"><ele>1379.0</ele><time>2026-05-03T09:36:36.949Z</time></trkpt><trkpt lat="44.0747663" lon="7.7493423"><ele>1377.6666666666667</ele><time>2026-05-03T09:36:38.932Z</time></trkpt><trkpt lat="44.0748051" lon="7.7494348"><ele>1376.3333333333335</ele><time>2026-05-03T09:36:40.949Z</time></trkpt><trkpt lat="44.0748975" lon="7.7493792"><ele>1375.0</ele><time>2026-05-03T09:36:42.939Z</time></trkpt><trkpt lat="44.0749613" lon="7.7492986"><ele>1373.6666666666667</ele><time>2026-05-03T09:36:43.936Z</time></trkpt><trkpt lat="44.0750385" lon="7.7492318"><ele>1372.3333333333333</ele><time>2026-05-03T09:36:44.94Z</time></trkpt><trkpt lat="44.0751269" lon="7.7491883"><ele>1371.0</ele><time>2026-05-03T09:36:45.934Z</time></trkpt><trkpt lat="44.0752047" lon="7.7491722"><ele>1368.5</ele><time>2026-05-03T09:36:46.931Z</time></trkpt><trkpt lat="44.0752799" lon="7.7491598"><ele>1366.0</ele><time>2026-05-03T09:36:47.941Z</time></trkpt><trkpt lat="44.0753505" lon="7.7491538"><ele>1363.5</ele><time>2026-05-03T09:36:48.931Z</time></trkpt><trkpt lat="44.0754071" lon="7.7491935"><ele>1361.0</ele><time>2026-05-03T09:36:49.938Z</time></trkpt><trkpt lat="44.0754111" lon="7.7493375"><ele>1358.5</ele><time>2026-05-03T09:36:51.933Z</time></trkpt><trkpt lat="44.0753096" lon="7.7494167"><ele>1356.0</ele><time>2026-05-03T09:36:53.936Z</time></trkpt><trkpt lat="44.0752232" lon="7.7494517"><ele>1354.8</ele><time>2026-05-03T09:36:54.94Z</time></trkpt><trkpt lat="44.0751349" lon="7.7494929"><ele>1353.6</ele><time>2026-05-03T09:36:55.942Z</time></trkpt><trkpt lat="44.0750441" lon="7.7495402"><ele>1352.4</ele><time>2026-05-03T09:36:56.935Z</time></trkpt><trkpt lat="44.074959" lon="7.7495954"><ele>1351.2</ele><time>2026-05-03T09:36:57.95Z</time></trkpt><trkpt lat="44.0748824" lon="7.7496553"><ele>1350.0</ele><time>2026-05-03T09:36:58.93Z</time></trkpt><trkpt lat="44.0748144" lon="7.7497148"><ele>1353.5</ele><time>2026-05-03T09:36:59.938Z</time></trkpt><trkpt lat="44.0747605" lon="7.7497695"><ele>1357.0</ele><time>2026-05-03T09:37:00.943Z</time></trkpt><trkpt lat="44.0747199" lon="7.7499133"><ele>1360.5</ele><time>2026-05-03T09:37:02.943Z</time></trkpt><trkpt lat="44.0747325" lon="7.7499995"><ele>1364.0</ele><time>2026-05-03T09:37:03.943Z</time></trkpt><trkpt lat="44.074786" lon="7.7501423"><ele>1367.5</ele><time>2026-05-03T09:37:05.943Z</time></trkpt><trkpt lat="44.0748442" lon="7.7501978"><ele>1371.0</ele><time>2026-05-03T09:37:06.936Z</time></trkpt><trkpt lat="44.0749361" lon="7.7502231"><ele>1374.4</ele><time>2026-05-03T09:37:07.941Z</time></trkpt><trkpt lat="44.0750333" lon="7.7502318"><ele>1377.8</ele><time>2026-05-03T09:37:08.935Z</time></trkpt><trkpt lat="44.0751317" lon="7.7502378"><ele>1381.2</ele><time>2026-05-03T09:37:09.937Z</time></trkpt><trkpt lat="44.0752406" lon="7.7502362"><ele>1384.6000000000001</ele><time>2026-05-03T09:37:10.937Z</time></trkpt><trkpt lat="44.0753584" lon="7.7502433"><ele>1388.0</ele><time>2026-05-03T09:37:11.954Z</time></trkpt><trkpt lat="44.0754863" lon="7.7502389"><ele>1388.0</ele><time>2026-05-03T09:37:12.943Z</time></trkpt><trkpt lat="44.0756191" lon="7.7502145"><ele>1388.0</ele><time>2026-05-03T09:37:13.945Z</time></trkpt><trkpt lat="44.0757529" lon="7.7501754"><ele>1388.0</ele><time>2026-05-03T09:37:14.945Z</time></trkpt><trkpt lat="44.0758919" lon="7.7501322"><ele>1388.0</ele><time>2026-05-03T09:37:15.942Z</time></trkpt><trkpt lat="44.0760257" lon="7.7500861"><ele>1376.75</ele><time>2026-05-03T09:37:16.939Z</time></trkpt><trkpt lat="44.0761514" lon="7.7500358"><ele>1365.5</ele><time>2026-05-03T09:37:17.932Z</time></trkpt><trkpt lat="44.0762821" lon="7.7499811"><ele>1354.25</ele><time>2026-05-03T09:37:18.932Z</time></trkpt><trkpt lat="44.0764083" lon="7.7499171"><ele>1343.0</ele><time>2026-05-03T09:37:19.935Z</time></trkpt><trkpt lat="44.0765303" lon="7.7498603"><ele>1343.25</ele><time>2026-05-03T09:37:20.931Z</time></trkpt><trkpt lat="44.0766517" lon="7.7498016"><ele>1343.5</ele><time>2026-05-03T09:37:21.936Z</time></trkpt><trkpt lat="44.0767854" lon="7.7497558"><ele>1343.75</ele><time>2026-05-03T09:37:22.932Z</time></trkpt><trkpt lat="44.0769261" lon="7.7497249"><ele>1344.0</ele><time>2026-05-03T09:37:23.941Z</time></trkpt><trkpt lat="44.0770731" lon="7.7497094"><ele>1344.0</ele><time>2026-05-03T09:37:24.934Z</time></trkpt><trkpt lat="44.0772162" lon="7.7497054"><ele>1344.0</ele><time>2026-05-03T09:37:25.939Z</time></trkpt><trkpt lat="44.0773564" lon="7.7496921"><ele>1344.0</ele><time>2026-05-03T09:37:26.932Z</time></trkpt><trkpt lat="44.0774925" lon="7.7496783"><ele>1344.0</ele><time>2026-05-03T09:37:27.936Z</time></trkpt><trkpt lat="44.0776272" lon="7.7496724"><ele>1344.25</ele><time>2026-05-03T09:37:28.935Z</time></trkpt><trkpt lat="44.077762" lon="7.7496707"><ele>1344.5</ele><time>2026-05-03T09:37:29.932Z</time></trkpt><trkpt lat="44.0778904" lon="7.7496921"><ele>1344.75</ele><time>2026-05-03T09:37:30.932Z</time></trkpt><trkpt lat="44.0780153" lon="7.7497193"><ele>1345.0</ele><time>2026-05-03T09:37:31.94Z</time></trkpt><trkpt lat="44.0781365" lon="7.7497472"><ele>1345.0</ele><time>2026-05-03T09:37:32.936Z</time></trkpt><trkpt lat="44.0782504" lon="7.7497847"><ele>1345.0</ele><time>2026-05-03T09:37:33.927Z</time></trkpt><trkpt lat="44.0783515" lon="7.7498328"><ele>1345.0</ele><time>2026-05-03T09:37:34.942Z</time></trkpt><trkpt lat="44.0784484" lon="7.7498971"><ele>1345.0</ele><time>2026-05-03T09:37:35.93Z</time></trkpt><trkpt lat="44.0785422" lon="7.7499678"><ele>1345.0</ele><time>2026-05-03T09:37:36.934Z</time></trkpt><trkpt lat="44.0786307" lon="7.7500281"><ele>1345.3333333333333</ele><time>2026-05-03T09:37:37.939Z</time></trkpt><trkpt lat="44.0787165" lon="7.7500846"><ele>1345.6666666666665</ele><time>2026-05-03T09:37:38.936Z</time></trkpt><trkpt lat="44.078804" lon="7.7501226"><ele>1346.0</ele><time>2026-05-03T09:37:39.938Z</time></trkpt><trkpt lat="44.0788872" lon="7.7501593"><ele>1346.3333333333333</ele><time>2026-05-03T09:37:40.93Z</time></trkpt><trkpt lat="44.0789564" lon="7.7502005"><ele>1346.6666666666667</ele><time>2026-05-03T09:37:41.943Z</time></trkpt><trkpt lat="44.0790258" lon="7.7502395"><ele>1347.0</ele><time>2026-05-03T09:37:42.939Z</time></trkpt><trkpt lat="44.0790915" lon="7.7502937"><ele>1341.9999999999998</ele><time>2026-05-03T09:37:43.941Z</time></trkpt><trkpt lat="44.0791431" lon="7.7503657"><ele>1337.0</ele><time>2026-05-03T09:37:44.941Z</time></trkpt><trkpt lat="44.0791735" lon="7.7504452"><ele>1332.0</ele><time>2026-05-03T09:37:45.936Z</time></trkpt><trkpt lat="44.0791992" lon="7.7505294"><ele>1327.0</ele><time>2026-05-03T09:37:46.933Z</time></trkpt><trkpt lat="44.0792101" lon="7.7506258"><ele>1322.0</ele><time>2026-05-03T09:37:47.941Z</time></trkpt><trkpt lat="44.0792108" lon="7.7507307"><ele>1316.9999999999998</ele><time>2026-05-03T09:37:48.945Z</time></trkpt><trkpt lat="44.0792024" lon="7.7508387"><ele>1312.0</ele><time>2026-05-03T09:37:49.948Z</time></trkpt><trkpt lat="44.0791922" lon="7.7509619"><ele>1313.8</ele><time>2026-05-03T09:37:50.949Z</time></trkpt><trkpt lat="44.079194" lon="7.7510941"><ele>1315.6</ele><time>2026-05-03T09:37:51.954Z</time></trkpt><trkpt lat="44.0791984" lon="7.7512254"><ele>1317.3999999999999</ele><time>2026-05-03T09:37:52.937Z</time></trkpt><trkpt lat="44.0792254" lon="7.7513608"><ele>1319.1999999999998</ele><time>2026-05-03T09:37:53.954Z</time></trkpt><trkpt lat="44.079273" lon="7.7515052"><ele>1321.0</ele><time>2026-05-03T09:37:54.948Z</time></trkpt><trkpt lat="44.0793351" lon="7.7516496"><ele>1321.0</ele><time>2026-05-03T09:37:55.949Z</time></trkpt><trkpt lat="44.0794161" lon="7.7517769"><ele>1321.0</ele><time>2026-05-03T09:37:56.943Z</time></trkpt><trkpt lat="44.0795027" lon="7.7518895"><ele>1321.0</ele><time>2026-05-03T09:37:57.949Z</time></trkpt><trkpt lat="44.0795947" lon="7.7519964"><ele>1321.0</ele><time>2026-05-03T09:37:58.938Z</time></trkpt><trkpt lat="44.0796943" lon="7.7521155"><ele>1320.75</ele><time>2026-05-03T09:37:59.94Z</time></trkpt><trkpt lat="44.0797827" lon="7.7522335"><ele>1320.5</ele><time>2026-05-03T09:38:00.946Z</time></trkpt><trkpt lat="44.0798542" lon="7.7523571"><ele>1320.25</ele><time>2026-05-03T09:38:01.948Z</time></trkpt><trkpt lat="44.0799127" lon="7.7524947"><ele>1320.0</ele><time>2026-05-03T09:38:02.95Z</time></trkpt><trkpt lat="44.0799651" lon="7.7526389"><ele>1321.0</ele><time>2026-05-03T09:38:03.945Z</time></trkpt><trkpt lat="44.0800039" lon="7.7527935"><ele>1322.0</ele><time>2026-05-03T09:38:04.953Z</time></trkpt><trkpt lat="44.0800388" lon="7.7529512"><ele>1323.0</ele><time>2026-05-03T09:38:05.955Z</time></trkpt><trkpt lat="44.0800643" lon="7.7531202"><ele>1324.0</ele><time>2026-05-03T09:38:06.953Z</time></trkpt><trkpt lat="44.0800806" lon="7.7532996"><ele>1324.0</ele><time>2026-05-03T09:38:07.968Z</time></trkpt><trkpt lat="44.0800827" lon="7.7534761"><ele>1324.0</ele><time>2026-05-03T09:38:08.949Z</time></trkpt><trkpt lat="44.0800642" lon="7.7536292"><ele>1324.0</ele><time>2026-05-03T09:38:09.957Z</time></trkpt><trkpt lat="44.0800373" lon="7.7537853"><ele>1324.0</ele><time>2026-05-03T09:38:10.946Z</time></trkpt><trkpt lat="44.0800054" lon="7.753954"><ele>1323.75</ele><time>2026-05-03T09:38:11.96Z</time></trkpt><trkpt lat="44.0799695" lon="7.7541374"><ele>1323.5</ele><time>2026-05-03T09:38:12.957Z</time></trkpt><trkpt lat="44.0799288" lon="7.7543254"><ele>1323.25</ele><time>2026-05-03T09:38:13.959Z</time></trkpt><trkpt lat="44.0798907" lon="7.7545005"><ele>1323.0</ele><time>2026-05-03T09:38:14.942Z</time></trkpt><trkpt lat="44.0798477" lon="7.7546636"><ele>1327.5</ele><time>2026-05-03T09:38:15.954Z</time></trkpt><trkpt lat="44.0797987" lon="7.7548066"><ele>1332.0</ele><time>2026-05-03T09:38:16.945Z</time></trkpt><trkpt lat="44.0797432" lon="7.7549491"><ele>1336.5</ele><time>2026-05-03T09:38:17.952Z</time></trkpt><trkpt lat="44.07969" lon="7.7550941"><ele>1341.0</ele><time>2026-05-03T09:38:18.945Z</time></trkpt><trkpt lat="44.0796439" lon="7.7552454"><ele>1341.0</ele><time>2026-05-03T09:38:19.937Z</time></trkpt><trkpt lat="44.0796154" lon="7.755407"><ele>1341.0</ele><time>2026-05-03T09:38:20.944Z</time></trkpt><trkpt lat="44.0796164" lon="7.7555619"><ele>1341.0</ele><time>2026-05-03T09:38:21.947Z</time></trkpt><trkpt lat="44.0796443" lon="7.7557183"><ele>1341.0</ele><time>2026-05-03T09:38:22.948Z</time></trkpt><trkpt lat="44.0796687" lon="7.7558787"><ele>1343.1999999999998</ele><time>2026-05-03T09:38:23.941Z</time></trkpt><trkpt lat="44.0796787" lon="7.7560405"><ele>1345.3999999999999</ele><time>2026-05-03T09:38:24.96Z</time></trkpt><trkpt lat="44.0796781" lon="7.7561834"><ele>1347.6</ele><time>2026-05-03T09:38:25.942Z</time></trkpt><trkpt lat="44.0796711" lon="7.7563262"><ele>1349.8</ele><time>2026-05-03T09:38:26.951Z</time></trkpt><trkpt lat="44.0796747" lon="7.7564658"><ele>1352.0</ele><time>2026-05-03T09:38:27.952Z</time></trkpt><trkpt lat="44.0796982" lon="7.7565998"><ele>1352.0</ele><time>2026-05-03T09:38:28.948Z</time></trkpt><trkpt lat="44.07974" lon="7.7567126"><ele>1352.0</ele><time>2026-05-03T09:38:29.947Z</time></trkpt><trkpt lat="44.0798034" lon="7.7568104"><ele>1352.0</ele><time>2026-05-03T09:38:30.947Z</time></trkpt><trkpt lat="44.0798737" lon="7.7569077"><ele>1352.0</ele><time>2026-05-03T09:38:31.942Z</time></trkpt><trkpt lat="44.07995" lon="7.7570115"><ele>1352.0</ele><time>2026-05-03T09:38:32.943Z</time></trkpt><trkpt lat="44.0800257" lon="7.7571306"><ele>1348.5</ele><time>2026-05-03T09:38:33.95Z</time></trkpt><trkpt lat="44.0801194" lon="7.7572583"><ele>1345.0</ele><time>2026-05-03T09:38:34.945Z</time></trkpt><trkpt lat="44.0802254" lon="7.7573854"><ele>1341.5</ele><time>2026-05-03T09:38:35.949Z</time></trkpt><trkpt lat="44.0803308" lon="7.7574968"><ele>1338.0</ele><time>2026-05-03T09:38:36.946Z</time></trkpt><trkpt lat="44.0804332" lon="7.7576013"><ele>1338.0</ele><time>2026-05-03T09:38:37.944Z</time></trkpt><trkpt lat="44.0805246" lon="7.7577013"><ele>1338.0</ele><time>2026-05-03T09:38:38.945Z</time></trkpt><trkpt lat="44.0806099" lon="7.7578105"><ele>1338.0</ele><time>2026-05-03T09:38:39.946Z</time></trkpt><trkpt lat="44.080682" lon="7.7579411"><ele>1338.0</ele><time>2026-05-03T09:38:40.946Z</time></trkpt><trkpt lat="44.0807431" lon="7.7580844"><ele>1340.0</ele><time>2026-05-03T09:38:41.947Z</time></trkpt><trkpt lat="44.080799" lon="7.7582405"><ele>1342.0</ele><time>2026-05-03T09:38:42.945Z</time></trkpt><trkpt lat="44.0808543" lon="7.7584072"><ele>1344.0</ele><time>2026-05-03T09:38:43.95Z</time></trkpt><trkpt lat="44.0809255" lon="7.7585818"><ele>1346.0</ele><time>2026-05-03T09:38:44.954Z</time></trkpt><trkpt lat="44.0810194" lon="7.758745"><ele>1346.0</ele><time>2026-05-03T09:38:45.945Z</time></trkpt><trkpt lat="44.0811285" lon="7.7588893"><ele>1346.0</ele><time>2026-05-03T09:38:46.946Z</time></trkpt><trkpt lat="44.0812311" lon="7.7590241"><ele>1346.0</ele><time>2026-05-03T09:38:47.942Z</time></trkpt><trkpt lat="44.0813206" lon="7.7591441"><ele>1346.0</ele><time>2026-05-03T09:38:48.945Z</time></trkpt><trkpt lat="44.0814049" lon="7.7592725"><ele>1348.5</ele><time>2026-05-03T09:38:49.945Z</time></trkpt><trkpt lat="44.0814731" lon="7.7594138"><ele>1351.0</ele><time>2026-05-03T09:38:50.945Z</time></trkpt><trkpt lat="44.0815299" lon="7.7595653"><ele>1353.5</ele><time>2026-05-03T09:38:51.945Z</time></trkpt><trkpt lat="44.0815648" lon="7.7597343"><ele>1356.0</ele><time>2026-05-03T09:38:52.944Z</time></trkpt><trkpt lat="44.081574" lon="7.7598998"><ele>1356.0</ele><time>2026-05-03T09:38:53.936Z</time></trkpt><trkpt lat="44.0815806" lon="7.7600628"><ele>1356.0</ele><time>2026-05-03T09:38:54.941Z</time></trkpt><trkpt lat="44.0815587" lon="7.7602282"><ele>1356.0</ele><time>2026-05-03T09:38:55.941Z</time></trkpt><trkpt lat="44.081495" lon="7.7603875"><ele>1356.0</ele><time>2026-05-03T09:38:56.95Z</time></trkpt><trkpt lat="44.0814278" lon="7.7605247"><ele>1354.1999999999998</ele><time>2026-05-03T09:38:57.955Z</time></trkpt><trkpt lat="44.0813493" lon="7.760644"><ele>1352.3999999999999</ele><time>2026-05-03T09:38:58.956Z</time></trkpt><trkpt lat="44.0812707" lon="7.7607477"><ele>1350.6</ele><time>2026-05-03T09:38:59.942Z</time></trkpt><trkpt lat="44.0811937" lon="7.7608347"><ele>1348.8</ele><time>2026-05-03T09:39:00.951Z</time></trkpt><trkpt lat="44.0811231" lon="7.7609114"><ele>1347.0</ele><time>2026-05-03T09:39:01.945Z</time></trkpt><trkpt lat="44.0810571" lon="7.7609864"><ele>1348.0</ele><time>2026-05-03T09:39:02.95Z</time></trkpt><trkpt lat="44.0810201" lon="7.7610704"><ele>1349.0</ele><time>2026-05-03T09:39:03.95Z</time></trkpt><trkpt lat="44.0810495" lon="7.7612298"><ele>1350.0</ele><time>2026-05-03T09:39:05.943Z</time></trkpt><trkpt lat="44.0810963" lon="7.7613004"><ele>1351.0</ele><time>2026-05-03T09:39:06.952Z</time></trkpt><trkpt lat="44.0811665" lon="7.7613773"><ele>1352.0</ele><time>2026-05-03T09:39:07.945Z</time></trkpt><trkpt lat="44.0812574" lon="7.7614555"><ele>1352.0</ele><time>2026-05-03T09:39:08.931Z</time></trkpt><trkpt lat="44.0813591" lon="7.7615376"><ele>1352.0</ele><time>2026-05-03T09:39:09.939Z</time></trkpt><trkpt lat="44.081463" lon="7.761628"><ele>1352.0</ele><time>2026-05-03T09:39:10.949Z</time></trkpt><trkpt lat="44.0815658" lon="7.7617103"><ele>1352.0</ele><time>2026-05-03T09:39:11.938Z</time></trkpt><trkpt lat="44.0816659" lon="7.7617971"><ele>1346.1999999999998</ele><time>2026-05-03T09:39:12.938Z</time></trkpt><trkpt lat="44.0817622" lon="7.7618809"><ele>1340.4</ele><time>2026-05-03T09:39:13.945Z</time></trkpt><trkpt lat="44.0818269" lon="7.7619873"><ele>1334.6</ele><time>2026-05-03T09:39:14.945Z</time></trkpt><trkpt lat="44.0818506" lon="7.7621196"><ele>1328.8000000000002</ele><time>2026-05-03T09:39:15.948Z</time></trkpt><trkpt lat="44.0818477" lon="7.7622665"><ele>1323.0</ele><time>2026-05-03T09:39:16.938Z</time></trkpt><trkpt lat="44.0818373" lon="7.7624461"><ele>1323.0</ele><time>2026-05-03T09:39:17.944Z</time></trkpt><trkpt lat="44.0818346" lon="7.7626117"><ele>1323.0</ele><time>2026-05-03T09:39:18.947Z</time></trkpt><trkpt lat="44.0818298" lon="7.7627812"><ele>1323.0</ele><time>2026-05-03T09:39:19.952Z</time></trkpt><trkpt lat="44.0818186" lon="7.7629485"><ele>1323.0</ele><time>2026-05-03T09:39:20.947Z</time></trkpt><trkpt lat="44.0817724" lon="7.7631167"><ele>1321.25</ele><time>2026-05-03T09:39:21.946Z</time></trkpt><trkpt lat="44.0817212" lon="7.7632841"><ele>1319.5</ele><time>2026-05-03T09:39:22.944Z</time></trkpt><trkpt lat="44.0816766" lon="7.7634506"><ele>1317.75</ele><time>2026-05-03T09:39:23.944Z</time></trkpt><trkpt lat="44.0816392" lon="7.7636236"><ele>1316.0</ele><time>2026-05-03T09:39:24.944Z</time></trkpt><trkpt lat="44.0816067" lon="7.7637894"><ele>1321.25</ele><time>2026-05-03T09:39:25.952Z</time></trkpt><trkpt lat="44.081561" lon="7.7639474"><ele>1326.5</ele><time>2026-05-03T09:39:26.946Z</time></trkpt><trkpt lat="44.081512" lon="7.7641019"><ele>1331.75</ele><time>2026-05-03T09:39:27.951Z</time></trkpt><trkpt lat="44.0814777" lon="7.7642717"><ele>1337.0</ele><time>2026-05-03T09:39:28.953Z</time></trkpt><trkpt lat="44.0814566" lon="7.7644249"><ele>1337.0</ele><time>2026-05-03T09:39:29.951Z</time></trkpt><trkpt lat="44.0814722" lon="7.7645738"><ele>1337.0</ele><time>2026-05-03T09:39:30.952Z</time></trkpt><trkpt lat="44.0815386" lon="7.7647192"><ele>1337.0</ele><time>2026-05-03T09:39:31.954Z</time></trkpt><trkpt lat="44.081591" lon="7.7648586"><ele>1337.0</ele><time>2026-05-03T09:39:32.949Z</time></trkpt><trkpt lat="44.0815905" lon="7.7649967"><ele>1337.0</ele><time>2026-05-03T09:39:33.952Z</time></trkpt><trkpt lat="44.0815554" lon="7.7651164"><ele>1333.75</ele><time>2026-05-03T09:39:34.946Z</time></trkpt><trkpt lat="44.0814805" lon="7.7652259"><ele>1330.5</ele><time>2026-05-03T09:39:35.945Z</time></trkpt><trkpt lat="44.0814069" lon="7.7653317"><ele>1327.25</ele><time>2026-05-03T09:39:36.947Z</time></trkpt><trkpt lat="44.0813229" lon="7.7654523"><ele>1324.0</ele><time>2026-05-03T09:39:37.956Z</time></trkpt><trkpt lat="44.0812396" lon="7.7655629"><ele>1324.0</ele><time>2026-05-03T09:39:38.948Z</time></trkpt><trkpt lat="44.0811697" lon="7.7656732"><ele>1324.0</ele><time>2026-05-03T09:39:39.951Z</time></trkpt><trkpt lat="44.0811451" lon="7.7658004"><ele>1324.0</ele><time>2026-05-03T09:39:40.938Z</time></trkpt><trkpt lat="44.0811587" lon="7.7659461"><ele>1324.0</ele><time>2026-05-03T09:39:41.942Z</time></trkpt><trkpt lat="44.081188" lon="7.7660977"><ele>1324.0</ele><time>2026-05-03T09:39:42.952Z</time></trkpt><trkpt lat="44.0812167" lon="7.7662533"><ele>1321.0</ele><time>2026-05-03T09:39:43.943Z</time></trkpt><trkpt lat="44.0812246" lon="7.7663922"><ele>1318.0</ele><time>2026-05-03T09:39:44.942Z</time></trkpt><trkpt lat="44.0811942" lon="7.7665426"><ele>1315.0</ele><time>2026-05-03T09:39:45.944Z</time></trkpt><trkpt lat="44.0811126" lon="7.7666831"><ele>1312.0</ele><time>2026-05-03T09:39:46.946Z</time></trkpt><trkpt lat="44.0810276" lon="7.7668144"><ele>1309.0</ele><time>2026-05-03T09:39:47.941Z</time></trkpt><trkpt lat="44.0809676" lon="7.7669573"><ele>1306.0</ele><time>2026-05-03T09:39:48.947Z</time></trkpt><trkpt lat="44.0809406" lon="7.7671444"><ele>1303.0</ele><time>2026-05-03T09:39:49.949Z</time></trkpt><trkpt lat="44.0809466" lon="7.7673279"><ele>1300.0</ele><time>2026-05-03T09:39:50.94Z</time></trkpt><trkpt lat="44.0809577" lon="7.7675263"><ele>1302.75</ele><time>2026-05-03T09:39:51.943Z</time></trkpt><trkpt lat="44.0809802" lon="7.7677071"><ele>1305.5</ele><time>2026-05-03T09:39:52.945Z</time></trkpt><trkpt lat="44.0809989" lon="7.7678894"><ele>1308.25</ele><time>2026-05-03T09:39:53.946Z</time></trkpt><trkpt lat="44.0810208" lon="7.7680647"><ele>1311.0</ele><time>2026-05-03T09:39:54.949Z</time></trkpt><trkpt lat="44.081036" lon="7.7682357"><ele>1311.0</ele><time>2026-05-03T09:39:55.95Z</time></trkpt><trkpt lat="44.0810692" lon="7.7683924"><ele>1311.0</ele><time>2026-05-03T09:39:56.932Z</time></trkpt><trkpt lat="44.0811023" lon="7.7685057"><ele>1311.0</ele><time>2026-05-03T09:39:57.937Z</time></trkpt><trkpt lat="44.0811396" lon="7.7685789"><ele>1311.0</ele><time>2026-05-03T09:39:58.944Z</time></trkpt><trkpt lat="44.0811688" lon="7.7686772"><ele>1311.0</ele><time>2026-05-03T09:39:59.937Z</time></trkpt><trkpt lat="44.0812061" lon="7.7688823"><ele>1315.5</ele><time>2026-05-03T09:40:00.938Z</time></trkpt><trkpt lat="44.0812355" lon="7.7691072"><ele>1320.0</ele><time>2026-05-03T09:40:01.947Z</time></trkpt><trkpt lat="44.0813054" lon="7.769253"><ele>1324.5</ele><time>2026-05-03T09:40:02.94Z</time></trkpt><trkpt lat="44.0814052" lon="7.769353"><ele>1329.0</ele><time>2026-05-03T09:40:03.94Z</time></trkpt><trkpt lat="44.0815098" lon="7.7694315"><ele>1328.0</ele><time>2026-05-03T09:40:04.944Z</time></trkpt><trkpt lat="44.0816107" lon="7.7695455"><ele>1327.0</ele><time>2026-05-03T09:40:05.95Z</time></trkpt><trkpt lat="44.0817214" lon="7.7696709"><ele>1326.0</ele><time>2026-05-03T09:40:06.954Z</time></trkpt><trkpt lat="44.0818238" lon="7.769818"><ele>1325.0</ele><time>2026-05-03T09:40:07.941Z</time></trkpt><trkpt lat="44.0819177" lon="7.7699803"><ele>1325.0</ele><time>2026-05-03T09:40:08.946Z</time></trkpt><trkpt lat="44.0819916" lon="7.7701709"><ele>1325.0</ele><time>2026-05-03T09:40:09.945Z</time></trkpt><trkpt lat="44.0820472" lon="7.7703647"><ele>1325.0</ele><time>2026-05-03T09:40:10.949Z</time></trkpt><trkpt lat="44.0820933" lon="7.7705567"><ele>1327.4</ele><time>2026-05-03T09:40:11.937Z</time></trkpt><trkpt lat="44.0821359" lon="7.7707233"><ele>1329.8</ele><time>2026-05-03T09:40:12.935Z</time></trkpt><trkpt lat="44.0821743" lon="7.7708635"><ele>1332.1999999999998</ele><time>2026-05-03T09:40:13.938Z</time></trkpt><trkpt lat="44.0822255" lon="7.7709746"><ele>1334.6</ele><time>2026-05-03T09:40:14.942Z</time></trkpt><trkpt lat="44.0823014" lon="7.7710303"><ele>1337.0</ele><time>2026-05-03T09:40:15.942Z</time></trkpt><trkpt lat="44.0824127" lon="7.7710471"><ele>1333.75</ele><time>2026-05-03T09:40:16.935Z</time></trkpt><trkpt lat="44.0825317" lon="7.7710247"><ele>1330.5</ele><time>2026-05-03T09:40:17.933Z</time></trkpt><trkpt lat="44.0826491" lon="7.7709737"><ele>1327.25</ele><time>2026-05-03T09:40:18.94Z</time></trkpt><trkpt lat="44.0827665" lon="7.7708897"><ele>1324.0</ele><time>2026-05-03T09:40:19.935Z</time></trkpt><trkpt lat="44.0828908" lon="7.7708231"><ele>1324.0</ele><time>2026-05-03T09:40:20.934Z</time></trkpt><trkpt lat="44.0830324" lon="7.7708167"><ele>1324.0</ele><time>2026-05-03T09:40:21.938Z</time></trkpt><trkpt lat="44.0831845" lon="7.7708412"><ele>1324.0</ele><time>2026-05-03T09:40:22.944Z</time></trkpt><trkpt lat="44.0833334" lon="7.7708554"><ele>1324.0</ele><time>2026-05-03T09:40:23.945Z</time></trkpt><trkpt lat="44.0834579" lon="7.7708572"><ele>1324.6</ele><time>2026-05-03T09:40:24.94Z</time></trkpt><trkpt lat="44.083568" lon="7.7708719"><ele>1325.2</ele><time>2026-05-03T09:40:25.946Z</time></trkpt><trkpt lat="44.0836729" lon="7.7709254"><ele>1325.8</ele><time>2026-05-03T09:40:26.944Z</time></trkpt><trkpt lat="44.08376" lon="7.7709929"><ele>1326.3999999999999</ele><time>2026-05-03T09:40:27.946Z</time></trkpt><trkpt lat="44.0838442" lon="7.7710627"><ele>1327.0</ele><time>2026-05-03T09:40:28.949Z</time></trkpt><trkpt lat="44.0839009" lon="7.7711627"><ele>1335.0</ele><time>2026-05-03T09:40:29.946Z</time></trkpt><trkpt lat="44.0839357" lon="7.7712955"><ele>1343.0</ele><time>2026-05-03T09:40:30.948Z</time></trkpt><trkpt lat="44.0839511" lon="7.7714489"><ele>1351.0</ele><time>2026-05-03T09:40:31.938Z</time></trkpt><trkpt lat="44.0839556" lon="7.7716106"><ele>1359.0</ele><time>2026-05-03T09:40:32.94Z</time></trkpt><trkpt lat="44.0839878" lon="7.7717736"><ele>1357.75</ele><time>2026-05-03T09:40:33.947Z</time></trkpt><trkpt lat="44.0840622" lon="7.7719038"><ele>1356.5</ele><time>2026-05-03T09:40:34.95Z</time></trkpt><trkpt lat="44.084161" lon="7.7720197"><ele>1355.25</ele><time>2026-05-03T09:40:35.939Z</time></trkpt><trkpt lat="44.0842587" lon="7.7721459"><ele>1354.0</ele><time>2026-05-03T09:40:36.941Z</time></trkpt><trkpt lat="44.0843627" lon="7.7722872"><ele>1354.0</ele><time>2026-05-03T09:40:37.938Z</time></trkpt><trkpt lat="44.0844559" lon="7.772436"><ele>1354.0</ele><time>2026-05-03T09:40:38.952Z</time></trkpt><trkpt lat="44.0845657" lon="7.7725593"><ele>1354.0</ele><time>2026-05-03T09:40:39.945Z</time></trkpt><trkpt lat="44.0846816" lon="7.7726613"><ele>1354.0</ele><time>2026-05-03T09:40:40.944Z</time></trkpt><trkpt lat="44.0847992" lon="7.7727385"><ele>1356.75</ele><time>2026-05-03T09:40:41.961Z</time></trkpt><trkpt lat="44.0849141" lon="7.7728036"><ele>1359.5</ele><time>2026-05-03T09:40:42.945Z</time></trkpt><trkpt lat="44.085037" lon="7.7728525"><ele>1362.25</ele><time>2026-05-03T09:40:43.944Z</time></trkpt><trkpt lat="44.0851771" lon="7.7728909"><ele>1365.0</ele><time>2026-05-03T09:40:44.947Z</time></trkpt><trkpt lat="44.0853179" lon="7.7729205"><ele>1357.25</ele><time>2026-05-03T09:40:45.952Z</time></trkpt><trkpt lat="44.0854659" lon="7.7729535"><ele>1349.5</ele><time>2026-05-03T09:40:46.95Z</time></trkpt><trkpt lat="44.0855889" lon="7.773009"><ele>1341.75</ele><time>2026-05-03T09:40:47.951Z</time></trkpt><trkpt lat="44.0856771" lon="7.7730794"><ele>1334.0</ele><time>2026-05-03T09:40:48.953Z</time></trkpt><trkpt lat="44.085718" lon="7.7731592"><ele>1334.0</ele><time>2026-05-03T09:40:49.951Z</time></trkpt><trkpt lat="44.0857013" lon="7.7732649"><ele>1334.0</ele><time>2026-05-03T09:40:50.95Z</time></trkpt><trkpt lat="44.0856399" lon="7.7733504"><ele>1334.0</ele><time>2026-05-03T09:40:51.953Z</time></trkpt><trkpt lat="44.0855421" lon="7.7733941"><ele>1334.0</ele><time>2026-05-03T09:40:52.945Z</time></trkpt><trkpt lat="44.0854252" lon="7.7734446"><ele>1334.0</ele><time>2026-05-03T09:40:53.946Z</time></trkpt><trkpt lat="44.0852884" lon="7.7734977"><ele>1336.5</ele><time>2026-05-03T09:40:54.946Z</time></trkpt><trkpt lat="44.0851503" lon="7.7735327"><ele>1339.0</ele><time>2026-05-03T09:40:55.954Z</time></trkpt><trkpt lat="44.0850386" lon="7.7735633"><ele>1341.5</ele><time>2026-05-03T09:40:56.951Z</time></trkpt><trkpt lat="44.0849391" lon="7.7736359"><ele>1344.0</ele><time>2026-05-03T09:40:57.946Z</time></trkpt><trkpt lat="44.0848525" lon="7.773757"><ele>1344.0</ele><time>2026-05-03T09:40:58.951Z</time></trkpt><trkpt lat="44.0847823" lon="7.7739056"><ele>1344.0</ele><time>2026-05-03T09:40:59.948Z</time></trkpt><trkpt lat="44.0847181" lon="7.7740752"><ele>1344.0</ele><time>2026-05-03T09:41:00.944Z</time></trkpt><trkpt lat="44.0846404" lon="7.7742179"><ele>1344.0</ele><time>2026-05-03T09:41:01.96Z</time></trkpt><trkpt lat="44.0845498" lon="7.774342"><ele>1338.75</ele><time>2026-05-03T09:41:02.945Z</time></trkpt><trkpt lat="44.0844449" lon="7.7744509"><ele>1333.5</ele><time>2026-05-03T09:41:03.947Z</time></trkpt><trkpt lat="44.0843472" lon="7.7745817"><ele>1328.25</ele><time>2026-05-03T09:41:04.953Z</time></trkpt><trkpt lat="44.0842606" lon="7.774708"><ele>1323.0</ele><time>2026-05-03T09:41:05.948Z</time></trkpt><trkpt lat="44.0841895" lon="7.7748451"><ele>1323.0</ele><time>2026-05-03T09:41:06.954Z</time></trkpt><trkpt lat="44.084155" lon="7.7750042"><ele>1323.0</ele><time>2026-05-03T09:41:07.945Z</time></trkpt><trkpt lat="44.0841624" lon="7.7751677"><ele>1323.0</ele><time>2026-05-03T09:41:08.947Z</time></trkpt><trkpt lat="44.084182" lon="7.7753365"><ele>1323.0</ele><time>2026-05-03T09:41:09.937Z</time></trkpt><trkpt lat="44.0841939" lon="7.7755102"><ele>1323.0</ele><time>2026-05-03T09:41:10.949Z</time></trkpt><trkpt lat="44.084209" lon="7.7756624"><ele>1323.0</ele><time>2026-05-03T09:41:11.946Z</time></trkpt><trkpt lat="44.0842064" lon="7.7758056"><ele>1323.0</ele><time>2026-05-03T09:41:12.951Z</time></trkpt><trkpt lat="44.0841964" lon="7.775966"><ele>1323.0</ele><time>2026-05-03T09:41:13.947Z</time></trkpt><trkpt lat="44.0841702" lon="7.7761067"><ele>1323.0</ele><time>2026-05-03T09:41:14.947Z</time></trkpt><trkpt lat="44.0841578" lon="7.77623"><ele>1324.75</ele><time>2026-05-03T09:41:15.947Z</time></trkpt><trkpt lat="44.0841849" lon="7.776353"><ele>1326.5</ele><time>2026-05-03T09:41:16.944Z</time></trkpt><trkpt lat="44.0842624" lon="7.7764377"><ele>1328.25</ele><time>2026-05-03T09:41:17.952Z</time></trkpt><trkpt lat="44.0843777" lon="7.7764838"><ele>1330.0</ele><time>2026-05-03T09:41:18.947Z</time></trkpt><trkpt lat="44.0845128" lon="7.7765392"><ele>1330.0</ele><time>2026-05-03T09:41:19.943Z</time></trkpt><trkpt lat="44.0846383" lon="7.7766147"><ele>1330.0</ele><time>2026-05-03T09:41:20.952Z</time></trkpt><trkpt lat="44.0847623" lon="7.7767277"><ele>1330.0</ele><time>2026-05-03T09:41:21.947Z</time></trkpt><trkpt lat="44.084877" lon="7.7768612"><ele>1330.0</ele><time>2026-05-03T09:41:22.946Z</time></trkpt><trkpt lat="44.0849848" lon="7.7770081"><ele>1327.0</ele><time>2026-05-03T09:41:23.946Z</time></trkpt><trkpt lat="44.0850852" lon="7.7771577"><ele>1324.0</ele><time>2026-05-03T09:41:24.944Z</time></trkpt><trkpt lat="44.0851781" lon="7.7773146"><ele>1321.0</ele><time>2026-05-03T09:41:25.946Z</time></trkpt><trkpt lat="44.0852635" lon="7.7774807"><ele>1318.0</ele><time>2026-05-03T09:41:26.945Z</time></trkpt><trkpt lat="44.0853501" lon="7.7776408"><ele>1318.75</ele><time>2026-05-03T09:41:27.943Z</time></trkpt><trkpt lat="44.085445" lon="7.7777865"><ele>1319.5</ele><time>2026-05-03T09:41:28.95Z</time></trkpt><trkpt lat="44.0855282" lon="7.7779396"><ele>1320.25</ele><time>2026-05-03T09:41:29.95Z</time></trkpt><trkpt lat="44.0855855" lon="7.7780858"><ele>1321.0</ele><time>2026-05-03T09:41:30.946Z</time></trkpt><trkpt lat="44.085629" lon="7.7782492"><ele>1321.0</ele><time>2026-05-03T09:41:31.945Z</time></trkpt><trkpt lat="44.0856639" lon="7.7783926"><ele>1321.0</ele><time>2026-05-03T09:41:32.951Z</time></trkpt><trkpt lat="44.0856931" lon="7.7785247"><ele>1321.0</ele><time>2026-05-03T09:41:33.943Z</time></trkpt><trkpt lat="44.0856631" lon="7.7786567"><ele>1321.0</ele><time>2026-05-03T09:41:34.952Z</time></trkpt><trkpt lat="44.085625" lon="7.7787583"><ele>1321.0</ele><time>2026-05-03T09:41:35.946Z</time></trkpt><trkpt lat="44.0855345" lon="7.7787992"><ele>1319.75</ele><time>2026-05-03T09:41:36.949Z</time></trkpt><trkpt lat="44.0854076" lon="7.7788521"><ele>1318.5</ele><time>2026-05-03T09:41:37.96Z</time></trkpt><trkpt lat="44.0852962" lon="7.7789437"><ele>1317.25</ele><time>2026-05-03T09:41:38.94Z</time></trkpt><trkpt lat="44.0852358" lon="7.7790602"><ele>1316.0</ele><time>2026-05-03T09:41:39.944Z</time></trkpt><trkpt lat="44.0852241" lon="7.7791807"><ele>1319.0</ele><time>2026-05-03T09:41:40.947Z</time></trkpt><trkpt lat="44.0852696" lon="7.7793563"><ele>1322.0</ele><time>2026-05-03T09:41:41.952Z</time></trkpt><trkpt lat="44.0853228" lon="7.7794942"><ele>1325.0</ele><time>2026-05-03T09:41:42.951Z</time></trkpt><trkpt lat="44.0854019" lon="7.7796272"><ele>1328.0</ele><time>2026-05-03T09:41:43.945Z</time></trkpt><trkpt lat="44.085479" lon="7.779759"><ele>1328.0</ele><time>2026-05-03T09:41:44.951Z</time></trkpt><trkpt lat="44.0855601" lon="7.7798984"><ele>1328.0</ele><time>2026-05-03T09:41:45.944Z</time></trkpt><trkpt lat="44.0856372" lon="7.7800485"><ele>1328.0</ele><time>2026-05-03T09:41:46.946Z</time></trkpt><trkpt lat="44.0857053" lon="7.7802138"><ele>1328.0</ele><time>2026-05-03T09:41:47.951Z</time></trkpt><trkpt lat="44.0857738" lon="7.7803691"><ele>1322.0</ele><time>2026-05-03T09:41:48.948Z</time></trkpt><trkpt lat="44.0858472" lon="7.7805169"><ele>1316.0</ele><time>2026-05-03T09:41:49.942Z</time></trkpt><trkpt lat="44.085913" lon="7.7806468"><ele>1310.0</ele><time>2026-05-03T09:41:50.949Z</time></trkpt><trkpt lat="44.0859635" lon="7.7807644"><ele>1304.0</ele><time>2026-05-03T09:41:51.951Z</time></trkpt><trkpt lat="44.0859815" lon="7.7808795"><ele>1298.0</ele><time>2026-05-03T09:41:52.961Z</time></trkpt><trkpt lat="44.0859596" lon="7.7810029"><ele>1295.6000000000001</ele><time>2026-05-03T09:41:53.957Z</time></trkpt><trkpt lat="44.0859145" lon="7.7811224"><ele>1293.2</ele><time>2026-05-03T09:41:54.943Z</time></trkpt><trkpt lat="44.0858437" lon="7.7812367"><ele>1290.8</ele><time>2026-05-03T09:41:55.939Z</time></trkpt><trkpt lat="44.0857673" lon="7.781351"><ele>1288.4</ele><time>2026-05-03T09:41:56.955Z</time></trkpt><trkpt lat="44.0856873" lon="7.7814662"><ele>1286.0</ele><time>2026-05-03T09:41:57.952Z</time></trkpt><trkpt lat="44.0856131" lon="7.7815841"><ele>1288.75</ele><time>2026-05-03T09:41:58.95Z</time></trkpt><trkpt lat="44.085556" lon="7.7817198"><ele>1291.5</ele><time>2026-05-03T09:41:59.96Z</time></trkpt><trkpt lat="44.0855321" lon="7.781869"><ele>1294.25</ele><time>2026-05-03T09:42:00.947Z</time></trkpt><trkpt lat="44.0855462" lon="7.7820326"><ele>1297.0</ele><time>2026-05-03T09:42:01.956Z</time></trkpt><trkpt lat="44.0855787" lon="7.7822021"><ele>1297.0</ele><time>2026-05-03T09:42:02.945Z</time></trkpt><trkpt lat="44.0856125" lon="7.7823959"><ele>1297.0</ele><time>2026-05-03T09:42:03.955Z</time></trkpt><trkpt lat="44.0856448" lon="7.7825841"><ele>1297.0</ele><time>2026-05-03T09:42:04.949Z</time></trkpt><trkpt lat="44.0856593" lon="7.7827778"><ele>1297.0</ele><time>2026-05-03T09:42:05.954Z</time></trkpt><trkpt lat="44.0856575" lon="7.7829605"><ele>1292.8</ele><time>2026-05-03T09:42:06.957Z</time></trkpt><trkpt lat="44.0856305" lon="7.7831336"><ele>1288.6</ele><time>2026-05-03T09:42:07.956Z</time></trkpt><trkpt lat="44.0855783" lon="7.7832774"><ele>1284.3999999999999</ele><time>2026-05-03T09:42:08.953Z</time></trkpt><trkpt lat="44.0855069" lon="7.7833839"><ele>1280.1999999999998</ele><time>2026-05-03T09:42:09.95Z</time></trkpt><trkpt lat="44.0854235" lon="7.7834611"><ele>1276.0</ele><time>2026-05-03T09:42:10.96Z</time></trkpt><trkpt lat="44.0853354" lon="7.7835027"><ele>1273.6</ele><time>2026-05-03T09:42:11.953Z</time></trkpt><trkpt lat="44.085248" lon="7.7835312"><ele>1271.1999999999998</ele><time>2026-05-03T09:42:12.956Z</time></trkpt><trkpt lat="44.0851732" lon="7.7835893"><ele>1268.8000000000002</ele><time>2026-05-03T09:42:13.954Z</time></trkpt><trkpt lat="44.0850948" lon="7.7836616"><ele>1266.4</ele><time>2026-05-03T09:42:14.963Z</time></trkpt><trkpt lat="44.08502" lon="7.7837441"><ele>1264.0</ele><time>2026-05-03T09:42:15.958Z</time></trkpt><trkpt lat="44.0849547" lon="7.7838366"><ele>1259.5</ele><time>2026-05-03T09:42:16.953Z</time></trkpt><trkpt lat="44.0849048" lon="7.7839223"><ele>1255.0</ele><time>2026-05-03T09:42:17.956Z</time></trkpt><trkpt lat="44.0848781" lon="7.7840135"><ele>1250.5</ele><time>2026-05-03T09:42:18.943Z</time></trkpt><trkpt lat="44.0848558" lon="7.7841483"><ele>1246.0</ele><time>2026-05-03T09:42:20.958Z</time></trkpt><trkpt lat="44.08484" lon="7.7842336"><ele>1241.5</ele><time>2026-05-03T09:42:22.956Z</time></trkpt><trkpt lat="44.084858" lon="7.7843312"><ele>1237.0</ele><time>2026-05-03T09:42:24.95Z</time></trkpt><trkpt lat="44.0849216" lon="7.784442"><ele>1240.6666666666665</ele><time>2026-05-03T09:42:26.95Z</time></trkpt><trkpt lat="44.084976" lon="7.7845001"><ele>1244.3333333333333</ele><time>2026-05-03T09:42:27.944Z</time></trkpt><trkpt lat="44.0850486" lon="7.7845627"><ele>1248.0</ele><time>2026-05-03T09:42:28.953Z</time></trkpt><trkpt lat="44.0851132" lon="7.7846311"><ele>1251.6666666666667</ele><time>2026-05-03T09:42:29.947Z</time></trkpt><trkpt lat="44.0851733" lon="7.7847036"><ele>1255.3333333333335</ele><time>2026-05-03T09:42:30.948Z</time></trkpt><trkpt lat="44.0852347" lon="7.7847786"><ele>1259.0</ele><time>2026-05-03T09:42:31.944Z</time></trkpt><trkpt lat="44.0853071" lon="7.7848549"><ele>1259.0</ele><time>2026-05-03T09:42:32.954Z</time></trkpt><trkpt lat="44.0853921" lon="7.7849262"><ele>1259.0</ele><time>2026-05-03T09:42:33.947Z</time></trkpt><trkpt lat="44.0854971" lon="7.7849834"><ele>1259.0</ele><time>2026-05-03T09:42:34.954Z</time></trkpt><trkpt lat="44.0856154" lon="7.7850415"><ele>1259.0</ele><time>2026-05-03T09:42:35.951Z</time></trkpt><trkpt lat="44.0857323" lon="7.7850913"><ele>1259.0</ele><time>2026-05-03T09:42:36.95Z</time></trkpt><trkpt lat="44.0858469" lon="7.7851393"><ele>1259.0</ele><time>2026-05-03T09:42:37.96Z</time></trkpt><trkpt lat="44.0859514" lon="7.7851786"><ele>1259.0</ele><time>2026-05-03T09:42:38.942Z</time></trkpt><trkpt lat="44.0860501" lon="7.7852006"><ele>1259.0</ele><time>2026-05-03T09:42:39.953Z</time></trkpt><trkpt lat="44.0861512" lon="7.7851973"><ele>1259.0</ele><time>2026-05-03T09:42:40.97Z</time></trkpt><trkpt lat="44.0862649" lon="7.7851812"><ele>1259.0</ele><time>2026-05-03T09:42:41.948Z</time></trkpt><trkpt lat="44.086384" lon="7.7851558"><ele>1259.0</ele><time>2026-05-03T09:42:42.963Z</time></trkpt><trkpt lat="44.0864971" lon="7.7851283"><ele>1259.0</ele><time>2026-05-03T09:42:43.962Z</time></trkpt><trkpt lat="44.0866099" lon="7.7851147"><ele>1259.0</ele><time>2026-05-03T09:42:44.951Z</time></trkpt><trkpt lat="44.0867101" lon="7.78512"><ele>1259.0</ele><time>2026-05-03T09:42:45.955Z</time></trkpt><trkpt lat="44.0867984" lon="7.7851482"><ele>1255.0</ele><time>2026-05-03T09:42:46.955Z</time></trkpt><trkpt lat="44.0868831" lon="7.7852029"><ele>1251.0</ele><time>2026-05-03T09:42:47.951Z</time></trkpt><trkpt lat="44.0869709" lon="7.7852615"><ele>1247.0</ele><time>2026-05-03T09:42:48.943Z</time></trkpt><trkpt lat="44.0870623" lon="7.7853328"><ele>1243.0</ele><time>2026-05-03T09:42:49.95Z</time></trkpt><trkpt lat="44.0871568" lon="7.7854078"><ele>1239.0</ele><time>2026-05-03T09:42:50.952Z</time></trkpt><trkpt lat="44.087257" lon="7.7854859"><ele>1239.0</ele><time>2026-05-03T09:42:51.944Z</time></trkpt><trkpt lat="44.0873649" lon="7.7855644"><ele>1239.0</ele><time>2026-05-03T09:42:52.959Z</time></trkpt><trkpt lat="44.0874746" lon="7.7856432"><ele>1239.0</ele><time>2026-05-03T09:42:53.951Z</time></trkpt><trkpt lat="44.0875872" lon="7.7857357"><ele>1239.0</ele><time>2026-05-03T09:42:54.951Z</time></trkpt><trkpt lat="44.0877057" lon="7.7858238"><ele>1235.25</ele><time>2026-05-03T09:42:55.95Z</time></trkpt><trkpt lat="44.0878167" lon="7.7859124"><ele>1231.5</ele><time>2026-05-03T09:42:56.958Z</time></trkpt><trkpt lat="44.0879196" lon="7.7860043"><ele>1227.75</ele><time>2026-05-03T09:42:57.948Z</time></trkpt><trkpt lat="44.088021" lon="7.7861098"><ele>1224.0</ele><time>2026-05-03T09:42:58.955Z</time></trkpt><trkpt lat="44.0881206" lon="7.786235"><ele>1224.0</ele><time>2026-05-03T09:42:59.945Z</time></trkpt><trkpt lat="44.0882079" lon="7.7863801"><ele>1224.0</ele><time>2026-05-03T09:43:00.952Z</time></trkpt><trkpt lat="44.0882854" lon="7.7865509"><ele>1224.0</ele><time>2026-05-03T09:43:01.947Z</time></trkpt><trkpt lat="44.0883578" lon="7.786749"><ele>1224.0</ele><time>2026-05-03T09:43:02.946Z</time></trkpt><trkpt lat="44.0884254" lon="7.786948"><ele>1229.0</ele><time>2026-05-03T09:43:03.947Z</time></trkpt><trkpt lat="44.0884946" lon="7.7871341"><ele>1234.0</ele><time>2026-05-03T09:43:04.941Z</time></trkpt><trkpt lat="44.0885672" lon="7.7873043"><ele>1239.0</ele><time>2026-05-03T09:43:05.946Z</time></trkpt><trkpt lat="44.0886453" lon="7.7874488"><ele>1244.0</ele><time>2026-05-03T09:43:06.951Z</time></trkpt><trkpt lat="44.0887416" lon="7.7875692"><ele>1244.0</ele><time>2026-05-03T09:43:07.95Z</time></trkpt><trkpt lat="44.0888505" lon="7.7876718"><ele>1244.0</ele><time>2026-05-03T09:43:08.949Z</time></trkpt><trkpt lat="44.0889717" lon="7.7877769"><ele>1244.0</ele><time>2026-05-03T09:43:09.949Z</time></trkpt><trkpt lat="44.0890942" lon="7.7878917"><ele>1244.0</ele><time>2026-05-03T09:43:10.958Z</time></trkpt><trkpt lat="44.0892052" lon="7.788011"><ele>1241.5</ele><time>2026-05-03T09:43:11.945Z</time></trkpt><trkpt lat="44.089302" lon="7.7881597"><ele>1239.0</ele><time>2026-05-03T09:43:12.957Z</time></trkpt><trkpt lat="44.089386" lon="7.7883292"><ele>1236.5</ele><time>2026-05-03T09:43:13.947Z</time></trkpt><trkpt lat="44.0894525" lon="7.7884988"><ele>1234.0</ele><time>2026-05-03T09:43:14.939Z</time></trkpt><trkpt lat="44.0894962" lon="7.7886642"><ele>1234.0</ele><time>2026-05-03T09:43:15.946Z</time></trkpt><trkpt lat="44.0895161" lon="7.788846"><ele>1234.0</ele><time>2026-05-03T09:43:16.945Z</time></trkpt><trkpt lat="44.0895195" lon="7.7890411"><ele>1234.0</ele><time>2026-05-03T09:43:17.939Z</time></trkpt><trkpt lat="44.0895277" lon="7.7892387"><ele>1234.0</ele><time>2026-05-03T09:43:18.946Z</time></trkpt><trkpt lat="44.0895334" lon="7.789449"><ele>1232.6666666666665</ele><time>2026-05-03T09:43:19.948Z</time></trkpt><trkpt lat="44.0895539" lon="7.78966"><ele>1231.3333333333333</ele><time>2026-05-03T09:43:20.949Z</time></trkpt><trkpt lat="44.0895773" lon="7.7898686"><ele>1230.0</ele><time>2026-05-03T09:43:21.943Z</time></trkpt><trkpt lat="44.0896168" lon="7.7900758"><ele>1232.0</ele><time>2026-05-03T09:43:22.955Z</time></trkpt><trkpt lat="44.0896741" lon="7.7902612"><ele>1234.0</ele><time>2026-05-03T09:43:23.95Z</time></trkpt><trkpt lat="44.0897692" lon="7.7904201"><ele>1236.0</ele><time>2026-05-03T09:43:24.955Z</time></trkpt><trkpt lat="44.0898784" lon="7.7905544"><ele>1238.0</ele><time>2026-05-03T09:43:25.944Z</time></trkpt><trkpt lat="44.0899667" lon="7.7906919"><ele>1242.75</ele><time>2026-05-03T09:43:26.96Z</time></trkpt><trkpt lat="44.0900334" lon="7.7908505"><ele>1247.5</ele><time>2026-05-03T09:43:27.944Z</time></trkpt><trkpt lat="44.0900862" lon="7.7910269"><ele>1252.25</ele><time>2026-05-03T09:43:28.95Z</time></trkpt><trkpt lat="44.0901145" lon="7.7912175"><ele>1257.0</ele><time>2026-05-03T09:43:29.941Z</time></trkpt><trkpt lat="44.0901312" lon="7.7914128"><ele>1262.0</ele><time>2026-05-03T09:43:30.942Z</time></trkpt><trkpt lat="44.0901408" lon="7.7916237"><ele>1267.0</ele><time>2026-05-03T09:43:31.965Z</time></trkpt><trkpt lat="44.0901435" lon="7.7918339"><ele>1272.0</ele><time>2026-05-03T09:43:32.946Z</time></trkpt><trkpt lat="44.0901435" lon="7.7920548"><ele>1272.25</ele><time>2026-05-03T09:43:33.949Z</time></trkpt><trkpt lat="44.0901332" lon="7.7922728"><ele>1272.5</ele><time>2026-05-03T09:43:34.942Z</time></trkpt><trkpt lat="44.0901221" lon="7.7924869"><ele>1272.75</ele><time>2026-05-03T09:43:35.944Z</time></trkpt><trkpt lat="44.0901138" lon="7.7926742"><ele>1273.0</ele><time>2026-05-03T09:43:36.947Z</time></trkpt><trkpt lat="44.0901069" lon="7.7928389"><ele>1273.0</ele><time>2026-05-03T09:43:37.958Z</time></trkpt><trkpt lat="44.0901202" lon="7.792981"><ele>1273.0</ele><time>2026-05-03T09:43:38.949Z</time></trkpt><trkpt lat="44.0901635" lon="7.7931077"><ele>1273.0</ele><time>2026-05-03T09:43:39.94Z</time></trkpt><trkpt lat="44.0902522" lon="7.7932014"><ele>1273.0</ele><time>2026-05-03T09:43:40.949Z</time></trkpt><trkpt lat="44.0903599" lon="7.7932773"><ele>1273.0</ele><time>2026-05-03T09:43:41.939Z</time></trkpt><trkpt lat="44.0904863" lon="7.793343"><ele>1273.0</ele><time>2026-05-03T09:43:42.942Z</time></trkpt><trkpt lat="44.0906148" lon="7.7934094"><ele>1273.0</ele><time>2026-05-03T09:43:43.945Z</time></trkpt><trkpt lat="44.0907368" lon="7.7935039"><ele>1273.0</ele><time>2026-05-03T09:43:44.95Z</time></trkpt><trkpt lat="44.0908545" lon="7.7936106"><ele>1273.0</ele><time>2026-05-03T09:43:45.94Z</time></trkpt><trkpt lat="44.0909653" lon="7.7937299"><ele>1278.25</ele><time>2026-05-03T09:43:46.952Z</time></trkpt><trkpt lat="44.0910839" lon="7.7938468"><ele>1283.5</ele><time>2026-05-03T09:43:47.934Z</time></trkpt><trkpt lat="44.0912" lon="7.7939661"><ele>1288.75</ele><time>2026-05-03T09:43:48.941Z</time></trkpt><trkpt lat="44.0913067" lon="7.7940718"><ele>1294.0</ele><time>2026-05-03T09:43:49.939Z</time></trkpt><trkpt lat="44.0914055" lon="7.7941485"><ele>1294.0</ele><time>2026-05-03T09:43:50.947Z</time></trkpt><trkpt lat="44.0914941" lon="7.794185"><ele>1294.0</ele><time>2026-05-03T09:43:51.936Z</time></trkpt><trkpt lat="44.091575" lon="7.7942284"><ele>1294.0</ele><time>2026-05-03T09:43:52.935Z</time></trkpt><trkpt lat="44.0916264" lon="7.7942882"><ele>1294.0</ele><time>2026-05-03T09:43:53.939Z</time></trkpt><trkpt lat="44.0915891" lon="7.7944265"><ele>1294.0</ele><time>2026-05-03T09:43:55.943Z</time></trkpt><trkpt lat="44.0914568" lon="7.7943995"><ele>1294.0</ele><time>2026-05-03T09:43:57.931Z</time></trkpt><trkpt lat="44.0913789" lon="7.7943479"><ele>1294.0</ele><time>2026-05-03T09:43:58.955Z</time></trkpt><trkpt lat="44.0912991" lon="7.7942963"><ele>1294.0</ele><time>2026-05-03T09:43:59.936Z</time></trkpt><trkpt lat="44.0912116" lon="7.7942385"><ele>1294.0</ele><time>2026-05-03T09:44:00.933Z</time></trkpt><trkpt lat="44.0911148" lon="7.7941925"><ele>1294.0</ele><time>2026-05-03T09:44:01.939Z</time></trkpt><trkpt lat="44.0910222" lon="7.7941527"><ele>1294.0</ele><time>2026-05-03T09:44:02.936Z</time></trkpt><trkpt lat="44.0909332" lon="7.7941061"><ele>1294.0</ele><time>2026-05-03T09:44:03.936Z</time></trkpt><trkpt lat="44.0908359" lon="7.7940604"><ele>1294.0</ele><time>2026-05-03T09:44:04.938Z</time></trkpt><trkpt lat="44.0907432" lon="7.7940468"><ele>1294.0</ele><time>2026-05-03T09:44:05.932Z</time></trkpt><trkpt lat="44.0906644" lon="7.7940725"><ele>1294.0</ele><time>2026-05-03T09:44:06.956Z</time></trkpt><trkpt lat="44.0906205" lon="7.7941391"><ele>1294.0</ele><time>2026-05-03T09:44:07.947Z</time></trkpt><trkpt lat="44.0906129" lon="7.7942561"><ele>1296.25</ele><time>2026-05-03T09:44:08.962Z</time></trkpt><trkpt lat="44.0906279" lon="7.7943916"><ele>1298.5</ele><time>2026-05-03T09:44:09.941Z</time></trkpt><trkpt lat="44.090658" lon="7.7945413"><ele>1300.75</ele><time>2026-05-03T09:44:10.948Z</time></trkpt><trkpt lat="44.0907244" lon="7.7946886"><ele>1303.0</ele><time>2026-05-03T09:44:11.947Z</time></trkpt><trkpt lat="44.090794" lon="7.7948453"><ele>1303.0</ele><time>2026-05-03T09:44:12.943Z</time></trkpt><trkpt lat="44.0908607" lon="7.7950293"><ele>1303.0</ele><time>2026-05-03T09:44:13.944Z</time></trkpt><trkpt lat="44.0909117" lon="7.7952304"><ele>1303.0</ele><time>2026-05-03T09:44:14.939Z</time></trkpt><trkpt lat="44.0909541" lon="7.7954351"><ele>1299.75</ele><time>2026-05-03T09:44:15.945Z</time></trkpt><trkpt lat="44.0910052" lon="7.7956294"><ele>1296.5</ele><time>2026-05-03T09:44:16.945Z</time></trkpt><trkpt lat="44.0910625" lon="7.7958057"><ele>1293.25</ele><time>2026-05-03T09:44:17.944Z</time></trkpt><trkpt lat="44.091124" lon="7.7959454"><ele>1290.0</ele><time>2026-05-03T09:44:18.939Z</time></trkpt><trkpt lat="44.0911976" lon="7.7960523"><ele>1286.2</ele><time>2026-05-03T09:44:19.949Z</time></trkpt><trkpt lat="44.0912986" lon="7.7961039"><ele>1282.4</ele><time>2026-05-03T09:44:20.952Z</time></trkpt><trkpt lat="44.0914017" lon="7.796161"><ele>1278.6</ele><time>2026-05-03T09:44:21.951Z</time></trkpt><trkpt lat="44.0914916" lon="7.79624"><ele>1274.8</ele><time>2026-05-03T09:44:22.945Z</time></trkpt><trkpt lat="44.0915536" lon="7.7963581"><ele>1271.0</ele><time>2026-05-03T09:44:23.948Z</time></trkpt><trkpt lat="44.091584" lon="7.7964956"><ele>1279.25</ele><time>2026-05-03T09:44:24.945Z</time></trkpt><trkpt lat="44.0916295" lon="7.7966358"><ele>1287.5</ele><time>2026-05-03T09:44:25.951Z</time></trkpt><trkpt lat="44.0917011" lon="7.796781"><ele>1295.75</ele><time>2026-05-03T09:44:26.939Z</time></trkpt><trkpt lat="44.091804" lon="7.7969145"><ele>1304.0</ele><time>2026-05-03T09:44:27.939Z</time></trkpt><trkpt lat="44.0919106" lon="7.7970369"><ele>1304.0</ele><time>2026-05-03T09:44:28.939Z</time></trkpt><trkpt lat="44.0919848" lon="7.7971781"><ele>1304.0</ele><time>2026-05-03T09:44:29.933Z</time></trkpt><trkpt lat="44.092024" lon="7.7973168"><ele>1304.0</ele><time>2026-05-03T09:44:30.945Z</time></trkpt><trkpt lat="44.0920333" lon="7.7974644"><ele>1304.0</ele><time>2026-05-03T09:44:31.95Z</time></trkpt><trkpt lat="44.0920194" lon="7.7976202"><ele>1306.25</ele><time>2026-05-03T09:44:32.939Z</time></trkpt><trkpt lat="44.0919761" lon="7.7977807"><ele>1308.5</ele><time>2026-05-03T09:44:33.945Z</time></trkpt><trkpt lat="44.0919185" lon="7.7979488"><ele>1310.75</ele><time>2026-05-03T09:44:34.936Z</time></trkpt><trkpt lat="44.0918475" lon="7.798109"><ele>1313.0</ele><time>2026-05-03T09:44:35.932Z</time></trkpt><trkpt lat="44.091786" lon="7.7982617"><ele>1313.0</ele><time>2026-05-03T09:44:36.94Z</time></trkpt><trkpt lat="44.0917539" lon="7.7984063"><ele>1313.0</ele><time>2026-05-03T09:44:37.95Z</time></trkpt><trkpt lat="44.0917654" lon="7.7985172"><ele>1313.0</ele><time>2026-05-03T09:44:38.949Z</time></trkpt><trkpt lat="44.0918158" lon="7.7985908"><ele>1313.0</ele><time>2026-05-03T09:44:39.943Z</time></trkpt><trkpt lat="44.0919093" lon="7.798661"><ele>1313.0</ele><time>2026-05-03T09:44:40.959Z</time></trkpt><trkpt lat="44.0920362" lon="7.7987302"><ele>1314.25</ele><time>2026-05-03T09:44:41.951Z</time></trkpt><trkpt lat="44.0921669" lon="7.798816"><ele>1315.5</ele><time>2026-05-03T09:44:42.957Z</time></trkpt><trkpt lat="44.0922721" lon="7.7989188"><ele>1316.75</ele><time>2026-05-03T09:44:43.951Z</time></trkpt><trkpt lat="44.0923621" lon="7.7990334"><ele>1318.0</ele><time>2026-05-03T09:44:44.945Z</time></trkpt><trkpt lat="44.0924551" lon="7.7990766"><ele>1318.0</ele><time>2026-05-03T09:44:45.947Z</time></trkpt><trkpt lat="44.0925612" lon="7.7990712"><ele>1318.0</ele><time>2026-05-03T09:44:46.944Z</time></trkpt><trkpt lat="44.0926927" lon="7.7990487"><ele>1318.0</ele><time>2026-05-03T09:44:47.936Z</time></trkpt><trkpt lat="44.0928315" lon="7.7990349"><ele>1318.0</ele><time>2026-05-03T09:44:48.941Z</time></trkpt><trkpt lat="44.0929559" lon="7.7990549"><ele>1318.0</ele><time>2026-05-03T09:44:49.938Z</time></trkpt><trkpt lat="44.0930581" lon="7.7990942"><ele>1318.0</ele><time>2026-05-03T09:44:50.95Z</time></trkpt><trkpt lat="44.0931415" lon="7.79919"><ele>1318.0</ele><time>2026-05-03T09:44:51.941Z</time></trkpt><trkpt lat="44.0931854" lon="7.7993385"><ele>1318.0</ele><time>2026-05-03T09:44:52.951Z</time></trkpt><trkpt lat="44.0932155" lon="7.7995012"><ele>1318.25</ele><time>2026-05-03T09:44:53.949Z</time></trkpt><trkpt lat="44.0932628" lon="7.7996738"><ele>1318.5</ele><time>2026-05-03T09:44:54.941Z</time></trkpt><trkpt lat="44.0933409" lon="7.7998289"><ele>1318.75</ele><time>2026-05-03T09:44:55.951Z</time></trkpt><trkpt lat="44.093424" lon="7.7999615"><ele>1319.0</ele><time>2026-05-03T09:44:56.936Z</time></trkpt><trkpt lat="44.0935336" lon="7.8000527"><ele>1319.0</ele><time>2026-05-03T09:44:57.945Z</time></trkpt><trkpt lat="44.0936522" lon="7.8000836"><ele>1319.0</ele><time>2026-05-03T09:44:58.944Z</time></trkpt><trkpt lat="44.0937942" lon="7.8000765"><ele>1319.0</ele><time>2026-05-03T09:44:59.943Z</time></trkpt><trkpt lat="44.0939409" lon="7.8000678"><ele>1319.0</ele><time>2026-05-03T09:45:00.94Z</time></trkpt><trkpt lat="44.0940949" lon="7.800095"><ele>1316.75</ele><time>2026-05-03T09:45:01.946Z</time></trkpt><trkpt lat="44.0942321" lon="7.8001661"><ele>1314.5</ele><time>2026-05-03T09:45:02.947Z</time></trkpt><trkpt lat="44.0943595" lon="7.800219"><ele>1312.25</ele><time>2026-05-03T09:45:03.943Z</time></trkpt><trkpt lat="44.094479" lon="7.8002754"><ele>1310.0</ele><time>2026-05-03T09:45:04.949Z</time></trkpt><trkpt lat="44.0945824" lon="7.8003553"><ele>1310.0</ele><time>2026-05-03T09:45:05.943Z</time></trkpt><trkpt lat="44.0946512" lon="7.8004686"><ele>1310.0</ele><time>2026-05-03T09:45:06.953Z</time></trkpt><trkpt lat="44.0947161" lon="7.8005997"><ele>1310.0</ele><time>2026-05-03T09:45:07.943Z</time></trkpt><trkpt lat="44.0947719" lon="7.8007672"><ele>1310.0</ele><time>2026-05-03T09:45:08.955Z</time></trkpt><trkpt lat="44.0948569" lon="7.800931"><ele>1311.0</ele><time>2026-05-03T09:45:09.947Z</time></trkpt><trkpt lat="44.0949578" lon="7.8011056"><ele>1312.0</ele><time>2026-05-03T09:45:10.961Z</time></trkpt><trkpt lat="44.095048" lon="7.8012832"><ele>1313.0</ele><time>2026-05-03T09:45:11.949Z</time></trkpt><trkpt lat="44.0951178" lon="7.8014827"><ele>1313.0</ele><time>2026-05-03T09:45:12.945Z</time></trkpt><trkpt lat="44.0951851" lon="7.8016855"><ele>1313.0</ele><time>2026-05-03T09:45:13.961Z</time></trkpt><trkpt lat="44.09526" lon="7.8018712"><ele>1313.0</ele><time>2026-05-03T09:45:14.945Z</time></trkpt><trkpt lat="44.0953338" lon="7.8020421"><ele>1310.0</ele><time>2026-05-03T09:45:15.945Z</time></trkpt><trkpt lat="44.0953982" lon="7.8021961"><ele>1307.0</ele><time>2026-05-03T09:45:16.948Z</time></trkpt><trkpt lat="44.0954467" lon="7.8023519"><ele>1304.0</ele><time>2026-05-03T09:45:17.952Z</time></trkpt><trkpt lat="44.0954384" lon="7.8025219"><ele>1301.0</ele><time>2026-05-03T09:45:18.941Z</time></trkpt><trkpt lat="44.0953995" lon="7.8027229"><ele>1300.75</ele><time>2026-05-03T09:45:19.953Z</time></trkpt><trkpt lat="44.095353" lon="7.8029235"><ele>1300.5</ele><time>2026-05-03T09:45:20.939Z</time></trkpt><trkpt lat="44.0953191" lon="7.8031241"><ele>1300.25</ele><time>2026-05-03T09:45:21.945Z</time></trkpt><trkpt lat="44.0952721" lon="7.8033163"><ele>1300.0</ele><time>2026-05-03T09:45:22.941Z</time></trkpt><trkpt lat="44.0952205" lon="7.803478"><ele>1303.25</ele><time>2026-05-03T09:45:23.951Z</time></trkpt><trkpt lat="44.0951758" lon="7.8036296"><ele>1306.5</ele><time>2026-05-03T09:45:24.945Z</time></trkpt><trkpt lat="44.095171" lon="7.8037917"><ele>1309.75</ele><time>2026-05-03T09:45:25.945Z</time></trkpt><trkpt lat="44.0951702" lon="7.8039623"><ele>1313.0</ele><time>2026-05-03T09:45:26.946Z</time></trkpt><trkpt lat="44.0951618" lon="7.8041504"><ele>1313.0</ele><time>2026-05-03T09:45:27.937Z</time></trkpt><trkpt lat="44.0951288" lon="7.8043162"><ele>1313.0</ele><time>2026-05-03T09:45:28.943Z</time></trkpt><trkpt lat="44.095071" lon="7.804454"><ele>1313.0</ele><time>2026-05-03T09:45:29.937Z</time></trkpt><trkpt lat="44.0949829" lon="7.8045739"><ele>1313.0</ele><time>2026-05-03T09:45:30.939Z</time></trkpt><trkpt lat="44.0948628" lon="7.8046412"><ele>1308.2</ele><time>2026-05-03T09:45:31.947Z</time></trkpt><trkpt lat="44.0947569" lon="7.8046918"><ele>1303.4</ele><time>2026-05-03T09:45:32.937Z</time></trkpt><trkpt lat="44.0946584" lon="7.8047414"><ele>1298.6000000000001</ele><time>2026-05-03T09:45:33.948Z</time></trkpt><trkpt lat="44.0946194" lon="7.8048487"><ele>1293.8000000000002</ele><time>2026-05-03T09:45:34.946Z</time></trkpt><trkpt lat="44.0946102" lon="7.8050063"><ele>1289.0</ele><time>2026-05-03T09:45:35.945Z</time></trkpt><trkpt lat="44.0946512" lon="7.8052049"><ele>1286.0</ele><time>2026-05-03T09:45:36.947Z</time></trkpt><trkpt lat="44.0947187" lon="7.8054045"><ele>1283.0</ele><time>2026-05-03T09:45:37.955Z</time></trkpt><trkpt lat="44.0947796" lon="7.8055907"><ele>1280.0</ele><time>2026-05-03T09:45:38.944Z</time></trkpt><trkpt lat="44.0948083" lon="7.8057732"><ele>1277.0</ele><time>2026-05-03T09:45:39.949Z</time></trkpt><trkpt lat="44.0948431" lon="7.8059389"><ele>1275.5</ele><time>2026-05-03T09:45:40.945Z</time></trkpt><trkpt lat="44.0948974" lon="7.8060796"><ele>1274.0</ele><time>2026-05-03T09:45:41.944Z</time></trkpt><trkpt lat="44.0949868" lon="7.8062033"><ele>1272.5</ele><time>2026-05-03T09:45:42.946Z</time></trkpt><trkpt lat="44.095092" lon="7.8063384"><ele>1271.0</ele><time>2026-05-03T09:45:43.953Z</time></trkpt><trkpt lat="44.0951953" lon="7.8064931"><ele>1275.25</ele><time>2026-05-03T09:45:44.947Z</time></trkpt><trkpt lat="44.0953041" lon="7.8066406"><ele>1279.5</ele><time>2026-05-03T09:45:45.938Z</time></trkpt><trkpt lat="44.0954087" lon="7.8067733"><ele>1283.75</ele><time>2026-05-03T09:45:46.938Z</time></trkpt><trkpt lat="44.0955036" lon="7.8069046"><ele>1288.0</ele><time>2026-05-03T09:45:47.947Z</time></trkpt><trkpt lat="44.0955846" lon="7.8070519"><ele>1288.0</ele><time>2026-05-03T09:45:48.938Z</time></trkpt><trkpt lat="44.0956374" lon="7.8072259"><ele>1288.0</ele><time>2026-05-03T09:45:49.946Z</time></trkpt><trkpt lat="44.0956722" lon="7.8074152"><ele>1288.0</ele><time>2026-05-03T09:45:50.939Z</time></trkpt><trkpt lat="44.0956881" lon="7.8076218"><ele>1288.0</ele><time>2026-05-03T09:45:51.946Z</time></trkpt><trkpt lat="44.0956952" lon="7.8078182"><ele>1288.6000000000001</ele><time>2026-05-03T09:45:52.941Z</time></trkpt><trkpt lat="44.0957097" lon="7.8079815"><ele>1289.2</ele><time>2026-05-03T09:45:53.942Z</time></trkpt><trkpt lat="44.0957515" lon="7.8081231"><ele>1289.8</ele><time>2026-05-03T09:45:54.94Z</time></trkpt><trkpt lat="44.095766" lon="7.8082613"><ele>1290.4</ele><time>2026-05-03T09:45:55.936Z</time></trkpt><trkpt lat="44.095748" lon="7.8083921"><ele>1291.0</ele><time>2026-05-03T09:45:56.933Z</time></trkpt><trkpt lat="44.0956912" lon="7.8084745"><ele>1291.0</ele><time>2026-05-03T09:45:57.956Z</time></trkpt><trkpt lat="44.0955882" lon="7.8084792"><ele>1291.0</ele><time>2026-05-03T09:45:58.946Z</time></trkpt><trkpt lat="44.0954877" lon="7.8084916"><ele>1291.0</ele><time>2026-05-03T09:45:59.945Z</time></trkpt><trkpt lat="44.095389" lon="7.808518"><ele>1291.0</ele><time>2026-05-03T09:46:00.934Z</time></trkpt><trkpt lat="44.0953284" lon="7.8086069"><ele>1291.0</ele><time>2026-05-03T09:46:01.941Z</time></trkpt><trkpt lat="44.0953124" lon="7.8087224"><ele>1291.75</ele><time>2026-05-03T09:46:02.949Z</time></trkpt><trkpt lat="44.0953095" lon="7.8088687"><ele>1292.5</ele><time>2026-05-03T09:46:03.942Z</time></trkpt><trkpt lat="44.0953114" lon="7.8090607"><ele>1293.25</ele><time>2026-05-03T09:46:04.944Z</time></trkpt><trkpt lat="44.0952816" lon="7.8092369"><ele>1294.0</ele><time>2026-05-03T09:46:05.95Z</time></trkpt><trkpt lat="44.0952529" lon="7.809407"><ele>1294.75</ele><time>2026-05-03T09:46:06.95Z</time></trkpt><trkpt lat="44.0952096" lon="7.8095551"><ele>1295.5</ele><time>2026-05-03T09:46:07.946Z</time></trkpt><trkpt lat="44.0951479" lon="7.8096768"><ele>1296.25</ele><time>2026-05-03T09:46:08.944Z</time></trkpt><trkpt lat="44.095068" lon="7.8097965"><ele>1297.0</ele><time>2026-05-03T09:46:09.943Z</time></trkpt><trkpt lat="44.0950036" lon="7.8099348"><ele>1297.0</ele><time>2026-05-03T09:46:10.946Z</time></trkpt><trkpt lat="44.0949545" lon="7.810118"><ele>1297.0</ele><time>2026-05-03T09:46:11.935Z</time></trkpt><trkpt lat="44.0949184" lon="7.8103112"><ele>1297.0</ele><time>2026-05-03T09:46:12.944Z</time></trkpt><trkpt lat="44.0948742" lon="7.8105174"><ele>1297.0</ele><time>2026-05-03T09:46:13.937Z</time></trkpt><trkpt lat="44.0948235" lon="7.8107295"><ele>1288.0</ele><time>2026-05-03T09:46:14.933Z</time></trkpt><trkpt lat="44.0947718" lon="7.810949"><ele>1279.0</ele><time>2026-05-03T09:46:15.934Z</time></trkpt><trkpt lat="44.0947186" lon="7.811171"><ele>1270.0</ele><time>2026-05-03T09:46:16.942Z</time></trkpt><trkpt lat="44.0946584" lon="7.8113887"><ele>1270.0</ele><time>2026-05-03T09:46:17.936Z</time></trkpt><trkpt lat="44.0945939" lon="7.8115983"><ele>1270.0</ele><time>2026-05-03T09:46:18.932Z</time></trkpt><trkpt lat="44.0945262" lon="7.8118084"><ele>1270.0</ele><time>2026-05-03T09:46:19.943Z</time></trkpt><trkpt lat="44.0944515" lon="7.8120244"><ele>1272.6666666666665</ele><time>2026-05-03T09:46:20.933Z</time></trkpt><trkpt lat="44.0943857" lon="7.8122518"><ele>1275.3333333333333</ele><time>2026-05-03T09:46:21.943Z</time></trkpt><trkpt lat="44.094318" lon="7.8124937"><ele>1278.0</ele><time>2026-05-03T09:46:22.937Z</time></trkpt><trkpt lat="44.0942628" lon="7.8127377"><ele>1278.0</ele><time>2026-05-03T09:46:23.945Z</time></trkpt><trkpt lat="44.0942093" lon="7.812976"><ele>1278.0</ele><time>2026-05-03T09:46:24.94Z</time></trkpt><trkpt lat="44.0941531" lon="7.8132089"><ele>1278.0</ele><time>2026-05-03T09:46:25.937Z</time></trkpt><trkpt lat="44.0941" lon="7.8134309"><ele>1277.0</ele><time>2026-05-03T09:46:26.941Z</time></trkpt><trkpt lat="44.0940514" lon="7.8136532"><ele>1276.0</ele><time>2026-05-03T09:46:27.947Z</time></trkpt><trkpt lat="44.0940141" lon="7.813869"><ele>1275.0</ele><time>2026-05-03T09:46:28.94Z</time></trkpt><trkpt lat="44.0939689" lon="7.8140654"><ele>1275.0</ele><time>2026-05-03T09:46:29.955Z</time></trkpt><trkpt lat="44.0939262" lon="7.8142508"><ele>1275.0</ele><time>2026-05-03T09:46:30.948Z</time></trkpt><trkpt lat="44.0938581" lon="7.8143992"><ele>1275.0</ele><time>2026-05-03T09:46:31.96Z</time></trkpt><trkpt lat="44.0937864" lon="7.8145426"><ele>1275.0</ele><time>2026-05-03T09:46:32.95Z</time></trkpt><trkpt lat="44.0937204" lon="7.8146839"><ele>1277.25</ele><time>2026-05-03T09:46:33.947Z</time></trkpt><trkpt lat="44.0936746" lon="7.8148271"><ele>1279.5</ele><time>2026-05-03T09:46:34.949Z</time></trkpt><trkpt lat="44.0936537" lon="7.814981"><ele>1281.75</ele><time>2026-05-03T09:46:35.952Z</time></trkpt><trkpt lat="44.0936464" lon="7.815168"><ele>1284.0</ele><time>2026-05-03T09:46:36.951Z</time></trkpt><trkpt lat="44.0936528" lon="7.8153683"><ele>1283.5</ele><time>2026-05-03T09:46:37.946Z</time></trkpt><trkpt lat="44.0936646" lon="7.8155804"><ele>1283.0</ele><time>2026-05-03T09:46:38.946Z</time></trkpt><trkpt lat="44.0936988" lon="7.815786"><ele>1282.5</ele><time>2026-05-03T09:46:39.97Z</time></trkpt><trkpt lat="44.0937482" lon="7.815944"><ele>1282.0</ele><time>2026-05-03T09:46:40.944Z</time></trkpt><trkpt lat="44.0938008" lon="7.8160953"><ele>1282.0</ele><time>2026-05-03T09:46:41.944Z</time></trkpt><trkpt lat="44.0938239" lon="7.8162351"><ele>1282.0</ele><time>2026-05-03T09:46:42.96Z</time></trkpt><trkpt lat="44.0937879" lon="7.8163386"><ele>1282.0</ele><time>2026-05-03T09:46:43.95Z</time></trkpt><trkpt lat="44.0937068" lon="7.8163915"><ele>1282.0</ele><time>2026-05-03T09:46:44.943Z</time></trkpt><trkpt lat="44.0935876" lon="7.8164529"><ele>1282.0</ele><time>2026-05-03T09:46:45.947Z</time></trkpt><trkpt lat="44.0934635" lon="7.8165423"><ele>1282.0</ele><time>2026-05-03T09:46:46.942Z</time></trkpt><trkpt lat="44.0933568" lon="7.816643"><ele>1282.0</ele><time>2026-05-03T09:46:47.947Z</time></trkpt><trkpt lat="44.0932706" lon="7.816759"><ele>1282.0</ele><time>2026-05-03T09:46:48.94Z</time></trkpt><trkpt lat="44.0931857" lon="7.8169207"><ele>1282.0</ele><time>2026-05-03T09:46:49.938Z</time></trkpt><trkpt lat="44.0930965" lon="7.8171085"><ele>1284.3333333333333</ele><time>2026-05-03T09:46:50.944Z</time></trkpt><trkpt lat="44.0930207" lon="7.8173014"><ele>1286.6666666666667</ele><time>2026-05-03T09:46:51.941Z</time></trkpt><trkpt lat="44.0929435" lon="7.817496"><ele>1289.0</ele><time>2026-05-03T09:46:52.952Z</time></trkpt><trkpt lat="44.0928489" lon="7.8176904"><ele>1285.3333333333335</ele><time>2026-05-03T09:46:53.945Z</time></trkpt><trkpt lat="44.0927387" lon="7.8178583"><ele>1281.6666666666667</ele><time>2026-05-03T09:46:54.937Z</time></trkpt><trkpt lat="44.0926237" lon="7.8180124"><ele>1278.0</ele><time>2026-05-03T09:46:55.945Z</time></trkpt><trkpt lat="44.0941531" lon="7.8132089"><ele>1278.0</ele><time>2026-05-03T09:46:25.937Z</time></trkpt><trkpt lat="44.0941" lon="7.8134309"><ele>1278.0</ele><time>2026-05-03T09:46:26.941Z</time></trkpt><trkpt lat="44.0940514" lon="7.8136532"><ele>1278.0</ele><time>2026-05-03T09:46:27.947Z</time></trkpt><trkpt lat="44.0940141" lon="7.813869"><ele>1277.25</ele><time>2026-05-03T09:46:28.94Z</time></trkpt><trkpt lat="44.0939689" lon="7.8140654"><ele>1276.5</ele><time>2026-05-03T09:46:29.955Z</time></trkpt><trkpt lat="44.0939262" lon="7.8142508"><ele>1275.75</ele><time>2026-05-03T09:46:30.948Z</time></trkpt><trkpt lat="44.0938581" lon="7.8143992"><ele>1275.0</ele><time>2026-05-03T09:46:31.96Z</time></trkpt><trkpt lat="44.0937864" lon="7.8145426"><ele>1277.25</ele><time>2026-05-03T09:46:32.95Z</time></trkpt><trkpt lat="44.0937204" lon="7.8146839"><ele>1279.5</ele><time>2026-05-03T09:46:33.947Z</time></trkpt><trkpt lat="44.0936746" lon="7.8148271"><ele>1281.75</ele><time>2026-05-03T09:46:34.949Z</time></trkpt><trkpt lat="44.0936537" lon="7.814981"><ele>1284.0</ele><time>2026-05-03T09:46:35.952Z</time></trkpt><trkpt lat="44.0936464" lon="7.815168"><ele>1286.0</ele><time>2026-05-03T09:46:36.951Z</time></trkpt><trkpt lat="44.0936528" lon="7.8153683"><ele>1288.0</ele><time>2026-05-03T09:46:37.946Z</time></trkpt><trkpt lat="44.0936646" lon="7.8155804"><ele>1290.0</ele><time>2026-05-03T09:46:38.946Z</time></trkpt><trkpt lat="44.0936988" lon="7.815786"><ele>1292.0</ele><time>2026-05-03T09:46:39.97Z</time></trkpt><trkpt lat="44.0937482" lon="7.815944"><ele>1290.0</ele><time>2026-05-03T09:46:40.944Z</time></trkpt><trkpt lat="44.0938008" lon="7.8160953"><ele>1288.0</ele><time>2026-05-03T09:46:41.944Z</time></trkpt><trkpt lat="44.0938239" lon="7.8162351"><ele>1286.0</ele><time>2026-05-03T09:46:42.96Z</time></trkpt><trkpt lat="44.0937879" lon="7.8163386"><ele>1284.0</ele><time>2026-05-03T09:46:43.95Z</time></trkpt><trkpt lat="44.0937068" lon="7.8163915"><ele>1282.0</ele><time>2026-05-03T09:46:44.943Z</time></trkpt><trkpt lat="44.0935876" lon="7.8164529"><ele>1282.0</ele><time>2026-05-03T09:46:45.947Z</time></trkpt><trkpt lat="44.0934635" lon="7.8165423"><ele>1282.0</ele><time>2026-05-03T09:46:46.942Z</time></trkpt><trkpt lat="44.0933568" lon="7.816643"><ele>1282.0</ele><time>2026-05-03T09:46:47.947Z</time></trkpt><trkpt lat="44.0932706" lon="7.816759"><ele>1282.0</ele><time>2026-05-03T09:46:48.94Z</time></trkpt><trkpt lat="44.0931857" lon="7.8169207"><ele>1284.3333333333333</ele><time>2026-05-03T09:46:49.938Z</time></trkpt><trkpt lat="44.0930965" lon="7.8171085"><ele>1286.6666666666667</ele><time>2026-05-03T09:46:50.944Z</time></trkpt><trkpt lat="44.0930207" lon="7.8173014"><ele>1289.0</ele><time>2026-05-03T09:46:51.941Z</time></trkpt><trkpt lat="44.0929435" lon="7.817496"><ele>1281.6666666666667</ele><time>2026-05-03T09:46:52.952Z</time></trkpt><trkpt lat="44.0928489" lon="7.8176904"><ele>1274.3333333333333</ele><time>2026-05-03T09:46:53.945Z</time></trkpt><trkpt lat="44.0927387" lon="7.8178583"><ele>1267.0</ele><time>2026-05-03T09:46:54.937Z</time></trkpt><trkpt lat="44.0926237" lon="7.8180124"><ele>1267.0</ele><time>2026-05-03T09:46:55.945Z</time></trkpt><trkpt lat="44.0925221" lon="7.8181436"><ele>1267.0</ele><time>2026-05-03T09:46:56.945Z</time></trkpt><trkpt lat="44.0924357" lon="7.8182602"><ele>1267.0</ele><time>2026-05-03T09:46:57.943Z</time></trkpt><trkpt lat="44.0923728" lon="7.8183716"><ele>1267.0</ele><time>2026-05-03T09:46:58.946Z</time></trkpt><trkpt lat="44.0923485" lon="7.8185108"><ele>1263.25</ele><time>2026-05-03T09:46:59.938Z</time></trkpt><trkpt lat="44.0923725" lon="7.8186606"><ele>1259.5</ele><time>2026-05-03T09:47:00.935Z</time></trkpt><trkpt lat="44.0924522" lon="7.8187997"><ele>1255.75</ele><time>2026-05-03T09:47:01.941Z</time></trkpt><trkpt lat="44.0925483" lon="7.8189665"><ele>1252.0</ele><time>2026-05-03T09:47:02.943Z</time></trkpt><trkpt lat="44.09265" lon="7.8191217"><ele>1252.0</ele><time>2026-05-03T09:47:03.953Z</time></trkpt><trkpt lat="44.0927473" lon="7.819276"><ele>1252.0</ele><time>2026-05-03T09:47:04.938Z</time></trkpt><trkpt lat="44.0928122" lon="7.8194075"><ele>1252.0</ele><time>2026-05-03T09:47:05.951Z</time></trkpt><trkpt lat="44.0928412" lon="7.8195338"><ele>1252.0</ele><time>2026-05-03T09:47:06.946Z</time></trkpt><trkpt lat="44.0928347" lon="7.8196741"><ele>1248.25</ele><time>2026-05-03T09:47:07.959Z</time></trkpt><trkpt lat="44.0928011" lon="7.8198505"><ele>1244.5</ele><time>2026-05-03T09:47:08.948Z</time></trkpt><trkpt lat="44.0927641" lon="7.8200234"><ele>1240.75</ele><time>2026-05-03T09:47:09.954Z</time></trkpt><trkpt lat="44.092739" lon="7.8202351"><ele>1237.0</ele><time>2026-05-03T09:47:10.951Z</time></trkpt><trkpt lat="44.0927197" lon="7.8204525"><ele>1234.0</ele><time>2026-05-03T09:47:11.944Z</time></trkpt><trkpt lat="44.0927146" lon="7.8206602"><ele>1231.0</ele><time>2026-05-03T09:47:12.965Z</time></trkpt><trkpt lat="44.0927309" lon="7.8208593"><ele>1228.0</ele><time>2026-05-03T09:47:13.949Z</time></trkpt><trkpt lat="44.0927741" lon="7.8210435"><ele>1225.0</ele><time>2026-05-03T09:47:14.95Z</time></trkpt><trkpt lat="44.0928334" lon="7.8212384"><ele>1225.6666666666665</ele><time>2026-05-03T09:47:15.945Z</time></trkpt><trkpt lat="44.092895" lon="7.8214467"><ele>1226.3333333333333</ele><time>2026-05-03T09:47:16.948Z</time></trkpt><trkpt lat="44.0929408" lon="7.8216583"><ele>1227.0</ele><time>2026-05-03T09:47:17.953Z</time></trkpt><trkpt lat="44.0929653" lon="7.8218652"><ele>1227.0</ele><time>2026-05-03T09:47:18.946Z</time></trkpt><trkpt lat="44.0929579" lon="7.8220685"><ele>1227.0</ele><time>2026-05-03T09:47:19.943Z</time></trkpt><trkpt lat="44.0929308" lon="7.8222779"><ele>1227.0</ele><time>2026-05-03T09:47:20.953Z</time></trkpt><trkpt lat="44.0928771" lon="7.8224762"><ele>1228.0</ele><time>2026-05-03T09:47:21.941Z</time></trkpt><trkpt lat="44.0928035" lon="7.8226724"><ele>1229.0</ele><time>2026-05-03T09:47:22.945Z</time></trkpt><trkpt lat="44.09274" lon="7.8228736"><ele>1230.0</ele><time>2026-05-03T09:47:23.95Z</time></trkpt><trkpt lat="44.0926903" lon="7.8230966"><ele>1230.0</ele><time>2026-05-03T09:47:24.95Z</time></trkpt><trkpt lat="44.092677" lon="7.8233171"><ele>1230.0</ele><time>2026-05-03T09:47:25.941Z</time></trkpt><trkpt lat="44.0926487" lon="7.8235396"><ele>1230.0</ele><time>2026-05-03T09:47:26.944Z</time></trkpt><trkpt lat="44.0926037" lon="7.8237641"><ele>1230.6666666666667</ele><time>2026-05-03T09:47:27.954Z</time></trkpt><trkpt lat="44.092554" lon="7.8239878"><ele>1231.3333333333335</ele><time>2026-05-03T09:47:28.938Z</time></trkpt><trkpt lat="44.0925102" lon="7.824209"><ele>1232.0</ele><time>2026-05-03T09:47:29.939Z</time></trkpt><trkpt lat="44.0924954" lon="7.8244301"><ele>1232.0</ele><time>2026-05-03T09:47:30.945Z</time></trkpt><trkpt lat="44.0924984" lon="7.8246343"><ele>1232.0</ele><time>2026-05-03T09:47:31.938Z</time></trkpt><trkpt lat="44.0925281" lon="7.8248333"><ele>1232.0</ele><time>2026-05-03T09:47:32.942Z</time></trkpt><trkpt lat="44.0925877" lon="7.8250154"><ele>1232.0</ele><time>2026-05-03T09:47:33.942Z</time></trkpt><trkpt lat="44.0926849" lon="7.8251875"><ele>1226.0</ele><time>2026-05-03T09:47:34.943Z</time></trkpt><trkpt lat="44.0927934" lon="7.8253666"><ele>1220.0</ele><time>2026-05-03T09:47:35.939Z</time></trkpt><trkpt lat="44.0928892" lon="7.8255497"><ele>1214.0</ele><time>2026-05-03T09:47:36.944Z</time></trkpt><trkpt lat="44.0929847" lon="7.8257506"><ele>1214.0</ele><time>2026-05-03T09:47:37.943Z</time></trkpt><trkpt lat="44.0930716" lon="7.8259506"><ele>1214.0</ele><time>2026-05-03T09:47:38.942Z</time></trkpt><trkpt lat="44.0931516" lon="7.8261514"><ele>1214.0</ele><time>2026-05-03T09:47:39.942Z</time></trkpt><trkpt lat="44.0932312" lon="7.8263496"><ele>1217.6666666666667</ele><time>2026-05-03T09:47:40.939Z</time></trkpt><trkpt lat="44.0933121" lon="7.8265541"><ele>1221.3333333333333</ele><time>2026-05-03T09:47:41.941Z</time></trkpt><trkpt lat="44.0933969" lon="7.8267349"><ele>1225.0</ele><time>2026-05-03T09:47:42.949Z</time></trkpt><trkpt lat="44.0934795" lon="7.8269151"><ele>1225.0</ele><time>2026-05-03T09:47:43.934Z</time></trkpt><trkpt lat="44.0935623" lon="7.8270918"><ele>1225.0</ele><time>2026-05-03T09:47:44.952Z</time></trkpt><trkpt lat="44.093628" lon="7.8272749"><ele>1225.0</ele><time>2026-05-03T09:47:45.944Z</time></trkpt><trkpt lat="44.0936641" lon="7.8274765"><ele>1225.0</ele><time>2026-05-03T09:47:46.946Z</time></trkpt><trkpt lat="44.0936768" lon="7.8276749"><ele>1226.0</ele><time>2026-05-03T09:47:47.943Z</time></trkpt><trkpt lat="44.0936891" lon="7.8278645"><ele>1227.0</ele><time>2026-05-03T09:47:48.946Z</time></trkpt><trkpt lat="44.093711" lon="7.8280434"><ele>1228.0</ele><time>2026-05-03T09:47:49.949Z</time></trkpt><trkpt lat="44.0937433" lon="7.8282029"><ele>1229.0</ele><time>2026-05-03T09:47:50.938Z</time></trkpt><trkpt lat="44.0937464" lon="7.8283443"><ele>1229.0</ele><time>2026-05-03T09:47:51.956Z</time></trkpt><trkpt lat="44.0936929" lon="7.8284667"><ele>1229.0</ele><time>2026-05-03T09:47:52.949Z</time></trkpt><trkpt lat="44.0936216" lon="7.8285821"><ele>1229.0</ele><time>2026-05-03T09:47:53.938Z</time></trkpt><trkpt lat="44.0935515" lon="7.8286972"><ele>1229.0</ele><time>2026-05-03T09:47:54.936Z</time></trkpt><trkpt lat="44.0935151" lon="7.8288535"><ele>1229.0</ele><time>2026-05-03T09:47:55.943Z</time></trkpt><trkpt lat="44.0935085" lon="7.8290425"><ele>1233.0</ele><time>2026-05-03T09:47:56.94Z</time></trkpt><trkpt lat="44.0934923" lon="7.8292506"><ele>1237.0</ele><time>2026-05-03T09:47:57.941Z</time></trkpt><trkpt lat="44.0934582" lon="7.8294405"><ele>1241.0</ele><time>2026-05-03T09:47:58.943Z</time></trkpt><trkpt lat="44.0933943" lon="7.8296147"><ele>1245.0</ele><time>2026-05-03T09:47:59.944Z</time></trkpt><trkpt lat="44.0933408" lon="7.8297912"><ele>1249.25</ele><time>2026-05-03T09:48:00.944Z</time></trkpt><trkpt lat="44.0933168" lon="7.8299794"><ele>1253.5</ele><time>2026-05-03T09:48:01.947Z</time></trkpt><trkpt lat="44.0932999" lon="7.8301697"><ele>1257.75</ele><time>2026-05-03T09:48:02.94Z</time></trkpt><trkpt lat="44.093302" lon="7.8303576"><ele>1262.0</ele><time>2026-05-03T09:48:03.942Z</time></trkpt><trkpt lat="44.0933139" lon="7.8305081"><ele>1264.5</ele><time>2026-05-03T09:48:04.942Z</time></trkpt><trkpt lat="44.0933031" lon="7.8306674"><ele>1267.0</ele><time>2026-05-03T09:48:05.95Z</time></trkpt><trkpt lat="44.0932661" lon="7.8308211"><ele>1269.5</ele><time>2026-05-03T09:48:06.936Z</time></trkpt><trkpt lat="44.0931981" lon="7.8309589"><ele>1272.0</ele><time>2026-05-03T09:48:07.926Z</time></trkpt><trkpt lat="44.0931331" lon="7.831097"><ele>1264.0</ele><time>2026-05-03T09:48:08.954Z</time></trkpt><trkpt lat="44.093083" lon="7.8312416"><ele>1256.0</ele><time>2026-05-03T09:48:09.942Z</time></trkpt><trkpt lat="44.0930712" lon="7.8314148"><ele>1248.0</ele><time>2026-05-03T09:48:10.943Z</time></trkpt><trkpt lat="44.0930868" lon="7.8315995"><ele>1240.0</ele><time>2026-05-03T09:48:11.943Z</time></trkpt><trkpt lat="44.093102" lon="7.8317767"><ele>1244.25</ele><time>2026-05-03T09:48:12.947Z</time></trkpt><trkpt lat="44.0931014" lon="7.8319515"><ele>1248.5</ele><time>2026-05-03T09:48:13.943Z</time></trkpt><trkpt lat="44.0930699" lon="7.8321133"><ele>1252.75</ele><time>2026-05-03T09:48:14.941Z</time></trkpt><trkpt lat="44.0930305" lon="7.832278"><ele>1257.0</ele><time>2026-05-03T09:48:15.935Z</time></trkpt><trkpt lat="44.0929896" lon="7.8324351"><ele>1257.0</ele><time>2026-05-03T09:48:16.929Z</time></trkpt><trkpt lat="44.092957" lon="7.8325827"><ele>1257.0</ele><time>2026-05-03T09:48:17.936Z</time></trkpt><trkpt lat="44.0929527" lon="7.8327239"><ele>1257.0</ele><time>2026-05-03T09:48:18.945Z</time></trkpt><trkpt lat="44.0929649" lon="7.8328583"><ele>1257.0</ele><time>2026-05-03T09:48:19.943Z</time></trkpt><trkpt lat="44.0930021" lon="7.8329924"><ele>1257.0</ele><time>2026-05-03T09:48:20.941Z</time></trkpt><trkpt lat="44.0930337" lon="7.8331209"><ele>1266.6666666666667</ele><time>2026-05-03T09:48:21.937Z</time></trkpt><trkpt lat="44.0930598" lon="7.8332535"><ele>1276.3333333333335</ele><time>2026-05-03T09:48:22.928Z</time></trkpt><trkpt lat="44.0930903" lon="7.8333977"><ele>1286.0</ele><time>2026-05-03T09:48:23.93Z</time></trkpt><trkpt lat="44.0932393" lon="7.8343331"><ele>1283.75</ele><time>2026-05-03T09:48:29.951Z</time></trkpt><trkpt lat="44.0932912" lon="7.8344772"><ele>1281.5</ele><time>2026-05-03T09:48:30.94Z</time></trkpt><trkpt lat="44.0933375" lon="7.8346474"><ele>1279.25</ele><time>2026-05-03T09:48:31.93Z</time></trkpt><trkpt lat="44.0934129" lon="7.834816"><ele>1277.0</ele><time>2026-05-03T09:48:32.939Z</time></trkpt><trkpt lat="44.0934954" lon="7.8349935"><ele>1271.0</ele><time>2026-05-03T09:48:33.941Z</time></trkpt><trkpt lat="44.0935775" lon="7.8351728"><ele>1265.0</ele><time>2026-05-03T09:48:34.947Z</time></trkpt><trkpt lat="44.093672" lon="7.8353608"><ele>1259.0</ele><time>2026-05-03T09:48:35.951Z</time></trkpt><trkpt lat="44.0937636" lon="7.8355494"><ele>1259.0</ele><time>2026-05-03T09:48:36.945Z</time></trkpt><trkpt lat="44.0938488" lon="7.8357318"><ele>1259.0</ele><time>2026-05-03T09:48:37.936Z</time></trkpt><trkpt lat="44.0939272" lon="7.8359008"><ele>1259.0</ele><time>2026-05-03T09:48:38.956Z</time></trkpt><trkpt lat="44.0939877" lon="7.8360487"><ele>1259.0</ele><time>2026-05-03T09:48:39.938Z</time></trkpt><trkpt lat="44.0940239" lon="7.8361923"><ele>1257.0</ele><time>2026-05-03T09:48:40.942Z</time></trkpt><trkpt lat="44.0940223" lon="7.8363357"><ele>1255.0</ele><time>2026-05-03T09:48:41.936Z</time></trkpt><trkpt lat="44.093978" lon="7.8364569"><ele>1253.0</ele><time>2026-05-03T09:48:42.942Z</time></trkpt><trkpt lat="44.0939189" lon="7.8365712"><ele>1251.0</ele><time>2026-05-03T09:48:43.939Z</time></trkpt><trkpt lat="44.0938693" lon="7.836724"><ele>1249.0</ele><time>2026-05-03T09:48:44.943Z</time></trkpt><trkpt lat="44.0938565" lon="7.836886"><ele>1249.0</ele><time>2026-05-03T09:48:45.936Z</time></trkpt><trkpt lat="44.0938459" lon="7.837033"><ele>1249.0</ele><time>2026-05-03T09:48:46.944Z</time></trkpt><trkpt lat="44.093875" lon="7.8371733"><ele>1249.0</ele><time>2026-05-03T09:48:47.952Z</time></trkpt><trkpt lat="44.0939537" lon="7.8372625"><ele>1249.0</ele><time>2026-05-03T09:48:48.939Z</time></trkpt><trkpt lat="44.0940325" lon="7.8373307"><ele>1249.0</ele><time>2026-05-03T09:48:49.939Z</time></trkpt><trkpt lat="44.0941147" lon="7.8373975"><ele>1252.8</ele><time>2026-05-03T09:48:50.953Z</time></trkpt><trkpt lat="44.0942146" lon="7.8374625"><ele>1256.6000000000001</ele><time>2026-05-03T09:48:51.935Z</time></trkpt><trkpt lat="44.0943143" lon="7.8375383"><ele>1260.4</ele><time>2026-05-03T09:48:52.949Z</time></trkpt><trkpt lat="44.0944099" lon="7.8376055"><ele>1264.2</ele><time>2026-05-03T09:48:53.941Z</time></trkpt><trkpt lat="44.0944923" lon="7.8376797"><ele>1268.0</ele><time>2026-05-03T09:48:54.943Z</time></trkpt><trkpt lat="44.094544" lon="7.8377851"><ele>1268.0</ele><time>2026-05-03T09:48:55.934Z</time></trkpt><trkpt lat="44.0945511" lon="7.8379261"><ele>1268.0</ele><time>2026-05-03T09:48:56.934Z</time></trkpt><trkpt lat="44.0945183" lon="7.8380586"><ele>1268.0</ele><time>2026-05-03T09:48:57.935Z</time></trkpt><trkpt lat="44.0944791" lon="7.8381815"><ele>1268.0</ele><time>2026-05-03T09:48:58.941Z</time></trkpt><trkpt lat="44.0944471" lon="7.8383049"><ele>1268.0</ele><time>2026-05-03T09:48:59.938Z</time></trkpt><trkpt lat="44.0944046" lon="7.8384193"><ele>1269.4</ele><time>2026-05-03T09:49:00.938Z</time></trkpt><trkpt lat="44.0943468" lon="7.8385156"><ele>1270.8</ele><time>2026-05-03T09:49:01.933Z</time></trkpt><trkpt lat="44.0942524" lon="7.8385766"><ele>1272.2</ele><time>2026-05-03T09:49:02.935Z</time></trkpt><trkpt lat="44.0941411" lon="7.8386232"><ele>1273.6</ele><time>2026-05-03T09:49:03.941Z</time></trkpt><trkpt lat="44.0940349" lon="7.8386875"><ele>1275.0</ele><time>2026-05-03T09:49:04.935Z</time></trkpt><trkpt lat="44.0939238" lon="7.8387716"><ele>1267.0</ele><time>2026-05-03T09:49:05.943Z</time></trkpt><trkpt lat="44.0938457" lon="7.8389082"><ele>1259.0</ele><time>2026-05-03T09:49:06.939Z</time></trkpt><trkpt lat="44.0937653" lon="7.8390735"><ele>1251.0</ele><time>2026-05-03T09:49:07.943Z</time></trkpt><trkpt lat="44.093708" lon="7.8392434"><ele>1243.0</ele><time>2026-05-03T09:49:08.942Z</time></trkpt><trkpt lat="44.0936614" lon="7.8394203"><ele>1242.75</ele><time>2026-05-03T09:49:09.938Z</time></trkpt><trkpt lat="44.0936329" lon="7.8395976"><ele>1242.5</ele><time>2026-05-03T09:49:10.954Z</time></trkpt><trkpt lat="44.0936356" lon="7.8397713"><ele>1242.25</ele><time>2026-05-03T09:49:11.941Z</time></trkpt><trkpt lat="44.0936712" lon="7.8399457"><ele>1242.0</ele><time>2026-05-03T09:49:12.938Z</time></trkpt><trkpt lat="44.0937267" lon="7.8401017"><ele>1239.75</ele><time>2026-05-03T09:49:13.947Z</time></trkpt><trkpt lat="44.0937733" lon="7.8402675"><ele>1237.5</ele><time>2026-05-03T09:49:14.941Z</time></trkpt><trkpt lat="44.0938194" lon="7.8404412"><ele>1235.25</ele><time>2026-05-03T09:49:15.946Z</time></trkpt><trkpt lat="44.0938655" lon="7.8405957"><ele>1233.0</ele><time>2026-05-03T09:49:16.947Z</time></trkpt><trkpt lat="44.093908" lon="7.8407283"><ele>1233.0</ele><time>2026-05-03T09:49:17.94Z</time></trkpt><trkpt lat="44.093937" lon="7.8408452"><ele>1233.0</ele><time>2026-05-03T09:49:18.936Z</time></trkpt><trkpt lat="44.0939388" lon="7.8409565"><ele>1233.0</ele><time>2026-05-03T09:49:19.951Z</time></trkpt><trkpt lat="44.0938892" lon="7.8410691"><ele>1233.0</ele><time>2026-05-03T09:49:20.941Z</time></trkpt><trkpt lat="44.0938204" lon="7.8411798"><ele>1233.0</ele><time>2026-05-03T09:49:21.953Z</time></trkpt><trkpt lat="44.0937281" lon="7.8412874"><ele>1234.0</ele><time>2026-05-03T09:49:22.938Z</time></trkpt><trkpt lat="44.0936142" lon="7.8413782"><ele>1235.0</ele><time>2026-05-03T09:49:23.948Z</time></trkpt><trkpt lat="44.0934949" lon="7.8414529"><ele>1236.0</ele><time>2026-05-03T09:49:24.939Z</time></trkpt><trkpt lat="44.0933984" lon="7.8415493"><ele>1237.0</ele><time>2026-05-03T09:49:25.94Z</time></trkpt><trkpt lat="44.0933195" lon="7.8416751"><ele>1231.0</ele><time>2026-05-03T09:49:26.941Z</time></trkpt><trkpt lat="44.09324" lon="7.8418142"><ele>1225.0</ele><time>2026-05-03T09:49:27.952Z</time></trkpt><trkpt lat="44.0931855" lon="7.8419686"><ele>1219.0</ele><time>2026-05-03T09:49:28.961Z</time></trkpt><trkpt lat="44.0931502" lon="7.8421214"><ele>1213.0</ele><time>2026-05-03T09:49:29.957Z</time></trkpt><trkpt lat="44.0931637" lon="7.8422694"><ele>1213.0</ele><time>2026-05-03T09:49:30.953Z</time></trkpt><trkpt lat="44.0932088" lon="7.8424319"><ele>1213.0</ele><time>2026-05-03T09:49:31.941Z</time></trkpt><trkpt lat="44.0932321" lon="7.8425973"><ele>1213.0</ele><time>2026-05-03T09:49:32.951Z</time></trkpt><trkpt lat="44.0932075" lon="7.8427717"><ele>1213.0</ele><time>2026-05-03T09:49:33.944Z</time></trkpt><trkpt lat="44.0931461" lon="7.8429252"><ele>1213.0</ele><time>2026-05-03T09:49:34.948Z</time></trkpt><trkpt lat="44.0930626" lon="7.8430565"><ele>1213.0</ele><time>2026-05-03T09:49:35.945Z</time></trkpt><trkpt lat="44.092971" lon="7.8431916"><ele>1213.0</ele><time>2026-05-03T09:49:36.942Z</time></trkpt><trkpt lat="44.0928683" lon="7.8433277"><ele>1213.0</ele><time>2026-05-03T09:49:37.943Z</time></trkpt><trkpt lat="44.0927612" lon="7.8434641"><ele>1213.0</ele><time>2026-05-03T09:49:38.949Z</time></trkpt><trkpt lat="44.0926532" lon="7.8436085"><ele>1213.0</ele><time>2026-05-03T09:49:39.941Z</time></trkpt><trkpt lat="44.0925505" lon="7.8437655"><ele>1213.0</ele><time>2026-05-03T09:49:40.94Z</time></trkpt><trkpt lat="44.0924498" lon="7.8439316"><ele>1212.0</ele><time>2026-05-03T09:49:41.951Z</time></trkpt><trkpt lat="44.0923515" lon="7.8440979"><ele>1211.0</ele><time>2026-05-03T09:49:42.944Z</time></trkpt><trkpt lat="44.0922556" lon="7.8442613"><ele>1210.0</ele><time>2026-05-03T09:49:43.951Z</time></trkpt><trkpt lat="44.0921619" lon="7.8444298"><ele>1210.0</ele><time>2026-05-03T09:49:44.944Z</time></trkpt><trkpt lat="44.0920608" lon="7.8446077"><ele>1210.0</ele><time>2026-05-03T09:49:45.941Z</time></trkpt><trkpt lat="44.0919882" lon="7.8448068"><ele>1210.0</ele><time>2026-05-03T09:49:46.949Z</time></trkpt><trkpt lat="44.0919601" lon="7.845007"><ele>1206.75</ele><time>2026-05-03T09:49:47.938Z</time></trkpt><trkpt lat="44.0919208" lon="7.8451962"><ele>1203.5</ele><time>2026-05-03T09:49:48.941Z</time></trkpt><trkpt lat="44.0918681" lon="7.8453737"><ele>1200.25</ele><time>2026-05-03T09:49:49.948Z</time></trkpt><trkpt lat="44.0917794" lon="7.8455329"><ele>1197.0</ele><time>2026-05-03T09:49:50.952Z</time></trkpt><trkpt lat="44.0916733" lon="7.8456624"><ele>1197.75</ele><time>2026-05-03T09:49:51.946Z</time></trkpt><trkpt lat="44.0915692" lon="7.8457898"><ele>1198.5</ele><time>2026-05-03T09:49:52.941Z</time></trkpt><trkpt lat="44.0914833" lon="7.8459381"><ele>1199.25</ele><time>2026-05-03T09:49:53.946Z</time></trkpt><trkpt lat="44.0914138" lon="7.8461104"><ele>1200.0</ele><time>2026-05-03T09:49:54.943Z</time></trkpt><trkpt lat="44.0913641" lon="7.8462953"><ele>1200.25</ele><time>2026-05-03T09:49:55.948Z</time></trkpt><trkpt lat="44.0913092" lon="7.8464713"><ele>1200.5</ele><time>2026-05-03T09:49:56.942Z</time></trkpt><trkpt lat="44.0912328" lon="7.8466392"><ele>1200.75</ele><time>2026-05-03T09:49:57.944Z</time></trkpt><trkpt lat="44.0911365" lon="7.8467858"><ele>1201.0</ele><time>2026-05-03T09:49:58.949Z</time></trkpt><trkpt lat="44.0910493" lon="7.846928"><ele>1195.75</ele><time>2026-05-03T09:49:59.943Z</time></trkpt><trkpt lat="44.0909735" lon="7.8471026"><ele>1190.5</ele><time>2026-05-03T09:50:00.944Z</time></trkpt><trkpt lat="44.0909329" lon="7.8472729"><ele>1185.25</ele><time>2026-05-03T09:50:01.953Z</time></trkpt><trkpt lat="44.090908" lon="7.847434"><ele>1180.0</ele><time>2026-05-03T09:50:02.951Z</time></trkpt><trkpt lat="44.0908787" lon="7.847573"><ele>1180.2</ele><time>2026-05-03T09:50:03.942Z</time></trkpt><trkpt lat="44.0908168" lon="7.847668"><ele>1180.4</ele><time>2026-05-03T09:50:04.942Z</time></trkpt><trkpt lat="44.0907387" lon="7.8477407"><ele>1180.6</ele><time>2026-05-03T09:50:05.944Z</time></trkpt><trkpt lat="44.0906434" lon="7.847776"><ele>1180.8</ele><time>2026-05-03T09:50:06.943Z</time></trkpt><trkpt lat="44.0905369" lon="7.8477977"><ele>1181.0</ele><time>2026-05-03T09:50:07.954Z</time></trkpt><trkpt lat="44.0904337" lon="7.8478277"><ele>1181.0</ele><time>2026-05-03T09:50:08.952Z</time></trkpt><trkpt lat="44.0903313" lon="7.8478914"><ele>1181.0</ele><time>2026-05-03T09:50:09.941Z</time></trkpt><trkpt lat="44.0902171" lon="7.8480003"><ele>1181.0</ele><time>2026-05-03T09:50:10.936Z</time></trkpt><trkpt lat="44.0901029" lon="7.8481219"><ele>1181.0</ele><time>2026-05-03T09:50:11.945Z</time></trkpt><trkpt lat="44.0900027" lon="7.8482587"><ele>1183.25</ele><time>2026-05-03T09:50:12.945Z</time></trkpt><trkpt lat="44.0899139" lon="7.8484039"><ele>1185.5</ele><time>2026-05-03T09:50:13.941Z</time></trkpt><trkpt lat="44.0898425" lon="7.8485693"><ele>1187.75</ele><time>2026-05-03T09:50:14.943Z</time></trkpt><trkpt lat="44.0897744" lon="7.8487487"><ele>1190.0</ele><time>2026-05-03T09:50:15.948Z</time></trkpt><trkpt lat="44.0897142" lon="7.8489187"><ele>1190.75</ele><time>2026-05-03T09:50:16.936Z</time></trkpt><trkpt lat="44.0896584" lon="7.8490729"><ele>1191.5</ele><time>2026-05-03T09:50:17.949Z</time></trkpt><trkpt lat="44.0896122" lon="7.849213"><ele>1192.25</ele><time>2026-05-03T09:50:18.949Z</time></trkpt><trkpt lat="44.0896019" lon="7.8493636"><ele>1193.0</ele><time>2026-05-03T09:50:19.948Z</time></trkpt><trkpt lat="44.0896391" lon="7.8495323"><ele>1189.5</ele><time>2026-05-03T09:50:20.934Z</time></trkpt><trkpt lat="44.0896731" lon="7.8497071"><ele>1186.0</ele><time>2026-05-03T09:50:21.951Z</time></trkpt><trkpt lat="44.089678" lon="7.8498726"><ele>1182.5</ele><time>2026-05-03T09:50:22.945Z</time></trkpt><trkpt lat="44.0896524" lon="7.8500397"><ele>1179.0</ele><time>2026-05-03T09:50:23.945Z</time></trkpt><trkpt lat="44.0896265" lon="7.850201"><ele>1174.6000000000001</ele><time>2026-05-03T09:50:24.948Z</time></trkpt><trkpt lat="44.089585" lon="7.8503635"><ele>1170.2</ele><time>2026-05-03T09:50:25.945Z</time></trkpt><trkpt lat="44.0895344" lon="7.8505039"><ele>1165.8000000000002</ele><time>2026-05-03T09:50:26.938Z</time></trkpt><trkpt lat="44.0894791" lon="7.8506245"><ele>1161.4</ele><time>2026-05-03T09:50:27.94Z</time></trkpt><trkpt lat="44.0894701" lon="7.8507461"><ele>1157.0</ele><time>2026-05-03T09:50:28.943Z</time></trkpt><trkpt lat="44.0894878" lon="7.850855"><ele>1152.5</ele><time>2026-05-03T09:50:29.948Z</time></trkpt><trkpt lat="44.0895338" lon="7.8509667"><ele>1148.0</ele><time>2026-05-03T09:50:30.953Z</time></trkpt><trkpt lat="44.0896041" lon="7.8510719"><ele>1143.5</ele><time>2026-05-03T09:50:31.945Z</time></trkpt><trkpt lat="44.0897019" lon="7.8511904"><ele>1139.0</ele><time>2026-05-03T09:50:32.954Z</time></trkpt><trkpt lat="44.0898095" lon="7.8513202"><ele>1139.25</ele><time>2026-05-03T09:50:33.939Z</time></trkpt><trkpt lat="44.0899309" lon="7.8514533"><ele>1139.5</ele><time>2026-05-03T09:50:34.947Z</time></trkpt><trkpt lat="44.0900308" lon="7.8515667"><ele>1139.75</ele><time>2026-05-03T09:50:35.946Z</time></trkpt><trkpt lat="44.0901128" lon="7.8516716"><ele>1140.0</ele><time>2026-05-03T09:50:36.943Z</time></trkpt><trkpt lat="44.0901391" lon="7.8517762"><ele>1139.2</ele><time>2026-05-03T09:50:37.946Z</time></trkpt><trkpt lat="44.090058" lon="7.851916"><ele>1138.4</ele><time>2026-05-03T09:50:39.943Z</time></trkpt><trkpt lat="44.0899807" lon="7.8519725"><ele>1137.6</ele><time>2026-05-03T09:50:40.945Z</time></trkpt><trkpt lat="44.0898928" lon="7.8520399"><ele>1136.8</ele><time>2026-05-03T09:50:41.948Z</time></trkpt><trkpt lat="44.0898072" lon="7.8521204"><ele>1136.0</ele><time>2026-05-03T09:50:42.948Z</time></trkpt><trkpt lat="44.0897218" lon="7.8522187"><ele>1136.0</ele><time>2026-05-03T09:50:43.956Z</time></trkpt><trkpt lat="44.0896521" lon="7.8523589"><ele>1136.0</ele><time>2026-05-03T09:50:44.955Z</time></trkpt><trkpt lat="44.0896037" lon="7.8525311"><ele>1136.0</ele><time>2026-05-03T09:50:45.957Z</time></trkpt><trkpt lat="44.089607" lon="7.8527031"><ele>1136.0</ele><time>2026-05-03T09:50:46.942Z</time></trkpt><trkpt lat="44.0896356" lon="7.8528787"><ele>1136.0</ele><time>2026-05-03T09:50:47.942Z</time></trkpt><trkpt lat="44.0896729" lon="7.8530567"><ele>1136.0</ele><time>2026-05-03T09:50:48.945Z</time></trkpt><trkpt lat="44.0897184" lon="7.8532529"><ele>1136.0</ele><time>2026-05-03T09:50:49.943Z</time></trkpt><trkpt lat="44.089765" lon="7.8534295"><ele>1136.0</ele><time>2026-05-03T09:50:50.954Z</time></trkpt><trkpt lat="44.0898086" lon="7.8535944"><ele>1134.25</ele><time>2026-05-03T09:50:51.949Z</time></trkpt><trkpt lat="44.0898246" lon="7.8537459"><ele>1132.5</ele><time>2026-05-03T09:50:52.944Z</time></trkpt><trkpt lat="44.0897872" lon="7.8539123"><ele>1130.75</ele><time>2026-05-03T09:50:53.936Z</time></trkpt><trkpt lat="44.0897289" lon="7.8540678"><ele>1129.0</ele><time>2026-05-03T09:50:54.949Z</time></trkpt><trkpt lat="44.0896751" lon="7.8542091"><ele>1127.6000000000001</ele><time>2026-05-03T09:50:55.947Z</time></trkpt><trkpt lat="44.0896326" lon="7.8543598"><ele>1126.2</ele><time>2026-05-03T09:50:56.937Z</time></trkpt><trkpt lat="44.0896064" lon="7.8545026"><ele>1124.8000000000002</ele><time>2026-05-03T09:50:57.945Z</time></trkpt><trkpt lat="44.0896081" lon="7.8546295"><ele>1123.4</ele><time>2026-05-03T09:50:58.948Z</time></trkpt><trkpt lat="44.0896513" lon="7.8547504"><ele>1122.0</ele><time>2026-05-03T09:50:59.944Z</time></trkpt><trkpt lat="44.089719" lon="7.8548715"><ele>1122.0</ele><time>2026-05-03T09:51:00.941Z</time></trkpt><trkpt lat="44.0898197" lon="7.8549915"><ele>1122.0</ele><time>2026-05-03T09:51:01.938Z</time></trkpt><trkpt lat="44.0899292" lon="7.855097"><ele>1122.0</ele><time>2026-05-03T09:51:02.942Z</time></trkpt><trkpt lat="44.0900501" lon="7.8551927"><ele>1122.0</ele><time>2026-05-03T09:51:03.941Z</time></trkpt><trkpt lat="44.0901771" lon="7.855274"><ele>1122.0</ele><time>2026-05-03T09:51:04.943Z</time></trkpt><trkpt lat="44.0902899" lon="7.855352"><ele>1122.0</ele><time>2026-05-03T09:51:05.949Z</time></trkpt><trkpt lat="44.090389" lon="7.855414"><ele>1122.0</ele><time>2026-05-03T09:51:06.944Z</time></trkpt><trkpt lat="44.0904666" lon="7.8554838"><ele>1122.0</ele><time>2026-05-03T09:51:07.953Z</time></trkpt><trkpt lat="44.0905034" lon="7.8555726"><ele>1122.0</ele><time>2026-05-03T09:51:08.946Z</time></trkpt><trkpt lat="44.0904731" lon="7.8557124"><ele>1122.0</ele><time>2026-05-03T09:51:09.949Z</time></trkpt><trkpt lat="44.0904118" lon="7.8558507"><ele>1122.0</ele><time>2026-05-03T09:51:10.947Z</time></trkpt><trkpt lat="44.0903563" lon="7.856007"><ele>1122.0</ele><time>2026-05-03T09:51:11.94Z</time></trkpt><trkpt lat="44.090299" lon="7.856173"><ele>1122.0</ele><time>2026-05-03T09:51:12.944Z</time></trkpt><trkpt lat="44.0902434" lon="7.8563418"><ele>1120.0</ele><time>2026-05-03T09:51:13.957Z</time></trkpt><trkpt lat="44.0902097" lon="7.8565176"><ele>1118.0</ele><time>2026-05-03T09:51:14.954Z</time></trkpt><trkpt lat="44.0902042" lon="7.8566852"><ele>1116.0</ele><time>2026-05-03T09:51:15.951Z</time></trkpt><trkpt lat="44.0902455" lon="7.856839"><ele>1114.0</ele><time>2026-05-03T09:51:16.938Z</time></trkpt><trkpt lat="44.0903109" lon="7.856967"><ele>1113.4</ele><time>2026-05-03T09:51:17.944Z</time></trkpt><trkpt lat="44.0904001" lon="7.8570813"><ele>1112.8000000000002</ele><time>2026-05-03T09:51:18.951Z</time></trkpt><trkpt lat="44.0904842" lon="7.8571857"><ele>1112.1999999999998</ele><time>2026-05-03T09:51:19.936Z</time></trkpt><trkpt lat="44.0905333" lon="7.8572856"><ele>1111.6</ele><time>2026-05-03T09:51:20.941Z</time></trkpt><trkpt lat="44.0905441" lon="7.8574121"><ele>1111.0</ele><time>2026-05-03T09:51:21.948Z</time></trkpt><trkpt lat="44.0905168" lon="7.8575412"><ele>1109.75</ele><time>2026-05-03T09:51:22.951Z</time></trkpt><trkpt lat="44.090475" lon="7.8576693"><ele>1108.5</ele><time>2026-05-03T09:51:23.941Z</time></trkpt><trkpt lat="44.0904349" lon="7.8578102"><ele>1107.25</ele><time>2026-05-03T09:51:24.934Z</time></trkpt><trkpt lat="44.0903736" lon="7.8579581"><ele>1106.0</ele><time>2026-05-03T09:51:25.94Z</time></trkpt><trkpt lat="44.0903199" lon="7.8581081"><ele>1106.0</ele><time>2026-05-03T09:51:26.942Z</time></trkpt><trkpt lat="44.0902708" lon="7.8582599"><ele>1106.0</ele><time>2026-05-03T09:51:27.942Z</time></trkpt><trkpt lat="44.0902281" lon="7.8584017"><ele>1106.0</ele><time>2026-05-03T09:51:28.949Z</time></trkpt><trkpt lat="44.0901922" lon="7.8585244"><ele>1106.0</ele><time>2026-05-03T09:51:29.943Z</time></trkpt><trkpt lat="44.0901979" lon="7.8586414"><ele>1106.0</ele><time>2026-05-03T09:51:30.937Z</time></trkpt><trkpt lat="44.0902566" lon="7.8587245"><ele>1107.25</ele><time>2026-05-03T09:51:31.929Z</time></trkpt><trkpt lat="44.0903544" lon="7.8587734"><ele>1108.5</ele><time>2026-05-03T09:51:32.933Z</time></trkpt><trkpt lat="44.0904608" lon="7.8588434"><ele>1109.75</ele><time>2026-05-03T09:51:33.93Z</time></trkpt><trkpt lat="44.0905637" lon="7.8589117"><ele>1111.0</ele><time>2026-05-03T09:51:34.926Z</time></trkpt><trkpt lat="44.0906508" lon="7.8590185"><ele>1111.0</ele><time>2026-05-03T09:51:35.939Z</time></trkpt><trkpt lat="44.090746" lon="7.859112"><ele>1111.0</ele><time>2026-05-03T09:51:36.937Z</time></trkpt><trkpt lat="44.0908493" lon="7.8591573"><ele>1111.0</ele><time>2026-05-03T09:51:37.927Z</time></trkpt><trkpt lat="44.0909631" lon="7.8591584"><ele>1111.0</ele><time>2026-05-03T09:51:38.938Z</time></trkpt><trkpt lat="44.0910791" lon="7.8591686"><ele>1103.0</ele><time>2026-05-03T09:51:39.931Z</time></trkpt><trkpt lat="44.0912035" lon="7.8591847"><ele>1095.0</ele><time>2026-05-03T09:51:40.934Z</time></trkpt><trkpt lat="44.0913374" lon="7.8591801"><ele>1087.0</ele><time>2026-05-03T09:51:41.936Z</time></trkpt><trkpt lat="44.0914706" lon="7.8591637"><ele>1079.0</ele><time>2026-05-03T09:51:42.941Z</time></trkpt><trkpt lat="44.0915993" lon="7.859176"><ele>1076.6000000000001</ele><time>2026-05-03T09:51:43.942Z</time></trkpt><trkpt lat="44.0917225" lon="7.859193"><ele>1074.2</ele><time>2026-05-03T09:51:44.937Z</time></trkpt><trkpt lat="44.0918271" lon="7.8591865"><ele>1071.8000000000002</ele><time>2026-05-03T09:51:45.935Z</time></trkpt><trkpt lat="44.0919247" lon="7.8591401"><ele>1069.4</ele><time>2026-05-03T09:51:46.946Z</time></trkpt><trkpt lat="44.0920245" lon="7.8590636"><ele>1067.0</ele><time>2026-05-03T09:51:47.933Z</time></trkpt><trkpt lat="44.0921309" lon="7.8589977"><ele>1067.0</ele><time>2026-05-03T09:51:48.938Z</time></trkpt><trkpt lat="44.0922385" lon="7.8589522"><ele>1067.0</ele><time>2026-05-03T09:51:49.957Z</time></trkpt><trkpt lat="44.0923416" lon="7.858902"><ele>1067.0</ele><time>2026-05-03T09:51:50.944Z</time></trkpt><trkpt lat="44.0924409" lon="7.8589072"><ele>1067.0</ele><time>2026-05-03T09:51:51.938Z</time></trkpt><trkpt lat="44.0925323" lon="7.8589468"><ele>1067.0</ele><time>2026-05-03T09:51:52.941Z</time></trkpt><trkpt lat="44.0926024" lon="7.8590277"><ele>1066.4</ele><time>2026-05-03T09:51:53.941Z</time></trkpt><trkpt lat="44.092661" lon="7.8591271"><ele>1065.8000000000002</ele><time>2026-05-03T09:51:54.953Z</time></trkpt><trkpt lat="44.092713" lon="7.8592561"><ele>1065.2</ele><time>2026-05-03T09:51:55.939Z</time></trkpt><trkpt lat="44.0927556" lon="7.859392"><ele>1064.6000000000001</ele><time>2026-05-03T09:51:56.951Z</time></trkpt><trkpt lat="44.0927736" lon="7.8595528"><ele>1064.0</ele><time>2026-05-03T09:51:57.941Z</time></trkpt><trkpt lat="44.0928121" lon="7.8597303"><ele>1064.0</ele><time>2026-05-03T09:51:58.934Z</time></trkpt><trkpt lat="44.0928878" lon="7.8598797"><ele>1064.0</ele><time>2026-05-03T09:51:59.945Z</time></trkpt><trkpt lat="44.0929709" lon="7.8600234"><ele>1064.0</ele><time>2026-05-03T09:52:00.942Z</time></trkpt><trkpt lat="44.0930744" lon="7.8601608"><ele>1064.0</ele><time>2026-05-03T09:52:01.95Z</time></trkpt><trkpt lat="44.0931761" lon="7.8602952"><ele>1056.4</ele><time>2026-05-03T09:52:02.944Z</time></trkpt><trkpt lat="44.0932728" lon="7.8604196"><ele>1048.8000000000002</ele><time>2026-05-03T09:52:03.948Z</time></trkpt><trkpt lat="44.0933619" lon="7.8605451"><ele>1041.1999999999998</ele><time>2026-05-03T09:52:04.947Z</time></trkpt><trkpt lat="44.0934329" lon="7.8606515"><ele>1033.6</ele><time>2026-05-03T09:52:05.961Z</time></trkpt><trkpt lat="44.0934691" lon="7.8607438"><ele>1026.0</ele><time>2026-05-03T09:52:06.952Z</time></trkpt><trkpt lat="44.0934708" lon="7.8608477"><ele>1026.0</ele><time>2026-05-03T09:52:07.949Z</time></trkpt><trkpt lat="44.0934238" lon="7.8609219"><ele>1026.0</ele><time>2026-05-03T09:52:08.952Z</time></trkpt><trkpt lat="44.0933385" lon="7.8609619"><ele>1026.0</ele><time>2026-05-03T09:52:09.937Z</time></trkpt><trkpt lat="44.0932422" lon="7.8609961"><ele>1026.0</ele><time>2026-05-03T09:52:10.946Z</time></trkpt><trkpt lat="44.0931168" lon="7.8610271"><ele>1026.0</ele><time>2026-05-03T09:52:11.943Z</time></trkpt><trkpt lat="44.0929849" lon="7.8610853"><ele>1030.5</ele><time>2026-05-03T09:52:12.942Z</time></trkpt><trkpt lat="44.0928535" lon="7.861168"><ele>1035.0</ele><time>2026-05-03T09:52:13.946Z</time></trkpt><trkpt lat="44.09274" lon="7.8612668"><ele>1039.5</ele><time>2026-05-03T09:52:14.943Z</time></trkpt><trkpt lat="44.0926558" lon="7.8613551"><ele>1044.0</ele><time>2026-05-03T09:52:15.941Z</time></trkpt><trkpt lat="44.0925858" lon="7.8614501"><ele>1044.0</ele><time>2026-05-03T09:52:16.966Z</time></trkpt><trkpt lat="44.0925353" lon="7.8615384"><ele>1044.0</ele><time>2026-05-03T09:52:17.943Z</time></trkpt><trkpt lat="44.0925173" lon="7.8616288"><ele>1044.0</ele><time>2026-05-03T09:52:18.943Z</time></trkpt><trkpt lat="44.0925509" lon="7.8617096"><ele>1044.0</ele><time>2026-05-03T09:52:19.959Z</time></trkpt><trkpt lat="44.0926319" lon="7.8617892"><ele>1044.0</ele><time>2026-05-03T09:52:20.934Z</time></trkpt><trkpt lat="44.0927286" lon="7.861893"><ele>1044.0</ele><time>2026-05-03T09:52:21.944Z</time></trkpt><trkpt lat="44.0928267" lon="7.8620071"><ele>1047.25</ele><time>2026-05-03T09:52:22.939Z</time></trkpt><trkpt lat="44.0929225" lon="7.8621389"><ele>1050.5</ele><time>2026-05-03T09:52:23.936Z</time></trkpt><trkpt lat="44.09301" lon="7.8622847"><ele>1053.75</ele><time>2026-05-03T09:52:24.935Z</time></trkpt><trkpt lat="44.0931101" lon="7.8624076"><ele>1057.0</ele><time>2026-05-03T09:52:25.941Z</time></trkpt><trkpt lat="44.0932244" lon="7.862509"><ele>1050.75</ele><time>2026-05-03T09:52:26.949Z</time></trkpt><trkpt lat="44.0933424" lon="7.8625951"><ele>1044.5</ele><time>2026-05-03T09:52:27.944Z</time></trkpt><trkpt lat="44.0934759" lon="7.862679"><ele>1038.25</ele><time>2026-05-03T09:52:28.952Z</time></trkpt><trkpt lat="44.0936067" lon="7.862752"><ele>1032.0</ele><time>2026-05-03T09:52:29.943Z</time></trkpt><trkpt lat="44.0937244" lon="7.8628284"><ele>1032.0</ele><time>2026-05-03T09:52:30.94Z</time></trkpt><trkpt lat="44.0938312" lon="7.8629168"><ele>1032.0</ele><time>2026-05-03T09:52:31.951Z</time></trkpt><trkpt lat="44.0939159" lon="7.863008"><ele>1032.0</ele><time>2026-05-03T09:52:32.934Z</time></trkpt><trkpt lat="44.093968" lon="7.8631354"><ele>1032.0</ele><time>2026-05-03T09:52:33.947Z</time></trkpt><trkpt lat="44.0939978" lon="7.8632877"><ele>1026.75</ele><time>2026-05-03T09:52:34.961Z</time></trkpt><trkpt lat="44.0940211" lon="7.8634478"><ele>1021.5</ele><time>2026-05-03T09:52:35.937Z</time></trkpt><trkpt lat="44.0940476" lon="7.8636191"><ele>1016.25</ele><time>2026-05-03T09:52:36.943Z</time></trkpt><trkpt lat="44.0940867" lon="7.8637903"><ele>1011.0</ele><time>2026-05-03T09:52:37.959Z</time></trkpt><trkpt lat="44.0941354" lon="7.8639642"><ele>1007.1999999999999</ele><time>2026-05-03T09:52:38.949Z</time></trkpt><trkpt lat="44.0941795" lon="7.8641312"><ele>1003.3999999999999</ele><time>2026-05-03T09:52:39.95Z</time></trkpt><trkpt lat="44.0942014" lon="7.864283"><ele>999.6</ele><time>2026-05-03T09:52:40.945Z</time></trkpt><trkpt lat="44.0941968" lon="7.8644175"><ele>995.8</ele><time>2026-05-03T09:52:41.939Z</time></trkpt><trkpt lat="44.0941438" lon="7.8645183"><ele>992.0</ele><time>2026-05-03T09:52:42.943Z</time></trkpt><trkpt lat="44.0940802" lon="7.864573"><ele>992.0</ele><time>2026-05-03T09:52:43.949Z</time></trkpt><trkpt lat="44.0940006" lon="7.86458"><ele>992.0</ele><time>2026-05-03T09:52:44.949Z</time></trkpt><trkpt lat="44.0938894" lon="7.8645692"><ele>992.0</ele><time>2026-05-03T09:52:45.941Z</time></trkpt><trkpt lat="44.0937581" lon="7.8645626"><ele>992.0</ele><time>2026-05-03T09:52:46.943Z</time></trkpt><trkpt lat="44.0936257" lon="7.8645521"><ele>992.0</ele><time>2026-05-03T09:52:47.952Z</time></trkpt><trkpt lat="44.0934902" lon="7.8645432"><ele>992.0</ele><time>2026-05-03T09:52:48.94Z</time></trkpt><trkpt lat="44.0933814" lon="7.8645497"><ele>992.0</ele><time>2026-05-03T09:52:49.936Z</time></trkpt><trkpt lat="44.0932912" lon="7.8645782"><ele>992.0</ele><time>2026-05-03T09:52:50.943Z</time></trkpt><trkpt lat="44.0932277" lon="7.8646456"><ele>992.0</ele><time>2026-05-03T09:52:51.949Z</time></trkpt><trkpt lat="44.0932403" lon="7.8648209"><ele>992.0</ele><time>2026-05-03T09:52:53.934Z</time></trkpt><trkpt lat="44.0933064" lon="7.8649135"><ele>992.0</ele><time>2026-05-03T09:52:54.941Z</time></trkpt><trkpt lat="44.0933912" lon="7.8650091"><ele>992.0</ele><time>2026-05-03T09:52:55.947Z</time></trkpt><trkpt lat="44.093496" lon="7.8651174"><ele>992.0</ele><time>2026-05-03T09:52:56.935Z</time></trkpt><trkpt lat="44.0935833" lon="7.865223"><ele>992.0</ele><time>2026-05-03T09:52:57.941Z</time></trkpt><trkpt lat="44.0936532" lon="7.8653525"><ele>993.6</ele><time>2026-05-03T09:52:58.942Z</time></trkpt><trkpt lat="44.093698" lon="7.8654877"><ele>995.2</ele><time>2026-05-03T09:52:59.938Z</time></trkpt><trkpt lat="44.0937244" lon="7.8656297"><ele>996.8</ele><time>2026-05-03T09:53:00.938Z</time></trkpt><trkpt lat="44.0937684" lon="7.86575"><ele>998.4</ele><time>2026-05-03T09:53:01.934Z</time></trkpt><trkpt lat="44.0938429" lon="7.8658325"><ele>1000.0</ele><time>2026-05-03T09:53:02.939Z</time></trkpt><trkpt lat="44.0939376" lon="7.8659095"><ele>1003.75</ele><time>2026-05-03T09:53:03.952Z</time></trkpt><trkpt lat="44.0940342" lon="7.866017"><ele>1007.5</ele><time>2026-05-03T09:53:04.943Z</time></trkpt><trkpt lat="44.0941307" lon="7.8661364"><ele>1011.25</ele><time>2026-05-03T09:53:05.939Z</time></trkpt><trkpt lat="44.094225" lon="7.8662544"><ele>1015.0</ele><time>2026-05-03T09:53:06.941Z</time></trkpt><trkpt lat="44.0943067" lon="7.8663824"><ele>1007.0</ele><time>2026-05-03T09:53:07.941Z</time></trkpt><trkpt lat="44.0943821" lon="7.8665181"><ele>999.0</ele><time>2026-05-03T09:53:08.948Z</time></trkpt><trkpt lat="44.0944452" lon="7.8666662"><ele>991.0</ele><time>2026-05-03T09:53:09.943Z</time></trkpt><trkpt lat="44.0944859" lon="7.8668333"><ele>983.0</ele><time>2026-05-03T09:53:10.959Z</time></trkpt><trkpt lat="44.0945099" lon="7.8669958"><ele>983.0</ele><time>2026-05-03T09:53:11.944Z</time></trkpt><trkpt lat="44.0945465" lon="7.8671601"><ele>983.0</ele><time>2026-05-03T09:53:12.943Z</time></trkpt><trkpt lat="44.0945974" lon="7.8673258"><ele>983.0</ele><time>2026-05-03T09:53:13.95Z</time></trkpt><trkpt lat="44.0946607" lon="7.8674683"><ele>983.0</ele><time>2026-05-03T09:53:14.939Z</time></trkpt><trkpt lat="44.0947272" lon="7.867614"><ele>983.0</ele><time>2026-05-03T09:53:15.95Z</time></trkpt><trkpt lat="44.0947802" lon="7.8677808"><ele>983.0</ele><time>2026-05-03T09:53:16.942Z</time></trkpt><trkpt lat="44.0948195" lon="7.8679464"><ele>983.0</ele><time>2026-05-03T09:53:17.945Z</time></trkpt><trkpt lat="44.0948505" lon="7.8681255"><ele>983.0</ele><time>2026-05-03T09:53:18.945Z</time></trkpt><trkpt lat="44.0948689" lon="7.8683299"><ele>980.25</ele><time>2026-05-03T09:53:19.944Z</time></trkpt><trkpt lat="44.094884" lon="7.8685356"><ele>977.5</ele><time>2026-05-03T09:53:20.944Z</time></trkpt><trkpt lat="44.0949018" lon="7.8687342"><ele>974.75</ele><time>2026-05-03T09:53:21.942Z</time></trkpt><trkpt lat="44.0949255" lon="7.8689233"><ele>972.0</ele><time>2026-05-03T09:53:22.94Z</time></trkpt><trkpt lat="44.0949561" lon="7.8691088"><ele>961.75</ele><time>2026-05-03T09:53:23.943Z</time></trkpt><trkpt lat="44.0949853" lon="7.8693023"><ele>951.5</ele><time>2026-05-03T09:53:24.948Z</time></trkpt><trkpt lat="44.0950078" lon="7.8695003"><ele>941.25</ele><time>2026-05-03T09:53:25.95Z</time></trkpt><trkpt lat="44.095013" lon="7.8696965"><ele>931.0</ele><time>2026-05-03T09:53:26.942Z</time></trkpt><trkpt lat="44.0950096" lon="7.8698829"><ele>931.0</ele><time>2026-05-03T09:53:27.94Z</time></trkpt><trkpt lat="44.0949975" lon="7.8700685"><ele>931.0</ele><time>2026-05-03T09:53:28.947Z</time></trkpt><trkpt lat="44.0949874" lon="7.8702427"><ele>931.0</ele><time>2026-05-03T09:53:29.94Z</time></trkpt><trkpt lat="44.0949728" lon="7.8704014"><ele>931.0</ele><time>2026-05-03T09:53:30.943Z</time></trkpt><trkpt lat="44.0949563" lon="7.8705378"><ele>930.8</ele><time>2026-05-03T09:53:31.939Z</time></trkpt><trkpt lat="44.094962" lon="7.8706632"><ele>930.5999999999999</ele><time>2026-05-03T09:53:32.944Z</time></trkpt><trkpt lat="44.095071" lon="7.8707585"><ele>930.4</ele><time>2026-05-03T09:53:34.944Z</time></trkpt><trkpt lat="44.0951435" lon="7.8707991"><ele>930.2</ele><time>2026-05-03T09:53:35.932Z</time></trkpt><trkpt lat="44.0952146" lon="7.8708455"><ele>930.0</ele><time>2026-05-03T09:53:36.943Z</time></trkpt><trkpt lat="44.0952031" lon="7.8710407"><ele>927.8333333333334</ele><time>2026-05-03T09:53:38.937Z</time></trkpt><trkpt lat="44.0951606" lon="7.8711748"><ele>925.6666666666667</ele><time>2026-05-03T09:53:39.94Z</time></trkpt><trkpt lat="44.0951295" lon="7.8712879"><ele>923.5</ele><time>2026-05-03T09:53:40.937Z</time></trkpt><trkpt lat="44.0951425" lon="7.8713749"><ele>921.3333333333334</ele><time>2026-05-03T09:53:41.943Z</time></trkpt><trkpt lat="44.0951741" lon="7.871471"><ele>919.1666666666667</ele><time>2026-05-03T09:53:42.942Z</time></trkpt><trkpt lat="44.095214" lon="7.8715788"><ele>917.0</ele><time>2026-05-03T09:53:43.952Z</time></trkpt><trkpt lat="44.095253" lon="7.8716632"><ele>917.0000000000001</ele><time>2026-05-03T09:53:44.943Z</time></trkpt><trkpt lat="44.0953599" lon="7.8717553"><ele>917.0</ele><time>2026-05-03T09:53:46.948Z</time></trkpt><trkpt lat="44.0954285" lon="7.8717597"><ele>917.0</ele><time>2026-05-03T09:53:47.949Z</time></trkpt><trkpt lat="44.0954936" lon="7.8717588"><ele>917.0</ele><time>2026-05-03T09:53:48.93Z</time></trkpt><trkpt lat="44.0955325" lon="7.871867"><ele>917.0000000000001</ele><time>2026-05-03T09:53:50.952Z</time></trkpt><trkpt lat="44.0954839" lon="7.8719276"><ele>917.0</ele><time>2026-05-03T09:53:51.949Z</time></trkpt><trkpt lat="44.0954199" lon="7.8719637"><ele>915.0000000000001</ele><time>2026-05-03T09:53:52.943Z</time></trkpt><trkpt lat="44.0953522" lon="7.871984"><ele>913.0</ele><time>2026-05-03T09:53:53.943Z</time></trkpt><trkpt lat="44.0952833" lon="7.8720068"><ele>911.0</ele><time>2026-05-03T09:53:54.939Z</time></trkpt><trkpt lat="44.0952155" lon="7.87203"><ele>909.0</ele><time>2026-05-03T09:53:55.948Z</time></trkpt><trkpt lat="44.0951553" lon="7.8720592"><ele>907.0000000000001</ele><time>2026-05-03T09:53:56.941Z</time></trkpt><trkpt lat="44.0950515" lon="7.8721228"><ele>905.0</ele><time>2026-05-03T09:53:58.94Z</time></trkpt><trkpt lat="44.095013" lon="7.8722128"><ele>905.0000000000001</ele><time>2026-05-03T09:54:00.943Z</time></trkpt><trkpt lat="44.0950349" lon="7.8723087"><ele>905.0</ele><time>2026-05-03T09:55:38.939Z</time></trkpt><trkpt lat="44.0951492" lon="7.8723105"><ele>905.0</ele><time>2026-05-03T09:55:40.938Z</time></trkpt><trkpt lat="44.0952175" lon="7.8722833"><ele>905.0</ele><time>2026-05-03T09:55:41.933Z</time></trkpt><trkpt lat="44.0952984" lon="7.8722497"><ele>905.0000000000001</ele><time>2026-05-03T09:55:42.946Z</time></trkpt><trkpt lat="44.0953907" lon="7.8722115"><ele>905.0</ele><time>2026-05-03T09:55:43.949Z</time></trkpt><trkpt lat="44.095483" lon="7.8721812"><ele>905.0</ele><time>2026-05-03T09:55:44.946Z</time></trkpt><trkpt lat="44.0955735" lon="7.872154"><ele>905.0</ele><time>2026-05-03T09:55:45.955Z</time></trkpt><trkpt lat="44.0956688" lon="7.8721272"><ele>905.0</ele><time>2026-05-03T09:55:46.94Z</time></trkpt><trkpt lat="44.0957817" lon="7.8720898"><ele>905.0</ele><time>2026-05-03T09:55:47.943Z</time></trkpt><trkpt lat="44.0958995" lon="7.8720518"><ele>905.0</ele><time>2026-05-03T09:55:48.939Z</time></trkpt><trkpt lat="44.0960201" lon="7.8720148"><ele>904.0</ele><time>2026-05-03T09:55:49.94Z</time></trkpt><trkpt lat="44.0961474" lon="7.8719778"><ele>903.0</ele><time>2026-05-03T09:55:50.948Z</time></trkpt><trkpt lat="44.0962792" lon="7.8719406"><ele>902.0</ele><time>2026-05-03T09:55:51.945Z</time></trkpt><trkpt lat="44.0964148" lon="7.8719048"><ele>901.0</ele><time>2026-05-03T09:55:52.936Z</time></trkpt><trkpt lat="44.0965614" lon="7.8718618"><ele>900.6666666666666</ele><time>2026-05-03T09:55:53.949Z</time></trkpt><trkpt lat="44.0967073" lon="7.8718168"><ele>900.3333333333333</ele><time>2026-05-03T09:55:54.945Z</time></trkpt><trkpt lat="44.0968621" lon="7.871767"><ele>900.0</ele><time>2026-05-03T09:55:55.947Z</time></trkpt><trkpt lat="44.0970239" lon="7.8717128"><ele>900.0</ele><time>2026-05-03T09:55:56.94Z</time></trkpt><trkpt lat="44.0971913" lon="7.8716597"><ele>900.0</ele><time>2026-05-03T09:55:57.941Z</time></trkpt><trkpt lat="44.0973459" lon="7.8716109"><ele>900.0</ele><time>2026-05-03T09:55:58.945Z</time></trkpt><trkpt lat="44.097493" lon="7.871565"><ele>898.75</ele><time>2026-05-03T09:55:59.947Z</time></trkpt><trkpt lat="44.0976299" lon="7.8715217"><ele>897.5</ele><time>2026-05-03T09:56:00.945Z</time></trkpt><trkpt lat="44.0977598" lon="7.8714829"><ele>896.25</ele><time>2026-05-03T09:56:01.954Z</time></trkpt><trkpt lat="44.0978776" lon="7.871443"><ele>895.0</ele><time>2026-05-03T09:56:02.942Z</time></trkpt><trkpt lat="44.0979972" lon="7.8714009"><ele>895.0</ele><time>2026-05-03T09:56:03.948Z</time></trkpt><trkpt lat="44.0981123" lon="7.8713547"><ele>895.0</ele><time>2026-05-03T09:56:04.939Z</time></trkpt><trkpt lat="44.0982208" lon="7.8713175"><ele>895.0</ele><time>2026-05-03T09:56:05.95Z</time></trkpt><trkpt lat="44.0983241" lon="7.8712868"><ele>895.0</ele><time>2026-05-03T09:56:06.943Z</time></trkpt><trkpt lat="44.0984152" lon="7.871255"><ele>895.0</ele><time>2026-05-03T09:56:07.935Z</time></trkpt><trkpt lat="44.0984984" lon="7.8712186"><ele>894.4999999999999</ele><time>2026-05-03T09:56:08.94Z</time></trkpt><trkpt lat="44.0985788" lon="7.8711864"><ele>894.0</ele><time>2026-05-03T09:56:09.954Z</time></trkpt><trkpt lat="44.0986694" lon="7.8711555"><ele>893.5</ele><time>2026-05-03T09:56:10.945Z</time></trkpt><trkpt lat="44.0987625" lon="7.8711225"><ele>893.0</ele><time>2026-05-03T09:56:11.947Z</time></trkpt><trkpt lat="44.0988463" lon="7.8710969"><ele>892.4999999999999</ele><time>2026-05-03T09:56:12.947Z</time></trkpt><trkpt lat="44.098932" lon="7.8710852"><ele>892.0</ele><time>2026-05-03T09:56:13.955Z</time></trkpt><trkpt lat="44.0990217" lon="7.8710849"><ele>891.6666666666666</ele><time>2026-05-03T09:56:14.945Z</time></trkpt><trkpt lat="44.0991083" lon="7.8710853"><ele>891.3333333333333</ele><time>2026-05-03T09:56:15.946Z</time></trkpt><trkpt lat="44.0991869" lon="7.8710944"><ele>891.0</ele><time>2026-05-03T09:56:16.945Z</time></trkpt><trkpt lat="44.099253" lon="7.8711051"><ele>890.6666666666667</ele><time>2026-05-03T09:56:17.941Z</time></trkpt><trkpt lat="44.0993726" lon="7.8711361"><ele>890.3333333333334</ele><time>2026-05-03T09:56:19.946Z</time></trkpt><trkpt lat="44.0994357" lon="7.8711513"><ele>890.0</ele><time>2026-05-03T09:56:20.946Z</time></trkpt><trkpt lat="44.0995052" lon="7.8711706"><ele>890.0000000000001</ele><time>2026-05-03T09:56:21.937Z</time></trkpt><trkpt lat="44.0995776" lon="7.8711843"><ele>890.0</ele><time>2026-05-03T09:56:22.947Z</time></trkpt><trkpt lat="44.0996448" lon="7.8711947"><ele>890.0</ele><time>2026-05-03T09:56:23.959Z</time></trkpt><trkpt lat="44.0997182" lon="7.8711958"><ele>890.0</ele><time>2026-05-03T09:56:24.944Z</time></trkpt><trkpt lat="44.0997961" lon="7.8711938"><ele>890.0000000000001</ele><time>2026-05-03T09:56:25.952Z</time></trkpt><trkpt lat="44.0998789" lon="7.8711849"><ele>890.0</ele><time>2026-05-03T09:56:26.941Z</time></trkpt><trkpt lat="44.0999728" lon="7.8711739"><ele>889.0</ele><time>2026-05-03T09:56:27.94Z</time></trkpt><trkpt lat="44.1000802" lon="7.8711544"><ele>888.0</ele><time>2026-05-03T09:56:28.952Z</time></trkpt><trkpt lat="44.100189" lon="7.8711307"><ele>887.0</ele><time>2026-05-03T09:56:29.939Z</time></trkpt><trkpt lat="44.1003031" lon="7.8711021"><ele>886.0</ele><time>2026-05-03T09:56:30.949Z</time></trkpt><trkpt lat="44.1004194" lon="7.8710755"><ele>886.0</ele><time>2026-05-03T09:56:31.942Z</time></trkpt><trkpt lat="44.1005398" lon="7.8710447"><ele>886.0</ele><time>2026-05-03T09:56:32.941Z</time></trkpt><trkpt lat="44.1006569" lon="7.8710225"><ele>886.0</ele><time>2026-05-03T09:56:33.939Z</time></trkpt><trkpt lat="44.1007807" lon="7.8709968"><ele>886.0</ele><time>2026-05-03T09:56:34.946Z</time></trkpt><trkpt lat="44.1008978" lon="7.870971"><ele>887.4</ele><time>2026-05-03T09:56:35.955Z</time></trkpt><trkpt lat="44.1010093" lon="7.8709404"><ele>888.8</ele><time>2026-05-03T09:56:36.947Z</time></trkpt><trkpt lat="44.101114" lon="7.8709133"><ele>890.1999999999999</ele><time>2026-05-03T09:56:37.941Z</time></trkpt><trkpt lat="44.1012119" lon="7.8708886"><ele>891.5999999999999</ele><time>2026-05-03T09:56:38.938Z</time></trkpt><trkpt lat="44.1013048" lon="7.870861"><ele>893.0</ele><time>2026-05-03T09:56:39.941Z</time></trkpt><trkpt lat="44.1013992" lon="7.8708321"><ele>893.0</ele><time>2026-05-03T09:56:40.946Z</time></trkpt><trkpt lat="44.1014922" lon="7.8708077"><ele>893.0</ele><time>2026-05-03T09:56:41.949Z</time></trkpt><trkpt lat="44.1015952" lon="7.8707785"><ele>893.0</ele><time>2026-05-03T09:56:42.945Z</time></trkpt><trkpt lat="44.1016987" lon="7.8707486"><ele>893.0</ele><time>2026-05-03T09:56:43.946Z</time></trkpt><trkpt lat="44.1017982" lon="7.8707281"><ele>893.0</ele><time>2026-05-03T09:56:44.946Z</time></trkpt><trkpt lat="44.1018859" lon="7.8707033"><ele>892.5999999999999</ele><time>2026-05-03T09:56:45.941Z</time></trkpt><trkpt lat="44.1019722" lon="7.8706787"><ele>892.1999999999999</ele><time>2026-05-03T09:56:46.944Z</time></trkpt><trkpt lat="44.1020537" lon="7.8706541"><ele>891.8</ele><time>2026-05-03T09:56:47.943Z</time></trkpt><trkpt lat="44.1021396" lon="7.8706318"><ele>891.4</ele><time>2026-05-03T09:56:48.942Z</time></trkpt><trkpt lat="44.1022349" lon="7.8706041"><ele>891.0</ele><time>2026-05-03T09:56:49.947Z</time></trkpt><trkpt lat="44.1023319" lon="7.8705775"><ele>889.8</ele><time>2026-05-03T09:56:50.941Z</time></trkpt><trkpt lat="44.1024304" lon="7.8705524"><ele>888.5999999999999</ele><time>2026-05-03T09:56:51.953Z</time></trkpt><trkpt lat="44.1025338" lon="7.8705302"><ele>887.4</ele><time>2026-05-03T09:56:52.937Z</time></trkpt><trkpt lat="44.1026374" lon="7.8705069"><ele>886.2</ele><time>2026-05-03T09:56:53.955Z</time></trkpt><trkpt lat="44.102735" lon="7.8704822"><ele>885.0</ele><time>2026-05-03T09:56:54.942Z</time></trkpt><trkpt lat="44.1028272" lon="7.8704678"><ele>885.0</ele><time>2026-05-03T09:56:55.943Z</time></trkpt><trkpt lat="44.1029178" lon="7.8704652"><ele>885.0</ele><time>2026-05-03T09:56:56.941Z</time></trkpt><trkpt lat="44.1030152" lon="7.8704824"><ele>885.0</ele><time>2026-05-03T09:56:57.944Z</time></trkpt><trkpt lat="44.1031246" lon="7.870504"><ele>885.0</ele><time>2026-05-03T09:56:58.935Z</time></trkpt><trkpt lat="44.1032391" lon="7.8705363"><ele>885.0</ele><time>2026-05-03T09:56:59.937Z</time></trkpt><trkpt lat="44.1033553" lon="7.8705814"><ele>884.5</ele><time>2026-05-03T09:57:00.942Z</time></trkpt><trkpt lat="44.1034705" lon="7.8706222"><ele>884.0</ele><time>2026-05-03T09:57:01.94Z</time></trkpt><trkpt lat="44.1035869" lon="7.8706589"><ele>883.5</ele><time>2026-05-03T09:57:02.949Z</time></trkpt><trkpt lat="44.1036996" lon="7.8706833"><ele>883.0</ele><time>2026-05-03T09:57:03.945Z</time></trkpt><trkpt lat="44.1037993" lon="7.8707138"><ele>882.9999999999999</ele><time>2026-05-03T09:57:04.942Z</time></trkpt><trkpt lat="44.1038875" lon="7.8707473"><ele>883.0</ele><time>2026-05-03T09:57:05.943Z</time></trkpt><trkpt lat="44.1039735" lon="7.870774"><ele>883.0</ele><time>2026-05-03T09:57:06.947Z</time></trkpt><trkpt lat="44.1040554" lon="7.8708007"><ele>883.0</ele><time>2026-05-03T09:57:07.94Z</time></trkpt><trkpt lat="44.1041308" lon="7.87082"><ele>882.9999999999999</ele><time>2026-05-03T09:57:08.936Z</time></trkpt><trkpt lat="44.1042077" lon="7.8708383"><ele>883.0</ele><time>2026-05-03T09:57:09.947Z</time></trkpt><trkpt lat="44.1042863" lon="7.8708581"><ele>882.4</ele><time>2026-05-03T09:57:10.95Z</time></trkpt><trkpt lat="44.1043622" lon="7.8708793"><ele>881.8</ele><time>2026-05-03T09:57:11.943Z</time></trkpt><trkpt lat="44.1044837" lon="7.8708926"><ele>881.2</ele><time>2026-05-03T09:57:13.937Z</time></trkpt><trkpt lat="44.1046062" lon="7.8709011"><ele>880.6</ele><time>2026-05-03T09:57:15.942Z</time></trkpt><trkpt lat="44.1046777" lon="7.8709093"><ele>880.0</ele><time>2026-05-03T09:57:16.947Z</time></trkpt><trkpt lat="44.1047467" lon="7.8709231"><ele>880.0</ele><time>2026-05-03T09:57:17.937Z</time></trkpt><trkpt lat="44.1048567" lon="7.8709326"><ele>880.0</ele><time>2026-05-03T09:57:19.938Z</time></trkpt><trkpt lat="44.1049846" lon="7.8709342"><ele>880.0</ele><time>2026-05-03T09:57:21.941Z</time></trkpt><trkpt lat="44.1050615" lon="7.8709417"><ele>880.0</ele><time>2026-05-03T09:57:22.943Z</time></trkpt><trkpt lat="44.1051355" lon="7.8709521"><ele>880.0</ele><time>2026-05-03T09:57:23.948Z</time></trkpt><trkpt lat="44.1052047" lon="7.8709566"><ele>879.0</ele><time>2026-05-03T09:57:24.946Z</time></trkpt><trkpt lat="44.1053183" lon="7.8709714"><ele>878.0</ele><time>2026-05-03T09:57:26.949Z</time></trkpt><trkpt lat="44.1053902" lon="7.8709684"><ele>877.0</ele><time>2026-05-03T09:57:28.937Z</time></trkpt><trkpt lat="44.1054708" lon="7.8709697"><ele>876.0</ele><time>2026-05-03T09:57:30.942Z</time></trkpt><trkpt lat="44.1055828" lon="7.8709823"><ele>875.0</ele><time>2026-05-03T09:57:32.944Z</time></trkpt><trkpt lat="44.1056755" lon="7.8709986"><ele>875.0000000000001</ele><time>2026-05-03T09:57:34.935Z</time></trkpt><trkpt lat="44.105744" lon="7.8710015"><ele>875.0</ele><time>2026-05-03T09:58:23.94Z</time></trkpt><trkpt lat="44.1058129" lon="7.8709999"><ele>875.0</ele><time>2026-05-03T09:58:24.939Z</time></trkpt><trkpt lat="44.105892" lon="7.8710001"><ele>875.0</ele><time>2026-05-03T09:58:25.941Z</time></trkpt><trkpt lat="44.105995" lon="7.8710158"><ele>875.0000000000001</ele><time>2026-05-03T09:58:26.937Z</time></trkpt><trkpt lat="44.1061147" lon="7.8710537"><ele>875.0</ele><time>2026-05-03T09:58:27.943Z</time></trkpt><trkpt lat="44.1062492" lon="7.8710977"><ele>873.6666666666667</ele><time>2026-05-03T09:58:28.944Z</time></trkpt><trkpt lat="44.1064016" lon="7.8711567"><ele>872.3333333333333</ele><time>2026-05-03T09:58:29.936Z</time></trkpt><trkpt lat="44.106555" lon="7.8712187"><ele>871.0</ele><time>2026-05-03T09:58:30.946Z</time></trkpt><trkpt lat="44.1067063" lon="7.8712721"><ele>871.0</ele><time>2026-05-03T09:58:31.936Z</time></trkpt><trkpt lat="44.10685" lon="7.8712951"><ele>871.0</ele><time>2026-05-03T09:58:32.94Z</time></trkpt><trkpt lat="44.1069856" lon="7.8712951"><ele>871.0</ele><time>2026-05-03T09:58:33.94Z</time></trkpt><trkpt lat="44.1071091" lon="7.8712646"><ele>871.0</ele><time>2026-05-03T09:58:34.939Z</time></trkpt><trkpt lat="44.1072264" lon="7.8711988"><ele>871.0</ele><time>2026-05-03T09:58:35.933Z</time></trkpt><trkpt lat="44.1073365" lon="7.871119"><ele>871.0</ele><time>2026-05-03T09:58:36.937Z</time></trkpt><trkpt lat="44.1074623" lon="7.871049"><ele>871.0</ele><time>2026-05-03T09:58:37.946Z</time></trkpt><trkpt lat="44.1076035" lon="7.8710026"><ele>871.0</ele><time>2026-05-03T09:58:38.952Z</time></trkpt><trkpt lat="44.107749" lon="7.8709978"><ele>870.25</ele><time>2026-05-03T09:58:39.971Z</time></trkpt><trkpt lat="44.1078861" lon="7.8709819"><ele>869.5</ele><time>2026-05-03T09:58:40.941Z</time></trkpt><trkpt lat="44.1080218" lon="7.870956"><ele>868.75</ele><time>2026-05-03T09:58:41.949Z</time></trkpt><trkpt lat="44.1081707" lon="7.8708997"><ele>868.0</ele><time>2026-05-03T09:58:42.95Z</time></trkpt><trkpt lat="44.1083172" lon="7.8708231"><ele>867.0</ele><time>2026-05-03T09:58:43.948Z</time></trkpt><trkpt lat="44.1084569" lon="7.8707322"><ele>866.0</ele><time>2026-05-03T09:58:44.946Z</time></trkpt><trkpt lat="44.1085882" lon="7.8706259"><ele>865.0</ele><time>2026-05-03T09:58:45.941Z</time></trkpt><trkpt lat="44.1087086" lon="7.8705047"><ele>865.0</ele><time>2026-05-03T09:58:46.938Z</time></trkpt><trkpt lat="44.1088139" lon="7.8703737"><ele>865.0</ele><time>2026-05-03T09:58:47.942Z</time></trkpt><trkpt lat="44.1089055" lon="7.8702249"><ele>865.0</ele><time>2026-05-03T09:58:48.934Z</time></trkpt><trkpt lat="44.1089881" lon="7.8700566"><ele>865.0</ele><time>2026-05-03T09:58:49.935Z</time></trkpt><trkpt lat="44.1090824" lon="7.8698829"><ele>866.3333333333333</ele><time>2026-05-03T09:58:50.94Z</time></trkpt><trkpt lat="44.1091907" lon="7.8697173"><ele>867.6666666666667</ele><time>2026-05-03T09:58:51.934Z</time></trkpt><trkpt lat="44.1093124" lon="7.8695717"><ele>869.0</ele><time>2026-05-03T09:58:52.941Z</time></trkpt><trkpt lat="44.1094425" lon="7.8694629"><ele>869.0</ele><time>2026-05-03T09:58:53.931Z</time></trkpt><trkpt lat="44.109588" lon="7.8694179"><ele>869.0</ele><time>2026-05-03T09:58:54.972Z</time></trkpt><trkpt lat="44.1097329" lon="7.86942"><ele>869.0</ele><time>2026-05-03T09:58:55.936Z</time></trkpt><trkpt lat="44.1098879" lon="7.8694593"><ele>868.6666666666667</ele><time>2026-05-03T09:58:56.942Z</time></trkpt><trkpt lat="44.1100524" lon="7.8694676"><ele>868.3333333333333</ele><time>2026-05-03T09:58:57.95Z</time></trkpt><trkpt lat="44.1102275" lon="7.8694145"><ele>868.0</ele><time>2026-05-03T09:58:58.941Z</time></trkpt><trkpt lat="44.1104041" lon="7.8693294"><ele>867.3333333333333</ele><time>2026-05-03T09:58:59.949Z</time></trkpt><trkpt lat="44.1105877" lon="7.8692489"><ele>866.6666666666667</ele><time>2026-05-03T09:59:00.938Z</time></trkpt><trkpt lat="44.1107724" lon="7.8691742"><ele>866.0</ele><time>2026-05-03T09:59:01.933Z</time></trkpt><trkpt lat="44.1109627" lon="7.8691188"><ele>866.0</ele><time>2026-05-03T09:59:02.934Z</time></trkpt><trkpt lat="44.1111552" lon="7.869101"><ele>866.0</ele><time>2026-05-03T09:59:03.929Z</time></trkpt><trkpt lat="44.1113522" lon="7.8691289"><ele>866.0</ele><time>2026-05-03T09:59:04.932Z</time></trkpt><trkpt lat="44.1115393" lon="7.8691854"><ele>864.0</ele><time>2026-05-03T09:59:05.931Z</time></trkpt><trkpt lat="44.1117321" lon="7.8692354"><ele>862.0</ele><time>2026-05-03T09:59:06.935Z</time></trkpt><trkpt lat="44.1119216" lon="7.8692607"><ele>860.0</ele><time>2026-05-03T09:59:07.937Z</time></trkpt><trkpt lat="44.1121065" lon="7.8692341"><ele>860.0</ele><time>2026-05-03T09:59:08.934Z</time></trkpt><trkpt lat="44.1122932" lon="7.8691884"><ele>860.0</ele><time>2026-05-03T09:59:09.935Z</time></trkpt><trkpt lat="44.1124804" lon="7.8691547"><ele>860.0</ele><time>2026-05-03T09:59:10.933Z</time></trkpt><trkpt lat="44.1126658" lon="7.8691013"><ele>858.6666666666667</ele><time>2026-05-03T09:59:11.932Z</time></trkpt><trkpt lat="44.1128487" lon="7.8690037"><ele>857.3333333333333</ele><time>2026-05-03T09:59:12.938Z</time></trkpt><trkpt lat="44.1130245" lon="7.8688706"><ele>856.0</ele><time>2026-05-03T09:59:13.944Z</time></trkpt><trkpt lat="44.1131877" lon="7.8687358"><ele>853.3333333333333</ele><time>2026-05-03T09:59:14.935Z</time></trkpt><trkpt lat="44.1133521" lon="7.8686087"><ele>850.6666666666667</ele><time>2026-05-03T09:59:15.941Z</time></trkpt><trkpt lat="44.1135369" lon="7.868505"><ele>848.0</ele><time>2026-05-03T09:59:16.935Z</time></trkpt><trkpt lat="44.1137291" lon="7.8684493"><ele>845.3333333333334</ele><time>2026-05-03T09:59:17.932Z</time></trkpt><trkpt lat="44.1139127" lon="7.8684374"><ele>842.6666666666667</ele><time>2026-05-03T09:59:18.928Z</time></trkpt><trkpt lat="44.1140914" lon="7.8684352"><ele>840.0</ele><time>2026-05-03T09:59:19.932Z</time></trkpt><trkpt lat="44.1142728" lon="7.86841"><ele>840.0</ele><time>2026-05-03T09:59:20.938Z</time></trkpt><trkpt lat="44.1144343" lon="7.8683187"><ele>840.0</ele><time>2026-05-03T09:59:21.939Z</time></trkpt><trkpt lat="44.1145799" lon="7.8681638"><ele>840.0</ele><time>2026-05-03T09:59:22.927Z</time></trkpt><trkpt lat="44.1147481" lon="7.868027"><ele>838.3333333333333</ele><time>2026-05-03T09:59:23.936Z</time></trkpt><trkpt lat="44.1149322" lon="7.8679177"><ele>836.6666666666666</ele><time>2026-05-03T09:59:24.932Z</time></trkpt><trkpt lat="44.1151348" lon="7.8678285"><ele>835.0</ele><time>2026-05-03T09:59:25.934Z</time></trkpt><trkpt lat="44.1153344" lon="7.8677552"><ele>835.0</ele><time>2026-05-03T09:59:26.939Z</time></trkpt><trkpt lat="44.1155313" lon="7.8676991"><ele>835.0</ele><time>2026-05-03T09:59:27.935Z</time></trkpt><trkpt lat="44.1157298" lon="7.8676427"><ele>835.0</ele><time>2026-05-03T09:59:28.931Z</time></trkpt><trkpt lat="44.1159316" lon="7.8676"><ele>837.0</ele><time>2026-05-03T09:59:29.932Z</time></trkpt><trkpt lat="44.1161265" lon="7.8675777"><ele>839.0</ele><time>2026-05-03T09:59:30.933Z</time></trkpt><trkpt lat="44.1163188" lon="7.86758"><ele>841.0</ele><time>2026-05-03T09:59:31.936Z</time></trkpt><trkpt lat="44.1165093" lon="7.8676052"><ele>838.0</ele><time>2026-05-03T09:59:32.929Z</time></trkpt><trkpt lat="44.1166864" lon="7.8676297"><ele>835.0</ele><time>2026-05-03T09:59:33.932Z</time></trkpt><trkpt lat="44.116868" lon="7.8676365"><ele>832.0</ele><time>2026-05-03T09:59:34.936Z</time></trkpt><trkpt lat="44.1170439" lon="7.8676106"><ele>832.25</ele><time>2026-05-03T09:59:35.933Z</time></trkpt><trkpt lat="44.1172027" lon="7.867565"><ele>832.5</ele><time>2026-05-03T09:59:36.936Z</time></trkpt><trkpt lat="44.1173349" lon="7.8675201"><ele>832.75</ele><time>2026-05-03T09:59:37.931Z</time></trkpt><trkpt lat="44.1174737" lon="7.8674955"><ele>833.0</ele><time>2026-05-03T09:59:38.937Z</time></trkpt><trkpt lat="44.1175974" lon="7.8675217"><ele>830.5999999999999</ele><time>2026-05-03T09:59:39.942Z</time></trkpt><trkpt lat="44.1176946" lon="7.867597"><ele>828.1999999999999</ele><time>2026-05-03T09:59:40.942Z</time></trkpt><trkpt lat="44.1177877" lon="7.8676828"><ele>825.8</ele><time>2026-05-03T09:59:41.937Z</time></trkpt><trkpt lat="44.1178765" lon="7.8677598"><ele>823.4</ele><time>2026-05-03T09:59:42.941Z</time></trkpt><trkpt lat="44.1179613" lon="7.8678348"><ele>821.0</ele><time>2026-05-03T09:59:43.954Z</time></trkpt><trkpt lat="44.1180369" lon="7.8678961"><ele>819.8333333333334</ele><time>2026-05-03T09:59:44.936Z</time></trkpt><trkpt lat="44.1180955" lon="7.8679519"><ele>818.6666666666667</ele><time>2026-05-03T09:59:45.942Z</time></trkpt><trkpt lat="44.1181482" lon="7.8680146"><ele>817.5</ele><time>2026-05-03T09:59:46.932Z</time></trkpt><trkpt lat="44.1181854" lon="7.8681718"><ele>816.3333333333333</ele><time>2026-05-03T09:59:48.938Z</time></trkpt><trkpt lat="44.1181697" lon="7.8682915"><ele>815.1666666666666</ele><time>2026-05-03T09:59:49.931Z</time></trkpt><trkpt lat="44.1181499" lon="7.8684297"><ele>814.0</ele><time>2026-05-03T09:59:50.936Z</time></trkpt><trkpt lat="44.1181265" lon="7.8685734"><ele>814.0</ele><time>2026-05-03T09:59:51.939Z</time></trkpt><trkpt lat="44.1180989" lon="7.8687424"><ele>814.0</ele><time>2026-05-03T09:59:52.937Z</time></trkpt><trkpt lat="44.1180675" lon="7.8689123"><ele>814.0</ele><time>2026-05-03T09:59:53.94Z</time></trkpt><trkpt lat="44.1180353" lon="7.8690812"><ele>814.0</ele><time>2026-05-03T09:59:54.941Z</time></trkpt><trkpt lat="44.1180008" lon="7.8692614"><ele>813.0</ele><time>2026-05-03T09:59:55.944Z</time></trkpt><trkpt lat="44.1179635" lon="7.8694469"><ele>812.0</ele><time>2026-05-03T09:59:56.944Z</time></trkpt><trkpt lat="44.117932" lon="7.8696226"><ele>811.0</ele><time>2026-05-03T09:59:57.946Z</time></trkpt><trkpt lat="44.1179127" lon="7.8697994"><ele>810.0</ele><time>2026-05-03T09:59:58.945Z</time></trkpt><trkpt lat="44.1178971" lon="7.8699737"><ele>809.75</ele><time>2026-05-03T09:59:59.943Z</time></trkpt><trkpt lat="44.1179041" lon="7.8701563"><ele>809.5</ele><time>2026-05-03T10:00:00.938Z</time></trkpt><trkpt lat="44.1179619" lon="7.8703372"><ele>809.25</ele><time>2026-05-03T10:00:01.944Z</time></trkpt><trkpt lat="44.1180142" lon="7.8705205"><ele>809.0</ele><time>2026-05-03T10:00:02.933Z</time></trkpt><trkpt lat="44.1180786" lon="7.8707036"><ele>809.0</ele><time>2026-05-03T10:00:03.934Z</time></trkpt><trkpt lat="44.1181274" lon="7.870885"><ele>809.0</ele><time>2026-05-03T10:00:04.941Z</time></trkpt><trkpt lat="44.1181706" lon="7.8710594"><ele>809.0</ele><time>2026-05-03T10:00:05.939Z</time></trkpt><trkpt lat="44.1182177" lon="7.8712292"><ele>809.0</ele><time>2026-05-03T10:00:06.947Z</time></trkpt><trkpt lat="44.1182521" lon="7.8714032"><ele>811.0</ele><time>2026-05-03T10:00:07.94Z</time></trkpt><trkpt lat="44.1182778" lon="7.8715881"><ele>813.0</ele><time>2026-05-03T10:00:08.941Z</time></trkpt><trkpt lat="44.1182913" lon="7.8717808"><ele>815.0</ele><time>2026-05-03T10:00:09.937Z</time></trkpt><trkpt lat="44.1182868" lon="7.8719747"><ele>817.0</ele><time>2026-05-03T10:00:10.945Z</time></trkpt><trkpt lat="44.1182536" lon="7.8721705"><ele>815.6666666666666</ele><time>2026-05-03T10:00:11.946Z</time></trkpt><trkpt lat="44.1182303" lon="7.8723802"><ele>814.3333333333333</ele><time>2026-05-03T10:00:12.941Z</time></trkpt><trkpt lat="44.1182141" lon="7.872592"><ele>813.0</ele><time>2026-05-03T10:00:13.938Z</time></trkpt><trkpt lat="44.1182077" lon="7.8728075"><ele>812.6666666666667</ele><time>2026-05-03T10:00:14.941Z</time></trkpt><trkpt lat="44.1182126" lon="7.8730311"><ele>812.3333333333334</ele><time>2026-05-03T10:00:15.937Z</time></trkpt><trkpt lat="44.1182252" lon="7.8732667"><ele>812.0</ele><time>2026-05-03T10:00:16.943Z</time></trkpt><trkpt lat="44.1182431" lon="7.8735027"><ele>811.6666666666667</ele><time>2026-05-03T10:00:17.939Z</time></trkpt><trkpt lat="44.118268" lon="7.8737423"><ele>811.3333333333333</ele><time>2026-05-03T10:00:18.95Z</time></trkpt><trkpt lat="44.118312" lon="7.8739875"><ele>811.0</ele><time>2026-05-03T10:00:19.94Z</time></trkpt><trkpt lat="44.1183706" lon="7.8742173"><ele>809.0</ele><time>2026-05-03T10:00:20.932Z</time></trkpt><trkpt lat="44.1184454" lon="7.8744511"><ele>807.0</ele><time>2026-05-03T10:00:21.944Z</time></trkpt><trkpt lat="44.1185263" lon="7.8746874"><ele>805.0</ele><time>2026-05-03T10:00:22.945Z</time></trkpt><trkpt lat="44.1186068" lon="7.8749163"><ele>803.6666666666666</ele><time>2026-05-03T10:00:23.934Z</time></trkpt><trkpt lat="44.1186828" lon="7.875132"><ele>802.3333333333333</ele><time>2026-05-03T10:00:24.944Z</time></trkpt><trkpt lat="44.1187553" lon="7.8753468"><ele>801.0</ele><time>2026-05-03T10:00:25.941Z</time></trkpt><trkpt lat="44.1188236" lon="7.8755531"><ele>801.0</ele><time>2026-05-03T10:00:26.941Z</time></trkpt><trkpt lat="44.1188757" lon="7.8757623"><ele>801.0</ele><time>2026-05-03T10:00:27.942Z</time></trkpt><trkpt lat="44.1189163" lon="7.8759863"><ele>801.0</ele><time>2026-05-03T10:00:28.945Z</time></trkpt><trkpt lat="44.1189148" lon="7.87622"><ele>801.0</ele><time>2026-05-03T10:00:29.942Z</time></trkpt><trkpt lat="44.1188811" lon="7.8764634"><ele>801.0</ele><time>2026-05-03T10:00:30.945Z</time></trkpt><trkpt lat="44.1188196" lon="7.8766784"><ele>801.0</ele><time>2026-05-03T10:00:31.943Z</time></trkpt><trkpt lat="44.1187407" lon="7.87687"><ele>800.3333333333333</ele><time>2026-05-03T10:00:32.933Z</time></trkpt><trkpt lat="44.1186807" lon="7.8770645"><ele>799.6666666666666</ele><time>2026-05-03T10:00:33.935Z</time></trkpt><trkpt lat="44.1186498" lon="7.8772678"><ele>799.0</ele><time>2026-05-03T10:00:34.935Z</time></trkpt><trkpt lat="44.1186485" lon="7.8774848"><ele>798.3333333333333</ele><time>2026-05-03T10:00:35.944Z</time></trkpt><trkpt lat="44.1186992" lon="7.877704"><ele>797.6666666666667</ele><time>2026-05-03T10:00:36.946Z</time></trkpt><trkpt lat="44.118757" lon="7.8779214"><ele>797.0</ele><time>2026-05-03T10:00:37.948Z</time></trkpt><trkpt lat="44.1188122" lon="7.8781465"><ele>797.0</ele><time>2026-05-03T10:00:38.955Z</time></trkpt><trkpt lat="44.1188738" lon="7.878378"><ele>797.0</ele><time>2026-05-03T10:00:39.935Z</time></trkpt><trkpt lat="44.1189311" lon="7.8786122"><ele>797.0</ele><time>2026-05-03T10:00:40.957Z</time></trkpt><trkpt lat="44.1189859" lon="7.8788458"><ele>796.6666666666667</ele><time>2026-05-03T10:00:41.941Z</time></trkpt><trkpt lat="44.1190407" lon="7.8790777"><ele>796.3333333333333</ele><time>2026-05-03T10:00:42.941Z</time></trkpt><trkpt lat="44.1190929" lon="7.879314"><ele>796.0</ele><time>2026-05-03T10:00:43.938Z</time></trkpt><trkpt lat="44.1191479" lon="7.8795548"><ele>796.3333333333333</ele><time>2026-05-03T10:00:44.939Z</time></trkpt><trkpt lat="44.1192002" lon="7.8798008"><ele>796.6666666666667</ele><time>2026-05-03T10:00:45.94Z</time></trkpt><trkpt lat="44.1192466" lon="7.8800218"><ele>797.0</ele><time>2026-05-03T10:00:46.938Z</time></trkpt><trkpt lat="44.1192877" lon="7.8802342"><ele>797.0</ele><time>2026-05-03T10:00:47.942Z</time></trkpt><trkpt lat="44.1193298" lon="7.8804513"><ele>797.0</ele><time>2026-05-03T10:00:48.948Z</time></trkpt><trkpt lat="44.1193802" lon="7.8806782"><ele>797.0</ele><time>2026-05-03T10:00:49.937Z</time></trkpt><trkpt lat="44.11946" lon="7.8809033"><ele>795.6666666666667</ele><time>2026-05-03T10:00:50.945Z</time></trkpt><trkpt lat="44.1195376" lon="7.881116"><ele>794.3333333333333</ele><time>2026-05-03T10:00:51.94Z</time></trkpt><trkpt lat="44.1196174" lon="7.881329"><ele>793.0</ele><time>2026-05-03T10:00:52.942Z</time></trkpt><trkpt lat="44.1197006" lon="7.881543"><ele>793.0</ele><time>2026-05-03T10:00:53.947Z</time></trkpt><trkpt lat="44.1197854" lon="7.8817526"><ele>793.0</ele><time>2026-05-03T10:00:54.942Z</time></trkpt><trkpt lat="44.1198772" lon="7.8819468"><ele>793.0</ele><time>2026-05-03T10:00:55.943Z</time></trkpt><trkpt lat="44.1199889" lon="7.8821331"><ele>793.0</ele><time>2026-05-03T10:00:56.944Z</time></trkpt><trkpt lat="44.1201182" lon="7.882297"><ele>793.0</ele><time>2026-05-03T10:00:57.943Z</time></trkpt><trkpt lat="44.120243" lon="7.8824598"><ele>793.0</ele><time>2026-05-03T10:00:58.944Z</time></trkpt><trkpt lat="44.1203716" lon="7.8826134"><ele>793.0</ele><time>2026-05-03T10:00:59.941Z</time></trkpt><trkpt lat="44.1204977" lon="7.8827695"><ele>793.0</ele><time>2026-05-03T10:01:00.94Z</time></trkpt><trkpt lat="44.1206148" lon="7.8829305"><ele>793.0</ele><time>2026-05-03T10:01:01.932Z</time></trkpt><trkpt lat="44.1207166" lon="7.8831109"><ele>797.3333333333333</ele><time>2026-05-03T10:01:02.946Z</time></trkpt><trkpt lat="44.1207953" lon="7.8833103"><ele>801.6666666666667</ele><time>2026-05-03T10:01:03.933Z</time></trkpt><trkpt lat="44.1208473" lon="7.8835286"><ele>806.0</ele><time>2026-05-03T10:01:04.943Z</time></trkpt><trkpt lat="44.1208902" lon="7.8837549"><ele>806.0</ele><time>2026-05-03T10:01:05.939Z</time></trkpt><trkpt lat="44.1209219" lon="7.8839967"><ele>806.0</ele><time>2026-05-03T10:01:06.937Z</time></trkpt><trkpt lat="44.1209518" lon="7.8842365"><ele>806.0</ele><time>2026-05-03T10:01:07.948Z</time></trkpt><trkpt lat="44.1209764" lon="7.8844734"><ele>804.0</ele><time>2026-05-03T10:01:08.937Z</time></trkpt><trkpt lat="44.1210167" lon="7.8847251"><ele>802.0</ele><time>2026-05-03T10:01:09.942Z</time></trkpt><trkpt lat="44.1210644" lon="7.8849823"><ele>800.0</ele><time>2026-05-03T10:01:10.941Z</time></trkpt><trkpt lat="44.1211275" lon="7.8852387"><ele>796.6666666666667</ele><time>2026-05-03T10:01:11.939Z</time></trkpt><trkpt lat="44.1212022" lon="7.8854879"><ele>793.3333333333333</ele><time>2026-05-03T10:01:12.943Z</time></trkpt><trkpt lat="44.1212803" lon="7.8857321"><ele>790.0</ele><time>2026-05-03T10:01:13.938Z</time></trkpt><trkpt lat="44.1213476" lon="7.8859977"><ele>790.0</ele><time>2026-05-03T10:01:14.944Z</time></trkpt><trkpt lat="44.1213944" lon="7.8862568"><ele>790.0</ele><time>2026-05-03T10:01:15.945Z</time></trkpt><trkpt lat="44.121426" lon="7.886501"><ele>790.0</ele><time>2026-05-03T10:01:16.942Z</time></trkpt><trkpt lat="44.1214457" lon="7.8867354"><ele>789.0</ele><time>2026-05-03T10:01:17.935Z</time></trkpt><trkpt lat="44.121444" lon="7.8869889"><ele>788.0</ele><time>2026-05-03T10:01:18.954Z</time></trkpt><trkpt lat="44.1214239" lon="7.8872455"><ele>787.0</ele><time>2026-05-03T10:01:19.949Z</time></trkpt><trkpt lat="44.121402" lon="7.8874883"><ele>787.0</ele><time>2026-05-03T10:01:20.943Z</time></trkpt><trkpt lat="44.1213844" lon="7.887746"><ele>787.0</ele><time>2026-05-03T10:01:21.932Z</time></trkpt><trkpt lat="44.1213655" lon="7.8879984"><ele>787.0</ele><time>2026-05-03T10:01:22.94Z</time></trkpt><trkpt lat="44.1213458" lon="7.8882545"><ele>786.0</ele><time>2026-05-03T10:01:23.942Z</time></trkpt><trkpt lat="44.1213209" lon="7.8884961"><ele>785.0</ele><time>2026-05-03T10:01:24.939Z</time></trkpt><trkpt lat="44.121302" lon="7.8887277"><ele>784.0</ele><time>2026-05-03T10:01:25.934Z</time></trkpt><trkpt lat="44.1212818" lon="7.888953"><ele>784.0</ele><time>2026-05-03T10:01:26.948Z</time></trkpt><trkpt lat="44.1212682" lon="7.8891807"><ele>784.0</ele><time>2026-05-03T10:01:27.938Z</time></trkpt><trkpt lat="44.1212718" lon="7.8894149"><ele>784.0</ele><time>2026-05-03T10:01:28.948Z</time></trkpt><trkpt lat="44.1212955" lon="7.8896418"><ele>782.6666666666666</ele><time>2026-05-03T10:01:29.943Z</time></trkpt><trkpt lat="44.1213234" lon="7.8898622"><ele>781.3333333333333</ele><time>2026-05-03T10:01:30.941Z</time></trkpt><trkpt lat="44.1213456" lon="7.8900735"><ele>780.0</ele><time>2026-05-03T10:01:31.94Z</time></trkpt><trkpt lat="44.1213559" lon="7.8902957"><ele>779.75</ele><time>2026-05-03T10:01:32.938Z</time></trkpt><trkpt lat="44.1213435" lon="7.8905026"><ele>779.5</ele><time>2026-05-03T10:01:33.948Z</time></trkpt><trkpt lat="44.121317" lon="7.8907003"><ele>779.25</ele><time>2026-05-03T10:01:34.946Z</time></trkpt><trkpt lat="44.1212922" lon="7.8908858"><ele>779.0</ele><time>2026-05-03T10:01:35.939Z</time></trkpt><trkpt lat="44.1212819" lon="7.8910571"><ele>779.0</ele><time>2026-05-03T10:01:36.937Z</time></trkpt><trkpt lat="44.1213049" lon="7.8912123"><ele>779.0</ele><time>2026-05-03T10:01:37.942Z</time></trkpt><trkpt lat="44.1213669" lon="7.8913471"><ele>779.0</ele><time>2026-05-03T10:01:38.942Z</time></trkpt><trkpt lat="44.121439" lon="7.8914705"><ele>779.0</ele><time>2026-05-03T10:01:39.933Z</time></trkpt><trkpt lat="44.1215323" lon="7.8915794"><ele>779.6666666666667</ele><time>2026-05-03T10:01:40.941Z</time></trkpt><trkpt lat="44.1216083" lon="7.8916855"><ele>780.3333333333334</ele><time>2026-05-03T10:01:41.932Z</time></trkpt><trkpt lat="44.1216662" lon="7.8917863"><ele>781.0</ele><time>2026-05-03T10:01:42.934Z</time></trkpt><trkpt lat="44.121691" lon="7.8918809"><ele>781.6666666666667</ele><time>2026-05-03T10:01:43.94Z</time></trkpt><trkpt lat="44.1216774" lon="7.891973"><ele>782.3333333333334</ele><time>2026-05-03T10:01:44.942Z</time></trkpt><trkpt lat="44.1216342" lon="7.8920593"><ele>783.0</ele><time>2026-05-03T10:01:45.943Z</time></trkpt><trkpt lat="44.1215696" lon="7.8921312"><ele>781.5</ele><time>2026-05-03T10:01:46.943Z</time></trkpt><trkpt lat="44.1214753" lon="7.8921861"><ele>780.0</ele><time>2026-05-03T10:01:47.94Z</time></trkpt><trkpt lat="44.121354" lon="7.8922232"><ele>778.5</ele><time>2026-05-03T10:01:48.935Z</time></trkpt><trkpt lat="44.1212142" lon="7.8922176"><ele>777.0</ele><time>2026-05-03T10:01:49.941Z</time></trkpt><trkpt lat="44.1210552" lon="7.8922071"><ele>777.0</ele><time>2026-05-03T10:01:50.934Z</time></trkpt><trkpt lat="44.1208899" lon="7.8921944"><ele>777.0</ele><time>2026-05-03T10:01:51.946Z</time></trkpt><trkpt lat="44.1207157" lon="7.8921821"><ele>777.0</ele><time>2026-05-03T10:01:52.942Z</time></trkpt><trkpt lat="44.1205379" lon="7.8921701"><ele>779.6666666666667</ele><time>2026-05-03T10:01:53.945Z</time></trkpt><trkpt lat="44.1203551" lon="7.8921594"><ele>782.3333333333334</ele><time>2026-05-03T10:01:54.947Z</time></trkpt><trkpt lat="44.1201743" lon="7.892146"><ele>785.0</ele><time>2026-05-03T10:01:55.935Z</time></trkpt><trkpt lat="44.1200005" lon="7.89213"><ele>791.0</ele><time>2026-05-03T10:01:56.951Z</time></trkpt><trkpt lat="44.1198147" lon="7.8921118"><ele>797.0</ele><time>2026-05-03T10:01:57.945Z</time></trkpt><trkpt lat="44.1196349" lon="7.8920926"><ele>803.0</ele><time>2026-05-03T10:01:58.943Z</time></trkpt><trkpt lat="44.1194572" lon="7.8920643"><ele>803.0</ele><time>2026-05-03T10:01:59.945Z</time></trkpt><trkpt lat="44.1192837" lon="7.8920279"><ele>803.0</ele><time>2026-05-03T10:02:00.943Z</time></trkpt><trkpt lat="44.1191116" lon="7.8919878"><ele>803.0</ele><time>2026-05-03T10:02:01.939Z</time></trkpt><trkpt lat="44.1189427" lon="7.8919485"><ele>814.0</ele><time>2026-05-03T10:02:02.943Z</time></trkpt><trkpt lat="44.1187648" lon="7.8919168"><ele>825.0</ele><time>2026-05-03T10:02:03.941Z</time></trkpt><trkpt lat="44.1185853" lon="7.8918998"><ele>836.0</ele><time>2026-05-03T10:02:04.941Z</time></trkpt><trkpt lat="44.1184063" lon="7.8919021"><ele>841.3333333333334</ele><time>2026-05-03T10:02:05.944Z</time></trkpt><trkpt lat="44.1182346" lon="7.891928"><ele>846.6666666666667</ele><time>2026-05-03T10:02:06.937Z</time></trkpt><trkpt lat="44.1180698" lon="7.8919284"><ele>852.0</ele><time>2026-05-03T10:02:07.945Z</time></trkpt><trkpt lat="44.1179113" lon="7.8919076"><ele>852.0</ele><time>2026-05-03T10:02:08.935Z</time></trkpt><trkpt lat="44.1177613" lon="7.8919017"><ele>852.0</ele><time>2026-05-03T10:02:09.934Z</time></trkpt><trkpt lat="44.1176139" lon="7.8919398"><ele>852.0</ele><time>2026-05-03T10:02:10.938Z</time></trkpt><trkpt lat="44.1174655" lon="7.8919789"><ele>849.3333333333333</ele><time>2026-05-03T10:02:11.932Z</time></trkpt><trkpt lat="44.117312" lon="7.8920267"><ele>846.6666666666666</ele><time>2026-05-03T10:02:12.948Z</time></trkpt><trkpt lat="44.117172" lon="7.8921073"><ele>844.0</ele><time>2026-05-03T10:02:13.932Z</time></trkpt><trkpt lat="44.1170358" lon="7.8922222"><ele>844.0</ele><time>2026-05-03T10:02:14.932Z</time></trkpt><trkpt lat="44.11691" lon="7.892359"><ele>844.0</ele><time>2026-05-03T10:02:15.931Z</time></trkpt><trkpt lat="44.1167787" lon="7.8924906"><ele>844.0</ele><time>2026-05-03T10:02:16.933Z</time></trkpt><trkpt lat="44.1166448" lon="7.8926086"><ele>846.3333333333333</ele><time>2026-05-03T10:02:17.949Z</time></trkpt><trkpt lat="44.1165063" lon="7.8927128"><ele>848.6666666666667</ele><time>2026-05-03T10:02:18.937Z</time></trkpt><trkpt lat="44.1163713" lon="7.8928246"><ele>851.0</ele><time>2026-05-03T10:02:19.941Z</time></trkpt><trkpt lat="44.1162555" lon="7.8929466"><ele>851.0</ele><time>2026-05-03T10:02:20.939Z</time></trkpt><trkpt lat="44.1161525" lon="7.8930804"><ele>851.0</ele><time>2026-05-03T10:02:21.948Z</time></trkpt><trkpt lat="44.1160466" lon="7.8931871"><ele>851.0</ele><time>2026-05-03T10:02:22.939Z</time></trkpt><trkpt lat="44.1159288" lon="7.8932663"><ele>851.0</ele><time>2026-05-03T10:02:23.945Z</time></trkpt><trkpt lat="44.1158126" lon="7.8932811"><ele>853.25</ele><time>2026-05-03T10:02:24.944Z</time></trkpt><trkpt lat="44.1156994" lon="7.8932488"><ele>855.5</ele><time>2026-05-03T10:02:25.957Z</time></trkpt><trkpt lat="44.1155946" lon="7.8931893"><ele>857.75</ele><time>2026-05-03T10:02:26.944Z</time></trkpt><trkpt lat="44.1154924" lon="7.8931095"><ele>860.0</ele><time>2026-05-03T10:02:27.939Z</time></trkpt><trkpt lat="44.1153838" lon="7.8930221"><ele>860.0</ele><time>2026-05-03T10:02:28.937Z</time></trkpt><trkpt lat="44.115283" lon="7.8929711"><ele>860.0</ele><time>2026-05-03T10:02:29.949Z</time></trkpt><trkpt lat="44.1151619" lon="7.892954"><ele>860.0</ele><time>2026-05-03T10:02:30.945Z</time></trkpt><trkpt lat="44.1150383" lon="7.8929564"><ele>860.0</ele><time>2026-05-03T10:02:31.932Z</time></trkpt><trkpt lat="44.1148943" lon="7.8929739"><ele>864.3333333333334</ele><time>2026-05-03T10:02:32.939Z</time></trkpt><trkpt lat="44.1147471" lon="7.8929912"><ele>868.6666666666667</ele><time>2026-05-03T10:02:33.937Z</time></trkpt><trkpt lat="44.1145921" lon="7.8930063"><ele>873.0</ele><time>2026-05-03T10:02:34.943Z</time></trkpt><trkpt lat="44.1144416" lon="7.8930445"><ele>873.0</ele><time>2026-05-03T10:02:35.943Z</time></trkpt><trkpt lat="44.1142858" lon="7.8930883"><ele>873.0</ele><time>2026-05-03T10:02:36.934Z</time></trkpt><trkpt lat="44.1141286" lon="7.893111"><ele>873.0</ele><time>2026-05-03T10:02:37.945Z</time></trkpt><trkpt lat="44.1139817" lon="7.8931036"><ele>874.5</ele><time>2026-05-03T10:02:38.935Z</time></trkpt><trkpt lat="44.1138486" lon="7.8930867"><ele>876.0</ele><time>2026-05-03T10:02:39.933Z</time></trkpt><trkpt lat="44.1137335" lon="7.8930936"><ele>877.5</ele><time>2026-05-03T10:02:40.934Z</time></trkpt><trkpt lat="44.1136211" lon="7.8931255"><ele>879.0</ele><time>2026-05-03T10:02:41.938Z</time></trkpt><trkpt lat="44.1135053" lon="7.8931859"><ele>879.0</ele><time>2026-05-03T10:02:42.948Z</time></trkpt><trkpt lat="44.1133786" lon="7.8932598"><ele>879.0</ele><time>2026-05-03T10:02:43.935Z</time></trkpt><trkpt lat="44.1132423" lon="7.8933416"><ele>879.0</ele><time>2026-05-03T10:02:44.934Z</time></trkpt><trkpt lat="44.1131154" lon="7.8934202"><ele>879.0</ele><time>2026-05-03T10:02:45.945Z</time></trkpt><trkpt lat="44.1130006" lon="7.8934878"><ele>883.4000000000001</ele><time>2026-05-03T10:02:46.949Z</time></trkpt><trkpt lat="44.1129074" lon="7.8935468"><ele>887.8000000000001</ele><time>2026-05-03T10:02:47.934Z</time></trkpt><trkpt lat="44.112839" lon="7.8935965"><ele>892.1999999999999</ele><time>2026-05-03T10:02:48.946Z</time></trkpt><trkpt lat="44.1127741" lon="7.893723"><ele>896.5999999999999</ele><time>2026-05-03T10:02:50.94Z</time></trkpt><trkpt lat="44.1128425" lon="7.8938416"><ele>901.0</ele><time>2026-05-03T10:02:52.935Z</time></trkpt><trkpt lat="44.1129193" lon="7.8938565"><ele>901.0</ele><time>2026-05-03T10:02:53.94Z</time></trkpt><trkpt lat="44.113012" lon="7.8938201"><ele>901.0</ele><time>2026-05-03T10:02:54.943Z</time></trkpt><trkpt lat="44.1131227" lon="7.8937427"><ele>901.0</ele><time>2026-05-03T10:02:55.931Z</time></trkpt><trkpt lat="44.113244" lon="7.8936718"><ele>901.0</ele><time>2026-05-03T10:02:56.938Z</time></trkpt><trkpt lat="44.113388" lon="7.893625"><ele>902.5</ele><time>2026-05-03T10:02:57.942Z</time></trkpt><trkpt lat="44.1135404" lon="7.8936124"><ele>904.0</ele><time>2026-05-03T10:02:58.94Z</time></trkpt><trkpt lat="44.1136846" lon="7.8936236"><ele>905.5</ele><time>2026-05-03T10:02:59.934Z</time></trkpt><trkpt lat="44.1138273" lon="7.8936608"><ele>907.0</ele><time>2026-05-03T10:03:00.935Z</time></trkpt><trkpt lat="44.1139703" lon="7.8937388"><ele>907.0</ele><time>2026-05-03T10:03:01.938Z</time></trkpt><trkpt lat="44.1140988" lon="7.8938182"><ele>907.0</ele><time>2026-05-03T10:03:02.939Z</time></trkpt><trkpt lat="44.1142219" lon="7.8939174"><ele>907.0</ele><time>2026-05-03T10:03:03.933Z</time></trkpt><trkpt lat="44.1143444" lon="7.8940394"><ele>907.0</ele><time>2026-05-03T10:03:04.942Z</time></trkpt><trkpt lat="44.1144683" lon="7.894169"><ele>913.0</ele><time>2026-05-03T10:03:05.942Z</time></trkpt><trkpt lat="44.1146067" lon="7.8942994"><ele>919.0</ele><time>2026-05-03T10:03:06.942Z</time></trkpt><trkpt lat="44.1147545" lon="7.8944283"><ele>925.0</ele><time>2026-05-03T10:03:07.936Z</time></trkpt><trkpt lat="44.1149189" lon="7.8945349"><ele>925.0</ele><time>2026-05-03T10:03:08.939Z</time></trkpt><trkpt lat="44.1150856" lon="7.8946242"><ele>925.0</ele><time>2026-05-03T10:03:09.93Z</time></trkpt><trkpt lat="44.1152357" lon="7.8947025"><ele>925.0</ele><time>2026-05-03T10:03:10.938Z</time></trkpt><trkpt lat="44.1153689" lon="7.8947729"><ele>925.0</ele><time>2026-05-03T10:03:11.939Z</time></trkpt><trkpt lat="44.1154776" lon="7.8948614"><ele>925.0</ele><time>2026-05-03T10:03:12.937Z</time></trkpt><trkpt lat="44.1155694" lon="7.8949718"><ele>925.0</ele><time>2026-05-03T10:03:13.94Z</time></trkpt><trkpt lat="44.115634" lon="7.8951152"><ele>925.0</ele><time>2026-05-03T10:03:14.94Z</time></trkpt><trkpt lat="44.1156926" lon="7.8952878"><ele>924.5</ele><time>2026-05-03T10:03:15.948Z</time></trkpt><trkpt lat="44.1157447" lon="7.8954727"><ele>924.0</ele><time>2026-05-03T10:03:16.944Z</time></trkpt><trkpt lat="44.1157824" lon="7.8956671"><ele>923.5</ele><time>2026-05-03T10:03:17.935Z</time></trkpt><trkpt lat="44.1158097" lon="7.8958489"><ele>923.0</ele><time>2026-05-03T10:03:18.934Z</time></trkpt><trkpt lat="44.1158466" lon="7.8960045"><ele>927.8</ele><time>2026-05-03T10:03:19.943Z</time></trkpt><trkpt lat="44.1159048" lon="7.8961265"><ele>932.5999999999999</ele><time>2026-05-03T10:03:20.939Z</time></trkpt><trkpt lat="44.1159949" lon="7.8962037"><ele>937.4000000000001</ele><time>2026-05-03T10:03:21.943Z</time></trkpt><trkpt lat="44.1161019" lon="7.896226"><ele>942.2</ele><time>2026-05-03T10:03:22.939Z</time></trkpt><trkpt lat="44.1162227" lon="7.8961981"><ele>947.0</ele><time>2026-05-03T10:03:23.939Z</time></trkpt><trkpt lat="44.1163642" lon="7.8961541"><ele>947.0</ele><time>2026-05-03T10:03:24.932Z</time></trkpt><trkpt lat="44.1164846" lon="7.8961128"><ele>947.0</ele><time>2026-05-03T10:03:25.936Z</time></trkpt><trkpt lat="44.1165966" lon="7.8960639"><ele>947.0</ele><time>2026-05-03T10:03:26.932Z</time></trkpt><trkpt lat="44.1167035" lon="7.896076"><ele>947.0</ele><time>2026-05-03T10:03:27.953Z</time></trkpt><trkpt lat="44.1167885" lon="7.8961105"><ele>947.0</ele><time>2026-05-03T10:03:28.938Z</time></trkpt><trkpt lat="44.116858" lon="7.8961887"><ele>945.5</ele><time>2026-05-03T10:03:29.942Z</time></trkpt><trkpt lat="44.116908" lon="7.8963141"><ele>944.0</ele><time>2026-05-03T10:03:30.94Z</time></trkpt><trkpt lat="44.1169545" lon="7.8964712"><ele>942.5</ele><time>2026-05-03T10:03:31.938Z</time></trkpt><trkpt lat="44.1170218" lon="7.8966378"><ele>941.0</ele><time>2026-05-03T10:03:32.935Z</time></trkpt><trkpt lat="44.1171188" lon="7.8967863"><ele>944.0</ele><time>2026-05-03T10:03:33.941Z</time></trkpt><trkpt lat="44.117235" lon="7.8969258"><ele>947.0</ele><time>2026-05-03T10:03:34.942Z</time></trkpt><trkpt lat="44.1173623" lon="7.8970743"><ele>950.0</ele><time>2026-05-03T10:03:35.942Z</time></trkpt><trkpt lat="44.117498" lon="7.8972112"><ele>950.0</ele><time>2026-05-03T10:03:36.939Z</time></trkpt><trkpt lat="44.1176403" lon="7.8973396"><ele>950.0</ele><time>2026-05-03T10:03:37.941Z</time></trkpt><trkpt lat="44.1177941" lon="7.8974557"><ele>950.0</ele><time>2026-05-03T10:03:38.95Z</time></trkpt><trkpt lat="44.1179525" lon="7.8975535"><ele>947.25</ele><time>2026-05-03T10:03:39.944Z</time></trkpt><trkpt lat="44.1180987" lon="7.897629"><ele>944.5</ele><time>2026-05-03T10:03:40.944Z</time></trkpt><trkpt lat="44.1182179" lon="7.8976903"><ele>941.75</ele><time>2026-05-03T10:03:41.938Z</time></trkpt><trkpt lat="44.1183182" lon="7.8977629"><ele>939.0</ele><time>2026-05-03T10:03:42.943Z</time></trkpt><trkpt lat="44.1183967" lon="7.897866"><ele>939.0</ele><time>2026-05-03T10:03:43.953Z</time></trkpt><trkpt lat="44.1184638" lon="7.8980097"><ele>939.0</ele><time>2026-05-03T10:03:44.938Z</time></trkpt><trkpt lat="44.118478" lon="7.8981902"><ele>939.0</ele><time>2026-05-03T10:03:45.939Z</time></trkpt><trkpt lat="44.1184468" lon="7.8983698"><ele>939.0</ele><time>2026-05-03T10:03:46.945Z</time></trkpt><trkpt lat="44.1183978" lon="7.8985323"><ele>936.0</ele><time>2026-05-03T10:03:47.941Z</time></trkpt><trkpt lat="44.1183313" lon="7.8987217"><ele>933.0</ele><time>2026-05-03T10:03:48.948Z</time></trkpt><trkpt lat="44.1182598" lon="7.8989387"><ele>930.0</ele><time>2026-05-03T10:03:49.943Z</time></trkpt><trkpt lat="44.1181801" lon="7.8991718"><ele>936.6666666666667</ele><time>2026-05-03T10:03:50.947Z</time></trkpt><trkpt lat="44.1181052" lon="7.8993979"><ele>943.3333333333334</ele><time>2026-05-03T10:03:51.946Z</time></trkpt><trkpt lat="44.1180349" lon="7.8996211"><ele>950.0</ele><time>2026-05-03T10:03:52.941Z</time></trkpt><trkpt lat="44.1179597" lon="7.8998466"><ele>950.0</ele><time>2026-05-03T10:03:53.944Z</time></trkpt><trkpt lat="44.1178887" lon="7.9000628"><ele>950.0</ele><time>2026-05-03T10:03:54.943Z</time></trkpt><trkpt lat="44.117814" lon="7.9002617"><ele>950.0</ele><time>2026-05-03T10:03:55.941Z</time></trkpt><trkpt lat="44.1177432" lon="7.9004567"><ele>945.0</ele><time>2026-05-03T10:03:56.943Z</time></trkpt><trkpt lat="44.1176902" lon="7.9006549"><ele>940.0</ele><time>2026-05-03T10:03:57.935Z</time></trkpt><trkpt lat="44.1176579" lon="7.9008739"><ele>935.0</ele><time>2026-05-03T10:03:58.949Z</time></trkpt><trkpt lat="44.1176397" lon="7.9011089"><ele>932.0</ele><time>2026-05-03T10:03:59.959Z</time></trkpt><trkpt lat="44.1176246" lon="7.9013307"><ele>929.0</ele><time>2026-05-03T10:04:00.943Z</time></trkpt><trkpt lat="44.1175959" lon="7.9015403"><ele>926.0</ele><time>2026-05-03T10:04:01.941Z</time></trkpt><trkpt lat="44.1175456" lon="7.9017476"><ele>926.0</ele><time>2026-05-03T10:04:02.937Z</time></trkpt><trkpt lat="44.1174903" lon="7.9019505"><ele>926.0</ele><time>2026-05-03T10:04:03.935Z</time></trkpt><trkpt lat="44.1174527" lon="7.9021442"><ele>926.0</ele><time>2026-05-03T10:04:04.941Z</time></trkpt><trkpt lat="44.1174562" lon="7.9023413"><ele>926.0</ele><time>2026-05-03T10:04:05.947Z</time></trkpt><trkpt lat="44.117475" lon="7.9025513"><ele>929.75</ele><time>2026-05-03T10:04:06.944Z</time></trkpt><trkpt lat="44.1174704" lon="7.9027554"><ele>933.5</ele><time>2026-05-03T10:04:07.95Z</time></trkpt><trkpt lat="44.117425" lon="7.9029461"><ele>937.25</ele><time>2026-05-03T10:04:08.944Z</time></trkpt><trkpt lat="44.1173404" lon="7.9031062"><ele>941.0</ele><time>2026-05-03T10:04:09.959Z</time></trkpt><trkpt lat="44.1172444" lon="7.9032604"><ele>941.0</ele><time>2026-05-03T10:04:10.944Z</time></trkpt><trkpt lat="44.1171517" lon="7.9034288"><ele>941.0</ele><time>2026-05-03T10:04:11.941Z</time></trkpt><trkpt lat="44.1170447" lon="7.9036216"><ele>941.0</ele><time>2026-05-03T10:04:12.943Z</time></trkpt><trkpt lat="44.1169321" lon="7.9038204"><ele>941.0</ele><time>2026-05-03T10:04:13.94Z</time></trkpt><trkpt lat="44.1168088" lon="7.9040047"><ele>941.0</ele><time>2026-05-03T10:04:14.938Z</time></trkpt><trkpt lat="44.1166798" lon="7.9041836"><ele>941.0</ele><time>2026-05-03T10:04:15.935Z</time></trkpt><trkpt lat="44.1165551" lon="7.9043584"><ele>943.6666666666667</ele><time>2026-05-03T10:04:16.95Z</time></trkpt><trkpt lat="44.1164371" lon="7.9045119"><ele>946.3333333333333</ele><time>2026-05-03T10:04:17.945Z</time></trkpt><trkpt lat="44.1163232" lon="7.9046677"><ele>949.0</ele><time>2026-05-03T10:04:18.95Z</time></trkpt><trkpt lat="44.1162348" lon="7.9048339"><ele>949.0</ele><time>2026-05-03T10:04:19.94Z</time></trkpt><trkpt lat="44.1161731" lon="7.9050171"><ele>949.0</ele><time>2026-05-03T10:04:20.953Z</time></trkpt><trkpt lat="44.1161366" lon="7.9052324"><ele>949.0</ele><time>2026-05-03T10:04:21.942Z</time></trkpt><trkpt lat="44.116106" lon="7.9054656"><ele>950.3333333333333</ele><time>2026-05-03T10:04:22.942Z</time></trkpt><trkpt lat="44.1160774" lon="7.9057038"><ele>951.6666666666667</ele><time>2026-05-03T10:04:23.948Z</time></trkpt><trkpt lat="44.1160406" lon="7.9059517"><ele>953.0</ele><time>2026-05-03T10:04:24.941Z</time></trkpt><trkpt lat="44.115998" lon="7.9061958"><ele>956.0</ele><time>2026-05-03T10:04:25.947Z</time></trkpt><trkpt lat="44.1159491" lon="7.9064391"><ele>959.0</ele><time>2026-05-03T10:04:26.942Z</time></trkpt><trkpt lat="44.1159021" lon="7.906659"><ele>962.0</ele><time>2026-05-03T10:04:27.941Z</time></trkpt><trkpt lat="44.1158542" lon="7.9068579"><ele>964.0</ele><time>2026-05-03T10:04:28.941Z</time></trkpt><trkpt lat="44.1157985" lon="7.9070316"><ele>966.0</ele><time>2026-05-03T10:04:29.949Z</time></trkpt><trkpt lat="44.1157388" lon="7.9071649"><ele>968.0</ele><time>2026-05-03T10:04:30.95Z</time></trkpt><trkpt lat="44.1156824" lon="7.907269"><ele>970.0</ele><time>2026-05-03T10:04:31.937Z</time></trkpt><trkpt lat="44.1156398" lon="7.9073573"><ele>972.0</ele><time>2026-05-03T10:04:32.939Z</time></trkpt><trkpt lat="44.1156866" lon="7.9074983"><ele>972.0</ele><time>2026-05-03T10:04:34.938Z</time></trkpt><trkpt lat="44.1157554" lon="7.9075115"><ele>972.0</ele><time>2026-05-03T10:04:35.947Z</time></trkpt><trkpt lat="44.1158187" lon="7.9074684"><ele>972.0</ele><time>2026-05-03T10:04:36.933Z</time></trkpt><trkpt lat="44.1158727" lon="7.9073616"><ele>972.0</ele><time>2026-05-03T10:04:37.94Z</time></trkpt><trkpt lat="44.1159172" lon="7.9072031"><ele>972.0</ele><time>2026-05-03T10:04:38.934Z</time></trkpt><trkpt lat="44.1159807" lon="7.907028"><ele>972.0</ele><time>2026-05-03T10:04:39.938Z</time></trkpt><trkpt lat="44.1160483" lon="7.9068291"><ele>972.0</ele><time>2026-05-03T10:04:40.936Z</time></trkpt><trkpt lat="44.1161276" lon="7.9066266"><ele>972.0</ele><time>2026-05-03T10:04:41.938Z</time></trkpt><trkpt lat="44.1162121" lon="7.9064141"><ele>968.6666666666667</ele><time>2026-05-03T10:04:42.942Z</time></trkpt><trkpt lat="44.1163063" lon="7.9061919"><ele>965.3333333333334</ele><time>2026-05-03T10:04:43.947Z</time></trkpt><trkpt lat="44.1163985" lon="7.9059665"><ele>962.0</ele><time>2026-05-03T10:04:44.937Z</time></trkpt><trkpt lat="44.1164944" lon="7.9057559"><ele>966.6666666666667</ele><time>2026-05-03T10:04:45.941Z</time></trkpt><trkpt lat="44.1165947" lon="7.9055625"><ele>971.3333333333333</ele><time>2026-05-03T10:04:46.936Z</time></trkpt><trkpt lat="44.1167071" lon="7.9053921"><ele>976.0</ele><time>2026-05-03T10:04:47.942Z</time></trkpt><trkpt lat="44.1168261" lon="7.905229"><ele>976.0</ele><time>2026-05-03T10:04:48.941Z</time></trkpt><trkpt lat="44.1169579" lon="7.9050882"><ele>976.0</ele><time>2026-05-03T10:04:49.94Z</time></trkpt><trkpt lat="44.1170895" lon="7.9049513"><ele>976.0</ele><time>2026-05-03T10:04:50.934Z</time></trkpt><trkpt lat="44.1172076" lon="7.9047969"><ele>971.5</ele><time>2026-05-03T10:04:51.942Z</time></trkpt><trkpt lat="44.1173057" lon="7.9046431"><ele>967.0</ele><time>2026-05-03T10:04:52.931Z</time></trkpt><trkpt lat="44.1174045" lon="7.9045089"><ele>962.5</ele><time>2026-05-03T10:04:53.943Z</time></trkpt><trkpt lat="44.1175162" lon="7.904381"><ele>958.0</ele><time>2026-05-03T10:04:54.944Z</time></trkpt><trkpt lat="44.117635" lon="7.9042831"><ele>961.0</ele><time>2026-05-03T10:04:55.947Z</time></trkpt><trkpt lat="44.1177667" lon="7.9042166"><ele>964.0</ele><time>2026-05-03T10:04:56.949Z</time></trkpt><trkpt lat="44.1179027" lon="7.9041385"><ele>967.0</ele><time>2026-05-03T10:04:57.943Z</time></trkpt><trkpt lat="44.1180326" lon="7.9040401"><ele>970.0</ele><time>2026-05-03T10:04:58.945Z</time></trkpt><trkpt lat="44.118141" lon="7.9039541"><ele>974.2</ele><time>2026-05-03T10:04:59.943Z</time></trkpt><trkpt lat="44.1182426" lon="7.9039242"><ele>978.4</ele><time>2026-05-03T10:05:00.94Z</time></trkpt><trkpt lat="44.1183408" lon="7.9039367"><ele>982.5999999999999</ele><time>2026-05-03T10:05:01.938Z</time></trkpt><trkpt lat="44.118434" lon="7.9040044"><ele>986.8</ele><time>2026-05-03T10:05:02.942Z</time></trkpt><trkpt lat="44.1185097" lon="7.9041093"><ele>991.0</ele><time>2026-05-03T10:05:03.941Z</time></trkpt><trkpt lat="44.1185844" lon="7.9042483"><ele>997.75</ele><time>2026-05-03T10:05:04.941Z</time></trkpt><trkpt lat="44.1186644" lon="7.9043867"><ele>1004.5</ele><time>2026-05-03T10:05:05.941Z</time></trkpt><trkpt lat="44.1187653" lon="7.9045193"><ele>1011.25</ele><time>2026-05-03T10:05:06.948Z</time></trkpt><trkpt lat="44.1188844" lon="7.9046407"><ele>1018.0</ele><time>2026-05-03T10:05:07.941Z</time></trkpt><trkpt lat="44.1190064" lon="7.9047595"><ele>1015.0</ele><time>2026-05-03T10:05:08.945Z</time></trkpt><trkpt lat="44.119132" lon="7.9048737"><ele>1012.0</ele><time>2026-05-03T10:05:09.953Z</time></trkpt><trkpt lat="44.1192779" lon="7.9049935"><ele>1009.0</ele><time>2026-05-03T10:05:10.943Z</time></trkpt><trkpt lat="44.1194342" lon="7.9050858"><ele>1014.25</ele><time>2026-05-03T10:05:11.939Z</time></trkpt><trkpt lat="44.1195877" lon="7.905141"><ele>1019.5</ele><time>2026-05-03T10:05:12.938Z</time></trkpt><trkpt lat="44.1197255" lon="7.9051863"><ele>1024.75</ele><time>2026-05-03T10:05:13.941Z</time></trkpt><trkpt lat="44.1198525" lon="7.9052437"><ele>1030.0</ele><time>2026-05-03T10:05:14.942Z</time></trkpt><trkpt lat="44.1199542" lon="7.9053255"><ele>1030.0</ele><time>2026-05-03T10:05:15.941Z</time></trkpt><trkpt lat="44.1200481" lon="7.9054009"><ele>1030.0</ele><time>2026-05-03T10:05:16.938Z</time></trkpt><trkpt lat="44.12014" lon="7.905424"><ele>1030.0</ele><time>2026-05-03T10:05:17.94Z</time></trkpt><trkpt lat="44.1202322" lon="7.9053913"><ele>1030.0</ele><time>2026-05-03T10:05:18.927Z</time></trkpt><trkpt lat="44.1203112" lon="7.9053245"><ele>1030.0</ele><time>2026-05-03T10:05:19.937Z</time></trkpt><trkpt lat="44.1203346" lon="7.9052075"><ele>1024.75</ele><time>2026-05-03T10:05:20.94Z</time></trkpt><trkpt lat="44.1203193" lon="7.9050343"><ele>1019.5</ele><time>2026-05-03T10:05:21.93Z</time></trkpt><trkpt lat="44.1202659" lon="7.9048226"><ele>1014.25</ele><time>2026-05-03T10:05:22.939Z</time></trkpt><trkpt lat="44.1202348" lon="7.9046056"><ele>1009.0</ele><time>2026-05-03T10:05:23.931Z</time></trkpt><trkpt lat="44.1202207" lon="7.9043887"><ele>1007.5</ele><time>2026-05-03T10:05:24.931Z</time></trkpt><trkpt lat="44.1202393" lon="7.9041957"><ele>1006.0</ele><time>2026-05-03T10:05:25.936Z</time></trkpt><trkpt lat="44.1202782" lon="7.9040022"><ele>1004.5</ele><time>2026-05-03T10:05:26.942Z</time></trkpt><trkpt lat="44.1203177" lon="7.9038088"><ele>1003.0</ele><time>2026-05-03T10:05:27.936Z</time></trkpt><trkpt lat="44.1203334" lon="7.9036107"><ele>1003.0</ele><time>2026-05-03T10:05:28.936Z</time></trkpt><trkpt lat="44.1203189" lon="7.9034257"><ele>1003.0</ele><time>2026-05-03T10:05:29.931Z</time></trkpt><trkpt lat="44.1202986" lon="7.9032564"><ele>1003.0</ele><time>2026-05-03T10:05:30.933Z</time></trkpt><trkpt lat="44.1203191" lon="7.9031134"><ele>1003.0</ele><time>2026-05-03T10:05:31.941Z</time></trkpt><trkpt lat="44.1203745" lon="7.9030004"><ele>1003.0</ele><time>2026-05-03T10:05:32.939Z</time></trkpt><trkpt lat="44.1204791" lon="7.9029865"><ele>1003.0</ele><time>2026-05-03T10:05:33.933Z</time></trkpt><trkpt lat="44.1205945" lon="7.9030155"><ele>1003.0</ele><time>2026-05-03T10:05:34.93Z</time></trkpt><trkpt lat="44.1207199" lon="7.9030498"><ele>1003.0</ele><time>2026-05-03T10:05:35.937Z</time></trkpt><trkpt lat="44.120868" lon="7.9030973"><ele>1009.0</ele><time>2026-05-03T10:05:36.949Z</time></trkpt><trkpt lat="44.1210142" lon="7.903142"><ele>1015.0</ele><time>2026-05-03T10:05:37.946Z</time></trkpt><trkpt lat="44.1211576" lon="7.9031793"><ele>1021.0</ele><time>2026-05-03T10:05:38.94Z</time></trkpt><trkpt lat="44.1213059" lon="7.903221"><ele>1027.0</ele><time>2026-05-03T10:05:39.937Z</time></trkpt><trkpt lat="44.1214584" lon="7.9032569"><ele>1030.3333333333333</ele><time>2026-05-03T10:05:40.945Z</time></trkpt><trkpt lat="44.1216178" lon="7.9032703"><ele>1033.6666666666667</ele><time>2026-05-03T10:05:41.931Z</time></trkpt><trkpt lat="44.1217711" lon="7.9032573"><ele>1037.0</ele><time>2026-05-03T10:05:42.951Z</time></trkpt><trkpt lat="44.1219086" lon="7.9032304"><ele>1037.0</ele><time>2026-05-03T10:05:43.939Z</time></trkpt><trkpt lat="44.1220292" lon="7.9031888"><ele>1037.0</ele><time>2026-05-03T10:05:44.939Z</time></trkpt><trkpt lat="44.122144" lon="7.9031388"><ele>1037.0</ele><time>2026-05-03T10:05:45.946Z</time></trkpt><trkpt lat="44.1222274" lon="7.9030557"><ele>1037.0</ele><time>2026-05-03T10:05:46.942Z</time></trkpt><trkpt lat="44.1222452" lon="7.9028941"><ele>1037.0</ele><time>2026-05-03T10:05:47.937Z</time></trkpt><trkpt lat="44.1222109" lon="7.9027047"><ele>1037.0</ele><time>2026-05-03T10:05:48.928Z</time></trkpt><trkpt lat="44.1222006" lon="7.902559"><ele>1037.0</ele><time>2026-05-03T10:05:49.937Z</time></trkpt><trkpt lat="44.1222101" lon="7.9024686"><ele>1037.0</ele><time>2026-05-03T10:05:50.941Z</time></trkpt><trkpt lat="44.1222906" lon="7.9024711"><ele>1037.0</ele><time>2026-05-03T10:05:52.941Z</time></trkpt><trkpt lat="44.1223256" lon="7.902547"><ele>1037.0</ele><time>2026-05-03T10:05:53.936Z</time></trkpt><trkpt lat="44.1223352" lon="7.9026535"><ele>1037.0</ele><time>2026-05-03T10:05:54.941Z</time></trkpt><trkpt lat="44.1223465" lon="7.9027856"><ele>1037.0</ele><time>2026-05-03T10:05:55.934Z</time></trkpt><trkpt lat="44.1223731" lon="7.9029305"><ele>1037.0</ele><time>2026-05-03T10:05:56.942Z</time></trkpt><trkpt lat="44.1224012" lon="7.9030718"><ele>1037.0</ele><time>2026-05-03T10:05:57.943Z</time></trkpt><trkpt lat="44.1223994" lon="7.9032233"><ele>1037.0</ele><time>2026-05-03T10:05:58.939Z</time></trkpt><trkpt lat="44.1223471" lon="7.9033437"><ele>1037.0</ele><time>2026-05-03T10:05:59.942Z</time></trkpt><trkpt lat="44.1222634" lon="7.9034409"><ele>1037.0</ele><time>2026-05-03T10:06:00.931Z</time></trkpt><trkpt lat="44.122146" lon="7.9035225"><ele>1037.0</ele><time>2026-05-03T10:06:01.935Z</time></trkpt><trkpt lat="44.1220169" lon="7.9035857"><ele>1038.5</ele><time>2026-05-03T10:06:02.937Z</time></trkpt><trkpt lat="44.1218822" lon="7.9036502"><ele>1040.0</ele><time>2026-05-03T10:06:03.939Z</time></trkpt><trkpt lat="44.1217499" lon="7.9037192"><ele>1041.5</ele><time>2026-05-03T10:06:04.944Z</time></trkpt><trkpt lat="44.1215983" lon="7.9037766"><ele>1043.0</ele><time>2026-05-03T10:06:05.94Z</time></trkpt><trkpt lat="44.1214475" lon="7.9038297"><ele>1043.0</ele><time>2026-05-03T10:06:06.934Z</time></trkpt><trkpt lat="44.1213161" lon="7.9038749"><ele>1043.0</ele><time>2026-05-03T10:06:07.946Z</time></trkpt><trkpt lat="44.1211987" lon="7.9039319"><ele>1043.0</ele><time>2026-05-03T10:06:08.941Z</time></trkpt><trkpt lat="44.121112" lon="7.9040254"><ele>1043.0</ele><time>2026-05-03T10:06:09.952Z</time></trkpt><trkpt lat="44.1210575" lon="7.9041612"><ele>1043.25</ele><time>2026-05-03T10:06:10.947Z</time></trkpt><trkpt lat="44.1210425" lon="7.904325"><ele>1043.5</ele><time>2026-05-03T10:06:11.937Z</time></trkpt><trkpt lat="44.1210779" lon="7.904497"><ele>1043.75</ele><time>2026-05-03T10:06:12.948Z</time></trkpt><trkpt lat="44.1211676" lon="7.9046612"><ele>1044.0</ele><time>2026-05-03T10:06:13.94Z</time></trkpt><trkpt lat="44.1212679" lon="7.9048294"><ele>1044.0</ele><time>2026-05-03T10:06:14.939Z</time></trkpt><trkpt lat="44.1213553" lon="7.9049988"><ele>1044.0</ele><time>2026-05-03T10:06:15.942Z</time></trkpt><trkpt lat="44.1214007" lon="7.9051847"><ele>1044.0</ele><time>2026-05-03T10:06:16.942Z</time></trkpt><trkpt lat="44.1214101" lon="7.9053507"><ele>1044.0</ele><time>2026-05-03T10:06:17.947Z</time></trkpt><trkpt lat="44.12139" lon="7.9055263"><ele>1045.5</ele><time>2026-05-03T10:06:18.936Z</time></trkpt><trkpt lat="44.1213376" lon="7.9056827"><ele>1047.0</ele><time>2026-05-03T10:06:19.93Z</time></trkpt><trkpt lat="44.1212822" lon="7.905826"><ele>1048.5</ele><time>2026-05-03T10:06:20.937Z</time></trkpt><trkpt lat="44.1212516" lon="7.9059919"><ele>1050.0</ele><time>2026-05-03T10:06:21.942Z</time></trkpt><trkpt lat="44.1212489" lon="7.9061582"><ele>1054.0</ele><time>2026-05-03T10:06:22.94Z</time></trkpt><trkpt lat="44.1212756" lon="7.9063041"><ele>1058.0</ele><time>2026-05-03T10:06:23.946Z</time></trkpt><trkpt lat="44.1213124" lon="7.9064532"><ele>1062.0</ele><time>2026-05-03T10:06:24.935Z</time></trkpt><trkpt lat="44.1213375" lon="7.9065964"><ele>1066.0</ele><time>2026-05-03T10:06:25.934Z</time></trkpt><trkpt lat="44.1213392" lon="7.9067295"><ele>1070.0</ele><time>2026-05-03T10:06:26.938Z</time></trkpt><trkpt lat="44.1213028" lon="7.9068478"><ele>1078.5</ele><time>2026-05-03T10:06:27.939Z</time></trkpt><trkpt lat="44.1212147" lon="7.9069542"><ele>1087.0</ele><time>2026-05-03T10:06:28.936Z</time></trkpt><trkpt lat="44.1211041" lon="7.9070247"><ele>1095.5</ele><time>2026-05-03T10:06:29.934Z</time></trkpt><trkpt lat="44.1209734" lon="7.9070821"><ele>1104.0</ele><time>2026-05-03T10:06:30.933Z</time></trkpt><trkpt lat="44.1208296" lon="7.907151"><ele>1101.3333333333333</ele><time>2026-05-03T10:06:31.942Z</time></trkpt><trkpt lat="44.1206761" lon="7.9072305"><ele>1098.6666666666665</ele><time>2026-05-03T10:06:32.936Z</time></trkpt><trkpt lat="44.1205194" lon="7.9073124"><ele>1096.0</ele><time>2026-05-03T10:06:33.947Z</time></trkpt><trkpt lat="44.1203579" lon="7.907389"><ele>1096.0</ele><time>2026-05-03T10:06:34.941Z</time></trkpt><trkpt lat="44.1201946" lon="7.9074669"><ele>1096.0</ele><time>2026-05-03T10:06:35.945Z</time></trkpt><trkpt lat="44.1200271" lon="7.907535"><ele>1096.0</ele><time>2026-05-03T10:06:36.943Z</time></trkpt><trkpt lat="44.1198612" lon="7.9075844"><ele>1098.75</ele><time>2026-05-03T10:06:37.949Z</time></trkpt><trkpt lat="44.1197016" lon="7.9075968"><ele>1101.5</ele><time>2026-05-03T10:06:38.945Z</time></trkpt><trkpt lat="44.1195543" lon="7.9075838"><ele>1104.25</ele><time>2026-05-03T10:06:39.937Z</time></trkpt><trkpt lat="44.1194222" lon="7.9075396"><ele>1107.0</ele><time>2026-05-03T10:06:40.959Z</time></trkpt><trkpt lat="44.1193055" lon="7.9074533"><ele>1107.0</ele><time>2026-05-03T10:06:41.941Z</time></trkpt><trkpt lat="44.1191852" lon="7.9073231"><ele>1107.0</ele><time>2026-05-03T10:06:42.941Z</time></trkpt><trkpt lat="44.1190748" lon="7.907226"><ele>1107.0</ele><time>2026-05-03T10:06:43.943Z</time></trkpt><trkpt lat="44.118946" lon="7.9071527"><ele>1107.0</ele><time>2026-05-03T10:06:44.939Z</time></trkpt><trkpt lat="44.1188219" lon="7.9071481"><ele>1108.25</ele><time>2026-05-03T10:06:45.948Z</time></trkpt><trkpt lat="44.118705" lon="7.907217"><ele>1109.5</ele><time>2026-05-03T10:06:46.94Z</time></trkpt><trkpt lat="44.1185939" lon="7.9073279"><ele>1110.75</ele><time>2026-05-03T10:06:47.941Z</time></trkpt><trkpt lat="44.1185001" lon="7.9074785"><ele>1112.0</ele><time>2026-05-03T10:06:48.936Z</time></trkpt><trkpt lat="44.1183933" lon="7.9076398"><ele>1112.0</ele><time>2026-05-03T10:06:49.934Z</time></trkpt><trkpt lat="44.1183123" lon="7.9078179"><ele>1112.0</ele><time>2026-05-03T10:06:50.939Z</time></trkpt><trkpt lat="44.1182392" lon="7.9080044"><ele>1112.0</ele><time>2026-05-03T10:06:51.951Z</time></trkpt><trkpt lat="44.1181833" lon="7.9082071"><ele>1104.3333333333335</ele><time>2026-05-03T10:06:52.944Z</time></trkpt><trkpt lat="44.1181205" lon="7.9084283"><ele>1096.6666666666667</ele><time>2026-05-03T10:06:53.949Z</time></trkpt><trkpt lat="44.1180617" lon="7.9086308"><ele>1089.0</ele><time>2026-05-03T10:06:54.948Z</time></trkpt><trkpt lat="44.1179896" lon="7.9088281"><ele>1089.0</ele><time>2026-05-03T10:06:55.96Z</time></trkpt><trkpt lat="44.117905" lon="7.9089926"><ele>1089.0</ele><time>2026-05-03T10:06:56.942Z</time></trkpt><trkpt lat="44.1178307" lon="7.9091485"><ele>1089.0</ele><time>2026-05-03T10:06:57.947Z</time></trkpt><trkpt lat="44.1177943" lon="7.9093186"><ele>1089.0</ele><time>2026-05-03T10:06:58.945Z</time></trkpt><trkpt lat="44.117785" lon="7.9094941"><ele>1089.5</ele><time>2026-05-03T10:06:59.947Z</time></trkpt><trkpt lat="44.1178103" lon="7.9096587"><ele>1090.0</ele><time>2026-05-03T10:07:00.951Z</time></trkpt><trkpt lat="44.1179022" lon="7.9098176"><ele>1090.5</ele><time>2026-05-03T10:07:01.948Z</time></trkpt><trkpt lat="44.1180142" lon="7.9099689"><ele>1091.0</ele><time>2026-05-03T10:07:02.946Z</time></trkpt><trkpt lat="44.118112" lon="7.9101232"><ele>1089.75</ele><time>2026-05-03T10:07:03.941Z</time></trkpt><trkpt lat="44.1181784" lon="7.9102965"><ele>1088.5</ele><time>2026-05-03T10:07:04.941Z</time></trkpt><trkpt lat="44.1182246" lon="7.9104849"><ele>1087.25</ele><time>2026-05-03T10:07:05.943Z</time></trkpt><trkpt lat="44.1182656" lon="7.9106736"><ele>1086.0</ele><time>2026-05-03T10:07:06.941Z</time></trkpt><trkpt lat="44.118299" lon="7.9108684"><ele>1093.75</ele><time>2026-05-03T10:07:07.942Z</time></trkpt><trkpt lat="44.1183081" lon="7.9110782"><ele>1101.5</ele><time>2026-05-03T10:07:08.948Z</time></trkpt><trkpt lat="44.1183111" lon="7.9112876"><ele>1109.25</ele><time>2026-05-03T10:07:09.948Z</time></trkpt><trkpt lat="44.118324" lon="7.9114877"><ele>1117.0</ele><time>2026-05-03T10:07:10.945Z</time></trkpt><trkpt lat="44.1183591" lon="7.9116714"><ele>1117.0</ele><time>2026-05-03T10:07:11.945Z</time></trkpt><trkpt lat="44.1184216" lon="7.9118603"><ele>1117.0</ele><time>2026-05-03T10:07:12.941Z</time></trkpt><trkpt lat="44.1184965" lon="7.9120647"><ele>1117.0</ele><time>2026-05-03T10:07:13.945Z</time></trkpt><trkpt lat="44.1185695" lon="7.9122599"><ele>1117.0</ele><time>2026-05-03T10:07:14.945Z</time></trkpt><trkpt lat="44.1186588" lon="7.912449"><ele>1117.0</ele><time>2026-05-03T10:07:15.952Z</time></trkpt><trkpt lat="44.1187497" lon="7.9126178"><ele>1117.0</ele><time>2026-05-03T10:07:16.944Z</time></trkpt><trkpt lat="44.1188095" lon="7.9127958"><ele>1116.0</ele><time>2026-05-03T10:07:17.951Z</time></trkpt><trkpt lat="44.1188425" lon="7.9130063"><ele>1115.0</ele><time>2026-05-03T10:07:18.945Z</time></trkpt><trkpt lat="44.1188685" lon="7.9132153"><ele>1114.0</ele><time>2026-05-03T10:07:19.943Z</time></trkpt><trkpt lat="44.1189049" lon="7.913424"><ele>1117.5</ele><time>2026-05-03T10:07:20.933Z</time></trkpt><trkpt lat="44.11897" lon="7.9136223"><ele>1121.0</ele><time>2026-05-03T10:07:21.942Z</time></trkpt><trkpt lat="44.1190475" lon="7.9137919"><ele>1124.5</ele><time>2026-05-03T10:07:22.948Z</time></trkpt><trkpt lat="44.1191209" lon="7.9139388"><ele>1128.0</ele><time>2026-05-03T10:07:23.943Z</time></trkpt><trkpt lat="44.1191662" lon="7.9140798"><ele>1133.0</ele><time>2026-05-03T10:07:24.943Z</time></trkpt><trkpt lat="44.119175" lon="7.9142121"><ele>1138.0</ele><time>2026-05-03T10:07:25.942Z</time></trkpt><trkpt lat="44.119133" lon="7.9143397"><ele>1143.0</ele><time>2026-05-03T10:07:26.937Z</time></trkpt><trkpt lat="44.1190597" lon="7.9144345"><ele>1148.0</ele><time>2026-05-03T10:07:27.943Z</time></trkpt><trkpt lat="44.1189486" lon="7.9144873"><ele>1153.0</ele><time>2026-05-03T10:07:28.937Z</time></trkpt><trkpt lat="44.1188252" lon="7.9145184"><ele>1153.0</ele><time>2026-05-03T10:07:29.944Z</time></trkpt><trkpt lat="44.1186984" lon="7.9145542"><ele>1153.0</ele><time>2026-05-03T10:07:30.937Z</time></trkpt><trkpt lat="44.1185858" lon="7.9146137"><ele>1153.0</ele><time>2026-05-03T10:07:31.943Z</time></trkpt><trkpt lat="44.1184873" lon="7.9146982"><ele>1153.0</ele><time>2026-05-03T10:07:32.94Z</time></trkpt><trkpt lat="44.1183977" lon="7.9148195"><ele>1153.0</ele><time>2026-05-03T10:07:33.938Z</time></trkpt><trkpt lat="44.1183276" lon="7.9149884"><ele>1153.0</ele><time>2026-05-03T10:07:34.941Z</time></trkpt><trkpt lat="44.1182757" lon="7.9151725"><ele>1153.0</ele><time>2026-05-03T10:07:35.948Z</time></trkpt><trkpt lat="44.1182234" lon="7.9153597"><ele>1153.0</ele><time>2026-05-03T10:07:36.939Z</time></trkpt><trkpt lat="44.1181637" lon="7.9155588"><ele>1158.0</ele><time>2026-05-03T10:07:37.938Z</time></trkpt><trkpt lat="44.1181042" lon="7.9157493"><ele>1163.0</ele><time>2026-05-03T10:07:38.938Z</time></trkpt><trkpt lat="44.1180557" lon="7.9159324"><ele>1168.0</ele><time>2026-05-03T10:07:39.94Z</time></trkpt><trkpt lat="44.1180012" lon="7.9160827"><ele>1173.0</ele><time>2026-05-03T10:07:40.943Z</time></trkpt><trkpt lat="44.1179057" lon="7.9161832"><ele>1173.0</ele><time>2026-05-03T10:07:41.935Z</time></trkpt><trkpt lat="44.1178037" lon="7.9162167"><ele>1173.0</ele><time>2026-05-03T10:07:42.949Z</time></trkpt><trkpt lat="44.1177201" lon="7.9161842"><ele>1173.0</ele><time>2026-05-03T10:07:43.948Z</time></trkpt><trkpt lat="44.1176473" lon="7.9161071"><ele>1173.0</ele><time>2026-05-03T10:07:44.936Z</time></trkpt><trkpt lat="44.1175541" lon="7.9159977"><ele>1173.0</ele><time>2026-05-03T10:07:45.935Z</time></trkpt><trkpt lat="44.1174514" lon="7.915845"><ele>1168.25</ele><time>2026-05-03T10:07:46.944Z</time></trkpt><trkpt lat="44.1173584" lon="7.9157018"><ele>1163.5</ele><time>2026-05-03T10:07:47.942Z</time></trkpt><trkpt lat="44.1172914" lon="7.9155428"><ele>1158.75</ele><time>2026-05-03T10:07:48.952Z</time></trkpt><trkpt lat="44.1172224" lon="7.9153985"><ele>1154.0</ele><time>2026-05-03T10:07:49.941Z</time></trkpt><trkpt lat="44.117138" lon="7.9153352"><ele>1154.0</ele><time>2026-05-03T10:07:50.935Z</time></trkpt><trkpt lat="44.1170463" lon="7.915358"><ele>1154.0</ele><time>2026-05-03T10:07:51.928Z</time></trkpt><trkpt lat="44.1169727" lon="7.9154194"><ele>1154.0</ele><time>2026-05-03T10:07:52.939Z</time></trkpt><trkpt lat="44.116916" lon="7.9155586"><ele>1154.0</ele><time>2026-05-03T10:07:53.94Z</time></trkpt><trkpt lat="44.1168789" lon="7.9157219"><ele>1154.0</ele><time>2026-05-03T10:07:54.938Z</time></trkpt><trkpt lat="44.1168612" lon="7.9159104"><ele>1158.0</ele><time>2026-05-03T10:07:55.937Z</time></trkpt><trkpt lat="44.1168488" lon="7.9161108"><ele>1162.0</ele><time>2026-05-03T10:07:56.942Z</time></trkpt><trkpt lat="44.1168419" lon="7.9163285"><ele>1166.0</ele><time>2026-05-03T10:07:57.929Z</time></trkpt><trkpt lat="44.1168336" lon="7.9165571"><ele>1171.6666666666667</ele><time>2026-05-03T10:07:58.939Z</time></trkpt><trkpt lat="44.116815" lon="7.9167883"><ele>1177.3333333333333</ele><time>2026-05-03T10:07:59.943Z</time></trkpt><trkpt lat="44.1167897" lon="7.9170121"><ele>1183.0</ele><time>2026-05-03T10:08:00.938Z</time></trkpt><trkpt lat="44.1167688" lon="7.9172371"><ele>1183.0</ele><time>2026-05-03T10:08:01.925Z</time></trkpt><trkpt lat="44.1167525" lon="7.9174566"><ele>1183.0</ele><time>2026-05-03T10:08:02.947Z</time></trkpt><trkpt lat="44.1167335" lon="7.9176568"><ele>1183.0</ele><time>2026-05-03T10:08:03.934Z</time></trkpt><trkpt lat="44.1167128" lon="7.917843"><ele>1183.0</ele><time>2026-05-03T10:08:04.928Z</time></trkpt><trkpt lat="44.1166915" lon="7.9180044"><ele>1187.25</ele><time>2026-05-03T10:08:05.939Z</time></trkpt><trkpt lat="44.1166622" lon="7.9181581"><ele>1191.5</ele><time>2026-05-03T10:08:06.934Z</time></trkpt><trkpt lat="44.1166006" lon="7.9182934"><ele>1195.75</ele><time>2026-05-03T10:08:07.937Z</time></trkpt><trkpt lat="44.1165094" lon="7.9183895"><ele>1200.0</ele><time>2026-05-03T10:08:08.934Z</time></trkpt><trkpt lat="44.1163932" lon="7.9184413"><ele>1201.0</ele><time>2026-05-03T10:08:09.936Z</time></trkpt><trkpt lat="44.1162817" lon="7.9184739"><ele>1202.0</ele><time>2026-05-03T10:08:10.934Z</time></trkpt><trkpt lat="44.1161653" lon="7.918502"><ele>1203.0</ele><time>2026-05-03T10:08:11.93Z</time></trkpt><trkpt lat="44.1160697" lon="7.918502"><ele>1204.0</ele><time>2026-05-03T10:08:12.943Z</time></trkpt><trkpt lat="44.1159689" lon="7.918446"><ele>1205.0</ele><time>2026-05-03T10:08:13.935Z</time></trkpt><trkpt lat="44.1158748" lon="7.9183687"><ele>1205.0</ele><time>2026-05-03T10:08:14.935Z</time></trkpt><trkpt lat="44.1157765" lon="7.9182493"><ele>1205.0</ele><time>2026-05-03T10:08:15.942Z</time></trkpt><trkpt lat="44.1156763" lon="7.9181149"><ele>1205.0</ele><time>2026-05-03T10:08:16.939Z</time></trkpt><trkpt lat="44.1155696" lon="7.9179763"><ele>1205.0</ele><time>2026-05-03T10:08:17.948Z</time></trkpt><trkpt lat="44.115444" lon="7.9178451"><ele>1204.0</ele><time>2026-05-03T10:08:18.944Z</time></trkpt><trkpt lat="44.1152923" lon="7.9177241"><ele>1203.0</ele><time>2026-05-03T10:08:19.94Z</time></trkpt><trkpt lat="44.115139" lon="7.9176203"><ele>1202.0</ele><time>2026-05-03T10:08:20.945Z</time></trkpt><trkpt lat="44.114983" lon="7.9175163"><ele>1198.0</ele><time>2026-05-03T10:08:21.947Z</time></trkpt><trkpt lat="44.1148605" lon="7.9174127"><ele>1194.0</ele><time>2026-05-03T10:08:22.94Z</time></trkpt><trkpt lat="44.1147639" lon="7.9173172"><ele>1190.0</ele><time>2026-05-03T10:08:23.94Z</time></trkpt><trkpt lat="44.1146683" lon="7.9172597"><ele>1186.0</ele><time>2026-05-03T10:08:24.946Z</time></trkpt><trkpt lat="44.1145738" lon="7.917243"><ele>1186.0</ele><time>2026-05-03T10:08:25.943Z</time></trkpt><trkpt lat="44.1144877" lon="7.9173053"><ele>1186.0</ele><time>2026-05-03T10:08:26.937Z</time></trkpt><trkpt lat="44.1144367" lon="7.9174234"><ele>1186.0</ele><time>2026-05-03T10:08:27.952Z</time></trkpt><trkpt lat="44.1144081" lon="7.9175863"><ele>1186.0</ele><time>2026-05-03T10:08:28.936Z</time></trkpt><trkpt lat="44.1143964" lon="7.9177626"><ele>1186.0</ele><time>2026-05-03T10:08:29.937Z</time></trkpt><trkpt lat="44.1143854" lon="7.9179398"><ele>1192.25</ele><time>2026-05-03T10:08:30.942Z</time></trkpt><trkpt lat="44.1143651" lon="7.9181128"><ele>1198.5</ele><time>2026-05-03T10:08:31.942Z</time></trkpt><trkpt lat="44.1143524" lon="7.9182779"><ele>1204.75</ele><time>2026-05-03T10:08:32.943Z</time></trkpt><trkpt lat="44.1143345" lon="7.9184206"><ele>1211.0</ele><time>2026-05-03T10:08:33.938Z</time></trkpt><trkpt lat="44.1142773" lon="7.9185392"><ele>1214.0</ele><time>2026-05-03T10:08:34.946Z</time></trkpt><trkpt lat="44.1141884" lon="7.9186247"><ele>1217.0</ele><time>2026-05-03T10:08:35.946Z</time></trkpt><trkpt lat="44.1140774" lon="7.9186722"><ele>1220.0</ele><time>2026-05-03T10:08:36.942Z</time></trkpt><trkpt lat="44.1139583" lon="7.9187098"><ele>1223.0</ele><time>2026-05-03T10:08:37.944Z</time></trkpt><trkpt lat="44.1138357" lon="7.9187438"><ele>1223.0</ele><time>2026-05-03T10:08:38.939Z</time></trkpt><trkpt lat="44.1137176" lon="7.9187767"><ele>1223.0</ele><time>2026-05-03T10:08:39.946Z</time></trkpt><trkpt lat="44.11361" lon="7.9188153"><ele>1223.0</ele><time>2026-05-03T10:08:40.946Z</time></trkpt><trkpt lat="44.113507" lon="7.918875"><ele>1223.0</ele><time>2026-05-03T10:08:41.944Z</time></trkpt><trkpt lat="44.1133981" lon="7.9189945"><ele>1223.0</ele><time>2026-05-03T10:08:42.94Z</time></trkpt><trkpt lat="44.1133015" lon="7.919152"><ele>1223.0</ele><time>2026-05-03T10:08:43.937Z</time></trkpt><trkpt lat="44.113206" lon="7.9193072"><ele>1223.0</ele><time>2026-05-03T10:08:44.939Z</time></trkpt><trkpt lat="44.1130941" lon="7.919466"><ele>1225.0</ele><time>2026-05-03T10:08:45.945Z</time></trkpt><trkpt lat="44.1129743" lon="7.9196174"><ele>1227.0</ele><time>2026-05-03T10:08:46.943Z</time></trkpt><trkpt lat="44.1128417" lon="7.9197667"><ele>1229.0</ele><time>2026-05-03T10:08:47.942Z</time></trkpt><trkpt lat="44.1127116" lon="7.9199281"><ele>1228.6666666666667</ele><time>2026-05-03T10:08:48.944Z</time></trkpt><trkpt lat="44.1125858" lon="7.9200964"><ele>1228.3333333333333</ele><time>2026-05-03T10:08:49.938Z</time></trkpt><trkpt lat="44.1124599" lon="7.9202825"><ele>1228.0</ele><time>2026-05-03T10:08:50.94Z</time></trkpt><trkpt lat="44.1123357" lon="7.9204612"><ele>1228.0</ele><time>2026-05-03T10:08:51.94Z</time></trkpt><trkpt lat="44.1122067" lon="7.9206029"><ele>1228.0</ele><time>2026-05-03T10:08:52.939Z</time></trkpt><trkpt lat="44.1120774" lon="7.9207156"><ele>1228.0</ele><time>2026-05-03T10:08:53.961Z</time></trkpt><trkpt lat="44.1119755" lon="7.920819"><ele>1228.0</ele><time>2026-05-03T10:08:54.944Z</time></trkpt><trkpt lat="44.1118853" lon="7.9209271"><ele>1235.25</ele><time>2026-05-03T10:08:55.942Z</time></trkpt><trkpt lat="44.1118003" lon="7.9210774"><ele>1242.5</ele><time>2026-05-03T10:08:56.94Z</time></trkpt><trkpt lat="44.1117271" lon="7.921258"><ele>1249.75</ele><time>2026-05-03T10:08:57.95Z</time></trkpt><trkpt lat="44.1116642" lon="7.9214361"><ele>1257.0</ele><time>2026-05-03T10:08:58.941Z</time></trkpt><trkpt lat="44.1116188" lon="7.9216205"><ele>1261.6</ele><time>2026-05-03T10:08:59.936Z</time></trkpt><trkpt lat="44.1115707" lon="7.9217829"><ele>1266.2</ele><time>2026-05-03T10:09:00.944Z</time></trkpt><trkpt lat="44.1115121" lon="7.9219182"><ele>1270.8</ele><time>2026-05-03T10:09:01.932Z</time></trkpt><trkpt lat="44.1114362" lon="7.9220218"><ele>1275.4</ele><time>2026-05-03T10:09:02.944Z</time></trkpt><trkpt lat="44.1113475" lon="7.9220665"><ele>1280.0</ele><time>2026-05-03T10:09:03.941Z</time></trkpt><trkpt lat="44.1112233" lon="7.9220596"><ele>1280.0</ele><time>2026-05-03T10:09:04.941Z</time></trkpt><trkpt lat="44.1110887" lon="7.9220347"><ele>1280.0</ele><time>2026-05-03T10:09:05.938Z</time></trkpt><trkpt lat="44.1109469" lon="7.9220598"><ele>1280.0</ele><time>2026-05-03T10:09:06.942Z</time></trkpt><trkpt lat="44.1107932" lon="7.9220952"><ele>1280.0</ele><time>2026-05-03T10:09:07.95Z</time></trkpt><trkpt lat="44.1106416" lon="7.9221389"><ele>1281.5</ele><time>2026-05-03T10:09:08.947Z</time></trkpt><trkpt lat="44.1105194" lon="7.9222155"><ele>1283.0</ele><time>2026-05-03T10:09:09.942Z</time></trkpt><trkpt lat="44.1104126" lon="7.9222961"><ele>1284.5</ele><time>2026-05-03T10:09:10.945Z</time></trkpt><trkpt lat="44.110309" lon="7.92234"><ele>1286.0</ele><time>2026-05-03T10:09:11.933Z</time></trkpt><trkpt lat="44.1102038" lon="7.9223196"><ele>1286.0</ele><time>2026-05-03T10:09:12.942Z</time></trkpt><trkpt lat="44.1101027" lon="7.9222492"><ele>1286.0</ele><time>2026-05-03T10:09:13.931Z</time></trkpt><trkpt lat="44.1100132" lon="7.9221591"><ele>1286.0</ele><time>2026-05-03T10:09:14.941Z</time></trkpt><trkpt lat="44.1099347" lon="7.92203"><ele>1286.0</ele><time>2026-05-03T10:09:15.933Z</time></trkpt><trkpt lat="44.1098732" lon="7.9218672"><ele>1286.5</ele><time>2026-05-03T10:09:16.931Z</time></trkpt><trkpt lat="44.1097881" lon="7.9217415"><ele>1287.0</ele><time>2026-05-03T10:09:17.935Z</time></trkpt><trkpt lat="44.1096774" lon="7.9216442"><ele>1287.5</ele><time>2026-05-03T10:09:18.939Z</time></trkpt><trkpt lat="44.1095602" lon="7.921566"><ele>1288.0</ele><time>2026-05-03T10:09:19.943Z</time></trkpt><trkpt lat="44.1094443" lon="7.9214873"><ele>1288.0</ele><time>2026-05-03T10:09:20.936Z</time></trkpt><trkpt lat="44.109324" lon="7.9213789"><ele>1288.0</ele><time>2026-05-03T10:09:21.933Z</time></trkpt><trkpt lat="44.10921" lon="7.9212546"><ele>1288.0</ele><time>2026-05-03T10:09:22.938Z</time></trkpt><trkpt lat="44.1091016" lon="7.9211206"><ele>1288.0</ele><time>2026-05-03T10:09:23.939Z</time></trkpt><trkpt lat="44.1089986" lon="7.9209993"><ele>1282.0</ele><time>2026-05-03T10:09:24.939Z</time></trkpt><trkpt lat="44.1089014" lon="7.9208949"><ele>1276.0</ele><time>2026-05-03T10:09:25.945Z</time></trkpt><trkpt lat="44.1087956" lon="7.9208312"><ele>1270.0</ele><time>2026-05-03T10:09:26.948Z</time></trkpt><trkpt lat="44.1086741" lon="7.9208039"><ele>1264.0</ele><time>2026-05-03T10:09:27.943Z</time></trkpt><trkpt lat="44.108568" lon="7.9208488"><ele>1268.5</ele><time>2026-05-03T10:09:28.948Z</time></trkpt><trkpt lat="44.1084799" lon="7.9209765"><ele>1273.0</ele><time>2026-05-03T10:09:29.945Z</time></trkpt><trkpt lat="44.1084019" lon="7.9211316"><ele>1277.5</ele><time>2026-05-03T10:09:30.947Z</time></trkpt><trkpt lat="44.10833" lon="7.921289"><ele>1282.0</ele><time>2026-05-03T10:09:31.927Z</time></trkpt><trkpt lat="44.1082539" lon="7.9214549"><ele>1280.75</ele><time>2026-05-03T10:09:32.941Z</time></trkpt><trkpt lat="44.1081812" lon="7.9216332"><ele>1279.5</ele><time>2026-05-03T10:09:33.945Z</time></trkpt><trkpt lat="44.1081129" lon="7.921811"><ele>1278.25</ele><time>2026-05-03T10:09:34.953Z</time></trkpt><trkpt lat="44.1080469" lon="7.921989"><ele>1277.0</ele><time>2026-05-03T10:09:35.941Z</time></trkpt><trkpt lat="44.1079705" lon="7.9221679"><ele>1277.0</ele><time>2026-05-03T10:09:36.935Z</time></trkpt><trkpt lat="44.1078956" lon="7.9223482"><ele>1277.0</ele><time>2026-05-03T10:09:37.942Z</time></trkpt><trkpt lat="44.1078227" lon="7.9225186"><ele>1277.0</ele><time>2026-05-03T10:09:38.947Z</time></trkpt><trkpt lat="44.1077433" lon="7.9226787"><ele>1277.0</ele><time>2026-05-03T10:09:39.948Z</time></trkpt><trkpt lat="44.1076494" lon="7.9228076"><ele>1278.5</ele><time>2026-05-03T10:09:40.948Z</time></trkpt><trkpt lat="44.1075688" lon="7.9229159"><ele>1280.0</ele><time>2026-05-03T10:09:41.938Z</time></trkpt><trkpt lat="44.1075014" lon="7.923016"><ele>1281.5</ele><time>2026-05-03T10:09:42.958Z</time></trkpt><trkpt lat="44.1074497" lon="7.9231207"><ele>1283.0</ele><time>2026-05-03T10:09:43.947Z</time></trkpt><trkpt lat="44.1074374" lon="7.9232143"><ele>1284.5</ele><time>2026-05-03T10:09:44.942Z</time></trkpt><trkpt lat="44.1074833" lon="7.9232871"><ele>1286.0</ele><time>2026-05-03T10:09:45.945Z</time></trkpt><trkpt lat="44.1075537" lon="7.9233008"><ele>1286.0</ele><time>2026-05-03T10:09:46.938Z</time></trkpt><trkpt lat="44.1076243" lon="7.9232461"><ele>1286.0</ele><time>2026-05-03T10:09:47.946Z</time></trkpt><trkpt lat="44.1076716" lon="7.9231556"><ele>1286.0</ele><time>2026-05-03T10:09:48.945Z</time></trkpt><trkpt lat="44.1077161" lon="7.9230468"><ele>1286.0</ele><time>2026-05-03T10:09:49.943Z</time></trkpt><trkpt lat="44.1077952" lon="7.9229522"><ele>1286.0</ele><time>2026-05-03T10:09:50.943Z</time></trkpt><trkpt lat="44.1079083" lon="7.9228952"><ele>1286.0</ele><time>2026-05-03T10:09:51.945Z</time></trkpt><trkpt lat="44.1080229" lon="7.9228689"><ele>1286.0</ele><time>2026-05-03T10:09:52.947Z</time></trkpt><trkpt lat="44.1081593" lon="7.9228237"><ele>1286.0</ele><time>2026-05-03T10:09:53.944Z</time></trkpt><trkpt lat="44.1082906" lon="7.9227538"><ele>1286.0</ele><time>2026-05-03T10:09:54.949Z</time></trkpt><trkpt lat="44.1084222" lon="7.9226659"><ele>1289.0</ele><time>2026-05-03T10:09:55.943Z</time></trkpt><trkpt lat="44.1085475" lon="7.9225755"><ele>1292.0</ele><time>2026-05-03T10:09:56.941Z</time></trkpt><trkpt lat="44.108672" lon="7.9224892"><ele>1295.0</ele><time>2026-05-03T10:09:57.961Z</time></trkpt><trkpt lat="44.1088073" lon="7.9224394"><ele>1298.0</ele><time>2026-05-03T10:09:58.944Z</time></trkpt><trkpt lat="44.1089353" lon="7.9224165"><ele>1298.0</ele><time>2026-05-03T10:09:59.943Z</time></trkpt><trkpt lat="44.1090719" lon="7.9224284"><ele>1298.0</ele><time>2026-05-03T10:10:00.955Z</time></trkpt><trkpt lat="44.1091981" lon="7.9224612"><ele>1298.0</ele><time>2026-05-03T10:10:01.938Z</time></trkpt><trkpt lat="44.1093141" lon="7.9224921"><ele>1298.0</ele><time>2026-05-03T10:10:02.954Z</time></trkpt><trkpt lat="44.1094028" lon="7.922549"><ele>1302.5</ele><time>2026-05-03T10:10:03.946Z</time></trkpt><trkpt lat="44.1094579" lon="7.9226408"><ele>1307.0</ele><time>2026-05-03T10:10:04.94Z</time></trkpt><trkpt lat="44.1094595" lon="7.9227559"><ele>1311.5</ele><time>2026-05-03T10:10:05.943Z</time></trkpt><trkpt lat="44.1094315" lon="7.9228402"><ele>1316.0</ele><time>2026-05-03T10:10:06.945Z</time></trkpt><trkpt lat="44.1093663" lon="7.9228593"><ele>1320.5</ele><time>2026-05-03T10:10:07.942Z</time></trkpt><trkpt lat="44.1092443" lon="7.9227662"><ele>1325.0</ele><time>2026-05-03T10:10:09.937Z</time></trkpt><trkpt lat="44.1091675" lon="7.9226964"><ele>1325.0</ele><time>2026-05-03T10:10:10.945Z</time></trkpt><trkpt lat="44.1090777" lon="7.9226766"><ele>1325.0</ele><time>2026-05-03T10:10:11.954Z</time></trkpt><trkpt lat="44.1089974" lon="7.9227071"><ele>1325.0</ele><time>2026-05-03T10:10:12.946Z</time></trkpt><trkpt lat="44.1089113" lon="7.9227637"><ele>1325.0</ele><time>2026-05-03T10:10:13.939Z</time></trkpt><trkpt lat="44.1088104" lon="7.9228371"><ele>1325.0</ele><time>2026-05-03T10:10:14.948Z</time></trkpt><trkpt lat="44.1087136" lon="7.9229192"><ele>1324.25</ele><time>2026-05-03T10:10:15.945Z</time></trkpt><trkpt lat="44.108623" lon="7.9230278"><ele>1323.5</ele><time>2026-05-03T10:10:16.953Z</time></trkpt><trkpt lat="44.1085478" lon="7.9231624"><ele>1322.75</ele><time>2026-05-03T10:10:17.954Z</time></trkpt><trkpt lat="44.1084968" lon="7.923324"><ele>1322.0</ele><time>2026-05-03T10:10:18.943Z</time></trkpt><trkpt lat="44.1084591" lon="7.9234992"><ele>1322.0</ele><time>2026-05-03T10:10:19.935Z</time></trkpt><trkpt lat="44.1084279" lon="7.9236701"><ele>1322.0</ele><time>2026-05-03T10:10:20.939Z</time></trkpt><trkpt lat="44.1083992" lon="7.9238473"><ele>1322.0</ele><time>2026-05-03T10:10:21.954Z</time></trkpt><trkpt lat="44.1083655" lon="7.9240265"><ele>1322.0</ele><time>2026-05-03T10:10:22.946Z</time></trkpt><trkpt lat="44.1083326" lon="7.9242187"><ele>1321.8</ele><time>2026-05-03T10:10:23.949Z</time></trkpt><trkpt lat="44.1083067" lon="7.9243818"><ele>1321.6</ele><time>2026-05-03T10:10:24.949Z</time></trkpt><trkpt lat="44.1082937" lon="7.9245278"><ele>1321.3999999999999</ele><time>2026-05-03T10:10:25.942Z</time></trkpt><trkpt lat="44.1082945" lon="7.924659"><ele>1321.1999999999998</ele><time>2026-05-03T10:10:26.948Z</time></trkpt><trkpt lat="44.1083265" lon="7.9247933"><ele>1321.0</ele><time>2026-05-03T10:10:27.946Z</time></trkpt><trkpt lat="44.1084129" lon="7.9248892"><ele>1321.0</ele><time>2026-05-03T10:10:28.939Z</time></trkpt><trkpt lat="44.1085283" lon="7.9249498"><ele>1321.0</ele><time>2026-05-03T10:10:29.938Z</time></trkpt><trkpt lat="44.1086657" lon="7.9249756"><ele>1321.0</ele><time>2026-05-03T10:10:30.946Z</time></trkpt><trkpt lat="44.1088102" lon="7.9249841"><ele>1321.0</ele><time>2026-05-03T10:10:31.952Z</time></trkpt><trkpt lat="44.1089273" lon="7.9250167"><ele>1319.6</ele><time>2026-05-03T10:10:32.947Z</time></trkpt><trkpt lat="44.1090262" lon="7.9250841"><ele>1318.1999999999998</ele><time>2026-05-03T10:10:33.943Z</time></trkpt><trkpt lat="44.1090894" lon="7.9251977"><ele>1316.8000000000002</ele><time>2026-05-03T10:10:34.951Z</time></trkpt><trkpt lat="44.1090968" lon="7.9253295"><ele>1315.4</ele><time>2026-05-03T10:10:35.935Z</time></trkpt><trkpt lat="44.1090994" lon="7.9254946"><ele>1314.0</ele><time>2026-05-03T10:10:36.953Z</time></trkpt><trkpt lat="44.1091256" lon="7.9256627"><ele>1321.0</ele><time>2026-05-03T10:10:37.946Z</time></trkpt><trkpt lat="44.109186" lon="7.9258382"><ele>1328.0</ele><time>2026-05-03T10:10:38.947Z</time></trkpt><trkpt lat="44.1092575" lon="7.9260301"><ele>1335.0</ele><time>2026-05-03T10:10:39.946Z</time></trkpt><trkpt lat="44.1093225" lon="7.9262117"><ele>1342.0</ele><time>2026-05-03T10:10:40.943Z</time></trkpt><trkpt lat="44.1093705" lon="7.9264003"><ele>1342.75</ele><time>2026-05-03T10:10:41.943Z</time></trkpt><trkpt lat="44.1093882" lon="7.9266081"><ele>1343.5</ele><time>2026-05-03T10:10:42.944Z</time></trkpt><trkpt lat="44.1093762" lon="7.9268034"><ele>1344.25</ele><time>2026-05-03T10:10:43.94Z</time></trkpt><trkpt lat="44.1093269" lon="7.9269878"><ele>1345.0</ele><time>2026-05-03T10:10:44.939Z</time></trkpt><trkpt lat="44.1092565" lon="7.9271639"><ele>1342.75</ele><time>2026-05-03T10:10:45.946Z</time></trkpt><trkpt lat="44.1091632" lon="7.9273153"><ele>1340.5</ele><time>2026-05-03T10:10:46.939Z</time></trkpt><trkpt lat="44.109055" lon="7.9274454"><ele>1338.25</ele><time>2026-05-03T10:10:47.935Z</time></trkpt><trkpt lat="44.1089305" lon="7.9275631"><ele>1336.0</ele><time>2026-05-03T10:10:48.936Z</time></trkpt><trkpt lat="44.1088116" lon="7.9276878"><ele>1343.3333333333333</ele><time>2026-05-03T10:10:49.944Z</time></trkpt><trkpt lat="44.1087002" lon="7.927837"><ele>1350.6666666666667</ele><time>2026-05-03T10:10:50.939Z</time></trkpt><trkpt lat="44.1085999" lon="7.9280036"><ele>1358.0</ele><time>2026-05-03T10:10:51.941Z</time></trkpt><trkpt lat="44.1085018" lon="7.9281758"><ele>1358.0</ele><time>2026-05-03T10:10:52.94Z</time></trkpt><trkpt lat="44.1084077" lon="7.9283591"><ele>1358.0</ele><time>2026-05-03T10:10:53.941Z</time></trkpt><trkpt lat="44.1083235" lon="7.9285597"><ele>1358.0</ele><time>2026-05-03T10:10:54.943Z</time></trkpt><trkpt lat="44.1082642" lon="7.9287647"><ele>1360.5</ele><time>2026-05-03T10:10:55.948Z</time></trkpt><trkpt lat="44.108218" lon="7.9289648"><ele>1363.0</ele><time>2026-05-03T10:10:56.941Z</time></trkpt><trkpt lat="44.1081902" lon="7.9291235"><ele>1365.5</ele><time>2026-05-03T10:10:57.941Z</time></trkpt><trkpt lat="44.1081601" lon="7.9292618"><ele>1368.0</ele><time>2026-05-03T10:10:58.939Z</time></trkpt><trkpt lat="44.1081269" lon="7.9293656"><ele>1368.0</ele><time>2026-05-03T10:10:59.935Z</time></trkpt><trkpt lat="44.1080988" lon="7.9294659"><ele>1368.0</ele><time>2026-05-03T10:11:00.94Z</time></trkpt><trkpt lat="44.1080812" lon="7.9295759"><ele>1368.0</ele><time>2026-05-03T10:11:01.948Z</time></trkpt><trkpt lat="44.1080925" lon="7.9296894"><ele>1368.0</ele><time>2026-05-03T10:11:02.951Z</time></trkpt><trkpt lat="44.1081418" lon="7.9297836"><ele>1368.0</ele><time>2026-05-03T10:11:03.944Z</time></trkpt><trkpt lat="44.1082267" lon="7.9298449"><ele>1368.0</ele><time>2026-05-03T10:11:04.943Z</time></trkpt><trkpt lat="44.1083093" lon="7.9298698"><ele>1369.2</ele><time>2026-05-03T10:11:05.947Z</time></trkpt><trkpt lat="44.1084017" lon="7.9298503"><ele>1370.4</ele><time>2026-05-03T10:11:06.949Z</time></trkpt><trkpt lat="44.1084933" lon="7.9297832"><ele>1371.6000000000001</ele><time>2026-05-03T10:11:07.95Z</time></trkpt><trkpt lat="44.1085866" lon="7.9296889"><ele>1372.8000000000002</ele><time>2026-05-03T10:11:08.944Z</time></trkpt><trkpt lat="44.108681" lon="7.9295782"><ele>1374.0</ele><time>2026-05-03T10:11:09.949Z</time></trkpt><trkpt lat="44.1087867" lon="7.9294516"><ele>1374.0</ele><time>2026-05-03T10:11:10.955Z</time></trkpt><trkpt lat="44.108909" lon="7.9293227"><ele>1374.0</ele><time>2026-05-03T10:11:11.966Z</time></trkpt><trkpt lat="44.1090282" lon="7.929214"><ele>1374.0</ele><time>2026-05-03T10:11:12.945Z</time></trkpt><trkpt lat="44.1091543" lon="7.9291433"><ele>1374.0</ele><time>2026-05-03T10:11:13.948Z</time></trkpt><trkpt lat="44.1092769" lon="7.9291133"><ele>1374.5</ele><time>2026-05-03T10:11:14.948Z</time></trkpt><trkpt lat="44.1094108" lon="7.9290899"><ele>1375.0</ele><time>2026-05-03T10:11:15.942Z</time></trkpt><trkpt lat="44.1095345" lon="7.9290344"><ele>1375.5</ele><time>2026-05-03T10:11:16.946Z</time></trkpt><trkpt lat="44.1096519" lon="7.9289373"><ele>1376.0</ele><time>2026-05-03T10:11:17.957Z</time></trkpt><trkpt lat="44.1097649" lon="7.928825"><ele>1376.0</ele><time>2026-05-03T10:11:18.942Z</time></trkpt><trkpt lat="44.109885" lon="7.9286932"><ele>1376.0</ele><time>2026-05-03T10:11:19.949Z</time></trkpt><trkpt lat="44.1100023" lon="7.9285635"><ele>1376.0</ele><time>2026-05-03T10:11:20.948Z</time></trkpt><trkpt lat="44.1101355" lon="7.9284576"><ele>1376.0</ele><time>2026-05-03T10:11:21.945Z</time></trkpt><trkpt lat="44.1102791" lon="7.9283588"><ele>1376.0</ele><time>2026-05-03T10:11:22.945Z</time></trkpt><trkpt lat="44.1104155" lon="7.9282555"><ele>1376.0</ele><time>2026-05-03T10:11:23.946Z</time></trkpt><trkpt lat="44.1105436" lon="7.9281513"><ele>1376.0</ele><time>2026-05-03T10:11:24.95Z</time></trkpt><trkpt lat="44.1106689" lon="7.9280478"><ele>1376.0</ele><time>2026-05-03T10:11:25.955Z</time></trkpt><trkpt lat="44.1108008" lon="7.9279799"><ele>1376.0</ele><time>2026-05-03T10:11:26.947Z</time></trkpt><trkpt lat="44.1109348" lon="7.9279588"><ele>1376.0</ele><time>2026-05-03T10:11:27.949Z</time></trkpt><trkpt lat="44.1110763" lon="7.9279856"><ele>1369.5</ele><time>2026-05-03T10:11:28.939Z</time></trkpt><trkpt lat="44.1111985" lon="7.9280548"><ele>1363.0</ele><time>2026-05-03T10:11:29.948Z</time></trkpt><trkpt lat="44.1113171" lon="7.9281439"><ele>1356.5</ele><time>2026-05-03T10:11:30.953Z</time></trkpt><trkpt lat="44.1114388" lon="7.9282677"><ele>1350.0</ele><time>2026-05-03T10:11:31.938Z</time></trkpt><trkpt lat="44.111553" lon="7.9283881"><ele>1342.75</ele><time>2026-05-03T10:11:32.938Z</time></trkpt><trkpt lat="44.1116626" lon="7.9284912"><ele>1335.5</ele><time>2026-05-03T10:11:33.952Z</time></trkpt><trkpt lat="44.1117604" lon="7.9285574"><ele>1328.25</ele><time>2026-05-03T10:11:34.942Z</time></trkpt><trkpt lat="44.1118721" lon="7.9285779"><ele>1321.0</ele><time>2026-05-03T10:11:35.944Z</time></trkpt><trkpt lat="44.1119995" lon="7.9285136"><ele>1321.0</ele><time>2026-05-03T10:11:36.941Z</time></trkpt><trkpt lat="44.1121244" lon="7.9284133"><ele>1321.0</ele><time>2026-05-03T10:11:37.944Z</time></trkpt><trkpt lat="44.1122333" lon="7.9283033"><ele>1321.0</ele><time>2026-05-03T10:11:38.941Z</time></trkpt><trkpt lat="44.1123399" lon="7.9281794"><ele>1321.0</ele><time>2026-05-03T10:11:39.943Z</time></trkpt><trkpt lat="44.1124454" lon="7.9280537"><ele>1327.0</ele><time>2026-05-03T10:11:40.945Z</time></trkpt><trkpt lat="44.1125545" lon="7.9279323"><ele>1333.0</ele><time>2026-05-03T10:11:41.941Z</time></trkpt><trkpt lat="44.1126657" lon="7.9278282"><ele>1339.0</ele><time>2026-05-03T10:11:42.945Z</time></trkpt><trkpt lat="44.1127829" lon="7.9277831"><ele>1345.0</ele><time>2026-05-03T10:11:43.942Z</time></trkpt><trkpt lat="44.1129051" lon="7.927816"><ele>1345.0</ele><time>2026-05-03T10:11:44.95Z</time></trkpt><trkpt lat="44.1130202" lon="7.9279156"><ele>1345.0</ele><time>2026-05-03T10:11:45.946Z</time></trkpt><trkpt lat="44.1131126" lon="7.9280592"><ele>1345.0</ele><time>2026-05-03T10:11:46.943Z</time></trkpt><trkpt lat="44.1131912" lon="7.9281991"><ele>1345.0</ele><time>2026-05-03T10:11:47.938Z</time></trkpt><trkpt lat="44.1132757" lon="7.9283268"><ele>1337.75</ele><time>2026-05-03T10:11:48.943Z</time></trkpt><trkpt lat="44.1133871" lon="7.9284209"><ele>1330.5</ele><time>2026-05-03T10:11:49.939Z</time></trkpt><trkpt lat="44.1135113" lon="7.9284902"><ele>1323.25</ele><time>2026-05-03T10:11:50.933Z</time></trkpt><trkpt lat="44.1136432" lon="7.9285697"><ele>1316.0</ele><time>2026-05-03T10:11:51.931Z</time></trkpt><trkpt lat="44.1137681" lon="7.9286898"><ele>1316.0</ele><time>2026-05-03T10:11:52.934Z</time></trkpt><trkpt lat="44.1138662" lon="7.9288423"><ele>1316.0</ele><time>2026-05-03T10:11:53.935Z</time></trkpt><trkpt lat="44.1139592" lon="7.9290026"><ele>1316.0</ele><time>2026-05-03T10:11:54.936Z</time></trkpt><trkpt lat="44.1140397" lon="7.9291623"><ele>1316.0</ele><time>2026-05-03T10:11:55.933Z</time></trkpt><trkpt lat="44.1141072" lon="7.9293361"><ele>1316.75</ele><time>2026-05-03T10:11:56.935Z</time></trkpt><trkpt lat="44.1141454" lon="7.9295214"><ele>1317.5</ele><time>2026-05-03T10:11:57.934Z</time></trkpt><trkpt lat="44.1141745" lon="7.9297267"><ele>1318.25</ele><time>2026-05-03T10:11:58.942Z</time></trkpt><trkpt lat="44.1142045" lon="7.9299396"><ele>1319.0</ele><time>2026-05-03T10:11:59.938Z</time></trkpt><trkpt lat="44.1142412" lon="7.9301633"><ele>1312.6666666666667</ele><time>2026-05-03T10:12:00.937Z</time></trkpt><trkpt lat="44.1142882" lon="7.9303931"><ele>1306.3333333333333</ele><time>2026-05-03T10:12:01.944Z</time></trkpt><trkpt lat="44.114345" lon="7.9306259"><ele>1300.0</ele><time>2026-05-03T10:12:02.935Z</time></trkpt><trkpt lat="44.1143971" lon="7.9308658"><ele>1294.3333333333333</ele><time>2026-05-03T10:12:03.932Z</time></trkpt><trkpt lat="44.1144459" lon="7.9310942"><ele>1288.6666666666667</ele><time>2026-05-03T10:12:04.938Z</time></trkpt><trkpt lat="44.1145055" lon="7.9313007"><ele>1283.0</ele><time>2026-05-03T10:12:05.943Z</time></trkpt><trkpt lat="44.1145871" lon="7.9314698"><ele>1283.0</ele><time>2026-05-03T10:12:06.942Z</time></trkpt><trkpt lat="44.1146876" lon="7.9316073"><ele>1283.0</ele><time>2026-05-03T10:12:07.934Z</time></trkpt><trkpt lat="44.1148075" lon="7.9317358"><ele>1283.0</ele><time>2026-05-03T10:12:08.943Z</time></trkpt><trkpt lat="44.1149421" lon="7.9318644"><ele>1284.6666666666667</ele><time>2026-05-03T10:12:09.942Z</time></trkpt><trkpt lat="44.1150656" lon="7.9320183"><ele>1286.3333333333333</ele><time>2026-05-03T10:12:10.935Z</time></trkpt><trkpt lat="44.1151715" lon="7.9321858"><ele>1288.0</ele><time>2026-05-03T10:12:11.936Z</time></trkpt><trkpt lat="44.115268" lon="7.932362"><ele>1288.0</ele><time>2026-05-03T10:12:12.941Z</time></trkpt><trkpt lat="44.1153704" lon="7.9325184"><ele>1288.0</ele><time>2026-05-03T10:12:13.936Z</time></trkpt><trkpt lat="44.1154934" lon="7.9326499"><ele>1288.0</ele><time>2026-05-03T10:12:14.941Z</time></trkpt><trkpt lat="44.1156208" lon="7.9327475"><ele>1287.75</ele><time>2026-05-03T10:12:15.944Z</time></trkpt><trkpt lat="44.1157533" lon="7.9328378"><ele>1287.5</ele><time>2026-05-03T10:12:16.938Z</time></trkpt><trkpt lat="44.1158833" lon="7.9329495"><ele>1287.25</ele><time>2026-05-03T10:12:17.961Z</time></trkpt><trkpt lat="44.1159704" lon="7.9331094"><ele>1287.0</ele><time>2026-05-03T10:12:18.941Z</time></trkpt><trkpt lat="44.1160331" lon="7.9333129"><ele>1284.75</ele><time>2026-05-03T10:12:19.938Z</time></trkpt><trkpt lat="44.1160623" lon="7.9335155"><ele>1282.5</ele><time>2026-05-03T10:12:20.939Z</time></trkpt><trkpt lat="44.1160568" lon="7.9337166"><ele>1280.25</ele><time>2026-05-03T10:12:21.941Z</time></trkpt><trkpt lat="44.1160243" lon="7.9338796"><ele>1278.0</ele><time>2026-05-03T10:12:22.935Z</time></trkpt><trkpt lat="44.1159458" lon="7.9340293"><ele>1278.0</ele><time>2026-05-03T10:12:23.937Z</time></trkpt><trkpt lat="44.1158551" lon="7.9341733"><ele>1278.0</ele><time>2026-05-03T10:12:24.936Z</time></trkpt><trkpt lat="44.1157967" lon="7.934333"><ele>1278.0</ele><time>2026-05-03T10:12:25.942Z</time></trkpt><trkpt lat="44.1157716" lon="7.9345066"><ele>1278.0</ele><time>2026-05-03T10:12:26.939Z</time></trkpt><trkpt lat="44.1158017" lon="7.934699"><ele>1275.3333333333333</ele><time>2026-05-03T10:12:27.948Z</time></trkpt><trkpt lat="44.1158712" lon="7.9349038"><ele>1272.6666666666665</ele><time>2026-05-03T10:12:28.941Z</time></trkpt><trkpt lat="44.1159444" lon="7.9350998"><ele>1270.0</ele><time>2026-05-03T10:12:29.932Z</time></trkpt><trkpt lat="44.1160151" lon="7.9352954"><ele>1265.0</ele><time>2026-05-03T10:12:30.934Z</time></trkpt><trkpt lat="44.1160796" lon="7.9354994"><ele>1260.0</ele><time>2026-05-03T10:12:31.946Z</time></trkpt><trkpt lat="44.1161368" lon="7.9356985"><ele>1255.0</ele><time>2026-05-03T10:12:32.943Z</time></trkpt><trkpt lat="44.1161861" lon="7.9359065"><ele>1250.0</ele><time>2026-05-03T10:12:33.939Z</time></trkpt><trkpt lat="44.1162322" lon="7.936117"><ele>1245.0</ele><time>2026-05-03T10:12:34.945Z</time></trkpt><trkpt lat="44.1162779" lon="7.9363241"><ele>1240.0</ele><time>2026-05-03T10:12:35.946Z</time></trkpt><trkpt lat="44.1163423" lon="7.9365067"><ele>1240.0</ele><time>2026-05-03T10:12:36.96Z</time></trkpt><trkpt lat="44.1164352" lon="7.936667"><ele>1240.0</ele><time>2026-05-03T10:12:37.938Z</time></trkpt><trkpt lat="44.1165389" lon="7.9368027"><ele>1240.0</ele><time>2026-05-03T10:12:38.939Z</time></trkpt><trkpt lat="44.1166427" lon="7.9369438"><ele>1240.0</ele><time>2026-05-03T10:12:39.943Z</time></trkpt><trkpt lat="44.1167233" lon="7.937099"><ele>1238.5</ele><time>2026-05-03T10:12:40.942Z</time></trkpt><trkpt lat="44.1167816" lon="7.9372802"><ele>1237.0</ele><time>2026-05-03T10:12:41.937Z</time></trkpt><trkpt lat="44.1168347" lon="7.9374678"><ele>1235.5</ele><time>2026-05-03T10:12:42.939Z</time></trkpt><trkpt lat="44.1168925" lon="7.9376641"><ele>1234.0</ele><time>2026-05-03T10:12:43.943Z</time></trkpt><trkpt lat="44.116967" lon="7.9378436"><ele>1234.0</ele><time>2026-05-03T10:12:44.933Z</time></trkpt><trkpt lat="44.1170417" lon="7.9380166"><ele>1234.0</ele><time>2026-05-03T10:12:45.935Z</time></trkpt><trkpt lat="44.1170833" lon="7.938208"><ele>1234.0</ele><time>2026-05-03T10:12:46.94Z</time></trkpt><trkpt lat="44.1170889" lon="7.9384184"><ele>1234.0</ele><time>2026-05-03T10:12:47.935Z</time></trkpt><trkpt lat="44.1170688" lon="7.9386463"><ele>1231.3333333333333</ele><time>2026-05-03T10:12:48.94Z</time></trkpt><trkpt lat="44.1170437" lon="7.9388768"><ele>1228.6666666666667</ele><time>2026-05-03T10:12:49.936Z</time></trkpt><trkpt lat="44.1170031" lon="7.9391116"><ele>1226.0</ele><time>2026-05-03T10:12:50.943Z</time></trkpt><trkpt lat="44.1169468" lon="7.9393347"><ele>1225.5</ele><time>2026-05-03T10:12:51.942Z</time></trkpt><trkpt lat="44.1168862" lon="7.939539"><ele>1225.0</ele><time>2026-05-03T10:12:52.938Z</time></trkpt><trkpt lat="44.1168363" lon="7.9397363"><ele>1224.5</ele><time>2026-05-03T10:12:53.936Z</time></trkpt><trkpt lat="44.1168161" lon="7.9399065"><ele>1224.0</ele><time>2026-05-03T10:12:54.937Z</time></trkpt><trkpt lat="44.1168598" lon="7.9400573"><ele>1220.75</ele><time>2026-05-03T10:12:55.946Z</time></trkpt><trkpt lat="44.1169432" lon="7.940196"><ele>1217.5</ele><time>2026-05-03T10:12:56.946Z</time></trkpt><trkpt lat="44.1170523" lon="7.9402941"><ele>1214.25</ele><time>2026-05-03T10:12:57.941Z</time></trkpt><trkpt lat="44.1171964" lon="7.9403345"><ele>1211.0</ele><time>2026-05-03T10:12:58.943Z</time></trkpt><trkpt lat="44.1173554" lon="7.9403493"><ele>1213.3333333333335</ele><time>2026-05-03T10:12:59.942Z</time></trkpt><trkpt lat="44.1175193" lon="7.9403655"><ele>1215.6666666666667</ele><time>2026-05-03T10:13:00.941Z</time></trkpt><trkpt lat="44.1176855" lon="7.9403909"><ele>1218.0</ele><time>2026-05-03T10:13:01.943Z</time></trkpt><trkpt lat="44.1178386" lon="7.9404157"><ele>1218.0</ele><time>2026-05-03T10:13:02.944Z</time></trkpt><trkpt lat="44.1179781" lon="7.9404786"><ele>1218.0</ele><time>2026-05-03T10:13:03.936Z</time></trkpt><trkpt lat="44.1180965" lon="7.9405777"><ele>1218.0</ele><time>2026-05-03T10:13:04.942Z</time></trkpt><trkpt lat="44.1181916" lon="7.9407359"><ele>1218.0</ele><time>2026-05-03T10:13:05.946Z</time></trkpt><trkpt lat="44.1182819" lon="7.9409126"><ele>1217.75</ele><time>2026-05-03T10:13:06.935Z</time></trkpt><trkpt lat="44.1183753" lon="7.9410831"><ele>1217.5</ele><time>2026-05-03T10:13:07.932Z</time></trkpt><trkpt lat="44.1184716" lon="7.9412348"><ele>1217.25</ele><time>2026-05-03T10:13:08.94Z</time></trkpt><trkpt lat="44.1185925" lon="7.941342"><ele>1217.0</ele><time>2026-05-03T10:13:09.936Z</time></trkpt><trkpt lat="44.1187235" lon="7.9414352"><ele>1217.0</ele><time>2026-05-03T10:13:10.942Z</time></trkpt><trkpt lat="44.1188547" lon="7.9415203"><ele>1217.0</ele><time>2026-05-03T10:13:11.947Z</time></trkpt><trkpt lat="44.1189848" lon="7.9416057"><ele>1217.0</ele><time>2026-05-03T10:13:12.936Z</time></trkpt><trkpt lat="44.1190966" lon="7.9417165"><ele>1217.0</ele><time>2026-05-03T10:13:13.941Z</time></trkpt><trkpt lat="44.1191722" lon="7.9418766"><ele>1217.3333333333335</ele><time>2026-05-03T10:13:14.933Z</time></trkpt><trkpt lat="44.1192063" lon="7.9420972"><ele>1217.6666666666667</ele><time>2026-05-03T10:13:15.938Z</time></trkpt><trkpt lat="44.1192209" lon="7.9423197"><ele>1218.0</ele><time>2026-05-03T10:13:16.936Z</time></trkpt><trkpt lat="44.119241" lon="7.9425423"><ele>1216.6666666666667</ele><time>2026-05-03T10:13:17.94Z</time></trkpt><trkpt lat="44.1192581" lon="7.942761"><ele>1215.3333333333335</ele><time>2026-05-03T10:13:18.955Z</time></trkpt><trkpt lat="44.1192567" lon="7.9430006"><ele>1214.0</ele><time>2026-05-03T10:13:19.933Z</time></trkpt><trkpt lat="44.1192264" lon="7.9432395"><ele>1215.6666666666667</ele><time>2026-05-03T10:13:20.944Z</time></trkpt><trkpt lat="44.1191726" lon="7.943484"><ele>1217.3333333333333</ele><time>2026-05-03T10:13:21.936Z</time></trkpt><trkpt lat="44.1191057" lon="7.9437245"><ele>1219.0</ele><time>2026-05-03T10:13:22.938Z</time></trkpt><trkpt lat="44.1190308" lon="7.9439695"><ele>1206.0</ele><time>2026-05-03T10:13:23.945Z</time></trkpt><trkpt lat="44.1189653" lon="7.944206"><ele>1193.0</ele><time>2026-05-03T10:13:24.937Z</time></trkpt><trkpt lat="44.1189006" lon="7.9444361"><ele>1180.0</ele><time>2026-05-03T10:13:25.95Z</time></trkpt><trkpt lat="44.1188522" lon="7.9446578"><ele>1180.0</ele><time>2026-05-03T10:13:26.941Z</time></trkpt><trkpt lat="44.1188211" lon="7.944884"><ele>1180.0</ele><time>2026-05-03T10:13:27.945Z</time></trkpt><trkpt lat="44.1188174" lon="7.9451213"><ele>1180.0</ele><time>2026-05-03T10:13:28.935Z</time></trkpt><trkpt lat="44.1188359" lon="7.9453629"><ele>1180.0</ele><time>2026-05-03T10:13:29.943Z</time></trkpt><trkpt lat="44.1188792" lon="7.9456055"><ele>1180.0</ele><time>2026-05-03T10:13:30.935Z</time></trkpt><trkpt lat="44.1189301" lon="7.9458283"><ele>1180.0</ele><time>2026-05-03T10:13:31.944Z</time></trkpt><trkpt lat="44.1189784" lon="7.9460446"><ele>1179.0</ele><time>2026-05-03T10:13:32.951Z</time></trkpt><trkpt lat="44.1190299" lon="7.9462402"><ele>1178.0</ele><time>2026-05-03T10:13:33.945Z</time></trkpt><trkpt lat="44.1191089" lon="7.9464109"><ele>1177.0</ele><time>2026-05-03T10:13:34.952Z</time></trkpt><trkpt lat="44.1192198" lon="7.9465653"><ele>1178.0</ele><time>2026-05-03T10:13:35.937Z</time></trkpt><trkpt lat="44.1193431" lon="7.9467198"><ele>1179.0</ele><time>2026-05-03T10:13:36.947Z</time></trkpt><trkpt lat="44.1194645" lon="7.9469018"><ele>1180.0</ele><time>2026-05-03T10:13:37.945Z</time></trkpt><trkpt lat="44.1195789" lon="7.9470867"><ele>1180.0</ele><time>2026-05-03T10:13:38.941Z</time></trkpt><trkpt lat="44.1196896" lon="7.9472656"><ele>1180.0</ele><time>2026-05-03T10:13:39.952Z</time></trkpt><trkpt lat="44.1197954" lon="7.9474407"><ele>1180.0</ele><time>2026-05-03T10:13:40.943Z</time></trkpt><trkpt lat="44.1198977" lon="7.9476016"><ele>1183.3333333333333</ele><time>2026-05-03T10:13:41.946Z</time></trkpt><trkpt lat="44.1199917" lon="7.9477653"><ele>1186.6666666666667</ele><time>2026-05-03T10:13:42.945Z</time></trkpt><trkpt lat="44.1200731" lon="7.9479492"><ele>1190.0</ele><time>2026-05-03T10:13:43.94Z</time></trkpt><trkpt lat="44.1201315" lon="7.948156"><ele>1188.0</ele><time>2026-05-03T10:13:44.944Z</time></trkpt><trkpt lat="44.1201492" lon="7.948379"><ele>1186.0</ele><time>2026-05-03T10:13:45.944Z</time></trkpt><trkpt lat="44.1201361" lon="7.9485919"><ele>1184.0</ele><time>2026-05-03T10:13:46.946Z</time></trkpt><trkpt lat="44.1201143" lon="7.9487977"><ele>1184.0</ele><time>2026-05-03T10:13:47.952Z</time></trkpt><trkpt lat="44.1201074" lon="7.9490015"><ele>1184.0</ele><time>2026-05-03T10:13:48.938Z</time></trkpt><trkpt lat="44.1201387" lon="7.9491904"><ele>1184.0</ele><time>2026-05-03T10:13:49.946Z</time></trkpt><trkpt lat="44.1202087" lon="7.949379"><ele>1184.0</ele><time>2026-05-03T10:13:50.938Z</time></trkpt><trkpt lat="44.1203043" lon="7.9495763"><ele>1177.6666666666667</ele><time>2026-05-03T10:13:51.937Z</time></trkpt><trkpt lat="44.1204161" lon="7.9497564"><ele>1171.3333333333333</ele><time>2026-05-03T10:13:52.945Z</time></trkpt><trkpt lat="44.1205315" lon="7.9499467"><ele>1165.0</ele><time>2026-05-03T10:13:53.943Z</time></trkpt><trkpt lat="44.1206344" lon="7.9501456"><ele>1168.25</ele><time>2026-05-03T10:13:54.934Z</time></trkpt><trkpt lat="44.12072" lon="7.9503576"><ele>1171.5</ele><time>2026-05-03T10:13:55.938Z</time></trkpt><trkpt lat="44.1208011" lon="7.9505326"><ele>1174.75</ele><time>2026-05-03T10:13:56.941Z</time></trkpt><trkpt lat="44.1208771" lon="7.9506663"><ele>1178.0</ele><time>2026-05-03T10:13:57.943Z</time></trkpt><trkpt lat="44.1209479" lon="7.950762"><ele>1178.0</ele><time>2026-05-03T10:13:58.949Z</time></trkpt><trkpt lat="44.121006" lon="7.9508424"><ele>1178.0</ele><time>2026-05-03T10:13:59.941Z</time></trkpt><trkpt lat="44.121034" lon="7.9509431"><ele>1178.0</ele><time>2026-05-03T10:14:00.947Z</time></trkpt><trkpt lat="44.1210197" lon="7.9510542"><ele>1178.0</ele><time>2026-05-03T10:14:01.939Z</time></trkpt><trkpt lat="44.1209607" lon="7.951125"><ele>1178.0</ele><time>2026-05-03T10:14:02.945Z</time></trkpt><trkpt lat="44.1208742" lon="7.951134"><ele>1178.0</ele><time>2026-05-03T10:14:03.938Z</time></trkpt><trkpt lat="44.1208034" lon="7.9510696"><ele>1173.75</ele><time>2026-05-03T10:14:04.931Z</time></trkpt><trkpt lat="44.120753" lon="7.9509392"><ele>1169.5</ele><time>2026-05-03T10:14:05.931Z</time></trkpt><trkpt lat="44.1207009" lon="7.9507895"><ele>1165.25</ele><time>2026-05-03T10:14:06.938Z</time></trkpt><trkpt lat="44.1206209" lon="7.9506531"><ele>1161.0</ele><time>2026-05-03T10:14:07.936Z</time></trkpt><trkpt lat="44.120517" lon="7.9505056"><ele>1155.0</ele><time>2026-05-03T10:14:08.938Z</time></trkpt><trkpt lat="44.1204022" lon="7.9503449"><ele>1149.0</ele><time>2026-05-03T10:14:09.935Z</time></trkpt><trkpt lat="44.1202834" lon="7.9501989"><ele>1143.0</ele><time>2026-05-03T10:14:10.941Z</time></trkpt><trkpt lat="44.1201538" lon="7.9500755"><ele>1142.3333333333333</ele><time>2026-05-03T10:14:11.934Z</time></trkpt><trkpt lat="44.1200113" lon="7.9499721"><ele>1141.6666666666665</ele><time>2026-05-03T10:14:12.944Z</time></trkpt><trkpt lat="44.1198526" lon="7.9498789"><ele>1141.0</ele><time>2026-05-03T10:14:13.941Z</time></trkpt><trkpt lat="44.1196951" lon="7.9497971"><ele>1141.0</ele><time>2026-05-03T10:14:14.934Z</time></trkpt><trkpt lat="44.1195543" lon="7.9497224"><ele>1141.0</ele><time>2026-05-03T10:14:15.941Z</time></trkpt><trkpt lat="44.1194294" lon="7.949623"><ele>1141.0</ele><time>2026-05-03T10:14:16.937Z</time></trkpt><trkpt lat="44.1193236" lon="7.9494981"><ele>1141.0</ele><time>2026-05-03T10:14:17.938Z</time></trkpt><trkpt lat="44.1192476" lon="7.9493415"><ele>1143.0</ele><time>2026-05-03T10:14:18.952Z</time></trkpt><trkpt lat="44.1192154" lon="7.9491618"><ele>1145.0</ele><time>2026-05-03T10:14:19.937Z</time></trkpt><trkpt lat="44.1192185" lon="7.948978"><ele>1147.0</ele><time>2026-05-03T10:14:20.938Z</time></trkpt><trkpt lat="44.1192493" lon="7.9488057"><ele>1149.0</ele><time>2026-05-03T10:14:21.933Z</time></trkpt><trkpt lat="44.1193047" lon="7.9486648"><ele>1149.0</ele><time>2026-05-03T10:14:22.94Z</time></trkpt><trkpt lat="44.1193387" lon="7.9485285"><ele>1149.0</ele><time>2026-05-03T10:14:23.937Z</time></trkpt><trkpt lat="44.1193111" lon="7.9484061"><ele>1149.0</ele><time>2026-05-03T10:14:24.934Z</time></trkpt><trkpt lat="44.1192301" lon="7.9483305"><ele>1149.0</ele><time>2026-05-03T10:14:25.943Z</time></trkpt><trkpt lat="44.1191377" lon="7.9483077"><ele>1149.0</ele><time>2026-05-03T10:14:26.931Z</time></trkpt><trkpt lat="44.1190298" lon="7.948331"><ele>1147.5</ele><time>2026-05-03T10:14:27.93Z</time></trkpt><trkpt lat="44.1189124" lon="7.9483746"><ele>1146.0</ele><time>2026-05-03T10:14:28.935Z</time></trkpt><trkpt lat="44.1187891" lon="7.9484123"><ele>1144.5</ele><time>2026-05-03T10:14:29.94Z</time></trkpt><trkpt lat="44.118648" lon="7.9483969"><ele>1143.0</ele><time>2026-05-03T10:14:30.94Z</time></trkpt><trkpt lat="44.1185146" lon="7.9483284"><ele>1143.0</ele><time>2026-05-03T10:14:31.942Z</time></trkpt><trkpt lat="44.1183761" lon="7.9482439"><ele>1143.0</ele><time>2026-05-03T10:14:32.935Z</time></trkpt><trkpt lat="44.1182397" lon="7.9481568"><ele>1143.0</ele><time>2026-05-03T10:14:33.948Z</time></trkpt><trkpt lat="44.1181059" lon="7.9480504"><ele>1141.25</ele><time>2026-05-03T10:14:34.94Z</time></trkpt><trkpt lat="44.1179638" lon="7.9479503"><ele>1139.5</ele><time>2026-05-03T10:14:35.939Z</time></trkpt><trkpt lat="44.1178256" lon="7.9479051"><ele>1137.75</ele><time>2026-05-03T10:14:36.939Z</time></trkpt><trkpt lat="44.1176881" lon="7.9478975"><ele>1136.0</ele><time>2026-05-03T10:14:37.933Z</time></trkpt><trkpt lat="44.1175647" lon="7.9478935"><ele>1136.0</ele><time>2026-05-03T10:14:38.945Z</time></trkpt><trkpt lat="44.1174382" lon="7.947834"><ele>1136.0</ele><time>2026-05-03T10:14:39.943Z</time></trkpt><trkpt lat="44.1173081" lon="7.9477289"><ele>1136.0</ele><time>2026-05-03T10:14:40.947Z</time></trkpt><trkpt lat="44.1171794" lon="7.9475872"><ele>1136.0</ele><time>2026-05-03T10:14:41.941Z</time></trkpt><trkpt lat="44.1170474" lon="7.9474554"><ele>1131.0</ele><time>2026-05-03T10:14:42.941Z</time></trkpt><trkpt lat="44.1169343" lon="7.9473478"><ele>1126.0</ele><time>2026-05-03T10:14:43.943Z</time></trkpt><trkpt lat="44.1168603" lon="7.9472229"><ele>1121.0</ele><time>2026-05-03T10:14:44.943Z</time></trkpt><trkpt lat="44.1168392" lon="7.9470534"><ele>1116.0</ele><time>2026-05-03T10:14:45.935Z</time></trkpt><trkpt lat="44.1168652" lon="7.9468763"><ele>1115.6666666666667</ele><time>2026-05-03T10:14:46.943Z</time></trkpt><trkpt lat="44.1168867" lon="7.9466677"><ele>1115.3333333333335</ele><time>2026-05-03T10:14:47.94Z</time></trkpt><trkpt lat="44.1169019" lon="7.9464318"><ele>1115.0</ele><time>2026-05-03T10:14:48.949Z</time></trkpt><trkpt lat="44.1169209" lon="7.9461846"><ele>1115.0</ele><time>2026-05-03T10:14:49.941Z</time></trkpt><trkpt lat="44.1169458" lon="7.945945"><ele>1115.0</ele><time>2026-05-03T10:14:50.945Z</time></trkpt><trkpt lat="44.1169709" lon="7.9457176"><ele>1115.0</ele><time>2026-05-03T10:14:51.939Z</time></trkpt><trkpt lat="44.1169752" lon="7.9455089"><ele>1114.0</ele><time>2026-05-03T10:14:52.938Z</time></trkpt><trkpt lat="44.1169907" lon="7.9453177"><ele>1113.0</ele><time>2026-05-03T10:14:53.936Z</time></trkpt><trkpt lat="44.117034" lon="7.9451392"><ele>1112.0</ele><time>2026-05-03T10:14:54.943Z</time></trkpt><trkpt lat="44.1171177" lon="7.9449657"><ele>1111.0</ele><time>2026-05-03T10:14:55.933Z</time></trkpt><trkpt lat="44.1172003" lon="7.9448072"><ele>1109.5</ele><time>2026-05-03T10:14:56.937Z</time></trkpt><trkpt lat="44.1172843" lon="7.9446635"><ele>1108.0</ele><time>2026-05-03T10:14:57.936Z</time></trkpt><trkpt lat="44.117375" lon="7.9445437"><ele>1106.5</ele><time>2026-05-03T10:14:58.938Z</time></trkpt><trkpt lat="44.1174523" lon="7.9444347"><ele>1105.0</ele><time>2026-05-03T10:14:59.94Z</time></trkpt><trkpt lat="44.1175118" lon="7.9443427"><ele>1106.0</ele><time>2026-05-03T10:15:00.939Z</time></trkpt><trkpt lat="44.117546" lon="7.9442594"><ele>1107.0</ele><time>2026-05-03T10:15:01.941Z</time></trkpt><trkpt lat="44.1175137" lon="7.9441454"><ele>1108.0</ele><time>2026-05-03T10:15:02.938Z</time></trkpt><trkpt lat="44.1174152" lon="7.9440195"><ele>1109.0</ele><time>2026-05-03T10:15:03.938Z</time></trkpt><trkpt lat="44.1172988" lon="7.943894"><ele>1110.0</ele><time>2026-05-03T10:15:04.931Z</time></trkpt><trkpt lat="44.1171754" lon="7.9437668"><ele>1110.0</ele><time>2026-05-03T10:15:05.933Z</time></trkpt><trkpt lat="44.1170502" lon="7.943658"><ele>1110.0</ele><time>2026-05-03T10:15:06.936Z</time></trkpt><trkpt lat="44.1169085" lon="7.943589"><ele>1110.0</ele><time>2026-05-03T10:15:07.927Z</time></trkpt><trkpt lat="44.1167634" lon="7.9435388"><ele>1110.0</ele><time>2026-05-03T10:15:08.93Z</time></trkpt><trkpt lat="44.116633" lon="7.9434967"><ele>1109.5</ele><time>2026-05-03T10:15:09.942Z</time></trkpt><trkpt lat="44.1165174" lon="7.943443"><ele>1109.0</ele><time>2026-05-03T10:15:10.937Z</time></trkpt><trkpt lat="44.1164158" lon="7.9433413"><ele>1108.5</ele><time>2026-05-03T10:15:11.933Z</time></trkpt><trkpt lat="44.1163746" lon="7.9432013"><ele>1108.0</ele><time>2026-05-03T10:15:12.93Z</time></trkpt><trkpt lat="44.1163668" lon="7.9430608"><ele>1108.0</ele><time>2026-05-03T10:15:13.935Z</time></trkpt><trkpt lat="44.1163578" lon="7.9429267"><ele>1108.0</ele><time>2026-05-03T10:15:14.928Z</time></trkpt><trkpt lat="44.1163212" lon="7.9428152"><ele>1108.0</ele><time>2026-05-03T10:15:15.935Z</time></trkpt><trkpt lat="44.1162327" lon="7.9427553"><ele>1108.0</ele><time>2026-05-03T10:15:16.938Z</time></trkpt><trkpt lat="44.1161146" lon="7.9427616"><ele>1108.0</ele><time>2026-05-03T10:15:17.938Z</time></trkpt><trkpt lat="44.1159885" lon="7.9428159"><ele>1108.0</ele><time>2026-05-03T10:15:18.93Z</time></trkpt><trkpt lat="44.1158448" lon="7.9429033"><ele>1108.0</ele><time>2026-05-03T10:15:19.931Z</time></trkpt><trkpt lat="44.1157007" lon="7.9429783"><ele>1108.0</ele><time>2026-05-03T10:15:20.925Z</time></trkpt><trkpt lat="44.1155576" lon="7.9430379"><ele>1110.25</ele><time>2026-05-03T10:15:21.937Z</time></trkpt><trkpt lat="44.1154192" lon="7.943081"><ele>1112.5</ele><time>2026-05-03T10:15:22.937Z</time></trkpt><trkpt lat="44.1152736" lon="7.9431374"><ele>1114.75</ele><time>2026-05-03T10:15:23.938Z</time></trkpt><trkpt lat="44.1151381" lon="7.9432175"><ele>1117.0</ele><time>2026-05-03T10:15:24.948Z</time></trkpt><trkpt lat="44.1150108" lon="7.9433289"><ele>1115.5</ele><time>2026-05-03T10:15:25.935Z</time></trkpt><trkpt lat="44.1149093" lon="7.9434679"><ele>1114.0</ele><time>2026-05-03T10:15:26.938Z</time></trkpt><trkpt lat="44.1148315" lon="7.9436295"><ele>1112.5</ele><time>2026-05-03T10:15:27.936Z</time></trkpt><trkpt lat="44.114775" lon="7.9438099"><ele>1111.0</ele><time>2026-05-03T10:15:28.935Z</time></trkpt><trkpt lat="44.1147247" lon="7.9439935"><ele>1111.0</ele><time>2026-05-03T10:15:29.942Z</time></trkpt><trkpt lat="44.114653" lon="7.9441688"><ele>1111.0</ele><time>2026-05-03T10:15:30.942Z</time></trkpt><trkpt lat="44.1145724" lon="7.9443334"><ele>1111.0</ele><time>2026-05-03T10:15:31.936Z</time></trkpt><trkpt lat="44.1144769" lon="7.9444769"><ele>1111.0</ele><time>2026-05-03T10:15:32.939Z</time></trkpt><trkpt lat="44.114363" lon="7.9445954"><ele>1105.0</ele><time>2026-05-03T10:15:33.932Z</time></trkpt><trkpt lat="44.1142365" lon="7.9446777"><ele>1099.0</ele><time>2026-05-03T10:15:34.941Z</time></trkpt><trkpt lat="44.1140909" lon="7.9447237"><ele>1093.0</ele><time>2026-05-03T10:15:35.939Z</time></trkpt><trkpt lat="44.1139453" lon="7.9447403"><ele>1087.0</ele><time>2026-05-03T10:15:36.934Z</time></trkpt><trkpt lat="44.113802" lon="7.9447063"><ele>1087.5</ele><time>2026-05-03T10:15:37.941Z</time></trkpt><trkpt lat="44.11367" lon="7.9446188"><ele>1088.0</ele><time>2026-05-03T10:15:38.94Z</time></trkpt><trkpt lat="44.1135448" lon="7.944492"><ele>1088.5</ele><time>2026-05-03T10:15:39.94Z</time></trkpt><trkpt lat="44.1134489" lon="7.9443453"><ele>1089.0</ele><time>2026-05-03T10:15:40.941Z</time></trkpt><trkpt lat="44.1133617" lon="7.9441708"><ele>1089.0</ele><time>2026-05-03T10:15:41.955Z</time></trkpt><trkpt lat="44.1132727" lon="7.9439873"><ele>1089.0</ele><time>2026-05-03T10:15:42.935Z</time></trkpt><trkpt lat="44.1131929" lon="7.9438002"><ele>1089.0</ele><time>2026-05-03T10:15:43.944Z</time></trkpt><trkpt lat="44.1131015" lon="7.9436207"><ele>1086.0</ele><time>2026-05-03T10:15:44.949Z</time></trkpt><trkpt lat="44.1130056" lon="7.9434595"><ele>1083.0</ele><time>2026-05-03T10:15:45.948Z</time></trkpt><trkpt lat="44.1129187" lon="7.9433011"><ele>1080.0</ele><time>2026-05-03T10:15:46.944Z</time></trkpt><trkpt lat="44.1128423" lon="7.9431472"><ele>1077.0</ele><time>2026-05-03T10:15:47.945Z</time></trkpt><trkpt lat="44.1128085" lon="7.9429853"><ele>1077.0</ele><time>2026-05-03T10:15:48.95Z</time></trkpt><trkpt lat="44.1128167" lon="7.942837"><ele>1077.0</ele><time>2026-05-03T10:15:49.934Z</time></trkpt><trkpt lat="44.112834" lon="7.9427035"><ele>1077.0</ele><time>2026-05-03T10:15:50.941Z</time></trkpt><trkpt lat="44.1128165" lon="7.9425986"><ele>1077.0</ele><time>2026-05-03T10:15:51.955Z</time></trkpt><trkpt lat="44.1127544" lon="7.9425438"><ele>1077.0</ele><time>2026-05-03T10:15:52.941Z</time></trkpt><trkpt lat="44.1126284" lon="7.9425985"><ele>1077.0</ele><time>2026-05-03T10:15:54.942Z</time></trkpt><trkpt lat="44.1125702" lon="7.9426858"><ele>1077.0</ele><time>2026-05-03T10:15:55.939Z</time></trkpt><trkpt lat="44.1125289" lon="7.9428117"><ele>1077.0</ele><time>2026-05-03T10:15:56.94Z</time></trkpt><trkpt lat="44.1125489" lon="7.9429821"><ele>1077.0</ele><time>2026-05-03T10:15:57.936Z</time></trkpt><trkpt lat="44.1126011" lon="7.9431748"><ele>1077.0</ele><time>2026-05-03T10:15:58.951Z</time></trkpt><trkpt lat="44.1126648" lon="7.9433562"><ele>1077.0</ele><time>2026-05-03T10:15:59.94Z</time></trkpt><trkpt lat="44.1127265" lon="7.9435556"><ele>1077.0</ele><time>2026-05-03T10:16:00.942Z</time></trkpt><trkpt lat="44.1127614" lon="7.943776"><ele>1073.3333333333333</ele><time>2026-05-03T10:16:01.949Z</time></trkpt><trkpt lat="44.112767" lon="7.9439964"><ele>1069.6666666666665</ele><time>2026-05-03T10:16:02.941Z</time></trkpt><trkpt lat="44.1128045" lon="7.944226"><ele>1066.0</ele><time>2026-05-03T10:16:03.945Z</time></trkpt><trkpt lat="44.1128618" lon="7.9444536"><ele>1063.3333333333333</ele><time>2026-05-03T10:16:04.942Z</time></trkpt><trkpt lat="44.1129248" lon="7.9446662"><ele>1060.6666666666667</ele><time>2026-05-03T10:16:05.944Z</time></trkpt><trkpt lat="44.1129914" lon="7.9448668"><ele>1058.0</ele><time>2026-05-03T10:16:06.943Z</time></trkpt><trkpt lat="44.1130813" lon="7.9450487"><ele>1058.3333333333335</ele><time>2026-05-03T10:16:07.939Z</time></trkpt><trkpt lat="44.1131833" lon="7.9452178"><ele>1058.6666666666667</ele><time>2026-05-03T10:16:08.943Z</time></trkpt><trkpt lat="44.1132885" lon="7.9453663"><ele>1059.0</ele><time>2026-05-03T10:16:09.947Z</time></trkpt><trkpt lat="44.113405" lon="7.9454893"><ele>1059.0</ele><time>2026-05-03T10:16:10.947Z</time></trkpt><trkpt lat="44.1135459" lon="7.9455749"><ele>1059.0</ele><time>2026-05-03T10:16:11.959Z</time></trkpt><trkpt lat="44.1136984" lon="7.9456332"><ele>1059.0</ele><time>2026-05-03T10:16:12.941Z</time></trkpt><trkpt lat="44.1138622" lon="7.9456732"><ele>1059.0</ele><time>2026-05-03T10:16:13.938Z</time></trkpt><trkpt lat="44.1140098" lon="7.9457078"><ele>1059.0</ele><time>2026-05-03T10:16:14.946Z</time></trkpt><trkpt lat="44.1141437" lon="7.945721"><ele>1059.0</ele><time>2026-05-03T10:16:15.944Z</time></trkpt><trkpt lat="44.1142793" lon="7.9456986"><ele>1059.0</ele><time>2026-05-03T10:16:16.935Z</time></trkpt><trkpt lat="44.114414" lon="7.9456244"><ele>1060.3333333333333</ele><time>2026-05-03T10:16:17.937Z</time></trkpt><trkpt lat="44.1145413" lon="7.9455172"><ele>1061.6666666666665</ele><time>2026-05-03T10:16:18.939Z</time></trkpt><trkpt lat="44.114672" lon="7.945375"><ele>1063.0</ele><time>2026-05-03T10:16:19.923Z</time></trkpt><trkpt lat="44.1147933" lon="7.9452271"><ele>1064.25</ele><time>2026-05-03T10:16:20.949Z</time></trkpt><trkpt lat="44.114918" lon="7.9450866"><ele>1065.5</ele><time>2026-05-03T10:16:21.938Z</time></trkpt><trkpt lat="44.1150359" lon="7.9449464"><ele>1066.75</ele><time>2026-05-03T10:16:22.93Z</time></trkpt><trkpt lat="44.1151395" lon="7.9448375"><ele>1068.0</ele><time>2026-05-03T10:16:23.938Z</time></trkpt><trkpt lat="44.115242" lon="7.9447763"><ele>1068.0</ele><time>2026-05-03T10:16:24.941Z</time></trkpt><trkpt lat="44.1153523" lon="7.9447784"><ele>1068.0</ele><time>2026-05-03T10:16:25.935Z</time></trkpt><trkpt lat="44.1154669" lon="7.9448163"><ele>1068.0</ele><time>2026-05-03T10:16:26.934Z</time></trkpt><trkpt lat="44.1155567" lon="7.9448744"><ele>1068.0</ele><time>2026-05-03T10:16:27.934Z</time></trkpt><trkpt lat="44.115621" lon="7.9449785"><ele>1068.0</ele><time>2026-05-03T10:16:28.935Z</time></trkpt><trkpt lat="44.1156212" lon="7.9451214"><ele>1062.75</ele><time>2026-05-03T10:16:29.929Z</time></trkpt><trkpt lat="44.115591" lon="7.9452743"><ele>1057.5</ele><time>2026-05-03T10:16:30.931Z</time></trkpt><trkpt lat="44.1155376" lon="7.9454053"><ele>1052.25</ele><time>2026-05-03T10:16:31.934Z</time></trkpt><trkpt lat="44.1154833" lon="7.9455523"><ele>1047.0</ele><time>2026-05-03T10:16:32.931Z</time></trkpt><trkpt lat="44.1154435" lon="7.9457443"><ele>1042.0</ele><time>2026-05-03T10:16:33.946Z</time></trkpt><trkpt lat="44.1154095" lon="7.9459555"><ele>1037.0</ele><time>2026-05-03T10:16:34.938Z</time></trkpt><trkpt lat="44.115376" lon="7.9461623"><ele>1032.0</ele><time>2026-05-03T10:16:35.932Z</time></trkpt><trkpt lat="44.1153467" lon="7.9463649"><ele>1032.0</ele><time>2026-05-03T10:16:36.94Z</time></trkpt><trkpt lat="44.1153286" lon="7.9465772"><ele>1032.0</ele><time>2026-05-03T10:16:37.932Z</time></trkpt><trkpt lat="44.1153047" lon="7.9468075"><ele>1032.0</ele><time>2026-05-03T10:16:38.939Z</time></trkpt><trkpt lat="44.1152753" lon="7.947037"><ele>1032.6666666666667</ele><time>2026-05-03T10:16:39.938Z</time></trkpt><trkpt lat="44.1152333" lon="7.9472522"><ele>1033.3333333333335</ele><time>2026-05-03T10:16:40.939Z</time></trkpt><trkpt lat="44.1151817" lon="7.9474615"><ele>1034.0</ele><time>2026-05-03T10:16:41.939Z</time></trkpt><trkpt lat="44.1151162" lon="7.9476638"><ele>1037.0</ele><time>2026-05-03T10:16:42.939Z</time></trkpt><trkpt lat="44.1150416" lon="7.9478415"><ele>1040.0</ele><time>2026-05-03T10:16:43.936Z</time></trkpt><trkpt lat="44.1149527" lon="7.9480029"><ele>1043.0</ele><time>2026-05-03T10:16:44.937Z</time></trkpt><trkpt lat="44.1148484" lon="7.9481481"><ele>1046.0</ele><time>2026-05-03T10:16:45.936Z</time></trkpt><trkpt lat="44.1147455" lon="7.9482845"><ele>1044.75</ele><time>2026-05-03T10:16:46.935Z</time></trkpt><trkpt lat="44.1146425" lon="7.9484134"><ele>1043.5</ele><time>2026-05-03T10:16:47.944Z</time></trkpt><trkpt lat="44.1145227" lon="7.9485175"><ele>1042.25</ele><time>2026-05-03T10:16:48.939Z</time></trkpt><trkpt lat="44.114366" lon="7.9485796"><ele>1041.0</ele><time>2026-05-03T10:16:49.938Z</time></trkpt><trkpt lat="44.1142213" lon="7.9486387"><ele>1041.0</ele><time>2026-05-03T10:16:50.937Z</time></trkpt><trkpt lat="44.1140864" lon="7.9487092"><ele>1041.0</ele><time>2026-05-03T10:16:51.949Z</time></trkpt><trkpt lat="44.1139532" lon="7.9487692"><ele>1041.0</ele><time>2026-05-03T10:16:52.935Z</time></trkpt><trkpt lat="44.1138241" lon="7.9488345"><ele>1041.0</ele><time>2026-05-03T10:16:53.945Z</time></trkpt><trkpt lat="44.1137085" lon="7.9489096"><ele>1034.75</ele><time>2026-05-03T10:16:54.938Z</time></trkpt><trkpt lat="44.1135944" lon="7.948999"><ele>1028.5</ele><time>2026-05-03T10:16:55.938Z</time></trkpt><trkpt lat="44.1134901" lon="7.9491018"><ele>1022.25</ele><time>2026-05-03T10:16:56.942Z</time></trkpt><trkpt lat="44.1134124" lon="7.9492211"><ele>1016.0</ele><time>2026-05-03T10:16:57.928Z</time></trkpt><trkpt lat="44.1133676" lon="7.9493621"><ele>1016.0</ele><time>2026-05-03T10:16:58.946Z</time></trkpt><trkpt lat="44.1133435" lon="7.9495349"><ele>1016.0</ele><time>2026-05-03T10:16:59.938Z</time></trkpt><trkpt lat="44.1133307" lon="7.9497405"><ele>1016.0</ele><time>2026-05-03T10:17:00.941Z</time></trkpt><trkpt lat="44.1133245" lon="7.949941"><ele>1016.0</ele><time>2026-05-03T10:17:01.942Z</time></trkpt><trkpt lat="44.1133189" lon="7.9501317"><ele>1014.25</ele><time>2026-05-03T10:17:02.938Z</time></trkpt><trkpt lat="44.1133377" lon="7.9503147"><ele>1012.5</ele><time>2026-05-03T10:17:03.944Z</time></trkpt><trkpt lat="44.1133735" lon="7.9504756"><ele>1010.75</ele><time>2026-05-03T10:17:04.945Z</time></trkpt><trkpt lat="44.1134442" lon="7.9506273"><ele>1009.0</ele><time>2026-05-03T10:17:05.939Z</time></trkpt><trkpt lat="44.1135488" lon="7.950762"><ele>1003.75</ele><time>2026-05-03T10:17:06.942Z</time></trkpt><trkpt lat="44.1136591" lon="7.9508832"><ele>998.5</ele><time>2026-05-03T10:17:07.944Z</time></trkpt><trkpt lat="44.1137683" lon="7.9510057"><ele>993.25</ele><time>2026-05-03T10:17:08.947Z</time></trkpt><trkpt lat="44.1138766" lon="7.9511262"><ele>988.0</ele><time>2026-05-03T10:17:09.938Z</time></trkpt><trkpt lat="44.1139826" lon="7.9512158"><ele>990.5</ele><time>2026-05-03T10:17:10.94Z</time></trkpt><trkpt lat="44.1140905" lon="7.9512581"><ele>993.0</ele><time>2026-05-03T10:17:11.947Z</time></trkpt><trkpt lat="44.1142037" lon="7.9512552"><ele>995.5</ele><time>2026-05-03T10:17:12.946Z</time></trkpt><trkpt lat="44.1143217" lon="7.9512189"><ele>998.0</ele><time>2026-05-03T10:17:13.937Z</time></trkpt><trkpt lat="44.1144572" lon="7.9511589"><ele>998.0</ele><time>2026-05-03T10:17:14.941Z</time></trkpt><trkpt lat="44.114598" lon="7.9510974"><ele>998.0</ele><time>2026-05-03T10:17:15.938Z</time></trkpt><trkpt lat="44.1147376" lon="7.9510627"><ele>998.0</ele><time>2026-05-03T10:17:16.928Z</time></trkpt><trkpt lat="44.1148748" lon="7.9510296"><ele>998.0</ele><time>2026-05-03T10:17:17.943Z</time></trkpt><trkpt lat="44.1150068" lon="7.9510026"><ele>998.25</ele><time>2026-05-03T10:17:18.936Z</time></trkpt><trkpt lat="44.1151343" lon="7.9509765"><ele>998.5</ele><time>2026-05-03T10:17:19.939Z</time></trkpt><trkpt lat="44.115253" lon="7.9509528"><ele>998.75</ele><time>2026-05-03T10:17:20.939Z</time></trkpt><trkpt lat="44.1153625" lon="7.9509341"><ele>999.0</ele><time>2026-05-03T10:17:21.937Z</time></trkpt><trkpt lat="44.1154733" lon="7.9509552"><ele>999.0</ele><time>2026-05-03T10:17:22.942Z</time></trkpt><trkpt lat="44.1155732" lon="7.9510386"><ele>999.0</ele><time>2026-05-03T10:17:23.939Z</time></trkpt><trkpt lat="44.1156203" lon="7.9512009"><ele>999.0</ele><time>2026-05-03T10:17:24.938Z</time></trkpt><trkpt lat="44.1156397" lon="7.9513813"><ele>999.0</ele><time>2026-05-03T10:17:25.944Z</time></trkpt><trkpt lat="44.1156553" lon="7.9515354"><ele>999.0</ele><time>2026-05-03T10:17:26.942Z</time></trkpt><trkpt lat="44.1156996" lon="7.9516911"><ele>999.0</ele><time>2026-05-03T10:17:27.94Z</time></trkpt><trkpt lat="44.1157559" lon="7.9518311"><ele>999.0</ele><time>2026-05-03T10:17:28.941Z</time></trkpt><trkpt lat="44.1158529" lon="7.9519258"><ele>999.0</ele><time>2026-05-03T10:17:29.934Z</time></trkpt><trkpt lat="44.1159497" lon="7.9520025"><ele>998.2</ele><time>2026-05-03T10:17:30.936Z</time></trkpt><trkpt lat="44.1160334" lon="7.9520736"><ele>997.4000000000001</ele><time>2026-05-03T10:17:31.931Z</time></trkpt><trkpt lat="44.1160953" lon="7.9521824"><ele>996.6</ele><time>2026-05-03T10:17:32.934Z</time></trkpt><trkpt lat="44.1161289" lon="7.952341"><ele>995.8</ele><time>2026-05-03T10:17:33.941Z</time></trkpt><trkpt lat="44.1161126" lon="7.952524"><ele>995.0</ele><time>2026-05-03T10:17:34.94Z</time></trkpt><trkpt lat="44.1161144" lon="7.9526858"><ele>991.0</ele><time>2026-05-03T10:17:35.936Z</time></trkpt><trkpt lat="44.1161361" lon="7.952842"><ele>987.0</ele><time>2026-05-03T10:17:36.936Z</time></trkpt><trkpt lat="44.1161726" lon="7.953004"><ele>983.0</ele><time>2026-05-03T10:17:37.942Z</time></trkpt><trkpt lat="44.1162371" lon="7.9531609"><ele>979.0</ele><time>2026-05-03T10:17:38.931Z</time></trkpt><trkpt lat="44.1163115" lon="7.9533245"><ele>971.6666666666666</ele><time>2026-05-03T10:17:39.939Z</time></trkpt><trkpt lat="44.1163812" lon="7.9535037"><ele>964.3333333333333</ele><time>2026-05-03T10:17:40.938Z</time></trkpt><trkpt lat="44.1164395" lon="7.9537076"><ele>957.0</ele><time>2026-05-03T10:17:41.933Z</time></trkpt><trkpt lat="44.1164942" lon="7.9539272"><ele>957.0</ele><time>2026-05-03T10:17:42.939Z</time></trkpt><trkpt lat="44.1165482" lon="7.9541457"><ele>957.0</ele><time>2026-05-03T10:17:43.937Z</time></trkpt><trkpt lat="44.116593" lon="7.9543648"><ele>957.0</ele><time>2026-05-03T10:17:44.936Z</time></trkpt><trkpt lat="44.1166438" lon="7.9545712"><ele>960.0</ele><time>2026-05-03T10:17:45.937Z</time></trkpt><trkpt lat="44.1166952" lon="7.9547771"><ele>963.0</ele><time>2026-05-03T10:17:46.94Z</time></trkpt><trkpt lat="44.1167395" lon="7.9549751"><ele>966.0</ele><time>2026-05-03T10:17:47.937Z</time></trkpt><trkpt lat="44.1167831" lon="7.9551553"><ele>969.0</ele><time>2026-05-03T10:17:48.941Z</time></trkpt><trkpt lat="44.1168507" lon="7.9553101"><ele>969.0</ele><time>2026-05-03T10:17:49.937Z</time></trkpt><trkpt lat="44.1169404" lon="7.9554347"><ele>969.0</ele><time>2026-05-03T10:17:50.939Z</time></trkpt><trkpt lat="44.117053" lon="7.9555237"><ele>969.0</ele><time>2026-05-03T10:17:51.94Z</time></trkpt><trkpt lat="44.117177" lon="7.955593"><ele>969.0</ele><time>2026-05-03T10:17:52.935Z</time></trkpt><trkpt lat="44.1172991" lon="7.9556323"><ele>970.75</ele><time>2026-05-03T10:17:53.937Z</time></trkpt><trkpt lat="44.1174156" lon="7.9556467"><ele>972.5</ele><time>2026-05-03T10:17:54.944Z</time></trkpt><trkpt lat="44.1175329" lon="7.955621"><ele>974.25</ele><time>2026-05-03T10:17:55.945Z</time></trkpt><trkpt lat="44.1176375" lon="7.9555609"><ele>976.0</ele><time>2026-05-03T10:17:56.936Z</time></trkpt><trkpt lat="44.1177454" lon="7.955494"><ele>975.9999999999999</ele><time>2026-05-03T10:17:57.934Z</time></trkpt><trkpt lat="44.1178433" lon="7.9554359"><ele>976.0</ele><time>2026-05-03T10:17:58.936Z</time></trkpt><trkpt lat="44.1179358" lon="7.9554191"><ele>976.0</ele><time>2026-05-03T10:17:59.941Z</time></trkpt><trkpt lat="44.1180084" lon="7.9554619"><ele>976.0</ele><time>2026-05-03T10:18:00.942Z</time></trkpt><trkpt lat="44.1180366" lon="7.9555637"><ele>975.9999999999999</ele><time>2026-05-03T10:18:01.937Z</time></trkpt><trkpt lat="44.1180006" lon="7.9556567"><ele>976.0</ele><time>2026-05-03T10:18:02.941Z</time></trkpt><trkpt lat="44.1179261" lon="7.9557164"><ele>975.9999999999999</ele><time>2026-05-03T10:18:03.933Z</time></trkpt><trkpt lat="44.1178459" lon="7.9557483"><ele>976.0</ele><time>2026-05-03T10:18:04.937Z</time></trkpt><trkpt lat="44.1177697" lon="7.9557791"><ele>976.0</ele><time>2026-05-03T10:18:05.93Z</time></trkpt><trkpt lat="44.1176847" lon="7.9558124"><ele>976.0</ele><time>2026-05-03T10:18:06.939Z</time></trkpt><trkpt lat="44.1175969" lon="7.9558539"><ele>975.9999999999999</ele><time>2026-05-03T10:18:07.937Z</time></trkpt><trkpt lat="44.1175096" lon="7.9559122"><ele>976.0</ele><time>2026-05-03T10:18:08.941Z</time></trkpt><trkpt lat="44.117426" lon="7.9559699"><ele>971.8333333333333</ele><time>2026-05-03T10:18:09.936Z</time></trkpt><trkpt lat="44.1173382" lon="7.9560214"><ele>967.6666666666666</ele><time>2026-05-03T10:18:10.934Z</time></trkpt><trkpt lat="44.1172578" lon="7.9560757"><ele>963.5</ele><time>2026-05-03T10:18:11.933Z</time></trkpt><trkpt lat="44.1171812" lon="7.9561286"><ele>959.3333333333333</ele><time>2026-05-03T10:18:12.945Z</time></trkpt><trkpt lat="44.1171068" lon="7.9561785"><ele>955.1666666666666</ele><time>2026-05-03T10:18:13.939Z</time></trkpt><trkpt lat="44.1170359" lon="7.9562337"><ele>951.0</ele><time>2026-05-03T10:18:14.939Z</time></trkpt><trkpt lat="44.116958" lon="7.9562673"><ele>951.0</ele><time>2026-05-03T10:18:15.935Z</time></trkpt><trkpt lat="44.1168808" lon="7.9563042"><ele>951.0</ele><time>2026-05-03T10:18:16.938Z</time></trkpt><trkpt lat="44.1168042" lon="7.9563447"><ele>951.0</ele><time>2026-05-03T10:18:17.951Z</time></trkpt><trkpt lat="44.1167321" lon="7.9563862"><ele>951.0</ele><time>2026-05-03T10:18:18.936Z</time></trkpt><trkpt lat="44.1166624" lon="7.9564233"><ele>951.0</ele><time>2026-05-03T10:18:19.935Z</time></trkpt><trkpt lat="44.1165995" lon="7.9564502"><ele>951.0</ele><time>2026-05-03T10:18:20.938Z</time></trkpt><trkpt lat="44.1164938" lon="7.956448"><ele>946.5999999999999</ele><time>2026-05-03T10:18:22.937Z</time></trkpt><trkpt lat="44.1163894" lon="7.9563715"><ele>942.1999999999999</ele><time>2026-05-03T10:18:24.937Z</time></trkpt><trkpt lat="44.1163034" lon="7.9562683"><ele>937.8000000000001</ele><time>2026-05-03T10:18:26.939Z</time></trkpt><trkpt lat="44.1162205" lon="7.9561716"><ele>933.4000000000001</ele><time>2026-05-03T10:18:28.94Z</time></trkpt><trkpt lat="44.1161271" lon="7.9560942"><ele>929.0</ele><time>2026-05-03T10:18:30.943Z</time></trkpt><trkpt lat="44.1160597" lon="7.955998"><ele>929.0</ele><time>2026-05-03T10:18:32.943Z</time></trkpt><trkpt lat="44.1160308" lon="7.9558867"><ele>929.0000000000001</ele><time>2026-05-03T10:18:34.93Z</time></trkpt><trkpt lat="44.1159733" lon="7.9558155"><ele>929.0</ele><time>2026-05-03T10:18:36.93Z</time></trkpt><trkpt lat="44.1159067" lon="7.9558033"><ele>929.0</ele><time>2026-05-03T10:18:38.929Z</time></trkpt><trkpt lat="44.1158394" lon="7.9557947"><ele>929.0000000000001</ele><time>2026-05-03T10:18:41.938Z</time></trkpt><trkpt lat="44.1157793" lon="7.9558214"><ele>929.0</ele><time>2026-05-03T10:18:44.942Z</time></trkpt><trkpt lat="44.1157908" lon="7.9557295"><ele>929.0</ele><time>2026-05-03T10:21:41.95Z</time></trkpt><trkpt lat="44.115742" lon="7.955668"><ele>927.4285714285714</ele><time>2026-05-03T10:22:07.946Z</time></trkpt><trkpt lat="44.1157675" lon="7.9555708"><ele>925.8571428571429</ele><time>2026-05-03T10:48:23.989Z</time></trkpt><trkpt lat="44.1157043" lon="7.955565"><ele>924.2857142857143</ele><time>2026-05-03T11:21:17.969Z</time></trkpt><trkpt lat="44.1156546" lon="7.9556221"><ele>922.7142857142858</ele><time>2026-05-03T11:21:35.968Z</time></trkpt><trkpt lat="44.1157016" lon="7.955682"><ele>921.1428571428571</ele><time>2026-05-03T11:25:19.932Z</time></trkpt><trkpt lat="44.1157663" lon="7.9556783"><ele>919.5714285714287</ele><time>2026-05-03T11:25:25.935Z</time></trkpt><trkpt lat="44.1158224" lon="7.9557387"><ele>918.0</ele><time>2026-05-03T11:25:33.903Z</time></trkpt><trkpt lat="44.1158071" lon="7.9558242"><ele>919.8333333333334</ele><time>2026-05-03T11:25:39.955Z</time></trkpt><trkpt lat="44.1158787" lon="7.9558243"><ele>921.6666666666667</ele><time>2026-05-03T11:29:35.954Z</time></trkpt><trkpt lat="44.1159436" lon="7.9558269"><ele>923.5</ele><time>2026-05-03T11:29:36.932Z</time></trkpt><trkpt lat="44.1160127" lon="7.9558205"><ele>925.3333333333334</ele><time>2026-05-03T11:29:37.927Z</time></trkpt><trkpt lat="44.1160452" lon="7.9559104"><ele>927.1666666666667</ele><time>2026-05-03T11:29:39.952Z</time></trkpt><trkpt lat="44.1160718" lon="7.9560162"><ele>929.0</ele><time>2026-05-03T11:29:41.929Z</time></trkpt><trkpt lat="44.1161444" lon="7.9561165"><ele>929.0000000000001</ele><time>2026-05-03T11:29:44.934Z</time></trkpt><trkpt lat="44.1162491" lon="7.9562027"><ele>929.0</ele><time>2026-05-03T11:29:46.932Z</time></trkpt><trkpt lat="44.1163079" lon="7.9562734"><ele>929.0</ele><time>2026-05-03T11:29:47.951Z</time></trkpt><trkpt lat="44.1163646" lon="7.956335"><ele>929.0</ele><time>2026-05-03T11:29:48.944Z</time></trkpt><trkpt lat="44.116418" lon="7.9563912"><ele>929.0000000000001</ele><time>2026-05-03T11:29:49.939Z</time></trkpt><trkpt lat="44.1164978" lon="7.9564668"><ele>929.0</ele><time>2026-05-03T11:29:51.948Z</time></trkpt><trkpt lat="44.1165518" lon="7.956528"><ele>933.4000000000001</ele><time>2026-05-03T11:29:53.96Z</time></trkpt><trkpt lat="44.1166204" lon="7.9566196"><ele>937.8000000000001</ele><time>2026-05-03T11:29:55.95Z</time></trkpt><trkpt lat="44.1167446" lon="7.9566724"><ele>942.1999999999999</ele><time>2026-05-03T11:29:57.944Z</time></trkpt><trkpt lat="44.1168383" lon="7.9566436"><ele>946.5999999999999</ele><time>2026-05-03T11:29:58.945Z</time></trkpt><trkpt lat="44.1169395" lon="7.9566031"><ele>951.0</ele><time>2026-05-03T11:29:59.947Z</time></trkpt><trkpt lat="44.1170447" lon="7.9565519"><ele>951.0</ele><time>2026-05-03T11:30:00.945Z</time></trkpt><trkpt lat="44.1171371" lon="7.9565013"><ele>950.9999999999999</ele><time>2026-05-03T11:30:01.936Z</time></trkpt><trkpt lat="44.1172254" lon="7.9564573"><ele>950.9999999999999</ele><time>2026-05-03T11:30:02.932Z</time></trkpt><trkpt lat="44.1173081" lon="7.9564198"><ele>951.0</ele><time>2026-05-03T11:30:03.928Z</time></trkpt><trkpt lat="44.1173954" lon="7.9563753"><ele>951.0</ele><time>2026-05-03T11:30:04.936Z</time></trkpt><trkpt lat="44.117487" lon="7.9563281"><ele>950.4</ele><time>2026-05-03T11:30:05.928Z</time></trkpt><trkpt lat="44.1175726" lon="7.9562806"><ele>949.8</ele><time>2026-05-03T11:30:06.929Z</time></trkpt><trkpt lat="44.11766" lon="7.9562472"><ele>949.1999999999999</ele><time>2026-05-03T11:30:07.927Z</time></trkpt><trkpt lat="44.1177549" lon="7.9562189"><ele>948.5999999999999</ele><time>2026-05-03T11:30:08.934Z</time></trkpt><trkpt lat="44.1178353" lon="7.9562606"><ele>948.0</ele><time>2026-05-03T11:30:09.936Z</time></trkpt><trkpt lat="44.1178852" lon="7.9563943"><ele>948.0</ele><time>2026-05-03T11:30:10.927Z</time></trkpt><trkpt lat="44.1179068" lon="7.9565407"><ele>948.0</ele><time>2026-05-03T11:30:11.925Z</time></trkpt><trkpt lat="44.117901" lon="7.9566914"><ele>948.0</ele><time>2026-05-03T11:30:12.926Z</time></trkpt><trkpt lat="44.1178925" lon="7.9568564"><ele>948.0</ele><time>2026-05-03T11:30:13.926Z</time></trkpt><trkpt lat="44.1178834" lon="7.9570332"><ele>942.75</ele><time>2026-05-03T11:30:14.931Z</time></trkpt><trkpt lat="44.1178859" lon="7.9572058"><ele>937.5</ele><time>2026-05-03T11:30:15.933Z</time></trkpt><trkpt lat="44.1178974" lon="7.9573646"><ele>932.25</ele><time>2026-05-03T11:30:16.938Z</time></trkpt><trkpt lat="44.1179394" lon="7.9575132"><ele>927.0</ele><time>2026-05-03T11:30:17.947Z</time></trkpt><trkpt lat="44.1179937" lon="7.9576477"><ele>926.5</ele><time>2026-05-03T11:30:18.93Z</time></trkpt><trkpt lat="44.118073" lon="7.9577721"><ele>926.0</ele><time>2026-05-03T11:30:19.931Z</time></trkpt><trkpt lat="44.1181839" lon="7.9578676"><ele>925.5</ele><time>2026-05-03T11:30:20.93Z</time></trkpt><trkpt lat="44.118329" lon="7.9579609"><ele>925.0</ele><time>2026-05-03T11:30:21.929Z</time></trkpt><trkpt lat="44.1184734" lon="7.9580649"><ele>925.0</ele><time>2026-05-03T11:30:22.926Z</time></trkpt><trkpt lat="44.1186209" lon="7.9581671"><ele>925.0</ele><time>2026-05-03T11:30:23.928Z</time></trkpt><trkpt lat="44.1187531" lon="7.9582595"><ele>925.0</ele><time>2026-05-03T11:30:24.925Z</time></trkpt><trkpt lat="44.1188751" lon="7.9583517"><ele>928.0</ele><time>2026-05-03T11:30:25.933Z</time></trkpt><trkpt lat="44.1189905" lon="7.9584475"><ele>931.0</ele><time>2026-05-03T11:30:26.921Z</time></trkpt><trkpt lat="44.1191019" lon="7.9585472"><ele>934.0</ele><time>2026-05-03T11:30:27.923Z</time></trkpt><trkpt lat="44.1192085" lon="7.9586336"><ele>937.0</ele><time>2026-05-03T11:30:28.929Z</time></trkpt><trkpt lat="44.119305" lon="7.9587139"><ele>937.0</ele><time>2026-05-03T11:30:29.921Z</time></trkpt><trkpt lat="44.1193709" lon="7.95881"><ele>937.0</ele><time>2026-05-03T11:30:30.925Z</time></trkpt><trkpt lat="44.1194046" lon="7.9589326"><ele>937.0</ele><time>2026-05-03T11:30:31.934Z</time></trkpt><trkpt lat="44.1193864" lon="7.9590517"><ele>937.0</ele><time>2026-05-03T11:30:32.934Z</time></trkpt><trkpt lat="44.1193211" lon="7.9591719"><ele>937.0</ele><time>2026-05-03T11:30:33.913Z</time></trkpt><trkpt lat="44.119224" lon="7.9592943"><ele>934.0</ele><time>2026-05-03T11:30:34.921Z</time></trkpt><trkpt lat="44.1191018" lon="7.9593847"><ele>931.0</ele><time>2026-05-03T11:30:35.925Z</time></trkpt><trkpt lat="44.1189742" lon="7.9594529"><ele>928.0</ele><time>2026-05-03T11:30:36.922Z</time></trkpt><trkpt lat="44.1188471" lon="7.9595151"><ele>925.0</ele><time>2026-05-03T11:30:37.929Z</time></trkpt><trkpt lat="44.1187145" lon="7.9595851"><ele>925.0</ele><time>2026-05-03T11:30:38.919Z</time></trkpt><trkpt lat="44.118574" lon="7.9596806"><ele>925.0</ele><time>2026-05-03T11:30:39.924Z</time></trkpt><trkpt lat="44.1184338" lon="7.9597961"><ele>925.0</ele><time>2026-05-03T11:30:40.919Z</time></trkpt><trkpt lat="44.1182954" lon="7.9599187"><ele>924.6666666666666</ele><time>2026-05-03T11:30:41.921Z</time></trkpt><trkpt lat="44.1181564" lon="7.9600398"><ele>924.3333333333333</ele><time>2026-05-03T11:30:42.92Z</time></trkpt><trkpt lat="44.118022" lon="7.9601491"><ele>924.0</ele><time>2026-05-03T11:30:43.931Z</time></trkpt><trkpt lat="44.1178865" lon="7.960262"><ele>924.0</ele><time>2026-05-03T11:30:44.918Z</time></trkpt><trkpt lat="44.1177598" lon="7.9603723"><ele>924.0</ele><time>2026-05-03T11:30:45.925Z</time></trkpt><trkpt lat="44.1176336" lon="7.9604875"><ele>924.0</ele><time>2026-05-03T11:30:46.921Z</time></trkpt><trkpt lat="44.1174998" lon="7.9606035"><ele>918.0</ele><time>2026-05-03T11:30:47.93Z</time></trkpt><trkpt lat="44.1173662" lon="7.9607313"><ele>912.0</ele><time>2026-05-03T11:30:48.931Z</time></trkpt><trkpt lat="44.1172429" lon="7.9608656"><ele>906.0</ele><time>2026-05-03T11:30:49.923Z</time></trkpt><trkpt lat="44.1171207" lon="7.9610129"><ele>906.0</ele><time>2026-05-03T11:30:50.926Z</time></trkpt><trkpt lat="44.1169944" lon="7.961175"><ele>906.0</ele><time>2026-05-03T11:30:51.912Z</time></trkpt><trkpt lat="44.116882" lon="7.961347"><ele>906.0</ele><time>2026-05-03T11:30:52.92Z</time></trkpt><trkpt lat="44.1167788" lon="7.9615221"><ele>906.0</ele><time>2026-05-03T11:30:53.92Z</time></trkpt><trkpt lat="44.1166805" lon="7.9616879"><ele>906.0</ele><time>2026-05-03T11:30:54.926Z</time></trkpt><trkpt lat="44.116581" lon="7.9618556"><ele>906.0</ele><time>2026-05-03T11:30:55.919Z</time></trkpt><trkpt lat="44.1164901" lon="7.9620171"><ele>900.5</ele><time>2026-05-03T11:30:56.925Z</time></trkpt><trkpt lat="44.1164099" lon="7.962185"><ele>895.0</ele><time>2026-05-03T11:30:57.926Z</time></trkpt><trkpt lat="44.116338" lon="7.9623617"><ele>889.5</ele><time>2026-05-03T11:30:58.929Z</time></trkpt><trkpt lat="44.1162851" lon="7.9625519"><ele>884.0</ele><time>2026-05-03T11:30:59.926Z</time></trkpt><trkpt lat="44.1162472" lon="7.9627549"><ele>884.0</ele><time>2026-05-03T11:31:00.92Z</time></trkpt><trkpt lat="44.1162225" lon="7.9629593"><ele>884.0</ele><time>2026-05-03T11:31:01.936Z</time></trkpt><trkpt lat="44.1162154" lon="7.9631616"><ele>884.0</ele><time>2026-05-03T11:31:02.929Z</time></trkpt><trkpt lat="44.116232" lon="7.9633572"><ele>884.0</ele><time>2026-05-03T11:31:03.931Z</time></trkpt><trkpt lat="44.1162832" lon="7.9635495"><ele>879.6666666666667</ele><time>2026-05-03T11:31:04.934Z</time></trkpt><trkpt lat="44.1163467" lon="7.963751"><ele>875.3333333333333</ele><time>2026-05-03T11:31:05.934Z</time></trkpt><trkpt lat="44.116407" lon="7.9639653"><ele>871.0</ele><time>2026-05-03T11:31:06.94Z</time></trkpt><trkpt lat="44.1164625" lon="7.9641849"><ele>866.75</ele><time>2026-05-03T11:31:07.927Z</time></trkpt><trkpt lat="44.1165147" lon="7.9643895"><ele>862.5</ele><time>2026-05-03T11:31:08.931Z</time></trkpt><trkpt lat="44.1165572" lon="7.9645877"><ele>858.25</ele><time>2026-05-03T11:31:09.937Z</time></trkpt><trkpt lat="44.1166103" lon="7.9647621"><ele>854.0</ele><time>2026-05-03T11:31:10.934Z</time></trkpt><trkpt lat="44.1166908" lon="7.9649067"><ele>856.25</ele><time>2026-05-03T11:31:11.938Z</time></trkpt><trkpt lat="44.1167888" lon="7.9650398"><ele>858.5</ele><time>2026-05-03T11:31:12.924Z</time></trkpt><trkpt lat="44.1168978" lon="7.9651705"><ele>860.75</ele><time>2026-05-03T11:31:13.93Z</time></trkpt><trkpt lat="44.1170104" lon="7.9653057"><ele>863.0</ele><time>2026-05-03T11:31:14.924Z</time></trkpt><trkpt lat="44.1171274" lon="7.9654192"><ele>863.0</ele><time>2026-05-03T11:31:15.919Z</time></trkpt><trkpt lat="44.1172599" lon="7.9654773"><ele>863.0</ele><time>2026-05-03T11:31:16.922Z</time></trkpt><trkpt lat="44.1173941" lon="7.965503"><ele>863.0</ele><time>2026-05-03T11:31:17.929Z</time></trkpt><trkpt lat="44.1175254" lon="7.9655267"><ele>863.0</ele><time>2026-05-03T11:31:18.927Z</time></trkpt><trkpt lat="44.117657" lon="7.9655746"><ele>861.3333333333334</ele><time>2026-05-03T11:31:19.941Z</time></trkpt><trkpt lat="44.117778" lon="7.9656783"><ele>859.6666666666667</ele><time>2026-05-03T11:31:20.925Z</time></trkpt><trkpt lat="44.1178829" lon="7.9658328"><ele>858.0</ele><time>2026-05-03T11:31:21.928Z</time></trkpt><trkpt lat="44.1179787" lon="7.9660029"><ele>858.0</ele><time>2026-05-03T11:31:22.926Z</time></trkpt><trkpt lat="44.1180812" lon="7.9661702"><ele>858.0</ele><time>2026-05-03T11:31:23.927Z</time></trkpt><trkpt lat="44.1181842" lon="7.9663302"><ele>858.0</ele><time>2026-05-03T11:31:24.928Z</time></trkpt><trkpt lat="44.1182807" lon="7.9664673"><ele>867.0</ele><time>2026-05-03T11:31:25.928Z</time></trkpt><trkpt lat="44.1183696" lon="7.9665965"><ele>876.0</ele><time>2026-05-03T11:31:26.931Z</time></trkpt><trkpt lat="44.1184382" lon="7.9667452"><ele>885.0</ele><time>2026-05-03T11:31:27.922Z</time></trkpt><trkpt lat="44.1184646" lon="7.9668819"><ele>894.0</ele><time>2026-05-03T11:31:28.924Z</time></trkpt><trkpt lat="44.1184325" lon="7.9670313"><ele>897.5</ele><time>2026-05-03T11:31:29.916Z</time></trkpt><trkpt lat="44.1183475" lon="7.9671555"><ele>901.0</ele><time>2026-05-03T11:31:30.924Z</time></trkpt><trkpt lat="44.1182336" lon="7.9672618"><ele>904.5</ele><time>2026-05-03T11:31:31.919Z</time></trkpt><trkpt lat="44.1181186" lon="7.9673527"><ele>908.0</ele><time>2026-05-03T11:31:32.925Z</time></trkpt><trkpt lat="44.1180056" lon="7.9674549"><ele>901.5</ele><time>2026-05-03T11:31:33.928Z</time></trkpt><trkpt lat="44.1178912" lon="7.967583"><ele>895.0</ele><time>2026-05-03T11:31:34.93Z</time></trkpt><trkpt lat="44.1177891" lon="7.9677276"><ele>888.5</ele><time>2026-05-03T11:31:35.939Z</time></trkpt><trkpt lat="44.1177054" lon="7.9679035"><ele>882.0</ele><time>2026-05-03T11:31:36.919Z</time></trkpt><trkpt lat="44.1176441" lon="7.9681063"><ele>882.0</ele><time>2026-05-03T11:31:37.921Z</time></trkpt><trkpt lat="44.1176105" lon="7.9683257"><ele>882.0</ele><time>2026-05-03T11:31:38.931Z</time></trkpt><trkpt lat="44.1176073" lon="7.9685484"><ele>882.0</ele><time>2026-05-03T11:31:39.93Z</time></trkpt><trkpt lat="44.1176297" lon="7.9687668"><ele>878.6666666666667</ele><time>2026-05-03T11:31:40.928Z</time></trkpt><trkpt lat="44.1176814" lon="7.9689673"><ele>875.3333333333334</ele><time>2026-05-03T11:31:41.93Z</time></trkpt><trkpt lat="44.1177821" lon="7.9691546"><ele>872.0</ele><time>2026-05-03T11:31:42.921Z</time></trkpt><trkpt lat="44.1179058" lon="7.969292"><ele>868.0</ele><time>2026-05-03T11:31:43.924Z</time></trkpt><trkpt lat="44.1180279" lon="7.9693978"><ele>864.0</ele><time>2026-05-03T11:31:44.924Z</time></trkpt><trkpt lat="44.1181309" lon="7.9695353"><ele>860.0</ele><time>2026-05-03T11:31:45.936Z</time></trkpt><trkpt lat="44.1181957" lon="7.9697046"><ele>856.0</ele><time>2026-05-03T11:31:46.925Z</time></trkpt><trkpt lat="44.1182485" lon="7.9698895"><ele>870.5</ele><time>2026-05-03T11:31:47.922Z</time></trkpt><trkpt lat="44.1182962" lon="7.9700708"><ele>885.0</ele><time>2026-05-03T11:31:48.934Z</time></trkpt><trkpt lat="44.1183335" lon="7.9702573"><ele>899.5</ele><time>2026-05-03T11:31:49.922Z</time></trkpt><trkpt lat="44.1183286" lon="7.9704402"><ele>914.0</ele><time>2026-05-03T11:31:50.921Z</time></trkpt><trkpt lat="44.1182798" lon="7.970601"><ele>915.75</ele><time>2026-05-03T11:31:51.918Z</time></trkpt><trkpt lat="44.1181966" lon="7.9707207"><ele>917.5</ele><time>2026-05-03T11:31:52.92Z</time></trkpt><trkpt lat="44.1180817" lon="7.970784"><ele>919.25</ele><time>2026-05-03T11:31:53.919Z</time></trkpt><trkpt lat="44.1179491" lon="7.9708192"><ele>921.0</ele><time>2026-05-03T11:31:54.921Z</time></trkpt><trkpt lat="44.117815" lon="7.970865"><ele>921.0</ele><time>2026-05-03T11:31:55.921Z</time></trkpt><trkpt lat="44.1176882" lon="7.9709501"><ele>921.0</ele><time>2026-05-03T11:31:56.926Z</time></trkpt><trkpt lat="44.1175557" lon="7.9710562"><ele>921.0</ele><time>2026-05-03T11:31:57.921Z</time></trkpt><trkpt lat="44.1174231" lon="7.9712042"><ele>912.3333333333333</ele><time>2026-05-03T11:31:58.916Z</time></trkpt><trkpt lat="44.1173011" lon="7.971355"><ele>903.6666666666666</ele><time>2026-05-03T11:31:59.926Z</time></trkpt><trkpt lat="44.1171806" lon="7.9714995"><ele>895.0</ele><time>2026-05-03T11:32:00.921Z</time></trkpt><trkpt lat="44.1170651" lon="7.9716393"><ele>895.75</ele><time>2026-05-03T11:32:01.923Z</time></trkpt><trkpt lat="44.1169448" lon="7.9717559"><ele>896.5</ele><time>2026-05-03T11:32:02.924Z</time></trkpt><trkpt lat="44.1168328" lon="7.9718382"><ele>897.25</ele><time>2026-05-03T11:32:03.92Z</time></trkpt><trkpt lat="44.1167164" lon="7.9718889"><ele>898.0</ele><time>2026-05-03T11:32:04.918Z</time></trkpt><trkpt lat="44.1160696" lon="7.9721098"><ele>898.0</ele><time>2026-05-03T11:32:09.921Z</time></trkpt><trkpt lat="44.1159069" lon="7.9721924"><ele>898.0</ele><time>2026-05-03T11:32:10.914Z</time></trkpt><trkpt lat="44.1157839" lon="7.9722662"><ele>898.0</ele><time>2026-05-03T11:32:11.926Z</time></trkpt><trkpt lat="44.1156869" lon="7.9723716"><ele>898.0</ele><time>2026-05-03T11:32:12.913Z</time></trkpt><trkpt lat="44.1156207" lon="7.9724922"><ele>883.6666666666666</ele><time>2026-05-03T11:32:13.91Z</time></trkpt><trkpt lat="44.115564" lon="7.9726718"><ele>869.3333333333333</ele><time>2026-05-03T11:32:14.923Z</time></trkpt><trkpt lat="44.115537" lon="7.9728904"><ele>855.0</ele><time>2026-05-03T11:32:15.928Z</time></trkpt><trkpt lat="44.1155236" lon="7.9731185"><ele>856.3333333333333</ele><time>2026-05-03T11:32:16.916Z</time></trkpt><trkpt lat="44.1155381" lon="7.9733759"><ele>857.6666666666666</ele><time>2026-05-03T11:32:17.932Z</time></trkpt><trkpt lat="44.1155603" lon="7.9736379"><ele>859.0</ele><time>2026-05-03T11:32:18.92Z</time></trkpt><trkpt lat="44.1155751" lon="7.9739103"><ele>859.0</ele><time>2026-05-03T11:32:19.921Z</time></trkpt><trkpt lat="44.1155868" lon="7.9741619"><ele>859.0</ele><time>2026-05-03T11:32:20.951Z</time></trkpt><trkpt lat="44.1156083" lon="7.974407"><ele>859.0</ele><time>2026-05-03T11:32:21.938Z</time></trkpt><trkpt lat="44.1156446" lon="7.9746452"><ele>854.6666666666666</ele><time>2026-05-03T11:32:22.926Z</time></trkpt><trkpt lat="44.115707" lon="7.9748799"><ele>850.3333333333333</ele><time>2026-05-03T11:32:23.926Z</time></trkpt><trkpt lat="44.1157729" lon="7.9751113"><ele>846.0</ele><time>2026-05-03T11:32:24.932Z</time></trkpt><trkpt lat="44.1158439" lon="7.9753281"><ele>858.6666666666667</ele><time>2026-05-03T11:32:25.943Z</time></trkpt><trkpt lat="44.1159049" lon="7.9755297"><ele>871.3333333333334</ele><time>2026-05-03T11:32:26.93Z</time></trkpt><trkpt lat="44.1159464" lon="7.9757314"><ele>884.0</ele><time>2026-05-03T11:32:27.944Z</time></trkpt><trkpt lat="44.1159609" lon="7.9759372"><ele>885.3333333333334</ele><time>2026-05-03T11:32:28.927Z</time></trkpt><trkpt lat="44.1159443" lon="7.9761361"><ele>886.6666666666667</ele><time>2026-05-03T11:32:29.931Z</time></trkpt><trkpt lat="44.1159175" lon="7.9763481"><ele>888.0</ele><time>2026-05-03T11:32:30.927Z</time></trkpt><trkpt lat="44.115893" lon="7.9765594"><ele>888.25</ele><time>2026-05-03T11:32:31.927Z</time></trkpt><trkpt lat="44.1158644" lon="7.9767716"><ele>888.5</ele><time>2026-05-03T11:32:32.928Z</time></trkpt><trkpt lat="44.1158153" lon="7.9769507"><ele>888.75</ele><time>2026-05-03T11:32:33.93Z</time></trkpt><trkpt lat="44.1157305" lon="7.9770753"><ele>889.0</ele><time>2026-05-03T11:32:34.93Z</time></trkpt><trkpt lat="44.1156142" lon="7.9771678"><ele>889.0</ele><time>2026-05-03T11:32:35.923Z</time></trkpt><trkpt lat="44.1154903" lon="7.9772733"><ele>889.0</ele><time>2026-05-03T11:32:36.929Z</time></trkpt><trkpt lat="44.1153485" lon="7.9773693"><ele>889.0</ele><time>2026-05-03T11:32:37.921Z</time></trkpt><trkpt lat="44.1152013" lon="7.9774602"><ele>889.0</ele><time>2026-05-03T11:32:38.932Z</time></trkpt><trkpt lat="44.1150476" lon="7.9775147"><ele>889.0</ele><time>2026-05-03T11:32:39.925Z</time></trkpt><trkpt lat="44.1148875" lon="7.9775566"><ele>889.0</ele><time>2026-05-03T11:32:40.941Z</time></trkpt><trkpt lat="44.1147298" lon="7.9776139"><ele>881.3333333333333</ele><time>2026-05-03T11:32:41.923Z</time></trkpt><trkpt lat="44.1145967" lon="7.9777157"><ele>873.6666666666667</ele><time>2026-05-03T11:32:42.924Z</time></trkpt><trkpt lat="44.1145026" lon="7.9778732"><ele>866.0</ele><time>2026-05-03T11:32:43.942Z</time></trkpt><trkpt lat="44.1144347" lon="7.9780613"><ele>866.0</ele><time>2026-05-03T11:32:44.919Z</time></trkpt><trkpt lat="44.1143904" lon="7.9782797"><ele>866.0</ele><time>2026-05-03T11:32:45.922Z</time></trkpt><trkpt lat="44.1143563" lon="7.9785113"><ele>866.0</ele><time>2026-05-03T11:32:46.928Z</time></trkpt><trkpt lat="44.1143384" lon="7.9787378"><ele>868.3333333333334</ele><time>2026-05-03T11:32:47.92Z</time></trkpt><trkpt lat="44.1143248" lon="7.9789743"><ele>870.6666666666667</ele><time>2026-05-03T11:32:48.928Z</time></trkpt><trkpt lat="44.1143232" lon="7.979219"><ele>873.0</ele><time>2026-05-03T11:32:49.931Z</time></trkpt><trkpt lat="44.1143213" lon="7.9794584"><ele>873.6666666666667</ele><time>2026-05-03T11:32:50.929Z</time></trkpt><trkpt lat="44.1142912" lon="7.979686"><ele>874.3333333333334</ele><time>2026-05-03T11:32:51.932Z</time></trkpt><trkpt lat="44.1142448" lon="7.979907"><ele>875.0</ele><time>2026-05-03T11:32:52.925Z</time></trkpt><trkpt lat="44.1141808" lon="7.980136"><ele>878.6666666666667</ele><time>2026-05-03T11:32:53.924Z</time></trkpt><trkpt lat="44.1141102" lon="7.9803708"><ele>882.3333333333333</ele><time>2026-05-03T11:32:54.936Z</time></trkpt><trkpt lat="44.1140483" lon="7.9806108"><ele>886.0</ele><time>2026-05-03T11:32:55.931Z</time></trkpt><trkpt lat="44.1139821" lon="7.9808508"><ele>875.6666666666666</ele><time>2026-05-03T11:32:56.931Z</time></trkpt><trkpt lat="44.1139125" lon="7.9811003"><ele>865.3333333333333</ele><time>2026-05-03T11:32:57.931Z</time></trkpt><trkpt lat="44.1138448" lon="7.9813554"><ele>855.0</ele><time>2026-05-03T11:32:58.929Z</time></trkpt><trkpt lat="44.1137784" lon="7.9816098"><ele>859.6666666666667</ele><time>2026-05-03T11:32:59.926Z</time></trkpt><trkpt lat="44.113703" lon="7.9818649"><ele>864.3333333333334</ele><time>2026-05-03T11:33:00.926Z</time></trkpt><trkpt lat="44.1136151" lon="7.9821115"><ele>869.0</ele><time>2026-05-03T11:33:01.924Z</time></trkpt><trkpt lat="44.1135143" lon="7.9823378"><ele>871.3333333333334</ele><time>2026-05-03T11:33:02.926Z</time></trkpt><trkpt lat="44.1134038" lon="7.9825326"><ele>873.6666666666667</ele><time>2026-05-03T11:33:03.926Z</time></trkpt><trkpt lat="44.1132953" lon="7.9827069"><ele>876.0</ele><time>2026-05-03T11:33:04.932Z</time></trkpt><trkpt lat="44.1131946" lon="7.9828759"><ele>871.0</ele><time>2026-05-03T11:33:05.939Z</time></trkpt><trkpt lat="44.1131299" lon="7.9830414"><ele>866.0</ele><time>2026-05-03T11:33:06.932Z</time></trkpt><trkpt lat="44.1131091" lon="7.9832208"><ele>861.0</ele><time>2026-05-03T11:33:07.921Z</time></trkpt><trkpt lat="44.1131429" lon="7.9834099"><ele>856.0</ele><time>2026-05-03T11:33:08.919Z</time></trkpt><trkpt lat="44.1131666" lon="7.9835988"><ele>856.0</ele><time>2026-05-03T11:33:09.926Z</time></trkpt><trkpt lat="44.1131672" lon="7.983796"><ele>856.0</ele><time>2026-05-03T11:33:10.931Z</time></trkpt><trkpt lat="44.1131201" lon="7.9839685"><ele>856.0</ele><time>2026-05-03T11:33:11.931Z</time></trkpt><trkpt lat="44.1130273" lon="7.9841307"><ele>856.0</ele><time>2026-05-03T11:33:12.927Z</time></trkpt><trkpt lat="44.1129161" lon="7.9842672"><ele>860.3333333333333</ele><time>2026-05-03T11:33:13.925Z</time></trkpt><trkpt lat="44.1127887" lon="7.9843938"><ele>864.6666666666667</ele><time>2026-05-03T11:33:14.931Z</time></trkpt><trkpt lat="44.1126419" lon="7.9845088"><ele>869.0</ele><time>2026-05-03T11:33:15.923Z</time></trkpt><trkpt lat="44.1124876" lon="7.9845932"><ele>866.0</ele><time>2026-05-03T11:33:16.928Z</time></trkpt><trkpt lat="44.1123274" lon="7.9846537"><ele>863.0</ele><time>2026-05-03T11:33:17.929Z</time></trkpt><trkpt lat="44.1121804" lon="7.9846878"><ele>860.0</ele><time>2026-05-03T11:33:18.925Z</time></trkpt><trkpt lat="44.1120604" lon="7.9847108"><ele>857.0</ele><time>2026-05-03T11:33:19.921Z</time></trkpt><trkpt lat="44.1119615" lon="7.9847725"><ele>857.0</ele><time>2026-05-03T11:33:20.924Z</time></trkpt><trkpt lat="44.1118996" lon="7.9848814"><ele>857.0</ele><time>2026-05-03T11:33:21.926Z</time></trkpt><trkpt lat="44.1118976" lon="7.9850158"><ele>857.0</ele><time>2026-05-03T11:33:22.927Z</time></trkpt><trkpt lat="44.1119474" lon="7.9851677"><ele>857.0</ele><time>2026-05-03T11:33:23.939Z</time></trkpt><trkpt lat="44.1120202" lon="7.9853222"><ele>857.0</ele><time>2026-05-03T11:33:24.931Z</time></trkpt><trkpt lat="44.1121238" lon="7.9854925"><ele>851.0</ele><time>2026-05-03T11:33:25.921Z</time></trkpt><trkpt lat="44.1122205" lon="7.985673"><ele>845.0</ele><time>2026-05-03T11:33:26.937Z</time></trkpt><trkpt lat="44.1123081" lon="7.9858534"><ele>839.0</ele><time>2026-05-03T11:33:27.935Z</time></trkpt><trkpt lat="44.1123843" lon="7.9860423"><ele>843.0</ele><time>2026-05-03T11:33:28.94Z</time></trkpt><trkpt lat="44.1124384" lon="7.9862395"><ele>847.0</ele><time>2026-05-03T11:33:29.937Z</time></trkpt><trkpt lat="44.1124681" lon="7.98646"><ele>851.0</ele><time>2026-05-03T11:33:30.933Z</time></trkpt><trkpt lat="44.112472" lon="7.9866934"><ele>851.0</ele><time>2026-05-03T11:33:31.933Z</time></trkpt><trkpt lat="44.112466" lon="7.9869326"><ele>851.0</ele><time>2026-05-03T11:33:32.933Z</time></trkpt><trkpt lat="44.1124617" lon="7.9871764"><ele>851.0</ele><time>2026-05-03T11:33:33.931Z</time></trkpt><trkpt lat="44.112457" lon="7.9874066"><ele>848.3333333333334</ele><time>2026-05-03T11:33:34.929Z</time></trkpt><trkpt lat="44.112444" lon="7.9876324"><ele>845.6666666666667</ele><time>2026-05-03T11:33:35.93Z</time></trkpt><trkpt lat="44.1124395" lon="7.9878405"><ele>843.0</ele><time>2026-05-03T11:33:36.938Z</time></trkpt><trkpt lat="44.112458" lon="7.9880353"><ele>843.0</ele><time>2026-05-03T11:33:37.945Z</time></trkpt><trkpt lat="44.1125035" lon="7.9881929"><ele>843.0</ele><time>2026-05-03T11:33:38.932Z</time></trkpt><trkpt lat="44.1125915" lon="7.9883526"><ele>843.0</ele><time>2026-05-03T11:33:39.924Z</time></trkpt><trkpt lat="44.1126958" lon="7.9885111"><ele>843.0</ele><time>2026-05-03T11:33:40.934Z</time></trkpt><trkpt lat="44.1128057" lon="7.9886824"><ele>841.0</ele><time>2026-05-03T11:33:41.926Z</time></trkpt><trkpt lat="44.1129179" lon="7.9888596"><ele>839.0</ele><time>2026-05-03T11:33:42.937Z</time></trkpt><trkpt lat="44.1130172" lon="7.9890326"><ele>837.0</ele><time>2026-05-03T11:33:43.929Z</time></trkpt><trkpt lat="44.1130984" lon="7.9892038"><ele>837.0</ele><time>2026-05-03T11:33:44.928Z</time></trkpt><trkpt lat="44.1131351" lon="7.9893962"><ele>837.0</ele><time>2026-05-03T11:33:45.924Z</time></trkpt><trkpt lat="44.113133" lon="7.9895916"><ele>837.0</ele><time>2026-05-03T11:33:46.923Z</time></trkpt><trkpt lat="44.1130915" lon="7.9897901"><ele>837.0</ele><time>2026-05-03T11:33:47.925Z</time></trkpt><trkpt lat="44.1130261" lon="7.989974"><ele>834.5</ele><time>2026-05-03T11:33:48.933Z</time></trkpt><trkpt lat="44.1129811" lon="7.9901488"><ele>832.0</ele><time>2026-05-03T11:33:49.929Z</time></trkpt><trkpt lat="44.1129786" lon="7.9903192"><ele>829.5</ele><time>2026-05-03T11:33:50.932Z</time></trkpt><trkpt lat="44.1130109" lon="7.9904824"><ele>827.0</ele><time>2026-05-03T11:33:51.928Z</time></trkpt><trkpt lat="44.1130873" lon="7.9906612"><ele>827.0</ele><time>2026-05-03T11:33:52.93Z</time></trkpt><trkpt lat="44.1131903" lon="7.9908087"><ele>827.0</ele><time>2026-05-03T11:33:53.947Z</time></trkpt><trkpt lat="44.1133231" lon="7.9909526"><ele>827.0</ele><time>2026-05-03T11:33:54.93Z</time></trkpt><trkpt lat="44.1134527" lon="7.9910954"><ele>825.75</ele><time>2026-05-03T11:33:55.921Z</time></trkpt><trkpt lat="44.1135691" lon="7.9912438"><ele>824.5</ele><time>2026-05-03T11:33:56.923Z</time></trkpt><trkpt lat="44.1136632" lon="7.9913973"><ele>823.25</ele><time>2026-05-03T11:33:57.928Z</time></trkpt><trkpt lat="44.1137067" lon="7.9915783"><ele>822.0</ele><time>2026-05-03T11:33:58.928Z</time></trkpt><trkpt lat="44.1136847" lon="7.991757"><ele>821.6666666666667</ele><time>2026-05-03T11:33:59.935Z</time></trkpt><trkpt lat="44.1136153" lon="7.9919542"><ele>821.3333333333334</ele><time>2026-05-03T11:34:00.93Z</time></trkpt><trkpt lat="44.113545" lon="7.9921645"><ele>821.0</ele><time>2026-05-03T11:34:01.919Z</time></trkpt><trkpt lat="44.1134849" lon="7.9923913"><ele>821.3333333333334</ele><time>2026-05-03T11:34:02.925Z</time></trkpt><trkpt lat="44.1134214" lon="7.9926224"><ele>821.6666666666667</ele><time>2026-05-03T11:34:03.922Z</time></trkpt><trkpt lat="44.1133602" lon="7.9928461"><ele>822.0</ele><time>2026-05-03T11:34:04.929Z</time></trkpt><trkpt lat="44.1132974" lon="7.9930673"><ele>822.0</ele><time>2026-05-03T11:34:05.929Z</time></trkpt><trkpt lat="44.1132459" lon="7.9932955"><ele>822.0</ele><time>2026-05-03T11:34:06.926Z</time></trkpt><trkpt lat="44.1132133" lon="7.9935272"><ele>822.0</ele><time>2026-05-03T11:34:07.923Z</time></trkpt><trkpt lat="44.1132089" lon="7.9937594"><ele>819.3333333333333</ele><time>2026-05-03T11:34:08.927Z</time></trkpt><trkpt lat="44.1132115" lon="7.9939926"><ele>816.6666666666666</ele><time>2026-05-03T11:34:09.925Z</time></trkpt><trkpt lat="44.1132354" lon="7.9942277"><ele>814.0</ele><time>2026-05-03T11:34:10.933Z</time></trkpt><trkpt lat="44.1132852" lon="7.9944608"><ele>814.0</ele><time>2026-05-03T11:34:11.927Z</time></trkpt><trkpt lat="44.1133447" lon="7.994695"><ele>814.0</ele><time>2026-05-03T11:34:12.937Z</time></trkpt><trkpt lat="44.1134111" lon="7.9949327"><ele>814.0</ele><time>2026-05-03T11:34:13.937Z</time></trkpt><trkpt lat="44.1134671" lon="7.9951602"><ele>810.3333333333333</ele><time>2026-05-03T11:34:14.932Z</time></trkpt><trkpt lat="44.1135179" lon="7.9953843"><ele>806.6666666666667</ele><time>2026-05-03T11:34:15.927Z</time></trkpt><trkpt lat="44.1135533" lon="7.9956003"><ele>803.0</ele><time>2026-05-03T11:34:16.937Z</time></trkpt><trkpt lat="44.1135677" lon="7.9958095"><ele>802.0</ele><time>2026-05-03T11:34:17.927Z</time></trkpt><trkpt lat="44.1135503" lon="7.9960259"><ele>801.0</ele><time>2026-05-03T11:34:18.932Z</time></trkpt><trkpt lat="44.1135117" lon="7.9962375"><ele>800.0</ele><time>2026-05-03T11:34:19.932Z</time></trkpt><trkpt lat="44.1134585" lon="7.9964623"><ele>801.6666666666667</ele><time>2026-05-03T11:34:20.932Z</time></trkpt><trkpt lat="44.113394" lon="7.9966841"><ele>803.3333333333333</ele><time>2026-05-03T11:34:21.934Z</time></trkpt><trkpt lat="44.1133341" lon="7.996918"><ele>805.0</ele><time>2026-05-03T11:34:22.931Z</time></trkpt><trkpt lat="44.1132745" lon="7.9971582"><ele>796.3333333333333</ele><time>2026-05-03T11:34:23.93Z</time></trkpt><trkpt lat="44.1132166" lon="7.9973954"><ele>787.6666666666667</ele><time>2026-05-03T11:34:24.929Z</time></trkpt><trkpt lat="44.1131569" lon="7.9976446"><ele>779.0</ele><time>2026-05-03T11:34:25.931Z</time></trkpt><trkpt lat="44.1130985" lon="7.9978923"><ele>779.0</ele><time>2026-05-03T11:34:26.925Z</time></trkpt><trkpt lat="44.1130389" lon="7.9981395"><ele>779.0</ele><time>2026-05-03T11:34:27.929Z</time></trkpt><trkpt lat="44.1129777" lon="7.9983874"><ele>779.0</ele><time>2026-05-03T11:34:28.927Z</time></trkpt><trkpt lat="44.1129186" lon="7.9986302"><ele>779.6666666666667</ele><time>2026-05-03T11:34:29.932Z</time></trkpt><trkpt lat="44.1128618" lon="7.998852"><ele>780.3333333333333</ele><time>2026-05-03T11:34:30.927Z</time></trkpt><trkpt lat="44.1128059" lon="7.9990782"><ele>781.0</ele><time>2026-05-03T11:34:31.934Z</time></trkpt><trkpt lat="44.1127535" lon="7.9993047"><ele>782.0</ele><time>2026-05-03T11:34:32.935Z</time></trkpt><trkpt lat="44.1126864" lon="7.9995243"><ele>783.0</ele><time>2026-05-03T11:34:33.935Z</time></trkpt><trkpt lat="44.1126015" lon="7.9997183"><ele>784.0</ele><time>2026-05-03T11:34:34.931Z</time></trkpt><trkpt lat="44.1125121" lon="7.999899"><ele>784.0</ele><time>2026-05-03T11:34:35.937Z</time></trkpt><trkpt lat="44.1124101" lon="8.0000441"><ele>784.0</ele><time>2026-05-03T11:34:36.934Z</time></trkpt><trkpt lat="44.1123383" lon="8.0001725"><ele>784.0</ele><time>2026-05-03T11:34:37.935Z</time></trkpt><trkpt lat="44.1123119" lon="8.0003046"><ele>784.0</ele><time>2026-05-03T11:34:38.943Z</time></trkpt><trkpt lat="44.1123461" lon="8.0004187"><ele>784.0</ele><time>2026-05-03T11:34:39.93Z</time></trkpt><trkpt lat="44.1124142" lon="8.0005301"><ele>784.0</ele><time>2026-05-03T11:34:40.924Z</time></trkpt><trkpt lat="44.1125134" lon="8.0005943"><ele>784.0</ele><time>2026-05-03T11:34:41.931Z</time></trkpt><trkpt lat="44.1126375" lon="8.0006142"><ele>784.0</ele><time>2026-05-03T11:34:42.932Z</time></trkpt><trkpt lat="44.1127778" lon="8.0006041"><ele>784.0</ele><time>2026-05-03T11:34:43.929Z</time></trkpt><trkpt lat="44.1129092" lon="8.0005956"><ele>784.0</ele><time>2026-05-03T11:34:44.926Z</time></trkpt><trkpt lat="44.1130485" lon="8.0006051"><ele>784.0</ele><time>2026-05-03T11:34:45.918Z</time></trkpt><trkpt lat="44.1131729" lon="8.0006676"><ele>784.0</ele><time>2026-05-03T11:34:46.935Z</time></trkpt><trkpt lat="44.113286" lon="8.0007702"><ele>782.5</ele><time>2026-05-03T11:34:47.93Z</time></trkpt><trkpt lat="44.1133933" lon="8.000897"><ele>781.0</ele><time>2026-05-03T11:34:48.921Z</time></trkpt><trkpt lat="44.1134991" lon="8.0010375"><ele>779.5</ele><time>2026-05-03T11:34:49.94Z</time></trkpt><trkpt lat="44.1136108" lon="8.001183"><ele>778.0</ele><time>2026-05-03T11:34:50.928Z</time></trkpt><trkpt lat="44.113718" lon="8.0013174"><ele>778.0</ele><time>2026-05-03T11:34:51.926Z</time></trkpt><trkpt lat="44.1138095" lon="8.0014639"><ele>778.0</ele><time>2026-05-03T11:34:52.936Z</time></trkpt><trkpt lat="44.113871" lon="8.001648"><ele>778.0</ele><time>2026-05-03T11:34:53.932Z</time></trkpt><trkpt lat="44.1138876" lon="8.0018299"><ele>778.0</ele><time>2026-05-03T11:34:54.933Z</time></trkpt><trkpt lat="44.1138976" lon="8.0020189"><ele>774.25</ele><time>2026-05-03T11:34:55.933Z</time></trkpt><trkpt lat="44.1139124" lon="8.0021957"><ele>770.5</ele><time>2026-05-03T11:34:56.927Z</time></trkpt><trkpt lat="44.1139663" lon="8.0023527"><ele>766.75</ele><time>2026-05-03T11:34:57.928Z</time></trkpt><trkpt lat="44.1140656" lon="8.0024924"><ele>763.0</ele><time>2026-05-03T11:34:58.921Z</time></trkpt><trkpt lat="44.1141747" lon="8.0026196"><ele>763.0</ele><time>2026-05-03T11:34:59.93Z</time></trkpt><trkpt lat="44.1142748" lon="8.0027806"><ele>763.0</ele><time>2026-05-03T11:35:00.926Z</time></trkpt><trkpt lat="44.1143304" lon="8.0029529"><ele>763.0</ele><time>2026-05-03T11:35:01.937Z</time></trkpt><trkpt lat="44.1143616" lon="8.0031339"><ele>763.0</ele><time>2026-05-03T11:35:02.929Z</time></trkpt><trkpt lat="44.1143847" lon="8.0033102"><ele>760.3333333333334</ele><time>2026-05-03T11:35:03.917Z</time></trkpt><trkpt lat="44.1144163" lon="8.0034618"><ele>757.6666666666667</ele><time>2026-05-03T11:35:04.928Z</time></trkpt><trkpt lat="44.114434" lon="8.0035928"><ele>755.0</ele><time>2026-05-03T11:35:05.925Z</time></trkpt><trkpt lat="44.1144267" lon="8.0036911"><ele>752.3333333333334</ele><time>2026-05-03T11:35:06.935Z</time></trkpt><trkpt lat="44.1143345" lon="8.0037261"><ele>749.6666666666666</ele><time>2026-05-03T11:35:08.929Z</time></trkpt><trkpt lat="44.1142917" lon="8.0036519"><ele>747.0</ele><time>2026-05-03T11:35:09.929Z</time></trkpt><trkpt lat="44.1142621" lon="8.0035267"><ele>747.0</ele><time>2026-05-03T11:35:10.933Z</time></trkpt><trkpt lat="44.1142186" lon="8.0033894"><ele>747.0</ele><time>2026-05-03T11:35:11.918Z</time></trkpt><trkpt lat="44.1141404" lon="8.0032487"><ele>747.0</ele><time>2026-05-03T11:35:12.926Z</time></trkpt><trkpt lat="44.1140296" lon="8.0031157"><ele>747.0</ele><time>2026-05-03T11:35:13.921Z</time></trkpt><trkpt lat="44.1138986" lon="8.002988"><ele>746.0</ele><time>2026-05-03T11:35:14.929Z</time></trkpt><trkpt lat="44.1137474" lon="8.0028932"><ele>745.0</ele><time>2026-05-03T11:35:15.922Z</time></trkpt><trkpt lat="44.1135961" lon="8.0028035"><ele>744.0</ele><time>2026-05-03T11:35:16.934Z</time></trkpt><trkpt lat="44.11345" lon="8.0027215"><ele>744.0</ele><time>2026-05-03T11:35:17.918Z</time></trkpt><trkpt lat="44.1133023" lon="8.0026435"><ele>744.0</ele><time>2026-05-03T11:35:18.924Z</time></trkpt><trkpt lat="44.1131573" lon="8.0025749"><ele>744.0</ele><time>2026-05-03T11:35:19.922Z</time></trkpt><trkpt lat="44.1130109" lon="8.002536"><ele>743.0</ele><time>2026-05-03T11:35:20.921Z</time></trkpt><trkpt lat="44.1128635" lon="8.0025434"><ele>742.0</ele><time>2026-05-03T11:35:21.91Z</time></trkpt><trkpt lat="44.1127239" lon="8.0025867"><ele>741.0</ele><time>2026-05-03T11:35:22.922Z</time></trkpt><trkpt lat="44.1125885" lon="8.0026864"><ele>740.0</ele><time>2026-05-03T11:35:23.931Z</time></trkpt><trkpt lat="44.112461" lon="8.0028076"><ele>741.5</ele><time>2026-05-03T11:35:24.93Z</time></trkpt><trkpt lat="44.1123361" lon="8.0029273"><ele>743.0</ele><time>2026-05-03T11:35:25.935Z</time></trkpt><trkpt lat="44.1122152" lon="8.0030122"><ele>744.5</ele><time>2026-05-03T11:35:26.926Z</time></trkpt><trkpt lat="44.1120731" lon="8.0030595"><ele>746.0</ele><time>2026-05-03T11:35:27.925Z</time></trkpt><trkpt lat="44.1119439" lon="8.0030753"><ele>746.0</ele><time>2026-05-03T11:35:28.923Z</time></trkpt><trkpt lat="44.1118219" lon="8.0030728"><ele>746.0</ele><time>2026-05-03T11:35:29.923Z</time></trkpt><trkpt lat="44.1117147" lon="8.0030545"><ele>746.0</ele><time>2026-05-03T11:35:30.925Z</time></trkpt><trkpt lat="44.111615" lon="8.0030743"><ele>746.0</ele><time>2026-05-03T11:35:31.922Z</time></trkpt><trkpt lat="44.1115465" lon="8.0031526"><ele>746.0</ele><time>2026-05-03T11:35:32.924Z</time></trkpt><trkpt lat="44.1115102" lon="8.0032429"><ele>740.75</ele><time>2026-05-03T11:35:33.929Z</time></trkpt><trkpt lat="44.111526" lon="8.0033438"><ele>735.5</ele><time>2026-05-03T11:35:34.93Z</time></trkpt><trkpt lat="44.1116042" lon="8.003478"><ele>730.25</ele><time>2026-05-03T11:35:35.938Z</time></trkpt><trkpt lat="44.1117015" lon="8.0035952"><ele>725.0</ele><time>2026-05-03T11:35:36.922Z</time></trkpt><trkpt lat="44.1118129" lon="8.0037146"><ele>723.5</ele><time>2026-05-03T11:35:37.93Z</time></trkpt><trkpt lat="44.1119233" lon="8.0038331"><ele>722.0</ele><time>2026-05-03T11:35:38.925Z</time></trkpt><trkpt lat="44.1120232" lon="8.0039395"><ele>720.5</ele><time>2026-05-03T11:35:39.924Z</time></trkpt><trkpt lat="44.1121109" lon="8.0040414"><ele>719.0</ele><time>2026-05-03T11:35:40.928Z</time></trkpt><trkpt lat="44.1121876" lon="8.0041331"><ele>716.4000000000001</ele><time>2026-05-03T11:35:41.926Z</time></trkpt><trkpt lat="44.1122622" lon="8.0042246"><ele>713.8</ele><time>2026-05-03T11:35:42.938Z</time></trkpt><trkpt lat="44.1123224" lon="8.0043318"><ele>711.2</ele><time>2026-05-03T11:35:43.93Z</time></trkpt><trkpt lat="44.1123668" lon="8.0044756"><ele>708.5999999999999</ele><time>2026-05-03T11:35:44.933Z</time></trkpt><trkpt lat="44.1123876" lon="8.0046371"><ele>706.0</ele><time>2026-05-03T11:35:45.941Z</time></trkpt><trkpt lat="44.1123761" lon="8.0047909"><ele>706.0</ele><time>2026-05-03T11:35:46.931Z</time></trkpt><trkpt lat="44.1123438" lon="8.0049487"><ele>706.0</ele><time>2026-05-03T11:35:47.933Z</time></trkpt><trkpt lat="44.1122949" lon="8.0051209"><ele>706.0</ele><time>2026-05-03T11:35:48.928Z</time></trkpt><trkpt lat="44.1122472" lon="8.0053025"><ele>706.0</ele><time>2026-05-03T11:35:49.928Z</time></trkpt><trkpt lat="44.1122055" lon="8.0054834"><ele>704.1999999999999</ele><time>2026-05-03T11:35:50.934Z</time></trkpt><trkpt lat="44.1121609" lon="8.0056567"><ele>702.4</ele><time>2026-05-03T11:35:51.93Z</time></trkpt><trkpt lat="44.1121201" lon="8.0058076"><ele>700.6</ele><time>2026-05-03T11:35:52.927Z</time></trkpt><trkpt lat="44.11209" lon="8.0059431"><ele>698.8</ele><time>2026-05-03T11:35:53.933Z</time></trkpt><trkpt lat="44.1120613" lon="8.0060604"><ele>697.0</ele><time>2026-05-03T11:35:54.929Z</time></trkpt><trkpt lat="44.1120246" lon="8.0061683"><ele>697.0</ele><time>2026-05-03T11:35:55.935Z</time></trkpt><trkpt lat="44.1119654" lon="8.0062372"><ele>697.0</ele><time>2026-05-03T11:35:56.933Z</time></trkpt><trkpt lat="44.1118731" lon="8.0062361"><ele>697.0</ele><time>2026-05-03T11:35:57.952Z</time></trkpt><trkpt lat="44.1118048" lon="8.0061836"><ele>697.0</ele><time>2026-05-03T11:35:58.923Z</time></trkpt><trkpt lat="44.1117549" lon="8.0060618"><ele>697.0</ele><time>2026-05-03T11:35:59.934Z</time></trkpt><trkpt lat="44.1117243" lon="8.0059425"><ele>697.0</ele><time>2026-05-03T11:36:00.925Z</time></trkpt><trkpt lat="44.1116895" lon="8.0058062"><ele>697.0</ele><time>2026-05-03T11:36:01.93Z</time></trkpt><trkpt lat="44.1116305" lon="8.0056705"><ele>697.0</ele><time>2026-05-03T11:36:02.927Z</time></trkpt><trkpt lat="44.1115528" lon="8.0055442"><ele>697.0</ele><time>2026-05-03T11:36:03.928Z</time></trkpt><trkpt lat="44.1114459" lon="8.005433"><ele>697.0</ele><time>2026-05-03T11:36:04.929Z</time></trkpt><trkpt lat="44.1113259" lon="8.0053513"><ele>694.5</ele><time>2026-05-03T11:36:05.942Z</time></trkpt><trkpt lat="44.1111936" lon="8.0052802"><ele>692.0</ele><time>2026-05-03T11:36:06.924Z</time></trkpt><trkpt lat="44.1110549" lon="8.0052083"><ele>689.5</ele><time>2026-05-03T11:36:07.932Z</time></trkpt><trkpt lat="44.1109107" lon="8.0051361"><ele>687.0</ele><time>2026-05-03T11:36:08.941Z</time></trkpt><trkpt lat="44.110774" lon="8.0050652"><ele>688.25</ele><time>2026-05-03T11:36:09.932Z</time></trkpt><trkpt lat="44.1106378" lon="8.0049951"><ele>689.5</ele><time>2026-05-03T11:36:10.939Z</time></trkpt><trkpt lat="44.1105031" lon="8.0049289"><ele>690.75</ele><time>2026-05-03T11:36:11.929Z</time></trkpt><trkpt lat="44.1103702" lon="8.004862"><ele>692.0</ele><time>2026-05-03T11:36:12.934Z</time></trkpt><trkpt lat="44.1102339" lon="8.004794"><ele>692.0</ele><time>2026-05-03T11:36:13.926Z</time></trkpt><trkpt lat="44.1100998" lon="8.0047268"><ele>692.0</ele><time>2026-05-03T11:36:14.945Z</time></trkpt><trkpt lat="44.1099597" lon="8.0046629"><ele>692.0</ele><time>2026-05-03T11:36:15.928Z</time></trkpt><trkpt lat="44.1098283" lon="8.0045867"><ele>692.0</ele><time>2026-05-03T11:36:16.931Z</time></trkpt><trkpt lat="44.1097037" lon="8.0044983"><ele>691.0</ele><time>2026-05-03T11:36:17.934Z</time></trkpt><trkpt lat="44.1095785" lon="8.0044089"><ele>690.0</ele><time>2026-05-03T11:36:18.927Z</time></trkpt><trkpt lat="44.1094471" lon="8.0043194"><ele>689.0</ele><time>2026-05-03T11:36:19.927Z</time></trkpt><trkpt lat="44.1093165" lon="8.0042282"><ele>688.0</ele><time>2026-05-03T11:36:20.927Z</time></trkpt><trkpt lat="44.1091912" lon="8.0041384"><ele>680.5999999999999</ele><time>2026-05-03T11:36:21.929Z</time></trkpt><trkpt lat="44.1090686" lon="8.0040536"><ele>673.1999999999999</ele><time>2026-05-03T11:36:22.934Z</time></trkpt><trkpt lat="44.1089643" lon="8.0039728"><ele>665.8</ele><time>2026-05-03T11:36:23.93Z</time></trkpt><trkpt lat="44.108878" lon="8.003904"><ele>658.4</ele><time>2026-05-03T11:36:24.935Z</time></trkpt><trkpt lat="44.1088126" lon="8.0038497"><ele>651.0</ele><time>2026-05-03T11:36:25.928Z</time></trkpt><trkpt lat="44.1086998" lon="8.0038762"><ele>651.0</ele><time>2026-05-03T11:36:27.93Z</time></trkpt><trkpt lat="44.1086652" lon="8.0040406"><ele>651.0</ele><time>2026-05-03T11:36:29.942Z</time></trkpt><trkpt lat="44.1087124" lon="8.0041414"><ele>651.0</ele><time>2026-05-03T11:36:30.936Z</time></trkpt><trkpt lat="44.1087811" lon="8.0042357"><ele>651.0</ele><time>2026-05-03T11:36:31.929Z</time></trkpt><trkpt lat="44.1088593" lon="8.0043366"><ele>651.0</ele><time>2026-05-03T11:36:32.932Z</time></trkpt><trkpt lat="44.1089484" lon="8.0044475"><ele>650.5</ele><time>2026-05-03T11:36:33.931Z</time></trkpt><trkpt lat="44.1090493" lon="8.0045761"><ele>650.0</ele><time>2026-05-03T11:36:34.931Z</time></trkpt><trkpt lat="44.1091537" lon="8.0046994"><ele>649.5</ele><time>2026-05-03T11:36:35.933Z</time></trkpt><trkpt lat="44.1092536" lon="8.0048195"><ele>649.0</ele><time>2026-05-03T11:36:36.934Z</time></trkpt><trkpt lat="44.1093494" lon="8.0049226"><ele>650.2</ele><time>2026-05-03T11:36:37.924Z</time></trkpt><trkpt lat="44.1094418" lon="8.005022"><ele>651.4000000000001</ele><time>2026-05-03T11:36:38.927Z</time></trkpt><trkpt lat="44.1095205" lon="8.0051174"><ele>652.6</ele><time>2026-05-03T11:36:39.925Z</time></trkpt><trkpt lat="44.10957" lon="8.0052152"><ele>653.8</ele><time>2026-05-03T11:36:40.929Z</time></trkpt><trkpt lat="44.1095837" lon="8.0053175"><ele>655.0</ele><time>2026-05-03T11:36:41.935Z</time></trkpt><trkpt lat="44.1095456" lon="8.0053991"><ele>655.0</ele><time>2026-05-03T11:36:42.926Z</time></trkpt><trkpt lat="44.1094722" lon="8.0054369"><ele>655.0</ele><time>2026-05-03T11:36:43.929Z</time></trkpt><trkpt lat="44.109396" lon="8.0054216"><ele>655.0</ele><time>2026-05-03T11:36:44.931Z</time></trkpt><trkpt lat="44.109326" lon="8.0053491"><ele>655.0</ele><time>2026-05-03T11:36:45.925Z</time></trkpt><trkpt lat="44.1092598" lon="8.0052651"><ele>655.0</ele><time>2026-05-03T11:36:46.936Z</time></trkpt><trkpt lat="44.1091938" lon="8.0051893"><ele>655.0</ele><time>2026-05-03T11:36:47.929Z</time></trkpt><trkpt lat="44.1091316" lon="8.0051203"><ele>652.3333333333334</ele><time>2026-05-03T11:36:48.925Z</time></trkpt><trkpt lat="44.1090616" lon="8.0050573"><ele>649.6666666666667</ele><time>2026-05-03T11:36:49.93Z</time></trkpt><trkpt lat="44.1089967" lon="8.0050173"><ele>647.0</ele><time>2026-05-03T11:36:50.924Z</time></trkpt><trkpt lat="44.1089109" lon="8.0050073"><ele>644.3333333333334</ele><time>2026-05-03T11:36:52.922Z</time></trkpt><trkpt lat="44.1088385" lon="8.0050412"><ele>641.6666666666666</ele><time>2026-05-03T11:36:54.933Z</time></trkpt><trkpt lat="44.1088276" lon="8.0051835"><ele>639.0</ele><time>2026-05-03T11:36:56.921Z</time></trkpt><trkpt lat="44.1088573" lon="8.0052638"><ele>639.0</ele><time>2026-05-03T11:36:57.936Z</time></trkpt><trkpt lat="44.1089051" lon="8.0053485"><ele>639.0</ele><time>2026-05-03T11:36:58.931Z</time></trkpt><trkpt lat="44.1089635" lon="8.0054272"><ele>639.0</ele><time>2026-05-03T11:36:59.922Z</time></trkpt><trkpt lat="44.1090234" lon="8.0055205"><ele>639.0</ele><time>2026-05-03T11:37:00.927Z</time></trkpt><trkpt lat="44.1090935" lon="8.0056195"><ele>639.0</ele><time>2026-05-03T11:37:01.926Z</time></trkpt><trkpt lat="44.1091753" lon="8.0057281"><ele>639.5</ele><time>2026-05-03T11:37:02.931Z</time></trkpt><trkpt lat="44.109249" lon="8.0058397"><ele>640.0</ele><time>2026-05-03T11:37:03.924Z</time></trkpt><trkpt lat="44.1093085" lon="8.0059694"><ele>640.5</ele><time>2026-05-03T11:37:04.932Z</time></trkpt><trkpt lat="44.10934" lon="8.006114"><ele>641.0</ele><time>2026-05-03T11:37:05.932Z</time></trkpt><trkpt lat="44.1093647" lon="8.0062827"><ele>641.0</ele><time>2026-05-03T11:37:06.923Z</time></trkpt><trkpt lat="44.1093958" lon="8.0064543"><ele>641.0</ele><time>2026-05-03T11:37:07.924Z</time></trkpt><trkpt lat="44.1094285" lon="8.0066304"><ele>641.0</ele><time>2026-05-03T11:37:08.93Z</time></trkpt><trkpt lat="44.1094777" lon="8.0067997"><ele>641.0</ele><time>2026-05-03T11:37:09.923Z</time></trkpt><trkpt lat="44.1095404" lon="8.006973"><ele>638.5</ele><time>2026-05-03T11:37:10.926Z</time></trkpt><trkpt lat="44.1096223" lon="8.0071305"><ele>636.0</ele><time>2026-05-03T11:37:11.924Z</time></trkpt><trkpt lat="44.1097056" lon="8.0072752"><ele>633.5</ele><time>2026-05-03T11:37:12.929Z</time></trkpt><trkpt lat="44.1097865" lon="8.0074131"><ele>631.0</ele><time>2026-05-03T11:37:13.924Z</time></trkpt><trkpt lat="44.1098767" lon="8.0075235"><ele>632.75</ele><time>2026-05-03T11:37:14.921Z</time></trkpt><trkpt lat="44.1099884" lon="8.0076336"><ele>634.5</ele><time>2026-05-03T11:37:15.927Z</time></trkpt><trkpt lat="44.1101199" lon="8.0077279"><ele>636.25</ele><time>2026-05-03T11:37:16.923Z</time></trkpt><trkpt lat="44.1102565" lon="8.0078273"><ele>638.0</ele><time>2026-05-03T11:37:17.933Z</time></trkpt><trkpt lat="44.1103893" lon="8.007925"><ele>638.0</ele><time>2026-05-03T11:37:18.924Z</time></trkpt><trkpt lat="44.1105315" lon="8.0080234"><ele>638.0</ele><time>2026-05-03T11:37:19.925Z</time></trkpt><trkpt lat="44.1106817" lon="8.0081115"><ele>638.0</ele><time>2026-05-03T11:37:20.927Z</time></trkpt><trkpt lat="44.1108384" lon="8.0081805"><ele>642.3333333333333</ele><time>2026-05-03T11:37:21.925Z</time></trkpt><trkpt lat="44.111003" lon="8.0082385"><ele>646.6666666666666</ele><time>2026-05-03T11:37:22.934Z</time></trkpt><trkpt lat="44.1111679" lon="8.0083026"><ele>651.0</ele><time>2026-05-03T11:37:23.926Z</time></trkpt><trkpt lat="44.1113239" lon="8.0083722"><ele>644.3333333333334</ele><time>2026-05-03T11:37:24.923Z</time></trkpt><trkpt lat="44.1114797" lon="8.0084336"><ele>637.6666666666667</ele><time>2026-05-03T11:37:25.927Z</time></trkpt><trkpt lat="44.111638" lon="8.0084906"><ele>631.0</ele><time>2026-05-03T11:37:26.926Z</time></trkpt><trkpt lat="44.111801" lon="8.0085398"><ele>631.0</ele><time>2026-05-03T11:37:27.923Z</time></trkpt><trkpt lat="44.1119679" lon="8.0085763"><ele>631.0</ele><time>2026-05-03T11:37:28.93Z</time></trkpt><trkpt lat="44.1121364" lon="8.0085913"><ele>631.0</ele><time>2026-05-03T11:37:29.928Z</time></trkpt><trkpt lat="44.1123086" lon="8.0085973"><ele>631.3333333333334</ele><time>2026-05-03T11:37:30.923Z</time></trkpt><trkpt lat="44.1124747" lon="8.0085907"><ele>631.6666666666666</ele><time>2026-05-03T11:37:31.929Z</time></trkpt><trkpt lat="44.1126451" lon="8.0085727"><ele>632.0</ele><time>2026-05-03T11:37:32.925Z</time></trkpt><trkpt lat="44.1128188" lon="8.0085549"><ele>632.0</ele><time>2026-05-03T11:37:33.923Z</time></trkpt><trkpt lat="44.112992" lon="8.0085306"><ele>632.0</ele><time>2026-05-03T11:37:34.922Z</time></trkpt><trkpt lat="44.1131554" lon="8.0084999"><ele>632.0</ele><time>2026-05-03T11:37:35.921Z</time></trkpt><trkpt lat="44.1133056" lon="8.0084763"><ele>635.0</ele><time>2026-05-03T11:37:36.922Z</time></trkpt><trkpt lat="44.113444" lon="8.0084539"><ele>638.0</ele><time>2026-05-03T11:37:37.918Z</time></trkpt><trkpt lat="44.1135543" lon="8.0084228"><ele>641.0</ele><time>2026-05-03T11:37:38.921Z</time></trkpt><trkpt lat="44.1136505" lon="8.0083558"><ele>644.0</ele><time>2026-05-03T11:37:39.921Z</time></trkpt><trkpt lat="44.1137284" lon="8.0082446"><ele>644.0</ele><time>2026-05-03T11:37:40.932Z</time></trkpt><trkpt lat="44.1137812" lon="8.0081031"><ele>644.0</ele><time>2026-05-03T11:37:41.928Z</time></trkpt><trkpt lat="44.1138133" lon="8.0079706"><ele>644.0</ele><time>2026-05-03T11:37:42.921Z</time></trkpt><trkpt lat="44.1138465" lon="8.0078535"><ele>644.0</ele><time>2026-05-03T11:37:43.93Z</time></trkpt><trkpt lat="44.113894" lon="8.0077918"><ele>644.0</ele><time>2026-05-03T11:37:44.926Z</time></trkpt><trkpt lat="44.1139685" lon="8.0077859"><ele>644.0</ele><time>2026-05-03T11:37:45.923Z</time></trkpt><trkpt lat="44.1140278" lon="8.0078362"><ele>644.0</ele><time>2026-05-03T11:37:46.922Z</time></trkpt><trkpt lat="44.1140709" lon="8.0079436"><ele>644.0</ele><time>2026-05-03T11:37:47.923Z</time></trkpt><trkpt lat="44.1140519" lon="8.0080494"><ele>644.0</ele><time>2026-05-03T11:37:48.927Z</time></trkpt><trkpt lat="44.113988" lon="8.0081594"><ele>644.0</ele><time>2026-05-03T11:37:49.925Z</time></trkpt><trkpt lat="44.1139128" lon="8.0083036"><ele>644.0</ele><time>2026-05-03T11:37:50.922Z</time></trkpt><trkpt lat="44.1138385" lon="8.0084595"><ele>637.25</ele><time>2026-05-03T11:37:51.919Z</time></trkpt><trkpt lat="44.113755" lon="8.0086127"><ele>630.5</ele><time>2026-05-03T11:37:52.923Z</time></trkpt><trkpt lat="44.1136642" lon="8.0087498"><ele>623.75</ele><time>2026-05-03T11:37:53.919Z</time></trkpt><trkpt lat="44.1135597" lon="8.0088511"><ele>617.0</ele><time>2026-05-03T11:37:54.92Z</time></trkpt><trkpt lat="44.1134319" lon="8.0089213"><ele>617.0</ele><time>2026-05-03T11:37:55.919Z</time></trkpt><trkpt lat="44.1132892" lon="8.0089681"><ele>617.0</ele><time>2026-05-03T11:37:56.917Z</time></trkpt><trkpt lat="44.1131294" lon="8.0090236"><ele>617.0</ele><time>2026-05-03T11:37:57.933Z</time></trkpt><trkpt lat="44.1129734" lon="8.0090796"><ele>622.0</ele><time>2026-05-03T11:37:58.924Z</time></trkpt><trkpt lat="44.1128092" lon="8.0091341"><ele>627.0</ele><time>2026-05-03T11:37:59.925Z</time></trkpt><trkpt lat="44.1126445" lon="8.0091919"><ele>632.0</ele><time>2026-05-03T11:38:00.93Z</time></trkpt><trkpt lat="44.112479" lon="8.0092403"><ele>620.0</ele><time>2026-05-03T11:38:01.923Z</time></trkpt><trkpt lat="44.1123137" lon="8.0092894"><ele>608.0</ele><time>2026-05-03T11:38:02.924Z</time></trkpt><trkpt lat="44.112148" lon="8.0093412"><ele>596.0</ele><time>2026-05-03T11:38:03.928Z</time></trkpt><trkpt lat="44.1119895" lon="8.0093881"><ele>596.0</ele><time>2026-05-03T11:38:04.927Z</time></trkpt><trkpt lat="44.1118282" lon="8.0094336"><ele>596.0</ele><time>2026-05-03T11:38:05.918Z</time></trkpt><trkpt lat="44.1116722" lon="8.0094614"><ele>596.0</ele><time>2026-05-03T11:38:06.928Z</time></trkpt><trkpt lat="44.1115219" lon="8.0094618"><ele>592.3333333333333</ele><time>2026-05-03T11:38:07.933Z</time></trkpt><trkpt lat="44.1113688" lon="8.0094199"><ele>588.6666666666666</ele><time>2026-05-03T11:38:08.929Z</time></trkpt><trkpt lat="44.1112156" lon="8.0093464"><ele>585.0</ele><time>2026-05-03T11:38:09.923Z</time></trkpt><trkpt lat="44.111065" lon="8.0092828"><ele>585.0</ele><time>2026-05-03T11:38:10.92Z</time></trkpt><trkpt lat="44.1109159" lon="8.0092277"><ele>585.0</ele><time>2026-05-03T11:38:11.925Z</time></trkpt><trkpt lat="44.1107732" lon="8.0091927"><ele>585.0</ele><time>2026-05-03T11:38:12.925Z</time></trkpt><trkpt lat="44.1106239" lon="8.0091919"><ele>585.0</ele><time>2026-05-03T11:38:13.935Z</time></trkpt><trkpt lat="44.1104514" lon="8.0092403"><ele>584.0</ele><time>2026-05-03T11:38:14.916Z</time></trkpt><trkpt lat="44.1102791" lon="8.0092974"><ele>583.0</ele><time>2026-05-03T11:38:15.923Z</time></trkpt><trkpt lat="44.1101049" lon="8.0093518"><ele>582.0</ele><time>2026-05-03T11:38:16.924Z</time></trkpt><trkpt lat="44.1099369" lon="8.0094002"><ele>579.0</ele><time>2026-05-03T11:38:17.922Z</time></trkpt><trkpt lat="44.1097694" lon="8.0094502"><ele>576.0</ele><time>2026-05-03T11:38:18.922Z</time></trkpt><trkpt lat="44.1096097" lon="8.0094857"><ele>573.0</ele><time>2026-05-03T11:38:19.923Z</time></trkpt><trkpt lat="44.1094482" lon="8.0095145"><ele>573.0</ele><time>2026-05-03T11:38:20.923Z</time></trkpt><trkpt lat="44.1092952" lon="8.0095153"><ele>573.0</ele><time>2026-05-03T11:38:21.922Z</time></trkpt><trkpt lat="44.1091387" lon="8.0094775"><ele>573.0</ele><time>2026-05-03T11:38:22.929Z</time></trkpt><trkpt lat="44.1089855" lon="8.0094151"><ele>573.6666666666666</ele><time>2026-05-03T11:38:23.922Z</time></trkpt><trkpt lat="44.1088349" lon="8.0093266"><ele>574.3333333333333</ele><time>2026-05-03T11:38:24.918Z</time></trkpt><trkpt lat="44.1086958" lon="8.0092115"><ele>575.0</ele><time>2026-05-03T11:38:25.918Z</time></trkpt><trkpt lat="44.108565" lon="8.0090701"><ele>575.0</ele><time>2026-05-03T11:38:26.922Z</time></trkpt><trkpt lat="44.1084457" lon="8.0089345"><ele>575.0</ele><time>2026-05-03T11:38:27.922Z</time></trkpt><trkpt lat="44.1083253" lon="8.0088145"><ele>575.0</ele><time>2026-05-03T11:38:28.923Z</time></trkpt><trkpt lat="44.1081932" lon="8.0087345"><ele>575.0</ele><time>2026-05-03T11:38:29.929Z</time></trkpt><trkpt lat="44.1080609" lon="8.0086983"><ele>568.0</ele><time>2026-05-03T11:38:30.923Z</time></trkpt><trkpt lat="44.1079358" lon="8.0086768"><ele>561.0</ele><time>2026-05-03T11:38:31.921Z</time></trkpt><trkpt lat="44.1078219" lon="8.0086602"><ele>554.0</ele><time>2026-05-03T11:38:32.922Z</time></trkpt><trkpt lat="44.1077229" lon="8.0085463"><ele>547.0</ele><time>2026-05-03T11:38:33.927Z</time></trkpt><trkpt lat="44.1076144" lon="8.0083942"><ele>546.0</ele><time>2026-05-03T11:38:34.929Z</time></trkpt><trkpt lat="44.1074913" lon="8.0082552"><ele>545.0</ele><time>2026-05-03T11:38:35.916Z</time></trkpt><trkpt lat="44.1073591" lon="8.0081547"><ele>544.0</ele><time>2026-05-03T11:38:36.927Z</time></trkpt><trkpt lat="44.1072117" lon="8.0080771"><ele>544.0</ele><time>2026-05-03T11:38:37.918Z</time></trkpt><trkpt lat="44.107066" lon="8.0079889"><ele>544.0</ele><time>2026-05-03T11:38:38.919Z</time></trkpt><trkpt lat="44.1069231" lon="8.007868"><ele>544.0</ele><time>2026-05-03T11:38:39.918Z</time></trkpt><trkpt lat="44.1067855" lon="8.0077265"><ele>544.0</ele><time>2026-05-03T11:38:40.915Z</time></trkpt><trkpt lat="44.1066487" lon="8.0075782"><ele>544.0</ele><time>2026-05-03T11:38:41.925Z</time></trkpt><trkpt lat="44.10652" lon="8.0074332"><ele>544.0</ele><time>2026-05-03T11:38:42.929Z</time></trkpt><trkpt lat="44.1063889" lon="8.0072912"><ele>538.0</ele><time>2026-05-03T11:38:43.934Z</time></trkpt><trkpt lat="44.106259" lon="8.0071559"><ele>532.0</ele><time>2026-05-03T11:38:44.918Z</time></trkpt><trkpt lat="44.1061368" lon="8.0070301"><ele>526.0</ele><time>2026-05-03T11:38:45.918Z</time></trkpt><trkpt lat="44.1060214" lon="8.0069037"><ele>526.0</ele><time>2026-05-03T11:38:46.922Z</time></trkpt><trkpt lat="44.1059295" lon="8.0067555"><ele>526.0</ele><time>2026-05-03T11:38:47.919Z</time></trkpt><trkpt lat="44.1058593" lon="8.006575"><ele>526.0</ele><time>2026-05-03T11:38:48.918Z</time></trkpt><trkpt lat="44.1058203" lon="8.0063804"><ele>526.0</ele><time>2026-05-03T11:38:49.918Z</time></trkpt><trkpt lat="44.1057662" lon="8.0062122"><ele>521.6666666666667</ele><time>2026-05-03T11:38:50.923Z</time></trkpt><trkpt lat="44.1056697" lon="8.0060797"><ele>517.3333333333334</ele><time>2026-05-03T11:38:51.925Z</time></trkpt><trkpt lat="44.1055273" lon="8.0059701"><ele>513.0</ele><time>2026-05-03T11:38:52.913Z</time></trkpt><trkpt lat="44.1053838" lon="8.0058712"><ele>514.6666666666666</ele><time>2026-05-03T11:38:53.924Z</time></trkpt><trkpt lat="44.1052354" lon="8.0057707"><ele>516.3333333333333</ele><time>2026-05-03T11:38:54.919Z</time></trkpt><trkpt lat="44.105092" lon="8.005653"><ele>518.0</ele><time>2026-05-03T11:38:55.92Z</time></trkpt><trkpt lat="44.1049648" lon="8.0055366"><ele>510.5</ele><time>2026-05-03T11:38:56.924Z</time></trkpt><trkpt lat="44.1048672" lon="8.0054144"><ele>503.0</ele><time>2026-05-03T11:38:57.925Z</time></trkpt><trkpt lat="44.1048031" lon="8.0052778"><ele>495.5</ele><time>2026-05-03T11:38:58.93Z</time></trkpt><trkpt lat="44.1047698" lon="8.0051132"><ele>488.0</ele><time>2026-05-03T11:38:59.928Z</time></trkpt><trkpt lat="44.1047795" lon="8.0049365"><ele>483.25</ele><time>2026-05-03T11:39:00.924Z</time></trkpt><trkpt lat="44.1048414" lon="8.0047708"><ele>478.5</ele><time>2026-05-03T11:39:01.924Z</time></trkpt><trkpt lat="44.1049323" lon="8.0045983"><ele>473.75</ele><time>2026-05-03T11:39:02.915Z</time></trkpt><trkpt lat="44.1050218" lon="8.0044212"><ele>469.0</ele><time>2026-05-03T11:39:03.925Z</time></trkpt><trkpt lat="44.1050936" lon="8.0042385"><ele>475.5</ele><time>2026-05-03T11:39:04.923Z</time></trkpt><trkpt lat="44.1051414" lon="8.0040482"><ele>482.0</ele><time>2026-05-03T11:39:05.915Z</time></trkpt><trkpt lat="44.1051914" lon="8.0038563"><ele>488.5</ele><time>2026-05-03T11:39:06.914Z</time></trkpt><trkpt lat="44.1052461" lon="8.0036793"><ele>495.0</ele><time>2026-05-03T11:39:07.921Z</time></trkpt><trkpt lat="44.1052968" lon="8.0035331"><ele>495.0</ele><time>2026-05-03T11:39:08.917Z</time></trkpt><trkpt lat="44.1053247" lon="8.0034141"><ele>495.0</ele><time>2026-05-03T11:39:09.916Z</time></trkpt><trkpt lat="44.1053273" lon="8.0033227"><ele>495.0</ele><time>2026-05-03T11:39:10.92Z</time></trkpt><trkpt lat="44.1052224" lon="8.0032287"><ele>495.0</ele><time>2026-05-03T11:39:12.92Z</time></trkpt><trkpt lat="44.105139" lon="8.00328"><ele>495.0</ele><time>2026-05-03T11:39:13.936Z</time></trkpt><trkpt lat="44.1050825" lon="8.0033923"><ele>495.0</ele><time>2026-05-03T11:39:14.913Z</time></trkpt><trkpt lat="44.1050453" lon="8.0035452"><ele>495.0</ele><time>2026-05-03T11:39:15.919Z</time></trkpt><trkpt lat="44.1049848" lon="8.0037044"><ele>495.0</ele><time>2026-05-03T11:39:16.919Z</time></trkpt><trkpt lat="44.1049267" lon="8.0038784"><ele>495.0</ele><time>2026-05-03T11:39:17.916Z</time></trkpt><trkpt lat="44.104854" lon="8.004065"><ele>488.5</ele><time>2026-05-03T11:39:18.92Z</time></trkpt><trkpt lat="44.104763" lon="8.004242"><ele>482.0</ele><time>2026-05-03T11:39:19.919Z</time></trkpt><trkpt lat="44.1046483" lon="8.0043724"><ele>475.5</ele><time>2026-05-03T11:39:20.927Z</time></trkpt><trkpt lat="44.1045288" lon="8.0044714"><ele>469.0</ele><time>2026-05-03T11:39:21.913Z</time></trkpt><trkpt lat="44.1044037" lon="8.0045693"><ele>469.0</ele><time>2026-05-03T11:39:22.914Z</time></trkpt><trkpt lat="44.1042861" lon="8.0046736"><ele>469.0</ele><time>2026-05-03T11:39:23.912Z</time></trkpt><trkpt lat="44.1041734" lon="8.0047935"><ele>469.0</ele><time>2026-05-03T11:39:24.911Z</time></trkpt><trkpt lat="44.1040694" lon="8.0049431"><ele>469.0</ele><time>2026-05-03T11:39:25.91Z</time></trkpt><trkpt lat="44.1039896" lon="8.0051246"><ele>466.25</ele><time>2026-05-03T11:39:26.926Z</time></trkpt><trkpt lat="44.1039326" lon="8.0053101"><ele>463.5</ele><time>2026-05-03T11:39:27.912Z</time></trkpt><trkpt lat="44.1039058" lon="8.0054991"><ele>460.75</ele><time>2026-05-03T11:39:28.915Z</time></trkpt><trkpt lat="44.1039131" lon="8.0056794"><ele>458.0</ele><time>2026-05-03T11:39:29.917Z</time></trkpt><trkpt lat="44.1039677" lon="8.0058802"><ele>458.0</ele><time>2026-05-03T11:39:30.916Z</time></trkpt><trkpt lat="44.1040565" lon="8.006068"><ele>458.0</ele><time>2026-05-03T11:39:31.927Z</time></trkpt><trkpt lat="44.1041587" lon="8.0062515"><ele>458.0</ele><time>2026-05-03T11:39:32.911Z</time></trkpt><trkpt lat="44.104252" lon="8.0064357"><ele>463.0</ele><time>2026-05-03T11:39:33.914Z</time></trkpt><trkpt lat="44.1043509" lon="8.0066333"><ele>468.0</ele><time>2026-05-03T11:39:34.916Z</time></trkpt><trkpt lat="44.1044538" lon="8.0068356"><ele>473.0</ele><time>2026-05-03T11:39:35.923Z</time></trkpt><trkpt lat="44.1045595" lon="8.0070452"><ele>473.0</ele><time>2026-05-03T11:39:36.914Z</time></trkpt><trkpt lat="44.104665" lon="8.0072579"><ele>473.0</ele><time>2026-05-03T11:39:37.915Z</time></trkpt><trkpt lat="44.1047719" lon="8.0074684"><ele>473.0</ele><time>2026-05-03T11:39:38.922Z</time></trkpt><trkpt lat="44.1048864" lon="8.0076768"><ele>476.3333333333333</ele><time>2026-05-03T11:39:39.924Z</time></trkpt><trkpt lat="44.1050022" lon="8.0078717"><ele>479.66666666666663</ele><time>2026-05-03T11:39:40.914Z</time></trkpt><trkpt lat="44.1051112" lon="8.0080673"><ele>483.0</ele><time>2026-05-03T11:39:41.914Z</time></trkpt><trkpt lat="44.1052129" lon="8.0082605"><ele>477.66666666666663</ele><time>2026-05-03T11:39:42.922Z</time></trkpt><trkpt lat="44.1053105" lon="8.0084463"><ele>472.3333333333333</ele><time>2026-05-03T11:39:43.919Z</time></trkpt><trkpt lat="44.1054006" lon="8.0086381"><ele>467.0</ele><time>2026-05-03T11:39:44.915Z</time></trkpt><trkpt lat="44.1054537" lon="8.0088346"><ele>467.0</ele><time>2026-05-03T11:39:45.915Z</time></trkpt><trkpt lat="44.1054565" lon="8.0090396"><ele>467.0</ele><time>2026-05-03T11:39:46.922Z</time></trkpt><trkpt lat="44.105462" lon="8.0092549"><ele>467.0</ele><time>2026-05-03T11:39:47.924Z</time></trkpt><trkpt lat="44.105479" lon="8.0094525"><ele>467.0</ele><time>2026-05-03T11:39:48.92Z</time></trkpt><trkpt lat="44.1055291" lon="8.0096537"><ele>466.66666666666663</ele><time>2026-05-03T11:39:49.917Z</time></trkpt><trkpt lat="44.1056094" lon="8.0098545"><ele>466.33333333333337</ele><time>2026-05-03T11:39:50.92Z</time></trkpt><trkpt lat="44.105707" lon="8.0100569"><ele>466.0</ele><time>2026-05-03T11:39:51.921Z</time></trkpt><trkpt lat="44.1058038" lon="8.0102558"><ele>466.0</ele><time>2026-05-03T11:39:52.925Z</time></trkpt><trkpt lat="44.1058917" lon="8.0104492"><ele>466.0</ele><time>2026-05-03T11:39:53.913Z</time></trkpt><trkpt lat="44.1059709" lon="8.010642"><ele>466.0</ele><time>2026-05-03T11:39:54.925Z</time></trkpt><trkpt lat="44.1060504" lon="8.0108344"><ele>460.33333333333337</ele><time>2026-05-03T11:39:55.923Z</time></trkpt><trkpt lat="44.1061479" lon="8.0110122"><ele>454.66666666666663</ele><time>2026-05-03T11:39:56.919Z</time></trkpt><trkpt lat="44.1062619" lon="8.0111449"><ele>449.0</ele><time>2026-05-03T11:39:57.924Z</time></trkpt><trkpt lat="44.1063859" lon="8.0112423"><ele>449.0</ele><time>2026-05-03T11:39:58.92Z</time></trkpt><trkpt lat="44.1065206" lon="8.0113297"><ele>449.0</ele><time>2026-05-03T11:39:59.914Z</time></trkpt><trkpt lat="44.1066647" lon="8.011424"><ele>449.0</ele><time>2026-05-03T11:40:00.918Z</time></trkpt><trkpt lat="44.1068171" lon="8.0115095"><ele>446.66666666666663</ele><time>2026-05-03T11:40:01.919Z</time></trkpt><trkpt lat="44.1069786" lon="8.0115812"><ele>444.33333333333337</ele><time>2026-05-03T11:40:02.919Z</time></trkpt><trkpt lat="44.1071476" lon="8.0116229"><ele>442.0</ele><time>2026-05-03T11:40:03.924Z</time></trkpt><trkpt lat="44.1073115" lon="8.0116653"><ele>444.33333333333337</ele><time>2026-05-03T11:40:04.922Z</time></trkpt><trkpt lat="44.1074697" lon="8.0117002"><ele>446.66666666666663</ele><time>2026-05-03T11:40:05.917Z</time></trkpt><trkpt lat="44.1076226" lon="8.0117601"><ele>449.0</ele><time>2026-05-03T11:40:06.919Z</time></trkpt><trkpt lat="44.1077705" lon="8.0118281"><ele>449.0</ele><time>2026-05-03T11:40:07.908Z</time></trkpt><trkpt lat="44.1079203" lon="8.0118839"><ele>449.0</ele><time>2026-05-03T11:40:08.918Z</time></trkpt><trkpt lat="44.1080739" lon="8.0119235"><ele>449.0</ele><time>2026-05-03T11:40:09.917Z</time></trkpt><trkpt lat="44.108217" lon="8.0119483"><ele>450.5</ele><time>2026-05-03T11:40:10.921Z</time></trkpt><trkpt lat="44.1083537" lon="8.0119847"><ele>452.0</ele><time>2026-05-03T11:40:11.922Z</time></trkpt><trkpt lat="44.1084948" lon="8.0120341"><ele>453.5</ele><time>2026-05-03T11:40:12.915Z</time></trkpt><trkpt lat="44.1086312" lon="8.0121153"><ele>455.0</ele><time>2026-05-03T11:40:13.922Z</time></trkpt><trkpt lat="44.1087487" lon="8.0122068"><ele>455.0</ele><time>2026-05-03T11:40:14.922Z</time></trkpt><trkpt lat="44.1088477" lon="8.0123415"><ele>455.0</ele><time>2026-05-03T11:40:15.91Z</time></trkpt><trkpt lat="44.1089412" lon="8.012474"><ele>455.0</ele><time>2026-05-03T11:40:16.916Z</time></trkpt><trkpt lat="44.1090416" lon="8.0125958"><ele>455.0</ele><time>2026-05-03T11:40:17.915Z</time></trkpt><trkpt lat="44.1091643" lon="8.012668"><ele>447.66666666666663</ele><time>2026-05-03T11:40:18.908Z</time></trkpt><trkpt lat="44.1093117" lon="8.0127119"><ele>440.33333333333337</ele><time>2026-05-03T11:40:19.913Z</time></trkpt><trkpt lat="44.1094729" lon="8.0127605"><ele>433.0</ele><time>2026-05-03T11:40:20.92Z</time></trkpt><trkpt lat="44.109622" lon="8.0128129"><ele>433.0</ele><time>2026-05-03T11:40:21.923Z</time></trkpt><trkpt lat="44.1097556" lon="8.012861"><ele>433.0</ele><time>2026-05-03T11:40:22.918Z</time></trkpt><trkpt lat="44.1098885" lon="8.0129151"><ele>433.0</ele><time>2026-05-03T11:40:23.918Z</time></trkpt><trkpt lat="44.1099834" lon="8.0129787"><ele>433.0</ele><time>2026-05-03T11:40:24.919Z</time></trkpt><trkpt lat="44.110035" lon="8.0131038"><ele>436.0</ele><time>2026-05-03T11:40:25.918Z</time></trkpt><trkpt lat="44.1100633" lon="8.0132482"><ele>439.0</ele><time>2026-05-03T11:40:26.923Z</time></trkpt><trkpt lat="44.1100961" lon="8.0133961"><ele>442.0</ele><time>2026-05-03T11:40:27.918Z</time></trkpt><trkpt lat="44.1101576" lon="8.0135373"><ele>445.0</ele><time>2026-05-03T11:40:28.926Z</time></trkpt><trkpt lat="44.110263" lon="8.0136391"><ele>438.75</ele><time>2026-05-03T11:40:29.911Z</time></trkpt><trkpt lat="44.1103823" lon="8.0137499"><ele>432.5</ele><time>2026-05-03T11:40:30.92Z</time></trkpt><trkpt lat="44.1104979" lon="8.0138709"><ele>426.25</ele><time>2026-05-03T11:40:31.917Z</time></trkpt><trkpt lat="44.1106133" lon="8.0139935"><ele>420.0</ele><time>2026-05-03T11:40:32.916Z</time></trkpt><trkpt lat="44.1107241" lon="8.0141022"><ele>419.25</ele><time>2026-05-03T11:40:33.916Z</time></trkpt><trkpt lat="44.1108262" lon="8.0142178"><ele>418.5</ele><time>2026-05-03T11:40:34.913Z</time></trkpt><trkpt lat="44.1109295" lon="8.0143238"><ele>417.75</ele><time>2026-05-03T11:40:35.914Z</time></trkpt><trkpt lat="44.1110303" lon="8.0144227"><ele>417.0</ele><time>2026-05-03T11:40:36.922Z</time></trkpt><trkpt lat="44.1111288" lon="8.0145183"><ele>417.0</ele><time>2026-05-03T11:40:37.918Z</time></trkpt><trkpt lat="44.111236" lon="8.0145954"><ele>417.0</ele><time>2026-05-03T11:40:38.918Z</time></trkpt><trkpt lat="44.111351" lon="8.0146391"><ele>417.0</ele><time>2026-05-03T11:40:39.912Z</time></trkpt><trkpt lat="44.1114751" lon="8.0146607"><ele>417.0</ele><time>2026-05-03T11:40:40.925Z</time></trkpt><trkpt lat="44.1116159" lon="8.0146744"><ele>420.25</ele><time>2026-05-03T11:40:41.913Z</time></trkpt><trkpt lat="44.1117621" lon="8.0147027"><ele>423.5</ele><time>2026-05-03T11:40:42.92Z</time></trkpt><trkpt lat="44.1119056" lon="8.0147366"><ele>426.75</ele><time>2026-05-03T11:40:43.923Z</time></trkpt><trkpt lat="44.1120511" lon="8.014772"><ele>430.0</ele><time>2026-05-03T11:40:44.911Z</time></trkpt><trkpt lat="44.1121871" lon="8.0148027"><ele>430.0</ele><time>2026-05-03T11:40:45.917Z</time></trkpt><trkpt lat="44.112314" lon="8.0148183"><ele>430.0</ele><time>2026-05-03T11:40:46.914Z</time></trkpt><trkpt lat="44.1124347" lon="8.014799"><ele>430.0</ele><time>2026-05-03T11:40:47.917Z</time></trkpt><trkpt lat="44.1125535" lon="8.0147727"><ele>430.0</ele><time>2026-05-03T11:40:48.914Z</time></trkpt><trkpt lat="44.1126659" lon="8.0147739"><ele>429.75</ele><time>2026-05-03T11:40:49.916Z</time></trkpt><trkpt lat="44.1127856" lon="8.0148238"><ele>429.5</ele><time>2026-05-03T11:40:50.919Z</time></trkpt><trkpt lat="44.1129069" lon="8.0149084"><ele>429.25</ele><time>2026-05-03T11:40:51.926Z</time></trkpt><trkpt lat="44.113036" lon="8.0150098"><ele>429.0</ele><time>2026-05-03T11:40:52.913Z</time></trkpt><trkpt lat="44.1131708" lon="8.0151016"><ele>422.25</ele><time>2026-05-03T11:40:53.919Z</time></trkpt><trkpt lat="44.1132858" lon="8.0151829"><ele>415.5</ele><time>2026-05-03T11:40:54.917Z</time></trkpt><trkpt lat="44.1134005" lon="8.0152573"><ele>408.75</ele><time>2026-05-03T11:40:55.924Z</time></trkpt><trkpt lat="44.1135127" lon="8.0152942"><ele>402.0</ele><time>2026-05-03T11:40:56.911Z</time></trkpt><trkpt lat="44.1136264" lon="8.0152944"><ele>402.0</ele><time>2026-05-03T11:40:57.915Z</time></trkpt><trkpt lat="44.1137326" lon="8.0153001"><ele>402.0</ele><time>2026-05-03T11:40:58.912Z</time></trkpt><trkpt lat="44.1138156" lon="8.0153656"><ele>402.0</ele><time>2026-05-03T11:40:59.917Z</time></trkpt><trkpt lat="44.1138676" lon="8.0154466"><ele>402.0</ele><time>2026-05-03T11:41:00.914Z</time></trkpt><trkpt lat="44.1138831" lon="8.0155365"><ele>402.0</ele><time>2026-05-03T11:41:01.923Z</time></trkpt><trkpt lat="44.1138845" lon="8.015644"><ele>402.0</ele><time>2026-05-03T11:41:02.925Z</time></trkpt><trkpt lat="44.1138895" lon="8.0157409"><ele>401.6</ele><time>2026-05-03T11:41:03.917Z</time></trkpt><trkpt lat="44.1139682" lon="8.0158453"><ele>401.20000000000005</ele><time>2026-05-03T11:41:05.914Z</time></trkpt><trkpt lat="44.114033" lon="8.0158401"><ele>400.8</ele><time>2026-05-03T11:41:06.922Z</time></trkpt><trkpt lat="44.1141609" lon="8.0157205"><ele>400.4</ele><time>2026-05-03T11:41:08.924Z</time></trkpt><trkpt lat="44.1142373" lon="8.0156308"><ele>400.0</ele><time>2026-05-03T11:41:09.916Z</time></trkpt><trkpt lat="44.1143186" lon="8.0155333"><ele>400.0</ele><time>2026-05-03T11:41:10.918Z</time></trkpt><trkpt lat="44.1143978" lon="8.015434"><ele>400.0</ele><time>2026-05-03T11:41:11.918Z</time></trkpt><trkpt lat="44.1144778" lon="8.0153411"><ele>400.0</ele><time>2026-05-03T11:41:12.917Z</time></trkpt><trkpt lat="44.1145552" lon="8.0152508"><ele>400.0</ele><time>2026-05-03T11:41:13.925Z</time></trkpt><trkpt lat="44.1146248" lon="8.0151688"><ele>400.0</ele><time>2026-05-03T11:41:14.916Z</time></trkpt><trkpt lat="44.1146935" lon="8.015103"><ele>400.00000000000006</ele><time>2026-05-03T11:41:15.916Z</time></trkpt><trkpt lat="44.1147701" lon="8.015073"><ele>400.0</ele><time>2026-05-03T11:41:16.914Z</time></trkpt><trkpt lat="44.114844" lon="8.0150875"><ele>400.0</ele><time>2026-05-03T11:41:17.917Z</time></trkpt><trkpt lat="44.1149081" lon="8.0151314"><ele>400.0</ele><time>2026-05-03T11:41:18.92Z</time></trkpt><trkpt lat="44.1149859" lon="8.0152414"><ele>400.00000000000006</ele><time>2026-05-03T11:41:20.92Z</time></trkpt><trkpt lat="44.1150201" lon="8.0153814"><ele>400.0</ele><time>2026-05-03T11:41:22.916Z</time></trkpt><trkpt lat="44.1150196" lon="8.0154807"><ele>398.0</ele><time>2026-05-03T11:41:23.92Z</time></trkpt><trkpt lat="44.1149923" lon="8.015633"><ele>396.0</ele><time>2026-05-03T11:41:24.916Z</time></trkpt><trkpt lat="44.114961" lon="8.0158303"><ele>394.0</ele><time>2026-05-03T11:41:25.916Z</time></trkpt><trkpt lat="44.114937" lon="8.0160421"><ele>392.0</ele><time>2026-05-03T11:41:26.922Z</time></trkpt><trkpt lat="44.1149059" lon="8.0162583"><ele>388.3333333333333</ele><time>2026-05-03T11:41:27.907Z</time></trkpt><trkpt lat="44.114868" lon="8.0164801"><ele>384.66666666666663</ele><time>2026-05-03T11:41:28.923Z</time></trkpt><trkpt lat="44.1148292" lon="8.0166904"><ele>381.0</ele><time>2026-05-03T11:41:29.905Z</time></trkpt><trkpt lat="44.1147978" lon="8.0168948"><ele>378.75</ele><time>2026-05-03T11:41:30.925Z</time></trkpt><trkpt lat="44.1147669" lon="8.0170907"><ele>376.5</ele><time>2026-05-03T11:41:31.912Z</time></trkpt><trkpt lat="44.1147208" lon="8.0172839"><ele>374.25</ele><time>2026-05-03T11:41:32.928Z</time></trkpt><trkpt lat="44.1146643" lon="8.0174726"><ele>372.0</ele><time>2026-05-03T11:41:33.917Z</time></trkpt><trkpt lat="44.1146122" lon="8.0176632"><ele>370.75</ele><time>2026-05-03T11:41:34.915Z</time></trkpt><trkpt lat="44.1145653" lon="8.0178497"><ele>369.5</ele><time>2026-05-03T11:41:35.913Z</time></trkpt><trkpt lat="44.1145057" lon="8.0180275"><ele>368.25</ele><time>2026-05-03T11:41:36.918Z</time></trkpt><trkpt lat="44.1144311" lon="8.0181981"><ele>367.0</ele><time>2026-05-03T11:41:37.924Z</time></trkpt><trkpt lat="44.1143664" lon="8.0183472"><ele>366.5</ele><time>2026-05-03T11:41:38.919Z</time></trkpt><trkpt lat="44.1143215" lon="8.0185211"><ele>366.0</ele><time>2026-05-03T11:41:39.915Z</time></trkpt><trkpt lat="44.1142934" lon="8.0187275"><ele>365.5</ele><time>2026-05-03T11:41:40.922Z</time></trkpt><trkpt lat="44.114271" lon="8.0189372"><ele>365.0</ele><time>2026-05-03T11:41:41.914Z</time></trkpt><trkpt lat="44.1142395" lon="8.0191251"><ele>363.8</ele><time>2026-05-03T11:41:42.917Z</time></trkpt><trkpt lat="44.1142042" lon="8.0192938"><ele>362.6</ele><time>2026-05-03T11:41:43.919Z</time></trkpt><trkpt lat="44.1141794" lon="8.0194405"><ele>361.4</ele><time>2026-05-03T11:41:44.921Z</time></trkpt><trkpt lat="44.1141801" lon="8.0195755"><ele>360.2</ele><time>2026-05-03T11:41:45.922Z</time></trkpt><trkpt lat="44.1142225" lon="8.0196956"><ele>359.0</ele><time>2026-05-03T11:41:46.911Z</time></trkpt><trkpt lat="44.1143094" lon="8.0198114"><ele>359.0</ele><time>2026-05-03T11:41:47.91Z</time></trkpt><trkpt lat="44.1144239" lon="8.0199224"><ele>359.0</ele><time>2026-05-03T11:41:48.915Z</time></trkpt><trkpt lat="44.1145286" lon="8.0200602"><ele>359.0</ele><time>2026-05-03T11:41:49.915Z</time></trkpt><trkpt lat="44.1146241" lon="8.02023"><ele>359.0</ele><time>2026-05-03T11:41:50.906Z</time></trkpt><trkpt lat="44.1146924" lon="8.0204309"><ele>356.6666666666667</ele><time>2026-05-03T11:41:51.915Z</time></trkpt><trkpt lat="44.1147471" lon="8.0206511"><ele>354.3333333333333</ele><time>2026-05-03T11:41:52.917Z</time></trkpt><trkpt lat="44.1147859" lon="8.0208652"><ele>352.0</ele><time>2026-05-03T11:41:53.918Z</time></trkpt><trkpt lat="44.1148115" lon="8.0210798"><ele>350.75</ele><time>2026-05-03T11:41:54.913Z</time></trkpt><trkpt lat="44.1148315" lon="8.0212714"><ele>349.5</ele><time>2026-05-03T11:41:55.914Z</time></trkpt><trkpt lat="44.1148561" lon="8.0214448"><ele>348.25</ele><time>2026-05-03T11:41:56.916Z</time></trkpt><trkpt lat="44.1148962" lon="8.0216021"><ele>347.0</ele><time>2026-05-03T11:41:57.92Z</time></trkpt><trkpt lat="44.1149775" lon="8.0217242"><ele>347.0</ele><time>2026-05-03T11:41:58.916Z</time></trkpt><trkpt lat="44.115087" lon="8.0218159"><ele>347.0</ele><time>2026-05-03T11:41:59.913Z</time></trkpt><trkpt lat="44.1151794" lon="8.0219029"><ele>347.0</ele><time>2026-05-03T11:42:00.911Z</time></trkpt><trkpt lat="44.1152303" lon="8.0220224"><ele>347.0</ele><time>2026-05-03T11:42:01.913Z</time></trkpt><trkpt lat="44.1152409" lon="8.0221879"><ele>347.0</ele><time>2026-05-03T11:42:02.919Z</time></trkpt><trkpt lat="44.1152274" lon="8.0223848"><ele>347.0</ele><time>2026-05-03T11:42:03.911Z</time></trkpt><trkpt lat="44.1152273" lon="8.0225984"><ele>347.0</ele><time>2026-05-03T11:42:04.916Z</time></trkpt><trkpt lat="44.1152472" lon="8.0228276"><ele>342.6666666666667</ele><time>2026-05-03T11:42:05.917Z</time></trkpt><trkpt lat="44.115287" lon="8.0230668"><ele>338.3333333333333</ele><time>2026-05-03T11:42:06.912Z</time></trkpt><trkpt lat="44.1153273" lon="8.0233079"><ele>334.0</ele><time>2026-05-03T11:42:07.918Z</time></trkpt><trkpt lat="44.1153631" lon="8.0235467"><ele>333.0</ele><time>2026-05-03T11:42:08.918Z</time></trkpt><trkpt lat="44.1154036" lon="8.0237817"><ele>332.0</ele><time>2026-05-03T11:42:09.918Z</time></trkpt><trkpt lat="44.1154467" lon="8.0240014"><ele>331.0</ele><time>2026-05-03T11:42:10.922Z</time></trkpt><trkpt lat="44.1154752" lon="8.0242143"><ele>331.0</ele><time>2026-05-03T11:42:11.92Z</time></trkpt><trkpt lat="44.1155056" lon="8.0244236"><ele>331.0</ele><time>2026-05-03T11:42:12.914Z</time></trkpt><trkpt lat="44.1155355" lon="8.0246299"><ele>331.0</ele><time>2026-05-03T11:42:13.915Z</time></trkpt><trkpt lat="44.1155603" lon="8.0248359"><ele>329.5</ele><time>2026-05-03T11:42:14.915Z</time></trkpt><trkpt lat="44.115583" lon="8.0250344"><ele>328.0</ele><time>2026-05-03T11:42:15.909Z</time></trkpt><trkpt lat="44.1155915" lon="8.0252275"><ele>326.5</ele><time>2026-05-03T11:42:16.908Z</time></trkpt><trkpt lat="44.1155715" lon="8.0254256"><ele>325.0</ele><time>2026-05-03T11:42:17.915Z</time></trkpt><trkpt lat="44.1155343" lon="8.0256317"><ele>324.25</ele><time>2026-05-03T11:42:18.916Z</time></trkpt><trkpt lat="44.1155051" lon="8.0258247"><ele>323.5</ele><time>2026-05-03T11:42:19.923Z</time></trkpt><trkpt lat="44.115492" lon="8.0260185"><ele>322.75</ele><time>2026-05-03T11:42:20.922Z</time></trkpt><trkpt lat="44.1154893" lon="8.0262074"><ele>322.0</ele><time>2026-05-03T11:42:21.914Z</time></trkpt><trkpt lat="44.1154726" lon="8.026378"><ele>322.0</ele><time>2026-05-03T11:42:22.918Z</time></trkpt><trkpt lat="44.1154245" lon="8.0265229"><ele>322.0</ele><time>2026-05-03T11:42:23.919Z</time></trkpt><trkpt lat="44.1153375" lon="8.026667"><ele>322.0</ele><time>2026-05-03T11:42:24.916Z</time></trkpt><trkpt lat="44.1152511" lon="8.0268175"><ele>322.0</ele><time>2026-05-03T11:42:25.921Z</time></trkpt><trkpt lat="44.1151536" lon="8.0269611"><ele>321.75</ele><time>2026-05-03T11:42:26.914Z</time></trkpt><trkpt lat="44.1150524" lon="8.0270941"><ele>321.5</ele><time>2026-05-03T11:42:27.909Z</time></trkpt><trkpt lat="44.1149572" lon="8.0272161"><ele>321.25</ele><time>2026-05-03T11:42:28.917Z</time></trkpt><trkpt lat="44.1148727" lon="8.0273301"><ele>321.0</ele><time>2026-05-03T11:42:29.913Z</time></trkpt><trkpt lat="44.114796" lon="8.027443"><ele>319.8</ele><time>2026-05-03T11:42:30.916Z</time></trkpt><trkpt lat="44.114727" lon="8.0275434"><ele>318.6</ele><time>2026-05-03T11:42:31.911Z</time></trkpt><trkpt lat="44.1146675" lon="8.0276512"><ele>317.4</ele><time>2026-05-03T11:42:32.925Z</time></trkpt><trkpt lat="44.114623" lon="8.0277633"><ele>316.2</ele><time>2026-05-03T11:42:33.921Z</time></trkpt><trkpt lat="44.1145914" lon="8.0278884"><ele>315.0</ele><time>2026-05-03T11:42:34.927Z</time></trkpt><trkpt lat="44.1145642" lon="8.0280198"><ele>315.0</ele><time>2026-05-03T11:42:35.919Z</time></trkpt><trkpt lat="44.114535" lon="8.0281325"><ele>315.0</ele><time>2026-05-03T11:42:36.911Z</time></trkpt><trkpt lat="44.1144986" lon="8.0282418"><ele>315.0</ele><time>2026-05-03T11:42:37.913Z</time></trkpt><trkpt lat="44.1144478" lon="8.0283538"><ele>315.0</ele><time>2026-05-03T11:42:38.919Z</time></trkpt><trkpt lat="44.1143926" lon="8.0284541"><ele>315.0</ele><time>2026-05-03T11:42:39.911Z</time></trkpt><trkpt lat="44.1143214" lon="8.0285628"><ele>315.0</ele><time>2026-05-03T11:42:40.919Z</time></trkpt><trkpt lat="44.1142532" lon="8.0286795"><ele>315.0</ele><time>2026-05-03T11:42:41.922Z</time></trkpt><trkpt lat="44.1141901" lon="8.028807"><ele>315.0</ele><time>2026-05-03T11:42:42.912Z</time></trkpt><trkpt lat="44.1141314" lon="8.0289339"><ele>315.0</ele><time>2026-05-03T11:42:43.915Z</time></trkpt><trkpt lat="44.1140711" lon="8.0290537"><ele>315.0</ele><time>2026-05-03T11:42:44.917Z</time></trkpt><trkpt lat="44.1140092" lon="8.0291675"><ele>315.0</ele><time>2026-05-03T11:42:45.918Z</time></trkpt><trkpt lat="44.1139373" lon="8.0292785"><ele>315.0</ele><time>2026-05-03T11:42:46.913Z</time></trkpt><trkpt lat="44.1138595" lon="8.0293945"><ele>315.0</ele><time>2026-05-03T11:42:47.919Z</time></trkpt><trkpt lat="44.1137724" lon="8.0295184"><ele>315.0</ele><time>2026-05-03T11:42:48.911Z</time></trkpt><trkpt lat="44.1136745" lon="8.0296216"><ele>315.0</ele><time>2026-05-03T11:42:49.907Z</time></trkpt><trkpt lat="44.1135728" lon="8.0297121"><ele>315.0</ele><time>2026-05-03T11:42:50.917Z</time></trkpt><trkpt lat="44.1134756" lon="8.0298036"><ele>315.0</ele><time>2026-05-03T11:42:51.916Z</time></trkpt><trkpt lat="44.1133873" lon="8.0299207"><ele>315.0</ele><time>2026-05-03T11:42:52.917Z</time></trkpt><trkpt lat="44.1133112" lon="8.0300594"><ele>312.25</ele><time>2026-05-03T11:42:53.924Z</time></trkpt><trkpt lat="44.1132682" lon="8.0302312"><ele>309.5</ele><time>2026-05-03T11:42:54.921Z</time></trkpt><trkpt lat="44.113253" lon="8.0303998"><ele>306.75</ele><time>2026-05-03T11:42:55.917Z</time></trkpt><trkpt lat="44.113283" lon="8.0305442"><ele>304.0</ele><time>2026-05-03T11:42:56.911Z</time></trkpt><trkpt lat="44.1133505" lon="8.0306446"><ele>304.0</ele><time>2026-05-03T11:42:57.914Z</time></trkpt><trkpt lat="44.1134507" lon="8.0306863"><ele>304.0</ele><time>2026-05-03T11:42:58.914Z</time></trkpt><trkpt lat="44.1135686" lon="8.0306827"><ele>304.0</ele><time>2026-05-03T11:42:59.913Z</time></trkpt><trkpt lat="44.1136837" lon="8.0306186"><ele>304.0</ele><time>2026-05-03T11:43:00.923Z</time></trkpt><trkpt lat="44.1137955" lon="8.0305453"><ele>304.0</ele><time>2026-05-03T11:43:01.912Z</time></trkpt><trkpt lat="44.113897" lon="8.0304699"><ele>304.0</ele><time>2026-05-03T11:43:02.916Z</time></trkpt><trkpt lat="44.1139968" lon="8.0304473"><ele>304.0</ele><time>2026-05-03T11:43:03.918Z</time></trkpt><trkpt lat="44.1140847" lon="8.0304983"><ele>304.0</ele><time>2026-05-03T11:43:04.919Z</time></trkpt><trkpt lat="44.1141531" lon="8.0306064"><ele>304.0</ele><time>2026-05-03T11:43:05.916Z</time></trkpt><trkpt lat="44.1142092" lon="8.030723"><ele>304.3333333333333</ele><time>2026-05-03T11:43:06.915Z</time></trkpt><trkpt lat="44.1142385" lon="8.0308407"><ele>304.66666666666663</ele><time>2026-05-03T11:43:07.919Z</time></trkpt><trkpt lat="44.1142421" lon="8.0309433"><ele>305.0</ele><time>2026-05-03T11:43:08.919Z</time></trkpt><trkpt lat="44.114214" lon="8.0310494"><ele>305.3333333333333</ele><time>2026-05-03T11:43:09.914Z</time></trkpt><trkpt lat="44.114151" lon="8.031124"><ele>305.6666666666667</ele><time>2026-05-03T11:43:10.912Z</time></trkpt><trkpt lat="44.1140631" lon="8.0311715"><ele>306.0</ele><time>2026-05-03T11:43:11.918Z</time></trkpt><trkpt lat="44.113947" lon="8.0311896"><ele>303.25</ele><time>2026-05-03T11:43:12.916Z</time></trkpt><trkpt lat="44.1138313" lon="8.0312221"><ele>300.5</ele><time>2026-05-03T11:43:13.922Z</time></trkpt><trkpt lat="44.1137102" lon="8.0312536"><ele>297.75</ele><time>2026-05-03T11:43:14.912Z</time></trkpt><trkpt lat="44.1135926" lon="8.0312893"><ele>295.0</ele><time>2026-05-03T11:43:15.913Z</time></trkpt><trkpt lat="44.1134764" lon="8.0313375"><ele>295.0</ele><time>2026-05-03T11:43:16.921Z</time></trkpt><trkpt lat="44.1133552" lon="8.0313866"><ele>295.0</ele><time>2026-05-03T11:43:17.914Z</time></trkpt><trkpt lat="44.1132313" lon="8.0314443"><ele>295.0</ele><time>2026-05-03T11:43:18.916Z</time></trkpt><trkpt lat="44.1131171" lon="8.0314996"><ele>295.0</ele><time>2026-05-03T11:43:19.912Z</time></trkpt><trkpt lat="44.1130137" lon="8.0315684"><ele>298.0</ele><time>2026-05-03T11:43:20.915Z</time></trkpt><trkpt lat="44.1129198" lon="8.031637"><ele>301.0</ele><time>2026-05-03T11:43:21.915Z</time></trkpt><trkpt lat="44.1128244" lon="8.0317094"><ele>304.0</ele><time>2026-05-03T11:43:22.915Z</time></trkpt><trkpt lat="44.1127281" lon="8.0317858"><ele>307.0</ele><time>2026-05-03T11:43:23.914Z</time></trkpt><trkpt lat="44.1126279" lon="8.0318933"><ele>307.0</ele><time>2026-05-03T11:43:24.916Z</time></trkpt><trkpt lat="44.1125265" lon="8.0319985"><ele>307.0</ele><time>2026-05-03T11:43:25.918Z</time></trkpt><trkpt lat="44.1124068" lon="8.0320673"><ele>307.0</ele><time>2026-05-03T11:43:26.913Z</time></trkpt><trkpt lat="44.112271" lon="8.0321238"><ele>307.0</ele><time>2026-05-03T11:43:27.912Z</time></trkpt><trkpt lat="44.1121264" lon="8.0321489"><ele>310.25</ele><time>2026-05-03T11:43:28.909Z</time></trkpt><trkpt lat="44.1119815" lon="8.0321621"><ele>313.5</ele><time>2026-05-03T11:43:29.915Z</time></trkpt><trkpt lat="44.111844" lon="8.0321813"><ele>316.75</ele><time>2026-05-03T11:43:30.911Z</time></trkpt><trkpt lat="44.1117058" lon="8.0322078"><ele>320.0</ele><time>2026-05-03T11:43:31.918Z</time></trkpt><trkpt lat="44.1115795" lon="8.0322657"><ele>316.0</ele><time>2026-05-03T11:43:32.909Z</time></trkpt><trkpt lat="44.1114644" lon="8.0323442"><ele>312.0</ele><time>2026-05-03T11:43:33.916Z</time></trkpt><trkpt lat="44.1113519" lon="8.0324551"><ele>308.0</ele><time>2026-05-03T11:43:34.912Z</time></trkpt><trkpt lat="44.1112476" lon="8.032614"><ele>304.0</ele><time>2026-05-03T11:43:35.914Z</time></trkpt><trkpt lat="44.111141" lon="8.0327623"><ele>304.0</ele><time>2026-05-03T11:43:36.913Z</time></trkpt><trkpt lat="44.1110288" lon="8.0328848"><ele>304.0</ele><time>2026-05-03T11:43:37.915Z</time></trkpt><trkpt lat="44.1109176" lon="8.0330019"><ele>304.0</ele><time>2026-05-03T11:43:38.917Z</time></trkpt><trkpt lat="44.1108291" lon="8.0331477"><ele>304.0</ele><time>2026-05-03T11:43:39.915Z</time></trkpt><trkpt lat="44.1107725" lon="8.0333286"><ele>299.75</ele><time>2026-05-03T11:43:40.908Z</time></trkpt><trkpt lat="44.1107475" lon="8.0335255"><ele>295.5</ele><time>2026-05-03T11:43:41.909Z</time></trkpt><trkpt lat="44.1107558" lon="8.0337158"><ele>291.25</ele><time>2026-05-03T11:43:42.91Z</time></trkpt><trkpt lat="44.1108032" lon="8.0339151"><ele>287.0</ele><time>2026-05-03T11:43:43.913Z</time></trkpt><trkpt lat="44.1108788" lon="8.0341042"><ele>286.0</ele><time>2026-05-03T11:43:44.909Z</time></trkpt><trkpt lat="44.1109848" lon="8.0342916"><ele>285.0</ele><time>2026-05-03T11:43:45.914Z</time></trkpt><trkpt lat="44.1110677" lon="8.0344674"><ele>284.0</ele><time>2026-05-03T11:43:46.914Z</time></trkpt><trkpt lat="44.1111623" lon="8.0346607"><ele>284.0</ele><time>2026-05-03T11:43:47.91Z</time></trkpt><trkpt lat="44.1112658" lon="8.0348532"><ele>284.0</ele><time>2026-05-03T11:43:48.909Z</time></trkpt><trkpt lat="44.1113603" lon="8.0350505"><ele>284.0</ele><time>2026-05-03T11:43:49.918Z</time></trkpt><trkpt lat="44.1114293" lon="8.035252"><ele>285.0</ele><time>2026-05-03T11:43:50.918Z</time></trkpt><trkpt lat="44.1114816" lon="8.035472"><ele>286.0</ele><time>2026-05-03T11:43:51.916Z</time></trkpt><trkpt lat="44.1115145" lon="8.0357091"><ele>287.0</ele><time>2026-05-03T11:43:52.912Z</time></trkpt><trkpt lat="44.1115441" lon="8.0359436"><ele>286.0</ele><time>2026-05-03T11:43:53.913Z</time></trkpt><trkpt lat="44.1115698" lon="8.0361705"><ele>285.0</ele><time>2026-05-03T11:43:54.918Z</time></trkpt><trkpt lat="44.1115814" lon="8.0363948"><ele>284.0</ele><time>2026-05-03T11:43:55.921Z</time></trkpt><trkpt lat="44.1115644" lon="8.0366141"><ele>280.5</ele><time>2026-05-03T11:43:56.918Z</time></trkpt><trkpt lat="44.1115224" lon="8.0368212"><ele>277.0</ele><time>2026-05-03T11:43:57.918Z</time></trkpt><trkpt lat="44.1114626" lon="8.0370039"><ele>273.5</ele><time>2026-05-03T11:43:58.92Z</time></trkpt><trkpt lat="44.1113823" lon="8.0371328"><ele>270.0</ele><time>2026-05-03T11:43:59.916Z</time></trkpt><trkpt lat="44.1112847" lon="8.0372241"><ele>270.0</ele><time>2026-05-03T11:44:00.913Z</time></trkpt><trkpt lat="44.1111578" lon="8.0372806"><ele>270.0</ele><time>2026-05-03T11:44:01.919Z</time></trkpt><trkpt lat="44.1110062" lon="8.037292"><ele>270.0</ele><time>2026-05-03T11:44:02.903Z</time></trkpt><trkpt lat="44.1108476" lon="8.0372986"><ele>270.0</ele><time>2026-05-03T11:44:03.905Z</time></trkpt><trkpt lat="44.11069" lon="8.0373127"><ele>269.6666666666667</ele><time>2026-05-03T11:44:04.908Z</time></trkpt><trkpt lat="44.110519" lon="8.0373228"><ele>269.33333333333337</ele><time>2026-05-03T11:44:05.912Z</time></trkpt><trkpt lat="44.1103509" lon="8.0373428"><ele>269.0</ele><time>2026-05-03T11:44:06.916Z</time></trkpt><trkpt lat="44.1101968" lon="8.037384"><ele>269.0</ele><time>2026-05-03T11:44:07.906Z</time></trkpt><trkpt lat="44.1100487" lon="8.0374184"><ele>269.0</ele><time>2026-05-03T11:44:08.908Z</time></trkpt><trkpt lat="44.1099032" lon="8.0374635"><ele>269.0</ele><time>2026-05-03T11:44:09.915Z</time></trkpt><trkpt lat="44.1097623" lon="8.0375388"><ele>269.6666666666667</ele><time>2026-05-03T11:44:10.912Z</time></trkpt><trkpt lat="44.1096355" lon="8.0376522"><ele>270.3333333333333</ele><time>2026-05-03T11:44:11.921Z</time></trkpt><trkpt lat="44.1095227" lon="8.0377919"><ele>271.0</ele><time>2026-05-03T11:44:12.917Z</time></trkpt><trkpt lat="44.1094247" lon="8.037965"><ele>271.0</ele><time>2026-05-03T11:44:13.912Z</time></trkpt><trkpt lat="44.1093368" lon="8.0381492"><ele>271.0</ele><time>2026-05-03T11:44:14.916Z</time></trkpt><trkpt lat="44.1092491" lon="8.0383369"><ele>271.0</ele><time>2026-05-03T11:44:15.914Z</time></trkpt><trkpt lat="44.1091527" lon="8.0385165"><ele>279.3333333333333</ele><time>2026-05-03T11:44:16.917Z</time></trkpt><trkpt lat="44.1090534" lon="8.0386927"><ele>287.6666666666667</ele><time>2026-05-03T11:44:17.918Z</time></trkpt><trkpt lat="44.1089647" lon="8.0388823"><ele>296.0</ele><time>2026-05-03T11:44:18.916Z</time></trkpt><trkpt lat="44.1088947" lon="8.0390912"><ele>288.33333333333337</ele><time>2026-05-03T11:44:19.917Z</time></trkpt><trkpt lat="44.1088419" lon="8.0393251"><ele>280.6666666666667</ele><time>2026-05-03T11:44:20.914Z</time></trkpt><trkpt lat="44.108804" lon="8.0395717"><ele>273.0</ele><time>2026-05-03T11:44:21.917Z</time></trkpt><trkpt lat="44.1088044" lon="8.0398217"><ele>269.0</ele><time>2026-05-03T11:44:22.916Z</time></trkpt><trkpt lat="44.1088286" lon="8.0400802"><ele>265.0</ele><time>2026-05-03T11:44:23.921Z</time></trkpt><trkpt lat="44.108865" lon="8.0403379"><ele>261.0</ele><time>2026-05-03T11:44:24.918Z</time></trkpt><trkpt lat="44.1089179" lon="8.0405915"><ele>259.6666666666667</ele><time>2026-05-03T11:44:25.916Z</time></trkpt><trkpt lat="44.1089785" lon="8.0408302"><ele>258.33333333333337</ele><time>2026-05-03T11:44:26.914Z</time></trkpt><trkpt lat="44.109035" lon="8.0410642"><ele>257.0</ele><time>2026-05-03T11:44:27.918Z</time></trkpt><trkpt lat="44.1090689" lon="8.0412913"><ele>261.0</ele><time>2026-05-03T11:44:28.909Z</time></trkpt><trkpt lat="44.1090864" lon="8.0415116"><ele>265.0</ele><time>2026-05-03T11:44:29.927Z</time></trkpt><trkpt lat="44.109106" lon="8.0417285"><ele>269.0</ele><time>2026-05-03T11:44:30.914Z</time></trkpt><trkpt lat="44.1091316" lon="8.0419506"><ele>269.0</ele><time>2026-05-03T11:44:31.91Z</time></trkpt><trkpt lat="44.1091754" lon="8.0421733"><ele>269.0</ele><time>2026-05-03T11:44:32.91Z</time></trkpt><trkpt lat="44.1092258" lon="8.042399"><ele>269.0</ele><time>2026-05-03T11:44:33.915Z</time></trkpt><trkpt lat="44.1092877" lon="8.0426202"><ele>266.0</ele><time>2026-05-03T11:44:34.917Z</time></trkpt><trkpt lat="44.1093592" lon="8.0428427"><ele>263.0</ele><time>2026-05-03T11:44:35.917Z</time></trkpt><trkpt lat="44.1094248" lon="8.0430714"><ele>260.0</ele><time>2026-05-03T11:44:36.92Z</time></trkpt><trkpt lat="44.1094769" lon="8.0433052"><ele>257.33333333333337</ele><time>2026-05-03T11:44:37.915Z</time></trkpt><trkpt lat="44.109512" lon="8.043533"><ele>254.66666666666669</ele><time>2026-05-03T11:44:38.929Z</time></trkpt><trkpt lat="44.1095501" lon="8.0437521"><ele>252.0</ele><time>2026-05-03T11:44:39.917Z</time></trkpt><trkpt lat="44.1095887" lon="8.0439636"><ele>250.0</ele><time>2026-05-03T11:44:40.916Z</time></trkpt><trkpt lat="44.1096285" lon="8.0441773"><ele>248.0</ele><time>2026-05-03T11:44:41.916Z</time></trkpt><trkpt lat="44.1096566" lon="8.044401"><ele>246.0</ele><time>2026-05-03T11:44:42.916Z</time></trkpt><trkpt lat="44.1096719" lon="8.0446347"><ele>246.0</ele><time>2026-05-03T11:44:43.914Z</time></trkpt><trkpt lat="44.1096802" lon="8.0448717"><ele>246.0</ele><time>2026-05-03T11:44:44.913Z</time></trkpt><trkpt lat="44.1096864" lon="8.0451065"><ele>246.0</ele><time>2026-05-03T11:44:45.919Z</time></trkpt><trkpt lat="44.1097054" lon="8.0453292"><ele>247.66666666666669</ele><time>2026-05-03T11:44:46.918Z</time></trkpt><trkpt lat="44.109729" lon="8.0455587"><ele>249.33333333333334</ele><time>2026-05-03T11:44:47.921Z</time></trkpt><trkpt lat="44.1097554" lon="8.0457912"><ele>251.0</ele><time>2026-05-03T11:44:48.921Z</time></trkpt><trkpt lat="44.1097754" lon="8.0460277"><ele>251.0</ele><time>2026-05-03T11:44:49.909Z</time></trkpt><trkpt lat="44.1097771" lon="8.0462623"><ele>251.0</ele><time>2026-05-03T11:44:50.914Z</time></trkpt><trkpt lat="44.1097667" lon="8.0464959"><ele>251.0</ele><time>2026-05-03T11:44:51.919Z</time></trkpt><trkpt lat="44.1097558" lon="8.0467294"><ele>251.0</ele><time>2026-05-03T11:44:52.92Z</time></trkpt><trkpt lat="44.1097471" lon="8.0469665"><ele>251.0</ele><time>2026-05-03T11:44:53.916Z</time></trkpt><trkpt lat="44.109746" lon="8.0472069"><ele>251.0</ele><time>2026-05-03T11:44:54.914Z</time></trkpt><trkpt lat="44.1097595" lon="8.0474545"><ele>251.0</ele><time>2026-05-03T11:44:55.918Z</time></trkpt><trkpt lat="44.1097817" lon="8.0477021"><ele>251.0</ele><time>2026-05-03T11:44:56.913Z</time></trkpt><trkpt lat="44.1098095" lon="8.0479395"><ele>251.0</ele><time>2026-05-03T11:44:57.913Z</time></trkpt><trkpt lat="44.1098371" lon="8.0481597"><ele>251.0</ele><time>2026-05-03T11:44:58.91Z</time></trkpt><trkpt lat="44.1098614" lon="8.0483721"><ele>251.0</ele><time>2026-05-03T11:44:59.908Z</time></trkpt><trkpt lat="44.1098567" lon="8.0485868"><ele>251.0</ele><time>2026-05-03T11:45:00.917Z</time></trkpt><trkpt lat="44.1098205" lon="8.0487828"><ele>251.0</ele><time>2026-05-03T11:45:01.908Z</time></trkpt><trkpt lat="44.1097705" lon="8.0489707"><ele>251.0</ele><time>2026-05-03T11:45:02.916Z</time></trkpt><trkpt lat="44.1097339" lon="8.0491657"><ele>251.0</ele><time>2026-05-03T11:45:03.913Z</time></trkpt><trkpt lat="44.1097157" lon="8.0493718"><ele>251.0</ele><time>2026-05-03T11:45:04.914Z</time></trkpt><trkpt lat="44.109722" lon="8.0495755"><ele>251.25</ele><time>2026-05-03T11:45:05.929Z</time></trkpt><trkpt lat="44.1097608" lon="8.0497776"><ele>251.5</ele><time>2026-05-03T11:45:06.914Z</time></trkpt><trkpt lat="44.1098175" lon="8.0499754"><ele>251.75</ele><time>2026-05-03T11:45:07.92Z</time></trkpt><trkpt lat="44.109881" lon="8.0501577"><ele>252.0</ele><time>2026-05-03T11:45:08.918Z</time></trkpt><trkpt lat="44.1099678" lon="8.0503475"><ele>246.33333333333331</ele><time>2026-05-03T11:45:09.909Z</time></trkpt><trkpt lat="44.110057" lon="8.0505496"><ele>240.66666666666666</ele><time>2026-05-03T11:45:10.913Z</time></trkpt><trkpt lat="44.1101479" lon="8.0507602"><ele>235.0</ele><time>2026-05-03T11:45:11.918Z</time></trkpt><trkpt lat="44.1102305" lon="8.0509699"><ele>233.66666666666666</ele><time>2026-05-03T11:45:12.912Z</time></trkpt><trkpt lat="44.1102977" lon="8.0511865"><ele>232.33333333333331</ele><time>2026-05-03T11:45:13.92Z</time></trkpt><trkpt lat="44.1103569" lon="8.0514127"><ele>231.0</ele><time>2026-05-03T11:45:14.917Z</time></trkpt><trkpt lat="44.1104176" lon="8.0516296"><ele>231.0</ele><time>2026-05-03T11:45:15.917Z</time></trkpt><trkpt lat="44.110496" lon="8.0518377"><ele>231.0</ele><time>2026-05-03T11:45:16.914Z</time></trkpt><trkpt lat="44.1105846" lon="8.0520462"><ele>231.0</ele><time>2026-05-03T11:45:17.922Z</time></trkpt><trkpt lat="44.1106778" lon="8.0522625"><ele>230.33333333333331</ele><time>2026-05-03T11:45:18.922Z</time></trkpt><trkpt lat="44.1107732" lon="8.0524777"><ele>229.66666666666666</ele><time>2026-05-03T11:45:19.916Z</time></trkpt><trkpt lat="44.1108764" lon="8.0526924"><ele>229.0</ele><time>2026-05-03T11:45:20.922Z</time></trkpt><trkpt lat="44.1109892" lon="8.0529083"><ele>229.0</ele><time>2026-05-03T11:45:21.912Z</time></trkpt><trkpt lat="44.1111059" lon="8.0531206"><ele>229.0</ele><time>2026-05-03T11:45:22.921Z</time></trkpt><trkpt lat="44.1112197" lon="8.0533331"><ele>229.0</ele><time>2026-05-03T11:45:23.919Z</time></trkpt><trkpt lat="44.1113251" lon="8.0535335"><ele>228.0</ele><time>2026-05-03T11:45:24.918Z</time></trkpt><trkpt lat="44.1114298" lon="8.0537223"><ele>227.0</ele><time>2026-05-03T11:45:25.913Z</time></trkpt><trkpt lat="44.1115244" lon="8.0539161"><ele>226.0</ele><time>2026-05-03T11:45:26.92Z</time></trkpt><trkpt lat="44.1116043" lon="8.0541031"><ele>224.66666666666666</ele><time>2026-05-03T11:45:27.923Z</time></trkpt><trkpt lat="44.1116775" lon="8.0542951"><ele>223.33333333333331</ele><time>2026-05-03T11:45:28.917Z</time></trkpt><trkpt lat="44.1117406" lon="8.0544871"><ele>222.0</ele><time>2026-05-03T11:45:29.912Z</time></trkpt><trkpt lat="44.1117841" lon="8.0546903"><ele>222.0</ele><time>2026-05-03T11:45:30.924Z</time></trkpt><trkpt lat="44.1118117" lon="8.0548946"><ele>222.0</ele><time>2026-05-03T11:45:31.921Z</time></trkpt><trkpt lat="44.1118177" lon="8.0551062"><ele>222.0</ele><time>2026-05-03T11:45:32.909Z</time></trkpt><trkpt lat="44.1117953" lon="8.0553243"><ele>222.0</ele><time>2026-05-03T11:45:33.927Z</time></trkpt><trkpt lat="44.1117782" lon="8.0555443"><ele>222.0</ele><time>2026-05-03T11:45:34.914Z</time></trkpt><trkpt lat="44.1117624" lon="8.0557725"><ele>222.0</ele><time>2026-05-03T11:45:35.921Z</time></trkpt><trkpt lat="44.1117698" lon="8.0560077"><ele>220.33333333333331</ele><time>2026-05-03T11:45:36.918Z</time></trkpt><trkpt lat="44.1118025" lon="8.0562454"><ele>218.66666666666666</ele><time>2026-05-03T11:45:37.916Z</time></trkpt><trkpt lat="44.1118594" lon="8.0564859"><ele>217.0</ele><time>2026-05-03T11:45:38.919Z</time></trkpt><trkpt lat="44.1119223" lon="8.0567058"><ele>216.66666666666666</ele><time>2026-05-03T11:45:39.915Z</time></trkpt><trkpt lat="44.111979" lon="8.0569167"><ele>216.33333333333331</ele><time>2026-05-03T11:45:40.915Z</time></trkpt><trkpt lat="44.1120313" lon="8.0571128"><ele>216.0</ele><time>2026-05-03T11:45:41.918Z</time></trkpt><trkpt lat="44.1120737" lon="8.057305"><ele>216.0</ele><time>2026-05-03T11:45:42.923Z</time></trkpt><trkpt lat="44.1120991" lon="8.0574899"><ele>216.0</ele><time>2026-05-03T11:45:43.923Z</time></trkpt><trkpt lat="44.1121165" lon="8.0576617"><ele>216.0</ele><time>2026-05-03T11:45:44.912Z</time></trkpt><trkpt lat="44.1121375" lon="8.0578217"><ele>216.0</ele><time>2026-05-03T11:45:45.912Z</time></trkpt><trkpt lat="44.1121612" lon="8.0579705"><ele>216.0</ele><time>2026-05-03T11:45:46.923Z</time></trkpt><trkpt lat="44.1121827" lon="8.0581111"><ele>216.0</ele><time>2026-05-03T11:45:47.913Z</time></trkpt><trkpt lat="44.1122072" lon="8.0582606"><ele>216.0</ele><time>2026-05-03T11:45:48.913Z</time></trkpt><trkpt lat="44.1122231" lon="8.0584257"><ele>216.0</ele><time>2026-05-03T11:45:49.92Z</time></trkpt><trkpt lat="44.1122288" lon="8.0586032"><ele>215.25</ele><time>2026-05-03T11:45:50.919Z</time></trkpt><trkpt lat="44.1122177" lon="8.0587847"><ele>214.5</ele><time>2026-05-03T11:45:51.91Z</time></trkpt><trkpt lat="44.1121902" lon="8.0589579"><ele>213.75</ele><time>2026-05-03T11:45:52.912Z</time></trkpt><trkpt lat="44.1121612" lon="8.0591324"><ele>213.0</ele><time>2026-05-03T11:45:53.915Z</time></trkpt><trkpt lat="44.11214" lon="8.0593141"><ele>212.75</ele><time>2026-05-03T11:45:54.915Z</time></trkpt><trkpt lat="44.1121244" lon="8.0595037"><ele>212.5</ele><time>2026-05-03T11:45:55.921Z</time></trkpt><trkpt lat="44.1121235" lon="8.0597006"><ele>212.25</ele><time>2026-05-03T11:45:56.921Z</time></trkpt><trkpt lat="44.1121321" lon="8.0599039"><ele>212.0</ele><time>2026-05-03T11:45:57.931Z</time></trkpt><trkpt lat="44.1121499" lon="8.0601192"><ele>212.0</ele><time>2026-05-03T11:45:58.917Z</time></trkpt><trkpt lat="44.1121711" lon="8.0603377"><ele>212.0</ele><time>2026-05-03T11:45:59.916Z</time></trkpt><trkpt lat="44.1121867" lon="8.0605622"><ele>212.0</ele><time>2026-05-03T11:46:00.917Z</time></trkpt><trkpt lat="44.1121955" lon="8.0607938"><ele>212.33333333333334</ele><time>2026-05-03T11:46:01.915Z</time></trkpt><trkpt lat="44.1121978" lon="8.0610311"><ele>212.66666666666669</ele><time>2026-05-03T11:46:02.922Z</time></trkpt><trkpt lat="44.1122021" lon="8.0612585"><ele>213.0</ele><time>2026-05-03T11:46:03.912Z</time></trkpt><trkpt lat="44.1122026" lon="8.0614721"><ele>211.0</ele><time>2026-05-03T11:46:04.929Z</time></trkpt><trkpt lat="44.1121815" lon="8.0616783"><ele>209.0</ele><time>2026-05-03T11:46:05.919Z</time></trkpt><trkpt lat="44.1121433" lon="8.0618834"><ele>207.0</ele><time>2026-05-03T11:46:06.911Z</time></trkpt><trkpt lat="44.1121146" lon="8.0620906"><ele>207.0</ele><time>2026-05-03T11:46:07.913Z</time></trkpt><trkpt lat="44.1120995" lon="8.0623105"><ele>207.0</ele><time>2026-05-03T11:46:08.911Z</time></trkpt><trkpt lat="44.1120801" lon="8.0625394"><ele>207.0</ele><time>2026-05-03T11:46:09.93Z</time></trkpt><trkpt lat="44.1120433" lon="8.062769"><ele>206.0</ele><time>2026-05-03T11:46:10.92Z</time></trkpt><trkpt lat="44.1119845" lon="8.0629885"><ele>205.0</ele><time>2026-05-03T11:46:11.921Z</time></trkpt><trkpt lat="44.1119152" lon="8.0632134"><ele>204.0</ele><time>2026-05-03T11:46:12.917Z</time></trkpt><trkpt lat="44.1118517" lon="8.0634534"><ele>204.0</ele><time>2026-05-03T11:46:13.926Z</time></trkpt><trkpt lat="44.1118014" lon="8.0637028"><ele>204.0</ele><time>2026-05-03T11:46:14.911Z</time></trkpt><trkpt lat="44.1117497" lon="8.0639566"><ele>204.0</ele><time>2026-05-03T11:46:15.928Z</time></trkpt><trkpt lat="44.1116976" lon="8.0642083"><ele>202.66666666666669</ele><time>2026-05-03T11:46:16.921Z</time></trkpt><trkpt lat="44.1116392" lon="8.0644502"><ele>201.33333333333334</ele><time>2026-05-03T11:46:17.919Z</time></trkpt><trkpt lat="44.1115758" lon="8.0646847"><ele>200.0</ele><time>2026-05-03T11:46:18.92Z</time></trkpt><trkpt lat="44.1115112" lon="8.064919"><ele>201.0</ele><time>2026-05-03T11:46:19.913Z</time></trkpt><trkpt lat="44.1114494" lon="8.0651443"><ele>202.0</ele><time>2026-05-03T11:46:20.92Z</time></trkpt><trkpt lat="44.1113881" lon="8.0653686"><ele>203.0</ele><time>2026-05-03T11:46:21.91Z</time></trkpt><trkpt lat="44.1113319" lon="8.0655781"><ele>201.75</ele><time>2026-05-03T11:46:22.919Z</time></trkpt><trkpt lat="44.1112883" lon="8.0657843"><ele>200.5</ele><time>2026-05-03T11:46:23.917Z</time></trkpt><trkpt lat="44.1112559" lon="8.0659842"><ele>199.25</ele><time>2026-05-03T11:46:24.915Z</time></trkpt><trkpt lat="44.1112266" lon="8.0661759"><ele>198.0</ele><time>2026-05-03T11:46:25.924Z</time></trkpt><trkpt lat="44.1112074" lon="8.0663526"><ele>198.0</ele><time>2026-05-03T11:46:26.919Z</time></trkpt><trkpt lat="44.1111844" lon="8.0665108"><ele>198.0</ele><time>2026-05-03T11:46:27.921Z</time></trkpt><trkpt lat="44.1111627" lon="8.0666718"><ele>198.0</ele><time>2026-05-03T11:46:28.921Z</time></trkpt><trkpt lat="44.1111421" lon="8.0668355"><ele>198.0</ele><time>2026-05-03T11:46:29.917Z</time></trkpt><trkpt lat="44.1111229" lon="8.066995"><ele>198.2</ele><time>2026-05-03T11:46:30.923Z</time></trkpt><trkpt lat="44.1111079" lon="8.0671429"><ele>198.4</ele><time>2026-05-03T11:46:31.92Z</time></trkpt><trkpt lat="44.1110906" lon="8.0673004"><ele>198.6</ele><time>2026-05-03T11:46:32.917Z</time></trkpt><trkpt lat="44.1110721" lon="8.0674526"><ele>198.79999999999998</ele><time>2026-05-03T11:46:33.926Z</time></trkpt><trkpt lat="44.1110462" lon="8.0676108"><ele>199.0</ele><time>2026-05-03T11:46:34.92Z</time></trkpt><trkpt lat="44.1110176" lon="8.067752"><ele>197.5</ele><time>2026-05-03T11:46:35.926Z</time></trkpt><trkpt lat="44.1109639" lon="8.0678839"><ele>196.0</ele><time>2026-05-03T11:46:36.915Z</time></trkpt><trkpt lat="44.1108881" lon="8.0680117"><ele>194.5</ele><time>2026-05-03T11:46:37.924Z</time></trkpt><trkpt lat="44.1108071" lon="8.0681407"><ele>193.0</ele><time>2026-05-03T11:46:38.919Z</time></trkpt><trkpt lat="44.1107211" lon="8.0682796"><ele>193.0</ele><time>2026-05-03T11:46:39.916Z</time></trkpt><trkpt lat="44.1106443" lon="8.0684166"><ele>193.0</ele><time>2026-05-03T11:46:40.918Z</time></trkpt><trkpt lat="44.1105706" lon="8.0685607"><ele>193.0</ele><time>2026-05-03T11:46:41.922Z</time></trkpt><trkpt lat="44.1105028" lon="8.0687143"><ele>193.0</ele><time>2026-05-03T11:46:42.921Z</time></trkpt><trkpt lat="44.1104262" lon="8.068845"><ele>193.0</ele><time>2026-05-03T11:46:43.912Z</time></trkpt><trkpt lat="44.1103403" lon="8.0689474"><ele>193.0</ele><time>2026-05-03T11:46:44.917Z</time></trkpt><trkpt lat="44.110235" lon="8.0690191"><ele>193.0</ele><time>2026-05-03T11:46:45.916Z</time></trkpt><trkpt lat="44.1101228" lon="8.0690884"><ele>193.0</ele><time>2026-05-03T11:46:46.922Z</time></trkpt><trkpt lat="44.110021" lon="8.0691858"><ele>192.0</ele><time>2026-05-03T11:46:47.931Z</time></trkpt><trkpt lat="44.109944" lon="8.0693204"><ele>191.0</ele><time>2026-05-03T11:46:48.916Z</time></trkpt><trkpt lat="44.1098902" lon="8.0694962"><ele>190.0</ele><time>2026-05-03T11:46:49.91Z</time></trkpt><trkpt lat="44.109863" lon="8.0696934"><ele>189.0</ele><time>2026-05-03T11:46:50.918Z</time></trkpt><trkpt lat="44.1098594" lon="8.069901"><ele>192.33333333333331</ele><time>2026-05-03T11:46:51.92Z</time></trkpt><trkpt lat="44.1098618" lon="8.0701245"><ele>195.66666666666666</ele><time>2026-05-03T11:46:52.92Z</time></trkpt><trkpt lat="44.1098649" lon="8.0703488"><ele>199.0</ele><time>2026-05-03T11:46:53.921Z</time></trkpt><trkpt lat="44.1098652" lon="8.07057"><ele>199.5</ele><time>2026-05-03T11:46:54.917Z</time></trkpt><trkpt lat="44.1098657" lon="8.0707846"><ele>200.0</ele><time>2026-05-03T11:46:55.924Z</time></trkpt><trkpt lat="44.1098786" lon="8.0709918"><ele>200.5</ele><time>2026-05-03T11:46:56.923Z</time></trkpt><trkpt lat="44.1098986" lon="8.0711911"><ele>201.0</ele><time>2026-05-03T11:46:57.915Z</time></trkpt><trkpt lat="44.1099176" lon="8.0713889"><ele>198.25</ele><time>2026-05-03T11:46:58.916Z</time></trkpt><trkpt lat="44.1099422" lon="8.0715786"><ele>195.5</ele><time>2026-05-03T11:46:59.913Z</time></trkpt><trkpt lat="44.1099622" lon="8.0717661"><ele>192.75</ele><time>2026-05-03T11:47:00.912Z</time></trkpt><trkpt lat="44.1099868" lon="8.0719419"><ele>190.0</ele><time>2026-05-03T11:47:01.914Z</time></trkpt><trkpt lat="44.1100106" lon="8.0721255"><ele>189.4</ele><time>2026-05-03T11:47:02.919Z</time></trkpt><trkpt lat="44.1100336" lon="8.0722894"><ele>188.8</ele><time>2026-05-03T11:47:03.913Z</time></trkpt><trkpt lat="44.1100525" lon="8.0724446"><ele>188.2</ele><time>2026-05-03T11:47:04.917Z</time></trkpt><trkpt lat="44.1100609" lon="8.0725959"><ele>187.6</ele><time>2026-05-03T11:47:05.916Z</time></trkpt><trkpt lat="44.1100408" lon="8.0727279"><ele>187.0</ele><time>2026-05-03T11:47:06.903Z</time></trkpt><trkpt lat="44.1099872" lon="8.0728648"><ele>186.25</ele><time>2026-05-03T11:47:07.913Z</time></trkpt><trkpt lat="44.1099433" lon="8.0730101"><ele>185.5</ele><time>2026-05-03T11:47:08.915Z</time></trkpt><trkpt lat="44.1099241" lon="8.0731718"><ele>184.75</ele><time>2026-05-03T11:47:09.931Z</time></trkpt><trkpt lat="44.1099209" lon="8.0733276"><ele>184.0</ele><time>2026-05-03T11:47:10.914Z</time></trkpt><trkpt lat="44.1099051" lon="8.0734871"><ele>184.0</ele><time>2026-05-03T11:47:11.91Z</time></trkpt><trkpt lat="44.1098498" lon="8.0736287"><ele>184.0</ele><time>2026-05-03T11:47:12.913Z</time></trkpt><trkpt lat="44.1097573" lon="8.0737521"><ele>184.0</ele><time>2026-05-03T11:47:13.915Z</time></trkpt><trkpt lat="44.1096483" lon="8.0738866"><ele>184.0</ele><time>2026-05-03T11:47:14.914Z</time></trkpt><trkpt lat="44.1095313" lon="8.0740346"><ele>181.0</ele><time>2026-05-03T11:47:15.914Z</time></trkpt><trkpt lat="44.1094072" lon="8.0741936"><ele>178.0</ele><time>2026-05-03T11:47:16.916Z</time></trkpt><trkpt lat="44.1092783" lon="8.0743588"><ele>175.0</ele><time>2026-05-03T11:47:17.908Z</time></trkpt><trkpt lat="44.1091376" lon="8.0745234"><ele>177.66666666666669</ele><time>2026-05-03T11:47:18.917Z</time></trkpt><trkpt lat="44.1089908" lon="8.0746792"><ele>180.33333333333334</ele><time>2026-05-03T11:47:19.913Z</time></trkpt><trkpt lat="44.1088417" lon="8.0748198"><ele>183.0</ele><time>2026-05-03T11:47:20.916Z</time></trkpt><trkpt lat="44.1086913" lon="8.074929"><ele>181.66666666666666</ele><time>2026-05-03T11:47:21.913Z</time></trkpt><trkpt lat="44.1085416" lon="8.0749999"><ele>180.33333333333331</ele><time>2026-05-03T11:47:22.914Z</time></trkpt><trkpt lat="44.1083892" lon="8.0750543"><ele>179.0</ele><time>2026-05-03T11:47:23.922Z</time></trkpt><trkpt lat="44.1082432" lon="8.0750903"><ele>177.0</ele><time>2026-05-03T11:47:24.913Z</time></trkpt><trkpt lat="44.108092" lon="8.0751182"><ele>175.0</ele><time>2026-05-03T11:47:25.91Z</time></trkpt><trkpt lat="44.1079363" lon="8.0751481"><ele>173.0</ele><time>2026-05-03T11:47:26.912Z</time></trkpt><trkpt lat="44.1077928" lon="8.0751949"><ele>173.0</ele><time>2026-05-03T11:47:27.914Z</time></trkpt><trkpt lat="44.1076552" lon="8.0752734"><ele>173.0</ele><time>2026-05-03T11:47:28.909Z</time></trkpt><trkpt lat="44.1075371" lon="8.0753973"><ele>173.0</ele><time>2026-05-03T11:47:29.915Z</time></trkpt><trkpt lat="44.1074367" lon="8.0755671"><ele>175.66666666666666</ele><time>2026-05-03T11:47:30.918Z</time></trkpt><trkpt lat="44.1073588" lon="8.0757707"><ele>178.33333333333334</ele><time>2026-05-03T11:47:31.915Z</time></trkpt><trkpt lat="44.1072926" lon="8.075993"><ele>181.0</ele><time>2026-05-03T11:47:32.916Z</time></trkpt><trkpt lat="44.1072341" lon="8.0762358"><ele>181.0</ele><time>2026-05-03T11:47:33.917Z</time></trkpt><trkpt lat="44.1071709" lon="8.0764629"><ele>181.0</ele><time>2026-05-03T11:47:34.915Z</time></trkpt><trkpt lat="44.107116" lon="8.0766842"><ele>181.0</ele><time>2026-05-03T11:47:35.913Z</time></trkpt><trkpt lat="44.1070652" lon="8.0769055"><ele>179.33333333333334</ele><time>2026-05-03T11:47:36.916Z</time></trkpt><trkpt lat="44.1070192" lon="8.0771274"><ele>177.66666666666666</ele><time>2026-05-03T11:47:37.911Z</time></trkpt><trkpt lat="44.106998" lon="8.077363"><ele>176.0</ele><time>2026-05-03T11:47:38.916Z</time></trkpt><trkpt lat="44.1069828" lon="8.077603"><ele>173.0</ele><time>2026-05-03T11:47:39.917Z</time></trkpt><trkpt lat="44.1069699" lon="8.0778467"><ele>170.0</ele><time>2026-05-03T11:47:40.916Z</time></trkpt><trkpt lat="44.1069522" lon="8.0780955"><ele>167.0</ele><time>2026-05-03T11:47:41.919Z</time></trkpt><trkpt lat="44.1069297" lon="8.0783347"><ele>167.0</ele><time>2026-05-03T11:47:42.918Z</time></trkpt><trkpt lat="44.1068993" lon="8.07856"><ele>167.0</ele><time>2026-05-03T11:47:43.911Z</time></trkpt><trkpt lat="44.1068441" lon="8.0787713"><ele>167.0</ele><time>2026-05-03T11:47:44.913Z</time></trkpt><trkpt lat="44.1067651" lon="8.0789508"><ele>169.66666666666666</ele><time>2026-05-03T11:47:45.919Z</time></trkpt><trkpt lat="44.1066713" lon="8.0791296"><ele>172.33333333333334</ele><time>2026-05-03T11:47:46.916Z</time></trkpt><trkpt lat="44.1065776" lon="8.0793093"><ele>175.0</ele><time>2026-05-03T11:47:47.921Z</time></trkpt><trkpt lat="44.1064852" lon="8.079488"><ele>175.0</ele><time>2026-05-03T11:47:48.914Z</time></trkpt><trkpt lat="44.1063909" lon="8.0796732"><ele>175.0</ele><time>2026-05-03T11:47:49.926Z</time></trkpt><trkpt lat="44.1062891" lon="8.0798472"><ele>175.0</ele><time>2026-05-03T11:47:50.915Z</time></trkpt><trkpt lat="44.1061712" lon="8.0800081"><ele>169.33333333333334</ele><time>2026-05-03T11:47:51.913Z</time></trkpt><trkpt lat="44.1060487" lon="8.0801611"><ele>163.66666666666666</ele><time>2026-05-03T11:47:52.915Z</time></trkpt><trkpt lat="44.1059321" lon="8.0803227"><ele>158.0</ele><time>2026-05-03T11:47:53.92Z</time></trkpt><trkpt lat="44.1058413" lon="8.0804988"><ele>158.0</ele><time>2026-05-03T11:47:54.91Z</time></trkpt><trkpt lat="44.1057759" lon="8.0806983"><ele>158.0</ele><time>2026-05-03T11:47:55.912Z</time></trkpt><trkpt lat="44.1057186" lon="8.0809063"><ele>158.0</ele><time>2026-05-03T11:47:56.915Z</time></trkpt><trkpt lat="44.1056415" lon="8.0810938"><ele>158.66666666666666</ele><time>2026-05-03T11:47:57.907Z</time></trkpt><trkpt lat="44.1055407" lon="8.0812588"><ele>159.33333333333334</ele><time>2026-05-03T11:47:58.913Z</time></trkpt><trkpt lat="44.1054366" lon="8.0814114"><ele>160.0</ele><time>2026-05-03T11:47:59.913Z</time></trkpt><trkpt lat="44.1053478" lon="8.0815768"><ele>159.0</ele><time>2026-05-03T11:48:00.911Z</time></trkpt><trkpt lat="44.1052727" lon="8.081746"><ele>158.0</ele><time>2026-05-03T11:48:01.915Z</time></trkpt><trkpt lat="44.1052224" lon="8.0819068"><ele>157.0</ele><time>2026-05-03T11:48:02.914Z</time></trkpt><trkpt lat="44.1051851" lon="8.082061"><ele>156.0</ele><time>2026-05-03T11:48:03.926Z</time></trkpt><trkpt lat="44.1051457" lon="8.0822041"><ele>156.0</ele><time>2026-05-03T11:48:04.911Z</time></trkpt><trkpt lat="44.1050872" lon="8.0823215"><ele>156.0</ele><time>2026-05-03T11:48:05.91Z</time></trkpt><trkpt lat="44.105009" lon="8.0824141"><ele>156.0</ele><time>2026-05-03T11:48:06.915Z</time></trkpt><trkpt lat="44.1049159" lon="8.0824992"><ele>156.0</ele><time>2026-05-03T11:48:07.919Z</time></trkpt><trkpt lat="44.1048187" lon="8.0825725"><ele>156.0</ele><time>2026-05-03T11:48:08.913Z</time></trkpt><trkpt lat="44.1047127" lon="8.0826459"><ele>158.25</ele><time>2026-05-03T11:48:09.913Z</time></trkpt><trkpt lat="44.1046049" lon="8.0827269"><ele>160.5</ele><time>2026-05-03T11:48:10.916Z</time></trkpt><trkpt lat="44.1044991" lon="8.0828359"><ele>162.75</ele><time>2026-05-03T11:48:11.911Z</time></trkpt><trkpt lat="44.104398" lon="8.0829678"><ele>165.0</ele><time>2026-05-03T11:48:12.916Z</time></trkpt><trkpt lat="44.1042913" lon="8.0831181"><ele>165.0</ele><time>2026-05-03T11:48:13.92Z</time></trkpt><trkpt lat="44.1041799" lon="8.0832669"><ele>165.0</ele><time>2026-05-03T11:48:14.908Z</time></trkpt><trkpt lat="44.1040723" lon="8.0834195"><ele>165.0</ele><time>2026-05-03T11:48:15.907Z</time></trkpt><trkpt lat="44.1039654" lon="8.0835668"><ele>165.0</ele><time>2026-05-03T11:48:16.917Z</time></trkpt><trkpt lat="44.1038604" lon="8.083709"><ele>165.0</ele><time>2026-05-03T11:48:17.916Z</time></trkpt><trkpt lat="44.1037599" lon="8.0838519"><ele>165.0</ele><time>2026-05-03T11:48:18.913Z</time></trkpt><trkpt lat="44.103664" lon="8.0839879"><ele>165.0</ele><time>2026-05-03T11:48:19.918Z</time></trkpt><trkpt lat="44.1035731" lon="8.0841112"><ele>162.4</ele><time>2026-05-03T11:48:20.912Z</time></trkpt><trkpt lat="44.1034861" lon="8.0842355"><ele>159.8</ele><time>2026-05-03T11:48:21.915Z</time></trkpt><trkpt lat="44.103411" lon="8.0843493"><ele>157.2</ele><time>2026-05-03T11:48:22.909Z</time></trkpt><trkpt lat="44.1033493" lon="8.0844786"><ele>154.6</ele><time>2026-05-03T11:48:23.914Z</time></trkpt><trkpt lat="44.1033238" lon="8.0846148"><ele>152.0</ele><time>2026-05-03T11:48:24.92Z</time></trkpt><trkpt lat="44.1033229" lon="8.0847424"><ele>152.0</ele><time>2026-05-03T11:48:25.911Z</time></trkpt><trkpt lat="44.1033615" lon="8.0848635"><ele>152.0</ele><time>2026-05-03T11:48:26.917Z</time></trkpt><trkpt lat="44.1034554" lon="8.0849526"><ele>152.0</ele><time>2026-05-03T11:48:27.908Z</time></trkpt><trkpt lat="44.1035666" lon="8.0849813"><ele>152.0</ele><time>2026-05-03T11:48:28.923Z</time></trkpt><trkpt lat="44.1036781" lon="8.0849846"><ele>152.0</ele><time>2026-05-03T11:48:29.912Z</time></trkpt><trkpt lat="44.1037921" lon="8.0850187"><ele>151.0</ele><time>2026-05-03T11:48:30.913Z</time></trkpt><trkpt lat="44.1039069" lon="8.0850772"><ele>150.0</ele><time>2026-05-03T11:48:31.907Z</time></trkpt><trkpt lat="44.1040135" lon="8.0851586"><ele>149.0</ele><time>2026-05-03T11:48:32.912Z</time></trkpt><trkpt lat="44.1041178" lon="8.0852597"><ele>148.0</ele><time>2026-05-03T11:48:33.908Z</time></trkpt><trkpt lat="44.1042177" lon="8.0853821"><ele>147.66666666666669</ele><time>2026-05-03T11:48:34.918Z</time></trkpt><trkpt lat="44.104311" lon="8.0855331"><ele>147.33333333333334</ele><time>2026-05-03T11:48:35.91Z</time></trkpt><trkpt lat="44.1044057" lon="8.0856966"><ele>147.0</ele><time>2026-05-03T11:48:36.913Z</time></trkpt><trkpt lat="44.1044954" lon="8.0858803"><ele>147.0</ele><time>2026-05-03T11:48:37.917Z</time></trkpt><trkpt lat="44.1045818" lon="8.0860868"><ele>147.0</ele><time>2026-05-03T11:48:38.914Z</time></trkpt><trkpt lat="44.104656" lon="8.0863036"><ele>147.0</ele><time>2026-05-03T11:48:39.933Z</time></trkpt><trkpt lat="44.1047078" lon="8.0865171"><ele>146.66666666666666</ele><time>2026-05-03T11:48:40.915Z</time></trkpt><trkpt lat="44.1047388" lon="8.0867386"><ele>146.33333333333331</ele><time>2026-05-03T11:48:41.91Z</time></trkpt><trkpt lat="44.1047469" lon="8.086966"><ele>146.0</ele><time>2026-05-03T11:48:42.913Z</time></trkpt><trkpt lat="44.1047114" lon="8.0871991"><ele>144.66666666666666</ele><time>2026-05-03T11:48:43.918Z</time></trkpt><trkpt lat="44.1046577" lon="8.0874322"><ele>143.33333333333334</ele><time>2026-05-03T11:48:44.908Z</time></trkpt><trkpt lat="44.1045855" lon="8.0876656"><ele>142.0</ele><time>2026-05-03T11:48:45.91Z</time></trkpt><trkpt lat="44.1044996" lon="8.0878997"><ele>142.0</ele><time>2026-05-03T11:48:46.915Z</time></trkpt><trkpt lat="44.1044169" lon="8.0881326"><ele>142.0</ele><time>2026-05-03T11:48:47.913Z</time></trkpt><trkpt lat="44.1043328" lon="8.0883595"><ele>142.0</ele><time>2026-05-03T11:48:48.908Z</time></trkpt><trkpt lat="44.1042579" lon="8.088577"><ele>143.0</ele><time>2026-05-03T11:48:49.922Z</time></trkpt><trkpt lat="44.104186" lon="8.0887889"><ele>144.0</ele><time>2026-05-03T11:48:50.908Z</time></trkpt><trkpt lat="44.1041281" lon="8.0889942"><ele>145.0</ele><time>2026-05-03T11:48:51.91Z</time></trkpt><trkpt lat="44.1040746" lon="8.0892115"><ele>147.66666666666669</ele><time>2026-05-03T11:48:52.907Z</time></trkpt><trkpt lat="44.1040366" lon="8.0894424"><ele>150.33333333333334</ele><time>2026-05-03T11:48:53.914Z</time></trkpt><trkpt lat="44.1040074" lon="8.0896825"><ele>153.0</ele><time>2026-05-03T11:48:54.91Z</time></trkpt><trkpt lat="44.1039645" lon="8.0899299"><ele>153.0</ele><time>2026-05-03T11:48:55.912Z</time></trkpt><trkpt lat="44.1039141" lon="8.0901736"><ele>153.0</ele><time>2026-05-03T11:48:56.912Z</time></trkpt><trkpt lat="44.1038637" lon="8.0904308"><ele>153.0</ele><time>2026-05-03T11:48:57.906Z</time></trkpt><trkpt lat="44.1038114" lon="8.0906968"><ele>148.66666666666666</ele><time>2026-05-03T11:48:58.906Z</time></trkpt><trkpt lat="44.1037591" lon="8.0909604"><ele>144.33333333333331</ele><time>2026-05-03T11:48:59.909Z</time></trkpt><trkpt lat="44.1036974" lon="8.0912248"><ele>140.0</ele><time>2026-05-03T11:49:00.907Z</time></trkpt><trkpt lat="44.103631" lon="8.0914777"><ele>139.66666666666666</ele><time>2026-05-03T11:49:01.916Z</time></trkpt><trkpt lat="44.1035604" lon="8.0917304"><ele>139.33333333333334</ele><time>2026-05-03T11:49:02.906Z</time></trkpt><trkpt lat="44.1034863" lon="8.0919771"><ele>139.0</ele><time>2026-05-03T11:49:03.911Z</time></trkpt><trkpt lat="44.1034213" lon="8.0922235"><ele>139.33333333333334</ele><time>2026-05-03T11:49:04.909Z</time></trkpt><trkpt lat="44.1033824" lon="8.0924769"><ele>139.66666666666666</ele><time>2026-05-03T11:49:05.909Z</time></trkpt><trkpt lat="44.1033551" lon="8.0927336"><ele>140.0</ele><time>2026-05-03T11:49:06.914Z</time></trkpt><trkpt lat="44.103341" lon="8.0929849"><ele>140.0</ele><time>2026-05-03T11:49:07.916Z</time></trkpt><trkpt lat="44.1033312" lon="8.0932369"><ele>140.0</ele><time>2026-05-03T11:49:08.909Z</time></trkpt><trkpt lat="44.1033288" lon="8.093494"><ele>140.0</ele><time>2026-05-03T11:49:09.916Z</time></trkpt><trkpt lat="44.1033364" lon="8.0937549"><ele>138.66666666666666</ele><time>2026-05-03T11:49:10.914Z</time></trkpt><trkpt lat="44.1033478" lon="8.0940177"><ele>137.33333333333334</ele><time>2026-05-03T11:49:11.907Z</time></trkpt><trkpt lat="44.1033645" lon="8.0942876"><ele>136.0</ele><time>2026-05-03T11:49:12.912Z</time></trkpt><trkpt lat="44.1033824" lon="8.0945558"><ele>134.66666666666669</ele><time>2026-05-03T11:49:13.907Z</time></trkpt><trkpt lat="44.1034016" lon="8.0948315"><ele>133.33333333333334</ele><time>2026-05-03T11:49:14.911Z</time></trkpt><trkpt lat="44.1034203" lon="8.0951148"><ele>132.0</ele><time>2026-05-03T11:49:15.911Z</time></trkpt><trkpt lat="44.1034444" lon="8.0953918"><ele>131.66666666666666</ele><time>2026-05-03T11:49:16.913Z</time></trkpt><trkpt lat="44.1034631" lon="8.0956626"><ele>131.33333333333331</ele><time>2026-05-03T11:49:17.921Z</time></trkpt><trkpt lat="44.103474" lon="8.0959228"><ele>131.0</ele><time>2026-05-03T11:49:18.918Z</time></trkpt><trkpt lat="44.1034604" lon="8.096169"><ele>131.0</ele><time>2026-05-03T11:49:19.914Z</time></trkpt><trkpt lat="44.1034218" lon="8.0963984"><ele>131.0</ele><time>2026-05-03T11:49:20.926Z</time></trkpt><trkpt lat="44.1033698" lon="8.0966238"><ele>131.0</ele><time>2026-05-03T11:49:21.912Z</time></trkpt><trkpt lat="44.1033027" lon="8.0968515"><ele>128.33333333333331</ele><time>2026-05-03T11:49:22.915Z</time></trkpt><trkpt lat="44.1032249" lon="8.0970622"><ele>125.66666666666666</ele><time>2026-05-03T11:49:23.91Z</time></trkpt><trkpt lat="44.1031299" lon="8.0972563"><ele>123.0</ele><time>2026-05-03T11:49:24.914Z</time></trkpt><trkpt lat="44.1030291" lon="8.0974239"><ele>122.33333333333334</ele><time>2026-05-03T11:49:25.92Z</time></trkpt><trkpt lat="44.102919" lon="8.0975754"><ele>121.66666666666667</ele><time>2026-05-03T11:49:26.911Z</time></trkpt><trkpt lat="44.1027887" lon="8.0977179"><ele>121.0</ele><time>2026-05-03T11:49:27.913Z</time></trkpt><trkpt lat="44.1026589" lon="8.0978577"><ele>121.0</ele><time>2026-05-03T11:49:28.916Z</time></trkpt><trkpt lat="44.1025231" lon="8.0980022"><ele>121.0</ele><time>2026-05-03T11:49:29.921Z</time></trkpt><trkpt lat="44.1023802" lon="8.0981381"><ele>121.0</ele><time>2026-05-03T11:49:30.912Z</time></trkpt><trkpt lat="44.1022278" lon="8.0982728"><ele>121.33333333333334</ele><time>2026-05-03T11:49:31.931Z</time></trkpt><trkpt lat="44.1020847" lon="8.098394"><ele>121.66666666666666</ele><time>2026-05-03T11:49:32.907Z</time></trkpt><trkpt lat="44.1019477" lon="8.0985142"><ele>122.0</ele><time>2026-05-03T11:49:33.913Z</time></trkpt><trkpt lat="44.1018326" lon="8.0986552"><ele>122.0</ele><time>2026-05-03T11:49:34.908Z</time></trkpt><trkpt lat="44.1017278" lon="8.0988062"><ele>122.0</ele><time>2026-05-03T11:49:35.914Z</time></trkpt><trkpt lat="44.1016363" lon="8.0989649"><ele>122.0</ele><time>2026-05-03T11:49:36.915Z</time></trkpt><trkpt lat="44.1015396" lon="8.099131"><ele>125.0</ele><time>2026-05-03T11:49:37.91Z</time></trkpt><trkpt lat="44.101437" lon="8.0993058"><ele>128.0</ele><time>2026-05-03T11:49:38.912Z</time></trkpt><trkpt lat="44.1013338" lon="8.0994869"><ele>131.0</ele><time>2026-05-03T11:49:39.911Z</time></trkpt><trkpt lat="44.101227" lon="8.0996759"><ele>131.0</ele><time>2026-05-03T11:49:40.925Z</time></trkpt><trkpt lat="44.1011132" lon="8.0998691"><ele>131.0</ele><time>2026-05-03T11:49:41.918Z</time></trkpt><trkpt lat="44.1009949" lon="8.100066"><ele>131.0</ele><time>2026-05-03T11:49:42.927Z</time></trkpt><trkpt lat="44.1008769" lon="8.1002633"><ele>127.66666666666666</ele><time>2026-05-03T11:49:43.916Z</time></trkpt><trkpt lat="44.1007606" lon="8.100457"><ele>124.33333333333334</ele><time>2026-05-03T11:49:44.917Z</time></trkpt><trkpt lat="44.1006545" lon="8.100648"><ele>121.0</ele><time>2026-05-03T11:49:45.911Z</time></trkpt><trkpt lat="44.100556" lon="8.1008535"><ele>121.0</ele><time>2026-05-03T11:49:46.914Z</time></trkpt><trkpt lat="44.1004675" lon="8.1010684"><ele>121.0</ele><time>2026-05-03T11:49:47.918Z</time></trkpt><trkpt lat="44.1003941" lon="8.1012833"><ele>121.0</ele><time>2026-05-03T11:49:48.906Z</time></trkpt><trkpt lat="44.1003257" lon="8.1014943"><ele>120.33333333333334</ele><time>2026-05-03T11:49:49.914Z</time></trkpt><trkpt lat="44.100252" lon="8.101697"><ele>119.66666666666666</ele><time>2026-05-03T11:49:50.911Z</time></trkpt><trkpt lat="44.1001681" lon="8.1018792"><ele>119.0</ele><time>2026-05-03T11:49:51.906Z</time></trkpt><trkpt lat="44.1000774" lon="8.1020553"><ele>119.0</ele><time>2026-05-03T11:49:52.908Z</time></trkpt><trkpt lat="44.0999797" lon="8.1022178"><ele>119.0</ele><time>2026-05-03T11:49:53.913Z</time></trkpt><trkpt lat="44.0998789" lon="8.102379"><ele>119.0</ele><time>2026-05-03T11:49:54.908Z</time></trkpt><trkpt lat="44.09976" lon="8.1025344"><ele>117.33333333333333</ele><time>2026-05-03T11:49:55.925Z</time></trkpt><trkpt lat="44.0996317" lon="8.102687"><ele>115.66666666666666</ele><time>2026-05-03T11:49:56.907Z</time></trkpt><trkpt lat="44.0994881" lon="8.1028394"><ele>114.0</ele><time>2026-05-03T11:49:57.913Z</time></trkpt><trkpt lat="44.0993399" lon="8.1029926"><ele>114.0</ele><time>2026-05-03T11:49:58.917Z</time></trkpt><trkpt lat="44.0991837" lon="8.1031587"><ele>114.0</ele><time>2026-05-03T11:49:59.913Z</time></trkpt><trkpt lat="44.0990271" lon="8.1033144"><ele>114.0</ele><time>2026-05-03T11:50:00.909Z</time></trkpt><trkpt lat="44.098867" lon="8.1034696"><ele>114.0</ele><time>2026-05-03T11:50:01.919Z</time></trkpt><trkpt lat="44.0987042" lon="8.1036166"><ele>114.0</ele><time>2026-05-03T11:50:02.911Z</time></trkpt><trkpt lat="44.0985358" lon="8.1037571"><ele>114.0</ele><time>2026-05-03T11:50:03.93Z</time></trkpt><trkpt lat="44.0983671" lon="8.103877"><ele>114.0</ele><time>2026-05-03T11:50:04.909Z</time></trkpt><trkpt lat="44.098197" lon="8.1039896"><ele>114.0</ele><time>2026-05-03T11:50:05.912Z</time></trkpt><trkpt lat="44.0980316" lon="8.1040914"><ele>114.0</ele><time>2026-05-03T11:50:06.915Z</time></trkpt><trkpt lat="44.0978701" lon="8.104173"><ele>114.0</ele><time>2026-05-03T11:50:07.915Z</time></trkpt><trkpt lat="44.0977099" lon="8.1042381"><ele>114.0</ele><time>2026-05-03T11:50:08.915Z</time></trkpt><trkpt lat="44.0975393" lon="8.1042835"><ele>114.0</ele><time>2026-05-03T11:50:09.913Z</time></trkpt><trkpt lat="44.097358" lon="8.1043295"><ele>112.0</ele><time>2026-05-03T11:50:10.913Z</time></trkpt><trkpt lat="44.0971798" lon="8.1043706"><ele>110.0</ele><time>2026-05-03T11:50:11.919Z</time></trkpt><trkpt lat="44.097002" lon="8.1044106"><ele>108.0</ele><time>2026-05-03T11:50:12.916Z</time></trkpt><trkpt lat="44.096826" lon="8.1044517"><ele>108.0</ele><time>2026-05-03T11:50:13.907Z</time></trkpt><trkpt lat="44.0966486" lon="8.1044939"><ele>108.0</ele><time>2026-05-03T11:50:14.91Z</time></trkpt><trkpt lat="44.0964768" lon="8.1045518"><ele>108.0</ele><time>2026-05-03T11:50:15.914Z</time></trkpt><trkpt lat="44.0963103" lon="8.1046167"><ele>109.0</ele><time>2026-05-03T11:50:16.92Z</time></trkpt><trkpt lat="44.096163" lon="8.1047092"><ele>110.0</ele><time>2026-05-03T11:50:17.91Z</time></trkpt><trkpt lat="44.0960309" lon="8.1048398"><ele>111.0</ele><time>2026-05-03T11:50:18.918Z</time></trkpt><trkpt lat="44.0959252" lon="8.1050145"><ele>111.0</ele><time>2026-05-03T11:50:19.912Z</time></trkpt><trkpt lat="44.0958417" lon="8.1052147"><ele>111.0</ele><time>2026-05-03T11:50:20.91Z</time></trkpt><trkpt lat="44.0957633" lon="8.1054189"><ele>111.0</ele><time>2026-05-03T11:50:21.908Z</time></trkpt><trkpt lat="44.095662" lon="8.1055964"><ele>109.66666666666666</ele><time>2026-05-03T11:50:22.91Z</time></trkpt><trkpt lat="44.095533" lon="8.1057198"><ele>108.33333333333333</ele><time>2026-05-03T11:50:23.914Z</time></trkpt><trkpt lat="44.0953995" lon="8.10579"><ele>107.0</ele><time>2026-05-03T11:50:24.913Z</time></trkpt><trkpt lat="44.0952474" lon="8.105846"><ele>107.0</ele><time>2026-05-03T11:50:25.916Z</time></trkpt><trkpt lat="44.0950884" lon="8.1059149"><ele>107.0</ele><time>2026-05-03T11:50:26.909Z</time></trkpt><trkpt lat="44.0949247" lon="8.1060039"><ele>107.0</ele><time>2026-05-03T11:50:27.911Z</time></trkpt><trkpt lat="44.0947734" lon="8.1060992"><ele>112.66666666666666</ele><time>2026-05-03T11:50:28.901Z</time></trkpt><trkpt lat="44.0946243" lon="8.1061919"><ele>118.33333333333334</ele><time>2026-05-03T11:50:29.907Z</time></trkpt><trkpt lat="44.0944678" lon="8.1062691"><ele>124.0</ele><time>2026-05-03T11:50:30.903Z</time></trkpt><trkpt lat="44.0943082" lon="8.1063255"><ele>124.0</ele><time>2026-05-03T11:50:31.911Z</time></trkpt><trkpt lat="44.0941411" lon="8.1063796"><ele>124.0</ele><time>2026-05-03T11:50:32.908Z</time></trkpt><trkpt lat="44.0939721" lon="8.1064408"><ele>124.0</ele><time>2026-05-03T11:50:33.91Z</time></trkpt><trkpt lat="44.0937989" lon="8.1065244"><ele>120.33333333333334</ele><time>2026-05-03T11:50:34.915Z</time></trkpt><trkpt lat="44.0936371" lon="8.1066278"><ele>116.66666666666666</ele><time>2026-05-03T11:50:35.907Z</time></trkpt><trkpt lat="44.0934821" lon="8.1067492"><ele>113.0</ele><time>2026-05-03T11:50:36.91Z</time></trkpt><trkpt lat="44.0933398" lon="8.1068654"><ele>118.33333333333333</ele><time>2026-05-03T11:50:37.905Z</time></trkpt><trkpt lat="44.0932121" lon="8.1069902"><ele>123.66666666666666</ele><time>2026-05-03T11:50:38.909Z</time></trkpt><trkpt lat="44.0931052" lon="8.1071476"><ele>129.0</ele><time>2026-05-03T11:50:39.904Z</time></trkpt><trkpt lat="44.0930064" lon="8.1073424"><ele>121.0</ele><time>2026-05-03T11:50:40.908Z</time></trkpt><trkpt lat="44.0928926" lon="8.1075494"><ele>113.0</ele><time>2026-05-03T11:50:41.916Z</time></trkpt><trkpt lat="44.0927547" lon="8.1077428"><ele>105.0</ele><time>2026-05-03T11:50:42.909Z</time></trkpt><trkpt lat="44.0926164" lon="8.107936"><ele>105.0</ele><time>2026-05-03T11:50:43.907Z</time></trkpt><trkpt lat="44.0924741" lon="8.1081437"><ele>105.0</ele><time>2026-05-03T11:50:44.919Z</time></trkpt><trkpt lat="44.0923337" lon="8.1083571"><ele>105.0</ele><time>2026-05-03T11:50:45.912Z</time></trkpt><trkpt lat="44.092208" lon="8.1085639"><ele>105.0</ele><time>2026-05-03T11:50:46.922Z</time></trkpt><trkpt lat="44.0920925" lon="8.1087641"><ele>105.0</ele><time>2026-05-03T11:50:47.907Z</time></trkpt><trkpt lat="44.091984" lon="8.1089505"><ele>105.0</ele><time>2026-05-03T11:50:48.91Z</time></trkpt><trkpt lat="44.0918743" lon="8.1091211"><ele>104.33333333333334</ele><time>2026-05-03T11:50:49.909Z</time></trkpt><trkpt lat="44.0917694" lon="8.1092915"><ele>103.66666666666667</ele><time>2026-05-03T11:50:50.911Z</time></trkpt><trkpt lat="44.0916641" lon="8.109473"><ele>103.0</ele><time>2026-05-03T11:50:51.903Z</time></trkpt><trkpt lat="44.0915635" lon="8.1096644"><ele>102.33333333333334</ele><time>2026-05-03T11:50:52.916Z</time></trkpt><trkpt lat="44.0914688" lon="8.1098838"><ele>101.66666666666666</ele><time>2026-05-03T11:50:53.908Z</time></trkpt><trkpt lat="44.0913841" lon="8.1101325"><ele>101.0</ele><time>2026-05-03T11:50:54.913Z</time></trkpt><trkpt lat="44.0913006" lon="8.1103847"><ele>101.0</ele><time>2026-05-03T11:50:55.904Z</time></trkpt><trkpt lat="44.0912199" lon="8.1106502"><ele>101.0</ele><time>2026-05-03T11:50:56.911Z</time></trkpt><trkpt lat="44.0911449" lon="8.1109224"><ele>101.0</ele><time>2026-05-03T11:50:57.916Z</time></trkpt><trkpt lat="44.0910823" lon="8.1111905"><ele>99.66666666666666</ele><time>2026-05-03T11:50:58.908Z</time></trkpt><trkpt lat="44.0910344" lon="8.1114627"><ele>98.33333333333334</ele><time>2026-05-03T11:50:59.907Z</time></trkpt><trkpt lat="44.0910004" lon="8.1117447"><ele>97.0</ele><time>2026-05-03T11:51:00.908Z</time></trkpt><trkpt lat="44.0909869" lon="8.1120307"><ele>97.0</ele><time>2026-05-03T11:51:01.915Z</time></trkpt><trkpt lat="44.0909832" lon="8.1123179"><ele>97.0</ele><time>2026-05-03T11:51:02.912Z</time></trkpt><trkpt lat="44.0909788" lon="8.1125996"><ele>97.0</ele><time>2026-05-03T11:51:03.907Z</time></trkpt><trkpt lat="44.0909709" lon="8.1128776"><ele>96.66666666666667</ele><time>2026-05-03T11:51:04.907Z</time></trkpt><trkpt lat="44.0909466" lon="8.1131379"><ele>96.33333333333334</ele><time>2026-05-03T11:51:05.898Z</time></trkpt><trkpt lat="44.0909146" lon="8.1133912"><ele>96.0</ele><time>2026-05-03T11:51:06.92Z</time></trkpt><trkpt lat="44.0908713" lon="8.1136383"><ele>97.33333333333334</ele><time>2026-05-03T11:51:07.907Z</time></trkpt><trkpt lat="44.0908293" lon="8.1138916"><ele>98.66666666666667</ele><time>2026-05-03T11:51:08.907Z</time></trkpt><trkpt lat="44.090802" lon="8.11415"><ele>100.0</ele><time>2026-05-03T11:51:09.912Z</time></trkpt><trkpt lat="44.0907946" lon="8.1144133"><ele>100.0</ele><time>2026-05-03T11:51:10.926Z</time></trkpt><trkpt lat="44.0908197" lon="8.1146735"><ele>100.0</ele><time>2026-05-03T11:51:11.916Z</time></trkpt><trkpt lat="44.0908389" lon="8.1149406"><ele>100.0</ele><time>2026-05-03T11:51:12.933Z</time></trkpt><trkpt lat="44.0908424" lon="8.1151994"><ele>100.0</ele><time>2026-05-03T11:51:13.904Z</time></trkpt><trkpt lat="44.0908386" lon="8.1154458"><ele>100.0</ele><time>2026-05-03T11:51:14.9Z</time></trkpt><trkpt lat="44.0908219" lon="8.1156788"><ele>100.0</ele><time>2026-05-03T11:51:15.904Z</time></trkpt><trkpt lat="44.0908106" lon="8.1159037"><ele>99.33333333333334</ele><time>2026-05-03T11:51:16.91Z</time></trkpt><trkpt lat="44.0907957" lon="8.1161326"><ele>98.66666666666666</ele><time>2026-05-03T11:51:17.912Z</time></trkpt><trkpt lat="44.0907649" lon="8.116362"><ele>98.0</ele><time>2026-05-03T11:51:18.909Z</time></trkpt><trkpt lat="44.0907171" lon="8.1165894"><ele>96.0</ele><time>2026-05-03T11:51:19.922Z</time></trkpt><trkpt lat="44.0906594" lon="8.116806"><ele>94.0</ele><time>2026-05-03T11:51:20.898Z</time></trkpt><trkpt lat="44.0905819" lon="8.1170161"><ele>92.0</ele><time>2026-05-03T11:51:21.914Z</time></trkpt><trkpt lat="44.0905065" lon="8.1172164"><ele>90.33333333333334</ele><time>2026-05-03T11:51:22.914Z</time></trkpt><trkpt lat="44.090434" lon="8.1174145"><ele>88.66666666666667</ele><time>2026-05-03T11:51:23.921Z</time></trkpt><trkpt lat="44.0903556" lon="8.1176063"><ele>87.0</ele><time>2026-05-03T11:51:24.91Z</time></trkpt><trkpt lat="44.0902683" lon="8.1177969"><ele>87.0</ele><time>2026-05-03T11:51:25.908Z</time></trkpt><trkpt lat="44.0901744" lon="8.1179856"><ele>87.0</ele><time>2026-05-03T11:51:26.914Z</time></trkpt><trkpt lat="44.0900685" lon="8.1181604"><ele>87.0</ele><time>2026-05-03T11:51:27.919Z</time></trkpt><trkpt lat="44.0899559" lon="8.1183243"><ele>88.33333333333333</ele><time>2026-05-03T11:51:28.917Z</time></trkpt><trkpt lat="44.0898415" lon="8.1184824"><ele>89.66666666666666</ele><time>2026-05-03T11:51:29.913Z</time></trkpt><trkpt lat="44.0897288" lon="8.1186302"><ele>91.0</ele><time>2026-05-03T11:51:30.919Z</time></trkpt><trkpt lat="44.0896236" lon="8.1187796"><ele>91.0</ele><time>2026-05-03T11:51:31.916Z</time></trkpt><trkpt lat="44.0895465" lon="8.11895"><ele>91.0</ele><time>2026-05-03T11:51:32.918Z</time></trkpt><trkpt lat="44.0894979" lon="8.1191434"><ele>91.0</ele><time>2026-05-03T11:51:33.922Z</time></trkpt><trkpt lat="44.0894792" lon="8.1193519"><ele>91.0</ele><time>2026-05-03T11:51:34.926Z</time></trkpt><trkpt lat="44.0894792" lon="8.1195733"><ele>89.0</ele><time>2026-05-03T11:51:35.914Z</time></trkpt><trkpt lat="44.0894768" lon="8.1197986"><ele>87.0</ele><time>2026-05-03T11:51:36.917Z</time></trkpt><trkpt lat="44.0894685" lon="8.1200294"><ele>85.0</ele><time>2026-05-03T11:51:37.915Z</time></trkpt><trkpt lat="44.0894797" lon="8.120252"><ele>85.0</ele><time>2026-05-03T11:51:38.917Z</time></trkpt><trkpt lat="44.0895096" lon="8.1204625"><ele>85.0</ele><time>2026-05-03T11:51:39.919Z</time></trkpt><trkpt lat="44.0895679" lon="8.1206754"><ele>85.0</ele><time>2026-05-03T11:51:40.918Z</time></trkpt><trkpt lat="44.0896512" lon="8.1208964"><ele>85.0</ele><time>2026-05-03T11:51:41.917Z</time></trkpt><trkpt lat="44.0897413" lon="8.1211271"><ele>85.0</ele><time>2026-05-03T11:51:42.923Z</time></trkpt><trkpt lat="44.0898316" lon="8.1213539"><ele>85.0</ele><time>2026-05-03T11:51:43.919Z</time></trkpt><trkpt lat="44.0899177" lon="8.1215843"><ele>82.66666666666666</ele><time>2026-05-03T11:51:44.919Z</time></trkpt><trkpt lat="44.0899966" lon="8.1218115"><ele>80.33333333333333</ele><time>2026-05-03T11:51:45.927Z</time></trkpt><trkpt lat="44.0900787" lon="8.1220364"><ele>78.0</ele><time>2026-05-03T11:51:46.922Z</time></trkpt><trkpt lat="44.0901595" lon="8.1222668"><ele>75.0</ele><time>2026-05-03T11:51:47.918Z</time></trkpt><trkpt lat="44.0902437" lon="8.1224989"><ele>72.0</ele><time>2026-05-03T11:51:48.918Z</time></trkpt><trkpt lat="44.090328" lon="8.1227255"><ele>69.0</ele><time>2026-05-03T11:51:49.913Z</time></trkpt><trkpt lat="44.0904089" lon="8.1229429"><ele>69.0</ele><time>2026-05-03T11:51:50.93Z</time></trkpt><trkpt lat="44.0904928" lon="8.1231609"><ele>69.0</ele><time>2026-05-03T11:51:51.921Z</time></trkpt><trkpt lat="44.0905878" lon="8.1233671"><ele>69.0</ele><time>2026-05-03T11:51:52.924Z</time></trkpt><trkpt lat="44.0906997" lon="8.1235613"><ele>72.33333333333333</ele><time>2026-05-03T11:51:53.916Z</time></trkpt><trkpt lat="44.0908282" lon="8.1237557"><ele>75.66666666666666</ele><time>2026-05-03T11:51:54.921Z</time></trkpt><trkpt lat="44.090956" lon="8.1239536"><ele>79.0</ele><time>2026-05-03T11:51:55.917Z</time></trkpt><trkpt lat="44.0910708" lon="8.1241663"><ele>79.0</ele><time>2026-05-03T11:51:56.914Z</time></trkpt><trkpt lat="44.0911763" lon="8.1243856"><ele>79.0</ele><time>2026-05-03T11:51:57.919Z</time></trkpt><trkpt lat="44.0912746" lon="8.1246097"><ele>79.0</ele><time>2026-05-03T11:51:58.92Z</time></trkpt><trkpt lat="44.0913716" lon="8.1248335"><ele>78.0</ele><time>2026-05-03T11:51:59.925Z</time></trkpt><trkpt lat="44.0914696" lon="8.1250517"><ele>77.0</ele><time>2026-05-03T11:52:00.929Z</time></trkpt><trkpt lat="44.0915654" lon="8.1252677"><ele>76.0</ele><time>2026-05-03T11:52:01.915Z</time></trkpt><trkpt lat="44.0916604" lon="8.1254873"><ele>76.0</ele><time>2026-05-03T11:52:02.914Z</time></trkpt><trkpt lat="44.091758" lon="8.1257043"><ele>76.0</ele><time>2026-05-03T11:52:03.923Z</time></trkpt><trkpt lat="44.0918565" lon="8.1259115"><ele>76.0</ele><time>2026-05-03T11:52:04.921Z</time></trkpt><trkpt lat="44.0919545" lon="8.1261116"><ele>76.0</ele><time>2026-05-03T11:52:05.922Z</time></trkpt><trkpt lat="44.0920525" lon="8.1263041"><ele>76.0</ele><time>2026-05-03T11:52:06.921Z</time></trkpt><trkpt lat="44.0921374" lon="8.1265055"><ele>76.0</ele><time>2026-05-03T11:52:07.916Z</time></trkpt><trkpt lat="44.0922071" lon="8.126715"><ele>75.0</ele><time>2026-05-03T11:52:08.923Z</time></trkpt><trkpt lat="44.0922675" lon="8.1269184"><ele>74.0</ele><time>2026-05-03T11:52:09.915Z</time></trkpt><trkpt lat="44.092319" lon="8.127102"><ele>73.0</ele><time>2026-05-03T11:52:10.922Z</time></trkpt><trkpt lat="44.0923595" lon="8.1272681"><ele>72.0</ele><time>2026-05-03T11:52:11.923Z</time></trkpt><trkpt lat="44.092393" lon="8.1274086"><ele>72.33333333333333</ele><time>2026-05-03T11:52:12.914Z</time></trkpt><trkpt lat="44.092425" lon="8.1275321"><ele>72.66666666666667</ele><time>2026-05-03T11:52:13.929Z</time></trkpt><trkpt lat="44.0924531" lon="8.1276406"><ele>73.0</ele><time>2026-05-03T11:52:14.914Z</time></trkpt><trkpt lat="44.0924785" lon="8.1277332"><ele>73.33333333333334</ele><time>2026-05-03T11:52:15.92Z</time></trkpt><trkpt lat="44.0924979" lon="8.1278286"><ele>73.66666666666667</ele><time>2026-05-03T11:52:16.915Z</time></trkpt><trkpt lat="44.0925258" lon="8.1279863"><ele>74.0</ele><time>2026-05-03T11:52:18.921Z</time></trkpt><trkpt lat="44.0925535" lon="8.1281038"><ele>74.0</ele><time>2026-05-03T11:52:20.917Z</time></trkpt><trkpt lat="44.0925582" lon="8.1282039"><ele>74.0</ele><time>2026-05-03T11:52:22.919Z</time></trkpt><trkpt lat="44.0924944" lon="8.1283414"><ele>74.0</ele><time>2026-05-03T11:52:24.912Z</time></trkpt><trkpt lat="44.0924387" lon="8.128432"><ele>74.0</ele><time>2026-05-03T11:52:25.924Z</time></trkpt><trkpt lat="44.0923844" lon="8.1285337"><ele>74.0</ele><time>2026-05-03T11:52:26.915Z</time></trkpt><trkpt lat="44.092324" lon="8.1286518"><ele>73.0</ele><time>2026-05-03T11:52:27.914Z</time></trkpt><trkpt lat="44.0922496" lon="8.1287756"><ele>72.0</ele><time>2026-05-03T11:52:28.909Z</time></trkpt><trkpt lat="44.0921771" lon="8.1289138"><ele>71.0</ele><time>2026-05-03T11:52:29.918Z</time></trkpt><trkpt lat="44.0921121" lon="8.1290624"><ele>70.0</ele><time>2026-05-03T11:52:30.918Z</time></trkpt><trkpt lat="44.0920562" lon="8.1292143"><ele>69.6</ele><time>2026-05-03T11:52:31.915Z</time></trkpt><trkpt lat="44.0920108" lon="8.129362"><ele>69.2</ele><time>2026-05-03T11:52:32.921Z</time></trkpt><trkpt lat="44.0919787" lon="8.1294998"><ele>68.8</ele><time>2026-05-03T11:52:33.914Z</time></trkpt><trkpt lat="44.0919531" lon="8.1296327"><ele>68.4</ele><time>2026-05-03T11:52:34.914Z</time></trkpt><trkpt lat="44.0919354" lon="8.1297529"><ele>68.0</ele><time>2026-05-03T11:52:35.931Z</time></trkpt><trkpt lat="44.0919189" lon="8.129839"><ele>68.0</ele><time>2026-05-03T11:52:36.915Z</time></trkpt><trkpt lat="44.0919013" lon="8.1299522"><ele>68.0</ele><time>2026-05-03T11:52:38.916Z</time></trkpt><trkpt lat="44.0918979" lon="8.1300698"><ele>68.0</ele><time>2026-05-03T11:52:46.919Z</time></trkpt><trkpt lat="44.091925" lon="8.1299291"><ele>68.0</ele><time>2026-05-03T11:53:01.912Z</time></trkpt><trkpt lat="44.0919305" lon="8.1298034"><ele>68.0</ele><time>2026-05-03T11:53:02.913Z</time></trkpt><trkpt lat="44.0919428" lon="8.1296449"><ele>68.0</ele><time>2026-05-03T11:53:03.909Z</time></trkpt><trkpt lat="44.0919708" lon="8.12948"><ele>68.0</ele><time>2026-05-03T11:53:04.908Z</time></trkpt><trkpt lat="44.0920148" lon="8.129318"><ele>68.0</ele><time>2026-05-03T11:53:05.923Z</time></trkpt><trkpt lat="44.0920733" lon="8.129169"><ele>68.0</ele><time>2026-05-03T11:53:06.917Z</time></trkpt><trkpt lat="44.0921452" lon="8.1290098"><ele>68.5</ele><time>2026-05-03T11:53:07.911Z</time></trkpt><trkpt lat="44.0922204" lon="8.1288516"><ele>69.0</ele><time>2026-05-03T11:53:08.917Z</time></trkpt><trkpt lat="44.0922985" lon="8.1287026"><ele>69.5</ele><time>2026-05-03T11:53:09.916Z</time></trkpt><trkpt lat="44.0923724" lon="8.1285667"><ele>70.0</ele><time>2026-05-03T11:53:10.913Z</time></trkpt><trkpt lat="44.0924395" lon="8.1284425"><ele>70.4</ele><time>2026-05-03T11:53:11.917Z</time></trkpt><trkpt lat="44.0925046" lon="8.128346"><ele>70.8</ele><time>2026-05-03T11:53:12.911Z</time></trkpt><trkpt lat="44.0925737" lon="8.1282689"><ele>71.2</ele><time>2026-05-03T11:53:13.913Z</time></trkpt><trkpt lat="44.0926596" lon="8.1282124"><ele>71.6</ele><time>2026-05-03T11:53:14.909Z</time></trkpt><trkpt lat="44.0927651" lon="8.1281691"><ele>72.0</ele><time>2026-05-03T11:53:15.918Z</time></trkpt><trkpt lat="44.092884" lon="8.128123"><ele>72.5</ele><time>2026-05-03T11:53:16.915Z</time></trkpt><trkpt lat="44.0930114" lon="8.1280792"><ele>73.0</ele><time>2026-05-03T11:53:17.915Z</time></trkpt><trkpt lat="44.0931507" lon="8.128046"><ele>73.5</ele><time>2026-05-03T11:53:18.913Z</time></trkpt><trkpt lat="44.093302" lon="8.1280096"><ele>74.0</ele><time>2026-05-03T11:53:19.905Z</time></trkpt><trkpt lat="44.0934583" lon="8.1279765"><ele>74.66666666666667</ele><time>2026-05-03T11:53:20.908Z</time></trkpt><trkpt lat="44.0936178" lon="8.1279504"><ele>75.33333333333333</ele><time>2026-05-03T11:53:21.909Z</time></trkpt><trkpt lat="44.0937749" lon="8.1279474"><ele>76.0</ele><time>2026-05-03T11:53:22.912Z</time></trkpt><trkpt lat="44.0939346" lon="8.127974"><ele>76.0</ele><time>2026-05-03T11:53:23.911Z</time></trkpt><trkpt lat="44.0940897" lon="8.1280114"><ele>76.0</ele><time>2026-05-03T11:53:24.919Z</time></trkpt><trkpt lat="44.0942585" lon="8.1280385"><ele>76.0</ele><time>2026-05-03T11:53:25.91Z</time></trkpt><trkpt lat="44.0944416" lon="8.1280292"><ele>76.0</ele><time>2026-05-03T11:53:26.905Z</time></trkpt><trkpt lat="44.0946283" lon="8.1279813"><ele>76.0</ele><time>2026-05-03T11:53:27.905Z</time></trkpt><trkpt lat="44.094811" lon="8.1279171"><ele>76.0</ele><time>2026-05-03T11:53:28.906Z</time></trkpt><trkpt lat="44.094983" lon="8.1278378"><ele>76.33333333333333</ele><time>2026-05-03T11:53:29.903Z</time></trkpt><trkpt lat="44.0951435" lon="8.1277563"><ele>76.66666666666667</ele><time>2026-05-03T11:53:30.909Z</time></trkpt><trkpt lat="44.0952957" lon="8.1276773"><ele>77.0</ele><time>2026-05-03T11:53:31.911Z</time></trkpt><trkpt lat="44.0954457" lon="8.1275868"><ele>77.0</ele><time>2026-05-03T11:53:32.921Z</time></trkpt><trkpt lat="44.0955885" lon="8.1274633"><ele>77.0</ele><time>2026-05-03T11:53:33.926Z</time></trkpt><trkpt lat="44.0957205" lon="8.1273258"><ele>77.0</ele><time>2026-05-03T11:53:34.921Z</time></trkpt><trkpt lat="44.0958481" lon="8.1271667"><ele>78.66666666666667</ele><time>2026-05-03T11:53:35.936Z</time></trkpt><trkpt lat="44.0959543" lon="8.1269792"><ele>80.33333333333333</ele><time>2026-05-03T11:53:36.915Z</time></trkpt><trkpt lat="44.0960625" lon="8.1267802"><ele>82.0</ele><time>2026-05-03T11:53:37.916Z</time></trkpt><trkpt lat="44.0961678" lon="8.126579"><ele>83.0</ele><time>2026-05-03T11:53:38.914Z</time></trkpt><trkpt lat="44.0962742" lon="8.1263772"><ele>84.0</ele><time>2026-05-03T11:53:39.919Z</time></trkpt><trkpt lat="44.0963847" lon="8.1261755"><ele>85.0</ele><time>2026-05-03T11:53:40.914Z</time></trkpt><trkpt lat="44.0965046" lon="8.1259685"><ele>84.66666666666666</ele><time>2026-05-03T11:53:41.923Z</time></trkpt><trkpt lat="44.0966211" lon="8.1257787"><ele>84.33333333333333</ele><time>2026-05-03T11:53:42.919Z</time></trkpt><trkpt lat="44.0967382" lon="8.1256028"><ele>84.0</ele><time>2026-05-03T11:53:43.92Z</time></trkpt><trkpt lat="44.0968582" lon="8.1254424"><ele>84.0</ele><time>2026-05-03T11:53:44.913Z</time></trkpt><trkpt lat="44.0969805" lon="8.1252947"><ele>84.0</ele><time>2026-05-03T11:53:45.921Z</time></trkpt><trkpt lat="44.0971092" lon="8.1251748"><ele>84.0</ele><time>2026-05-03T11:53:46.915Z</time></trkpt><trkpt lat="44.0972554" lon="8.1251111"><ele>84.0</ele><time>2026-05-03T11:53:47.917Z</time></trkpt><trkpt lat="44.0974164" lon="8.1251035"><ele>84.0</ele><time>2026-05-03T11:53:48.907Z</time></trkpt><trkpt lat="44.0975989" lon="8.1251333"><ele>84.0</ele><time>2026-05-03T11:53:49.905Z</time></trkpt><trkpt lat="44.0977553" lon="8.1251844"><ele>86.66666666666667</ele><time>2026-05-03T11:53:50.903Z</time></trkpt><trkpt lat="44.0979212" lon="8.125244"><ele>89.33333333333334</ele><time>2026-05-03T11:53:51.906Z</time></trkpt><trkpt lat="44.0980962" lon="8.1252974"><ele>92.0</ele><time>2026-05-03T11:53:52.909Z</time></trkpt><trkpt lat="44.0982767" lon="8.1253186"><ele>92.0</ele><time>2026-05-03T11:53:53.904Z</time></trkpt><trkpt lat="44.0984245" lon="8.1252844"><ele>92.0</ele><time>2026-05-03T11:53:54.915Z</time></trkpt><trkpt lat="44.0985716" lon="8.1252249"><ele>92.0</ele><time>2026-05-03T11:53:55.904Z</time></trkpt><trkpt lat="44.098706" lon="8.1251313"><ele>92.0</ele><time>2026-05-03T11:53:56.911Z</time></trkpt><trkpt lat="44.09884" lon="8.1250094"><ele>92.0</ele><time>2026-05-03T11:53:57.912Z</time></trkpt><trkpt lat="44.0989763" lon="8.1248525"><ele>92.0</ele><time>2026-05-03T11:53:58.914Z</time></trkpt><trkpt lat="44.0991108" lon="8.1246911"><ele>92.0</ele><time>2026-05-03T11:53:59.904Z</time></trkpt><trkpt lat="44.0992448" lon="8.1245392"><ele>92.0</ele><time>2026-05-03T11:54:00.907Z</time></trkpt><trkpt lat="44.0993775" lon="8.1243832"><ele>92.0</ele><time>2026-05-03T11:54:01.918Z</time></trkpt><trkpt lat="44.0995075" lon="8.1242137"><ele>96.0</ele><time>2026-05-03T11:54:02.911Z</time></trkpt><trkpt lat="44.0996282" lon="8.1240369"><ele>100.0</ele><time>2026-05-03T11:54:03.927Z</time></trkpt><trkpt lat="44.0997432" lon="8.1238774"><ele>104.0</ele><time>2026-05-03T11:54:04.909Z</time></trkpt><trkpt lat="44.0998586" lon="8.1237195"><ele>100.33333333333333</ele><time>2026-05-03T11:54:05.924Z</time></trkpt><trkpt lat="44.099983" lon="8.1235713"><ele>96.66666666666666</ele><time>2026-05-03T11:54:06.91Z</time></trkpt><trkpt lat="44.1001131" lon="8.1234324"><ele>93.0</ele><time>2026-05-03T11:54:07.916Z</time></trkpt><trkpt lat="44.100259" lon="8.1233135"><ele>95.33333333333334</ele><time>2026-05-03T11:54:08.913Z</time></trkpt><trkpt lat="44.1004109" lon="8.1232196"><ele>97.66666666666667</ele><time>2026-05-03T11:54:09.915Z</time></trkpt><trkpt lat="44.1005798" lon="8.1231556"><ele>100.0</ele><time>2026-05-03T11:54:10.914Z</time></trkpt><trkpt lat="44.1007617" lon="8.1231242"><ele>100.0</ele><time>2026-05-03T11:54:11.91Z</time></trkpt><trkpt lat="44.1009359" lon="8.1231252"><ele>100.0</ele><time>2026-05-03T11:54:12.922Z</time></trkpt><trkpt lat="44.101107" lon="8.1231692"><ele>100.0</ele><time>2026-05-03T11:54:13.921Z</time></trkpt><trkpt lat="44.1012575" lon="8.1232577"><ele>99.33333333333334</ele><time>2026-05-03T11:54:14.913Z</time></trkpt><trkpt lat="44.1013918" lon="8.1233697"><ele>98.66666666666666</ele><time>2026-05-03T11:54:15.911Z</time></trkpt><trkpt lat="44.1015175" lon="8.1234871"><ele>98.0</ele><time>2026-05-03T11:54:16.918Z</time></trkpt><trkpt lat="44.1016465" lon="8.1235867"><ele>97.66666666666666</ele><time>2026-05-03T11:54:17.906Z</time></trkpt><trkpt lat="44.101789" lon="8.1236541"><ele>97.33333333333334</ele><time>2026-05-03T11:54:18.923Z</time></trkpt><trkpt lat="44.1019427" lon="8.1236768"><ele>97.0</ele><time>2026-05-03T11:54:19.906Z</time></trkpt><trkpt lat="44.1020965" lon="8.1236784"><ele>97.0</ele><time>2026-05-03T11:54:20.914Z</time></trkpt><trkpt lat="44.1022515" lon="8.123687"><ele>97.0</ele><time>2026-05-03T11:54:21.911Z</time></trkpt><trkpt lat="44.102413" lon="8.1237012"><ele>97.0</ele><time>2026-05-03T11:54:22.913Z</time></trkpt><trkpt lat="44.1025717" lon="8.1237361"><ele>97.66666666666667</ele><time>2026-05-03T11:54:23.909Z</time></trkpt><trkpt lat="44.102723" lon="8.1237894"><ele>98.33333333333334</ele><time>2026-05-03T11:54:24.91Z</time></trkpt><trkpt lat="44.1028678" lon="8.1238561"><ele>99.0</ele><time>2026-05-03T11:54:25.923Z</time></trkpt><trkpt lat="44.1030038" lon="8.1239295"><ele>99.0</ele><time>2026-05-03T11:54:26.913Z</time></trkpt><trkpt lat="44.1031284" lon="8.1240142"><ele>99.0</ele><time>2026-05-03T11:54:27.91Z</time></trkpt><trkpt lat="44.103252" lon="8.1240978"><ele>99.0</ele><time>2026-05-03T11:54:28.916Z</time></trkpt><trkpt lat="44.1033733" lon="8.1241776"><ele>99.0</ele><time>2026-05-03T11:54:29.914Z</time></trkpt><trkpt lat="44.1034997" lon="8.1242648"><ele>101.0</ele><time>2026-05-03T11:54:30.905Z</time></trkpt><trkpt lat="44.1036213" lon="8.1243504"><ele>103.0</ele><time>2026-05-03T11:54:31.909Z</time></trkpt><trkpt lat="44.1037402" lon="8.1244374"><ele>105.0</ele><time>2026-05-03T11:54:32.912Z</time></trkpt><trkpt lat="44.1038605" lon="8.1245264"><ele>107.0</ele><time>2026-05-03T11:54:33.908Z</time></trkpt><trkpt lat="44.1039748" lon="8.1246115"><ele>106.25</ele><time>2026-05-03T11:54:34.913Z</time></trkpt><trkpt lat="44.104094" lon="8.1246791"><ele>105.5</ele><time>2026-05-03T11:54:35.919Z</time></trkpt><trkpt lat="44.1042165" lon="8.1247248"><ele>104.75</ele><time>2026-05-03T11:54:36.923Z</time></trkpt><trkpt lat="44.1043477" lon="8.1247262"><ele>104.0</ele><time>2026-05-03T11:54:37.915Z</time></trkpt><trkpt lat="44.104486" lon="8.1246892"><ele>104.0</ele><time>2026-05-03T11:54:38.917Z</time></trkpt><trkpt lat="44.1046333" lon="8.1246258"><ele>104.0</ele><time>2026-05-03T11:54:39.91Z</time></trkpt><trkpt lat="44.1047863" lon="8.1245709"><ele>104.0</ele><time>2026-05-03T11:54:40.918Z</time></trkpt><trkpt lat="44.1049209" lon="8.1245011"><ele>104.0</ele><time>2026-05-03T11:54:41.918Z</time></trkpt><trkpt lat="44.1050464" lon="8.1243896"><ele>104.0</ele><time>2026-05-03T11:54:42.915Z</time></trkpt><trkpt lat="44.1051589" lon="8.124251"><ele>104.0</ele><time>2026-05-03T11:54:43.912Z</time></trkpt><trkpt lat="44.1052778" lon="8.1241128"><ele>108.0</ele><time>2026-05-03T11:54:44.922Z</time></trkpt><trkpt lat="44.1053968" lon="8.1239836"><ele>112.0</ele><time>2026-05-03T11:54:45.916Z</time></trkpt><trkpt lat="44.1055171" lon="8.1238623"><ele>116.0</ele><time>2026-05-03T11:54:46.916Z</time></trkpt><trkpt lat="44.1056393" lon="8.1237371"><ele>113.0</ele><time>2026-05-03T11:54:47.919Z</time></trkpt><trkpt lat="44.1057631" lon="8.123609"><ele>110.0</ele><time>2026-05-03T11:54:48.914Z</time></trkpt><trkpt lat="44.1058872" lon="8.1234809"><ele>107.0</ele><time>2026-05-03T11:54:49.922Z</time></trkpt><trkpt lat="44.1060193" lon="8.1233526"><ele>109.0</ele><time>2026-05-03T11:54:50.907Z</time></trkpt><trkpt lat="44.1061464" lon="8.1232257"><ele>111.0</ele><time>2026-05-03T11:54:51.919Z</time></trkpt><trkpt lat="44.1062689" lon="8.123102"><ele>113.0</ele><time>2026-05-03T11:54:52.91Z</time></trkpt><trkpt lat="44.1063877" lon="8.1229836"><ele>113.0</ele><time>2026-05-03T11:54:53.917Z</time></trkpt><trkpt lat="44.1064998" lon="8.1228683"><ele>113.0</ele><time>2026-05-03T11:54:54.913Z</time></trkpt><trkpt lat="44.1066066" lon="8.1227589"><ele>113.0</ele><time>2026-05-03T11:54:55.911Z</time></trkpt><trkpt lat="44.1067125" lon="8.1226429"><ele>113.0</ele><time>2026-05-03T11:54:56.921Z</time></trkpt><trkpt lat="44.1068252" lon="8.1225315"><ele>112.25</ele><time>2026-05-03T11:54:57.91Z</time></trkpt><trkpt lat="44.1069401" lon="8.1224152"><ele>111.5</ele><time>2026-05-03T11:54:58.916Z</time></trkpt><trkpt lat="44.1070617" lon="8.1223024"><ele>110.75</ele><time>2026-05-03T11:54:59.926Z</time></trkpt><trkpt lat="44.1071863" lon="8.1221869"><ele>110.0</ele><time>2026-05-03T11:55:00.916Z</time></trkpt><trkpt lat="44.1073091" lon="8.122076"><ele>108.25</ele><time>2026-05-03T11:55:01.92Z</time></trkpt><trkpt lat="44.1074226" lon="8.121967"><ele>106.5</ele><time>2026-05-03T11:55:02.918Z</time></trkpt><trkpt lat="44.1075298" lon="8.1218563"><ele>104.75</ele><time>2026-05-03T11:55:03.914Z</time></trkpt><trkpt lat="44.1076343" lon="8.1217519"><ele>103.0</ele><time>2026-05-03T11:55:04.913Z</time></trkpt><trkpt lat="44.1077339" lon="8.1216521"><ele>103.25</ele><time>2026-05-03T11:55:05.92Z</time></trkpt><trkpt lat="44.1078219" lon="8.1215359"><ele>103.5</ele><time>2026-05-03T11:55:06.918Z</time></trkpt><trkpt lat="44.107898" lon="8.1214117"><ele>103.75</ele><time>2026-05-03T11:55:07.919Z</time></trkpt><trkpt lat="44.1079625" lon="8.1212607"><ele>104.0</ele><time>2026-05-03T11:55:08.915Z</time></trkpt><trkpt lat="44.108007" lon="8.1210935"><ele>104.0</ele><time>2026-05-03T11:55:09.913Z</time></trkpt><trkpt lat="44.1080345" lon="8.1209221"><ele>104.0</ele><time>2026-05-03T11:55:10.92Z</time></trkpt><trkpt lat="44.1080471" lon="8.1207335"><ele>104.0</ele><time>2026-05-03T11:55:11.918Z</time></trkpt><trkpt lat="44.108039" lon="8.1205647"><ele>104.0</ele><time>2026-05-03T11:55:12.918Z</time></trkpt><trkpt lat="44.1080174" lon="8.1204046"><ele>106.0</ele><time>2026-05-03T11:55:13.922Z</time></trkpt><trkpt lat="44.1079885" lon="8.1202501"><ele>108.0</ele><time>2026-05-03T11:55:14.922Z</time></trkpt><trkpt lat="44.1079611" lon="8.120093"><ele>110.0</ele><time>2026-05-03T11:55:15.918Z</time></trkpt><trkpt lat="44.1079459" lon="8.1199259"><ele>112.0</ele><time>2026-05-03T11:55:16.915Z</time></trkpt><trkpt lat="44.1079435" lon="8.1197509"><ele>113.25</ele><time>2026-05-03T11:55:17.912Z</time></trkpt><trkpt lat="44.1079584" lon="8.1195719"><ele>114.5</ele><time>2026-05-03T11:55:18.919Z</time></trkpt><trkpt lat="44.10798" lon="8.1193997"><ele>115.75</ele><time>2026-05-03T11:55:19.922Z</time></trkpt><trkpt lat="44.1079985" lon="8.119219"><ele>117.0</ele><time>2026-05-03T11:55:20.92Z</time></trkpt><trkpt lat="44.1080144" lon="8.1190295"><ele>119.0</ele><time>2026-05-03T11:55:21.919Z</time></trkpt><trkpt lat="44.1080333" lon="8.1188426"><ele>121.0</ele><time>2026-05-03T11:55:22.916Z</time></trkpt><trkpt lat="44.1080601" lon="8.1186541"><ele>123.0</ele><time>2026-05-03T11:55:23.915Z</time></trkpt><trkpt lat="44.108092" lon="8.1184823"><ele>125.0</ele><time>2026-05-03T11:55:24.93Z</time></trkpt><trkpt lat="44.1081355" lon="8.1183234"><ele>121.5</ele><time>2026-05-03T11:55:25.916Z</time></trkpt><trkpt lat="44.1081984" lon="8.1181682"><ele>118.0</ele><time>2026-05-03T11:55:26.912Z</time></trkpt><trkpt lat="44.1082723" lon="8.1180244"><ele>114.5</ele><time>2026-05-03T11:55:27.913Z</time></trkpt><trkpt lat="44.1083533" lon="8.117902"><ele>111.0</ele><time>2026-05-03T11:55:28.914Z</time></trkpt><trkpt lat="44.1084315" lon="8.1177918"><ele>111.0</ele><time>2026-05-03T11:55:29.913Z</time></trkpt><trkpt lat="44.1084999" lon="8.1176978"><ele>111.0</ele><time>2026-05-03T11:55:30.911Z</time></trkpt><trkpt lat="44.1085587" lon="8.1175972"><ele>111.0</ele><time>2026-05-03T11:55:31.91Z</time></trkpt><trkpt lat="44.1086146" lon="8.1174799"><ele>111.0</ele><time>2026-05-03T11:55:32.916Z</time></trkpt><trkpt lat="44.1086584" lon="8.1173534"><ele>111.0</ele><time>2026-05-03T11:55:33.913Z</time></trkpt><trkpt lat="44.108695" lon="8.117213"><ele>114.25</ele><time>2026-05-03T11:55:34.91Z</time></trkpt><trkpt lat="44.1087252" lon="8.1170526"><ele>117.5</ele><time>2026-05-03T11:55:35.91Z</time></trkpt><trkpt lat="44.1087597" lon="8.1168929"><ele>120.75</ele><time>2026-05-03T11:55:36.916Z</time></trkpt><trkpt lat="44.1088013" lon="8.1167307"><ele>124.0</ele><time>2026-05-03T11:55:37.92Z</time></trkpt><trkpt lat="44.1088596" lon="8.116572"><ele>124.25</ele><time>2026-05-03T11:55:38.917Z</time></trkpt><trkpt lat="44.1089324" lon="8.1164237"><ele>124.5</ele><time>2026-05-03T11:55:39.928Z</time></trkpt><trkpt lat="44.1090173" lon="8.1162925"><ele>124.75</ele><time>2026-05-03T11:55:40.913Z</time></trkpt><trkpt lat="44.109116" lon="8.1161644"><ele>125.0</ele><time>2026-05-03T11:55:41.914Z</time></trkpt><trkpt lat="44.1092142" lon="8.1160516"><ele>125.0</ele><time>2026-05-03T11:55:42.917Z</time></trkpt><trkpt lat="44.1093114" lon="8.1159367"><ele>125.0</ele><time>2026-05-03T11:55:43.91Z</time></trkpt><trkpt lat="44.1094109" lon="8.1158171"><ele>125.0</ele><time>2026-05-03T11:55:44.915Z</time></trkpt><trkpt lat="44.1095108" lon="8.115698"><ele>125.0</ele><time>2026-05-03T11:55:45.913Z</time></trkpt><trkpt lat="44.10961" lon="8.1155786"><ele>126.5</ele><time>2026-05-03T11:55:46.915Z</time></trkpt><trkpt lat="44.1097099" lon="8.1154703"><ele>128.0</ele><time>2026-05-03T11:55:47.922Z</time></trkpt><trkpt lat="44.1098162" lon="8.1153922"><ele>129.5</ele><time>2026-05-03T11:55:48.917Z</time></trkpt><trkpt lat="44.1099322" lon="8.1153327"><ele>131.0</ele><time>2026-05-03T11:55:49.906Z</time></trkpt><trkpt lat="44.1100481" lon="8.1152893"><ele>131.0</ele><time>2026-05-03T11:55:50.915Z</time></trkpt><trkpt lat="44.110171" lon="8.115228"><ele>131.0</ele><time>2026-05-03T11:55:51.913Z</time></trkpt><trkpt lat="44.1102954" lon="8.115166"><ele>131.0</ele><time>2026-05-03T11:55:52.914Z</time></trkpt><trkpt lat="44.1104299" lon="8.1151009"><ele>131.0</ele><time>2026-05-03T11:55:53.913Z</time></trkpt><trkpt lat="44.1105701" lon="8.1150297"><ele>131.0</ele><time>2026-05-03T11:55:54.91Z</time></trkpt><trkpt lat="44.1107042" lon="8.1149396"><ele>131.0</ele><time>2026-05-03T11:55:55.91Z</time></trkpt><trkpt lat="44.1108384" lon="8.11485"><ele>131.0</ele><time>2026-05-03T11:55:56.917Z</time></trkpt><trkpt lat="44.110962" lon="8.1147609"><ele>131.0</ele><time>2026-05-03T11:55:57.919Z</time></trkpt><trkpt lat="44.1110785" lon="8.1146781"><ele>135.25</ele><time>2026-05-03T11:55:58.913Z</time></trkpt><trkpt lat="44.1111894" lon="8.1146148"><ele>139.5</ele><time>2026-05-03T11:55:59.913Z</time></trkpt><trkpt lat="44.1113076" lon="8.1145951"><ele>143.75</ele><time>2026-05-03T11:56:00.913Z</time></trkpt><trkpt lat="44.1114245" lon="8.1146119"><ele>148.0</ele><time>2026-05-03T11:56:01.913Z</time></trkpt><trkpt lat="44.1115453" lon="8.1146393"><ele>145.0</ele><time>2026-05-03T11:56:02.911Z</time></trkpt><trkpt lat="44.111657" lon="8.1146747"><ele>142.0</ele><time>2026-05-03T11:56:03.918Z</time></trkpt><trkpt lat="44.1117721" lon="8.1147296"><ele>139.0</ele><time>2026-05-03T11:56:04.911Z</time></trkpt><trkpt lat="44.1118912" lon="8.1147904"><ele>136.0</ele><time>2026-05-03T11:56:05.916Z</time></trkpt><trkpt lat="44.112013" lon="8.1148674"><ele>133.0</ele><time>2026-05-03T11:56:06.911Z</time></trkpt><trkpt lat="44.1121371" lon="8.1149527"><ele>130.0</ele><time>2026-05-03T11:56:07.912Z</time></trkpt><trkpt lat="44.1122641" lon="8.1150424"><ele>127.0</ele><time>2026-05-03T11:56:08.918Z</time></trkpt><trkpt lat="44.1123811" lon="8.1151284"><ele>124.0</ele><time>2026-05-03T11:56:09.912Z</time></trkpt><trkpt lat="44.1124942" lon="8.1152136"><ele>124.0</ele><time>2026-05-03T11:56:10.92Z</time></trkpt><trkpt lat="44.1126096" lon="8.1153001"><ele>124.0</ele><time>2026-05-03T11:56:11.913Z</time></trkpt><trkpt lat="44.1127278" lon="8.1153802"><ele>124.0</ele><time>2026-05-03T11:56:12.919Z</time></trkpt><trkpt lat="44.1128421" lon="8.1154628"><ele>124.0</ele><time>2026-05-03T11:56:13.922Z</time></trkpt><trkpt lat="44.1129532" lon="8.1155459"><ele>124.0</ele><time>2026-05-03T11:56:14.916Z</time></trkpt><trkpt lat="44.1130602" lon="8.1156265"><ele>124.0</ele><time>2026-05-03T11:56:15.915Z</time></trkpt><trkpt lat="44.1131566" lon="8.1157195"><ele>124.0</ele><time>2026-05-03T11:56:16.916Z</time></trkpt><trkpt lat="44.1132418" lon="8.1158391"><ele>124.0</ele><time>2026-05-03T11:56:17.916Z</time></trkpt><trkpt lat="44.1133106" lon="8.1159853"><ele>123.6</ele><time>2026-05-03T11:56:18.917Z</time></trkpt><trkpt lat="44.1133473" lon="8.1161455"><ele>123.2</ele><time>2026-05-03T11:56:19.919Z</time></trkpt><trkpt lat="44.1133627" lon="8.1162965"><ele>122.79999999999998</ele><time>2026-05-03T11:56:20.924Z</time></trkpt><trkpt lat="44.1133633" lon="8.1164416"><ele>122.39999999999999</ele><time>2026-05-03T11:56:21.913Z</time></trkpt><trkpt lat="44.1133551" lon="8.116586"><ele>122.0</ele><time>2026-05-03T11:56:22.915Z</time></trkpt><trkpt lat="44.1133402" lon="8.1167194"><ele>121.83333333333333</ele><time>2026-05-03T11:56:23.916Z</time></trkpt><trkpt lat="44.1133342" lon="8.1168412"><ele>121.66666666666666</ele><time>2026-05-03T11:56:24.912Z</time></trkpt><trkpt lat="44.1133311" lon="8.1169433"><ele>121.5</ele><time>2026-05-03T11:56:25.926Z</time></trkpt><trkpt lat="44.1133296" lon="8.1170341"><ele>121.33333333333334</ele><time>2026-05-03T11:56:26.926Z</time></trkpt><trkpt lat="44.1133601" lon="8.117182"><ele>121.16666666666667</ele><time>2026-05-03T11:56:28.913Z</time></trkpt><trkpt lat="44.1134067" lon="8.1172536"><ele>121.0</ele><time>2026-05-03T11:56:29.907Z</time></trkpt><trkpt lat="44.1134696" lon="8.1173131"><ele>121.0</ele><time>2026-05-03T11:56:30.911Z</time></trkpt><trkpt lat="44.1135477" lon="8.117375"><ele>121.0</ele><time>2026-05-03T11:56:31.914Z</time></trkpt><trkpt lat="44.1136354" lon="8.1174491"><ele>121.0</ele><time>2026-05-03T11:56:32.908Z</time></trkpt><trkpt lat="44.1137367" lon="8.117526"><ele>121.0</ele><time>2026-05-03T11:56:33.926Z</time></trkpt><trkpt lat="44.1138483" lon="8.1176087"><ele>121.0</ele><time>2026-05-03T11:56:34.914Z</time></trkpt><trkpt lat="44.113967" lon="8.1176765"><ele>124.0</ele><time>2026-05-03T11:56:35.916Z</time></trkpt><trkpt lat="44.1140905" lon="8.1177446"><ele>127.0</ele><time>2026-05-03T11:56:36.914Z</time></trkpt><trkpt lat="44.1142091" lon="8.1178011"><ele>130.0</ele><time>2026-05-03T11:56:37.917Z</time></trkpt><trkpt lat="44.1143146" lon="8.1178399"><ele>133.0</ele><time>2026-05-03T11:56:38.911Z</time></trkpt><trkpt lat="44.1144061" lon="8.1178769"><ele>133.0</ele><time>2026-05-03T11:56:39.909Z</time></trkpt><trkpt lat="44.1144831" lon="8.1179176"><ele>133.0</ele><time>2026-05-03T11:56:40.914Z</time></trkpt><trkpt lat="44.1145606" lon="8.1179469"><ele>133.0</ele><time>2026-05-03T11:56:41.918Z</time></trkpt><trkpt lat="44.1146421" lon="8.1179844"><ele>133.0</ele><time>2026-05-03T11:56:42.911Z</time></trkpt><trkpt lat="44.1147227" lon="8.1180244"><ele>133.0</ele><time>2026-05-03T11:56:43.905Z</time></trkpt><trkpt lat="44.1147947" lon="8.1180451"><ele>133.0</ele><time>2026-05-03T11:56:44.907Z</time></trkpt><trkpt lat="44.1148759" lon="8.118034"><ele>132.0</ele><time>2026-05-03T11:56:45.912Z</time></trkpt><trkpt lat="44.1149569" lon="8.1179958"><ele>131.0</ele><time>2026-05-03T11:56:46.911Z</time></trkpt><trkpt lat="44.115033" lon="8.1179616"><ele>130.0</ele><time>2026-05-03T11:56:47.914Z</time></trkpt><trkpt lat="44.1151205" lon="8.1179384"><ele>129.0</ele><time>2026-05-03T11:56:48.915Z</time></trkpt><trkpt lat="44.1152136" lon="8.1179282"><ele>128.0</ele><time>2026-05-03T11:56:49.913Z</time></trkpt><trkpt lat="44.1153053" lon="8.1179276"><ele>127.0</ele><time>2026-05-03T11:56:50.912Z</time></trkpt><trkpt lat="44.115426" lon="8.1179279"><ele>127.0</ele><time>2026-05-03T11:56:51.926Z</time></trkpt><trkpt lat="44.1155793" lon="8.1179434"><ele>127.0</ele><time>2026-05-03T11:56:52.916Z</time></trkpt><trkpt lat="44.1157431" lon="8.1179857"><ele>127.0</ele><time>2026-05-03T11:56:53.911Z</time></trkpt><trkpt lat="44.1158914" lon="8.1180276"><ele>129.0</ele><time>2026-05-03T11:56:54.919Z</time></trkpt><trkpt lat="44.1160147" lon="8.1180658"><ele>131.0</ele><time>2026-05-03T11:56:55.913Z</time></trkpt><trkpt lat="44.1161221" lon="8.1180865"><ele>133.0</ele><time>2026-05-03T11:56:56.921Z</time></trkpt><trkpt lat="44.1162119" lon="8.1181114"><ele>135.0</ele><time>2026-05-03T11:56:57.918Z</time></trkpt><trkpt lat="44.1162984" lon="8.1181273"><ele>137.0</ele><time>2026-05-03T11:56:58.911Z</time></trkpt><trkpt lat="44.1163687" lon="8.1181381"><ele>137.0</ele><time>2026-05-03T11:56:59.917Z</time></trkpt><trkpt lat="44.1164408" lon="8.1181383"><ele>137.0</ele><time>2026-05-03T11:57:00.926Z</time></trkpt><trkpt lat="44.1165065" lon="8.1180972"><ele>137.0</ele><time>2026-05-03T11:57:01.913Z</time></trkpt><trkpt lat="44.1165746" lon="8.1180139"><ele>137.0</ele><time>2026-05-03T11:57:02.913Z</time></trkpt><trkpt lat="44.1166277" lon="8.1179426"><ele>137.0</ele><time>2026-05-03T11:57:03.911Z</time></trkpt><trkpt lat="44.1166987" lon="8.1179035"><ele>137.0</ele><time>2026-05-03T11:57:04.915Z</time></trkpt><trkpt lat="44.1167782" lon="8.1178914"><ele>139.16666666666666</ele><time>2026-05-03T11:57:05.926Z</time></trkpt><trkpt lat="44.1168527" lon="8.1179096"><ele>141.33333333333331</ele><time>2026-05-03T11:57:06.918Z</time></trkpt><trkpt lat="44.1169227" lon="8.117932"><ele>143.5</ele><time>2026-05-03T11:57:07.911Z</time></trkpt><trkpt lat="44.1170438" lon="8.1179313"><ele>145.66666666666666</ele><time>2026-05-03T11:57:09.909Z</time></trkpt><trkpt lat="44.1171105" lon="8.1178959"><ele>147.83333333333334</ele><time>2026-05-03T11:57:10.918Z</time></trkpt><trkpt lat="44.1171623" lon="8.1178125"><ele>150.0</ele><time>2026-05-03T11:57:11.912Z</time></trkpt><trkpt lat="44.117207" lon="8.1176757"><ele>150.0</ele><time>2026-05-03T11:57:12.917Z</time></trkpt><trkpt lat="44.1172534" lon="8.1175068"><ele>150.0</ele><time>2026-05-03T11:57:13.92Z</time></trkpt><trkpt lat="44.1173007" lon="8.1173582"><ele>150.0</ele><time>2026-05-03T11:57:14.914Z</time></trkpt><trkpt lat="44.1173452" lon="8.1172374"><ele>150.0</ele><time>2026-05-03T11:57:15.916Z</time></trkpt><trkpt lat="44.1173757" lon="8.1171241"><ele>150.0</ele><time>2026-05-03T11:57:16.914Z</time></trkpt><trkpt lat="44.1173945" lon="8.1170273"><ele>152.28571428571428</ele><time>2026-05-03T11:57:17.923Z</time></trkpt><trkpt lat="44.1174143" lon="8.1169344"><ele>154.57142857142856</ele><time>2026-05-03T11:57:18.913Z</time></trkpt><trkpt lat="44.1174464" lon="8.1168426"><ele>156.85714285714283</ele><time>2026-05-03T11:57:19.918Z</time></trkpt><trkpt lat="44.1175" lon="8.1167721"><ele>159.14285714285714</ele><time>2026-05-03T11:57:20.917Z</time></trkpt><trkpt lat="44.1175732" lon="8.1167322"><ele>161.42857142857144</ele><time>2026-05-03T11:57:21.921Z</time></trkpt><trkpt lat="44.1176447" lon="8.1167255"><ele>163.7142857142857</ele><time>2026-05-03T11:57:22.91Z</time></trkpt><trkpt lat="44.1177187" lon="8.1167612"><ele>166.0</ele><time>2026-05-03T11:57:23.911Z</time></trkpt><trkpt lat="44.117785" lon="8.1167933"><ele>166.0</ele><time>2026-05-03T11:57:24.922Z</time></trkpt><trkpt lat="44.1178562" lon="8.1168104"><ele>166.0</ele><time>2026-05-03T11:57:25.933Z</time></trkpt><trkpt lat="44.1179681" lon="8.1168133"><ele>166.0</ele><time>2026-05-03T11:57:27.923Z</time></trkpt><trkpt lat="44.1180635" lon="8.1167821"><ele>166.0</ele><time>2026-05-03T11:57:29.913Z</time></trkpt><trkpt lat="44.1181224" lon="8.1166785"><ele>166.0</ele><time>2026-05-03T11:57:31.91Z</time></trkpt><trkpt lat="44.1181065" lon="8.1165858"><ele>166.0</ele><time>2026-05-03T11:57:32.915Z</time></trkpt><trkpt lat="44.1180478" lon="8.1164536"><ele>163.66666666666669</ele><time>2026-05-03T11:57:34.92Z</time></trkpt><trkpt lat="44.1180124" lon="8.1163774"><ele>161.33333333333334</ele><time>2026-05-03T11:57:35.911Z</time></trkpt><trkpt lat="44.1179911" lon="8.1162916"><ele>159.0</ele><time>2026-05-03T11:57:36.914Z</time></trkpt><trkpt lat="44.1179961" lon="8.1161955"><ele>156.66666666666666</ele><time>2026-05-03T11:57:37.912Z</time></trkpt><trkpt lat="44.1180302" lon="8.1160915"><ele>154.33333333333331</ele><time>2026-05-03T11:57:38.907Z</time></trkpt><trkpt lat="44.1180915" lon="8.1160067"><ele>152.0</ele><time>2026-05-03T11:57:39.91Z</time></trkpt><trkpt lat="44.1181751" lon="8.1159403"><ele>155.6</ele><time>2026-05-03T11:57:40.922Z</time></trkpt><trkpt lat="44.1182771" lon="8.1158963"><ele>159.2</ele><time>2026-05-03T11:57:41.921Z</time></trkpt><trkpt lat="44.1183736" lon="8.1158744"><ele>162.8</ele><time>2026-05-03T11:57:42.931Z</time></trkpt><trkpt lat="44.1184814" lon="8.115868"><ele>166.4</ele><time>2026-05-03T11:57:43.918Z</time></trkpt><trkpt lat="44.1185809" lon="8.115875"><ele>170.0</ele><time>2026-05-03T11:57:44.913Z</time></trkpt><trkpt lat="44.1186737" lon="8.1158989"><ele>170.0</ele><time>2026-05-03T11:57:45.934Z</time></trkpt><trkpt lat="44.1187711" lon="8.115931"><ele>170.0</ele><time>2026-05-03T11:57:46.922Z</time></trkpt><trkpt lat="44.1188685" lon="8.115981"><ele>170.0</ele><time>2026-05-03T11:57:47.925Z</time></trkpt><trkpt lat="44.1189658" lon="8.1160274"><ele>170.0</ele><time>2026-05-03T11:57:48.916Z</time></trkpt><trkpt lat="44.1190678" lon="8.116084"><ele>170.0</ele><time>2026-05-03T11:57:49.93Z</time></trkpt><trkpt lat="44.1191761" lon="8.1161502"><ele>170.75</ele><time>2026-05-03T11:57:50.924Z</time></trkpt><trkpt lat="44.119296" lon="8.1162347"><ele>171.5</ele><time>2026-05-03T11:57:51.919Z</time></trkpt><trkpt lat="44.1194182" lon="8.1163268"><ele>172.25</ele><time>2026-05-03T11:57:52.919Z</time></trkpt><trkpt lat="44.1195221" lon="8.1164099"><ele>173.0</ele><time>2026-05-03T11:57:53.918Z</time></trkpt><trkpt lat="44.1196094" lon="8.1164941"><ele>177.0</ele><time>2026-05-03T11:57:54.919Z</time></trkpt><trkpt lat="44.1196829" lon="8.1165755"><ele>181.0</ele><time>2026-05-03T11:57:55.915Z</time></trkpt><trkpt lat="44.1197534" lon="8.1166434"><ele>185.0</ele><time>2026-05-03T11:57:56.913Z</time></trkpt><trkpt lat="44.1198394" lon="8.1166824"><ele>189.0</ele><time>2026-05-03T11:57:57.922Z</time></trkpt><trkpt lat="44.1199533" lon="8.1167034"><ele>193.0</ele><time>2026-05-03T11:57:58.919Z</time></trkpt><trkpt lat="44.1200678" lon="8.1167192"><ele>192.99999999999997</ele><time>2026-05-03T11:57:59.91Z</time></trkpt><trkpt lat="44.1201673" lon="8.1167435"><ele>193.0</ele><time>2026-05-03T11:58:00.919Z</time></trkpt><trkpt lat="44.1202486" lon="8.1167699"><ele>193.0</ele><time>2026-05-03T11:58:01.911Z</time></trkpt><trkpt lat="44.1203066" lon="8.1168179"><ele>193.0</ele><time>2026-05-03T11:58:02.913Z</time></trkpt><trkpt lat="44.1203825" lon="8.1169017"><ele>192.99999999999997</ele><time>2026-05-03T11:58:04.915Z</time></trkpt><trkpt lat="44.1204102" lon="8.1169909"><ele>193.0</ele><time>2026-05-03T11:58:06.912Z</time></trkpt><trkpt lat="44.1204307" lon="8.1170841"><ele>192.99999999999997</ele><time>2026-05-03T11:58:08.913Z</time></trkpt><trkpt lat="44.1204652" lon="8.1171714"><ele>193.0</ele><time>2026-05-03T11:58:10.913Z</time></trkpt><trkpt lat="44.1205443" lon="8.1172245"><ele>193.0</ele><time>2026-05-03T11:58:12.916Z</time></trkpt><trkpt lat="44.1206161" lon="8.1172089"><ele>193.0</ele><time>2026-05-03T11:58:13.914Z</time></trkpt><trkpt lat="44.1207026" lon="8.1171582"><ele>192.99999999999997</ele><time>2026-05-03T11:58:14.914Z</time></trkpt><trkpt lat="44.1207982" lon="8.1170702"><ele>193.0</ele><time>2026-05-03T11:58:15.917Z</time></trkpt><trkpt lat="44.1208843" lon="8.1169568"><ele>193.49999999999997</ele><time>2026-05-03T11:58:16.912Z</time></trkpt><trkpt lat="44.1209509" lon="8.1168351"><ele>194.0</ele><time>2026-05-03T11:58:17.91Z</time></trkpt><trkpt lat="44.1209992" lon="8.1167176"><ele>194.5</ele><time>2026-05-03T11:58:18.907Z</time></trkpt><trkpt lat="44.1210209" lon="8.1166182"><ele>195.0</ele><time>2026-05-03T11:58:19.909Z</time></trkpt><trkpt lat="44.121042" lon="8.1165133"><ele>195.49999999999997</ele><time>2026-05-03T11:58:20.911Z</time></trkpt><trkpt lat="44.1210653" lon="8.1164141"><ele>196.0</ele><time>2026-05-03T11:58:21.91Z</time></trkpt><trkpt lat="44.1210872" lon="8.116327"><ele>191.66666666666666</ele><time>2026-05-03T11:58:22.912Z</time></trkpt><trkpt lat="44.1211614" lon="8.116205"><ele>187.33333333333331</ele><time>2026-05-03T11:58:24.916Z</time></trkpt><trkpt lat="44.1212264" lon="8.1161652"><ele>183.0</ele><time>2026-05-03T11:58:25.914Z</time></trkpt><trkpt lat="44.1212994" lon="8.1161524"><ele>178.66666666666666</ele><time>2026-05-03T11:58:26.929Z</time></trkpt><trkpt lat="44.1213809" lon="8.1161616"><ele>174.33333333333331</ele><time>2026-05-03T11:58:27.912Z</time></trkpt><trkpt lat="44.1214681" lon="8.1161693"><ele>170.0</ele><time>2026-05-03T11:58:28.93Z</time></trkpt><trkpt lat="44.1215629" lon="8.1161634"><ele>176.0</ele><time>2026-05-03T11:58:29.923Z</time></trkpt><trkpt lat="44.1216654" lon="8.1161417"><ele>182.0</ele><time>2026-05-03T11:58:30.923Z</time></trkpt><trkpt lat="44.1217607" lon="8.1160858"><ele>188.0</ele><time>2026-05-03T11:58:31.93Z</time></trkpt><trkpt lat="44.1218285" lon="8.1159895"><ele>194.0</ele><time>2026-05-03T11:58:32.924Z</time></trkpt><trkpt lat="44.121878" lon="8.1158683"><ele>200.0</ele><time>2026-05-03T11:58:33.917Z</time></trkpt><trkpt lat="44.1219066" lon="8.1157469"><ele>197.16666666666669</ele><time>2026-05-03T11:58:34.919Z</time></trkpt><trkpt lat="44.1219212" lon="8.1156433"><ele>194.33333333333334</ele><time>2026-05-03T11:58:35.925Z</time></trkpt><trkpt lat="44.1219319" lon="8.1155464"><ele>191.5</ele><time>2026-05-03T11:58:36.919Z</time></trkpt><trkpt lat="44.1219407" lon="8.1154568"><ele>188.66666666666669</ele><time>2026-05-03T11:58:37.915Z</time></trkpt><trkpt lat="44.1219591" lon="8.1153546"><ele>185.83333333333334</ele><time>2026-05-03T11:58:38.922Z</time></trkpt><trkpt lat="44.1219892" lon="8.1152421"><ele>183.0</ele><time>2026-05-03T11:58:39.92Z</time></trkpt><trkpt lat="44.1220266" lon="8.1151287"><ele>183.0</ele><time>2026-05-03T11:58:40.923Z</time></trkpt><trkpt lat="44.1220817" lon="8.1150267"><ele>183.0</ele><time>2026-05-03T11:58:41.914Z</time></trkpt><trkpt lat="44.1221584" lon="8.1149385"><ele>183.0</ele><time>2026-05-03T11:58:42.917Z</time></trkpt><trkpt lat="44.1222526" lon="8.1148723"><ele>183.0</ele><time>2026-05-03T11:58:43.922Z</time></trkpt><trkpt lat="44.122354" lon="8.1148401"><ele>183.0</ele><time>2026-05-03T11:58:44.922Z</time></trkpt><trkpt lat="44.1224495" lon="8.1148253"><ele>182.4</ele><time>2026-05-03T11:58:45.922Z</time></trkpt><trkpt lat="44.1225522" lon="8.1148449"><ele>181.8</ele><time>2026-05-03T11:58:46.913Z</time></trkpt><trkpt lat="44.1226565" lon="8.1148748"><ele>181.2</ele><time>2026-05-03T11:58:47.916Z</time></trkpt><trkpt lat="44.1227667" lon="8.1149121"><ele>180.6</ele><time>2026-05-03T11:58:48.917Z</time></trkpt><trkpt lat="44.1228679" lon="8.1149573"><ele>180.0</ele><time>2026-05-03T11:58:49.929Z</time></trkpt><trkpt lat="44.1229548" lon="8.1150043"><ele>185.66666666666666</ele><time>2026-05-03T11:58:50.922Z</time></trkpt><trkpt lat="44.1230391" lon="8.1150435"><ele>191.33333333333331</ele><time>2026-05-03T11:58:51.909Z</time></trkpt><trkpt lat="44.123116" lon="8.115071"><ele>197.0</ele><time>2026-05-03T11:58:52.915Z</time></trkpt><trkpt lat="44.1231965" lon="8.1150811"><ele>202.66666666666666</ele><time>2026-05-03T11:58:53.925Z</time></trkpt><trkpt lat="44.1232668" lon="8.1150713"><ele>208.33333333333331</ele><time>2026-05-03T11:58:54.921Z</time></trkpt><trkpt lat="44.1233442" lon="8.1150338"><ele>214.0</ele><time>2026-05-03T11:58:55.923Z</time></trkpt><trkpt lat="44.1234119" lon="8.1149728"><ele>214.99999999999997</ele><time>2026-05-03T11:58:56.919Z</time></trkpt><trkpt lat="44.1234818" lon="8.1149084"><ele>216.0</ele><time>2026-05-03T11:58:57.919Z</time></trkpt><trkpt lat="44.1235579" lon="8.1148209"><ele>217.0</ele><time>2026-05-03T11:58:58.916Z</time></trkpt><trkpt lat="44.1236294" lon="8.1147458"><ele>218.0</ele><time>2026-05-03T11:58:59.915Z</time></trkpt><trkpt lat="44.1236959" lon="8.114693"><ele>218.99999999999997</ele><time>2026-05-03T11:59:00.915Z</time></trkpt><trkpt lat="44.1237696" lon="8.1146348"><ele>220.0</ele><time>2026-05-03T11:59:01.916Z</time></trkpt><trkpt lat="44.1238379" lon="8.114592"><ele>217.7142857142857</ele><time>2026-05-03T11:59:02.921Z</time></trkpt><trkpt lat="44.1239108" lon="8.1145806"><ele>215.42857142857142</ele><time>2026-05-03T11:59:03.924Z</time></trkpt><trkpt lat="44.123975" lon="8.1145872"><ele>213.14285714285714</ele><time>2026-05-03T11:59:04.915Z</time></trkpt><trkpt lat="44.1240399" lon="8.1146043"><ele>210.85714285714283</ele><time>2026-05-03T11:59:05.923Z</time></trkpt><trkpt lat="44.1241034" lon="8.11462"><ele>208.57142857142858</ele><time>2026-05-03T11:59:06.92Z</time></trkpt><trkpt lat="44.1241781" lon="8.1146114"><ele>206.28571428571428</ele><time>2026-05-03T11:59:07.921Z</time></trkpt><trkpt lat="44.1242505" lon="8.1145798"><ele>204.0</ele><time>2026-05-03T11:59:08.915Z</time></trkpt><trkpt lat="44.1243261" lon="8.1145079"><ele>204.0</ele><time>2026-05-03T11:59:09.918Z</time></trkpt><trkpt lat="44.1244015" lon="8.114426"><ele>204.0</ele><time>2026-05-03T11:59:10.914Z</time></trkpt><trkpt lat="44.1244821" lon="8.1143612"><ele>204.0</ele><time>2026-05-03T11:59:11.914Z</time></trkpt><trkpt lat="44.1245569" lon="8.1142992"><ele>204.0</ele><time>2026-05-03T11:59:12.92Z</time></trkpt><trkpt lat="44.1246291" lon="8.1142423"><ele>204.0</ele><time>2026-05-03T11:59:13.909Z</time></trkpt><trkpt lat="44.1247058" lon="8.1141936"><ele>204.0</ele><time>2026-05-03T11:59:14.914Z</time></trkpt><trkpt lat="44.1247846" lon="8.1141595"><ele>204.0</ele><time>2026-05-03T11:59:15.915Z</time></trkpt><trkpt lat="44.1248725" lon="8.1141419"><ele>204.0</ele><time>2026-05-03T11:59:16.916Z</time></trkpt><trkpt lat="44.1249797" lon="8.1141316"><ele>204.0</ele><time>2026-05-03T11:59:17.915Z</time></trkpt><trkpt lat="44.1250915" lon="8.1141263"><ele>204.0</ele><time>2026-05-03T11:59:18.929Z</time></trkpt><trkpt lat="44.1252047" lon="8.1141256"><ele>204.0</ele><time>2026-05-03T11:59:19.922Z</time></trkpt><trkpt lat="44.1253168" lon="8.1141153"><ele>207.2</ele><time>2026-05-03T11:59:20.921Z</time></trkpt><trkpt lat="44.1254289" lon="8.1141118"><ele>210.39999999999998</ele><time>2026-05-03T11:59:21.917Z</time></trkpt><trkpt lat="44.1255251" lon="8.1141111"><ele>213.6</ele><time>2026-05-03T11:59:22.914Z</time></trkpt><trkpt lat="44.1256305" lon="8.1141197"><ele>216.8</ele><time>2026-05-03T11:59:23.918Z</time></trkpt><trkpt lat="44.1257351" lon="8.1141265"><ele>220.0</ele><time>2026-05-03T11:59:24.918Z</time></trkpt><trkpt lat="44.1258376" lon="8.1141478"><ele>222.49999999999997</ele><time>2026-05-03T11:59:25.916Z</time></trkpt><trkpt lat="44.1259257" lon="8.1141763"><ele>225.0</ele><time>2026-05-03T11:59:26.915Z</time></trkpt><trkpt lat="44.1260061" lon="8.114214"><ele>227.5</ele><time>2026-05-03T11:59:27.924Z</time></trkpt><trkpt lat="44.1260766" lon="8.1142558"><ele>230.0</ele><time>2026-05-03T11:59:28.915Z</time></trkpt><trkpt lat="44.1261383" lon="8.1142996"><ele>232.49999999999997</ele><time>2026-05-03T11:59:29.924Z</time></trkpt><trkpt lat="44.126205" lon="8.114342"><ele>235.0</ele><time>2026-05-03T11:59:30.927Z</time></trkpt><trkpt lat="44.1262665" lon="8.1143752"><ele>235.0</ele><time>2026-05-03T11:59:31.931Z</time></trkpt><trkpt lat="44.1263717" lon="8.1144125"><ele>235.0</ele><time>2026-05-03T11:59:33.915Z</time></trkpt><trkpt lat="44.1264871" lon="8.1143743"><ele>235.0</ele><time>2026-05-03T11:59:35.921Z</time></trkpt><trkpt lat="44.1265368" lon="8.1142987"><ele>235.0</ele><time>2026-05-03T11:59:36.916Z</time></trkpt><trkpt lat="44.1265591" lon="8.1141978"><ele>235.0</ele><time>2026-05-03T11:59:37.924Z</time></trkpt><trkpt lat="44.1265539" lon="8.114089"><ele>230.57142857142856</ele><time>2026-05-03T11:59:38.93Z</time></trkpt><trkpt lat="44.1265167" lon="8.1139849"><ele>226.1428571428571</ele><time>2026-05-03T11:59:39.925Z</time></trkpt><trkpt lat="44.1264792" lon="8.1139025"><ele>221.71428571428572</ele><time>2026-05-03T11:59:40.921Z</time></trkpt><trkpt lat="44.1264399" lon="8.1138225"><ele>217.28571428571428</ele><time>2026-05-03T11:59:41.918Z</time></trkpt><trkpt lat="44.1264004" lon="8.1137354"><ele>212.85714285714286</ele><time>2026-05-03T11:59:42.917Z</time></trkpt><trkpt lat="44.1263671" lon="8.113651"><ele>208.42857142857144</ele><time>2026-05-03T11:59:43.921Z</time></trkpt><trkpt lat="44.1263468" lon="8.1135442"><ele>204.0</ele><time>2026-05-03T11:59:44.909Z</time></trkpt><trkpt lat="44.126343" lon="8.1134285"><ele>204.0</ele><time>2026-05-03T11:59:45.913Z</time></trkpt><trkpt lat="44.1263554" lon="8.1133182"><ele>204.0</ele><time>2026-05-03T11:59:46.915Z</time></trkpt><trkpt lat="44.1263805" lon="8.1132179"><ele>204.0</ele><time>2026-05-03T11:59:47.914Z</time></trkpt><trkpt lat="44.1264202" lon="8.1131135"><ele>204.0</ele><time>2026-05-03T11:59:48.923Z</time></trkpt><trkpt lat="44.1264719" lon="8.1130078"><ele>204.0</ele><time>2026-05-03T11:59:49.921Z</time></trkpt><trkpt lat="44.126531" lon="8.1129053"><ele>204.0</ele><time>2026-05-03T11:59:50.917Z</time></trkpt><trkpt lat="44.1265923" lon="8.1128083"><ele>210.79999999999998</ele><time>2026-05-03T11:59:51.916Z</time></trkpt><trkpt lat="44.1266588" lon="8.1127157"><ele>217.6</ele><time>2026-05-03T11:59:52.912Z</time></trkpt><trkpt lat="44.1267311" lon="8.1126113"><ele>224.4</ele><time>2026-05-03T11:59:53.92Z</time></trkpt><trkpt lat="44.1268156" lon="8.1125272"><ele>231.2</ele><time>2026-05-03T11:59:54.922Z</time></trkpt><trkpt lat="44.1269118" lon="8.1124644"><ele>238.0</ele><time>2026-05-03T11:59:55.918Z</time></trkpt><trkpt lat="44.1270126" lon="8.1124066"><ele>234.5</ele><time>2026-05-03T11:59:56.919Z</time></trkpt><trkpt lat="44.1271251" lon="8.1123625"><ele>231.0</ele><time>2026-05-03T11:59:57.924Z</time></trkpt><trkpt lat="44.127242" lon="8.112346"><ele>227.5</ele><time>2026-05-03T11:59:58.93Z</time></trkpt><trkpt lat="44.1273553" lon="8.112357"><ele>224.0</ele><time>2026-05-03T11:59:59.914Z</time></trkpt><trkpt lat="44.127458" lon="8.1124042"><ele>230.79999999999998</ele><time>2026-05-03T12:00:00.913Z</time></trkpt><trkpt lat="44.1275464" lon="8.1124738"><ele>237.59999999999997</ele><time>2026-05-03T12:00:01.915Z</time></trkpt><trkpt lat="44.1276274" lon="8.1125429"><ele>244.4</ele><time>2026-05-03T12:00:02.92Z</time></trkpt><trkpt lat="44.1277152" lon="8.1126086"><ele>251.2</ele><time>2026-05-03T12:00:03.921Z</time></trkpt><trkpt lat="44.1278035" lon="8.1126508"><ele>258.0</ele><time>2026-05-03T12:00:04.904Z</time></trkpt><trkpt lat="44.1278904" lon="8.1126559"><ele>258.0</ele><time>2026-05-03T12:00:05.916Z</time></trkpt><trkpt lat="44.1279886" lon="8.1126093"><ele>258.0</ele><time>2026-05-03T12:00:06.916Z</time></trkpt><trkpt lat="44.1281135" lon="8.112488"><ele>258.0</ele><time>2026-05-03T12:00:07.913Z</time></trkpt><trkpt lat="44.128244" lon="8.1124069"><ele>258.0</ele><time>2026-05-03T12:00:08.908Z</time></trkpt><trkpt lat="44.1283619" lon="8.1123725"><ele>252.66666666666666</ele><time>2026-05-03T12:00:09.911Z</time></trkpt><trkpt lat="44.12846" lon="8.1123591"><ele>247.33333333333331</ele><time>2026-05-03T12:00:10.916Z</time></trkpt><trkpt lat="44.1285579" lon="8.1123387"><ele>242.0</ele><time>2026-05-03T12:00:11.906Z</time></trkpt><trkpt lat="44.1286376" lon="8.1123232"><ele>236.66666666666666</ele><time>2026-05-03T12:00:12.915Z</time></trkpt><trkpt lat="44.1287083" lon="8.112288"><ele>231.33333333333331</ele><time>2026-05-03T12:00:13.92Z</time></trkpt><trkpt lat="44.1287648" lon="8.112222"><ele>226.0</ele><time>2026-05-03T12:00:14.915Z</time></trkpt><trkpt lat="44.1287999" lon="8.1121246"><ele>225.99999999999997</ele><time>2026-05-03T12:00:15.915Z</time></trkpt><trkpt lat="44.128831" lon="8.1120291"><ele>226.0</ele><time>2026-05-03T12:00:16.912Z</time></trkpt><trkpt lat="44.1288509" lon="8.1119404"><ele>226.0</ele><time>2026-05-03T12:00:17.919Z</time></trkpt><trkpt lat="44.1288697" lon="8.1118538"><ele>226.0</ele><time>2026-05-03T12:00:18.925Z</time></trkpt><trkpt lat="44.1289249" lon="8.1117161"><ele>225.99999999999997</ele><time>2026-05-03T12:00:20.922Z</time></trkpt><trkpt lat="44.1289795" lon="8.1116644"><ele>226.0</ele><time>2026-05-03T12:00:21.922Z</time></trkpt><trkpt lat="44.1290564" lon="8.1116559"><ele>231.25</ele><time>2026-05-03T12:00:22.931Z</time></trkpt><trkpt lat="44.1291448" lon="8.111678"><ele>236.5</ele><time>2026-05-03T12:00:23.919Z</time></trkpt><trkpt lat="44.1292366" lon="8.1117054"><ele>241.75</ele><time>2026-05-03T12:00:24.919Z</time></trkpt><trkpt lat="44.129371" lon="8.1117485"><ele>247.0</ele><time>2026-05-03T12:00:25.912Z</time></trkpt><trkpt lat="44.129509" lon="8.1118175"><ele>247.0</ele><time>2026-05-03T12:00:26.917Z</time></trkpt><trkpt lat="44.1296387" lon="8.1118882"><ele>247.0</ele><time>2026-05-03T12:00:27.927Z</time></trkpt><trkpt lat="44.1297441" lon="8.1119464"><ele>247.0</ele><time>2026-05-03T12:00:28.921Z</time></trkpt><trkpt lat="44.1298292" lon="8.1120204"><ele>247.0</ele><time>2026-05-03T12:00:29.922Z</time></trkpt><trkpt lat="44.1298877" lon="8.1121152"><ele>247.0</ele><time>2026-05-03T12:00:30.921Z</time></trkpt><trkpt lat="44.1299449" lon="8.1121969"><ele>247.2</ele><time>2026-05-03T12:00:31.916Z</time></trkpt><trkpt lat="44.1300054" lon="8.1122625"><ele>247.39999999999998</ele><time>2026-05-03T12:00:32.916Z</time></trkpt><trkpt lat="44.1301046" lon="8.1123334"><ele>247.60000000000002</ele><time>2026-05-03T12:00:34.921Z</time></trkpt><trkpt lat="44.1302287" lon="8.1123278"><ele>247.8</ele><time>2026-05-03T12:00:36.912Z</time></trkpt><trkpt lat="44.1302866" lon="8.1122866"><ele>248.0</ele><time>2026-05-03T12:00:37.924Z</time></trkpt><trkpt lat="44.1303503" lon="8.1122152"><ele>248.0</ele><time>2026-05-03T12:00:38.919Z</time></trkpt><trkpt lat="44.1304282" lon="8.1121401"><ele>248.0</ele><time>2026-05-03T12:00:39.917Z</time></trkpt><trkpt lat="44.1305102" lon="8.1120739"><ele>248.0</ele><time>2026-05-03T12:00:40.92Z</time></trkpt><trkpt lat="44.1305988" lon="8.1120345"><ele>248.0</ele><time>2026-05-03T12:00:41.915Z</time></trkpt><trkpt lat="44.1306987" lon="8.1119947"><ele>248.0</ele><time>2026-05-03T12:00:42.923Z</time></trkpt><trkpt lat="44.1307994" lon="8.1119554"><ele>248.50000000000003</ele><time>2026-05-03T12:00:43.919Z</time></trkpt><trkpt lat="44.1308858" lon="8.1119344"><ele>249.0</ele><time>2026-05-03T12:00:44.916Z</time></trkpt><trkpt lat="44.1309732" lon="8.111947"><ele>249.5</ele><time>2026-05-03T12:00:45.922Z</time></trkpt><trkpt lat="44.1310419" lon="8.1119714"><ele>250.0</ele><time>2026-05-03T12:00:46.926Z</time></trkpt><trkpt lat="44.1311088" lon="8.1120051"><ele>250.50000000000003</ele><time>2026-05-03T12:00:47.918Z</time></trkpt><trkpt lat="44.1311747" lon="8.1120447"><ele>251.0</ele><time>2026-05-03T12:00:48.916Z</time></trkpt><trkpt lat="44.1312877" lon="8.1120433"><ele>251.00000000000003</ele><time>2026-05-03T12:00:50.924Z</time></trkpt><trkpt lat="44.1313513" lon="8.1120003"><ele>251.0</ele><time>2026-05-03T12:00:51.916Z</time></trkpt><trkpt lat="44.1314081" lon="8.1119289"><ele>251.0</ele><time>2026-05-03T12:00:52.918Z</time></trkpt><trkpt lat="44.1314647" lon="8.1118483"><ele>251.0</ele><time>2026-05-03T12:00:53.921Z</time></trkpt><trkpt lat="44.1315231" lon="8.1117597"><ele>251.00000000000003</ele><time>2026-05-03T12:00:54.929Z</time></trkpt><trkpt lat="44.1315873" lon="8.1116679"><ele>251.0</ele><time>2026-05-03T12:00:55.921Z</time></trkpt><trkpt lat="44.1316741" lon="8.1115828"><ele>250.75</ele><time>2026-05-03T12:00:56.923Z</time></trkpt><trkpt lat="44.1317811" lon="8.1115026"><ele>250.5</ele><time>2026-05-03T12:00:57.922Z</time></trkpt><trkpt lat="44.1318949" lon="8.1114394"><ele>250.25</ele><time>2026-05-03T12:00:58.917Z</time></trkpt><trkpt lat="44.1320121" lon="8.1113948"><ele>250.0</ele><time>2026-05-03T12:00:59.927Z</time></trkpt><trkpt lat="44.13214" lon="8.1113654"><ele>250.0</ele><time>2026-05-03T12:01:00.919Z</time></trkpt><trkpt lat="44.1322665" lon="8.1113451"><ele>250.0</ele><time>2026-05-03T12:01:01.92Z</time></trkpt><trkpt lat="44.1323769" lon="8.1113327"><ele>250.0</ele><time>2026-05-03T12:01:02.929Z</time></trkpt><trkpt lat="44.1324723" lon="8.1113177"><ele>250.0</ele><time>2026-05-03T12:01:03.922Z</time></trkpt><trkpt lat="44.1325589" lon="8.1113015"><ele>250.0</ele><time>2026-05-03T12:01:04.916Z</time></trkpt><trkpt lat="44.1326348" lon="8.1112923"><ele>252.8</ele><time>2026-05-03T12:01:05.914Z</time></trkpt><trkpt lat="44.1327132" lon="8.1112845"><ele>255.6</ele><time>2026-05-03T12:01:06.926Z</time></trkpt><trkpt lat="44.1327992" lon="8.111288"><ele>258.4</ele><time>2026-05-03T12:01:07.922Z</time></trkpt><trkpt lat="44.1328912" lon="8.1112952"><ele>261.2</ele><time>2026-05-03T12:01:08.919Z</time></trkpt><trkpt lat="44.1330022" lon="8.1113262"><ele>264.0</ele><time>2026-05-03T12:01:09.93Z</time></trkpt><trkpt lat="44.1331588" lon="8.111389"><ele>265.6666666666667</ele><time>2026-05-03T12:01:10.927Z</time></trkpt><trkpt lat="44.1333221" lon="8.1114551"><ele>267.33333333333337</ele><time>2026-05-03T12:01:11.918Z</time></trkpt><trkpt lat="44.1334665" lon="8.1115189"><ele>269.0</ele><time>2026-05-03T12:01:12.926Z</time></trkpt><trkpt lat="44.1335972" lon="8.1115717"><ele>269.0</ele><time>2026-05-03T12:01:13.916Z</time></trkpt><trkpt lat="44.1337055" lon="8.1116022"><ele>269.0</ele><time>2026-05-03T12:01:14.913Z</time></trkpt><trkpt lat="44.1337986" lon="8.1115985"><ele>269.0</ele><time>2026-05-03T12:01:15.919Z</time></trkpt><trkpt lat="44.1338711" lon="8.1115616"><ele>269.0</ele><time>2026-05-03T12:01:16.92Z</time></trkpt><trkpt lat="44.1339231" lon="8.111512"><ele>269.0</ele><time>2026-05-03T12:01:17.927Z</time></trkpt><trkpt lat="44.1339698" lon="8.1114358"><ele>269.0</ele><time>2026-05-03T12:01:18.916Z</time></trkpt><trkpt lat="44.1340183" lon="8.1113795"><ele>271.2</ele><time>2026-05-03T12:01:19.921Z</time></trkpt><trkpt lat="44.1340741" lon="8.1113278"><ele>273.4</ele><time>2026-05-03T12:01:20.915Z</time></trkpt><trkpt lat="44.1341683" lon="8.1112512"><ele>275.6</ele><time>2026-05-03T12:01:22.913Z</time></trkpt><trkpt lat="44.1342419" lon="8.1112866"><ele>277.8</ele><time>2026-05-03T12:01:24.919Z</time></trkpt><trkpt lat="44.1342382" lon="8.1114172"><ele>280.0</ele><time>2026-05-03T12:01:26.925Z</time></trkpt><trkpt lat="44.1341602" lon="8.1115174"><ele>284.25</ele><time>2026-05-03T12:01:28.911Z</time></trkpt><trkpt lat="44.1340677" lon="8.1115862"><ele>288.5</ele><time>2026-05-03T12:01:29.924Z</time></trkpt><trkpt lat="44.1339285" lon="8.1116528"><ele>292.75</ele><time>2026-05-03T12:01:30.919Z</time></trkpt><trkpt lat="44.1337759" lon="8.1117033"><ele>297.0</ele><time>2026-05-03T12:01:31.919Z</time></trkpt><trkpt lat="44.1336397" lon="8.1117056"><ele>297.0</ele><time>2026-05-03T12:01:32.92Z</time></trkpt><trkpt lat="44.133488" lon="8.1116774"><ele>297.0</ele><time>2026-05-03T12:01:33.925Z</time></trkpt><trkpt lat="44.1333252" lon="8.1116387"><ele>297.0</ele><time>2026-05-03T12:01:34.915Z</time></trkpt><trkpt lat="44.133155" lon="8.1116134"><ele>296.25</ele><time>2026-05-03T12:01:35.923Z</time></trkpt><trkpt lat="44.1330062" lon="8.1115942"><ele>295.5</ele><time>2026-05-03T12:01:36.922Z</time></trkpt><trkpt lat="44.1328756" lon="8.1115854"><ele>294.75</ele><time>2026-05-03T12:01:37.923Z</time></trkpt><trkpt lat="44.1327452" lon="8.1116103"><ele>294.0</ele><time>2026-05-03T12:01:38.925Z</time></trkpt><trkpt lat="44.1326043" lon="8.1116938"><ele>294.0</ele><time>2026-05-03T12:01:39.922Z</time></trkpt><trkpt lat="44.1324543" lon="8.1117934"><ele>294.0</ele><time>2026-05-03T12:01:40.923Z</time></trkpt><trkpt lat="44.1322919" lon="8.1118785"><ele>294.0</ele><time>2026-05-03T12:01:41.921Z</time></trkpt><trkpt lat="44.1321382" lon="8.1119586"><ele>296.75</ele><time>2026-05-03T12:01:42.922Z</time></trkpt><trkpt lat="44.1319967" lon="8.1120454"><ele>299.5</ele><time>2026-05-03T12:01:43.912Z</time></trkpt><trkpt lat="44.1318769" lon="8.1121534"><ele>302.25</ele><time>2026-05-03T12:01:44.916Z</time></trkpt><trkpt lat="44.1317661" lon="8.1122827"><ele>305.0</ele><time>2026-05-03T12:01:45.921Z</time></trkpt><trkpt lat="44.1316563" lon="8.112437"><ele>301.75</ele><time>2026-05-03T12:01:46.914Z</time></trkpt><trkpt lat="44.1315361" lon="8.1125692"><ele>298.5</ele><time>2026-05-03T12:01:47.916Z</time></trkpt><trkpt lat="44.1314169" lon="8.1126811"><ele>295.25</ele><time>2026-05-03T12:01:48.918Z</time></trkpt><trkpt lat="44.1312982" lon="8.1127521"><ele>292.0</ele><time>2026-05-03T12:01:49.916Z</time></trkpt><trkpt lat="44.1311771" lon="8.1127769"><ele>292.0</ele><time>2026-05-03T12:01:50.919Z</time></trkpt><trkpt lat="44.1310342" lon="8.1127662"><ele>292.0</ele><time>2026-05-03T12:01:51.92Z</time></trkpt><trkpt lat="44.1308806" lon="8.1127456"><ele>292.0</ele><time>2026-05-03T12:01:52.914Z</time></trkpt><trkpt lat="44.1307356" lon="8.1127266"><ele>292.0</ele><time>2026-05-03T12:01:53.915Z</time></trkpt><trkpt lat="44.1306103" lon="8.1126901"><ele>291.6</ele><time>2026-05-03T12:01:54.919Z</time></trkpt><trkpt lat="44.1305065" lon="8.1126734"><ele>291.2</ele><time>2026-05-03T12:01:55.91Z</time></trkpt><trkpt lat="44.1304135" lon="8.1127271"><ele>290.8</ele><time>2026-05-03T12:01:56.922Z</time></trkpt><trkpt lat="44.1303473" lon="8.1128401"><ele>290.4</ele><time>2026-05-03T12:01:57.915Z</time></trkpt><trkpt lat="44.1303156" lon="8.1129785"><ele>290.0</ele><time>2026-05-03T12:01:58.921Z</time></trkpt><trkpt lat="44.130274" lon="8.1131183"><ele>290.0</ele><time>2026-05-03T12:01:59.921Z</time></trkpt><trkpt lat="44.1302072" lon="8.1131928"><ele>290.0</ele><time>2026-05-03T12:02:00.925Z</time></trkpt><trkpt lat="44.1301055" lon="8.113211"><ele>290.0</ele><time>2026-05-03T12:02:01.913Z</time></trkpt><trkpt lat="44.1299854" lon="8.1131788"><ele>290.0</ele><time>2026-05-03T12:02:02.916Z</time></trkpt><trkpt lat="44.1298684" lon="8.113107"><ele>290.0</ele><time>2026-05-03T12:02:03.918Z</time></trkpt><trkpt lat="44.1297459" lon="8.1130241"><ele>288.75</ele><time>2026-05-03T12:02:04.918Z</time></trkpt><trkpt lat="44.1296193" lon="8.1129608"><ele>287.5</ele><time>2026-05-03T12:02:05.936Z</time></trkpt><trkpt lat="44.1295012" lon="8.1129227"><ele>286.25</ele><time>2026-05-03T12:02:06.919Z</time></trkpt><trkpt lat="44.1294036" lon="8.1129271"><ele>285.0</ele><time>2026-05-03T12:02:07.931Z</time></trkpt><trkpt lat="44.129315" lon="8.1129948"><ele>285.0</ele><time>2026-05-03T12:02:08.921Z</time></trkpt><trkpt lat="44.1292297" lon="8.1131065"><ele>285.0</ele><time>2026-05-03T12:02:09.917Z</time></trkpt><trkpt lat="44.1291405" lon="8.113219"><ele>285.0</ele><time>2026-05-03T12:02:10.924Z</time></trkpt><trkpt lat="44.129033" lon="8.1133074"><ele>285.0</ele><time>2026-05-03T12:02:11.909Z</time></trkpt><trkpt lat="44.1289242" lon="8.1133193"><ele>288.5</ele><time>2026-05-03T12:02:12.924Z</time></trkpt><trkpt lat="44.1288251" lon="8.1132727"><ele>292.0</ele><time>2026-05-03T12:02:13.921Z</time></trkpt><trkpt lat="44.1287166" lon="8.1131998"><ele>295.5</ele><time>2026-05-03T12:02:14.92Z</time></trkpt><trkpt lat="44.1285996" lon="8.1131406"><ele>299.0</ele><time>2026-05-03T12:02:15.92Z</time></trkpt><trkpt lat="44.1284899" lon="8.1131519"><ele>299.0</ele><time>2026-05-03T12:02:16.922Z</time></trkpt><trkpt lat="44.1284133" lon="8.1132405"><ele>299.0</ele><time>2026-05-03T12:02:17.917Z</time></trkpt><trkpt lat="44.1283711" lon="8.1133598"><ele>299.0</ele><time>2026-05-03T12:02:18.922Z</time></trkpt><trkpt lat="44.1283777" lon="8.1134898"><ele>299.0</ele><time>2026-05-03T12:02:19.92Z</time></trkpt><trkpt lat="44.1284376" lon="8.1135887"><ele>299.0</ele><time>2026-05-03T12:02:20.93Z</time></trkpt><trkpt lat="44.1285194" lon="8.1136243"><ele>299.0</ele><time>2026-05-03T12:02:21.936Z</time></trkpt><trkpt lat="44.1286108" lon="8.1136056"><ele>299.0</ele><time>2026-05-03T12:02:22.924Z</time></trkpt><trkpt lat="44.1286989" lon="8.1135295"><ele>299.0</ele><time>2026-05-03T12:02:23.925Z</time></trkpt><trkpt lat="44.1287792" lon="8.113467"><ele>299.0</ele><time>2026-05-03T12:02:24.913Z</time></trkpt><trkpt lat="44.1288768" lon="8.1134803"><ele>299.0</ele><time>2026-05-03T12:02:25.914Z</time></trkpt><trkpt lat="44.1289683" lon="8.1134989"><ele>296.2</ele><time>2026-05-03T12:02:26.923Z</time></trkpt><trkpt lat="44.1290631" lon="8.1134482"><ele>293.4</ele><time>2026-05-03T12:02:27.923Z</time></trkpt><trkpt lat="44.1291545" lon="8.1133644"><ele>290.6</ele><time>2026-05-03T12:02:28.922Z</time></trkpt><trkpt lat="44.1292366" lon="8.113246"><ele>287.8</ele><time>2026-05-03T12:02:29.932Z</time></trkpt><trkpt lat="44.1293267" lon="8.1131428"><ele>285.0</ele><time>2026-05-03T12:02:30.916Z</time></trkpt><trkpt lat="44.1294184" lon="8.1130897"><ele>285.0</ele><time>2026-05-03T12:02:31.918Z</time></trkpt><trkpt lat="44.129504" lon="8.113117"><ele>285.0</ele><time>2026-05-03T12:02:32.926Z</time></trkpt><trkpt lat="44.1295971" lon="8.1131956"><ele>285.0</ele><time>2026-05-03T12:02:33.919Z</time></trkpt><trkpt lat="44.1297015" lon="8.1132971"><ele>285.0</ele><time>2026-05-03T12:02:34.923Z</time></trkpt><trkpt lat="44.1298206" lon="8.1133952"><ele>296.25</ele><time>2026-05-03T12:02:35.921Z</time></trkpt><trkpt lat="44.1299513" lon="8.113476"><ele>307.5</ele><time>2026-05-03T12:02:36.915Z</time></trkpt><trkpt lat="44.1300859" lon="8.1135309"><ele>318.75</ele><time>2026-05-03T12:02:37.923Z</time></trkpt><trkpt lat="44.1302158" lon="8.1135624"><ele>330.0</ele><time>2026-05-03T12:02:38.918Z</time></trkpt><trkpt lat="44.1303341" lon="8.1135598"><ele>330.0</ele><time>2026-05-03T12:02:39.924Z</time></trkpt><trkpt lat="44.1304416" lon="8.1134879"><ele>330.0</ele><time>2026-05-03T12:02:40.912Z</time></trkpt><trkpt lat="44.1305536" lon="8.1133762"><ele>330.0</ele><time>2026-05-03T12:02:41.912Z</time></trkpt><trkpt lat="44.1306632" lon="8.1132832"><ele>330.0</ele><time>2026-05-03T12:02:42.906Z</time></trkpt><trkpt lat="44.1307578" lon="8.1132403"><ele>331.25</ele><time>2026-05-03T12:02:43.92Z</time></trkpt><trkpt lat="44.1308755" lon="8.1132803"><ele>332.5</ele><time>2026-05-03T12:02:44.924Z</time></trkpt><trkpt lat="44.1310076" lon="8.1133547"><ele>333.75</ele><time>2026-05-03T12:02:45.918Z</time></trkpt><trkpt lat="44.1311385" lon="8.1134213"><ele>335.0</ele><time>2026-05-03T12:02:46.917Z</time></trkpt><trkpt lat="44.1312795" lon="8.1134672"><ele>335.0</ele><time>2026-05-03T12:02:47.918Z</time></trkpt><trkpt lat="44.1314217" lon="8.1134577"><ele>335.0</ele><time>2026-05-03T12:02:48.922Z</time></trkpt><trkpt lat="44.1315666" lon="8.1133878"><ele>335.0</ele><time>2026-05-03T12:02:49.92Z</time></trkpt><trkpt lat="44.1317214" lon="8.1133215"><ele>337.33333333333337</ele><time>2026-05-03T12:02:50.922Z</time></trkpt><trkpt lat="44.1318823" lon="8.1132489"><ele>339.6666666666667</ele><time>2026-05-03T12:02:51.913Z</time></trkpt><trkpt lat="44.1320435" lon="8.1131653"><ele>342.0</ele><time>2026-05-03T12:02:52.913Z</time></trkpt><trkpt lat="44.1322049" lon="8.1130646"><ele>338.0</ele><time>2026-05-03T12:02:53.915Z</time></trkpt><trkpt lat="44.1323561" lon="8.1129545"><ele>334.0</ele><time>2026-05-03T12:02:54.923Z</time></trkpt><trkpt lat="44.1324909" lon="8.1128423"><ele>330.0</ele><time>2026-05-03T12:02:55.913Z</time></trkpt><trkpt lat="44.1326146" lon="8.1127378"><ele>330.0</ele><time>2026-05-03T12:02:56.921Z</time></trkpt><trkpt lat="44.1327352" lon="8.1126727"><ele>330.0</ele><time>2026-05-03T12:02:57.919Z</time></trkpt><trkpt lat="44.1328493" lon="8.1126687"><ele>330.0</ele><time>2026-05-03T12:02:58.924Z</time></trkpt><trkpt lat="44.1329686" lon="8.1127194"><ele>330.0</ele><time>2026-05-03T12:02:59.912Z</time></trkpt><trkpt lat="44.1330815" lon="8.1128164"><ele>330.0</ele><time>2026-05-03T12:03:00.924Z</time></trkpt><trkpt lat="44.133203" lon="8.1129244"><ele>330.0</ele><time>2026-05-03T12:03:01.915Z</time></trkpt><trkpt lat="44.1333426" lon="8.1130227"><ele>330.0</ele><time>2026-05-03T12:03:02.915Z</time></trkpt><trkpt lat="44.1334895" lon="8.1131078"><ele>330.25</ele><time>2026-05-03T12:03:03.913Z</time></trkpt><trkpt lat="44.1336381" lon="8.11319"><ele>330.5</ele><time>2026-05-03T12:03:04.915Z</time></trkpt><trkpt lat="44.1337665" lon="8.1132652"><ele>330.75</ele><time>2026-05-03T12:03:05.912Z</time></trkpt><trkpt lat="44.1338576" lon="8.1133659"><ele>331.0</ele><time>2026-05-03T12:03:06.932Z</time></trkpt><trkpt lat="44.1339119" lon="8.1134807"><ele>336.8</ele><time>2026-05-03T12:03:07.93Z</time></trkpt><trkpt lat="44.1339192" lon="8.1135995"><ele>342.6</ele><time>2026-05-03T12:03:08.913Z</time></trkpt><trkpt lat="44.1338801" lon="8.1137098"><ele>348.4</ele><time>2026-05-03T12:03:09.918Z</time></trkpt><trkpt lat="44.1338033" lon="8.1137886"><ele>354.2</ele><time>2026-05-03T12:03:10.915Z</time></trkpt><trkpt lat="44.1337079" lon="8.1137745"><ele>360.0</ele><time>2026-05-03T12:03:11.916Z</time></trkpt><trkpt lat="44.1336315" lon="8.113684"><ele>360.0</ele><time>2026-05-03T12:03:12.917Z</time></trkpt><trkpt lat="44.1335896" lon="8.1135531"><ele>360.0</ele><time>2026-05-03T12:03:13.922Z</time></trkpt><trkpt lat="44.1335698" lon="8.1134151"><ele>360.0</ele><time>2026-05-03T12:03:14.921Z</time></trkpt><trkpt lat="44.1335297" lon="8.1132987"><ele>360.0</ele><time>2026-05-03T12:03:15.912Z</time></trkpt><trkpt lat="44.1334351" lon="8.1132315"><ele>360.0</ele><time>2026-05-03T12:03:16.915Z</time></trkpt><trkpt lat="44.1333217" lon="8.1131728"><ele>352.5</ele><time>2026-05-03T12:03:17.922Z</time></trkpt><trkpt lat="44.1332045" lon="8.1131183"><ele>345.0</ele><time>2026-05-03T12:03:18.914Z</time></trkpt><trkpt lat="44.1330821" lon="8.1130719"><ele>337.5</ele><time>2026-05-03T12:03:19.921Z</time></trkpt><trkpt lat="44.1329591" lon="8.1130245"><ele>330.0</ele><time>2026-05-03T12:03:20.928Z</time></trkpt><trkpt lat="44.1328466" lon="8.1130086"><ele>330.0</ele><time>2026-05-03T12:03:21.921Z</time></trkpt><trkpt lat="44.1327513" lon="8.1130641"><ele>330.0</ele><time>2026-05-03T12:03:22.912Z</time></trkpt><trkpt lat="44.1326534" lon="8.1131858"><ele>330.0</ele><time>2026-05-03T12:03:23.924Z</time></trkpt><trkpt lat="44.1325498" lon="8.1133312"><ele>330.0</ele><time>2026-05-03T12:03:24.922Z</time></trkpt><trkpt lat="44.132434" lon="8.113468"><ele>334.0</ele><time>2026-05-03T12:03:25.913Z</time></trkpt><trkpt lat="44.1323023" lon="8.1135891"><ele>338.0</ele><time>2026-05-03T12:03:26.913Z</time></trkpt><trkpt lat="44.1321615" lon="8.1137028"><ele>342.0</ele><time>2026-05-03T12:03:27.925Z</time></trkpt><trkpt lat="44.1320172" lon="8.1138264"><ele>342.0</ele><time>2026-05-03T12:03:28.911Z</time></trkpt><trkpt lat="44.131879" lon="8.1139753"><ele>342.0</ele><time>2026-05-03T12:03:29.918Z</time></trkpt><trkpt lat="44.1317575" lon="8.1141286"><ele>342.0</ele><time>2026-05-03T12:03:30.912Z</time></trkpt><trkpt lat="44.1316395" lon="8.1142619"><ele>349.0</ele><time>2026-05-03T12:03:31.906Z</time></trkpt><trkpt lat="44.1315132" lon="8.1143172"><ele>356.0</ele><time>2026-05-03T12:03:32.906Z</time></trkpt><trkpt lat="44.1313681" lon="8.1143092"><ele>363.0</ele><time>2026-05-03T12:03:33.919Z</time></trkpt><trkpt lat="44.1312264" lon="8.1142588"><ele>370.0</ele><time>2026-05-03T12:03:34.923Z</time></trkpt><trkpt lat="44.1310823" lon="8.1141954"><ele>370.0</ele><time>2026-05-03T12:03:35.927Z</time></trkpt><trkpt lat="44.1309435" lon="8.1141764"><ele>370.0</ele><time>2026-05-03T12:03:36.913Z</time></trkpt><trkpt lat="44.1308036" lon="8.1141829"><ele>370.0</ele><time>2026-05-03T12:03:37.915Z</time></trkpt><trkpt lat="44.1306566" lon="8.1142317"><ele>370.0</ele><time>2026-05-03T12:03:38.92Z</time></trkpt><trkpt lat="44.130506" lon="8.1143234"><ele>368.0</ele><time>2026-05-03T12:03:39.925Z</time></trkpt><trkpt lat="44.1303491" lon="8.1144046"><ele>366.0</ele><time>2026-05-03T12:03:40.921Z</time></trkpt><trkpt lat="44.1301877" lon="8.1144526"><ele>364.0</ele><time>2026-05-03T12:03:41.924Z</time></trkpt><trkpt lat="44.1300363" lon="8.1144712"><ele>364.0</ele><time>2026-05-03T12:03:42.914Z</time></trkpt><trkpt lat="44.1299092" lon="8.1145113"><ele>364.0</ele><time>2026-05-03T12:03:43.914Z</time></trkpt><trkpt lat="44.1298301" lon="8.1145835"><ele>364.0</ele><time>2026-05-03T12:03:44.922Z</time></trkpt><trkpt lat="44.129788" lon="8.1146889"><ele>364.0</ele><time>2026-05-03T12:03:45.916Z</time></trkpt><trkpt lat="44.1297865" lon="8.1148043"><ele>364.0</ele><time>2026-05-03T12:03:46.914Z</time></trkpt><trkpt lat="44.1298185" lon="8.1149213"><ele>362.6</ele><time>2026-05-03T12:03:47.923Z</time></trkpt><trkpt lat="44.1298802" lon="8.115038"><ele>361.2</ele><time>2026-05-03T12:03:48.924Z</time></trkpt><trkpt lat="44.129967" lon="8.1151121"><ele>359.8</ele><time>2026-05-03T12:03:49.917Z</time></trkpt><trkpt lat="44.1300545" lon="8.1151458"><ele>358.40000000000003</ele><time>2026-05-03T12:03:50.936Z</time></trkpt><trkpt lat="44.1301465" lon="8.1151371"><ele>357.0</ele><time>2026-05-03T12:03:51.921Z</time></trkpt><trkpt lat="44.1302229" lon="8.1150831"><ele>358.40000000000003</ele><time>2026-05-03T12:03:52.914Z</time></trkpt><trkpt lat="44.130273" lon="8.1149777"><ele>359.8</ele><time>2026-05-03T12:03:53.92Z</time></trkpt><trkpt lat="44.1303118" lon="8.1148483"><ele>361.2</ele><time>2026-05-03T12:03:54.918Z</time></trkpt><trkpt lat="44.1303396" lon="8.1147229"><ele>362.6</ele><time>2026-05-03T12:03:55.921Z</time></trkpt><trkpt lat="44.1304086" lon="8.1146322"><ele>364.0</ele><time>2026-05-03T12:03:56.916Z</time></trkpt><trkpt lat="44.1305179" lon="8.1145884"><ele>364.0</ele><time>2026-05-03T12:03:57.923Z</time></trkpt><trkpt lat="44.130676" lon="8.1145967"><ele>364.0</ele><time>2026-05-03T12:03:58.909Z</time></trkpt><trkpt lat="44.1308268" lon="8.1146324"><ele>364.0</ele><time>2026-05-03T12:03:59.915Z</time></trkpt><trkpt lat="44.1309641" lon="8.1146654"><ele>365.2</ele><time>2026-05-03T12:04:00.914Z</time></trkpt><trkpt lat="44.131096" lon="8.1146756"><ele>366.4</ele><time>2026-05-03T12:04:01.914Z</time></trkpt><trkpt lat="44.13121" lon="8.1146707"><ele>367.6</ele><time>2026-05-03T12:04:02.914Z</time></trkpt><trkpt lat="44.1313168" lon="8.1146816"><ele>368.8</ele><time>2026-05-03T12:04:03.924Z</time></trkpt><trkpt lat="44.1313896" lon="8.1147391"><ele>370.0</ele><time>2026-05-03T12:04:04.914Z</time></trkpt><trkpt lat="44.1314286" lon="8.1148373"><ele>373.99999999999994</ele><time>2026-05-03T12:04:05.921Z</time></trkpt><trkpt lat="44.1314275" lon="8.1149464"><ele>378.0</ele><time>2026-05-03T12:04:06.918Z</time></trkpt><trkpt lat="44.1313887" lon="8.1150328"><ele>382.0</ele><time>2026-05-03T12:04:07.913Z</time></trkpt><trkpt lat="44.1313266" lon="8.1150821"><ele>386.0</ele><time>2026-05-03T12:04:08.923Z</time></trkpt><trkpt lat="44.1312628" lon="8.1150955"><ele>390.0</ele><time>2026-05-03T12:04:09.916Z</time></trkpt><trkpt lat="44.1312001" lon="8.1150691"><ele>393.99999999999994</ele><time>2026-05-03T12:04:10.914Z</time></trkpt><trkpt lat="44.1311352" lon="8.1150114"><ele>398.0</ele><time>2026-05-03T12:04:11.914Z</time></trkpt><trkpt lat="44.1310713" lon="8.1149334"><ele>392.4</ele><time>2026-05-03T12:04:12.91Z</time></trkpt><trkpt lat="44.1309994" lon="8.1148681"><ele>386.79999999999995</ele><time>2026-05-03T12:04:13.911Z</time></trkpt><trkpt lat="44.1309136" lon="8.1148146"><ele>381.2</ele><time>2026-05-03T12:04:14.916Z</time></trkpt><trkpt lat="44.1308186" lon="8.1147821"><ele>375.6</ele><time>2026-05-03T12:04:15.914Z</time></trkpt><trkpt lat="44.1307246" lon="8.1147627"><ele>370.0</ele><time>2026-05-03T12:04:16.917Z</time></trkpt><trkpt lat="44.1306464" lon="8.1147643"><ele>369.0</ele><time>2026-05-03T12:04:17.917Z</time></trkpt><trkpt lat="44.1305709" lon="8.1147771"><ele>368.0</ele><time>2026-05-03T12:04:18.938Z</time></trkpt><trkpt lat="44.1305004" lon="8.1148128"><ele>367.0</ele><time>2026-05-03T12:04:19.914Z</time></trkpt><trkpt lat="44.1304392" lon="8.1148758"><ele>366.0</ele><time>2026-05-03T12:04:20.927Z</time></trkpt><trkpt lat="44.1303821" lon="8.1149441"><ele>365.0</ele><time>2026-05-03T12:04:21.934Z</time></trkpt><trkpt lat="44.1303478" lon="8.1150247"><ele>364.0</ele><time>2026-05-03T12:04:22.934Z</time></trkpt><trkpt lat="44.1303167" lon="8.1151287"><ele>367.3333333333333</ele><time>2026-05-03T12:04:23.933Z</time></trkpt><trkpt lat="44.1303181" lon="8.1152438"><ele>370.66666666666663</ele><time>2026-05-03T12:04:24.927Z</time></trkpt><trkpt lat="44.1303397" lon="8.1153423"><ele>374.0</ele><time>2026-05-03T12:04:25.925Z</time></trkpt><trkpt lat="44.1303892" lon="8.1154162"><ele>377.3333333333333</ele><time>2026-05-03T12:04:26.919Z</time></trkpt><trkpt lat="44.1304503" lon="8.1154843"><ele>380.6666666666667</ele><time>2026-05-03T12:04:27.921Z</time></trkpt><trkpt lat="44.1304917" lon="8.1155732"><ele>384.0</ele><time>2026-05-03T12:04:28.923Z</time></trkpt><trkpt lat="44.130522" lon="8.115681"><ele>385.0</ele><time>2026-05-03T12:04:29.919Z</time></trkpt><trkpt lat="44.1305351" lon="8.1158106"><ele>386.0</ele><time>2026-05-03T12:04:30.918Z</time></trkpt><trkpt lat="44.1305593" lon="8.1159538"><ele>387.0</ele><time>2026-05-03T12:04:31.913Z</time></trkpt><trkpt lat="44.1305775" lon="8.1160965"><ele>388.0</ele><time>2026-05-03T12:04:32.917Z</time></trkpt><trkpt lat="44.1305979" lon="8.1162697"><ele>389.0</ele><time>2026-05-03T12:04:33.916Z</time></trkpt><trkpt lat="44.1306142" lon="8.1164571"><ele>393.5</ele><time>2026-05-03T12:04:34.916Z</time></trkpt><trkpt lat="44.1306339" lon="8.1166266"><ele>398.0</ele><time>2026-05-03T12:04:35.916Z</time></trkpt><trkpt lat="44.1306844" lon="8.1168149"><ele>402.5</ele><time>2026-05-03T12:04:36.922Z</time></trkpt><trkpt lat="44.1307609" lon="8.116986"><ele>407.0</ele><time>2026-05-03T12:04:37.92Z</time></trkpt><trkpt lat="44.1308355" lon="8.1171501"><ele>407.75</ele><time>2026-05-03T12:04:38.916Z</time></trkpt><trkpt lat="44.1309172" lon="8.1173079"><ele>408.5</ele><time>2026-05-03T12:04:39.917Z</time></trkpt><trkpt lat="44.1310107" lon="8.1174624"><ele>409.25</ele><time>2026-05-03T12:04:40.919Z</time></trkpt><trkpt lat="44.1311116" lon="8.1176191"><ele>410.0</ele><time>2026-05-03T12:04:41.917Z</time></trkpt><trkpt lat="44.1312193" lon="8.1177615"><ele>410.0</ele><time>2026-05-03T12:04:42.916Z</time></trkpt><trkpt lat="44.1313182" lon="8.1178979"><ele>410.0</ele><time>2026-05-03T12:04:43.913Z</time></trkpt><trkpt lat="44.1314183" lon="8.118028"><ele>410.0</ele><time>2026-05-03T12:04:44.928Z</time></trkpt><trkpt lat="44.1315278" lon="8.1181638"><ele>410.0</ele><time>2026-05-03T12:04:45.914Z</time></trkpt><trkpt lat="44.1316347" lon="8.118309"><ele>412.25</ele><time>2026-05-03T12:04:46.92Z</time></trkpt><trkpt lat="44.131725" lon="8.1184672"><ele>414.5</ele><time>2026-05-03T12:04:47.916Z</time></trkpt><trkpt lat="44.1318014" lon="8.118642"><ele>416.75</ele><time>2026-05-03T12:04:48.921Z</time></trkpt><trkpt lat="44.1318762" lon="8.118821"><ele>419.0</ele><time>2026-05-03T12:04:49.918Z</time></trkpt><trkpt lat="44.1319494" lon="8.1189855"><ele>419.25</ele><time>2026-05-03T12:04:50.934Z</time></trkpt><trkpt lat="44.1320277" lon="8.1191517"><ele>419.5</ele><time>2026-05-03T12:04:51.922Z</time></trkpt><trkpt lat="44.1320885" lon="8.1193303"><ele>419.75</ele><time>2026-05-03T12:04:52.918Z</time></trkpt><trkpt lat="44.1321313" lon="8.1195159"><ele>420.0</ele><time>2026-05-03T12:04:53.921Z</time></trkpt><trkpt lat="44.1321517" lon="8.1197214"><ele>421.66666666666663</ele><time>2026-05-03T12:04:54.927Z</time></trkpt><trkpt lat="44.1321762" lon="8.1199443"><ele>423.3333333333333</ele><time>2026-05-03T12:04:55.918Z</time></trkpt><trkpt lat="44.1321877" lon="8.1201668"><ele>425.0</ele><time>2026-05-03T12:04:56.917Z</time></trkpt><trkpt lat="44.132211" lon="8.1203781"><ele>425.0</ele><time>2026-05-03T12:04:57.919Z</time></trkpt><trkpt lat="44.1322387" lon="8.1205639"><ele>425.0</ele><time>2026-05-03T12:04:58.915Z</time></trkpt><trkpt lat="44.132273" lon="8.1207327"><ele>425.0</ele><time>2026-05-03T12:04:59.92Z</time></trkpt><trkpt lat="44.1323171" lon="8.1208928"><ele>425.0</ele><time>2026-05-03T12:05:00.912Z</time></trkpt><trkpt lat="44.1323724" lon="8.1210467"><ele>426.6</ele><time>2026-05-03T12:05:01.929Z</time></trkpt><trkpt lat="44.1324244" lon="8.1211899"><ele>428.2</ele><time>2026-05-03T12:05:02.918Z</time></trkpt><trkpt lat="44.1324615" lon="8.12132"><ele>429.79999999999995</ele><time>2026-05-03T12:05:03.914Z</time></trkpt><trkpt lat="44.1324621" lon="8.1214545"><ele>431.4</ele><time>2026-05-03T12:05:04.911Z</time></trkpt><trkpt lat="44.1324031" lon="8.1215634"><ele>433.0</ele><time>2026-05-03T12:05:05.921Z</time></trkpt><trkpt lat="44.1322993" lon="8.1216251"><ele>432.5</ele><time>2026-05-03T12:05:06.92Z</time></trkpt><trkpt lat="44.1321936" lon="8.1216105"><ele>432.0</ele><time>2026-05-03T12:05:07.911Z</time></trkpt><trkpt lat="44.1320987" lon="8.1215516"><ele>431.5</ele><time>2026-05-03T12:05:08.917Z</time></trkpt><trkpt lat="44.1320239" lon="8.1214233"><ele>431.0</ele><time>2026-05-03T12:05:09.917Z</time></trkpt><trkpt lat="44.1319637" lon="8.1212702"><ele>431.0</ele><time>2026-05-03T12:05:10.914Z</time></trkpt><trkpt lat="44.1318943" lon="8.1211308"><ele>431.0</ele><time>2026-05-03T12:05:11.91Z</time></trkpt><trkpt lat="44.1318052" lon="8.1210293"><ele>431.0</ele><time>2026-05-03T12:05:12.912Z</time></trkpt><trkpt lat="44.1316918" lon="8.1209484"><ele>431.0</ele><time>2026-05-03T12:05:13.927Z</time></trkpt><trkpt lat="44.1315772" lon="8.1208912"><ele>436.4</ele><time>2026-05-03T12:05:14.916Z</time></trkpt><trkpt lat="44.1314614" lon="8.1208543"><ele>441.8</ele><time>2026-05-03T12:05:15.912Z</time></trkpt><trkpt lat="44.1313649" lon="8.1207807"><ele>447.19999999999993</ele><time>2026-05-03T12:05:16.913Z</time></trkpt><trkpt lat="44.1313232" lon="8.1206668"><ele>452.59999999999997</ele><time>2026-05-03T12:05:17.92Z</time></trkpt><trkpt lat="44.1313157" lon="8.1205315"><ele>458.0</ele><time>2026-05-03T12:05:18.913Z</time></trkpt><trkpt lat="44.1313351" lon="8.120399"><ele>458.0</ele><time>2026-05-03T12:05:19.919Z</time></trkpt><trkpt lat="44.131353" lon="8.1202516"><ele>457.99999999999994</ele><time>2026-05-03T12:05:20.911Z</time></trkpt><trkpt lat="44.1313607" lon="8.1201198"><ele>457.99999999999994</ele><time>2026-05-03T12:05:21.927Z</time></trkpt><trkpt lat="44.1313219" lon="8.1200083"><ele>458.0</ele><time>2026-05-03T12:05:22.909Z</time></trkpt><trkpt lat="44.1312569" lon="8.1199117"><ele>458.0</ele><time>2026-05-03T12:05:23.915Z</time></trkpt><trkpt lat="44.1311767" lon="8.1198047"><ele>452.5</ele><time>2026-05-03T12:05:24.912Z</time></trkpt><trkpt lat="44.1311003" lon="8.1196713"><ele>447.0</ele><time>2026-05-03T12:05:25.915Z</time></trkpt><trkpt lat="44.1310263" lon="8.1195294"><ele>441.5</ele><time>2026-05-03T12:05:26.914Z</time></trkpt><trkpt lat="44.130949" lon="8.1193981"><ele>436.0</ele><time>2026-05-03T12:05:27.899Z</time></trkpt><trkpt lat="44.1308731" lon="8.1192868"><ele>436.0</ele><time>2026-05-03T12:05:28.91Z</time></trkpt><trkpt lat="44.1307927" lon="8.1192058"><ele>436.0</ele><time>2026-05-03T12:05:29.914Z</time></trkpt><trkpt lat="44.1306945" lon="8.1191551"><ele>436.0</ele><time>2026-05-03T12:05:30.917Z</time></trkpt><trkpt lat="44.1305825" lon="8.1191166"><ele>436.0</ele><time>2026-05-03T12:05:31.908Z</time></trkpt><trkpt lat="44.1304639" lon="8.119072"><ele>436.0</ele><time>2026-05-03T12:05:32.92Z</time></trkpt><trkpt lat="44.1303581" lon="8.1190302"><ele>433.0</ele><time>2026-05-03T12:05:33.922Z</time></trkpt><trkpt lat="44.130276" lon="8.1189657"><ele>430.0</ele><time>2026-05-03T12:05:34.923Z</time></trkpt><trkpt lat="44.1302078" lon="8.118864"><ele>427.0</ele><time>2026-05-03T12:05:35.911Z</time></trkpt><trkpt lat="44.1301536" lon="8.1187531"><ele>424.0</ele><time>2026-05-03T12:05:36.915Z</time></trkpt><trkpt lat="44.1300924" lon="8.118662"><ele>421.0</ele><time>2026-05-03T12:05:37.912Z</time></trkpt><trkpt lat="44.1300139" lon="8.1186309"><ele>421.00000000000006</ele><time>2026-05-03T12:05:38.923Z</time></trkpt><trkpt lat="44.1299233" lon="8.1186524"><ele>421.0</ele><time>2026-05-03T12:05:39.919Z</time></trkpt><trkpt lat="44.12985" lon="8.1187327"><ele>421.0</ele><time>2026-05-03T12:05:40.94Z</time></trkpt><trkpt lat="44.1298197" lon="8.1188293"><ele>421.0</ele><time>2026-05-03T12:05:41.914Z</time></trkpt><trkpt lat="44.129811" lon="8.1189267"><ele>421.00000000000006</ele><time>2026-05-03T12:05:42.918Z</time></trkpt><trkpt lat="44.1298322" lon="8.119022"><ele>421.0</ele><time>2026-05-03T12:05:44.922Z</time></trkpt><trkpt lat="44.1298994" lon="8.1191123"><ele>424.20000000000005</ele><time>2026-05-03T12:05:52.913Z</time></trkpt><trkpt lat="44.1299701" lon="8.1191282"><ele>427.40000000000003</ele><time>2026-05-03T12:05:53.919Z</time></trkpt><trkpt lat="44.1300562" lon="8.1191224"><ele>430.6</ele><time>2026-05-03T12:05:54.907Z</time></trkpt><trkpt lat="44.1301615" lon="8.1191403"><ele>433.8</ele><time>2026-05-03T12:05:55.91Z</time></trkpt><trkpt lat="44.1302823" lon="8.1191853"><ele>437.0</ele><time>2026-05-03T12:05:56.914Z</time></trkpt><trkpt lat="44.1304119" lon="8.1192282"><ele>437.0</ele><time>2026-05-03T12:05:57.907Z</time></trkpt><trkpt lat="44.1305494" lon="8.1192802"><ele>437.0</ele><time>2026-05-03T12:05:58.919Z</time></trkpt><trkpt lat="44.1306575" lon="8.1193742"><ele>437.0</ele><time>2026-05-03T12:05:59.921Z</time></trkpt><trkpt lat="44.1307483" lon="8.1194962"><ele>437.0</ele><time>2026-05-03T12:06:00.921Z</time></trkpt><trkpt lat="44.1308297" lon="8.1196656"><ele>436.75</ele><time>2026-05-03T12:06:01.915Z</time></trkpt><trkpt lat="44.1308992" lon="8.1198534"><ele>436.5</ele><time>2026-05-03T12:06:02.917Z</time></trkpt><trkpt lat="44.1309548" lon="8.1200352"><ele>436.25</ele><time>2026-05-03T12:06:03.906Z</time></trkpt><trkpt lat="44.1309992" lon="8.1202203"><ele>436.0</ele><time>2026-05-03T12:06:04.913Z</time></trkpt><trkpt lat="44.1310032" lon="8.1204118"><ele>441.5</ele><time>2026-05-03T12:06:05.915Z</time></trkpt><trkpt lat="44.1309537" lon="8.1205901"><ele>447.0</ele><time>2026-05-03T12:06:06.92Z</time></trkpt><trkpt lat="44.1308611" lon="8.1207444"><ele>452.5</ele><time>2026-05-03T12:06:07.921Z</time></trkpt><trkpt lat="44.1307608" lon="8.1208933"><ele>458.0</ele><time>2026-05-03T12:06:08.912Z</time></trkpt><trkpt lat="44.1306648" lon="8.1210467"><ele>463.79999999999995</ele><time>2026-05-03T12:06:09.914Z</time></trkpt><trkpt lat="44.1305908" lon="8.1211856"><ele>469.59999999999997</ele><time>2026-05-03T12:06:10.918Z</time></trkpt><trkpt lat="44.1305379" lon="8.1213292"><ele>475.40000000000003</ele><time>2026-05-03T12:06:11.917Z</time></trkpt><trkpt lat="44.1305472" lon="8.1214495"><ele>481.20000000000005</ele><time>2026-05-03T12:06:12.916Z</time></trkpt><trkpt lat="44.1306087" lon="8.1215585"><ele>487.0</ele><time>2026-05-03T12:06:13.92Z</time></trkpt><trkpt lat="44.1307065" lon="8.1216312"><ele>483.0</ele><time>2026-05-03T12:06:14.918Z</time></trkpt><trkpt lat="44.1308196" lon="8.1216691"><ele>479.0</ele><time>2026-05-03T12:06:15.914Z</time></trkpt><trkpt lat="44.1309649" lon="8.1217102"><ele>475.0</ele><time>2026-05-03T12:06:16.912Z</time></trkpt><trkpt lat="44.1311206" lon="8.121769"><ele>471.0</ele><time>2026-05-03T12:06:17.91Z</time></trkpt><trkpt lat="44.1312768" lon="8.1218399"><ele>471.0</ele><time>2026-05-03T12:06:18.916Z</time></trkpt><trkpt lat="44.1314126" lon="8.1219183"><ele>471.0</ele><time>2026-05-03T12:06:19.917Z</time></trkpt><trkpt lat="44.1315281" lon="8.1220192"><ele>471.0</ele><time>2026-05-03T12:06:20.911Z</time></trkpt><trkpt lat="44.131628" lon="8.1221463"><ele>471.0</ele><time>2026-05-03T12:06:21.919Z</time></trkpt><trkpt lat="44.1316883" lon="8.1223025"><ele>472.25</ele><time>2026-05-03T12:06:22.912Z</time></trkpt><trkpt lat="44.1317236" lon="8.1224777"><ele>473.5</ele><time>2026-05-03T12:06:23.915Z</time></trkpt><trkpt lat="44.1317567" lon="8.1226709"><ele>474.75</ele><time>2026-05-03T12:06:24.909Z</time></trkpt><trkpt lat="44.1317802" lon="8.1228662"><ele>476.0</ele><time>2026-05-03T12:06:25.923Z</time></trkpt><trkpt lat="44.1317923" lon="8.1230671"><ele>479.20000000000005</ele><time>2026-05-03T12:06:26.912Z</time></trkpt><trkpt lat="44.1318007" lon="8.1232404"><ele>482.40000000000003</ele><time>2026-05-03T12:06:27.916Z</time></trkpt><trkpt lat="44.1318013" lon="8.1234002"><ele>485.6</ele><time>2026-05-03T12:06:28.912Z</time></trkpt><trkpt lat="44.1318026" lon="8.1235415"><ele>488.8</ele><time>2026-05-03T12:06:29.923Z</time></trkpt><trkpt lat="44.1318015" lon="8.1236743"><ele>492.0</ele><time>2026-05-03T12:06:30.913Z</time></trkpt><trkpt lat="44.1318109" lon="8.1237896"><ele>492.0</ele><time>2026-05-03T12:06:31.914Z</time></trkpt><trkpt lat="44.1318383" lon="8.123898"><ele>492.00000000000006</ele><time>2026-05-03T12:06:32.909Z</time></trkpt><trkpt lat="44.1319354" lon="8.1239878"><ele>492.00000000000006</ele><time>2026-05-03T12:06:34.921Z</time></trkpt><trkpt lat="44.1320148" lon="8.1239858"><ele>492.0</ele><time>2026-05-03T12:06:35.92Z</time></trkpt><trkpt lat="44.1321104" lon="8.1239825"><ele>492.0</ele><time>2026-05-03T12:06:36.91Z</time></trkpt><trkpt lat="44.1322077" lon="8.1240053"><ele>492.0</ele><time>2026-05-03T12:06:37.912Z</time></trkpt><trkpt lat="44.1322789" lon="8.1240632"><ele>492.0</ele><time>2026-05-03T12:06:38.918Z</time></trkpt><trkpt lat="44.1323403" lon="8.1241455"><ele>492.0</ele><time>2026-05-03T12:06:39.91Z</time></trkpt><trkpt lat="44.1323893" lon="8.1242396"><ele>492.0</ele><time>2026-05-03T12:06:40.908Z</time></trkpt><trkpt lat="44.1324375" lon="8.1243297"><ele>492.0</ele><time>2026-05-03T12:06:41.909Z</time></trkpt><trkpt lat="44.1324947" lon="8.1244068"><ele>492.0</ele><time>2026-05-03T12:06:42.913Z</time></trkpt><trkpt lat="44.1325659" lon="8.1244504"><ele>489.5</ele><time>2026-05-03T12:06:43.908Z</time></trkpt><trkpt lat="44.1326283" lon="8.1244756"><ele>487.0</ele><time>2026-05-03T12:06:44.908Z</time></trkpt><trkpt lat="44.1327033" lon="8.1245142"><ele>484.5</ele><time>2026-05-03T12:06:45.902Z</time></trkpt><trkpt lat="44.1327853" lon="8.1245672"><ele>482.0</ele><time>2026-05-03T12:06:46.912Z</time></trkpt><trkpt lat="44.1328526" lon="8.1246476"><ele>479.5</ele><time>2026-05-03T12:06:47.906Z</time></trkpt><trkpt lat="44.1329089" lon="8.124745"><ele>477.0</ele><time>2026-05-03T12:06:48.904Z</time></trkpt><trkpt lat="44.1329513" lon="8.1248598"><ele>478.0</ele><time>2026-05-03T12:06:49.911Z</time></trkpt><trkpt lat="44.1330033" lon="8.1249533"><ele>479.0</ele><time>2026-05-03T12:06:50.913Z</time></trkpt><trkpt lat="44.1330537" lon="8.1250354"><ele>480.0</ele><time>2026-05-03T12:06:51.911Z</time></trkpt><trkpt lat="44.1331187" lon="8.1251147"><ele>481.0</ele><time>2026-05-03T12:06:52.898Z</time></trkpt><trkpt lat="44.1331819" lon="8.1251951"><ele>482.0</ele><time>2026-05-03T12:06:53.903Z</time></trkpt><trkpt lat="44.1332407" lon="8.1252582"><ele>483.0</ele><time>2026-05-03T12:06:54.916Z</time></trkpt><trkpt lat="44.1332959" lon="8.1253133"><ele>483.0</ele><time>2026-05-03T12:06:55.907Z</time></trkpt><trkpt lat="44.1333501" lon="8.125381"><ele>483.0</ele><time>2026-05-03T12:06:56.901Z</time></trkpt><trkpt lat="44.1334061" lon="8.1254562"><ele>483.0</ele><time>2026-05-03T12:06:57.915Z</time></trkpt><trkpt lat="44.1334619" lon="8.1255327"><ele>483.0</ele><time>2026-05-03T12:06:58.915Z</time></trkpt><trkpt lat="44.1335139" lon="8.1255927"><ele>483.0</ele><time>2026-05-03T12:06:59.922Z</time></trkpt><trkpt lat="44.1336114" lon="8.1256667"><ele>483.0</ele><time>2026-05-03T12:07:01.901Z</time></trkpt><trkpt lat="44.133726" lon="8.1256619"><ele>483.0</ele><time>2026-05-03T12:07:03.912Z</time></trkpt><trkpt lat="44.1338298" lon="8.1255712"><ele>482.99999999999994</ele><time>2026-05-03T12:07:05.9Z</time></trkpt><trkpt lat="44.1338791" lon="8.1254823"><ele>482.99999999999994</ele><time>2026-05-03T12:07:06.91Z</time></trkpt><trkpt lat="44.1339114" lon="8.1253746"><ele>483.0</ele><time>2026-05-03T12:07:07.925Z</time></trkpt><trkpt lat="44.1339341" lon="8.1252326"><ele>483.0</ele><time>2026-05-03T12:07:08.919Z</time></trkpt><trkpt lat="44.133951" lon="8.1250984"><ele>483.0</ele><time>2026-05-03T12:07:09.923Z</time></trkpt><trkpt lat="44.1339632" lon="8.1249531"><ele>482.99999999999994</ele><time>2026-05-03T12:07:10.914Z</time></trkpt><trkpt lat="44.1339624" lon="8.1248063"><ele>482.99999999999994</ele><time>2026-05-03T12:07:11.913Z</time></trkpt><trkpt lat="44.1339515" lon="8.1246522"><ele>483.0</ele><time>2026-05-03T12:07:12.923Z</time></trkpt><trkpt lat="44.1339279" lon="8.1244964"><ele>483.0</ele><time>2026-05-03T12:07:13.901Z</time></trkpt><trkpt lat="44.1339031" lon="8.1243598"><ele>481.3333333333333</ele><time>2026-05-03T12:07:14.909Z</time></trkpt><trkpt lat="44.1338777" lon="8.124232"><ele>479.66666666666663</ele><time>2026-05-03T12:07:15.909Z</time></trkpt><trkpt lat="44.1338504" lon="8.1241154"><ele>478.0</ele><time>2026-05-03T12:07:16.926Z</time></trkpt><trkpt lat="44.133829" lon="8.1240094"><ele>476.3333333333333</ele><time>2026-05-03T12:07:17.912Z</time></trkpt><trkpt lat="44.1338057" lon="8.1239107"><ele>474.66666666666663</ele><time>2026-05-03T12:07:18.921Z</time></trkpt><trkpt lat="44.1337873" lon="8.1238008"><ele>473.0</ele><time>2026-05-03T12:07:19.921Z</time></trkpt><trkpt lat="44.133783" lon="8.1236845"><ele>473.0</ele><time>2026-05-03T12:07:20.913Z</time></trkpt><trkpt lat="44.1337917" lon="8.1235479"><ele>472.99999999999994</ele><time>2026-05-03T12:07:21.911Z</time></trkpt><trkpt lat="44.1338144" lon="8.1234046"><ele>472.99999999999994</ele><time>2026-05-03T12:07:22.917Z</time></trkpt><trkpt lat="44.1338528" lon="8.1232618"><ele>473.0</ele><time>2026-05-03T12:07:23.915Z</time></trkpt><trkpt lat="44.1338787" lon="8.1231203"><ele>473.0</ele><time>2026-05-03T12:07:24.917Z</time></trkpt><trkpt lat="44.1338895" lon="8.1229805"><ele>473.16666666666663</ele><time>2026-05-03T12:07:25.917Z</time></trkpt><trkpt lat="44.1338754" lon="8.1228518"><ele>473.3333333333333</ele><time>2026-05-03T12:07:26.912Z</time></trkpt><trkpt lat="44.1338455" lon="8.1227397"><ele>473.5</ele><time>2026-05-03T12:07:27.919Z</time></trkpt><trkpt lat="44.1338153" lon="8.1226369"><ele>473.66666666666663</ele><time>2026-05-03T12:07:28.916Z</time></trkpt><trkpt lat="44.1338072" lon="8.122542"><ele>473.8333333333333</ele><time>2026-05-03T12:07:29.922Z</time></trkpt><trkpt lat="44.1338187" lon="8.1224455"><ele>474.0</ele><time>2026-05-03T12:07:30.904Z</time></trkpt><trkpt lat="44.13385" lon="8.122345"><ele>473.0</ele><time>2026-05-03T12:07:31.923Z</time></trkpt><trkpt lat="44.1338905" lon="8.122241"><ele>472.0</ele><time>2026-05-03T12:07:32.916Z</time></trkpt><trkpt lat="44.1339336" lon="8.1221237"><ele>471.0</ele><time>2026-05-03T12:07:33.91Z</time></trkpt><trkpt lat="44.1339846" lon="8.1220207"><ele>470.0</ele><time>2026-05-03T12:07:34.919Z</time></trkpt><trkpt lat="44.1340468" lon="8.1219383"><ele>469.0</ele><time>2026-05-03T12:07:35.906Z</time></trkpt><trkpt lat="44.1341223" lon="8.1218693"><ele>468.0</ele><time>2026-05-03T12:07:36.911Z</time></trkpt><trkpt lat="44.1341946" lon="8.1218221"><ele>472.8333333333333</ele><time>2026-05-03T12:07:37.915Z</time></trkpt><trkpt lat="44.1342745" lon="8.1217479"><ele>477.66666666666663</ele><time>2026-05-03T12:07:38.909Z</time></trkpt><trkpt lat="44.1343379" lon="8.1216667"><ele>482.5</ele><time>2026-05-03T12:07:39.913Z</time></trkpt><trkpt lat="44.134374" lon="8.1215696"><ele>487.3333333333333</ele><time>2026-05-03T12:07:40.919Z</time></trkpt><trkpt lat="44.134403" lon="8.1214885"><ele>492.16666666666663</ele><time>2026-05-03T12:07:41.909Z</time></trkpt><trkpt lat="44.1344171" lon="8.1214006"><ele>497.0</ele><time>2026-05-03T12:07:42.913Z</time></trkpt><trkpt lat="44.1344182" lon="8.1213047"><ele>497.0</ele><time>2026-05-03T12:07:43.914Z</time></trkpt><trkpt lat="44.1344196" lon="8.1211853"><ele>497.00000000000006</ele><time>2026-05-03T12:07:44.916Z</time></trkpt><trkpt lat="44.1344227" lon="8.1210487"><ele>497.00000000000006</ele><time>2026-05-03T12:07:45.918Z</time></trkpt><trkpt lat="44.1344267" lon="8.1209179"><ele>497.0</ele><time>2026-05-03T12:07:46.91Z</time></trkpt><trkpt lat="44.1344251" lon="8.1207776"><ele>497.0</ele><time>2026-05-03T12:07:47.905Z</time></trkpt><trkpt lat="44.1344004" lon="8.1206327"><ele>498.6</ele><time>2026-05-03T12:07:48.91Z</time></trkpt><trkpt lat="44.1343587" lon="8.1204944"><ele>500.20000000000005</ele><time>2026-05-03T12:07:49.922Z</time></trkpt><trkpt lat="44.134302" lon="8.1203722"><ele>501.8</ele><time>2026-05-03T12:07:50.912Z</time></trkpt><trkpt lat="44.1342621" lon="8.1202681"><ele>503.4</ele><time>2026-05-03T12:07:51.916Z</time></trkpt><trkpt lat="44.1342464" lon="8.1201551"><ele>505.0</ele><time>2026-05-03T12:07:52.911Z</time></trkpt><trkpt lat="44.1342394" lon="8.1200449"><ele>505.00000000000006</ele><time>2026-05-03T12:07:53.919Z</time></trkpt><trkpt lat="44.1342396" lon="8.1199275"><ele>505.0</ele><time>2026-05-03T12:07:54.916Z</time></trkpt><trkpt lat="44.134233" lon="8.1198042"><ele>505.0</ele><time>2026-05-03T12:07:55.915Z</time></trkpt><trkpt lat="44.1342292" lon="8.1196855"><ele>505.0</ele><time>2026-05-03T12:07:56.923Z</time></trkpt><trkpt lat="44.1342243" lon="8.1195724"><ele>505.00000000000006</ele><time>2026-05-03T12:07:57.915Z</time></trkpt><trkpt lat="44.1342147" lon="8.1194639"><ele>505.0</ele><time>2026-05-03T12:07:58.912Z</time></trkpt><trkpt lat="44.1342124" lon="8.1193504"><ele>505.1666666666667</ele><time>2026-05-03T12:07:59.922Z</time></trkpt><trkpt lat="44.1342147" lon="8.1192473"><ele>505.33333333333337</ele><time>2026-05-03T12:08:00.923Z</time></trkpt><trkpt lat="44.1342296" lon="8.1191585"><ele>505.5</ele><time>2026-05-03T12:08:01.921Z</time></trkpt><trkpt lat="44.1342626" lon="8.1190741"><ele>505.66666666666663</ele><time>2026-05-03T12:08:02.921Z</time></trkpt><trkpt lat="44.1343059" lon="8.1189865"><ele>505.8333333333333</ele><time>2026-05-03T12:08:03.913Z</time></trkpt><trkpt lat="44.1343571" lon="8.1188894"><ele>506.0</ele><time>2026-05-03T12:08:04.913Z</time></trkpt><trkpt lat="44.1344073" lon="8.118783"><ele>505.3333333333333</ele><time>2026-05-03T12:08:05.91Z</time></trkpt><trkpt lat="44.1344535" lon="8.1186759"><ele>504.66666666666663</ele><time>2026-05-03T12:08:06.929Z</time></trkpt><trkpt lat="44.134496" lon="8.1185978"><ele>504.0</ele><time>2026-05-03T12:08:07.924Z</time></trkpt><trkpt lat="44.1345904" lon="8.1185201"><ele>503.33333333333337</ele><time>2026-05-03T12:08:09.915Z</time></trkpt><trkpt lat="44.1346596" lon="8.1185479"><ele>502.6666666666667</ele><time>2026-05-03T12:08:10.917Z</time></trkpt><trkpt lat="44.1347436" lon="8.1185841"><ele>502.0</ele><time>2026-05-03T12:08:11.915Z</time></trkpt><trkpt lat="44.1348288" lon="8.1186378"><ele>503.0</ele><time>2026-05-03T12:08:12.918Z</time></trkpt><trkpt lat="44.1349211" lon="8.1187"><ele>504.00000000000006</ele><time>2026-05-03T12:08:13.914Z</time></trkpt><trkpt lat="44.1350163" lon="8.1187547"><ele>505.00000000000006</ele><time>2026-05-03T12:08:14.924Z</time></trkpt><trkpt lat="44.1351091" lon="8.1187944"><ele>506.0</ele><time>2026-05-03T12:08:15.923Z</time></trkpt><trkpt lat="44.1352051" lon="8.118819"><ele>507.0</ele><time>2026-05-03T12:08:16.912Z</time></trkpt><trkpt lat="44.1353013" lon="8.1188364"><ele>507.0</ele><time>2026-05-03T12:08:17.918Z</time></trkpt><trkpt lat="44.1353896" lon="8.1188473"><ele>507.0</ele><time>2026-05-03T12:08:18.916Z</time></trkpt><trkpt lat="44.1354741" lon="8.1188523"><ele>507.0</ele><time>2026-05-03T12:08:19.925Z</time></trkpt><trkpt lat="44.1355607" lon="8.1188522"><ele>507.0</ele><time>2026-05-03T12:08:20.908Z</time></trkpt><trkpt lat="44.1356477" lon="8.1188406"><ele>507.0</ele><time>2026-05-03T12:08:21.918Z</time></trkpt><trkpt lat="44.1357302" lon="8.1188038"><ele>507.0</ele><time>2026-05-03T12:08:22.915Z</time></trkpt><trkpt lat="44.1358134" lon="8.1187519"><ele>506.6666666666667</ele><time>2026-05-03T12:08:23.913Z</time></trkpt><trkpt lat="44.1358866" lon="8.1187066"><ele>506.33333333333337</ele><time>2026-05-03T12:08:24.916Z</time></trkpt><trkpt lat="44.1359535" lon="8.1186587"><ele>506.0</ele><time>2026-05-03T12:08:25.916Z</time></trkpt><trkpt lat="44.1360205" lon="8.1186123"><ele>505.6666666666667</ele><time>2026-05-03T12:08:26.913Z</time></trkpt><trkpt lat="44.1360926" lon="8.1185704"><ele>505.33333333333337</ele><time>2026-05-03T12:08:27.913Z</time></trkpt><trkpt lat="44.1361815" lon="8.1185468"><ele>505.0</ele><time>2026-05-03T12:08:28.921Z</time></trkpt><trkpt lat="44.1362746" lon="8.1185415"><ele>505.00000000000006</ele><time>2026-05-03T12:08:29.908Z</time></trkpt><trkpt lat="44.1363647" lon="8.1185639"><ele>505.0</ele><time>2026-05-03T12:08:30.91Z</time></trkpt><trkpt lat="44.1364351" lon="8.1186121"><ele>505.0</ele><time>2026-05-03T12:08:31.914Z</time></trkpt><trkpt lat="44.1364888" lon="8.1186823"><ele>505.0</ele><time>2026-05-03T12:08:32.912Z</time></trkpt><trkpt lat="44.1365276" lon="8.1187711"><ele>505.00000000000006</ele><time>2026-05-03T12:08:33.916Z</time></trkpt><trkpt lat="44.1365393" lon="8.1188647"><ele>505.0</ele><time>2026-05-03T12:08:34.911Z</time></trkpt><trkpt lat="44.1365385" lon="8.118984"><ele>511.6</ele><time>2026-05-03T12:08:35.919Z</time></trkpt><trkpt lat="44.1365166" lon="8.1191105"><ele>518.2</ele><time>2026-05-03T12:08:36.911Z</time></trkpt><trkpt lat="44.1364846" lon="8.1192385"><ele>524.8</ele><time>2026-05-03T12:08:37.913Z</time></trkpt><trkpt lat="44.1364483" lon="8.1193618"><ele>531.4</ele><time>2026-05-03T12:08:38.915Z</time></trkpt><trkpt lat="44.1364268" lon="8.119476"><ele>538.0</ele><time>2026-05-03T12:08:39.913Z</time></trkpt><trkpt lat="44.1364227" lon="8.1195936"><ele>538.0</ele><time>2026-05-03T12:08:40.921Z</time></trkpt><trkpt lat="44.1364259" lon="8.1197196"><ele>538.0</ele><time>2026-05-03T12:08:41.923Z</time></trkpt><trkpt lat="44.1364288" lon="8.1198327"><ele>538.0</ele><time>2026-05-03T12:08:42.915Z</time></trkpt><trkpt lat="44.1364278" lon="8.1199223"><ele>538.0</ele><time>2026-05-03T12:08:43.913Z</time></trkpt><trkpt lat="44.1364421" lon="8.1200922"><ele>538.0</ele><time>2026-05-03T12:08:45.919Z</time></trkpt><trkpt lat="44.1364799" lon="8.120175"><ele>538.0</ele><time>2026-05-03T12:08:46.913Z</time></trkpt><trkpt lat="44.1365747" lon="8.1202758"><ele>537.1999999999999</ele><time>2026-05-03T12:08:48.91Z</time></trkpt><trkpt lat="44.1366555" lon="8.1202991"><ele>536.4</ele><time>2026-05-03T12:08:49.917Z</time></trkpt><trkpt lat="44.1367574" lon="8.1203311"><ele>535.5999999999999</ele><time>2026-05-03T12:08:50.911Z</time></trkpt><trkpt lat="44.1368635" lon="8.1203573"><ele>534.8</ele><time>2026-05-03T12:08:51.9Z</time></trkpt><trkpt lat="44.1369656" lon="8.12039"><ele>534.0</ele><time>2026-05-03T12:08:52.911Z</time></trkpt><trkpt lat="44.1370513" lon="8.120411"><ele>534.0000000000001</ele><time>2026-05-03T12:08:53.914Z</time></trkpt><trkpt lat="44.137121" lon="8.1204356"><ele>534.0</ele><time>2026-05-03T12:08:54.921Z</time></trkpt><trkpt lat="44.1371816" lon="8.1204689"><ele>534.0</ele><time>2026-05-03T12:08:55.923Z</time></trkpt><trkpt lat="44.1372483" lon="8.1204957"><ele>534.0</ele><time>2026-05-03T12:08:56.912Z</time></trkpt><trkpt lat="44.1373132" lon="8.120545"><ele>534.0</ele><time>2026-05-03T12:08:57.913Z</time></trkpt><trkpt lat="44.137372" lon="8.1206107"><ele>534.0000000000001</ele><time>2026-05-03T12:08:58.917Z</time></trkpt><trkpt lat="44.1374087" lon="8.1207009"><ele>534.0</ele><time>2026-05-03T12:08:59.922Z</time></trkpt><trkpt lat="44.1374278" lon="8.1207869"><ele>535.8</ele><time>2026-05-03T12:09:00.914Z</time></trkpt><trkpt lat="44.137447" lon="8.1208869"><ele>537.5999999999999</ele><time>2026-05-03T12:09:01.923Z</time></trkpt><trkpt lat="44.1374639" lon="8.1209772"><ele>539.4</ele><time>2026-05-03T12:09:02.919Z</time></trkpt><trkpt lat="44.1375318" lon="8.1211192"><ele>541.1999999999999</ele><time>2026-05-03T12:09:04.913Z</time></trkpt><trkpt lat="44.1376643" lon="8.1211778"><ele>543.0</ele><time>2026-05-03T12:09:06.914Z</time></trkpt><trkpt lat="44.1377689" lon="8.121194"><ele>543.0</ele><time>2026-05-03T12:09:07.915Z</time></trkpt><trkpt lat="44.1378901" lon="8.1212212"><ele>543.0</ele><time>2026-05-03T12:09:08.92Z</time></trkpt><trkpt lat="44.137999" lon="8.1212505"><ele>543.0</ele><time>2026-05-03T12:09:09.909Z</time></trkpt><trkpt lat="44.1380837" lon="8.1212681"><ele>543.0</ele><time>2026-05-03T12:09:10.911Z</time></trkpt><trkpt lat="44.1381597" lon="8.1212891"><ele>543.0</ele><time>2026-05-03T12:09:11.903Z</time></trkpt><trkpt lat="44.1382287" lon="8.1213052"><ele>541.1666666666666</ele><time>2026-05-03T12:09:12.911Z</time></trkpt><trkpt lat="44.1383011" lon="8.121297"><ele>539.3333333333334</ele><time>2026-05-03T12:09:13.921Z</time></trkpt><trkpt lat="44.1383748" lon="8.1212647"><ele>537.5</ele><time>2026-05-03T12:09:14.914Z</time></trkpt><trkpt lat="44.1384494" lon="8.121215"><ele>535.6666666666667</ele><time>2026-05-03T12:09:15.903Z</time></trkpt><trkpt lat="44.1385191" lon="8.1211681"><ele>533.8333333333334</ele><time>2026-05-03T12:09:16.911Z</time></trkpt><trkpt lat="44.138581" lon="8.1211251"><ele>532.0</ele><time>2026-05-03T12:09:17.911Z</time></trkpt><trkpt lat="44.1386545" lon="8.1210778"><ele>532.0</ele><time>2026-05-03T12:09:18.912Z</time></trkpt><trkpt lat="44.1387241" lon="8.1210406"><ele>532.0</ele><time>2026-05-03T12:09:19.914Z</time></trkpt><trkpt lat="44.138792" lon="8.1210128"><ele>532.0</ele><time>2026-05-03T12:09:20.914Z</time></trkpt><trkpt lat="44.1388602" lon="8.1209916"><ele>532.0</ele><time>2026-05-03T12:09:21.914Z</time></trkpt><trkpt lat="44.1389282" lon="8.1209706"><ele>532.0</ele><time>2026-05-03T12:09:22.916Z</time></trkpt><trkpt lat="44.1389973" lon="8.1209344"><ele>532.0</ele><time>2026-05-03T12:09:23.915Z</time></trkpt><trkpt lat="44.1390558" lon="8.1208684"><ele>532.0</ele><time>2026-05-03T12:09:24.912Z</time></trkpt><trkpt lat="44.1390984" lon="8.1207895"><ele>529.5714285714286</ele><time>2026-05-03T12:09:25.908Z</time></trkpt><trkpt lat="44.139136" lon="8.1207182"><ele>527.1428571428571</ele><time>2026-05-03T12:09:26.913Z</time></trkpt><trkpt lat="44.1391846" lon="8.1206511"><ele>524.7142857142858</ele><time>2026-05-03T12:09:27.914Z</time></trkpt><trkpt lat="44.1392388" lon="8.1205851"><ele>522.2857142857142</ele><time>2026-05-03T12:09:28.912Z</time></trkpt><trkpt lat="44.1393053" lon="8.1205202"><ele>519.8571428571429</ele><time>2026-05-03T12:09:29.908Z</time></trkpt><trkpt lat="44.1393769" lon="8.1204771"><ele>517.4285714285714</ele><time>2026-05-03T12:09:30.905Z</time></trkpt><trkpt lat="44.1394545" lon="8.1204462"><ele>515.0</ele><time>2026-05-03T12:09:31.91Z</time></trkpt><trkpt lat="44.1395339" lon="8.1204258"><ele>515.0</ele><time>2026-05-03T12:09:32.916Z</time></trkpt><trkpt lat="44.1396216" lon="8.1204059"><ele>515.0</ele><time>2026-05-03T12:09:33.914Z</time></trkpt><trkpt lat="44.1397122" lon="8.1203668"><ele>515.0</ele><time>2026-05-03T12:09:34.917Z</time></trkpt><trkpt lat="44.139801" lon="8.1203122"><ele>515.0</ele><time>2026-05-03T12:09:35.905Z</time></trkpt><trkpt lat="44.1398827" lon="8.1202433"><ele>515.0</ele><time>2026-05-03T12:09:36.908Z</time></trkpt><trkpt lat="44.1399495" lon="8.1201653"><ele>517.6666666666666</ele><time>2026-05-03T12:09:37.908Z</time></trkpt><trkpt lat="44.1399994" lon="8.120086"><ele>520.3333333333333</ele><time>2026-05-03T12:09:38.916Z</time></trkpt><trkpt lat="44.1400402" lon="8.1200071"><ele>523.0</ele><time>2026-05-03T12:09:39.908Z</time></trkpt><trkpt lat="44.1400765" lon="8.1199261"><ele>525.6666666666666</ele><time>2026-05-03T12:09:40.912Z</time></trkpt><trkpt lat="44.140145" lon="8.1198157"><ele>528.3333333333334</ele><time>2026-05-03T12:09:42.914Z</time></trkpt><trkpt lat="44.1402555" lon="8.1197834"><ele>531.0</ele><time>2026-05-03T12:09:44.932Z</time></trkpt><trkpt lat="44.140354" lon="8.1198693"><ele>533.1666666666666</ele><time>2026-05-03T12:09:46.913Z</time></trkpt><trkpt lat="44.1403819" lon="8.1199587"><ele>535.3333333333334</ele><time>2026-05-03T12:09:47.917Z</time></trkpt><trkpt lat="44.1403913" lon="8.1200509"><ele>537.5</ele><time>2026-05-03T12:09:48.913Z</time></trkpt><trkpt lat="44.1403825" lon="8.1201435"><ele>539.6666666666667</ele><time>2026-05-03T12:09:49.918Z</time></trkpt><trkpt lat="44.1403609" lon="8.1202295"><ele>541.8333333333334</ele><time>2026-05-03T12:09:50.919Z</time></trkpt><trkpt lat="44.1403262" lon="8.1203893"><ele>544.0</ele><time>2026-05-03T12:09:52.922Z</time></trkpt><trkpt lat="44.1403317" lon="8.1205663"><ele>544.0</ele><time>2026-05-03T12:09:54.92Z</time></trkpt><trkpt lat="44.1403559" lon="8.1206496"><ele>544.0</ele><time>2026-05-03T12:09:55.926Z</time></trkpt><trkpt lat="44.1403818" lon="8.1207349"><ele>544.0</ele><time>2026-05-03T12:09:56.922Z</time></trkpt><trkpt lat="44.1404121" lon="8.1209084"><ele>544.0</ele><time>2026-05-03T12:09:58.918Z</time></trkpt><trkpt lat="44.1404" lon="8.1210073"><ele>544.0</ele><time>2026-05-03T12:09:59.915Z</time></trkpt><trkpt lat="44.1403685" lon="8.1211386"><ele>544.0</ele><time>2026-05-03T12:10:00.91Z</time></trkpt><trkpt lat="44.1403322" lon="8.1213183"><ele>550.4</ele><time>2026-05-03T12:10:01.906Z</time></trkpt><trkpt lat="44.1402994" lon="8.1214999"><ele>556.8</ele><time>2026-05-03T12:10:02.916Z</time></trkpt><trkpt lat="44.1402688" lon="8.1216495"><ele>563.2</ele><time>2026-05-03T12:10:03.911Z</time></trkpt><trkpt lat="44.1402385" lon="8.1217656"><ele>569.6</ele><time>2026-05-03T12:10:04.916Z</time></trkpt><trkpt lat="44.1402175" lon="8.1218692"><ele>576.0</ele><time>2026-05-03T12:10:05.908Z</time></trkpt><trkpt lat="44.1402014" lon="8.1219679"><ele>577.2857142857143</ele><time>2026-05-03T12:10:06.915Z</time></trkpt><trkpt lat="44.1401895" lon="8.1220644"><ele>578.5714285714286</ele><time>2026-05-03T12:10:07.902Z</time></trkpt><trkpt lat="44.1401762" lon="8.1221658"><ele>579.8571428571429</ele><time>2026-05-03T12:10:08.91Z</time></trkpt><trkpt lat="44.1401614" lon="8.1222709"><ele>581.1428571428571</ele><time>2026-05-03T12:10:09.92Z</time></trkpt><trkpt lat="44.1401425" lon="8.1223679"><ele>582.4285714285714</ele><time>2026-05-03T12:10:10.919Z</time></trkpt><trkpt lat="44.1401051" lon="8.1224564"><ele>583.7142857142858</ele><time>2026-05-03T12:10:11.912Z</time></trkpt><trkpt lat="44.1400693" lon="8.1225491"><ele>585.0</ele><time>2026-05-03T12:10:12.902Z</time></trkpt><trkpt lat="44.1400454" lon="8.1226465"><ele>585.0</ele><time>2026-05-03T12:10:13.915Z</time></trkpt><trkpt lat="44.1400405" lon="8.1227464"><ele>585.0</ele><time>2026-05-03T12:10:14.911Z</time></trkpt><trkpt lat="44.1400389" lon="8.1228416"><ele>585.0</ele><time>2026-05-03T12:10:15.909Z</time></trkpt><trkpt lat="44.1400267" lon="8.1229402"><ele>585.0</ele><time>2026-05-03T12:10:16.907Z</time></trkpt><trkpt lat="44.1399946" lon="8.1230413"><ele>585.0</ele><time>2026-05-03T12:10:17.922Z</time></trkpt><trkpt lat="44.1399436" lon="8.1231276"><ele>585.0</ele><time>2026-05-03T12:10:18.905Z</time></trkpt><trkpt lat="44.1398693" lon="8.1232039"><ele>588.8333333333334</ele><time>2026-05-03T12:10:19.905Z</time></trkpt><trkpt lat="44.1397892" lon="8.1232628"><ele>592.6666666666666</ele><time>2026-05-03T12:10:20.907Z</time></trkpt><trkpt lat="44.1397156" lon="8.1233139"><ele>596.5</ele><time>2026-05-03T12:10:21.913Z</time></trkpt><trkpt lat="44.1396415" lon="8.1233693"><ele>600.3333333333333</ele><time>2026-05-03T12:10:22.914Z</time></trkpt><trkpt lat="44.1395729" lon="8.1234304"><ele>604.1666666666666</ele><time>2026-05-03T12:10:23.911Z</time></trkpt><trkpt lat="44.1395218" lon="8.1235016"><ele>608.0</ele><time>2026-05-03T12:10:24.918Z</time></trkpt><trkpt lat="44.1394919" lon="8.1235894"><ele>608.0</ele><time>2026-05-03T12:10:25.915Z</time></trkpt><trkpt lat="44.139474" lon="8.1237162"><ele>608.0</ele><time>2026-05-03T12:10:26.906Z</time></trkpt><trkpt lat="44.1394631" lon="8.1238317"><ele>608.0</ele><time>2026-05-03T12:10:27.911Z</time></trkpt><trkpt lat="44.1394516" lon="8.1239275"><ele>608.0</ele><time>2026-05-03T12:10:28.918Z</time></trkpt><trkpt lat="44.1394559" lon="8.1240198"><ele>608.0</ele><time>2026-05-03T12:10:29.918Z</time></trkpt><trkpt lat="44.139479" lon="8.1241228"><ele>608.0</ele><time>2026-05-03T12:10:30.911Z</time></trkpt><trkpt lat="44.1395149" lon="8.1242258"><ele>607.1666666666666</ele><time>2026-05-03T12:10:31.916Z</time></trkpt><trkpt lat="44.1395423" lon="8.1243174"><ele>606.3333333333333</ele><time>2026-05-03T12:10:32.918Z</time></trkpt><trkpt lat="44.1395634" lon="8.1244055"><ele>605.5</ele><time>2026-05-03T12:10:33.921Z</time></trkpt><trkpt lat="44.1395643" lon="8.1244943"><ele>604.6666666666666</ele><time>2026-05-03T12:10:34.932Z</time></trkpt><trkpt lat="44.1395509" lon="8.1246508"><ele>603.8333333333334</ele><time>2026-05-03T12:10:36.916Z</time></trkpt><trkpt lat="44.1395235" lon="8.1247361"><ele>603.0</ele><time>2026-05-03T12:10:37.917Z</time></trkpt><trkpt lat="44.1394932" lon="8.1248301"><ele>602.0</ele><time>2026-05-03T12:10:38.925Z</time></trkpt><trkpt lat="44.1394447" lon="8.1249418"><ele>601.0</ele><time>2026-05-03T12:10:39.92Z</time></trkpt><trkpt lat="44.1393899" lon="8.1250873"><ele>600.0</ele><time>2026-05-03T12:10:40.915Z</time></trkpt><trkpt lat="44.1393132" lon="8.1252154"><ele>599.0</ele><time>2026-05-03T12:10:41.943Z</time></trkpt><trkpt lat="44.1392287" lon="8.1253387"><ele>599.0</ele><time>2026-05-03T12:10:42.912Z</time></trkpt><trkpt lat="44.1391704" lon="8.1254467"><ele>599.0</ele><time>2026-05-03T12:10:43.914Z</time></trkpt><trkpt lat="44.1391208" lon="8.1255471"><ele>599.0</ele><time>2026-05-03T12:10:44.916Z</time></trkpt><trkpt lat="44.1390749" lon="8.1256506"><ele>599.0</ele><time>2026-05-03T12:10:45.91Z</time></trkpt><trkpt lat="44.1390411" lon="8.1257652"><ele>599.0</ele><time>2026-05-03T12:10:46.918Z</time></trkpt><trkpt lat="44.1390128" lon="8.1258827"><ele>597.3333333333333</ele><time>2026-05-03T12:10:47.912Z</time></trkpt><trkpt lat="44.1389937" lon="8.1259981"><ele>595.6666666666666</ele><time>2026-05-03T12:10:48.928Z</time></trkpt><trkpt lat="44.1389839" lon="8.126112"><ele>594.0</ele><time>2026-05-03T12:10:49.918Z</time></trkpt><trkpt lat="44.138992" lon="8.1262279"><ele>592.3333333333334</ele><time>2026-05-03T12:10:50.92Z</time></trkpt><trkpt lat="44.1390191" lon="8.1263496"><ele>590.6666666666667</ele><time>2026-05-03T12:10:51.915Z</time></trkpt><trkpt lat="44.1390521" lon="8.1264557"><ele>589.0</ele><time>2026-05-03T12:10:52.917Z</time></trkpt><trkpt lat="44.1390962" lon="8.1265541"><ele>589.3333333333334</ele><time>2026-05-03T12:10:53.916Z</time></trkpt><trkpt lat="44.1391435" lon="8.1266393"><ele>589.6666666666667</ele><time>2026-05-03T12:10:54.914Z</time></trkpt><trkpt lat="44.1392039" lon="8.1267178"><ele>590.0</ele><time>2026-05-03T12:10:55.909Z</time></trkpt><trkpt lat="44.1392615" lon="8.126803"><ele>590.3333333333334</ele><time>2026-05-03T12:10:56.912Z</time></trkpt><trkpt lat="44.1393063" lon="8.1269003"><ele>590.6666666666666</ele><time>2026-05-03T12:10:57.914Z</time></trkpt><trkpt lat="44.1393388" lon="8.127004"><ele>591.0</ele><time>2026-05-03T12:10:58.929Z</time></trkpt><trkpt lat="44.1393549" lon="8.1271167"><ele>591.0</ele><time>2026-05-03T12:10:59.922Z</time></trkpt><trkpt lat="44.1393539" lon="8.1272259"><ele>591.0</ele><time>2026-05-03T12:11:00.92Z</time></trkpt><trkpt lat="44.139354" lon="8.1273413"><ele>591.0</ele><time>2026-05-03T12:11:01.924Z</time></trkpt><trkpt lat="44.1393506" lon="8.1274521"><ele>591.0</ele><time>2026-05-03T12:11:02.924Z</time></trkpt><trkpt lat="44.1393399" lon="8.127555"><ele>591.0</ele><time>2026-05-03T12:11:03.93Z</time></trkpt><trkpt lat="44.1393166" lon="8.1276726"><ele>591.0</ele><time>2026-05-03T12:11:04.915Z</time></trkpt><trkpt lat="44.1392845" lon="8.1277803"><ele>591.8333333333334</ele><time>2026-05-03T12:11:05.914Z</time></trkpt><trkpt lat="44.1392482" lon="8.1278962"><ele>592.6666666666666</ele><time>2026-05-03T12:11:06.914Z</time></trkpt><trkpt lat="44.1392134" lon="8.1280008"><ele>593.5</ele><time>2026-05-03T12:11:07.917Z</time></trkpt><trkpt lat="44.1391777" lon="8.1281028"><ele>594.3333333333333</ele><time>2026-05-03T12:11:08.925Z</time></trkpt><trkpt lat="44.1391329" lon="8.1281988"><ele>595.1666666666666</ele><time>2026-05-03T12:11:09.914Z</time></trkpt><trkpt lat="44.1390844" lon="8.1282708"><ele>596.0</ele><time>2026-05-03T12:11:10.921Z</time></trkpt><trkpt lat="44.1390353" lon="8.1283537"><ele>600.6</ele><time>2026-05-03T12:11:11.916Z</time></trkpt><trkpt lat="44.1389861" lon="8.1284268"><ele>605.2</ele><time>2026-05-03T12:11:12.907Z</time></trkpt><trkpt lat="44.1389159" lon="8.1285238"><ele>609.8</ele><time>2026-05-03T12:11:14.921Z</time></trkpt><trkpt lat="44.1388673" lon="8.1286275"><ele>614.4</ele><time>2026-05-03T12:11:16.916Z</time></trkpt><trkpt lat="44.138823" lon="8.1287391"><ele>619.0</ele><time>2026-05-03T12:11:18.92Z</time></trkpt><trkpt lat="44.1388327" lon="8.1288882"><ele>619.0</ele><time>2026-05-03T12:11:20.916Z</time></trkpt><trkpt lat="44.1388944" lon="8.1290384"><ele>619.0</ele><time>2026-05-03T12:11:22.925Z</time></trkpt><trkpt lat="44.1389465" lon="8.1291134"><ele>619.0</ele><time>2026-05-03T12:11:23.918Z</time></trkpt><trkpt lat="44.139008" lon="8.1291784"><ele>619.0</ele><time>2026-05-03T12:11:24.92Z</time></trkpt><trkpt lat="44.1390813" lon="8.1292292"><ele>619.0</ele><time>2026-05-03T12:11:25.918Z</time></trkpt><trkpt lat="44.1391672" lon="8.1292548"><ele>619.0</ele><time>2026-05-03T12:11:26.916Z</time></trkpt><trkpt lat="44.1392665" lon="8.129263"><ele>616.0</ele><time>2026-05-03T12:11:27.916Z</time></trkpt><trkpt lat="44.1393821" lon="8.1292559"><ele>613.0</ele><time>2026-05-03T12:11:28.924Z</time></trkpt><trkpt lat="44.1395023" lon="8.1292382"><ele>610.0</ele><time>2026-05-03T12:11:29.916Z</time></trkpt><trkpt lat="44.1396224" lon="8.1292101"><ele>607.0</ele><time>2026-05-03T12:11:30.92Z</time></trkpt><trkpt lat="44.1397228" lon="8.129174"><ele>607.0</ele><time>2026-05-03T12:11:31.916Z</time></trkpt><trkpt lat="44.139805" lon="8.1291427"><ele>607.0</ele><time>2026-05-03T12:11:32.913Z</time></trkpt><trkpt lat="44.1398765" lon="8.1291204"><ele>607.0</ele><time>2026-05-03T12:11:33.917Z</time></trkpt><trkpt lat="44.1399904" lon="8.1291448"><ele>607.0</ele><time>2026-05-03T12:11:35.918Z</time></trkpt><trkpt lat="44.1400598" lon="8.1292881"><ele>607.0</ele><time>2026-05-03T12:11:37.928Z</time></trkpt><trkpt lat="44.1400832" lon="8.1293773"><ele>606.5</ele><time>2026-05-03T12:11:38.924Z</time></trkpt><trkpt lat="44.1401168" lon="8.1294754"><ele>606.0</ele><time>2026-05-03T12:11:39.914Z</time></trkpt><trkpt lat="44.1401674" lon="8.1295617"><ele>605.5</ele><time>2026-05-03T12:11:40.919Z</time></trkpt><trkpt lat="44.1402309" lon="8.1296428"><ele>605.0</ele><time>2026-05-03T12:11:41.922Z</time></trkpt><trkpt lat="44.1403039" lon="8.129703"><ele>604.5</ele><time>2026-05-03T12:11:42.923Z</time></trkpt><trkpt lat="44.1403799" lon="8.1297438"><ele>604.0</ele><time>2026-05-03T12:11:43.932Z</time></trkpt><trkpt lat="44.140454" lon="8.1297435"><ele>604.0</ele><time>2026-05-03T12:11:44.915Z</time></trkpt><trkpt lat="44.1405366" lon="8.1297222"><ele>604.0</ele><time>2026-05-03T12:11:45.923Z</time></trkpt><trkpt lat="44.1406462" lon="8.1296776"><ele>604.0</ele><time>2026-05-03T12:11:46.913Z</time></trkpt><trkpt lat="44.1407648" lon="8.1296169"><ele>604.0</ele><time>2026-05-03T12:11:47.917Z</time></trkpt><trkpt lat="44.1408706" lon="8.1295831"><ele>604.0</ele><time>2026-05-03T12:11:48.919Z</time></trkpt><trkpt lat="44.1409623" lon="8.1295456"><ele>604.25</ele><time>2026-05-03T12:11:49.915Z</time></trkpt><trkpt lat="44.1410482" lon="8.129497"><ele>604.5</ele><time>2026-05-03T12:11:50.924Z</time></trkpt><trkpt lat="44.1411368" lon="8.1293822"><ele>604.75</ele><time>2026-05-03T12:11:51.917Z</time></trkpt><trkpt lat="44.1412443" lon="8.1292149"><ele>605.0</ele><time>2026-05-03T12:11:52.916Z</time></trkpt><trkpt lat="44.1413292" lon="8.1290455"><ele>605.2</ele><time>2026-05-03T12:11:53.911Z</time></trkpt><trkpt lat="44.1413967" lon="8.1289001"><ele>605.4</ele><time>2026-05-03T12:11:54.922Z</time></trkpt><trkpt lat="44.1414714" lon="8.1288194"><ele>605.6</ele><time>2026-05-03T12:11:55.923Z</time></trkpt><trkpt lat="44.1415614" lon="8.1287646"><ele>605.8</ele><time>2026-05-03T12:11:56.927Z</time></trkpt><trkpt lat="44.1416552" lon="8.128754"><ele>606.0</ele><time>2026-05-03T12:11:57.922Z</time></trkpt><trkpt lat="44.1417535" lon="8.1287828"><ele>606.0</ele><time>2026-05-03T12:11:58.915Z</time></trkpt><trkpt lat="44.1418474" lon="8.128846"><ele>606.0</ele><time>2026-05-03T12:11:59.915Z</time></trkpt><trkpt lat="44.1419239" lon="8.1289131"><ele>606.0</ele><time>2026-05-03T12:12:00.923Z</time></trkpt><trkpt lat="44.1419918" lon="8.1290014"><ele>606.0</ele><time>2026-05-03T12:12:01.922Z</time></trkpt><trkpt lat="44.1420423" lon="8.1290979"><ele>606.0</ele><time>2026-05-03T12:12:02.924Z</time></trkpt><trkpt lat="44.1420854" lon="8.129203"><ele>608.1666666666666</ele><time>2026-05-03T12:12:03.924Z</time></trkpt><trkpt lat="44.1421317" lon="8.1293066"><ele>610.3333333333334</ele><time>2026-05-03T12:12:04.928Z</time></trkpt><trkpt lat="44.1421847" lon="8.1293812"><ele>612.5</ele><time>2026-05-03T12:12:05.913Z</time></trkpt><trkpt lat="44.1422439" lon="8.1294391"><ele>614.6666666666667</ele><time>2026-05-03T12:12:06.914Z</time></trkpt><trkpt lat="44.1423635" lon="8.1294579"><ele>616.8333333333334</ele><time>2026-05-03T12:12:08.921Z</time></trkpt><trkpt lat="44.1424285" lon="8.1294267"><ele>619.0</ele><time>2026-05-03T12:12:09.924Z</time></trkpt><trkpt lat="44.1425006" lon="8.1294054"><ele>619.3333333333334</ele><time>2026-05-03T12:12:10.915Z</time></trkpt><trkpt lat="44.1425789" lon="8.1293797"><ele>619.6666666666667</ele><time>2026-05-03T12:12:11.913Z</time></trkpt><trkpt lat="44.1426551" lon="8.1293605"><ele>620.0</ele><time>2026-05-03T12:12:12.918Z</time></trkpt><trkpt lat="44.1427378" lon="8.1293559"><ele>620.3333333333334</ele><time>2026-05-03T12:12:13.909Z</time></trkpt><trkpt lat="44.1428159" lon="8.1293947"><ele>620.6666666666666</ele><time>2026-05-03T12:12:14.92Z</time></trkpt><trkpt lat="44.1428805" lon="8.1294597"><ele>621.0</ele><time>2026-05-03T12:12:15.918Z</time></trkpt><trkpt lat="44.1429483" lon="8.1295156"><ele>621.0</ele><time>2026-05-03T12:12:16.911Z</time></trkpt><trkpt lat="44.1430128" lon="8.1295793"><ele>621.0</ele><time>2026-05-03T12:12:17.92Z</time></trkpt><trkpt lat="44.143079" lon="8.1296356"><ele>621.0</ele><time>2026-05-03T12:12:18.918Z</time></trkpt><trkpt lat="44.1431396" lon="8.1296758"><ele>621.0</ele><time>2026-05-03T12:12:19.928Z</time></trkpt><trkpt lat="44.1432624" lon="8.1296925"><ele>621.0</ele><time>2026-05-03T12:12:21.917Z</time></trkpt><trkpt lat="44.1433319" lon="8.1296823"><ele>621.0</ele><time>2026-05-03T12:12:22.925Z</time></trkpt><trkpt lat="44.1434138" lon="8.1296783"><ele>621.0</ele><time>2026-05-03T12:12:23.917Z</time></trkpt><trkpt lat="44.1435004" lon="8.1296865"><ele>621.0</ele><time>2026-05-03T12:12:24.932Z</time></trkpt><trkpt lat="44.1435847" lon="8.1297142"><ele>621.0</ele><time>2026-05-03T12:12:25.925Z</time></trkpt><trkpt lat="44.1436678" lon="8.1297474"><ele>621.0</ele><time>2026-05-03T12:12:26.937Z</time></trkpt><trkpt lat="44.1437565" lon="8.129778"><ele>621.0</ele><time>2026-05-03T12:12:27.927Z</time></trkpt><trkpt lat="44.1438533" lon="8.1298134"><ele>621.0</ele><time>2026-05-03T12:12:28.931Z</time></trkpt><trkpt lat="44.1439517" lon="8.1298442"><ele>621.0</ele><time>2026-05-03T12:12:29.924Z</time></trkpt><trkpt lat="44.1440509" lon="8.1298377"><ele>621.0</ele><time>2026-05-03T12:12:30.919Z</time></trkpt><trkpt lat="44.1441529" lon="8.129795"><ele>621.0</ele><time>2026-05-03T12:12:31.925Z</time></trkpt><trkpt lat="44.1442484" lon="8.1297262"><ele>621.0</ele><time>2026-05-03T12:12:32.929Z</time></trkpt><trkpt lat="44.1443425" lon="8.12967"><ele>620.5</ele><time>2026-05-03T12:12:33.918Z</time></trkpt><trkpt lat="44.144429" lon="8.1296309"><ele>620.0</ele><time>2026-05-03T12:12:34.927Z</time></trkpt><trkpt lat="44.1445037" lon="8.1296181"><ele>619.5</ele><time>2026-05-03T12:12:35.928Z</time></trkpt><trkpt lat="44.1445751" lon="8.1296334"><ele>619.0</ele><time>2026-05-03T12:12:36.919Z</time></trkpt><trkpt lat="44.1446448" lon="8.12968"><ele>618.5</ele><time>2026-05-03T12:12:37.93Z</time></trkpt><trkpt lat="44.1447212" lon="8.1297587"><ele>618.0</ele><time>2026-05-03T12:12:38.924Z</time></trkpt><trkpt lat="44.1448035" lon="8.1298489"><ele>620.8333333333334</ele><time>2026-05-03T12:12:39.928Z</time></trkpt><trkpt lat="44.1448759" lon="8.1299357"><ele>623.6666666666666</ele><time>2026-05-03T12:12:40.918Z</time></trkpt><trkpt lat="44.1449453" lon="8.1300189"><ele>626.5</ele><time>2026-05-03T12:12:41.924Z</time></trkpt><trkpt lat="44.1450121" lon="8.130096"><ele>629.3333333333333</ele><time>2026-05-03T12:12:42.92Z</time></trkpt><trkpt lat="44.145077" lon="8.130158"><ele>632.1666666666666</ele><time>2026-05-03T12:12:43.927Z</time></trkpt><trkpt lat="44.145133" lon="8.1302147"><ele>635.0</ele><time>2026-05-03T12:12:44.915Z</time></trkpt><trkpt lat="44.1451991" lon="8.1302559"><ele>635.5</ele><time>2026-05-03T12:12:45.925Z</time></trkpt><trkpt lat="44.1452776" lon="8.1302582"><ele>636.0</ele><time>2026-05-03T12:12:46.914Z</time></trkpt><trkpt lat="44.1453483" lon="8.1302352"><ele>636.5</ele><time>2026-05-03T12:12:47.918Z</time></trkpt><trkpt lat="44.1454148" lon="8.1301796"><ele>637.0</ele><time>2026-05-03T12:12:48.92Z</time></trkpt><trkpt lat="44.1454614" lon="8.1300962"><ele>637.5</ele><time>2026-05-03T12:12:49.92Z</time></trkpt><trkpt lat="44.1454917" lon="8.129988"><ele>638.0</ele><time>2026-05-03T12:12:50.912Z</time></trkpt><trkpt lat="44.1454919" lon="8.1298786"><ele>636.0</ele><time>2026-05-03T12:12:51.913Z</time></trkpt><trkpt lat="44.1454846" lon="8.1297662"><ele>634.0</ele><time>2026-05-03T12:12:52.913Z</time></trkpt><trkpt lat="44.1454832" lon="8.1296453"><ele>632.0</ele><time>2026-05-03T12:12:53.926Z</time></trkpt><trkpt lat="44.1455038" lon="8.129527"><ele>630.0</ele><time>2026-05-03T12:12:54.927Z</time></trkpt><trkpt lat="44.1455456" lon="8.1294188"><ele>628.0</ele><time>2026-05-03T12:12:55.918Z</time></trkpt><trkpt lat="44.1455994" lon="8.1293118"><ele>626.0</ele><time>2026-05-03T12:12:56.917Z</time></trkpt><trkpt lat="44.1456758" lon="8.1291951"><ele>627.75</ele><time>2026-05-03T12:12:57.919Z</time></trkpt><trkpt lat="44.1457676" lon="8.1290654"><ele>629.5</ele><time>2026-05-03T12:12:58.917Z</time></trkpt><trkpt lat="44.1458641" lon="8.128963"><ele>631.25</ele><time>2026-05-03T12:12:59.927Z</time></trkpt><trkpt lat="44.1459675" lon="8.1288778"><ele>633.0</ele><time>2026-05-03T12:13:00.924Z</time></trkpt><trkpt lat="44.1460701" lon="8.1287981"><ele>633.0</ele><time>2026-05-03T12:13:01.923Z</time></trkpt><trkpt lat="44.1461662" lon="8.1287195"><ele>633.0</ele><time>2026-05-03T12:13:02.921Z</time></trkpt><trkpt lat="44.1462559" lon="8.1286321"><ele>633.0</ele><time>2026-05-03T12:13:03.922Z</time></trkpt><trkpt lat="44.1463404" lon="8.1285071"><ele>633.0</ele><time>2026-05-03T12:13:04.922Z</time></trkpt><trkpt lat="44.1464195" lon="8.1283565"><ele>631.5</ele><time>2026-05-03T12:13:05.922Z</time></trkpt><trkpt lat="44.1465008" lon="8.1281972"><ele>630.0</ele><time>2026-05-03T12:13:06.92Z</time></trkpt><trkpt lat="44.1465787" lon="8.1280337"><ele>628.5</ele><time>2026-05-03T12:13:07.913Z</time></trkpt><trkpt lat="44.1466622" lon="8.1278587"><ele>627.0</ele><time>2026-05-03T12:13:08.924Z</time></trkpt><trkpt lat="44.1467516" lon="8.1276726"><ele>632.6666666666666</ele><time>2026-05-03T12:13:09.912Z</time></trkpt><trkpt lat="44.1468551" lon="8.1274902"><ele>638.3333333333333</ele><time>2026-05-03T12:13:10.916Z</time></trkpt><trkpt lat="44.1469572" lon="8.1273228"><ele>644.0</ele><time>2026-05-03T12:13:11.913Z</time></trkpt><trkpt lat="44.1470522" lon="8.1271592"><ele>644.0</ele><time>2026-05-03T12:13:12.919Z</time></trkpt><trkpt lat="44.1471435" lon="8.1270169"><ele>644.0</ele><time>2026-05-03T12:13:13.917Z</time></trkpt><trkpt lat="44.1472315" lon="8.1268704"><ele>644.0</ele><time>2026-05-03T12:13:14.92Z</time></trkpt><trkpt lat="44.1473208" lon="8.1267313"><ele>644.0</ele><time>2026-05-03T12:13:15.917Z</time></trkpt><trkpt lat="44.1473963" lon="8.1266057"><ele>646.2</ele><time>2026-05-03T12:13:16.916Z</time></trkpt><trkpt lat="44.1474612" lon="8.1264927"><ele>648.4000000000001</ele><time>2026-05-03T12:13:17.917Z</time></trkpt><trkpt lat="44.147517" lon="8.1263814"><ele>650.6</ele><time>2026-05-03T12:13:18.918Z</time></trkpt><trkpt lat="44.1475513" lon="8.1262674"><ele>652.8</ele><time>2026-05-03T12:13:19.918Z</time></trkpt><trkpt lat="44.1475613" lon="8.1261488"><ele>655.0</ele><time>2026-05-03T12:13:20.924Z</time></trkpt><trkpt lat="44.1475584" lon="8.1260138"><ele>655.0</ele><time>2026-05-03T12:13:21.913Z</time></trkpt><trkpt lat="44.1475402" lon="8.1258207"><ele>655.0</ele><time>2026-05-03T12:13:22.92Z</time></trkpt><trkpt lat="44.1475178" lon="8.1255754"><ele>655.0</ele><time>2026-05-03T12:13:23.914Z</time></trkpt><trkpt lat="44.1475148" lon="8.125363"><ele>655.0</ele><time>2026-05-03T12:13:24.914Z</time></trkpt><trkpt lat="44.1475226" lon="8.1251941"><ele>655.0</ele><time>2026-05-03T12:13:25.923Z</time></trkpt><trkpt lat="44.1475833" lon="8.1250247"><ele>655.0</ele><time>2026-05-03T12:13:26.912Z</time></trkpt><trkpt lat="44.1476722" lon="8.1248869"><ele>655.0</ele><time>2026-05-03T12:13:27.91Z</time></trkpt><trkpt lat="44.1477483" lon="8.1247654"><ele>655.25</ele><time>2026-05-03T12:13:28.918Z</time></trkpt><trkpt lat="44.1477957" lon="8.1246277"><ele>655.5</ele><time>2026-05-03T12:13:29.91Z</time></trkpt><trkpt lat="44.1478032" lon="8.1244382"><ele>655.75</ele><time>2026-05-03T12:13:30.916Z</time></trkpt><trkpt lat="44.147785" lon="8.1242511"><ele>656.0</ele><time>2026-05-03T12:13:31.91Z</time></trkpt><trkpt lat="44.147755" lon="8.1240825"><ele>656.75</ele><time>2026-05-03T12:13:32.912Z</time></trkpt><trkpt lat="44.1477427" lon="8.1239145"><ele>657.5</ele><time>2026-05-03T12:13:33.925Z</time></trkpt><trkpt lat="44.1477703" lon="8.1237664"><ele>658.25</ele><time>2026-05-03T12:13:34.915Z</time></trkpt><trkpt lat="44.1478266" lon="8.1236155"><ele>659.0</ele><time>2026-05-03T12:13:35.921Z</time></trkpt><trkpt lat="44.1479323" lon="8.1234946"><ele>659.0</ele><time>2026-05-03T12:13:36.911Z</time></trkpt><trkpt lat="44.1480399" lon="8.1234049"><ele>659.0</ele><time>2026-05-03T12:13:37.923Z</time></trkpt><trkpt lat="44.1481445" lon="8.1233567"><ele>659.0</ele><time>2026-05-03T12:13:38.913Z</time></trkpt><trkpt lat="44.1482576" lon="8.1233724"><ele>659.0</ele><time>2026-05-03T12:13:39.916Z</time></trkpt><trkpt lat="44.1483665" lon="8.1234422"><ele>660.25</ele><time>2026-05-03T12:13:40.916Z</time></trkpt><trkpt lat="44.1484402" lon="8.1235427"><ele>661.5</ele><time>2026-05-03T12:13:41.922Z</time></trkpt><trkpt lat="44.1484871" lon="8.1236905"><ele>662.75</ele><time>2026-05-03T12:13:42.915Z</time></trkpt><trkpt lat="44.1485061" lon="8.123861"><ele>664.0</ele><time>2026-05-03T12:13:43.932Z</time></trkpt><trkpt lat="44.1484822" lon="8.1240307"><ele>665.25</ele><time>2026-05-03T12:13:44.908Z</time></trkpt><trkpt lat="44.1484255" lon="8.1242078"><ele>666.5</ele><time>2026-05-03T12:13:45.923Z</time></trkpt><trkpt lat="44.1483763" lon="8.1243819"><ele>667.75</ele><time>2026-05-03T12:13:46.912Z</time></trkpt><trkpt lat="44.1483432" lon="8.1245564"><ele>669.0</ele><time>2026-05-03T12:13:47.916Z</time></trkpt><trkpt lat="44.1483238" lon="8.1247425"><ele>669.5</ele><time>2026-05-03T12:13:48.922Z</time></trkpt><trkpt lat="44.1483097" lon="8.1249206"><ele>670.0</ele><time>2026-05-03T12:13:49.93Z</time></trkpt><trkpt lat="44.1483048" lon="8.1250899"><ele>670.5</ele><time>2026-05-03T12:13:50.919Z</time></trkpt><trkpt lat="44.1483212" lon="8.1252452"><ele>671.0</ele><time>2026-05-03T12:13:51.919Z</time></trkpt><trkpt lat="44.1483595" lon="8.1254005"><ele>671.0</ele><time>2026-05-03T12:13:52.918Z</time></trkpt><trkpt lat="44.1483864" lon="8.1255412"><ele>671.0</ele><time>2026-05-03T12:13:53.917Z</time></trkpt><trkpt lat="44.1484013" lon="8.1256834"><ele>671.0</ele><time>2026-05-03T12:13:54.919Z</time></trkpt><trkpt lat="44.1484078" lon="8.1258203"><ele>671.0</ele><time>2026-05-03T12:13:55.93Z</time></trkpt><trkpt lat="44.1484044" lon="8.1259655"><ele>671.0</ele><time>2026-05-03T12:13:56.908Z</time></trkpt><trkpt lat="44.1484063" lon="8.126122"><ele>671.5</ele><time>2026-05-03T12:13:57.917Z</time></trkpt><trkpt lat="44.1484208" lon="8.1262782"><ele>672.0</ele><time>2026-05-03T12:13:58.918Z</time></trkpt><trkpt lat="44.1484398" lon="8.1264386"><ele>672.5</ele><time>2026-05-03T12:13:59.918Z</time></trkpt><trkpt lat="44.1484578" lon="8.1265921"><ele>673.0</ele><time>2026-05-03T12:14:00.912Z</time></trkpt><trkpt lat="44.1484528" lon="8.126752"><ele>673.25</ele><time>2026-05-03T12:14:01.912Z</time></trkpt><trkpt lat="44.1484315" lon="8.1269237"><ele>673.5</ele><time>2026-05-03T12:14:02.917Z</time></trkpt><trkpt lat="44.1483932" lon="8.1270993"><ele>673.75</ele><time>2026-05-03T12:14:03.927Z</time></trkpt><trkpt lat="44.1483462" lon="8.1272612"><ele>674.0</ele><time>2026-05-03T12:14:04.918Z</time></trkpt><trkpt lat="44.1482981" lon="8.1274126"><ele>672.6</ele><time>2026-05-03T12:14:05.914Z</time></trkpt><trkpt lat="44.1482419" lon="8.1275578"><ele>671.2</ele><time>2026-05-03T12:14:06.922Z</time></trkpt><trkpt lat="44.1481723" lon="8.1276882"><ele>669.8000000000001</ele><time>2026-05-03T12:14:07.915Z</time></trkpt><trkpt lat="44.1480841" lon="8.1277567"><ele>668.4000000000001</ele><time>2026-05-03T12:14:08.922Z</time></trkpt><trkpt lat="44.14798" lon="8.1277722"><ele>667.0</ele><time>2026-05-03T12:14:09.922Z</time></trkpt><trkpt lat="44.1478827" lon="8.1278029"><ele>667.0</ele><time>2026-05-03T12:14:10.928Z</time></trkpt><trkpt lat="44.1478039" lon="8.1279021"><ele>667.0</ele><time>2026-05-03T12:14:11.923Z</time></trkpt><trkpt lat="44.1477237" lon="8.1280269"><ele>667.0</ele><time>2026-05-03T12:14:12.914Z</time></trkpt><trkpt lat="44.1476687" lon="8.1281918"><ele>667.0</ele><time>2026-05-03T12:14:13.918Z</time></trkpt><trkpt lat="44.1476075" lon="8.1283542"><ele>665.0</ele><time>2026-05-03T12:14:14.913Z</time></trkpt><trkpt lat="44.1475407" lon="8.128528"><ele>663.0</ele><time>2026-05-03T12:14:15.914Z</time></trkpt><trkpt lat="44.1474735" lon="8.1286824"><ele>661.0</ele><time>2026-05-03T12:14:16.921Z</time></trkpt><trkpt lat="44.1474163" lon="8.1288392"><ele>659.0</ele><time>2026-05-03T12:14:17.921Z</time></trkpt><trkpt lat="44.1473556" lon="8.1289906"><ele>661.8000000000001</ele><time>2026-05-03T12:14:18.92Z</time></trkpt><trkpt lat="44.1473044" lon="8.1291238"><ele>664.6</ele><time>2026-05-03T12:14:19.91Z</time></trkpt><trkpt lat="44.147251" lon="8.1292506"><ele>667.4</ele><time>2026-05-03T12:14:20.918Z</time></trkpt><trkpt lat="44.1472173" lon="8.1293853"><ele>670.2</ele><time>2026-05-03T12:14:21.928Z</time></trkpt><trkpt lat="44.1472315" lon="8.1295253"><ele>673.0</ele><time>2026-05-03T12:14:22.922Z</time></trkpt><trkpt lat="44.1472723" lon="8.1296752"><ele>673.0</ele><time>2026-05-03T12:14:23.925Z</time></trkpt><trkpt lat="44.1473177" lon="8.1298167"><ele>673.0</ele><time>2026-05-03T12:14:24.917Z</time></trkpt><trkpt lat="44.1473372" lon="8.1299997"><ele>673.0</ele><time>2026-05-03T12:14:25.917Z</time></trkpt><trkpt lat="44.1473361" lon="8.1302175"><ele>673.0</ele><time>2026-05-03T12:14:26.916Z</time></trkpt><trkpt lat="44.1473118" lon="8.130487"><ele>677.0</ele><time>2026-05-03T12:14:27.913Z</time></trkpt><trkpt lat="44.14729" lon="8.1307589"><ele>681.0</ele><time>2026-05-03T12:14:28.916Z</time></trkpt><trkpt lat="44.1472662" lon="8.1310238"><ele>685.0</ele><time>2026-05-03T12:14:29.905Z</time></trkpt><trkpt lat="44.1472336" lon="8.1312766"><ele>685.0</ele><time>2026-05-03T12:14:30.919Z</time></trkpt><trkpt lat="44.1472045" lon="8.1315154"><ele>685.0</ele><time>2026-05-03T12:14:31.916Z</time></trkpt><trkpt lat="44.1471748" lon="8.131752"><ele>685.0</ele><time>2026-05-03T12:14:32.922Z</time></trkpt><trkpt lat="44.1471304" lon="8.131968"><ele>687.25</ele><time>2026-05-03T12:14:33.922Z</time></trkpt><trkpt lat="44.1470593" lon="8.1321334"><ele>689.5</ele><time>2026-05-03T12:14:34.912Z</time></trkpt><trkpt lat="44.1469808" lon="8.1322686"><ele>691.75</ele><time>2026-05-03T12:14:35.914Z</time></trkpt><trkpt lat="44.1468992" lon="8.1323825"><ele>694.0</ele><time>2026-05-03T12:14:36.919Z</time></trkpt><trkpt lat="44.1468193" lon="8.132494"><ele>695.4000000000001</ele><time>2026-05-03T12:14:37.923Z</time></trkpt><trkpt lat="44.1467402" lon="8.1326229"><ele>696.8</ele><time>2026-05-03T12:14:38.929Z</time></trkpt><trkpt lat="44.1466967" lon="8.1327732"><ele>698.2</ele><time>2026-05-03T12:14:39.919Z</time></trkpt><trkpt lat="44.1467034" lon="8.132905"><ele>699.5999999999999</ele><time>2026-05-03T12:14:40.917Z</time></trkpt><trkpt lat="44.1467391" lon="8.1330199"><ele>701.0</ele><time>2026-05-03T12:14:41.916Z</time></trkpt><trkpt lat="44.1468159" lon="8.133094"><ele>701.0</ele><time>2026-05-03T12:14:42.919Z</time></trkpt><trkpt lat="44.1469166" lon="8.1331336"><ele>701.0</ele><time>2026-05-03T12:14:43.911Z</time></trkpt><trkpt lat="44.1470291" lon="8.1331259"><ele>701.0</ele><time>2026-05-03T12:14:44.924Z</time></trkpt><trkpt lat="44.1471223" lon="8.1330238"><ele>701.0</ele><time>2026-05-03T12:14:45.921Z</time></trkpt><trkpt lat="44.1472096" lon="8.1328863"><ele>701.0</ele><time>2026-05-03T12:14:46.913Z</time></trkpt><trkpt lat="44.1472892" lon="8.1327292"><ele>701.0</ele><time>2026-05-03T12:14:47.927Z</time></trkpt><trkpt lat="44.1473685" lon="8.1325732"><ele>701.0</ele><time>2026-05-03T12:14:48.919Z</time></trkpt><trkpt lat="44.147413" lon="8.1324132"><ele>701.0</ele><time>2026-05-03T12:14:49.91Z</time></trkpt><trkpt lat="44.1474415" lon="8.1322386"><ele>702.75</ele><time>2026-05-03T12:14:50.917Z</time></trkpt><trkpt lat="44.1474571" lon="8.1320521"><ele>704.5</ele><time>2026-05-03T12:14:51.921Z</time></trkpt><trkpt lat="44.1474761" lon="8.1318729"><ele>706.25</ele><time>2026-05-03T12:14:52.926Z</time></trkpt><trkpt lat="44.1475032" lon="8.131705"><ele>708.0</ele><time>2026-05-03T12:14:53.914Z</time></trkpt><trkpt lat="44.1475532" lon="8.1315356"><ele>708.0</ele><time>2026-05-03T12:14:54.92Z</time></trkpt><trkpt lat="44.1476193" lon="8.1313601"><ele>708.0</ele><time>2026-05-03T12:14:55.916Z</time></trkpt><trkpt lat="44.1476912" lon="8.1311776"><ele>708.0</ele><time>2026-05-03T12:14:56.92Z</time></trkpt><trkpt lat="44.1477632" lon="8.1309919"><ele>708.0</ele><time>2026-05-03T12:14:57.918Z</time></trkpt><trkpt lat="44.1478352" lon="8.1308083"><ele>706.5</ele><time>2026-05-03T12:14:58.92Z</time></trkpt><trkpt lat="44.1479021" lon="8.1306304"><ele>705.0</ele><time>2026-05-03T12:14:59.92Z</time></trkpt><trkpt lat="44.1479829" lon="8.1304704"><ele>703.5</ele><time>2026-05-03T12:15:00.918Z</time></trkpt><trkpt lat="44.1480834" lon="8.1303187"><ele>702.0</ele><time>2026-05-03T12:15:01.93Z</time></trkpt><trkpt lat="44.1481982" lon="8.130167"><ele>705.3333333333334</ele><time>2026-05-03T12:15:02.92Z</time></trkpt><trkpt lat="44.1483163" lon="8.1300211"><ele>708.6666666666667</ele><time>2026-05-03T12:15:03.919Z</time></trkpt><trkpt lat="44.148439" lon="8.1298677"><ele>712.0</ele><time>2026-05-03T12:15:04.92Z</time></trkpt><trkpt lat="44.1485664" lon="8.1297091"><ele>712.0</ele><time>2026-05-03T12:15:05.926Z</time></trkpt><trkpt lat="44.1486836" lon="8.1295436"><ele>712.0</ele><time>2026-05-03T12:15:06.916Z</time></trkpt><trkpt lat="44.1488135" lon="8.129377"><ele>712.0</ele><time>2026-05-03T12:15:07.915Z</time></trkpt><trkpt lat="44.1489386" lon="8.1292187"><ele>713.3333333333334</ele><time>2026-05-03T12:15:08.917Z</time></trkpt><trkpt lat="44.1490623" lon="8.1290657"><ele>714.6666666666666</ele><time>2026-05-03T12:15:09.908Z</time></trkpt><trkpt lat="44.1491822" lon="8.1289192"><ele>716.0</ele><time>2026-05-03T12:15:10.916Z</time></trkpt><trkpt lat="44.1492901" lon="8.1287822"><ele>716.0</ele><time>2026-05-03T12:15:11.914Z</time></trkpt><trkpt lat="44.1494071" lon="8.128665"><ele>716.0</ele><time>2026-05-03T12:15:12.917Z</time></trkpt><trkpt lat="44.1495263" lon="8.1285733"><ele>716.0</ele><time>2026-05-03T12:15:13.91Z</time></trkpt><trkpt lat="44.1496523" lon="8.1285032"><ele>716.0</ele><time>2026-05-03T12:15:14.911Z</time></trkpt><trkpt lat="44.1497856" lon="8.1284263"><ele>718.5999999999999</ele><time>2026-05-03T12:15:15.917Z</time></trkpt><trkpt lat="44.1499121" lon="8.1283438"><ele>721.2</ele><time>2026-05-03T12:15:16.916Z</time></trkpt><trkpt lat="44.1500231" lon="8.1282846"><ele>723.8</ele><time>2026-05-03T12:15:17.918Z</time></trkpt><trkpt lat="44.1501207" lon="8.1282457"><ele>726.4000000000001</ele><time>2026-05-03T12:15:18.919Z</time></trkpt><trkpt lat="44.1502052" lon="8.1282416"><ele>729.0</ele><time>2026-05-03T12:15:19.922Z</time></trkpt><trkpt lat="44.1502824" lon="8.1282659"><ele>729.0</ele><time>2026-05-03T12:15:20.916Z</time></trkpt><trkpt lat="44.1503652" lon="8.1283227"><ele>729.0</ele><time>2026-05-03T12:15:21.921Z</time></trkpt><trkpt lat="44.1504432" lon="8.1284073"><ele>729.0</ele><time>2026-05-03T12:15:22.917Z</time></trkpt><trkpt lat="44.1505117" lon="8.1285046"><ele>729.0</ele><time>2026-05-03T12:15:23.91Z</time></trkpt><trkpt lat="44.1505804" lon="8.1286171"><ele>729.0</ele><time>2026-05-03T12:15:24.916Z</time></trkpt><trkpt lat="44.1506485" lon="8.1287392"><ele>726.25</ele><time>2026-05-03T12:15:25.928Z</time></trkpt><trkpt lat="44.1507188" lon="8.1288633"><ele>723.5</ele><time>2026-05-03T12:15:26.913Z</time></trkpt><trkpt lat="44.150792" lon="8.1289897"><ele>720.75</ele><time>2026-05-03T12:15:27.919Z</time></trkpt><trkpt lat="44.15087" lon="8.1291103"><ele>718.0</ele><time>2026-05-03T12:15:28.914Z</time></trkpt><trkpt lat="44.1509581" lon="8.1292282"><ele>725.0</ele><time>2026-05-03T12:15:29.917Z</time></trkpt><trkpt lat="44.1510503" lon="8.1293432"><ele>732.0</ele><time>2026-05-03T12:15:30.91Z</time></trkpt><trkpt lat="44.1511506" lon="8.1294539"><ele>739.0</ele><time>2026-05-03T12:15:31.915Z</time></trkpt><trkpt lat="44.1512581" lon="8.1295623"><ele>746.0</ele><time>2026-05-03T12:15:32.917Z</time></trkpt><trkpt lat="44.1513687" lon="8.1296589"><ele>746.0</ele><time>2026-05-03T12:15:33.912Z</time></trkpt><trkpt lat="44.1514754" lon="8.1297343"><ele>746.0</ele><time>2026-05-03T12:15:34.911Z</time></trkpt><trkpt lat="44.1515702" lon="8.1297915"><ele>746.0</ele><time>2026-05-03T12:15:35.914Z</time></trkpt><trkpt lat="44.1516556" lon="8.1298397"><ele>746.0</ele><time>2026-05-03T12:15:36.91Z</time></trkpt><trkpt lat="44.1517384" lon="8.1298775"><ele>746.0</ele><time>2026-05-03T12:15:37.924Z</time></trkpt><trkpt lat="44.1518236" lon="8.1298828"><ele>742.8</ele><time>2026-05-03T12:15:38.911Z</time></trkpt><trkpt lat="44.1519048" lon="8.1298343"><ele>739.5999999999999</ele><time>2026-05-03T12:15:39.92Z</time></trkpt><trkpt lat="44.1519696" lon="8.1297438"><ele>736.4</ele><time>2026-05-03T12:15:40.915Z</time></trkpt><trkpt lat="44.1520312" lon="8.1296321"><ele>733.2</ele><time>2026-05-03T12:15:41.916Z</time></trkpt><trkpt lat="44.1520829" lon="8.1295036"><ele>730.0</ele><time>2026-05-03T12:15:42.918Z</time></trkpt><trkpt lat="44.1521409" lon="8.1293801"><ele>730.0</ele><time>2026-05-03T12:15:43.914Z</time></trkpt><trkpt lat="44.1522056" lon="8.1292476"><ele>730.0</ele><time>2026-05-03T12:15:44.911Z</time></trkpt><trkpt lat="44.152295" lon="8.1291008"><ele>730.0</ele><time>2026-05-03T12:15:45.908Z</time></trkpt><trkpt lat="44.1523976" lon="8.1289449"><ele>730.0</ele><time>2026-05-03T12:15:46.907Z</time></trkpt><trkpt lat="44.1525104" lon="8.1287818"><ele>732.6666666666667</ele><time>2026-05-03T12:15:47.911Z</time></trkpt><trkpt lat="44.152626" lon="8.128608"><ele>735.3333333333334</ele><time>2026-05-03T12:15:48.915Z</time></trkpt><trkpt lat="44.1527394" lon="8.1284345"><ele>738.0</ele><time>2026-05-03T12:15:49.92Z</time></trkpt><trkpt lat="44.1528501" lon="8.1282454"><ele>735.3333333333334</ele><time>2026-05-03T12:15:50.914Z</time></trkpt><trkpt lat="44.1529602" lon="8.1280481"><ele>732.6666666666667</ele><time>2026-05-03T12:15:51.911Z</time></trkpt><trkpt lat="44.1530679" lon="8.1278476"><ele>730.0</ele><time>2026-05-03T12:15:52.915Z</time></trkpt><trkpt lat="44.1531637" lon="8.1276319"><ele>737.0</ele><time>2026-05-03T12:15:53.912Z</time></trkpt><trkpt lat="44.1532416" lon="8.1274086"><ele>744.0</ele><time>2026-05-03T12:15:54.915Z</time></trkpt><trkpt lat="44.1533015" lon="8.1271875"><ele>751.0</ele><time>2026-05-03T12:15:55.922Z</time></trkpt><trkpt lat="44.1533479" lon="8.126986"><ele>751.0</ele><time>2026-05-03T12:15:56.912Z</time></trkpt><trkpt lat="44.1533994" lon="8.1267933"><ele>751.0</ele><time>2026-05-03T12:15:57.912Z</time></trkpt><trkpt lat="44.1534737" lon="8.1266434"><ele>751.0</ele><time>2026-05-03T12:15:58.909Z</time></trkpt><trkpt lat="44.1535576" lon="8.1265276"><ele>751.0</ele><time>2026-05-03T12:15:59.922Z</time></trkpt><trkpt lat="44.1536688" lon="8.1264658"><ele>747.25</ele><time>2026-05-03T12:16:00.919Z</time></trkpt><trkpt lat="44.1537592" lon="8.1263778"><ele>743.5</ele><time>2026-05-03T12:16:01.92Z</time></trkpt><trkpt lat="44.153818" lon="8.1262534"><ele>739.75</ele><time>2026-05-03T12:16:02.912Z</time></trkpt><trkpt lat="44.1538644" lon="8.1260895"><ele>736.0</ele><time>2026-05-03T12:16:03.915Z</time></trkpt><trkpt lat="44.1539094" lon="8.1258815"><ele>731.0</ele><time>2026-05-03T12:16:04.91Z</time></trkpt><trkpt lat="44.153955" lon="8.1256714"><ele>726.0</ele><time>2026-05-03T12:16:05.908Z</time></trkpt><trkpt lat="44.1540256" lon="8.1254627"><ele>721.0</ele><time>2026-05-03T12:16:06.91Z</time></trkpt><trkpt lat="44.1541004" lon="8.1252456"><ele>728.6666666666667</ele><time>2026-05-03T12:16:07.915Z</time></trkpt><trkpt lat="44.1541886" lon="8.1250294"><ele>736.3333333333334</ele><time>2026-05-03T12:16:08.914Z</time></trkpt><trkpt lat="44.1542825" lon="8.1248268"><ele>744.0</ele><time>2026-05-03T12:16:09.914Z</time></trkpt><trkpt lat="44.1543748" lon="8.124646"><ele>744.0</ele><time>2026-05-03T12:16:10.909Z</time></trkpt><trkpt lat="44.1544667" lon="8.1244834"><ele>744.0</ele><time>2026-05-03T12:16:11.916Z</time></trkpt><trkpt lat="44.1545655" lon="8.124355"><ele>744.0</ele><time>2026-05-03T12:16:12.919Z</time></trkpt><trkpt lat="44.154677" lon="8.1242617"><ele>744.0</ele><time>2026-05-03T12:16:13.916Z</time></trkpt><trkpt lat="44.1548175" lon="8.1242008"><ele>745.0</ele><time>2026-05-03T12:16:14.93Z</time></trkpt><trkpt lat="44.1549638" lon="8.1241389"><ele>746.0</ele><time>2026-05-03T12:16:15.909Z</time></trkpt><trkpt lat="44.1551116" lon="8.1240675"><ele>747.0</ele><time>2026-05-03T12:16:16.912Z</time></trkpt><trkpt lat="44.1552547" lon="8.1239918"><ele>747.0</ele><time>2026-05-03T12:16:17.909Z</time></trkpt><trkpt lat="44.1553937" lon="8.1239353"><ele>747.0</ele><time>2026-05-03T12:16:18.913Z</time></trkpt><trkpt lat="44.1555352" lon="8.1239194"><ele>747.0</ele><time>2026-05-03T12:16:19.916Z</time></trkpt><trkpt lat="44.1556759" lon="8.1239268"><ele>747.0</ele><time>2026-05-03T12:16:20.915Z</time></trkpt><trkpt lat="44.1558085" lon="8.1239594"><ele>746.25</ele><time>2026-05-03T12:16:21.92Z</time></trkpt><trkpt lat="44.1559253" lon="8.1240334"><ele>745.5</ele><time>2026-05-03T12:16:22.914Z</time></trkpt><trkpt lat="44.1560396" lon="8.1241292"><ele>744.75</ele><time>2026-05-03T12:16:23.918Z</time></trkpt><trkpt lat="44.1561571" lon="8.124237"><ele>744.0</ele><time>2026-05-03T12:16:24.911Z</time></trkpt><trkpt lat="44.1562604" lon="8.1243431"><ele>750.8000000000001</ele><time>2026-05-03T12:16:25.92Z</time></trkpt><trkpt lat="44.1563534" lon="8.1244235"><ele>757.6</ele><time>2026-05-03T12:16:26.897Z</time></trkpt><trkpt lat="44.1564418" lon="8.1244658"><ele>764.4</ele><time>2026-05-03T12:16:27.908Z</time></trkpt><trkpt lat="44.1565299" lon="8.1244255"><ele>771.2</ele><time>2026-05-03T12:16:28.9Z</time></trkpt><trkpt lat="44.1566168" lon="8.1243162"><ele>778.0</ele><time>2026-05-03T12:16:29.91Z</time></trkpt><trkpt lat="44.1566867" lon="8.1241824"><ele>774.0</ele><time>2026-05-03T12:16:30.908Z</time></trkpt><trkpt lat="44.1567465" lon="8.1240242"><ele>770.0</ele><time>2026-05-03T12:16:31.91Z</time></trkpt><trkpt lat="44.1568111" lon="8.1238581"><ele>766.0</ele><time>2026-05-03T12:16:32.905Z</time></trkpt><trkpt lat="44.1568814" lon="8.1236876"><ele>762.0</ele><time>2026-05-03T12:16:33.914Z</time></trkpt><trkpt lat="44.1569893" lon="8.1235281"><ele>762.0</ele><time>2026-05-03T12:16:34.915Z</time></trkpt><trkpt lat="44.1571097" lon="8.123384"><ele>762.0</ele><time>2026-05-03T12:16:35.922Z</time></trkpt><trkpt lat="44.157246" lon="8.1232509"><ele>762.0</ele><time>2026-05-03T12:16:36.916Z</time></trkpt><trkpt lat="44.1573895" lon="8.1231291"><ele>765.0</ele><time>2026-05-03T12:16:37.915Z</time></trkpt><trkpt lat="44.1575502" lon="8.1230193"><ele>768.0</ele><time>2026-05-03T12:16:38.907Z</time></trkpt><trkpt lat="44.1577133" lon="8.1229156"><ele>771.0</ele><time>2026-05-03T12:16:39.907Z</time></trkpt><trkpt lat="44.1578862" lon="8.1228198"><ele>771.0</ele><time>2026-05-03T12:16:40.912Z</time></trkpt><trkpt lat="44.1580637" lon="8.1227165"><ele>771.0</ele><time>2026-05-03T12:16:41.913Z</time></trkpt><trkpt lat="44.1582285" lon="8.1226015"><ele>771.0</ele><time>2026-05-03T12:16:42.92Z</time></trkpt><trkpt lat="44.1583958" lon="8.1224658"><ele>773.3333333333333</ele><time>2026-05-03T12:16:43.913Z</time></trkpt><trkpt lat="44.1585435" lon="8.1223072"><ele>775.6666666666666</ele><time>2026-05-03T12:16:44.923Z</time></trkpt><trkpt lat="44.1586809" lon="8.1221419"><ele>778.0</ele><time>2026-05-03T12:16:45.906Z</time></trkpt><trkpt lat="44.158815" lon="8.1219747"><ele>778.0</ele><time>2026-05-03T12:16:46.903Z</time></trkpt><trkpt lat="44.1589428" lon="8.1218099"><ele>778.0</ele><time>2026-05-03T12:16:47.908Z</time></trkpt><trkpt lat="44.1590602" lon="8.1216161"><ele>778.0</ele><time>2026-05-03T12:16:48.916Z</time></trkpt><trkpt lat="44.1591456" lon="8.1213856"><ele>784.6666666666666</ele><time>2026-05-03T12:16:49.911Z</time></trkpt><trkpt lat="44.1592258" lon="8.121158"><ele>791.3333333333333</ele><time>2026-05-03T12:16:50.924Z</time></trkpt><trkpt lat="44.1592961" lon="8.120952"><ele>798.0</ele><time>2026-05-03T12:16:51.916Z</time></trkpt><trkpt lat="44.1593477" lon="8.1207739"><ele>797.2</ele><time>2026-05-03T12:16:52.932Z</time></trkpt><trkpt lat="44.1594014" lon="8.1206382"><ele>796.4</ele><time>2026-05-03T12:16:53.914Z</time></trkpt><trkpt lat="44.1594749" lon="8.1205553"><ele>795.6</ele><time>2026-05-03T12:16:54.918Z</time></trkpt><trkpt lat="44.1595735" lon="8.1205317"><ele>794.8000000000001</ele><time>2026-05-03T12:16:55.924Z</time></trkpt><trkpt lat="44.1596842" lon="8.1205569"><ele>794.0</ele><time>2026-05-03T12:16:56.921Z</time></trkpt><trkpt lat="44.1598015" lon="8.1206433"><ele>802.6666666666667</ele><time>2026-05-03T12:16:57.917Z</time></trkpt><trkpt lat="44.1599344" lon="8.1207627"><ele>811.3333333333333</ele><time>2026-05-03T12:16:58.922Z</time></trkpt><trkpt lat="44.1600675" lon="8.1208832"><ele>820.0</ele><time>2026-05-03T12:16:59.915Z</time></trkpt><trkpt lat="44.1602014" lon="8.1209928"><ele>820.0</ele><time>2026-05-03T12:17:00.924Z</time></trkpt><trkpt lat="44.1603353" lon="8.1210889"><ele>820.0</ele><time>2026-05-03T12:17:01.931Z</time></trkpt><trkpt lat="44.1604758" lon="8.1211452"><ele>820.0</ele><time>2026-05-03T12:17:02.919Z</time></trkpt><trkpt lat="44.160623" lon="8.121178"><ele>820.0</ele><time>2026-05-03T12:17:03.913Z</time></trkpt><trkpt lat="44.1607568" lon="8.121163"><ele>820.0</ele><time>2026-05-03T12:17:04.92Z</time></trkpt><trkpt lat="44.1608918" lon="8.1211031"><ele>820.0</ele><time>2026-05-03T12:17:05.909Z</time></trkpt><trkpt lat="44.1610093" lon="8.1209681"><ele>820.0</ele><time>2026-05-03T12:17:06.905Z</time></trkpt><trkpt lat="44.1611232" lon="8.1208146"><ele>823.0</ele><time>2026-05-03T12:17:07.911Z</time></trkpt><trkpt lat="44.1612361" lon="8.1206592"><ele>826.0</ele><time>2026-05-03T12:17:08.911Z</time></trkpt><trkpt lat="44.1613636" lon="8.1205041"><ele>829.0</ele><time>2026-05-03T12:17:09.916Z</time></trkpt><trkpt lat="44.1614834" lon="8.1203759"><ele>826.8000000000001</ele><time>2026-05-03T12:17:10.914Z</time></trkpt><trkpt lat="44.1615991" lon="8.120288"><ele>824.6</ele><time>2026-05-03T12:17:11.921Z</time></trkpt><trkpt lat="44.1616986" lon="8.1202383"><ele>822.4</ele><time>2026-05-03T12:17:12.919Z</time></trkpt><trkpt lat="44.1617947" lon="8.1202399"><ele>820.2</ele><time>2026-05-03T12:17:13.916Z</time></trkpt><trkpt lat="44.1618715" lon="8.1203341"><ele>818.0</ele><time>2026-05-03T12:17:14.92Z</time></trkpt><trkpt lat="44.1619044" lon="8.120495"><ele>818.0</ele><time>2026-05-03T12:17:15.908Z</time></trkpt><trkpt lat="44.1619177" lon="8.1206572"><ele>818.0</ele><time>2026-05-03T12:17:16.921Z</time></trkpt><trkpt lat="44.1619136" lon="8.1208505"><ele>818.0</ele><time>2026-05-03T12:17:17.906Z</time></trkpt><trkpt lat="44.161916" lon="8.1210637"><ele>818.0</ele><time>2026-05-03T12:17:18.912Z</time></trkpt><trkpt lat="44.1619157" lon="8.1212961"><ele>815.6666666666667</ele><time>2026-05-03T12:17:19.912Z</time></trkpt><trkpt lat="44.1619159" lon="8.1215277"><ele>813.3333333333333</ele><time>2026-05-03T12:17:20.912Z</time></trkpt><trkpt lat="44.1619034" lon="8.1217527"><ele>811.0</ele><time>2026-05-03T12:17:21.924Z</time></trkpt><trkpt lat="44.1618811" lon="8.1219771"><ele>809.25</ele><time>2026-05-03T12:17:22.914Z</time></trkpt><trkpt lat="44.161851" lon="8.1221779"><ele>807.5</ele><time>2026-05-03T12:17:23.916Z</time></trkpt><trkpt lat="44.1618359" lon="8.1223489"><ele>805.75</ele><time>2026-05-03T12:17:24.918Z</time></trkpt><trkpt lat="44.1618744" lon="8.1225111"><ele>804.0</ele><time>2026-05-03T12:17:25.92Z</time></trkpt><trkpt lat="44.1619551" lon="8.1226512"><ele>801.3333333333333</ele><time>2026-05-03T12:17:26.912Z</time></trkpt><trkpt lat="44.1620677" lon="8.1227736"><ele>798.6666666666666</ele><time>2026-05-03T12:17:27.915Z</time></trkpt><trkpt lat="44.1621857" lon="8.1229054"><ele>796.0</ele><time>2026-05-03T12:17:28.92Z</time></trkpt><trkpt lat="44.1623059" lon="8.1230452"><ele>795.75</ele><time>2026-05-03T12:17:29.916Z</time></trkpt><trkpt lat="44.1624242" lon="8.1231998"><ele>795.5</ele><time>2026-05-03T12:17:30.922Z</time></trkpt><trkpt lat="44.1625364" lon="8.1233288"><ele>795.25</ele><time>2026-05-03T12:17:31.908Z</time></trkpt><trkpt lat="44.1626405" lon="8.1234557"><ele>795.0</ele><time>2026-05-03T12:17:32.91Z</time></trkpt><trkpt lat="44.1627512" lon="8.1235931"><ele>795.0</ele><time>2026-05-03T12:17:33.921Z</time></trkpt><trkpt lat="44.1628492" lon="8.1237273"><ele>795.0</ele><time>2026-05-03T12:17:34.913Z</time></trkpt><trkpt lat="44.1629383" lon="8.1238685"><ele>795.0</ele><time>2026-05-03T12:17:35.906Z</time></trkpt><trkpt lat="44.1630272" lon="8.1240011"><ele>795.0</ele><time>2026-05-03T12:17:36.912Z</time></trkpt><trkpt lat="44.1631223" lon="8.1240878"><ele>795.25</ele><time>2026-05-03T12:17:37.907Z</time></trkpt><trkpt lat="44.163231" lon="8.1241916"><ele>795.5</ele><time>2026-05-03T12:17:38.919Z</time></trkpt><trkpt lat="44.1632991" lon="8.1243308"><ele>795.75</ele><time>2026-05-03T12:17:39.907Z</time></trkpt><trkpt lat="44.1633325" lon="8.1245006"><ele>796.0</ele><time>2026-05-03T12:17:40.912Z</time></trkpt><trkpt lat="44.1633566" lon="8.1246893"><ele>796.0</ele><time>2026-05-03T12:17:41.907Z</time></trkpt><trkpt lat="44.1633911" lon="8.1248802"><ele>796.0</ele><time>2026-05-03T12:17:42.909Z</time></trkpt><trkpt lat="44.1634374" lon="8.1250542"><ele>796.0</ele><time>2026-05-03T12:17:43.917Z</time></trkpt><trkpt lat="44.1634948" lon="8.1252014"><ele>796.0</ele><time>2026-05-03T12:17:44.923Z</time></trkpt><trkpt lat="44.1635773" lon="8.1253251"><ele>795.0</ele><time>2026-05-03T12:17:45.92Z</time></trkpt><trkpt lat="44.1637058" lon="8.1253997"><ele>794.0</ele><time>2026-05-03T12:17:46.911Z</time></trkpt><trkpt lat="44.1638456" lon="8.1254362"><ele>793.0</ele><time>2026-05-03T12:17:47.905Z</time></trkpt><trkpt lat="44.1639928" lon="8.1254587"><ele>792.0</ele><time>2026-05-03T12:17:48.906Z</time></trkpt><trkpt lat="44.1641231" lon="8.1254597"><ele>792.0</ele><time>2026-05-03T12:17:49.915Z</time></trkpt><trkpt lat="44.1642466" lon="8.1254159"><ele>792.0</ele><time>2026-05-03T12:17:50.912Z</time></trkpt><trkpt lat="44.1643504" lon="8.1253583"><ele>792.0</ele><time>2026-05-03T12:17:51.914Z</time></trkpt><trkpt lat="44.1644506" lon="8.1253246"><ele>792.0</ele><time>2026-05-03T12:17:52.907Z</time></trkpt><trkpt lat="44.1645382" lon="8.1253712"><ele>792.0</ele><time>2026-05-03T12:17:53.918Z</time></trkpt><trkpt lat="44.1646036" lon="8.1254604"><ele>792.0</ele><time>2026-05-03T12:17:54.908Z</time></trkpt><trkpt lat="44.1646189" lon="8.125586"><ele>792.0</ele><time>2026-05-03T12:17:55.906Z</time></trkpt><trkpt lat="44.1646051" lon="8.1256979"><ele>792.0</ele><time>2026-05-03T12:17:56.913Z</time></trkpt><trkpt lat="44.1646074" lon="8.1258244"><ele>792.0</ele><time>2026-05-03T12:17:57.908Z</time></trkpt><trkpt lat="44.1646308" lon="8.1259807"><ele>792.0</ele><time>2026-05-03T12:17:58.908Z</time></trkpt><trkpt lat="44.164685" lon="8.126144"><ele>790.25</ele><time>2026-05-03T12:17:59.917Z</time></trkpt><trkpt lat="44.164753" lon="8.1262904"><ele>788.5</ele><time>2026-05-03T12:18:00.912Z</time></trkpt><trkpt lat="44.1648241" lon="8.1264242"><ele>786.75</ele><time>2026-05-03T12:18:01.908Z</time></trkpt><trkpt lat="44.1649195" lon="8.1265338"><ele>785.0</ele><time>2026-05-03T12:18:02.915Z</time></trkpt><trkpt lat="44.1650392" lon="8.1266161"><ele>781.5</ele><time>2026-05-03T12:18:03.917Z</time></trkpt><trkpt lat="44.1651815" lon="8.1266813"><ele>778.0</ele><time>2026-05-03T12:18:04.908Z</time></trkpt><trkpt lat="44.165323" lon="8.1267232"><ele>774.5</ele><time>2026-05-03T12:18:05.912Z</time></trkpt><trkpt lat="44.1654656" lon="8.1267787"><ele>771.0</ele><time>2026-05-03T12:18:06.913Z</time></trkpt><trkpt lat="44.1655801" lon="8.1268538"><ele>771.0</ele><time>2026-05-03T12:18:07.915Z</time></trkpt><trkpt lat="44.1656781" lon="8.1269103"><ele>771.0</ele><time>2026-05-03T12:18:08.912Z</time></trkpt><trkpt lat="44.1657899" lon="8.1268861"><ele>771.0</ele><time>2026-05-03T12:18:09.916Z</time></trkpt><trkpt lat="44.1658741" lon="8.126801"><ele>771.0</ele><time>2026-05-03T12:18:10.911Z</time></trkpt><trkpt lat="44.1659437" lon="8.1266792"><ele>771.0</ele><time>2026-05-03T12:18:11.914Z</time></trkpt><trkpt lat="44.1659952" lon="8.1265257"><ele>772.4</ele><time>2026-05-03T12:18:12.915Z</time></trkpt><trkpt lat="44.1660393" lon="8.1263855"><ele>773.8</ele><time>2026-05-03T12:18:13.911Z</time></trkpt><trkpt lat="44.1661054" lon="8.1262698"><ele>775.1999999999999</ele><time>2026-05-03T12:18:14.91Z</time></trkpt><trkpt lat="44.166188" lon="8.1262224"><ele>776.5999999999999</ele><time>2026-05-03T12:18:15.916Z</time></trkpt><trkpt lat="44.1662825" lon="8.1262633"><ele>778.0</ele><time>2026-05-03T12:18:16.91Z</time></trkpt><trkpt lat="44.1663714" lon="8.1263594"><ele>778.0</ele><time>2026-05-03T12:18:17.912Z</time></trkpt><trkpt lat="44.1664289" lon="8.126488"><ele>778.0</ele><time>2026-05-03T12:18:18.914Z</time></trkpt><trkpt lat="44.1664863" lon="8.1266326"><ele>778.0</ele><time>2026-05-03T12:18:19.908Z</time></trkpt><trkpt lat="44.1665508" lon="8.1267932"><ele>778.0</ele><time>2026-05-03T12:18:20.925Z</time></trkpt><trkpt lat="44.1666229" lon="8.1269438"><ele>775.25</ele><time>2026-05-03T12:18:21.905Z</time></trkpt><trkpt lat="44.1666871" lon="8.1270712"><ele>772.5</ele><time>2026-05-03T12:18:22.915Z</time></trkpt><trkpt lat="44.1667679" lon="8.1271723"><ele>769.75</ele><time>2026-05-03T12:18:23.908Z</time></trkpt><trkpt lat="44.1668946" lon="8.1272314"><ele>767.0</ele><time>2026-05-03T12:18:24.913Z</time></trkpt><trkpt lat="44.1670333" lon="8.1272448"><ele>767.0</ele><time>2026-05-03T12:18:25.911Z</time></trkpt><trkpt lat="44.1671702" lon="8.1272556"><ele>767.0</ele><time>2026-05-03T12:18:26.911Z</time></trkpt><trkpt lat="44.1672974" lon="8.1272865"><ele>767.0</ele><time>2026-05-03T12:18:27.907Z</time></trkpt><trkpt lat="44.1674067" lon="8.1273497"><ele>767.0</ele><time>2026-05-03T12:18:28.906Z</time></trkpt><trkpt lat="44.1674918" lon="8.1274385"><ele>766.0</ele><time>2026-05-03T12:18:29.914Z</time></trkpt><trkpt lat="44.1675613" lon="8.1275499"><ele>765.0</ele><time>2026-05-03T12:18:30.911Z</time></trkpt><trkpt lat="44.1676151" lon="8.1276805"><ele>764.0</ele><time>2026-05-03T12:18:31.923Z</time></trkpt><trkpt lat="44.16764" lon="8.1278291"><ele>763.0</ele><time>2026-05-03T12:18:32.913Z</time></trkpt><trkpt lat="44.167609" lon="8.1279609"><ele>762.0</ele><time>2026-05-03T12:18:33.909Z</time></trkpt><trkpt lat="44.1675594" lon="8.1280693"><ele>762.0</ele><time>2026-05-03T12:18:34.919Z</time></trkpt><trkpt lat="44.1674774" lon="8.1281858"><ele>762.0</ele><time>2026-05-03T12:18:35.91Z</time></trkpt><trkpt lat="44.1673899" lon="8.1283167"><ele>762.0</ele><time>2026-05-03T12:18:36.916Z</time></trkpt><trkpt lat="44.1673081" lon="8.1284713"><ele>762.0</ele><time>2026-05-03T12:18:37.909Z</time></trkpt><trkpt lat="44.1672374" lon="8.1286474"><ele>760.0</ele><time>2026-05-03T12:18:38.916Z</time></trkpt><trkpt lat="44.1671982" lon="8.1288163"><ele>758.0</ele><time>2026-05-03T12:18:39.926Z</time></trkpt><trkpt lat="44.1671864" lon="8.1289559"><ele>756.0</ele><time>2026-05-03T12:18:40.917Z</time></trkpt><trkpt lat="44.1672096" lon="8.129105"><ele>754.0</ele><time>2026-05-03T12:18:41.914Z</time></trkpt><trkpt lat="44.1672843" lon="8.129287"><ele>757.3333333333334</ele><time>2026-05-03T12:18:42.911Z</time></trkpt><trkpt lat="44.1673787" lon="8.1294517"><ele>760.6666666666666</ele><time>2026-05-03T12:18:43.908Z</time></trkpt><trkpt lat="44.1674813" lon="8.1296233"><ele>764.0</ele><time>2026-05-03T12:18:44.913Z</time></trkpt><trkpt lat="44.167604" lon="8.1297911"><ele>759.3333333333333</ele><time>2026-05-03T12:18:45.913Z</time></trkpt><trkpt lat="44.1677363" lon="8.129952"><ele>754.6666666666666</ele><time>2026-05-03T12:18:46.92Z</time></trkpt><trkpt lat="44.1678802" lon="8.1301114"><ele>750.0</ele><time>2026-05-03T12:18:47.924Z</time></trkpt><trkpt lat="44.1680257" lon="8.1302465"><ele>750.0</ele><time>2026-05-03T12:18:48.919Z</time></trkpt><trkpt lat="44.1681769" lon="8.1303407"><ele>750.0</ele><time>2026-05-03T12:18:49.921Z</time></trkpt><trkpt lat="44.1683343" lon="8.1304246"><ele>750.0</ele><time>2026-05-03T12:18:50.91Z</time></trkpt><trkpt lat="44.1684946" lon="8.1305108"><ele>748.3333333333334</ele><time>2026-05-03T12:18:51.917Z</time></trkpt><trkpt lat="44.1686528" lon="8.130595"><ele>746.6666666666667</ele><time>2026-05-03T12:18:52.909Z</time></trkpt><trkpt lat="44.1688085" lon="8.1306913"><ele>745.0</ele><time>2026-05-03T12:18:53.909Z</time></trkpt><trkpt lat="44.1689534" lon="8.1308136"><ele>748.0</ele><time>2026-05-03T12:18:54.907Z</time></trkpt><trkpt lat="44.1690746" lon="8.1309497"><ele>751.0</ele><time>2026-05-03T12:18:55.912Z</time></trkpt><trkpt lat="44.1691943" lon="8.1310828"><ele>754.0</ele><time>2026-05-03T12:18:56.909Z</time></trkpt><trkpt lat="44.1693218" lon="8.1311904"><ele>754.0</ele><time>2026-05-03T12:18:57.907Z</time></trkpt><trkpt lat="44.1694594" lon="8.1312574"><ele>754.0</ele><time>2026-05-03T12:18:58.909Z</time></trkpt><trkpt lat="44.1696057" lon="8.1313063"><ele>754.0</ele><time>2026-05-03T12:18:59.907Z</time></trkpt><trkpt lat="44.1697539" lon="8.1313596"><ele>754.0</ele><time>2026-05-03T12:19:00.905Z</time></trkpt><trkpt lat="44.1698911" lon="8.1314403"><ele>753.75</ele><time>2026-05-03T12:19:01.911Z</time></trkpt><trkpt lat="44.1700177" lon="8.1315442"><ele>753.5</ele><time>2026-05-03T12:19:02.904Z</time></trkpt><trkpt lat="44.1701353" lon="8.1316638"><ele>753.25</ele><time>2026-05-03T12:19:03.917Z</time></trkpt><trkpt lat="44.1702176" lon="8.131817"><ele>753.0</ele><time>2026-05-03T12:19:04.914Z</time></trkpt><trkpt lat="44.1702861" lon="8.1319903"><ele>753.0</ele><time>2026-05-03T12:19:05.911Z</time></trkpt><trkpt lat="44.1703681" lon="8.1321239"><ele>753.0</ele><time>2026-05-03T12:19:06.903Z</time></trkpt><trkpt lat="44.1704818" lon="8.1322033"><ele>753.0</ele><time>2026-05-03T12:19:07.91Z</time></trkpt><trkpt lat="44.1705994" lon="8.1322509"><ele>753.0</ele><time>2026-05-03T12:19:08.906Z</time></trkpt><trkpt lat="44.1707152" lon="8.1322585"><ele>755.25</ele><time>2026-05-03T12:19:09.914Z</time></trkpt><trkpt lat="44.1708429" lon="8.1322261"><ele>757.5</ele><time>2026-05-03T12:19:10.921Z</time></trkpt><trkpt lat="44.1709761" lon="8.1321796"><ele>759.75</ele><time>2026-05-03T12:19:11.907Z</time></trkpt><trkpt lat="44.1711247" lon="8.1321258"><ele>762.0</ele><time>2026-05-03T12:19:12.911Z</time></trkpt><trkpt lat="44.1712561" lon="8.1320786"><ele>762.0</ele><time>2026-05-03T12:19:13.921Z</time></trkpt><trkpt lat="44.1713811" lon="8.1320475"><ele>762.0</ele><time>2026-05-03T12:19:14.927Z</time></trkpt><trkpt lat="44.1714955" lon="8.1320338"><ele>762.0</ele><time>2026-05-03T12:19:15.916Z</time></trkpt><trkpt lat="44.1716013" lon="8.1320244"><ele>762.0</ele><time>2026-05-03T12:19:16.905Z</time></trkpt><trkpt lat="44.1717085" lon="8.1320197"><ele>760.2</ele><time>2026-05-03T12:19:17.912Z</time></trkpt><trkpt lat="44.1718053" lon="8.1320147"><ele>758.4000000000001</ele><time>2026-05-03T12:19:18.922Z</time></trkpt><trkpt lat="44.1718975" lon="8.1320177"><ele>756.5999999999999</ele><time>2026-05-03T12:19:19.904Z</time></trkpt><trkpt lat="44.1719858" lon="8.1320332"><ele>754.8</ele><time>2026-05-03T12:19:20.908Z</time></trkpt><trkpt lat="44.1720831" lon="8.1320676"><ele>753.0</ele><time>2026-05-03T12:19:21.906Z</time></trkpt><trkpt lat="44.1721701" lon="8.1321237"><ele>753.0</ele><time>2026-05-03T12:19:22.903Z</time></trkpt><trkpt lat="44.1722398" lon="8.1321882"><ele>753.0</ele><time>2026-05-03T12:19:23.909Z</time></trkpt><trkpt lat="44.1723054" lon="8.1322997"><ele>753.0</ele><time>2026-05-03T12:19:24.908Z</time></trkpt><trkpt lat="44.1723867" lon="8.132453"><ele>753.0</ele><time>2026-05-03T12:19:25.906Z</time></trkpt><trkpt lat="44.1724877" lon="8.1326251"><ele>750.6666666666666</ele><time>2026-05-03T12:19:26.909Z</time></trkpt><trkpt lat="44.1725948" lon="8.1328177"><ele>748.3333333333333</ele><time>2026-05-03T12:19:27.905Z</time></trkpt><trkpt lat="44.1727009" lon="8.1330238"><ele>746.0</ele><time>2026-05-03T12:19:28.913Z</time></trkpt><trkpt lat="44.172795" lon="8.1332122"><ele>743.3333333333333</ele><time>2026-05-03T12:19:29.905Z</time></trkpt><trkpt lat="44.1728882" lon="8.1334006"><ele>740.6666666666666</ele><time>2026-05-03T12:19:30.912Z</time></trkpt><trkpt lat="44.1729766" lon="8.1335693"><ele>738.0</ele><time>2026-05-03T12:19:31.91Z</time></trkpt><trkpt lat="44.1730739" lon="8.1337221"><ele>738.25</ele><time>2026-05-03T12:19:32.907Z</time></trkpt><trkpt lat="44.1731941" lon="8.1338306"><ele>738.5</ele><time>2026-05-03T12:19:33.897Z</time></trkpt><trkpt lat="44.1733226" lon="8.1339137"><ele>738.75</ele><time>2026-05-03T12:19:34.91Z</time></trkpt><trkpt lat="44.1734463" lon="8.1339885"><ele>739.0</ele><time>2026-05-03T12:19:35.905Z</time></trkpt><trkpt lat="44.1735454" lon="8.1340826"><ele>739.0</ele><time>2026-05-03T12:19:36.913Z</time></trkpt><trkpt lat="44.1736126" lon="8.1342194"><ele>739.0</ele><time>2026-05-03T12:19:37.915Z</time></trkpt><trkpt lat="44.1736508" lon="8.1343897"><ele>739.0</ele><time>2026-05-03T12:19:38.907Z</time></trkpt><trkpt lat="44.1736977" lon="8.1345374"><ele>739.0</ele><time>2026-05-03T12:19:39.903Z</time></trkpt><trkpt lat="44.1737521" lon="8.1346668"><ele>739.0</ele><time>2026-05-03T12:19:40.914Z</time></trkpt><trkpt lat="44.1738298" lon="8.1347643"><ele>739.0</ele><time>2026-05-03T12:19:41.908Z</time></trkpt><trkpt lat="44.1739351" lon="8.1348186"><ele>739.0</ele><time>2026-05-03T12:19:42.925Z</time></trkpt><trkpt lat="44.1740542" lon="8.1347813"><ele>739.0</ele><time>2026-05-03T12:19:43.907Z</time></trkpt><trkpt lat="44.174163" lon="8.1347327"><ele>738.5</ele><time>2026-05-03T12:19:44.908Z</time></trkpt><trkpt lat="44.1742584" lon="8.1347295"><ele>738.0</ele><time>2026-05-03T12:19:45.905Z</time></trkpt><trkpt lat="44.1743475" lon="8.1347773"><ele>737.5</ele><time>2026-05-03T12:19:46.909Z</time></trkpt><trkpt lat="44.1744053" lon="8.1348655"><ele>737.0</ele><time>2026-05-03T12:19:47.918Z</time></trkpt><trkpt lat="44.174447" lon="8.1349584"><ele>736.5</ele><time>2026-05-03T12:19:48.929Z</time></trkpt><trkpt lat="44.1744919" lon="8.135051"><ele>736.0</ele><time>2026-05-03T12:19:49.91Z</time></trkpt><trkpt lat="44.1745448" lon="8.1351508"><ele>736.0</ele><time>2026-05-03T12:19:50.911Z</time></trkpt><trkpt lat="44.1746127" lon="8.135244"><ele>736.0</ele><time>2026-05-03T12:19:51.91Z</time></trkpt><trkpt lat="44.1746761" lon="8.1353268"><ele>736.0</ele><time>2026-05-03T12:19:52.914Z</time></trkpt><trkpt lat="44.17474" lon="8.1353861"><ele>736.0</ele><time>2026-05-03T12:19:53.907Z</time></trkpt><trkpt lat="44.1748142" lon="8.1353972"><ele>736.0</ele><time>2026-05-03T12:19:54.916Z</time></trkpt><trkpt lat="44.1748967" lon="8.1353808"><ele>736.0</ele><time>2026-05-03T12:19:55.908Z</time></trkpt><trkpt lat="44.1749697" lon="8.1353459"><ele>734.0</ele><time>2026-05-03T12:19:56.92Z</time></trkpt><trkpt lat="44.1750428" lon="8.1353165"><ele>732.0</ele><time>2026-05-03T12:19:57.918Z</time></trkpt><trkpt lat="44.1751154" lon="8.1352739"><ele>730.0</ele><time>2026-05-03T12:19:58.915Z</time></trkpt><trkpt lat="44.1751976" lon="8.1351977"><ele>728.0</ele><time>2026-05-03T12:19:59.918Z</time></trkpt><trkpt lat="44.1753061" lon="8.1350845"><ele>726.0</ele><time>2026-05-03T12:20:00.908Z</time></trkpt><trkpt lat="44.175433" lon="8.1349348"><ele>726.0</ele><time>2026-05-03T12:20:01.914Z</time></trkpt><trkpt lat="44.1755466" lon="8.1347915"><ele>726.0</ele><time>2026-05-03T12:20:02.903Z</time></trkpt><trkpt lat="44.1756625" lon="8.1346793"><ele>726.0</ele><time>2026-05-03T12:20:03.915Z</time></trkpt><trkpt lat="44.1757771" lon="8.1345922"><ele>726.0</ele><time>2026-05-03T12:20:04.906Z</time></trkpt><trkpt lat="44.1758985" lon="8.1345631"><ele>726.0</ele><time>2026-05-03T12:20:05.915Z</time></trkpt><trkpt lat="44.176035" lon="8.1345582"><ele>726.0</ele><time>2026-05-03T12:20:06.913Z</time></trkpt><trkpt lat="44.1761683" lon="8.1345488"><ele>726.0</ele><time>2026-05-03T12:20:07.913Z</time></trkpt><trkpt lat="44.1763185" lon="8.1345053"><ele>726.0</ele><time>2026-05-03T12:20:08.918Z</time></trkpt><trkpt lat="44.1764506" lon="8.134436"><ele>726.0</ele><time>2026-05-03T12:20:09.916Z</time></trkpt><trkpt lat="44.1765864" lon="8.1343561"><ele>726.0</ele><time>2026-05-03T12:20:10.908Z</time></trkpt><trkpt lat="44.1767257" lon="8.1342623"><ele>726.0</ele><time>2026-05-03T12:20:11.911Z</time></trkpt><trkpt lat="44.1768801" lon="8.1341479"><ele>725.6666666666666</ele><time>2026-05-03T12:20:12.906Z</time></trkpt><trkpt lat="44.1770453" lon="8.134022"><ele>725.3333333333333</ele><time>2026-05-03T12:20:13.907Z</time></trkpt><trkpt lat="44.1772062" lon="8.1338941"><ele>725.0</ele><time>2026-05-03T12:20:14.927Z</time></trkpt><trkpt lat="44.1773643" lon="8.1337667"><ele>724.3333333333333</ele><time>2026-05-03T12:20:15.907Z</time></trkpt><trkpt lat="44.1775178" lon="8.1336481"><ele>723.6666666666666</ele><time>2026-05-03T12:20:16.913Z</time></trkpt><trkpt lat="44.1776603" lon="8.1335418"><ele>723.0</ele><time>2026-05-03T12:20:17.91Z</time></trkpt><trkpt lat="44.1777988" lon="8.1334504"><ele>723.0</ele><time>2026-05-03T12:20:18.922Z</time></trkpt><trkpt lat="44.1779497" lon="8.1333854"><ele>723.0</ele><time>2026-05-03T12:20:19.914Z</time></trkpt><trkpt lat="44.1781025" lon="8.1333696"><ele>723.0</ele><time>2026-05-03T12:20:20.904Z</time></trkpt><trkpt lat="44.178254" lon="8.1333624"><ele>724.3333333333334</ele><time>2026-05-03T12:20:21.91Z</time></trkpt><trkpt lat="44.1784078" lon="8.1333215"><ele>725.6666666666667</ele><time>2026-05-03T12:20:22.91Z</time></trkpt><trkpt lat="44.1785554" lon="8.1332275"><ele>727.0</ele><time>2026-05-03T12:20:23.909Z</time></trkpt><trkpt lat="44.1786887" lon="8.1331176"><ele>724.0</ele><time>2026-05-03T12:20:24.914Z</time></trkpt><trkpt lat="44.1788243" lon="8.1330229"><ele>721.0</ele><time>2026-05-03T12:20:25.913Z</time></trkpt><trkpt lat="44.1789797" lon="8.132951"><ele>718.0</ele><time>2026-05-03T12:20:26.907Z</time></trkpt><trkpt lat="44.1791438" lon="8.1329119"><ele>718.0</ele><time>2026-05-03T12:20:27.91Z</time></trkpt><trkpt lat="44.1793088" lon="8.1328691"><ele>718.0</ele><time>2026-05-03T12:20:28.91Z</time></trkpt><trkpt lat="44.1794753" lon="8.1328026"><ele>718.0</ele><time>2026-05-03T12:20:29.907Z</time></trkpt><trkpt lat="44.1796393" lon="8.1327208"><ele>718.0</ele><time>2026-05-03T12:20:30.911Z</time></trkpt><trkpt lat="44.1797939" lon="8.1326275"><ele>718.0</ele><time>2026-05-03T12:20:31.905Z</time></trkpt><trkpt lat="44.1799444" lon="8.1325326"><ele>718.0</ele><time>2026-05-03T12:20:32.916Z</time></trkpt><trkpt lat="44.1800684" lon="8.1324188"><ele>717.3333333333334</ele><time>2026-05-03T12:20:33.908Z</time></trkpt><trkpt lat="44.1801739" lon="8.1322511"><ele>716.6666666666666</ele><time>2026-05-03T12:20:34.9Z</time></trkpt><trkpt lat="44.1802621" lon="8.1320443"><ele>716.0</ele><time>2026-05-03T12:20:35.916Z</time></trkpt><trkpt lat="44.1803437" lon="8.1318634"><ele>716.0</ele><time>2026-05-03T12:20:36.915Z</time></trkpt><trkpt lat="44.1804276" lon="8.1316896"><ele>716.0</ele><time>2026-05-03T12:20:37.899Z</time></trkpt><trkpt lat="44.1805189" lon="8.1315413"><ele>716.0</ele><time>2026-05-03T12:20:38.911Z</time></trkpt><trkpt lat="44.180627" lon="8.1314162"><ele>716.0</ele><time>2026-05-03T12:20:39.912Z</time></trkpt><trkpt lat="44.1807562" lon="8.1313143"><ele>715.6666666666666</ele><time>2026-05-03T12:20:40.897Z</time></trkpt><trkpt lat="44.1808982" lon="8.1312103"><ele>715.3333333333334</ele><time>2026-05-03T12:20:41.92Z</time></trkpt><trkpt lat="44.181039" lon="8.1310972"><ele>715.0</ele><time>2026-05-03T12:20:42.913Z</time></trkpt><trkpt lat="44.1811698" lon="8.1309841"><ele>715.0</ele><time>2026-05-03T12:20:43.904Z</time></trkpt><trkpt lat="44.1812983" lon="8.1308746"><ele>715.0</ele><time>2026-05-03T12:20:44.911Z</time></trkpt><trkpt lat="44.1814106" lon="8.1307301"><ele>715.0</ele><time>2026-05-03T12:20:45.904Z</time></trkpt><trkpt lat="44.1815152" lon="8.1305514"><ele>714.6666666666667</ele><time>2026-05-03T12:20:46.915Z</time></trkpt><trkpt lat="44.1816275" lon="8.1303783"><ele>714.3333333333334</ele><time>2026-05-03T12:20:47.906Z</time></trkpt><trkpt lat="44.1817521" lon="8.1302198"><ele>714.0</ele><time>2026-05-03T12:20:48.91Z</time></trkpt><trkpt lat="44.1818794" lon="8.1300784"><ele>714.0</ele><time>2026-05-03T12:20:49.917Z</time></trkpt><trkpt lat="44.1820041" lon="8.1299737"><ele>714.0</ele><time>2026-05-03T12:20:50.906Z</time></trkpt><trkpt lat="44.1821367" lon="8.1299006"><ele>714.0</ele><time>2026-05-03T12:20:51.907Z</time></trkpt><trkpt lat="44.1822941" lon="8.1298531"><ele>714.0</ele><time>2026-05-03T12:20:52.906Z</time></trkpt><trkpt lat="44.1824629" lon="8.1298075"><ele>713.0</ele><time>2026-05-03T12:20:53.909Z</time></trkpt><trkpt lat="44.1826428" lon="8.1297455"><ele>712.0</ele><time>2026-05-03T12:20:54.91Z</time></trkpt><trkpt lat="44.1828374" lon="8.1297008"><ele>711.0</ele><time>2026-05-03T12:20:55.903Z</time></trkpt><trkpt lat="44.1830208" lon="8.1296514"><ele>712.0</ele><time>2026-05-03T12:20:56.91Z</time></trkpt><trkpt lat="44.1831987" lon="8.1296064"><ele>713.0</ele><time>2026-05-03T12:20:57.92Z</time></trkpt><trkpt lat="44.1833767" lon="8.1295598"><ele>714.0</ele><time>2026-05-03T12:20:58.914Z</time></trkpt><trkpt lat="44.1835608" lon="8.1295161"><ele>714.0</ele><time>2026-05-03T12:20:59.909Z</time></trkpt><trkpt lat="44.1837395" lon="8.1294651"><ele>714.0</ele><time>2026-05-03T12:21:00.915Z</time></trkpt><trkpt lat="44.1839238" lon="8.1294105"><ele>714.0</ele><time>2026-05-03T12:21:01.912Z</time></trkpt><trkpt lat="44.1841006" lon="8.129368"><ele>713.3333333333334</ele><time>2026-05-03T12:21:02.91Z</time></trkpt><trkpt lat="44.1842793" lon="8.1293299"><ele>712.6666666666667</ele><time>2026-05-03T12:21:03.914Z</time></trkpt><trkpt lat="44.1844572" lon="8.1293019"><ele>712.0</ele><time>2026-05-03T12:21:04.914Z</time></trkpt><trkpt lat="44.1846365" lon="8.1292786"><ele>712.0</ele><time>2026-05-03T12:21:05.913Z</time></trkpt><trkpt lat="44.1848219" lon="8.1292259"><ele>712.0</ele><time>2026-05-03T12:21:06.912Z</time></trkpt><trkpt lat="44.1850034" lon="8.1291396"><ele>712.0</ele><time>2026-05-03T12:21:07.913Z</time></trkpt><trkpt lat="44.1851737" lon="8.1290314"><ele>710.0</ele><time>2026-05-03T12:21:08.915Z</time></trkpt><trkpt lat="44.1853503" lon="8.1289077"><ele>708.0</ele><time>2026-05-03T12:21:09.91Z</time></trkpt><trkpt lat="44.1855163" lon="8.1287824"><ele>706.0</ele><time>2026-05-03T12:21:10.923Z</time></trkpt><trkpt lat="44.1856763" lon="8.1286668"><ele>705.6666666666667</ele><time>2026-05-03T12:21:11.906Z</time></trkpt><trkpt lat="44.1858361" lon="8.1285756"><ele>705.3333333333334</ele><time>2026-05-03T12:21:12.91Z</time></trkpt><trkpt lat="44.1860001" lon="8.1285218"><ele>705.0</ele><time>2026-05-03T12:21:13.907Z</time></trkpt><trkpt lat="44.1861551" lon="8.1285219"><ele>705.0</ele><time>2026-05-03T12:21:14.92Z</time></trkpt><trkpt lat="44.1862894" lon="8.1285356"><ele>705.0</ele><time>2026-05-03T12:21:15.91Z</time></trkpt><trkpt lat="44.1864096" lon="8.1285817"><ele>705.0</ele><time>2026-05-03T12:21:16.908Z</time></trkpt><trkpt lat="44.1865238" lon="8.1286948"><ele>705.0</ele><time>2026-05-03T12:21:17.913Z</time></trkpt><trkpt lat="44.1866215" lon="8.1288341"><ele>705.25</ele><time>2026-05-03T12:21:18.913Z</time></trkpt><trkpt lat="44.1867163" lon="8.1289727"><ele>705.5</ele><time>2026-05-03T12:21:19.912Z</time></trkpt><trkpt lat="44.1868084" lon="8.1291016"><ele>705.75</ele><time>2026-05-03T12:21:20.913Z</time></trkpt><trkpt lat="44.1869066" lon="8.1292167"><ele>706.0</ele><time>2026-05-03T12:21:21.909Z</time></trkpt><trkpt lat="44.1870007" lon="8.1292908"><ele>706.0</ele><time>2026-05-03T12:21:22.92Z</time></trkpt><trkpt lat="44.1871058" lon="8.1293172"><ele>706.0</ele><time>2026-05-03T12:21:23.913Z</time></trkpt><trkpt lat="44.1871976" lon="8.1293115"><ele>706.0</ele><time>2026-05-03T12:21:24.912Z</time></trkpt><trkpt lat="44.1872986" lon="8.1292944"><ele>706.0</ele><time>2026-05-03T12:21:25.924Z</time></trkpt><trkpt lat="44.1873961" lon="8.129274"><ele>706.0</ele><time>2026-05-03T12:21:26.93Z</time></trkpt><trkpt lat="44.1874901" lon="8.1292571"><ele>705.5</ele><time>2026-05-03T12:21:27.908Z</time></trkpt><trkpt lat="44.1875885" lon="8.12924"><ele>705.0</ele><time>2026-05-03T12:21:28.912Z</time></trkpt><trkpt lat="44.1876793" lon="8.1292221"><ele>704.5</ele><time>2026-05-03T12:21:29.904Z</time></trkpt><trkpt lat="44.1877627" lon="8.129203"><ele>704.0</ele><time>2026-05-03T12:21:30.924Z</time></trkpt><trkpt lat="44.1878385" lon="8.129183"><ele>703.5</ele><time>2026-05-03T12:21:31.914Z</time></trkpt><trkpt lat="44.1879016" lon="8.1291787"><ele>703.0</ele><time>2026-05-03T12:21:32.929Z</time></trkpt><trkpt lat="44.1879695" lon="8.1291995"><ele>703.0</ele><time>2026-05-03T12:21:33.923Z</time></trkpt><trkpt lat="44.1880349" lon="8.1292598"><ele>703.0</ele><time>2026-05-03T12:21:34.921Z</time></trkpt><trkpt lat="44.1881022" lon="8.1293154"><ele>703.0</ele><time>2026-05-03T12:21:35.922Z</time></trkpt><trkpt lat="44.1881761" lon="8.1293185"><ele>703.0</ele><time>2026-05-03T12:21:36.915Z</time></trkpt><trkpt lat="44.1882556" lon="8.1292573"><ele>703.0</ele><time>2026-05-03T12:21:37.922Z</time></trkpt><trkpt lat="44.1883403" lon="8.1291825"><ele>703.0</ele><time>2026-05-03T12:21:38.911Z</time></trkpt><trkpt lat="44.1884308" lon="8.1290966"><ele>702.75</ele><time>2026-05-03T12:21:39.911Z</time></trkpt><trkpt lat="44.1885374" lon="8.1290416"><ele>702.5</ele><time>2026-05-03T12:21:40.915Z</time></trkpt><trkpt lat="44.1886712" lon="8.1289939"><ele>702.25</ele><time>2026-05-03T12:21:41.92Z</time></trkpt><trkpt lat="44.1888355" lon="8.1289522"><ele>702.0</ele><time>2026-05-03T12:21:42.922Z</time></trkpt><trkpt lat="44.1890126" lon="8.1289149"><ele>701.6666666666666</ele><time>2026-05-03T12:21:43.923Z</time></trkpt><trkpt lat="44.189184" lon="8.1288792"><ele>701.3333333333333</ele><time>2026-05-03T12:21:44.925Z</time></trkpt><trkpt lat="44.1893741" lon="8.1288352"><ele>701.0</ele><time>2026-05-03T12:21:45.917Z</time></trkpt><trkpt lat="44.1895853" lon="8.1287794"><ele>701.0</ele><time>2026-05-03T12:21:46.913Z</time></trkpt><trkpt lat="44.1897905" lon="8.1287259"><ele>701.0</ele><time>2026-05-03T12:21:47.912Z</time></trkpt><trkpt lat="44.1899821" lon="8.1286885"><ele>701.0</ele><time>2026-05-03T12:21:48.919Z</time></trkpt><trkpt lat="44.1901313" lon="8.1286483"><ele>701.1666666666666</ele><time>2026-05-03T12:21:49.914Z</time></trkpt><trkpt lat="44.190242" lon="8.1286305"><ele>701.3333333333333</ele><time>2026-05-03T12:21:50.918Z</time></trkpt><trkpt lat="44.1903265" lon="8.1286242"><ele>701.5</ele><time>2026-05-03T12:21:51.918Z</time></trkpt><trkpt lat="44.1903916" lon="8.1286128"><ele>701.6666666666666</ele><time>2026-05-03T12:21:52.93Z</time></trkpt><trkpt lat="44.1904611" lon="8.1285787"><ele>701.8333333333334</ele><time>2026-05-03T12:21:55.905Z</time></trkpt><trkpt lat="44.1905475" lon="8.128542"><ele>702.0</ele><time>2026-05-03T12:21:58.916Z</time></trkpt><trkpt lat="44.1906718" lon="8.1284803"><ele>702.25</ele><time>2026-05-03T12:22:00.917Z</time></trkpt><trkpt lat="44.1907767" lon="8.1284053"><ele>702.5</ele><time>2026-05-03T12:22:01.921Z</time></trkpt><trkpt lat="44.1909267" lon="8.1283006"><ele>702.75</ele><time>2026-05-03T12:22:02.916Z</time></trkpt><trkpt lat="44.1910682" lon="8.1281872"><ele>703.0</ele><time>2026-05-03T12:22:03.913Z</time></trkpt><trkpt lat="44.1912288" lon="8.1280592"><ele>703.0</ele><time>2026-05-03T12:22:04.914Z</time></trkpt><trkpt lat="44.1913886" lon="8.1279317"><ele>703.0</ele><time>2026-05-03T12:22:05.922Z</time></trkpt><trkpt lat="44.1915434" lon="8.127811"><ele>703.0</ele><time>2026-05-03T12:22:06.917Z</time></trkpt><trkpt lat="44.1916913" lon="8.1276945"><ele>703.0</ele><time>2026-05-03T12:22:07.913Z</time></trkpt><trkpt lat="44.1918271" lon="8.1275676"><ele>703.0</ele><time>2026-05-03T12:22:08.91Z</time></trkpt><trkpt lat="44.1919616" lon="8.1274288"><ele>703.0</ele><time>2026-05-03T12:22:09.919Z</time></trkpt><trkpt lat="44.1921029" lon="8.1272875"><ele>702.6666666666667</ele><time>2026-05-03T12:22:10.916Z</time></trkpt><trkpt lat="44.1922437" lon="8.1271486"><ele>702.3333333333334</ele><time>2026-05-03T12:22:11.912Z</time></trkpt><trkpt lat="44.1923916" lon="8.1270306"><ele>702.0</ele><time>2026-05-03T12:22:12.921Z</time></trkpt><trkpt lat="44.1925486" lon="8.1269363"><ele>702.0</ele><time>2026-05-03T12:22:13.916Z</time></trkpt><trkpt lat="44.1926973" lon="8.1268567"><ele>702.0</ele><time>2026-05-03T12:22:14.92Z</time></trkpt><trkpt lat="44.1928409" lon="8.1267702"><ele>702.0</ele><time>2026-05-03T12:22:15.908Z</time></trkpt><trkpt lat="44.192975" lon="8.1266732"><ele>702.0</ele><time>2026-05-03T12:22:16.909Z</time></trkpt><trkpt lat="44.193103" lon="8.1265746"><ele>702.0</ele><time>2026-05-03T12:22:17.924Z</time></trkpt><trkpt lat="44.1932311" lon="8.126509"><ele>702.0</ele><time>2026-05-03T12:22:18.916Z</time></trkpt><trkpt lat="44.1933631" lon="8.1265019"><ele>702.0</ele><time>2026-05-03T12:22:19.915Z</time></trkpt><trkpt lat="44.1934875" lon="8.1265472"><ele>703.0</ele><time>2026-05-03T12:22:20.919Z</time></trkpt><trkpt lat="44.1936118" lon="8.1266201"><ele>704.0</ele><time>2026-05-03T12:22:21.917Z</time></trkpt><trkpt lat="44.1937426" lon="8.1266984"><ele>705.0</ele><time>2026-05-03T12:22:22.914Z</time></trkpt><trkpt lat="44.1938708" lon="8.1267681"><ele>706.0</ele><time>2026-05-03T12:22:23.912Z</time></trkpt><trkpt lat="44.1939989" lon="8.1268414"><ele>705.5</ele><time>2026-05-03T12:22:24.921Z</time></trkpt><trkpt lat="44.194117" lon="8.1269026"><ele>705.0</ele><time>2026-05-03T12:22:25.918Z</time></trkpt><trkpt lat="44.1942271" lon="8.1269583"><ele>704.5</ele><time>2026-05-03T12:22:26.924Z</time></trkpt><trkpt lat="44.1943368" lon="8.1270033"><ele>704.0</ele><time>2026-05-03T12:22:27.923Z</time></trkpt><trkpt lat="44.1944374" lon="8.1270372"><ele>704.0</ele><time>2026-05-03T12:22:28.922Z</time></trkpt><trkpt lat="44.1945361" lon="8.1270626"><ele>704.0</ele><time>2026-05-03T12:22:29.915Z</time></trkpt><trkpt lat="44.1946333" lon="8.1270886"><ele>704.0</ele><time>2026-05-03T12:22:30.917Z</time></trkpt><trkpt lat="44.1947311" lon="8.1271098"><ele>704.0</ele><time>2026-05-03T12:22:31.925Z</time></trkpt><trkpt lat="44.1948334" lon="8.1271221"><ele>704.0</ele><time>2026-05-03T12:22:32.921Z</time></trkpt><trkpt lat="44.1949366" lon="8.127111"><ele>702.5</ele><time>2026-05-03T12:22:33.916Z</time></trkpt><trkpt lat="44.1950346" lon="8.1270701"><ele>701.0</ele><time>2026-05-03T12:22:34.925Z</time></trkpt><trkpt lat="44.1951397" lon="8.1269992"><ele>699.5</ele><time>2026-05-03T12:22:35.923Z</time></trkpt><trkpt lat="44.1952483" lon="8.1269177"><ele>698.0</ele><time>2026-05-03T12:22:36.918Z</time></trkpt><trkpt lat="44.1953556" lon="8.1268292"><ele>698.0</ele><time>2026-05-03T12:22:37.92Z</time></trkpt><trkpt lat="44.1954505" lon="8.1267405"><ele>698.0</ele><time>2026-05-03T12:22:38.916Z</time></trkpt><trkpt lat="44.1955426" lon="8.1266487"><ele>698.0</ele><time>2026-05-03T12:22:39.913Z</time></trkpt><trkpt lat="44.1956471" lon="8.1265572"><ele>698.0</ele><time>2026-05-03T12:22:40.922Z</time></trkpt><trkpt lat="44.1957605" lon="8.1264748"><ele>696.75</ele><time>2026-05-03T12:22:41.926Z</time></trkpt><trkpt lat="44.1958796" lon="8.1264035"><ele>695.5</ele><time>2026-05-03T12:22:42.917Z</time></trkpt><trkpt lat="44.1960106" lon="8.1263455"><ele>694.25</ele><time>2026-05-03T12:22:43.913Z</time></trkpt><trkpt lat="44.1961468" lon="8.1262905"><ele>693.0</ele><time>2026-05-03T12:22:44.922Z</time></trkpt><trkpt lat="44.1962966" lon="8.1262306"><ele>693.0</ele><time>2026-05-03T12:22:45.918Z</time></trkpt><trkpt lat="44.1964685" lon="8.1261672"><ele>693.0</ele><time>2026-05-03T12:22:46.928Z</time></trkpt><trkpt lat="44.1966648" lon="8.1260923"><ele>693.0</ele><time>2026-05-03T12:22:47.906Z</time></trkpt><trkpt lat="44.1968719" lon="8.1260161"><ele>693.0</ele><time>2026-05-03T12:22:48.928Z</time></trkpt><trkpt lat="44.1970887" lon="8.1259366"><ele>693.0</ele><time>2026-05-03T12:22:49.92Z</time></trkpt><trkpt lat="44.197293" lon="8.1258665"><ele>693.0</ele><time>2026-05-03T12:22:50.914Z</time></trkpt><trkpt lat="44.1974747" lon="8.1258"><ele>692.0</ele><time>2026-05-03T12:22:51.918Z</time></trkpt><trkpt lat="44.1976444" lon="8.1257162"><ele>691.0</ele><time>2026-05-03T12:22:52.918Z</time></trkpt><trkpt lat="44.1978063" lon="8.1256204"><ele>690.0</ele><time>2026-05-03T12:22:53.919Z</time></trkpt><trkpt lat="44.1979742" lon="8.1255158"><ele>690.0</ele><time>2026-05-03T12:22:54.912Z</time></trkpt><trkpt lat="44.1981458" lon="8.1254119"><ele>690.0</ele><time>2026-05-03T12:22:55.92Z</time></trkpt><trkpt lat="44.1983138" lon="8.125308"><ele>690.0</ele><time>2026-05-03T12:22:56.913Z</time></trkpt><trkpt lat="44.1984817" lon="8.1252081"><ele>690.6666666666666</ele><time>2026-05-03T12:22:57.915Z</time></trkpt><trkpt lat="44.1986441" lon="8.1251163"><ele>691.3333333333333</ele><time>2026-05-03T12:22:58.922Z</time></trkpt><trkpt lat="44.198799" lon="8.1250184"><ele>692.0</ele><time>2026-05-03T12:22:59.92Z</time></trkpt><trkpt lat="44.1989497" lon="8.1249292"><ele>690.3333333333333</ele><time>2026-05-03T12:23:00.921Z</time></trkpt><trkpt lat="44.1990909" lon="8.1248413"><ele>688.6666666666666</ele><time>2026-05-03T12:23:01.916Z</time></trkpt><trkpt lat="44.199241" lon="8.1247396"><ele>687.0</ele><time>2026-05-03T12:23:02.918Z</time></trkpt><trkpt lat="44.1993858" lon="8.1246274"><ele>687.0</ele><time>2026-05-03T12:23:03.913Z</time></trkpt><trkpt lat="44.1995274" lon="8.1245066"><ele>687.0</ele><time>2026-05-03T12:23:04.913Z</time></trkpt><trkpt lat="44.1996712" lon="8.1243925"><ele>687.0</ele><time>2026-05-03T12:23:05.912Z</time></trkpt><trkpt lat="44.1998145" lon="8.1242767"><ele>686.6666666666666</ele><time>2026-05-03T12:23:06.912Z</time></trkpt><trkpt lat="44.1999631" lon="8.1241536"><ele>686.3333333333333</ele><time>2026-05-03T12:23:07.92Z</time></trkpt><trkpt lat="44.2001156" lon="8.1240321"><ele>686.0</ele><time>2026-05-03T12:23:08.911Z</time></trkpt><trkpt lat="44.2002697" lon="8.1239056"><ele>686.0</ele><time>2026-05-03T12:23:09.915Z</time></trkpt><trkpt lat="44.2004227" lon="8.1237862"><ele>686.0</ele><time>2026-05-03T12:23:10.918Z</time></trkpt><trkpt lat="44.200578" lon="8.1236614"><ele>686.0</ele><time>2026-05-03T12:23:11.912Z</time></trkpt><trkpt lat="44.2007273" lon="8.1235355"><ele>685.6666666666666</ele><time>2026-05-03T12:23:12.92Z</time></trkpt><trkpt lat="44.2008776" lon="8.1234084"><ele>685.3333333333334</ele><time>2026-05-03T12:23:13.919Z</time></trkpt><trkpt lat="44.2010252" lon="8.1232873"><ele>685.0</ele><time>2026-05-03T12:23:14.914Z</time></trkpt><trkpt lat="44.2011718" lon="8.1231689"><ele>685.0</ele><time>2026-05-03T12:23:15.915Z</time></trkpt><trkpt lat="44.2013171" lon="8.1230495"><ele>685.0</ele><time>2026-05-03T12:23:16.913Z</time></trkpt><trkpt lat="44.2014602" lon="8.1229294"><ele>685.0</ele><time>2026-05-03T12:23:17.926Z</time></trkpt><trkpt lat="44.2016021" lon="8.1228038"><ele>685.0</ele><time>2026-05-03T12:23:18.911Z</time></trkpt><trkpt lat="44.2017286" lon="8.1226693"><ele>685.0</ele><time>2026-05-03T12:23:19.91Z</time></trkpt><trkpt lat="44.201845" lon="8.1225223"><ele>685.0</ele><time>2026-05-03T12:23:20.924Z</time></trkpt><trkpt lat="44.2019526" lon="8.1223727"><ele>685.0</ele><time>2026-05-03T12:23:21.911Z</time></trkpt><trkpt lat="44.2020546" lon="8.1222061"><ele>685.0</ele><time>2026-05-03T12:23:22.911Z</time></trkpt><trkpt lat="44.2021437" lon="8.1220269"><ele>685.0</ele><time>2026-05-03T12:23:23.92Z</time></trkpt><trkpt lat="44.2022093" lon="8.1218438"><ele>685.0</ele><time>2026-05-03T12:23:24.916Z</time></trkpt><trkpt lat="44.2022591" lon="8.121639"><ele>685.0</ele><time>2026-05-03T12:23:25.92Z</time></trkpt><trkpt lat="44.2023005" lon="8.1214225"><ele>685.0</ele><time>2026-05-03T12:23:26.914Z</time></trkpt><trkpt lat="44.2023347" lon="8.1212028"><ele>686.3333333333334</ele><time>2026-05-03T12:23:27.92Z</time></trkpt><trkpt lat="44.202373" lon="8.1209912"><ele>687.6666666666666</ele><time>2026-05-03T12:23:28.918Z</time></trkpt><trkpt lat="44.2024195" lon="8.1207747"><ele>689.0</ele><time>2026-05-03T12:23:29.912Z</time></trkpt><trkpt lat="44.2024801" lon="8.1205667"><ele>689.0</ele><time>2026-05-03T12:23:30.912Z</time></trkpt><trkpt lat="44.2025479" lon="8.1203753"><ele>689.0</ele><time>2026-05-03T12:23:31.915Z</time></trkpt><trkpt lat="44.2026404" lon="8.1202043"><ele>689.0</ele><time>2026-05-03T12:23:32.912Z</time></trkpt><trkpt lat="44.2027452" lon="8.1200426"><ele>687.3333333333333</ele><time>2026-05-03T12:23:33.913Z</time></trkpt><trkpt lat="44.202847" lon="8.1198713"><ele>685.6666666666666</ele><time>2026-05-03T12:23:34.918Z</time></trkpt><trkpt lat="44.2029284" lon="8.1196864"><ele>684.0</ele><time>2026-05-03T12:23:35.92Z</time></trkpt><trkpt lat="44.2029825" lon="8.1194709"><ele>684.0</ele><time>2026-05-03T12:23:36.912Z</time></trkpt><trkpt lat="44.203017" lon="8.1192538"><ele>684.0</ele><time>2026-05-03T12:23:37.926Z</time></trkpt><trkpt lat="44.2030378" lon="8.1190285"><ele>684.0</ele><time>2026-05-03T12:23:38.922Z</time></trkpt><trkpt lat="44.203069" lon="8.1188148"><ele>683.75</ele><time>2026-05-03T12:23:39.914Z</time></trkpt><trkpt lat="44.2031107" lon="8.1186224"><ele>683.5</ele><time>2026-05-03T12:23:40.917Z</time></trkpt><trkpt lat="44.2031672" lon="8.1184289"><ele>683.25</ele><time>2026-05-03T12:23:41.91Z</time></trkpt><trkpt lat="44.2032223" lon="8.1182495"><ele>683.0</ele><time>2026-05-03T12:23:42.914Z</time></trkpt><trkpt lat="44.2032771" lon="8.1180609"><ele>683.75</ele><time>2026-05-03T12:23:43.914Z</time></trkpt><trkpt lat="44.2033167" lon="8.1178632"><ele>684.5</ele><time>2026-05-03T12:23:44.914Z</time></trkpt><trkpt lat="44.2033364" lon="8.1176622"><ele>685.25</ele><time>2026-05-03T12:23:45.911Z</time></trkpt><trkpt lat="44.2033436" lon="8.1174642"><ele>686.0</ele><time>2026-05-03T12:23:46.908Z</time></trkpt><trkpt lat="44.2033377" lon="8.1172661"><ele>686.0</ele><time>2026-05-03T12:23:47.909Z</time></trkpt><trkpt lat="44.2033258" lon="8.1170682"><ele>686.0</ele><time>2026-05-03T12:23:48.912Z</time></trkpt><trkpt lat="44.2033212" lon="8.1168776"><ele>686.0</ele><time>2026-05-03T12:23:49.92Z</time></trkpt><trkpt lat="44.2033376" lon="8.1166962"><ele>686.0</ele><time>2026-05-03T12:23:50.915Z</time></trkpt><trkpt lat="44.203373" lon="8.1165385"><ele>685.75</ele><time>2026-05-03T12:23:51.906Z</time></trkpt><trkpt lat="44.2034067" lon="8.116385"><ele>685.5</ele><time>2026-05-03T12:23:52.913Z</time></trkpt><trkpt lat="44.2034326" lon="8.116223"><ele>685.25</ele><time>2026-05-03T12:23:53.908Z</time></trkpt><trkpt lat="44.2034576" lon="8.1160645"><ele>685.0</ele><time>2026-05-03T12:23:54.92Z</time></trkpt><trkpt lat="44.2034869" lon="8.1159068"><ele>685.0</ele><time>2026-05-03T12:23:55.933Z</time></trkpt><trkpt lat="44.2035183" lon="8.1157634"><ele>685.0</ele><time>2026-05-03T12:23:56.908Z</time></trkpt><trkpt lat="44.2035692" lon="8.1156309"><ele>685.0</ele><time>2026-05-03T12:23:57.92Z</time></trkpt><trkpt lat="44.2036455" lon="8.1155157"><ele>685.0</ele><time>2026-05-03T12:23:58.91Z</time></trkpt><trkpt lat="44.2037353" lon="8.1154139"><ele>685.0</ele><time>2026-05-03T12:23:59.915Z</time></trkpt><trkpt lat="44.2038491" lon="8.1153178"><ele>684.3333333333334</ele><time>2026-05-03T12:24:00.914Z</time></trkpt><trkpt lat="44.203992" lon="8.115233"><ele>683.6666666666666</ele><time>2026-05-03T12:24:01.913Z</time></trkpt><trkpt lat="44.2041806" lon="8.1151332"><ele>683.0</ele><time>2026-05-03T12:24:02.913Z</time></trkpt><trkpt lat="44.2043918" lon="8.1150176"><ele>683.0</ele><time>2026-05-03T12:24:03.917Z</time></trkpt><trkpt lat="44.2045967" lon="8.1149139"><ele>683.0</ele><time>2026-05-03T12:24:04.915Z</time></trkpt><trkpt lat="44.2048024" lon="8.1148111"><ele>683.0</ele><time>2026-05-03T12:24:05.917Z</time></trkpt><trkpt lat="44.2050036" lon="8.114716"><ele>681.0</ele><time>2026-05-03T12:24:06.914Z</time></trkpt><trkpt lat="44.2052137" lon="8.1146303"><ele>679.0</ele><time>2026-05-03T12:24:07.919Z</time></trkpt><trkpt lat="44.2054361" lon="8.1145674"><ele>677.0</ele><time>2026-05-03T12:24:08.918Z</time></trkpt><trkpt lat="44.2056512" lon="8.1145159"><ele>677.0</ele><time>2026-05-03T12:24:09.919Z</time></trkpt><trkpt lat="44.2058549" lon="8.1144567"><ele>677.0</ele><time>2026-05-03T12:24:10.915Z</time></trkpt><trkpt lat="44.2060519" lon="8.1143971"><ele>677.0</ele><time>2026-05-03T12:24:11.915Z</time></trkpt><trkpt lat="44.206239" lon="8.1143374"><ele>677.0</ele><time>2026-05-03T12:24:12.913Z</time></trkpt><trkpt lat="44.2064111" lon="8.1142898"><ele>677.0</ele><time>2026-05-03T12:24:13.914Z</time></trkpt><trkpt lat="44.2065615" lon="8.1142443"><ele>677.0</ele><time>2026-05-03T12:24:14.914Z</time></trkpt><trkpt lat="44.2067033" lon="8.1142095"><ele>678.25</ele><time>2026-05-03T12:24:15.918Z</time></trkpt><trkpt lat="44.206834" lon="8.1141834"><ele>679.5</ele><time>2026-05-03T12:24:16.915Z</time></trkpt><trkpt lat="44.2069601" lon="8.1141846"><ele>680.75</ele><time>2026-05-03T12:24:17.922Z</time></trkpt><trkpt lat="44.2070828" lon="8.1141989"><ele>682.0</ele><time>2026-05-03T12:24:18.909Z</time></trkpt><trkpt lat="44.2072109" lon="8.1141939"><ele>683.5</ele><time>2026-05-03T12:24:19.914Z</time></trkpt><trkpt lat="44.2073362" lon="8.1141807"><ele>685.0</ele><time>2026-05-03T12:24:20.904Z</time></trkpt><trkpt lat="44.207461" lon="8.1141267"><ele>686.5</ele><time>2026-05-03T12:24:21.905Z</time></trkpt><trkpt lat="44.2075757" lon="8.1140284"><ele>688.0</ele><time>2026-05-03T12:24:22.917Z</time></trkpt><trkpt lat="44.2076882" lon="8.1139185"><ele>683.6666666666667</ele><time>2026-05-03T12:24:23.905Z</time></trkpt><trkpt lat="44.2078249" lon="8.1138107"><ele>679.3333333333334</ele><time>2026-05-03T12:24:24.911Z</time></trkpt><trkpt lat="44.2079895" lon="8.1136918"><ele>675.0</ele><time>2026-05-03T12:24:25.905Z</time></trkpt><trkpt lat="44.2081549" lon="8.1135777"><ele>675.5</ele><time>2026-05-03T12:24:26.915Z</time></trkpt><trkpt lat="44.2083067" lon="8.1134727"><ele>676.0</ele><time>2026-05-03T12:24:27.914Z</time></trkpt><trkpt lat="44.2084406" lon="8.1133786"><ele>676.5</ele><time>2026-05-03T12:24:28.906Z</time></trkpt><trkpt lat="44.2085571" lon="8.1133022"><ele>677.0</ele><time>2026-05-03T12:24:29.909Z</time></trkpt><trkpt lat="44.2086669" lon="8.1132608"><ele>677.0</ele><time>2026-05-03T12:24:30.911Z</time></trkpt><trkpt lat="44.2087701" lon="8.1132386"><ele>677.0</ele><time>2026-05-03T12:24:31.913Z</time></trkpt><trkpt lat="44.208873" lon="8.1132333"><ele>677.0</ele><time>2026-05-03T12:24:32.914Z</time></trkpt><trkpt lat="44.2089901" lon="8.1132393"><ele>677.0</ele><time>2026-05-03T12:24:33.921Z</time></trkpt><trkpt lat="44.2091172" lon="8.113248"><ele>677.6666666666666</ele><time>2026-05-03T12:24:34.917Z</time></trkpt><trkpt lat="44.209251" lon="8.1132535"><ele>678.3333333333334</ele><time>2026-05-03T12:24:35.913Z</time></trkpt><trkpt lat="44.209407" lon="8.1132653"><ele>679.0</ele><time>2026-05-03T12:24:36.909Z</time></trkpt><trkpt lat="44.2095843" lon="8.1132833"><ele>679.0</ele><time>2026-05-03T12:24:37.911Z</time></trkpt><trkpt lat="44.2097789" lon="8.1133067"><ele>679.0</ele><time>2026-05-03T12:24:38.911Z</time></trkpt><trkpt lat="44.2099883" lon="8.1133354"><ele>679.0</ele><time>2026-05-03T12:24:39.911Z</time></trkpt><trkpt lat="44.210205" lon="8.113369"><ele>679.6666666666667</ele><time>2026-05-03T12:24:40.92Z</time></trkpt><trkpt lat="44.2103982" lon="8.1134036"><ele>680.3333333333334</ele><time>2026-05-03T12:24:41.912Z</time></trkpt><trkpt lat="44.2105722" lon="8.1134459"><ele>681.0</ele><time>2026-05-03T12:24:42.92Z</time></trkpt><trkpt lat="44.2107286" lon="8.1134983"><ele>679.75</ele><time>2026-05-03T12:24:43.92Z</time></trkpt><trkpt lat="44.2108783" lon="8.1135537"><ele>678.5</ele><time>2026-05-03T12:24:44.915Z</time></trkpt><trkpt lat="44.2110191" lon="8.1136005"><ele>677.25</ele><time>2026-05-03T12:24:45.915Z</time></trkpt><trkpt lat="44.2111514" lon="8.1136475"><ele>676.0</ele><time>2026-05-03T12:24:46.925Z</time></trkpt><trkpt lat="44.2112762" lon="8.1136912"><ele>676.0</ele><time>2026-05-03T12:24:47.92Z</time></trkpt><trkpt lat="44.2113908" lon="8.1137317"><ele>676.0</ele><time>2026-05-03T12:24:48.912Z</time></trkpt><trkpt lat="44.2115" lon="8.1137762"><ele>676.0</ele><time>2026-05-03T12:24:49.918Z</time></trkpt><trkpt lat="44.2116027" lon="8.1138216"><ele>676.0</ele><time>2026-05-03T12:24:50.915Z</time></trkpt><trkpt lat="44.2117086" lon="8.113858"><ele>676.0</ele><time>2026-05-03T12:24:51.914Z</time></trkpt><trkpt lat="44.2118217" lon="8.1139039"><ele>676.25</ele><time>2026-05-03T12:24:52.92Z</time></trkpt><trkpt lat="44.2119475" lon="8.1139598"><ele>676.5</ele><time>2026-05-03T12:24:53.91Z</time></trkpt><trkpt lat="44.2120786" lon="8.1140257"><ele>676.75</ele><time>2026-05-03T12:24:54.911Z</time></trkpt><trkpt lat="44.2122272" lon="8.1140933"><ele>677.0</ele><time>2026-05-03T12:24:55.915Z</time></trkpt><trkpt lat="44.2123947" lon="8.1141713"><ele>675.6666666666666</ele><time>2026-05-03T12:24:56.916Z</time></trkpt><trkpt lat="44.2125567" lon="8.1142659"><ele>674.3333333333334</ele><time>2026-05-03T12:24:57.918Z</time></trkpt><trkpt lat="44.2127028" lon="8.1143489"><ele>673.0</ele><time>2026-05-03T12:24:58.915Z</time></trkpt><trkpt lat="44.2128406" lon="8.1144457"><ele>673.0</ele><time>2026-05-03T12:24:59.921Z</time></trkpt><trkpt lat="44.2129658" lon="8.1145428"><ele>673.0</ele><time>2026-05-03T12:25:00.913Z</time></trkpt><trkpt lat="44.2130843" lon="8.1146509"><ele>673.0</ele><time>2026-05-03T12:25:01.928Z</time></trkpt><trkpt lat="44.2131985" lon="8.1147614"><ele>673.0</ele><time>2026-05-03T12:25:02.916Z</time></trkpt><trkpt lat="44.2133203" lon="8.1148884"><ele>674.0</ele><time>2026-05-03T12:25:03.916Z</time></trkpt><trkpt lat="44.213447" lon="8.1150245"><ele>675.0</ele><time>2026-05-03T12:25:04.909Z</time></trkpt><trkpt lat="44.2135767" lon="8.1151672"><ele>676.0</ele><time>2026-05-03T12:25:05.93Z</time></trkpt><trkpt lat="44.2137051" lon="8.1153035"><ele>676.0</ele><time>2026-05-03T12:25:06.915Z</time></trkpt><trkpt lat="44.2138292" lon="8.1154395"><ele>676.0</ele><time>2026-05-03T12:25:07.91Z</time></trkpt><trkpt lat="44.2139434" lon="8.1155747"><ele>676.0</ele><time>2026-05-03T12:25:08.909Z</time></trkpt><trkpt lat="44.2140513" lon="8.1156989"><ele>676.0</ele><time>2026-05-03T12:25:09.913Z</time></trkpt><trkpt lat="44.2141584" lon="8.1158093"><ele>677.0</ele><time>2026-05-03T12:25:10.907Z</time></trkpt><trkpt lat="44.2142603" lon="8.1159077"><ele>678.0</ele><time>2026-05-03T12:25:11.914Z</time></trkpt><trkpt lat="44.2143657" lon="8.1159877"><ele>679.0</ele><time>2026-05-03T12:25:12.914Z</time></trkpt><trkpt lat="44.2144839" lon="8.1160442"><ele>680.0</ele><time>2026-05-03T12:25:13.912Z</time></trkpt><trkpt lat="44.2146264" lon="8.1160629"><ele>680.0</ele><time>2026-05-03T12:25:14.916Z</time></trkpt><trkpt lat="44.2148142" lon="8.1160466"><ele>680.0</ele><time>2026-05-03T12:25:15.907Z</time></trkpt><trkpt lat="44.2150363" lon="8.1160329"><ele>680.0</ele><time>2026-05-03T12:25:16.906Z</time></trkpt><trkpt lat="44.2152695" lon="8.1160308"><ele>675.5</ele><time>2026-05-03T12:25:17.915Z</time></trkpt><trkpt lat="44.2155067" lon="8.1160435"><ele>671.0</ele><time>2026-05-03T12:25:18.907Z</time></trkpt><trkpt lat="44.2157399" lon="8.1160793"><ele>671.0</ele><time>2026-05-03T12:25:19.905Z</time></trkpt><trkpt lat="44.2159554" lon="8.1161288"><ele>671.0</ele><time>2026-05-03T12:25:20.91Z</time></trkpt><trkpt lat="44.2161711" lon="8.1161929"><ele>671.0</ele><time>2026-05-03T12:25:21.911Z</time></trkpt><trkpt lat="44.2163868" lon="8.116239"><ele>669.6666666666666</ele><time>2026-05-03T12:25:22.897Z</time></trkpt><trkpt lat="44.2165897" lon="8.1162692"><ele>668.3333333333334</ele><time>2026-05-03T12:25:23.911Z</time></trkpt><trkpt lat="44.2167822" lon="8.1162792"><ele>667.0</ele><time>2026-05-03T12:25:24.912Z</time></trkpt><trkpt lat="44.2169634" lon="8.1162739"><ele>667.0</ele><time>2026-05-03T12:25:25.918Z</time></trkpt><trkpt lat="44.2171386" lon="8.1162429"><ele>667.0</ele><time>2026-05-03T12:25:26.913Z</time></trkpt><trkpt lat="44.2173056" lon="8.1161705"><ele>667.0</ele><time>2026-05-03T12:25:27.918Z</time></trkpt><trkpt lat="44.2174808" lon="8.1160581"><ele>667.0</ele><time>2026-05-03T12:25:28.904Z</time></trkpt><trkpt lat="44.2176528" lon="8.1159295"><ele>667.0</ele><time>2026-05-03T12:25:29.932Z</time></trkpt><trkpt lat="44.2178207" lon="8.1158069"><ele>667.0</ele><time>2026-05-03T12:25:30.909Z</time></trkpt><trkpt lat="44.2179976" lon="8.1156859"><ele>666.6666666666667</ele><time>2026-05-03T12:25:31.911Z</time></trkpt><trkpt lat="44.2181741" lon="8.1155675"><ele>666.3333333333334</ele><time>2026-05-03T12:25:32.904Z</time></trkpt><trkpt lat="44.2183528" lon="8.1154506"><ele>666.0</ele><time>2026-05-03T12:25:33.912Z</time></trkpt><trkpt lat="44.218522" lon="8.1153409"><ele>666.0</ele><time>2026-05-03T12:25:34.919Z</time></trkpt><trkpt lat="44.2186881" lon="8.1152456"><ele>666.0</ele><time>2026-05-03T12:25:35.921Z</time></trkpt><trkpt lat="44.2188439" lon="8.1151626"><ele>666.0</ele><time>2026-05-03T12:25:36.916Z</time></trkpt><trkpt lat="44.2189882" lon="8.1150768"><ele>666.25</ele><time>2026-05-03T12:25:37.909Z</time></trkpt><trkpt lat="44.2191132" lon="8.1149953"><ele>666.5</ele><time>2026-05-03T12:25:38.905Z</time></trkpt><trkpt lat="44.2192245" lon="8.1149175"><ele>666.75</ele><time>2026-05-03T12:25:39.917Z</time></trkpt><trkpt lat="44.2193305" lon="8.1148526"><ele>667.0</ele><time>2026-05-03T12:25:40.922Z</time></trkpt><trkpt lat="44.2194426" lon="8.1148027"><ele>666.5</ele><time>2026-05-03T12:25:41.908Z</time></trkpt><trkpt lat="44.2195508" lon="8.1147905"><ele>666.0</ele><time>2026-05-03T12:25:42.916Z</time></trkpt><trkpt lat="44.2196648" lon="8.1148102"><ele>665.5</ele><time>2026-05-03T12:25:43.908Z</time></trkpt><trkpt lat="44.2197725" lon="8.1148789"><ele>665.0</ele><time>2026-05-03T12:25:44.923Z</time></trkpt><trkpt lat="44.2198835" lon="8.1149839"><ele>665.0</ele><time>2026-05-03T12:25:45.914Z</time></trkpt><trkpt lat="44.2199896" lon="8.1151122"><ele>665.0</ele><time>2026-05-03T12:25:46.919Z</time></trkpt><trkpt lat="44.2200987" lon="8.1152566"><ele>665.0</ele><time>2026-05-03T12:25:47.915Z</time></trkpt><trkpt lat="44.2202119" lon="8.1153955"><ele>665.0</ele><time>2026-05-03T12:25:48.919Z</time></trkpt><trkpt lat="44.2203204" lon="8.1155308"><ele>665.0</ele><time>2026-05-03T12:25:49.912Z</time></trkpt><trkpt lat="44.2204294" lon="8.1156821"><ele>665.0</ele><time>2026-05-03T12:25:50.91Z</time></trkpt><trkpt lat="44.2205329" lon="8.1158443"><ele>665.0</ele><time>2026-05-03T12:25:51.934Z</time></trkpt><trkpt lat="44.2206332" lon="8.1160128"><ele>665.0</ele><time>2026-05-03T12:25:52.908Z</time></trkpt><trkpt lat="44.2207152" lon="8.1161813"><ele>665.0</ele><time>2026-05-03T12:25:53.926Z</time></trkpt><trkpt lat="44.2207866" lon="8.1163484"><ele>665.0</ele><time>2026-05-03T12:25:54.916Z</time></trkpt><trkpt lat="44.2208565" lon="8.1165175"><ele>665.0</ele><time>2026-05-03T12:25:55.925Z</time></trkpt><trkpt lat="44.220928" lon="8.1166901"><ele>666.75</ele><time>2026-05-03T12:25:56.919Z</time></trkpt><trkpt lat="44.2209912" lon="8.1168547"><ele>668.5</ele><time>2026-05-03T12:25:57.91Z</time></trkpt><trkpt lat="44.2210472" lon="8.1170132"><ele>670.25</ele><time>2026-05-03T12:25:58.915Z</time></trkpt><trkpt lat="44.2211114" lon="8.1171691"><ele>672.0</ele><time>2026-05-03T12:25:59.916Z</time></trkpt><trkpt lat="44.2211792" lon="8.1173088"><ele>673.25</ele><time>2026-05-03T12:26:00.927Z</time></trkpt><trkpt lat="44.2212575" lon="8.1174578"><ele>674.5</ele><time>2026-05-03T12:26:01.92Z</time></trkpt><trkpt lat="44.2213491" lon="8.1175972"><ele>675.75</ele><time>2026-05-03T12:26:02.911Z</time></trkpt><trkpt lat="44.2214418" lon="8.117733"><ele>677.0</ele><time>2026-05-03T12:26:03.912Z</time></trkpt><trkpt lat="44.2215374" lon="8.1178687"><ele>675.0</ele><time>2026-05-03T12:26:04.918Z</time></trkpt><trkpt lat="44.2216356" lon="8.1179987"><ele>673.0</ele><time>2026-05-03T12:26:05.923Z</time></trkpt><trkpt lat="44.2217366" lon="8.1181209"><ele>671.0</ele><time>2026-05-03T12:26:06.915Z</time></trkpt><trkpt lat="44.2218516" lon="8.1182373"><ele>669.0</ele><time>2026-05-03T12:26:07.916Z</time></trkpt><trkpt lat="44.221975" lon="8.118343"><ele>669.0</ele><time>2026-05-03T12:26:08.912Z</time></trkpt><trkpt lat="44.2221052" lon="8.1184473"><ele>669.0</ele><time>2026-05-03T12:26:09.912Z</time></trkpt><trkpt lat="44.2222321" lon="8.11854"><ele>669.0</ele><time>2026-05-03T12:26:10.916Z</time></trkpt><trkpt lat="44.2223639" lon="8.1186248"><ele>669.0</ele><time>2026-05-03T12:26:11.918Z</time></trkpt><trkpt lat="44.2224981" lon="8.118705"><ele>666.0</ele><time>2026-05-03T12:26:12.917Z</time></trkpt><trkpt lat="44.2226386" lon="8.118793"><ele>663.0</ele><time>2026-05-03T12:26:13.912Z</time></trkpt><trkpt lat="44.2227936" lon="8.1188907"><ele>660.0</ele><time>2026-05-03T12:26:14.921Z</time></trkpt><trkpt lat="44.2229527" lon="8.1189869"><ele>660.0</ele><time>2026-05-03T12:26:15.913Z</time></trkpt><trkpt lat="44.223112" lon="8.1190823"><ele>660.0</ele><time>2026-05-03T12:26:16.918Z</time></trkpt><trkpt lat="44.2232669" lon="8.1191857"><ele>660.0</ele><time>2026-05-03T12:26:17.908Z</time></trkpt><trkpt lat="44.223424" lon="8.119297"><ele>660.0</ele><time>2026-05-03T12:26:18.912Z</time></trkpt><trkpt lat="44.2235816" lon="8.1193971"><ele>660.0</ele><time>2026-05-03T12:26:19.913Z</time></trkpt><trkpt lat="44.2237315" lon="8.1194955"><ele>660.0</ele><time>2026-05-03T12:26:20.916Z</time></trkpt><trkpt lat="44.2238796" lon="8.1195952"><ele>659.3333333333334</ele><time>2026-05-03T12:26:21.911Z</time></trkpt><trkpt lat="44.2240279" lon="8.1196875"><ele>658.6666666666667</ele><time>2026-05-03T12:26:22.911Z</time></trkpt><trkpt lat="44.2241776" lon="8.1197819"><ele>658.0</ele><time>2026-05-03T12:26:23.911Z</time></trkpt><trkpt lat="44.2243215" lon="8.119873"><ele>658.25</ele><time>2026-05-03T12:26:24.917Z</time></trkpt><trkpt lat="44.2244562" lon="8.1199588"><ele>658.5</ele><time>2026-05-03T12:26:25.921Z</time></trkpt><trkpt lat="44.2245856" lon="8.1200508"><ele>658.75</ele><time>2026-05-03T12:26:26.916Z</time></trkpt><trkpt lat="44.2247068" lon="8.1201403"><ele>659.0</ele><time>2026-05-03T12:26:27.914Z</time></trkpt><trkpt lat="44.2248246" lon="8.1202229"><ele>658.25</ele><time>2026-05-03T12:26:28.911Z</time></trkpt><trkpt lat="44.2249335" lon="8.1203007"><ele>657.5</ele><time>2026-05-03T12:26:29.927Z</time></trkpt><trkpt lat="44.2250494" lon="8.1203699"><ele>656.75</ele><time>2026-05-03T12:26:30.924Z</time></trkpt><trkpt lat="44.2251702" lon="8.1204115"><ele>656.0</ele><time>2026-05-03T12:26:31.921Z</time></trkpt><trkpt lat="44.2252904" lon="8.1204291"><ele>656.0</ele><time>2026-05-03T12:26:32.921Z</time></trkpt><trkpt lat="44.2254109" lon="8.1204204"><ele>656.0</ele><time>2026-05-03T12:26:33.917Z</time></trkpt><trkpt lat="44.2255269" lon="8.1203892"><ele>656.0</ele><time>2026-05-03T12:26:34.918Z</time></trkpt><trkpt lat="44.2256255" lon="8.1203242"><ele>656.0</ele><time>2026-05-03T12:26:35.934Z</time></trkpt><trkpt lat="44.2257155" lon="8.1202428"><ele>656.0</ele><time>2026-05-03T12:26:36.92Z</time></trkpt><trkpt lat="44.2258022" lon="8.1201502"><ele>656.0</ele><time>2026-05-03T12:26:37.922Z</time></trkpt><trkpt lat="44.2258896" lon="8.1200378"><ele>656.0</ele><time>2026-05-03T12:26:38.928Z</time></trkpt><trkpt lat="44.2259612" lon="8.1199246"><ele>656.0</ele><time>2026-05-03T12:26:39.915Z</time></trkpt><trkpt lat="44.2260211" lon="8.1198238"><ele>656.0</ele><time>2026-05-03T12:26:40.918Z</time></trkpt><trkpt lat="44.2260843" lon="8.1197294"><ele>655.25</ele><time>2026-05-03T12:26:41.92Z</time></trkpt><trkpt lat="44.2261526" lon="8.1196274"><ele>654.5</ele><time>2026-05-03T12:26:42.911Z</time></trkpt><trkpt lat="44.2262308" lon="8.119525"><ele>653.75</ele><time>2026-05-03T12:26:43.919Z</time></trkpt><trkpt lat="44.2263317" lon="8.1194204"><ele>653.0</ele><time>2026-05-03T12:26:44.921Z</time></trkpt><trkpt lat="44.2264415" lon="8.1193148"><ele>653.25</ele><time>2026-05-03T12:26:45.931Z</time></trkpt><trkpt lat="44.2265572" lon="8.1191993"><ele>653.5</ele><time>2026-05-03T12:26:46.924Z</time></trkpt><trkpt lat="44.2266733" lon="8.1190824"><ele>653.75</ele><time>2026-05-03T12:26:47.925Z</time></trkpt><trkpt lat="44.2267884" lon="8.1189667"><ele>654.0</ele><time>2026-05-03T12:26:48.918Z</time></trkpt><trkpt lat="44.2268918" lon="8.1188594"><ele>654.0</ele><time>2026-05-03T12:26:49.923Z</time></trkpt><trkpt lat="44.2269874" lon="8.1187555"><ele>654.0</ele><time>2026-05-03T12:26:50.917Z</time></trkpt><trkpt lat="44.2270799" lon="8.1186588"><ele>654.0</ele><time>2026-05-03T12:26:51.918Z</time></trkpt><trkpt lat="44.227176" lon="8.1185657"><ele>654.0</ele><time>2026-05-03T12:26:52.915Z</time></trkpt><trkpt lat="44.2272682" lon="8.1184786"><ele>654.0</ele><time>2026-05-03T12:26:53.926Z</time></trkpt><trkpt lat="44.2273594" lon="8.1183999"><ele>654.0</ele><time>2026-05-03T12:26:54.926Z</time></trkpt><trkpt lat="44.2274491" lon="8.1183338"><ele>654.0</ele><time>2026-05-03T12:26:55.922Z</time></trkpt><trkpt lat="44.2275421" lon="8.1182812"><ele>654.0</ele><time>2026-05-03T12:26:56.916Z</time></trkpt><trkpt lat="44.227632" lon="8.1182326"><ele>654.0</ele><time>2026-05-03T12:26:57.927Z</time></trkpt><trkpt lat="44.2277314" lon="8.1181975"><ele>654.25</ele><time>2026-05-03T12:26:58.917Z</time></trkpt><trkpt lat="44.2278392" lon="8.1181755"><ele>654.5</ele><time>2026-05-03T12:26:59.921Z</time></trkpt><trkpt lat="44.2279516" lon="8.1181646"><ele>654.75</ele><time>2026-05-03T12:27:00.921Z</time></trkpt><trkpt lat="44.2280689" lon="8.118159"><ele>655.0</ele><time>2026-05-03T12:27:01.927Z</time></trkpt><trkpt lat="44.228198" lon="8.1181664"><ele>655.0</ele><time>2026-05-03T12:27:02.924Z</time></trkpt><trkpt lat="44.2283342" lon="8.118173"><ele>655.0</ele><time>2026-05-03T12:27:03.918Z</time></trkpt><trkpt lat="44.228488" lon="8.118185"><ele>655.0</ele><time>2026-05-03T12:27:04.921Z</time></trkpt><trkpt lat="44.2286542" lon="8.1181896"><ele>655.0</ele><time>2026-05-03T12:27:05.916Z</time></trkpt><trkpt lat="44.2288091" lon="8.1181957"><ele>655.0</ele><time>2026-05-03T12:27:06.924Z</time></trkpt><trkpt lat="44.2289535" lon="8.1182025"><ele>655.0</ele><time>2026-05-03T12:27:07.923Z</time></trkpt><trkpt lat="44.2290894" lon="8.1182102"><ele>655.0</ele><time>2026-05-03T12:27:08.921Z</time></trkpt><trkpt lat="44.2292221" lon="8.1182254"><ele>654.5</ele><time>2026-05-03T12:27:09.923Z</time></trkpt><trkpt lat="44.2293614" lon="8.1182424"><ele>654.0</ele><time>2026-05-03T12:27:10.944Z</time></trkpt><trkpt lat="44.2295022" lon="8.1182696"><ele>653.5</ele><time>2026-05-03T12:27:11.92Z</time></trkpt><trkpt lat="44.2296403" lon="8.118303"><ele>653.0</ele><time>2026-05-03T12:27:12.911Z</time></trkpt><trkpt lat="44.2297723" lon="8.1183425"><ele>652.5</ele><time>2026-05-03T12:27:13.922Z</time></trkpt><trkpt lat="44.229894" lon="8.1183523"><ele>652.0</ele><time>2026-05-03T12:27:14.926Z</time></trkpt><trkpt lat="44.2300337" lon="8.1183457"><ele>651.5</ele><time>2026-05-03T12:27:15.925Z</time></trkpt><trkpt lat="44.2301942" lon="8.1183153"><ele>651.0</ele><time>2026-05-03T12:27:16.929Z</time></trkpt><trkpt lat="44.230348" lon="8.1182897"><ele>651.0</ele><time>2026-05-03T12:27:17.923Z</time></trkpt><trkpt lat="44.230481" lon="8.1182574"><ele>651.0</ele><time>2026-05-03T12:27:18.926Z</time></trkpt><trkpt lat="44.2305854" lon="8.1182361"><ele>651.0</ele><time>2026-05-03T12:27:19.929Z</time></trkpt><trkpt lat="44.2306819" lon="8.1182139"><ele>651.0</ele><time>2026-05-03T12:27:20.922Z</time></trkpt><trkpt lat="44.2307708" lon="8.1181969"><ele>651.0</ele><time>2026-05-03T12:27:21.924Z</time></trkpt><trkpt lat="44.2308575" lon="8.1181778"><ele>651.0</ele><time>2026-05-03T12:27:22.924Z</time></trkpt><trkpt lat="44.2309517" lon="8.1181573"><ele>651.0</ele><time>2026-05-03T12:27:23.916Z</time></trkpt><trkpt lat="44.2310499" lon="8.1181401"><ele>651.0</ele><time>2026-05-03T12:27:24.925Z</time></trkpt><trkpt lat="44.2311531" lon="8.1181193"><ele>651.0</ele><time>2026-05-03T12:27:25.925Z</time></trkpt><trkpt lat="44.2312607" lon="8.1180922"><ele>651.0</ele><time>2026-05-03T12:27:26.923Z</time></trkpt><trkpt lat="44.2313798" lon="8.1180736"><ele>650.5</ele><time>2026-05-03T12:27:27.921Z</time></trkpt><trkpt lat="44.2315055" lon="8.1180464"><ele>650.0</ele><time>2026-05-03T12:27:28.925Z</time></trkpt><trkpt lat="44.2316411" lon="8.1180179"><ele>649.5</ele><time>2026-05-03T12:27:29.926Z</time></trkpt><trkpt lat="44.2317962" lon="8.1179865"><ele>649.0</ele><time>2026-05-03T12:27:30.923Z</time></trkpt><trkpt lat="44.2319639" lon="8.1179555"><ele>649.0</ele><time>2026-05-03T12:27:31.924Z</time></trkpt><trkpt lat="44.2321335" lon="8.117924"><ele>649.0</ele><time>2026-05-03T12:27:32.924Z</time></trkpt><trkpt lat="44.2322936" lon="8.1178992"><ele>649.0</ele><time>2026-05-03T12:27:33.926Z</time></trkpt><trkpt lat="44.2324469" lon="8.1178784"><ele>648.75</ele><time>2026-05-03T12:27:34.923Z</time></trkpt><trkpt lat="44.2325889" lon="8.117851"><ele>648.5</ele><time>2026-05-03T12:27:35.933Z</time></trkpt><trkpt lat="44.2327327" lon="8.1178275"><ele>648.25</ele><time>2026-05-03T12:27:36.931Z</time></trkpt><trkpt lat="44.2328824" lon="8.1177934"><ele>648.0</ele><time>2026-05-03T12:27:37.924Z</time></trkpt><trkpt lat="44.2330266" lon="8.117755"><ele>648.3333333333334</ele><time>2026-05-03T12:27:38.92Z</time></trkpt><trkpt lat="44.233178" lon="8.1177161"><ele>648.6666666666667</ele><time>2026-05-03T12:27:39.927Z</time></trkpt><trkpt lat="44.2333523" lon="8.1176755"><ele>649.0</ele><time>2026-05-03T12:27:40.922Z</time></trkpt><trkpt lat="44.2335275" lon="8.1176352"><ele>649.0</ele><time>2026-05-03T12:27:41.922Z</time></trkpt><trkpt lat="44.233683" lon="8.1176036"><ele>649.0</ele><time>2026-05-03T12:27:42.926Z</time></trkpt><trkpt lat="44.2338283" lon="8.1175791"><ele>649.0</ele><time>2026-05-03T12:27:43.917Z</time></trkpt><trkpt lat="44.2339629" lon="8.1175746"><ele>649.0</ele><time>2026-05-03T12:27:44.926Z</time></trkpt><trkpt lat="44.2340823" lon="8.1175636"><ele>648.8000000000001</ele><time>2026-05-03T12:27:45.927Z</time></trkpt><trkpt lat="44.2341885" lon="8.1175742"><ele>648.6</ele><time>2026-05-03T12:27:46.927Z</time></trkpt><trkpt lat="44.2342887" lon="8.1175753"><ele>648.4</ele><time>2026-05-03T12:27:47.913Z</time></trkpt><trkpt lat="44.2343929" lon="8.1175928"><ele>648.2</ele><time>2026-05-03T12:27:48.921Z</time></trkpt><trkpt lat="44.2344941" lon="8.1176191"><ele>648.0</ele><time>2026-05-03T12:27:49.929Z</time></trkpt><trkpt lat="44.2345937" lon="8.1176554"><ele>648.0</ele><time>2026-05-03T12:27:50.932Z</time></trkpt><trkpt lat="44.2346853" lon="8.1176987"><ele>648.0</ele><time>2026-05-03T12:27:51.914Z</time></trkpt><trkpt lat="44.2347855" lon="8.1177456"><ele>648.0</ele><time>2026-05-03T12:27:52.929Z</time></trkpt><trkpt lat="44.2348884" lon="8.1177626"><ele>648.0</ele><time>2026-05-03T12:27:53.922Z</time></trkpt><trkpt lat="44.234971" lon="8.1177617"><ele>648.0</ele><time>2026-05-03T12:27:54.919Z</time></trkpt><trkpt lat="44.2350531" lon="8.1177271"><ele>647.8</ele><time>2026-05-03T12:27:55.933Z</time></trkpt><trkpt lat="44.2351386" lon="8.1176787"><ele>647.5999999999999</ele><time>2026-05-03T12:27:56.918Z</time></trkpt><trkpt lat="44.2352087" lon="8.1176303"><ele>647.4000000000001</ele><time>2026-05-03T12:27:57.921Z</time></trkpt><trkpt lat="44.2352774" lon="8.1175782"><ele>647.2</ele><time>2026-05-03T12:27:58.918Z</time></trkpt><trkpt lat="44.2353442" lon="8.1175311"><ele>647.0</ele><time>2026-05-03T12:27:59.92Z</time></trkpt><trkpt lat="44.2354566" lon="8.1174403"><ele>647.0</ele><time>2026-05-03T12:28:01.925Z</time></trkpt><trkpt lat="44.2355257" lon="8.1173878"><ele>647.0</ele><time>2026-05-03T12:28:02.925Z</time></trkpt><trkpt lat="44.2355926" lon="8.1173422"><ele>647.0</ele><time>2026-05-03T12:28:03.921Z</time></trkpt><trkpt lat="44.2356817" lon="8.117266"><ele>647.0</ele><time>2026-05-03T12:28:05.921Z</time></trkpt><trkpt lat="44.2357406" lon="8.1172087"><ele>647.0</ele><time>2026-05-03T12:28:07.916Z</time></trkpt><trkpt lat="44.2357964" lon="8.1171544"><ele>647.0</ele><time>2026-05-03T12:28:09.923Z</time></trkpt><trkpt lat="44.235853" lon="8.117099"><ele>646.6666666666666</ele><time>2026-05-03T12:28:12.923Z</time></trkpt><trkpt lat="44.2359199" lon="8.1170574"><ele>646.3333333333333</ele><time>2026-05-03T12:28:14.919Z</time></trkpt><trkpt lat="44.235976" lon="8.1170139"><ele>646.0</ele><time>2026-05-03T12:28:17.926Z</time></trkpt><trkpt lat="44.2360478" lon="8.1169673"><ele>645.6666666666666</ele><time>2026-05-03T12:28:20.922Z</time></trkpt><trkpt lat="44.2361235" lon="8.1168957"><ele>645.3333333333334</ele><time>2026-05-03T12:28:23.92Z</time></trkpt><trkpt lat="44.2362061" lon="8.1168385"><ele>645.0</ele><time>2026-05-03T12:28:26.925Z</time></trkpt><trkpt lat="44.2362674" lon="8.1168048"><ele>645.0</ele><time>2026-05-03T12:28:28.925Z</time></trkpt><trkpt lat="44.236332" lon="8.1167541"><ele>645.0</ele><time>2026-05-03T12:28:30.941Z</time></trkpt><trkpt lat="44.2364252" lon="8.1166898"><ele>645.0</ele><time>2026-05-03T12:28:32.925Z</time></trkpt><trkpt lat="44.2365077" lon="8.1166412"><ele>645.0</ele><time>2026-05-03T12:28:34.924Z</time></trkpt><trkpt lat="44.2366121" lon="8.1166534"><ele>645.0</ele><time>2026-05-03T12:28:36.92Z</time></trkpt><trkpt lat="44.2366791" lon="8.1167619"><ele>645.2</ele><time>2026-05-03T12:28:38.929Z</time></trkpt><trkpt lat="44.2366533" lon="8.1169549"><ele>645.4</ele><time>2026-05-03T12:28:40.93Z</time></trkpt><trkpt lat="44.2366244" lon="8.1170593"><ele>645.5999999999999</ele><time>2026-05-03T12:28:41.924Z</time></trkpt><trkpt lat="44.2365938" lon="8.1171431"><ele>645.8</ele><time>2026-05-03T12:28:42.919Z</time></trkpt><trkpt lat="44.2365496" lon="8.1172314"><ele>646.0</ele><time>2026-05-03T12:28:43.921Z</time></trkpt><trkpt lat="44.2365016" lon="8.1173336"><ele>646.3333333333334</ele><time>2026-05-03T12:28:44.919Z</time></trkpt><trkpt lat="44.2364607" lon="8.1174454"><ele>646.6666666666667</ele><time>2026-05-03T12:28:45.921Z</time></trkpt><trkpt lat="44.23642" lon="8.1175716"><ele>647.0</ele><time>2026-05-03T12:28:46.924Z</time></trkpt><trkpt lat="44.2363795" lon="8.1176657"><ele>647.3333333333334</ele><time>2026-05-03T12:28:47.921Z</time></trkpt><trkpt lat="44.2363397" lon="8.1177602"><ele>647.6666666666666</ele><time>2026-05-03T12:28:48.921Z</time></trkpt><trkpt lat="44.2363003" lon="8.1178708"><ele>648.0</ele><time>2026-05-03T12:28:49.924Z</time></trkpt><trkpt lat="44.236264" lon="8.1179745"><ele>648.0</ele><time>2026-05-03T12:28:50.92Z</time></trkpt><trkpt lat="44.2362304" lon="8.1180601"><ele>648.0</ele><time>2026-05-03T12:28:51.915Z</time></trkpt><trkpt lat="44.2361706" lon="8.118184"><ele>648.0</ele><time>2026-05-03T12:28:53.92Z</time></trkpt><trkpt lat="44.2361215" lon="8.1182617"><ele>648.0</ele><time>2026-05-03T12:28:55.911Z</time></trkpt><trkpt lat="44.2360967" lon="8.1183781"><ele>648.0</ele><time>2026-05-03T12:28:58.921Z</time></trkpt><trkpt lat="44.2361715" lon="8.1183212"><ele>648.0</ele><time>2026-05-03T12:29:48.924Z</time></trkpt><trkpt lat="44.2362009" lon="8.1182327"><ele>648.0</ele><time>2026-05-03T12:29:49.912Z</time></trkpt><trkpt lat="44.2362318" lon="8.1181204"><ele>648.0</ele><time>2026-05-03T12:29:50.922Z</time></trkpt><trkpt lat="44.236273" lon="8.1180051"><ele>648.0</ele><time>2026-05-03T12:29:51.917Z</time></trkpt><trkpt lat="44.236319" lon="8.1178926"><ele>648.0</ele><time>2026-05-03T12:29:52.922Z</time></trkpt><trkpt lat="44.2363595" lon="8.117785"><ele>648.0</ele><time>2026-05-03T12:29:53.931Z</time></trkpt><trkpt lat="44.2364041" lon="8.1176668"><ele>648.0</ele><time>2026-05-03T12:29:54.93Z</time></trkpt><trkpt lat="44.2364467" lon="8.1175466"><ele>648.0</ele><time>2026-05-03T12:29:55.92Z</time></trkpt><trkpt lat="44.2364857" lon="8.1174216"><ele>648.0</ele><time>2026-05-03T12:29:56.927Z</time></trkpt><trkpt lat="44.2365172" lon="8.1173003"><ele>648.0</ele><time>2026-05-03T12:29:57.92Z</time></trkpt><trkpt lat="44.2365499" lon="8.1171986"><ele>648.0</ele><time>2026-05-03T12:29:58.918Z</time></trkpt><trkpt lat="44.2365866" lon="8.1170954"><ele>648.0</ele><time>2026-05-03T12:29:59.922Z</time></trkpt><trkpt lat="44.2366221" lon="8.1169812"><ele>647.5999999999999</ele><time>2026-05-03T12:30:00.919Z</time></trkpt><trkpt lat="44.236653" lon="8.116892"><ele>647.1999999999999</ele><time>2026-05-03T12:30:01.915Z</time></trkpt><trkpt lat="44.2366954" lon="8.1167488"><ele>646.8</ele><time>2026-05-03T12:30:03.92Z</time></trkpt><trkpt lat="44.2367643" lon="8.1166335"><ele>646.4</ele><time>2026-05-03T12:30:13.917Z</time></trkpt><trkpt lat="44.2368176" lon="8.1165525"><ele>646.0</ele><time>2026-05-03T12:30:14.927Z</time></trkpt><trkpt lat="44.236876" lon="8.1163902"><ele>645.4</ele><time>2026-05-03T12:30:16.923Z</time></trkpt><trkpt lat="44.2369494" lon="8.1162261"><ele>644.8</ele><time>2026-05-03T12:30:18.935Z</time></trkpt><trkpt lat="44.2369884" lon="8.1161411"><ele>644.1999999999999</ele><time>2026-05-03T12:30:19.924Z</time></trkpt><trkpt lat="44.2370338" lon="8.1160476"><ele>643.5999999999999</ele><time>2026-05-03T12:30:20.922Z</time></trkpt><trkpt lat="44.23709" lon="8.1159476"><ele>643.0</ele><time>2026-05-03T12:30:21.92Z</time></trkpt><trkpt lat="44.2371623" lon="8.1158486"><ele>643.0</ele><time>2026-05-03T12:30:22.921Z</time></trkpt><trkpt lat="44.2372405" lon="8.1157601"><ele>643.0</ele><time>2026-05-03T12:30:23.928Z</time></trkpt><trkpt lat="44.2373208" lon="8.1156601"><ele>643.0</ele><time>2026-05-03T12:30:24.931Z</time></trkpt><trkpt lat="44.2374095" lon="8.1155593"><ele>643.0</ele><time>2026-05-03T12:30:25.926Z</time></trkpt><trkpt lat="44.2375047" lon="8.1154436"><ele>643.0</ele><time>2026-05-03T12:30:26.93Z</time></trkpt><trkpt lat="44.2376047" lon="8.1153136"><ele>642.75</ele><time>2026-05-03T12:30:27.918Z</time></trkpt><trkpt lat="44.2377016" lon="8.115178"><ele>642.5</ele><time>2026-05-03T12:30:28.917Z</time></trkpt><trkpt lat="44.2378033" lon="8.1150549"><ele>642.25</ele><time>2026-05-03T12:30:29.925Z</time></trkpt><trkpt lat="44.2379097" lon="8.114923"><ele>642.0</ele><time>2026-05-03T12:30:30.92Z</time></trkpt><trkpt lat="44.2380224" lon="8.114795"><ele>641.6666666666666</ele><time>2026-05-03T12:30:31.916Z</time></trkpt><trkpt lat="44.2381464" lon="8.1146658"><ele>641.3333333333333</ele><time>2026-05-03T12:30:32.913Z</time></trkpt><trkpt lat="44.2382739" lon="8.1145366"><ele>641.0</ele><time>2026-05-03T12:30:33.921Z</time></trkpt><trkpt lat="44.2384086" lon="8.1144092"><ele>641.0</ele><time>2026-05-03T12:30:34.921Z</time></trkpt><trkpt lat="44.2385526" lon="8.1142805"><ele>641.0</ele><time>2026-05-03T12:30:35.918Z</time></trkpt><trkpt lat="44.2387113" lon="8.1141521"><ele>641.0</ele><time>2026-05-03T12:30:36.92Z</time></trkpt><trkpt lat="44.2388684" lon="8.1140333"><ele>641.6666666666666</ele><time>2026-05-03T12:30:37.925Z</time></trkpt><trkpt lat="44.2390344" lon="8.1139155"><ele>642.3333333333334</ele><time>2026-05-03T12:30:38.923Z</time></trkpt><trkpt lat="44.23921" lon="8.1137989"><ele>643.0</ele><time>2026-05-03T12:30:39.927Z</time></trkpt><trkpt lat="44.2393899" lon="8.1136887"><ele>643.0</ele><time>2026-05-03T12:30:40.92Z</time></trkpt><trkpt lat="44.2395632" lon="8.113596"><ele>643.0</ele><time>2026-05-03T12:30:41.916Z</time></trkpt><trkpt lat="44.23973" lon="8.1135138"><ele>643.0</ele><time>2026-05-03T12:30:42.92Z</time></trkpt><trkpt lat="44.2399017" lon="8.1134385"><ele>642.6666666666667</ele><time>2026-05-03T12:30:43.923Z</time></trkpt><trkpt lat="44.2400783" lon="8.1133708"><ele>642.3333333333334</ele><time>2026-05-03T12:30:44.916Z</time></trkpt><trkpt lat="44.2402492" lon="8.1133069"><ele>642.0</ele><time>2026-05-03T12:30:45.918Z</time></trkpt><trkpt lat="44.2404158" lon="8.1132508"><ele>643.0</ele><time>2026-05-03T12:30:46.918Z</time></trkpt><trkpt lat="44.2405797" lon="8.1132054"><ele>644.0</ele><time>2026-05-03T12:30:47.927Z</time></trkpt><trkpt lat="44.240738" lon="8.1131576"><ele>645.0</ele><time>2026-05-03T12:30:48.922Z</time></trkpt><trkpt lat="44.2408976" lon="8.1131087"><ele>645.0</ele><time>2026-05-03T12:30:49.921Z</time></trkpt><trkpt lat="44.2410515" lon="8.113064"><ele>645.0</ele><time>2026-05-03T12:30:50.935Z</time></trkpt><trkpt lat="44.241201" lon="8.1130153"><ele>645.0</ele><time>2026-05-03T12:30:51.914Z</time></trkpt><trkpt lat="44.2413556" lon="8.1129675"><ele>644.3333333333334</ele><time>2026-05-03T12:30:52.921Z</time></trkpt><trkpt lat="44.2415109" lon="8.1129148"><ele>643.6666666666667</ele><time>2026-05-03T12:30:53.922Z</time></trkpt><trkpt lat="44.2416666" lon="8.1128642"><ele>643.0</ele><time>2026-05-03T12:30:54.925Z</time></trkpt><trkpt lat="44.2418301" lon="8.1128125"><ele>643.0</ele><time>2026-05-03T12:30:55.909Z</time></trkpt><trkpt lat="44.2419961" lon="8.1127629"><ele>643.0</ele><time>2026-05-03T12:30:56.915Z</time></trkpt><trkpt lat="44.242164" lon="8.1127043"><ele>643.0</ele><time>2026-05-03T12:30:57.935Z</time></trkpt><trkpt lat="44.2423318" lon="8.1126488"><ele>642.3333333333334</ele><time>2026-05-03T12:30:58.923Z</time></trkpt><trkpt lat="44.242494" lon="8.112592"><ele>641.6666666666666</ele><time>2026-05-03T12:30:59.92Z</time></trkpt><trkpt lat="44.2426456" lon="8.1125406"><ele>641.0</ele><time>2026-05-03T12:31:00.93Z</time></trkpt><trkpt lat="44.2427857" lon="8.1124989"><ele>641.0</ele><time>2026-05-03T12:31:01.923Z</time></trkpt><trkpt lat="44.2429236" lon="8.1124726"><ele>641.0</ele><time>2026-05-03T12:31:02.916Z</time></trkpt><trkpt lat="44.2430604" lon="8.1124681"><ele>641.0</ele><time>2026-05-03T12:31:03.922Z</time></trkpt><trkpt lat="44.2431984" lon="8.1124789"><ele>641.0</ele><time>2026-05-03T12:31:04.922Z</time></trkpt><trkpt lat="44.2433352" lon="8.1125072"><ele>641.0</ele><time>2026-05-03T12:31:05.923Z</time></trkpt><trkpt lat="44.2434765" lon="8.1125423"><ele>641.0</ele><time>2026-05-03T12:31:06.93Z</time></trkpt><trkpt lat="44.2436114" lon="8.1125885"><ele>641.0</ele><time>2026-05-03T12:31:07.922Z</time></trkpt><trkpt lat="44.2437472" lon="8.1126365"><ele>641.0</ele><time>2026-05-03T12:31:08.922Z</time></trkpt><trkpt lat="44.2438883" lon="8.112685"><ele>640.3333333333333</ele><time>2026-05-03T12:31:09.919Z</time></trkpt><trkpt lat="44.244038" lon="8.1127287"><ele>639.6666666666666</ele><time>2026-05-03T12:31:10.922Z</time></trkpt><trkpt lat="44.2441932" lon="8.1127821"><ele>639.0</ele><time>2026-05-03T12:31:11.916Z</time></trkpt><trkpt lat="44.2443562" lon="8.1128371"><ele>639.0</ele><time>2026-05-03T12:31:12.928Z</time></trkpt><trkpt lat="44.2445234" lon="8.1128907"><ele>639.0</ele><time>2026-05-03T12:31:13.923Z</time></trkpt><trkpt lat="44.2446894" lon="8.1129471"><ele>639.0</ele><time>2026-05-03T12:31:14.913Z</time></trkpt><trkpt lat="44.2448487" lon="8.1130038"><ele>638.6666666666666</ele><time>2026-05-03T12:31:15.925Z</time></trkpt><trkpt lat="44.2450076" lon="8.1130654"><ele>638.3333333333333</ele><time>2026-05-03T12:31:16.917Z</time></trkpt><trkpt lat="44.2451588" lon="8.1131231"><ele>638.0</ele><time>2026-05-03T12:31:17.913Z</time></trkpt><trkpt lat="44.245303" lon="8.1131822"><ele>637.3333333333333</ele><time>2026-05-03T12:31:18.914Z</time></trkpt><trkpt lat="44.245448" lon="8.1132443"><ele>636.6666666666666</ele><time>2026-05-03T12:31:19.929Z</time></trkpt><trkpt lat="44.2456026" lon="8.1133277"><ele>636.0</ele><time>2026-05-03T12:31:20.919Z</time></trkpt><trkpt lat="44.2457592" lon="8.1134478"><ele>636.0</ele><time>2026-05-03T12:31:21.928Z</time></trkpt><trkpt lat="44.245916" lon="8.1135875"><ele>636.0</ele><time>2026-05-03T12:31:22.917Z</time></trkpt><trkpt lat="44.2460815" lon="8.1137385"><ele>636.0</ele><time>2026-05-03T12:31:23.939Z</time></trkpt><trkpt lat="44.2462447" lon="8.1138868"><ele>636.0</ele><time>2026-05-03T12:31:24.916Z</time></trkpt><trkpt lat="44.2463983" lon="8.1140353"><ele>636.0</ele><time>2026-05-03T12:31:25.934Z</time></trkpt><trkpt lat="44.2465412" lon="8.1141606"><ele>636.0</ele><time>2026-05-03T12:31:26.94Z</time></trkpt><trkpt lat="44.246666" lon="8.114275"><ele>636.75</ele><time>2026-05-03T12:31:27.916Z</time></trkpt><trkpt lat="44.2467849" lon="8.1143868"><ele>637.5</ele><time>2026-05-03T12:31:28.925Z</time></trkpt><trkpt lat="44.2468957" lon="8.114504"><ele>638.25</ele><time>2026-05-03T12:31:29.909Z</time></trkpt><trkpt lat="44.2470019" lon="8.1146134"><ele>639.0</ele><time>2026-05-03T12:31:30.913Z</time></trkpt><trkpt lat="44.2471033" lon="8.114711"><ele>639.0</ele><time>2026-05-03T12:31:31.915Z</time></trkpt><trkpt lat="44.2471992" lon="8.1148089"><ele>639.0</ele><time>2026-05-03T12:31:32.916Z</time></trkpt><trkpt lat="44.2472941" lon="8.1149026"><ele>639.0</ele><time>2026-05-03T12:31:33.923Z</time></trkpt><trkpt lat="44.2473882" lon="8.1149908"><ele>639.0</ele><time>2026-05-03T12:31:34.914Z</time></trkpt><trkpt lat="44.2474892" lon="8.1150838"><ele>641.75</ele><time>2026-05-03T12:31:35.918Z</time></trkpt><trkpt lat="44.2475903" lon="8.1151795"><ele>644.5</ele><time>2026-05-03T12:31:36.909Z</time></trkpt><trkpt lat="44.2476874" lon="8.1152703"><ele>647.25</ele><time>2026-05-03T12:31:37.914Z</time></trkpt><trkpt lat="44.2477836" lon="8.1153457"><ele>650.0</ele><time>2026-05-03T12:31:38.913Z</time></trkpt><trkpt lat="44.2478893" lon="8.1154186"><ele>650.0</ele><time>2026-05-03T12:31:39.917Z</time></trkpt><trkpt lat="44.2479931" lon="8.1154739"><ele>650.0</ele><time>2026-05-03T12:31:40.909Z</time></trkpt><trkpt lat="44.2481014" lon="8.1155366"><ele>650.0</ele><time>2026-05-03T12:31:41.917Z</time></trkpt><trkpt lat="44.2482141" lon="8.1155966"><ele>650.0</ele><time>2026-05-03T12:31:42.908Z</time></trkpt><trkpt lat="44.2483358" lon="8.1156457"><ele>658.0</ele><time>2026-05-03T12:31:43.91Z</time></trkpt><trkpt lat="44.2484682" lon="8.1156782"><ele>666.0</ele><time>2026-05-03T12:31:44.911Z</time></trkpt><trkpt lat="44.248619" lon="8.1156885"><ele>674.0</ele><time>2026-05-03T12:31:45.911Z</time></trkpt><trkpt lat="44.2487891" lon="8.1156721"><ele>675.0</ele><time>2026-05-03T12:31:46.914Z</time></trkpt><trkpt lat="44.2489684" lon="8.1156488"><ele>676.0</ele><time>2026-05-03T12:31:47.909Z</time></trkpt><trkpt lat="44.2491535" lon="8.1156361"><ele>677.0</ele><time>2026-05-03T12:31:48.906Z</time></trkpt><trkpt lat="44.2493356" lon="8.1156273"><ele>677.0</ele><time>2026-05-03T12:31:49.907Z</time></trkpt><trkpt lat="44.2495161" lon="8.1156234"><ele>677.0</ele><time>2026-05-03T12:31:50.908Z</time></trkpt><trkpt lat="44.2496894" lon="8.1156241"><ele>677.0</ele><time>2026-05-03T12:31:51.915Z</time></trkpt><trkpt lat="44.2498558" lon="8.1156307"><ele>676.3333333333333</ele><time>2026-05-03T12:31:52.907Z</time></trkpt><trkpt lat="44.2500136" lon="8.1156569"><ele>675.6666666666666</ele><time>2026-05-03T12:31:53.922Z</time></trkpt><trkpt lat="44.2501692" lon="8.1156951"><ele>675.0</ele><time>2026-05-03T12:31:54.91Z</time></trkpt><trkpt lat="44.2503173" lon="8.1157472"><ele>667.3333333333334</ele><time>2026-05-03T12:31:55.909Z</time></trkpt><trkpt lat="44.2504562" lon="8.1158149"><ele>659.6666666666667</ele><time>2026-05-03T12:31:56.906Z</time></trkpt><trkpt lat="44.2505972" lon="8.1159026"><ele>652.0</ele><time>2026-05-03T12:31:57.914Z</time></trkpt><trkpt lat="44.2507315" lon="8.1160036"><ele>652.0</ele><time>2026-05-03T12:31:58.91Z</time></trkpt><trkpt lat="44.2508543" lon="8.1161135"><ele>652.0</ele><time>2026-05-03T12:31:59.919Z</time></trkpt><trkpt lat="44.2509707" lon="8.1162299"><ele>652.0</ele><time>2026-05-03T12:32:00.903Z</time></trkpt><trkpt lat="44.2510911" lon="8.1163429"><ele>652.0</ele><time>2026-05-03T12:32:01.914Z</time></trkpt><trkpt lat="44.2512115" lon="8.1164499"><ele>652.0</ele><time>2026-05-03T12:32:02.909Z</time></trkpt><trkpt lat="44.2513267" lon="8.1165595"><ele>652.0</ele><time>2026-05-03T12:32:03.906Z</time></trkpt><trkpt lat="44.2514458" lon="8.1166697"><ele>652.0</ele><time>2026-05-03T12:32:04.911Z</time></trkpt><trkpt lat="44.2515706" lon="8.1167845"><ele>652.0</ele><time>2026-05-03T12:32:05.906Z</time></trkpt><trkpt lat="44.2516911" lon="8.1168963"><ele>650.75</ele><time>2026-05-03T12:32:06.91Z</time></trkpt><trkpt lat="44.2518165" lon="8.1170035"><ele>649.5</ele><time>2026-05-03T12:32:07.915Z</time></trkpt><trkpt lat="44.2519436" lon="8.1170916"><ele>648.25</ele><time>2026-05-03T12:32:08.909Z</time></trkpt><trkpt lat="44.25207" lon="8.1171678"><ele>647.0</ele><time>2026-05-03T12:32:09.913Z</time></trkpt><trkpt lat="44.2521927" lon="8.1172324"><ele>651.5</ele><time>2026-05-03T12:32:10.91Z</time></trkpt><trkpt lat="44.2523065" lon="8.1172798"><ele>656.0</ele><time>2026-05-03T12:32:11.913Z</time></trkpt><trkpt lat="44.2524227" lon="8.1173188"><ele>660.5</ele><time>2026-05-03T12:32:12.92Z</time></trkpt><trkpt lat="44.2525431" lon="8.1173426"><ele>665.0</ele><time>2026-05-03T12:32:13.914Z</time></trkpt><trkpt lat="44.2526685" lon="8.1173407"><ele>665.0</ele><time>2026-05-03T12:32:14.913Z</time></trkpt><trkpt lat="44.2527931" lon="8.1173292"><ele>665.0</ele><time>2026-05-03T12:32:15.905Z</time></trkpt><trkpt lat="44.2529148" lon="8.1173149"><ele>665.0</ele><time>2026-05-03T12:32:16.916Z</time></trkpt><trkpt lat="44.253034" lon="8.1173099"><ele>665.0</ele><time>2026-05-03T12:32:17.908Z</time></trkpt><trkpt lat="44.25315" lon="8.1173153"><ele>664.75</ele><time>2026-05-03T12:32:18.918Z</time></trkpt><trkpt lat="44.2532666" lon="8.1173291"><ele>664.5</ele><time>2026-05-03T12:32:19.916Z</time></trkpt><trkpt lat="44.2533776" lon="8.1173758"><ele>664.25</ele><time>2026-05-03T12:32:20.908Z</time></trkpt><trkpt lat="44.2534856" lon="8.1174514"><ele>664.0</ele><time>2026-05-03T12:32:21.924Z</time></trkpt><trkpt lat="44.253595" lon="8.1175428"><ele>658.5</ele><time>2026-05-03T12:32:22.908Z</time></trkpt><trkpt lat="44.2537031" lon="8.1176317"><ele>653.0</ele><time>2026-05-03T12:32:23.916Z</time></trkpt><trkpt lat="44.2538103" lon="8.1177135"><ele>647.5</ele><time>2026-05-03T12:32:24.91Z</time></trkpt><trkpt lat="44.2539077" lon="8.1177912"><ele>642.0</ele><time>2026-05-03T12:32:25.917Z</time></trkpt><trkpt lat="44.2539981" lon="8.1178617"><ele>641.5</ele><time>2026-05-03T12:32:26.913Z</time></trkpt><trkpt lat="44.254085" lon="8.1179223"><ele>641.0</ele><time>2026-05-03T12:32:27.912Z</time></trkpt><trkpt lat="44.2541691" lon="8.1179541"><ele>640.5</ele><time>2026-05-03T12:32:28.912Z</time></trkpt><trkpt lat="44.2542516" lon="8.1179675"><ele>640.0</ele><time>2026-05-03T12:32:29.906Z</time></trkpt><trkpt lat="44.2543288" lon="8.1179441"><ele>639.5</ele><time>2026-05-03T12:32:30.925Z</time></trkpt><trkpt lat="44.2543924" lon="8.1178812"><ele>639.0</ele><time>2026-05-03T12:32:31.91Z</time></trkpt><trkpt lat="44.2544399" lon="8.1177846"><ele>639.0</ele><time>2026-05-03T12:32:32.911Z</time></trkpt><trkpt lat="44.254454" lon="8.1176623"><ele>639.0</ele><time>2026-05-03T12:32:33.913Z</time></trkpt><trkpt lat="44.254437" lon="8.1175175"><ele>639.0</ele><time>2026-05-03T12:32:34.909Z</time></trkpt><trkpt lat="44.2543946" lon="8.1173447"><ele>639.0</ele><time>2026-05-03T12:32:35.926Z</time></trkpt><trkpt lat="44.2543285" lon="8.1171179"><ele>639.6666666666666</ele><time>2026-05-03T12:32:36.912Z</time></trkpt><trkpt lat="44.2542699" lon="8.1168564"><ele>640.3333333333333</ele><time>2026-05-03T12:32:37.914Z</time></trkpt><trkpt lat="44.2542233" lon="8.1166244"><ele>641.0</ele><time>2026-05-03T12:32:38.917Z</time></trkpt><trkpt lat="44.2542135" lon="8.1163922"><ele>643.0</ele><time>2026-05-03T12:32:39.909Z</time></trkpt><trkpt lat="44.2542355" lon="8.1161759"><ele>645.0</ele><time>2026-05-03T12:32:40.914Z</time></trkpt><trkpt lat="44.2542857" lon="8.1159685"><ele>647.0</ele><time>2026-05-03T12:32:41.908Z</time></trkpt><trkpt lat="44.2543751" lon="8.115804"><ele>651.3333333333333</ele><time>2026-05-03T12:32:42.914Z</time></trkpt><trkpt lat="44.2544904" lon="8.1156627"><ele>655.6666666666666</ele><time>2026-05-03T12:32:43.921Z</time></trkpt><trkpt lat="44.2546418" lon="8.1155569"><ele>660.0</ele><time>2026-05-03T12:32:44.918Z</time></trkpt><trkpt lat="44.2547989" lon="8.1154608"><ele>649.3333333333334</ele><time>2026-05-03T12:32:45.914Z</time></trkpt><trkpt lat="44.2549535" lon="8.1153605"><ele>638.6666666666667</ele><time>2026-05-03T12:32:46.91Z</time></trkpt><trkpt lat="44.2550965" lon="8.1152641"><ele>628.0</ele><time>2026-05-03T12:32:47.907Z</time></trkpt><trkpt lat="44.2552376" lon="8.1152003"><ele>628.0</ele><time>2026-05-03T12:32:48.911Z</time></trkpt><trkpt lat="44.2553852" lon="8.1152007"><ele>628.0</ele><time>2026-05-03T12:32:49.911Z</time></trkpt><trkpt lat="44.2555329" lon="8.115251"><ele>628.0</ele><time>2026-05-03T12:32:50.906Z</time></trkpt><trkpt lat="44.2556853" lon="8.1153084"><ele>627.6666666666667</ele><time>2026-05-03T12:32:51.908Z</time></trkpt><trkpt lat="44.2558441" lon="8.1153958"><ele>627.3333333333334</ele><time>2026-05-03T12:32:52.909Z</time></trkpt><trkpt lat="44.2559975" lon="8.1154954"><ele>627.0</ele><time>2026-05-03T12:32:53.909Z</time></trkpt><trkpt lat="44.2561516" lon="8.1156384"><ele>627.3333333333334</ele><time>2026-05-03T12:32:54.907Z</time></trkpt><trkpt lat="44.2562973" lon="8.115805"><ele>627.6666666666667</ele><time>2026-05-03T12:32:55.911Z</time></trkpt><trkpt lat="44.2564299" lon="8.1159831"><ele>628.0</ele><time>2026-05-03T12:32:56.917Z</time></trkpt><trkpt lat="44.2565448" lon="8.1161945"><ele>628.0</ele><time>2026-05-03T12:32:57.904Z</time></trkpt><trkpt lat="44.2566492" lon="8.1164135"><ele>628.0</ele><time>2026-05-03T12:32:58.916Z</time></trkpt><trkpt lat="44.2567531" lon="8.1166495"><ele>628.0</ele><time>2026-05-03T12:32:59.912Z</time></trkpt><trkpt lat="44.2568658" lon="8.1168904"><ele>632.3333333333334</ele><time>2026-05-03T12:33:00.914Z</time></trkpt><trkpt lat="44.2569881" lon="8.1171272"><ele>636.6666666666666</ele><time>2026-05-03T12:33:01.914Z</time></trkpt><trkpt lat="44.2571093" lon="8.1173478"><ele>641.0</ele><time>2026-05-03T12:33:02.912Z</time></trkpt><trkpt lat="44.2572198" lon="8.1175662"><ele>637.6666666666666</ele><time>2026-05-03T12:33:03.917Z</time></trkpt><trkpt lat="44.2573097" lon="8.1177925"><ele>634.3333333333334</ele><time>2026-05-03T12:33:04.911Z</time></trkpt><trkpt lat="44.2573845" lon="8.1180228"><ele>631.0</ele><time>2026-05-03T12:33:05.915Z</time></trkpt><trkpt lat="44.2574284" lon="8.118263"><ele>631.0</ele><time>2026-05-03T12:33:06.913Z</time></trkpt><trkpt lat="44.2574458" lon="8.118523"><ele>631.0</ele><time>2026-05-03T12:33:07.917Z</time></trkpt><trkpt lat="44.2574857" lon="8.1187618"><ele>631.0</ele><time>2026-05-03T12:33:08.909Z</time></trkpt><trkpt lat="44.2575521" lon="8.1189864"><ele>630.6666666666667</ele><time>2026-05-03T12:33:09.913Z</time></trkpt><trkpt lat="44.2576347" lon="8.1192072"><ele>630.3333333333334</ele><time>2026-05-03T12:33:10.921Z</time></trkpt><trkpt lat="44.2577184" lon="8.1194289"><ele>630.0</ele><time>2026-05-03T12:33:11.918Z</time></trkpt><trkpt lat="44.2577919" lon="8.119637"><ele>630.0</ele><time>2026-05-03T12:33:12.914Z</time></trkpt><trkpt lat="44.2578593" lon="8.119817"><ele>630.0</ele><time>2026-05-03T12:33:13.917Z</time></trkpt><trkpt lat="44.2579263" lon="8.1199676"><ele>630.0</ele><time>2026-05-03T12:33:14.916Z</time></trkpt><trkpt lat="44.2580234" lon="8.120076"><ele>630.0</ele><time>2026-05-03T12:33:15.919Z</time></trkpt><trkpt lat="44.2581455" lon="8.1201478"><ele>627.75</ele><time>2026-05-03T12:33:16.919Z</time></trkpt><trkpt lat="44.2582695" lon="8.1201561"><ele>625.5</ele><time>2026-05-03T12:33:17.917Z</time></trkpt><trkpt lat="44.2583925" lon="8.1201404"><ele>623.25</ele><time>2026-05-03T12:33:18.923Z</time></trkpt><trkpt lat="44.258509" lon="8.1201228"><ele>621.0</ele><time>2026-05-03T12:33:19.913Z</time></trkpt><trkpt lat="44.2586104" lon="8.120105"><ele>621.0</ele><time>2026-05-03T12:33:20.912Z</time></trkpt><trkpt lat="44.258701" lon="8.1200893"><ele>621.0</ele><time>2026-05-03T12:33:21.911Z</time></trkpt><trkpt lat="44.2587872" lon="8.1200755"><ele>621.0</ele><time>2026-05-03T12:33:22.916Z</time></trkpt><trkpt lat="44.2588719" lon="8.1200637"><ele>621.0</ele><time>2026-05-03T12:33:23.918Z</time></trkpt><trkpt lat="44.2589576" lon="8.1200945"><ele>621.0</ele><time>2026-05-03T12:33:24.921Z</time></trkpt><trkpt lat="44.2590281" lon="8.1201702"><ele>621.0</ele><time>2026-05-03T12:33:25.909Z</time></trkpt><trkpt lat="44.259097" lon="8.1202519"><ele>623.0</ele><time>2026-05-03T12:33:26.922Z</time></trkpt><trkpt lat="44.2591718" lon="8.1203208"><ele>625.0</ele><time>2026-05-03T12:33:27.92Z</time></trkpt><trkpt lat="44.2592574" lon="8.1203734"><ele>627.0</ele><time>2026-05-03T12:33:28.907Z</time></trkpt><trkpt lat="44.2593536" lon="8.1204152"><ele>629.0</ele><time>2026-05-03T12:33:29.907Z</time></trkpt><trkpt lat="44.2594573" lon="8.120426"><ele>631.0</ele><time>2026-05-03T12:33:30.916Z</time></trkpt><trkpt lat="44.2595631" lon="8.1204222"><ele>631.0</ele><time>2026-05-03T12:33:31.908Z</time></trkpt><trkpt lat="44.2596699" lon="8.1203764"><ele>631.0</ele><time>2026-05-03T12:33:32.914Z</time></trkpt><trkpt lat="44.2597879" lon="8.1202955"><ele>631.0</ele><time>2026-05-03T12:33:33.912Z</time></trkpt><trkpt lat="44.2599059" lon="8.120184"><ele>631.0</ele><time>2026-05-03T12:33:34.907Z</time></trkpt><trkpt lat="44.2600361" lon="8.1200753"><ele>631.0</ele><time>2026-05-03T12:33:35.916Z</time></trkpt><trkpt lat="44.2601694" lon="8.1199764"><ele>631.0</ele><time>2026-05-03T12:33:36.92Z</time></trkpt><trkpt lat="44.2602831" lon="8.1198921"><ele>631.0</ele><time>2026-05-03T12:33:37.902Z</time></trkpt><trkpt lat="44.2603835" lon="8.1198168"><ele>631.0</ele><time>2026-05-03T12:33:38.901Z</time></trkpt><trkpt lat="44.2604673" lon="8.1197476"><ele>632.0</ele><time>2026-05-03T12:33:39.914Z</time></trkpt><trkpt lat="44.2605467" lon="8.1196912"><ele>633.0</ele><time>2026-05-03T12:33:40.911Z</time></trkpt><trkpt lat="44.2606304" lon="8.1196271"><ele>634.0</ele><time>2026-05-03T12:33:41.91Z</time></trkpt><trkpt lat="44.2607273" lon="8.1195552"><ele>635.0</ele><time>2026-05-03T12:33:42.912Z</time></trkpt><trkpt lat="44.2608547" lon="8.119485"><ele>636.0</ele><time>2026-05-03T12:33:43.911Z</time></trkpt><trkpt lat="44.2610018" lon="8.119425"><ele>636.0</ele><time>2026-05-03T12:33:44.906Z</time></trkpt><trkpt lat="44.2611625" lon="8.1193779"><ele>636.0</ele><time>2026-05-03T12:33:45.907Z</time></trkpt><trkpt lat="44.2613276" lon="8.1193582"><ele>636.0</ele><time>2026-05-03T12:33:46.906Z</time></trkpt><trkpt lat="44.2615004" lon="8.1193584"><ele>636.3333333333334</ele><time>2026-05-03T12:33:47.91Z</time></trkpt><trkpt lat="44.261662" lon="8.1193713"><ele>636.6666666666667</ele><time>2026-05-03T12:33:48.931Z</time></trkpt><trkpt lat="44.2618116" lon="8.1193657"><ele>637.0</ele><time>2026-05-03T12:33:49.904Z</time></trkpt><trkpt lat="44.2619569" lon="8.11932"><ele>637.0</ele><time>2026-05-03T12:33:50.91Z</time></trkpt><trkpt lat="44.2620963" lon="8.1192518"><ele>637.0</ele><time>2026-05-03T12:33:51.901Z</time></trkpt><trkpt lat="44.2622288" lon="8.119173"><ele>637.0</ele><time>2026-05-03T12:33:52.911Z</time></trkpt><trkpt lat="44.262354" lon="8.1190966"><ele>637.0</ele><time>2026-05-03T12:33:53.913Z</time></trkpt><trkpt lat="44.2624735" lon="8.1190298"><ele>638.0</ele><time>2026-05-03T12:33:54.917Z</time></trkpt><trkpt lat="44.2625866" lon="8.1189824"><ele>639.0</ele><time>2026-05-03T12:33:55.907Z</time></trkpt><trkpt lat="44.2627002" lon="8.1189573"><ele>640.0</ele><time>2026-05-03T12:33:56.905Z</time></trkpt><trkpt lat="44.2628077" lon="8.1189195"><ele>641.0</ele><time>2026-05-03T12:33:57.905Z</time></trkpt><trkpt lat="44.2629176" lon="8.1188956"><ele>641.0</ele><time>2026-05-03T12:33:58.908Z</time></trkpt><trkpt lat="44.2630199" lon="8.1188653"><ele>641.0</ele><time>2026-05-03T12:33:59.925Z</time></trkpt><trkpt lat="44.2631193" lon="8.118828"><ele>641.0</ele><time>2026-05-03T12:34:00.91Z</time></trkpt><trkpt lat="44.2632196" lon="8.1187945"><ele>641.0</ele><time>2026-05-03T12:34:01.911Z</time></trkpt><trkpt lat="44.2633157" lon="8.1187682"><ele>641.0</ele><time>2026-05-03T12:34:02.905Z</time></trkpt><trkpt lat="44.263397" lon="8.1187251"><ele>639.5</ele><time>2026-05-03T12:34:03.919Z</time></trkpt><trkpt lat="44.2634804" lon="8.1186867"><ele>638.0</ele><time>2026-05-03T12:34:04.917Z</time></trkpt><trkpt lat="44.2635547" lon="8.1186402"><ele>636.5</ele><time>2026-05-03T12:34:05.911Z</time></trkpt><trkpt lat="44.2636255" lon="8.1185986"><ele>635.0</ele><time>2026-05-03T12:34:06.909Z</time></trkpt><trkpt lat="44.2637003" lon="8.1185515"><ele>633.5</ele><time>2026-05-03T12:34:07.905Z</time></trkpt><trkpt lat="44.2637774" lon="8.1185047"><ele>632.0</ele><time>2026-05-03T12:34:08.91Z</time></trkpt><trkpt lat="44.2638636" lon="8.1184434"><ele>630.0</ele><time>2026-05-03T12:34:09.907Z</time></trkpt><trkpt lat="44.2639666" lon="8.1184123"><ele>628.0</ele><time>2026-05-03T12:34:10.914Z</time></trkpt><trkpt lat="44.2640802" lon="8.1183697"><ele>626.0</ele><time>2026-05-03T12:34:11.909Z</time></trkpt><trkpt lat="44.2642089" lon="8.1183229"><ele>624.0</ele><time>2026-05-03T12:34:12.913Z</time></trkpt><trkpt lat="44.2643487" lon="8.118268"><ele>626.75</ele><time>2026-05-03T12:34:13.908Z</time></trkpt><trkpt lat="44.2644825" lon="8.1182174"><ele>629.5</ele><time>2026-05-03T12:34:14.908Z</time></trkpt><trkpt lat="44.2646103" lon="8.1181632"><ele>632.25</ele><time>2026-05-03T12:34:15.907Z</time></trkpt><trkpt lat="44.2647284" lon="8.1181103"><ele>635.0</ele><time>2026-05-03T12:34:16.908Z</time></trkpt><trkpt lat="44.264842" lon="8.1180682"><ele>635.0</ele><time>2026-05-03T12:34:17.911Z</time></trkpt><trkpt lat="44.2649546" lon="8.1180318"><ele>635.0</ele><time>2026-05-03T12:34:18.909Z</time></trkpt><trkpt lat="44.265071" lon="8.1179964"><ele>635.0</ele><time>2026-05-03T12:34:19.919Z</time></trkpt><trkpt lat="44.2651875" lon="8.1179689"><ele>635.0</ele><time>2026-05-03T12:34:20.913Z</time></trkpt><trkpt lat="44.2653071" lon="8.1179483"><ele>635.0</ele><time>2026-05-03T12:34:21.912Z</time></trkpt><trkpt lat="44.2654383" lon="8.1179389"><ele>635.0</ele><time>2026-05-03T12:34:22.908Z</time></trkpt><trkpt lat="44.2655728" lon="8.1179287"><ele>635.0</ele><time>2026-05-03T12:34:23.907Z</time></trkpt><trkpt lat="44.2657073" lon="8.1179253"><ele>635.0</ele><time>2026-05-03T12:34:24.912Z</time></trkpt><trkpt lat="44.2658327" lon="8.1179184"><ele>634.2</ele><time>2026-05-03T12:34:25.913Z</time></trkpt><trkpt lat="44.2659516" lon="8.1179014"><ele>633.4</ele><time>2026-05-03T12:34:26.915Z</time></trkpt><trkpt lat="44.2660629" lon="8.1178712"><ele>632.6</ele><time>2026-05-03T12:34:27.917Z</time></trkpt><trkpt lat="44.2661602" lon="8.1178104"><ele>631.8</ele><time>2026-05-03T12:34:28.914Z</time></trkpt><trkpt lat="44.2662494" lon="8.1177223"><ele>631.0</ele><time>2026-05-03T12:34:29.91Z</time></trkpt><trkpt lat="44.2663228" lon="8.1175909"><ele>631.0</ele><time>2026-05-03T12:34:30.913Z</time></trkpt><trkpt lat="44.2663822" lon="8.1174556"><ele>631.0</ele><time>2026-05-03T12:34:31.917Z</time></trkpt><trkpt lat="44.2664323" lon="8.1173225"><ele>631.0</ele><time>2026-05-03T12:34:32.911Z</time></trkpt><trkpt lat="44.2664753" lon="8.1171932"><ele>631.0</ele><time>2026-05-03T12:34:33.912Z</time></trkpt><trkpt lat="44.2665279" lon="8.1170631"><ele>631.0</ele><time>2026-05-03T12:34:34.912Z</time></trkpt><trkpt lat="44.2665811" lon="8.1169158"><ele>629.25</ele><time>2026-05-03T12:34:35.916Z</time></trkpt><trkpt lat="44.2666397" lon="8.1167552"><ele>627.5</ele><time>2026-05-03T12:34:36.916Z</time></trkpt><trkpt lat="44.2667056" lon="8.1165902"><ele>625.75</ele><time>2026-05-03T12:34:37.914Z</time></trkpt><trkpt lat="44.2667772" lon="8.1164054"><ele>624.0</ele><time>2026-05-03T12:34:38.922Z</time></trkpt><trkpt lat="44.2668584" lon="8.1161835"><ele>624.0</ele><time>2026-05-03T12:34:39.92Z</time></trkpt><trkpt lat="44.2669445" lon="8.1159285"><ele>624.0</ele><time>2026-05-03T12:34:40.918Z</time></trkpt><trkpt lat="44.2670452" lon="8.1156306"><ele>624.0</ele><time>2026-05-03T12:34:41.913Z</time></trkpt><trkpt lat="44.2671446" lon="8.1153515"><ele>623.3333333333334</ele><time>2026-05-03T12:34:42.913Z</time></trkpt><trkpt lat="44.2672365" lon="8.115095"><ele>622.6666666666667</ele><time>2026-05-03T12:34:43.906Z</time></trkpt><trkpt lat="44.2673197" lon="8.114847"><ele>622.0</ele><time>2026-05-03T12:34:44.91Z</time></trkpt><trkpt lat="44.2673903" lon="8.1145984"><ele>623.6666666666667</ele><time>2026-05-03T12:34:45.912Z</time></trkpt><trkpt lat="44.2674522" lon="8.1143656"><ele>625.3333333333334</ele><time>2026-05-03T12:34:46.927Z</time></trkpt><trkpt lat="44.2675114" lon="8.1141434"><ele>627.0</ele><time>2026-05-03T12:34:47.91Z</time></trkpt><trkpt lat="44.2675631" lon="8.1139331"><ele>627.25</ele><time>2026-05-03T12:34:48.916Z</time></trkpt><trkpt lat="44.2676161" lon="8.1137394"><ele>627.5</ele><time>2026-05-03T12:34:49.911Z</time></trkpt><trkpt lat="44.2676672" lon="8.1135504"><ele>627.75</ele><time>2026-05-03T12:34:50.906Z</time></trkpt><trkpt lat="44.2677129" lon="8.1133529"><ele>628.0</ele><time>2026-05-03T12:34:51.91Z</time></trkpt><trkpt lat="44.267754" lon="8.1131488"><ele>629.3333333333334</ele><time>2026-05-03T12:34:52.913Z</time></trkpt><trkpt lat="44.2677911" lon="8.112941"><ele>630.6666666666666</ele><time>2026-05-03T12:34:53.911Z</time></trkpt><trkpt lat="44.2678308" lon="8.112737"><ele>632.0</ele><time>2026-05-03T12:34:54.918Z</time></trkpt><trkpt lat="44.2678668" lon="8.1125407"><ele>633.5</ele><time>2026-05-03T12:34:55.908Z</time></trkpt><trkpt lat="44.2678917" lon="8.1123614"><ele>635.0</ele><time>2026-05-03T12:34:56.91Z</time></trkpt><trkpt lat="44.2678931" lon="8.1121869"><ele>636.5</ele><time>2026-05-03T12:34:57.927Z</time></trkpt><trkpt lat="44.2678633" lon="8.1120083"><ele>638.0</ele><time>2026-05-03T12:34:58.91Z</time></trkpt><trkpt lat="44.2678128" lon="8.1118162"><ele>638.0</ele><time>2026-05-03T12:34:59.907Z</time></trkpt><trkpt lat="44.2677501" lon="8.1116127"><ele>638.0</ele><time>2026-05-03T12:35:00.901Z</time></trkpt><trkpt lat="44.2676863" lon="8.1114012"><ele>638.0</ele><time>2026-05-03T12:35:01.907Z</time></trkpt><trkpt lat="44.2676227" lon="8.1111902"><ele>639.0</ele><time>2026-05-03T12:35:02.908Z</time></trkpt><trkpt lat="44.2675585" lon="8.1109986"><ele>640.0</ele><time>2026-05-03T12:35:03.908Z</time></trkpt><trkpt lat="44.2674984" lon="8.110834"><ele>641.0</ele><time>2026-05-03T12:35:04.914Z</time></trkpt><trkpt lat="44.2674542" lon="8.110697"><ele>642.0</ele><time>2026-05-03T12:35:05.908Z</time></trkpt><trkpt lat="44.2674231" lon="8.1105831"><ele>642.0</ele><time>2026-05-03T12:35:06.912Z</time></trkpt><trkpt lat="44.2674251" lon="8.1104818"><ele>642.0</ele><time>2026-05-03T12:35:07.913Z</time></trkpt><trkpt lat="44.2675089" lon="8.1103981"><ele>642.0</ele><time>2026-05-03T12:35:09.912Z</time></trkpt><trkpt lat="44.2675727" lon="8.1104435"><ele>642.0</ele><time>2026-05-03T12:35:10.915Z</time></trkpt><trkpt lat="44.2676242" lon="8.1105314"><ele>642.0</ele><time>2026-05-03T12:35:11.912Z</time></trkpt><trkpt lat="44.2676777" lon="8.1106661"><ele>642.0</ele><time>2026-05-03T12:35:12.915Z</time></trkpt><trkpt lat="44.2677492" lon="8.1108042"><ele>642.0</ele><time>2026-05-03T12:35:13.914Z</time></trkpt><trkpt lat="44.2678291" lon="8.1109529"><ele>642.0</ele><time>2026-05-03T12:35:14.907Z</time></trkpt><trkpt lat="44.2679082" lon="8.1111035"><ele>642.0</ele><time>2026-05-03T12:35:15.905Z</time></trkpt><trkpt lat="44.2679735" lon="8.111244"><ele>642.0</ele><time>2026-05-03T12:35:16.905Z</time></trkpt><trkpt lat="44.268034" lon="8.1113722"><ele>642.0</ele><time>2026-05-03T12:35:17.904Z</time></trkpt><trkpt lat="44.2680963" lon="8.1114949"><ele>642.0</ele><time>2026-05-03T12:35:18.907Z</time></trkpt><trkpt lat="44.2681675" lon="8.1116005"><ele>642.0</ele><time>2026-05-03T12:35:19.914Z</time></trkpt><trkpt lat="44.2682389" lon="8.111691"><ele>642.0</ele><time>2026-05-03T12:35:20.91Z</time></trkpt><trkpt lat="44.2683032" lon="8.1117754"><ele>642.0</ele><time>2026-05-03T12:35:21.906Z</time></trkpt><trkpt lat="44.2683463" lon="8.1118839"><ele>645.8</ele><time>2026-05-03T12:35:22.912Z</time></trkpt><trkpt lat="44.2683489" lon="8.1120284"><ele>649.6</ele><time>2026-05-03T12:35:23.912Z</time></trkpt><trkpt lat="44.2683457" lon="8.1121681"><ele>653.4</ele><time>2026-05-03T12:35:24.906Z</time></trkpt><trkpt lat="44.2683598" lon="8.112325"><ele>657.1999999999999</ele><time>2026-05-03T12:35:25.916Z</time></trkpt><trkpt lat="44.2683927" lon="8.1124874"><ele>661.0</ele><time>2026-05-03T12:35:26.906Z</time></trkpt><trkpt lat="44.2684262" lon="8.1126347"><ele>661.0</ele><time>2026-05-03T12:35:27.906Z</time></trkpt><trkpt lat="44.2684645" lon="8.1127774"><ele>661.0</ele><time>2026-05-03T12:35:28.906Z</time></trkpt><trkpt lat="44.2685147" lon="8.1129297"><ele>661.0</ele><time>2026-05-03T12:35:29.91Z</time></trkpt><trkpt lat="44.2685831" lon="8.1130841"><ele>661.0</ele><time>2026-05-03T12:35:30.909Z</time></trkpt><trkpt lat="44.2686693" lon="8.1132591"><ele>659.25</ele><time>2026-05-03T12:35:31.91Z</time></trkpt><trkpt lat="44.2687528" lon="8.1134305"><ele>657.5</ele><time>2026-05-03T12:35:32.915Z</time></trkpt><trkpt lat="44.2688275" lon="8.113593"><ele>655.75</ele><time>2026-05-03T12:35:33.91Z</time></trkpt><trkpt lat="44.2689009" lon="8.1137483"><ele>654.0</ele><time>2026-05-03T12:35:34.903Z</time></trkpt><trkpt lat="44.2689752" lon="8.1138996"><ele>658.0</ele><time>2026-05-03T12:35:35.915Z</time></trkpt><trkpt lat="44.2690475" lon="8.1140505"><ele>662.0</ele><time>2026-05-03T12:35:36.911Z</time></trkpt><trkpt lat="44.269118" lon="8.1141883"><ele>666.0</ele><time>2026-05-03T12:35:37.908Z</time></trkpt><trkpt lat="44.2691857" lon="8.1143208"><ele>670.0</ele><time>2026-05-03T12:35:38.909Z</time></trkpt><trkpt lat="44.2692527" lon="8.1144466"><ele>670.0</ele><time>2026-05-03T12:35:39.91Z</time></trkpt><trkpt lat="44.2693286" lon="8.1145591"><ele>670.0</ele><time>2026-05-03T12:35:40.911Z</time></trkpt><trkpt lat="44.2694304" lon="8.1146801"><ele>670.0</ele><time>2026-05-03T12:35:41.908Z</time></trkpt><trkpt lat="44.2695666" lon="8.1148089"><ele>670.0</ele><time>2026-05-03T12:35:42.913Z</time></trkpt><trkpt lat="44.2696993" lon="8.1149559"><ele>672.5</ele><time>2026-05-03T12:35:43.903Z</time></trkpt><trkpt lat="44.2698013" lon="8.1150727"><ele>675.0</ele><time>2026-05-03T12:35:44.907Z</time></trkpt><trkpt lat="44.2698778" lon="8.1151556"><ele>677.5</ele><time>2026-05-03T12:35:45.909Z</time></trkpt><trkpt lat="44.2699696" lon="8.1151502"><ele>680.0</ele><time>2026-05-03T12:35:47.911Z</time></trkpt><trkpt lat="44.2699508" lon="8.1149401"><ele>677.5</ele><time>2026-05-03T12:35:49.919Z</time></trkpt><trkpt lat="44.2698825" lon="8.114808"><ele>675.0</ele><time>2026-05-03T12:35:50.917Z</time></trkpt><trkpt lat="44.2698089" lon="8.114665"><ele>672.5</ele><time>2026-05-03T12:35:51.91Z</time></trkpt><trkpt lat="44.2697578" lon="8.1145115"><ele>670.0</ele><time>2026-05-03T12:35:52.908Z</time></trkpt><trkpt lat="44.2697308" lon="8.114347"><ele>670.0</ele><time>2026-05-03T12:35:53.906Z</time></trkpt><trkpt lat="44.269749" lon="8.1141565"><ele>670.0</ele><time>2026-05-03T12:35:54.909Z</time></trkpt><trkpt lat="44.2697833" lon="8.1139653"><ele>670.0</ele><time>2026-05-03T12:35:55.912Z</time></trkpt><trkpt lat="44.2698118" lon="8.1137676"><ele>670.0</ele><time>2026-05-03T12:35:56.915Z</time></trkpt><trkpt lat="44.2698291" lon="8.1135771"><ele>676.5</ele><time>2026-05-03T12:35:57.905Z</time></trkpt><trkpt lat="44.2698394" lon="8.1134079"><ele>683.0</ele><time>2026-05-03T12:35:58.906Z</time></trkpt><trkpt lat="44.2698198" lon="8.1132572"><ele>689.5</ele><time>2026-05-03T12:35:59.921Z</time></trkpt><trkpt lat="44.2697696" lon="8.1131239"><ele>696.0</ele><time>2026-05-03T12:36:00.922Z</time></trkpt><trkpt lat="44.2696738" lon="8.1130219"><ele>696.0</ele><time>2026-05-03T12:36:01.904Z</time></trkpt><trkpt lat="44.2695459" lon="8.1129644"><ele>696.0</ele><time>2026-05-03T12:36:02.91Z</time></trkpt><trkpt lat="44.2694141" lon="8.1128832"><ele>696.0</ele><time>2026-05-03T12:36:03.912Z</time></trkpt><trkpt lat="44.2692828" lon="8.1127885"><ele>696.0</ele><time>2026-05-03T12:36:04.91Z</time></trkpt><trkpt lat="44.2691712" lon="8.1126807"><ele>696.0</ele><time>2026-05-03T12:36:05.905Z</time></trkpt><trkpt lat="44.2690775" lon="8.1125835"><ele>696.0</ele><time>2026-05-03T12:36:06.905Z</time></trkpt><trkpt lat="44.2690032" lon="8.1124807"><ele>696.0</ele><time>2026-05-03T12:36:07.902Z</time></trkpt><trkpt lat="44.2689779" lon="8.112355"><ele>696.0</ele><time>2026-05-03T12:36:08.905Z</time></trkpt><trkpt lat="44.2689906" lon="8.1122036"><ele>696.0</ele><time>2026-05-03T12:36:09.907Z</time></trkpt><trkpt lat="44.2690212" lon="8.1120586"><ele>698.8</ele><time>2026-05-03T12:36:10.91Z</time></trkpt><trkpt lat="44.2690488" lon="8.1118973"><ele>701.5999999999999</ele><time>2026-05-03T12:36:11.908Z</time></trkpt><trkpt lat="44.2690659" lon="8.1117449"><ele>704.4</ele><time>2026-05-03T12:36:12.909Z</time></trkpt><trkpt lat="44.2690586" lon="8.1115944"><ele>707.2</ele><time>2026-05-03T12:36:13.911Z</time></trkpt><trkpt lat="44.2690325" lon="8.1114614"><ele>710.0</ele><time>2026-05-03T12:36:14.905Z</time></trkpt><trkpt lat="44.268967" lon="8.1113318"><ele>705.2</ele><time>2026-05-03T12:36:15.903Z</time></trkpt><trkpt lat="44.2689194" lon="8.1111915"><ele>700.4</ele><time>2026-05-03T12:36:16.909Z</time></trkpt><trkpt lat="44.2689058" lon="8.1110486"><ele>695.5999999999999</ele><time>2026-05-03T12:36:17.913Z</time></trkpt><trkpt lat="44.2688984" lon="8.1109225"><ele>690.8</ele><time>2026-05-03T12:36:18.911Z</time></trkpt><trkpt lat="44.268899" lon="8.1108281"><ele>686.0</ele><time>2026-05-03T12:36:19.904Z</time></trkpt><trkpt lat="44.2689081" lon="8.1106869"><ele>686.0</ele><time>2026-05-03T12:36:21.904Z</time></trkpt><trkpt lat="44.2689281" lon="8.1105886"><ele>686.0</ele><time>2026-05-03T12:36:23.91Z</time></trkpt><trkpt lat="44.2690161" lon="8.1105886"><ele>686.0</ele><time>2026-05-03T12:36:26.91Z</time></trkpt><trkpt lat="44.2690248" lon="8.1107432"><ele>686.0</ele><time>2026-05-03T12:36:28.911Z</time></trkpt><trkpt lat="44.2690099" lon="8.110851"><ele>686.0</ele><time>2026-05-03T12:36:29.918Z</time></trkpt><trkpt lat="44.2689975" lon="8.110985"><ele>686.0</ele><time>2026-05-03T12:36:30.912Z</time></trkpt><trkpt lat="44.269005" lon="8.1111348"><ele>690.8</ele><time>2026-05-03T12:36:31.909Z</time></trkpt><trkpt lat="44.2690517" lon="8.1112659"><ele>695.5999999999999</ele><time>2026-05-03T12:36:32.906Z</time></trkpt><trkpt lat="44.2691039" lon="8.1113769"><ele>700.4</ele><time>2026-05-03T12:36:33.905Z</time></trkpt><trkpt lat="44.2691568" lon="8.1114859"><ele>705.2</ele><time>2026-05-03T12:36:34.913Z</time></trkpt><trkpt lat="44.2691952" lon="8.1115983"><ele>710.0</ele><time>2026-05-03T12:36:35.918Z</time></trkpt><trkpt lat="44.2692188" lon="8.1117183"><ele>710.0</ele><time>2026-05-03T12:36:36.898Z</time></trkpt><trkpt lat="44.2692162" lon="8.1118559"><ele>710.0</ele><time>2026-05-03T12:36:37.909Z</time></trkpt><trkpt lat="44.2692143" lon="8.1119782"><ele>710.0</ele><time>2026-05-03T12:36:38.912Z</time></trkpt><trkpt lat="44.2692195" lon="8.1120803"><ele>710.0</ele><time>2026-05-03T12:36:39.906Z</time></trkpt><trkpt lat="44.2692376" lon="8.1121749"><ele>710.0</ele><time>2026-05-03T12:36:40.91Z</time></trkpt><trkpt lat="44.269279" lon="8.1122684"><ele>710.0</ele><time>2026-05-03T12:36:41.906Z</time></trkpt><trkpt lat="44.2693474" lon="8.1123456"><ele>711.8333333333333</ele><time>2026-05-03T12:36:42.908Z</time></trkpt><trkpt lat="44.2694243" lon="8.1124096"><ele>713.6666666666666</ele><time>2026-05-03T12:36:43.911Z</time></trkpt><trkpt lat="44.2695093" lon="8.1124522"><ele>715.5</ele><time>2026-05-03T12:36:44.912Z</time></trkpt><trkpt lat="44.2695916" lon="8.1124907"><ele>717.3333333333334</ele><time>2026-05-03T12:36:45.911Z</time></trkpt><trkpt lat="44.2696616" lon="8.1125239"><ele>719.1666666666667</ele><time>2026-05-03T12:36:46.902Z</time></trkpt><trkpt lat="44.2697441" lon="8.1125427"><ele>721.0</ele><time>2026-05-03T12:36:47.931Z</time></trkpt><trkpt lat="44.2698226" lon="8.1125557"><ele>721.0</ele><time>2026-05-03T12:36:48.902Z</time></trkpt><trkpt lat="44.2699086" lon="8.1125557"><ele>721.0</ele><time>2026-05-03T12:36:49.91Z</time></trkpt><trkpt lat="44.2699874" lon="8.1125169"><ele>721.0</ele><time>2026-05-03T12:36:50.911Z</time></trkpt><trkpt lat="44.2700599" lon="8.1124383"><ele>721.0</ele><time>2026-05-03T12:36:51.905Z</time></trkpt><trkpt lat="44.2701288" lon="8.1123778"><ele>721.0</ele><time>2026-05-03T12:36:52.909Z</time></trkpt><trkpt lat="44.2701996" lon="8.112333"><ele>721.0</ele><time>2026-05-03T12:36:53.907Z</time></trkpt><trkpt lat="44.2702604" lon="8.1123035"><ele>721.0</ele><time>2026-05-03T12:36:54.904Z</time></trkpt><trkpt lat="44.2703289" lon="8.1123072"><ele>721.0</ele><time>2026-05-03T12:36:55.9Z</time></trkpt><trkpt lat="44.2703932" lon="8.112377"><ele>721.0</ele><time>2026-05-03T12:36:56.901Z</time></trkpt><trkpt lat="44.2704421" lon="8.1124898"><ele>721.0</ele><time>2026-05-03T12:36:57.908Z</time></trkpt><trkpt lat="44.2704662" lon="8.11263"><ele>721.0</ele><time>2026-05-03T12:36:58.905Z</time></trkpt><trkpt lat="44.2704823" lon="8.1127845"><ele>721.0</ele><time>2026-05-03T12:36:59.908Z</time></trkpt><trkpt lat="44.2704966" lon="8.112936"><ele>721.0</ele><time>2026-05-03T12:37:00.91Z</time></trkpt><trkpt lat="44.2705116" lon="8.1130756"><ele>721.0</ele><time>2026-05-03T12:37:01.907Z</time></trkpt><trkpt lat="44.270526" lon="8.1132034"><ele>721.0</ele><time>2026-05-03T12:37:02.902Z</time></trkpt><trkpt lat="44.2705406" lon="8.1133191"><ele>721.0</ele><time>2026-05-03T12:37:03.913Z</time></trkpt><trkpt lat="44.2705494" lon="8.1134082"><ele>721.0</ele><time>2026-05-03T12:37:04.906Z</time></trkpt><trkpt lat="44.2705626" lon="8.1135621"><ele>721.0</ele><time>2026-05-03T12:37:06.915Z</time></trkpt><trkpt lat="44.2705934" lon="8.1136756"><ele>721.0</ele><time>2026-05-03T12:37:08.912Z</time></trkpt><trkpt lat="44.2706688" lon="8.1136617"><ele>721.0</ele><time>2026-05-03T12:37:10.923Z</time></trkpt><trkpt lat="44.2706755" lon="8.1134632"><ele>721.0</ele><time>2026-05-03T12:37:12.917Z</time></trkpt><trkpt lat="44.2706568" lon="8.1133076"><ele>729.0</ele><time>2026-05-03T12:37:13.911Z</time></trkpt><trkpt lat="44.2706415" lon="8.1131034"><ele>737.0</ele><time>2026-05-03T12:37:14.919Z</time></trkpt><trkpt lat="44.2706352" lon="8.1128617"><ele>745.0</ele><time>2026-05-03T12:37:15.917Z</time></trkpt><trkpt lat="44.2706425" lon="8.1126227"><ele>745.0</ele><time>2026-05-03T12:37:16.91Z</time></trkpt><trkpt lat="44.2706603" lon="8.1124276"><ele>745.0</ele><time>2026-05-03T12:37:17.913Z</time></trkpt><trkpt lat="44.2706663" lon="8.1122692"><ele>745.0</ele><time>2026-05-03T12:37:18.908Z</time></trkpt><trkpt lat="44.2706547" lon="8.1121359"><ele>745.0</ele><time>2026-05-03T12:37:19.906Z</time></trkpt><trkpt lat="44.2706214" lon="8.1120127"><ele>745.0</ele><time>2026-05-03T12:37:20.909Z</time></trkpt><trkpt lat="44.2705611" lon="8.1119124"><ele>745.8</ele><time>2026-05-03T12:37:21.913Z</time></trkpt><trkpt lat="44.2704698" lon="8.111889"><ele>746.6</ele><time>2026-05-03T12:37:22.902Z</time></trkpt><trkpt lat="44.2703592" lon="8.1119089"><ele>747.4000000000001</ele><time>2026-05-03T12:37:23.908Z</time></trkpt><trkpt lat="44.2702511" lon="8.1119548"><ele>748.2</ele><time>2026-05-03T12:37:24.902Z</time></trkpt><trkpt lat="44.2701556" lon="8.1119863"><ele>749.0</ele><time>2026-05-03T12:37:25.914Z</time></trkpt><trkpt lat="44.2700764" lon="8.112009"><ele>749.0</ele><time>2026-05-03T12:37:26.904Z</time></trkpt><trkpt lat="44.2700029" lon="8.1120185"><ele>749.0</ele><time>2026-05-03T12:37:27.909Z</time></trkpt><trkpt lat="44.2699315" lon="8.112023"><ele>749.0</ele><time>2026-05-03T12:37:28.903Z</time></trkpt><trkpt lat="44.2698732" lon="8.1119765"><ele>749.0</ele><time>2026-05-03T12:37:29.906Z</time></trkpt><trkpt lat="44.2698375" lon="8.1118802"><ele>749.0</ele><time>2026-05-03T12:37:30.907Z</time></trkpt><trkpt lat="44.2698013" lon="8.1117735"><ele>749.0</ele><time>2026-05-03T12:37:31.917Z</time></trkpt><trkpt lat="44.2697461" lon="8.1116537"><ele>742.6</ele><time>2026-05-03T12:37:32.91Z</time></trkpt><trkpt lat="44.2696962" lon="8.1115416"><ele>736.2</ele><time>2026-05-03T12:37:33.904Z</time></trkpt><trkpt lat="44.2696642" lon="8.1114248"><ele>729.8000000000001</ele><time>2026-05-03T12:37:34.906Z</time></trkpt><trkpt lat="44.2696457" lon="8.1113079"><ele>723.4000000000001</ele><time>2026-05-03T12:37:35.91Z</time></trkpt><trkpt lat="44.2696334" lon="8.1111829"><ele>717.0</ele><time>2026-05-03T12:37:36.913Z</time></trkpt><trkpt lat="44.2696323" lon="8.1110524"><ele>717.0</ele><time>2026-05-03T12:37:37.909Z</time></trkpt><trkpt lat="44.2696284" lon="8.110902"><ele>717.0</ele><time>2026-05-03T12:37:38.917Z</time></trkpt><trkpt lat="44.2696274" lon="8.1107556"><ele>717.0</ele><time>2026-05-03T12:37:39.913Z</time></trkpt><trkpt lat="44.2696398" lon="8.1106263"><ele>717.0</ele><time>2026-05-03T12:37:40.915Z</time></trkpt><trkpt lat="44.269667" lon="8.1105072"><ele>717.0</ele><time>2026-05-03T12:37:41.91Z</time></trkpt><trkpt lat="44.2696981" lon="8.1103935"><ele>717.3333333333334</ele><time>2026-05-03T12:37:42.916Z</time></trkpt><trkpt lat="44.2697263" lon="8.1102752"><ele>717.6666666666666</ele><time>2026-05-03T12:37:43.912Z</time></trkpt><trkpt lat="44.2697374" lon="8.1101534"><ele>718.0</ele><time>2026-05-03T12:37:44.912Z</time></trkpt><trkpt lat="44.2697169" lon="8.1100433"><ele>718.3333333333333</ele><time>2026-05-03T12:37:45.907Z</time></trkpt><trkpt lat="44.2696619" lon="8.1099458"><ele>718.6666666666666</ele><time>2026-05-03T12:37:46.909Z</time></trkpt><trkpt lat="44.2695912" lon="8.1098535"><ele>719.0</ele><time>2026-05-03T12:37:47.92Z</time></trkpt><trkpt lat="44.2695342" lon="8.1097626"><ele>719.0</ele><time>2026-05-03T12:37:48.918Z</time></trkpt><trkpt lat="44.2695194" lon="8.1096637"><ele>719.0</ele><time>2026-05-03T12:37:49.912Z</time></trkpt><trkpt lat="44.2695328" lon="8.1095724"><ele>719.0</ele><time>2026-05-03T12:37:50.918Z</time></trkpt><trkpt lat="44.2696353" lon="8.109457"><ele>719.0</ele><time>2026-05-03T12:37:52.91Z</time></trkpt><trkpt lat="44.2697299" lon="8.1093952"><ele>719.0</ele><time>2026-05-03T12:37:53.915Z</time></trkpt><trkpt lat="44.2698656" lon="8.1093102"><ele>721.75</ele><time>2026-05-03T12:37:54.917Z</time></trkpt><trkpt lat="44.2700265" lon="8.1092171"><ele>724.5</ele><time>2026-05-03T12:37:55.915Z</time></trkpt><trkpt lat="44.2701557" lon="8.1091404"><ele>727.25</ele><time>2026-05-03T12:37:56.919Z</time></trkpt><trkpt lat="44.2702679" lon="8.1090694"><ele>730.0</ele><time>2026-05-03T12:37:57.916Z</time></trkpt><trkpt lat="44.2703671" lon="8.1090097"><ele>730.0</ele><time>2026-05-03T12:37:58.905Z</time></trkpt><trkpt lat="44.2704531" lon="8.1089541"><ele>730.0</ele><time>2026-05-03T12:37:59.908Z</time></trkpt><trkpt lat="44.2705463" lon="8.1088888"><ele>730.0</ele><time>2026-05-03T12:38:00.906Z</time></trkpt><trkpt lat="44.2706377" lon="8.1088184"><ele>730.0</ele><time>2026-05-03T12:38:01.907Z</time></trkpt><trkpt lat="44.2707354" lon="8.1087435"><ele>730.0</ele><time>2026-05-03T12:38:02.911Z</time></trkpt><trkpt lat="44.2708241" lon="8.108643"><ele>737.2</ele><time>2026-05-03T12:38:03.909Z</time></trkpt><trkpt lat="44.2708758" lon="8.1085002"><ele>744.4</ele><time>2026-05-03T12:38:04.904Z</time></trkpt><trkpt lat="44.2708965" lon="8.1083431"><ele>751.5999999999999</ele><time>2026-05-03T12:38:05.904Z</time></trkpt><trkpt lat="44.270913" lon="8.1081878"><ele>758.8</ele><time>2026-05-03T12:38:06.909Z</time></trkpt><trkpt lat="44.2709162" lon="8.1080561"><ele>766.0</ele><time>2026-05-03T12:38:07.919Z</time></trkpt><trkpt lat="44.270897" lon="8.107912"><ele>767.5999999999999</ele><time>2026-05-03T12:38:08.904Z</time></trkpt><trkpt lat="44.2708432" lon="8.1077854"><ele>769.2</ele><time>2026-05-03T12:38:09.907Z</time></trkpt><trkpt lat="44.2707581" lon="8.1076914"><ele>770.8</ele><time>2026-05-03T12:38:10.915Z</time></trkpt><trkpt lat="44.2706694" lon="8.1076072"><ele>772.4000000000001</ele><time>2026-05-03T12:38:11.917Z</time></trkpt><trkpt lat="44.2705853" lon="8.1075356"><ele>774.0</ele><time>2026-05-03T12:38:12.903Z</time></trkpt><trkpt lat="44.2705191" lon="8.1074698"><ele>773.5</ele><time>2026-05-03T12:38:13.918Z</time></trkpt><trkpt lat="44.2704649" lon="8.1074112"><ele>773.0</ele><time>2026-05-03T12:38:14.914Z</time></trkpt><trkpt lat="44.2704305" lon="8.1072567"><ele>772.5</ele><time>2026-05-03T12:38:16.914Z</time></trkpt><trkpt lat="44.2704842" lon="8.1071897"><ele>772.0</ele><time>2026-05-03T12:38:17.917Z</time></trkpt><trkpt lat="44.2705526" lon="8.1071831"><ele>771.5</ele><time>2026-05-03T12:38:18.916Z</time></trkpt><trkpt lat="44.2706533" lon="8.1072317"><ele>771.0</ele><time>2026-05-03T12:38:19.918Z</time></trkpt><trkpt lat="44.2707782" lon="8.1073442"><ele>772.0</ele><time>2026-05-03T12:38:20.921Z</time></trkpt><trkpt lat="44.2709122" lon="8.1075006"><ele>773.0</ele><time>2026-05-03T12:38:21.912Z</time></trkpt><trkpt lat="44.2710292" lon="8.1076578"><ele>774.0</ele><time>2026-05-03T12:38:22.903Z</time></trkpt><trkpt lat="44.2710907" lon="8.107821"><ele>774.0</ele><time>2026-05-03T12:38:23.912Z</time></trkpt><trkpt lat="44.2711191" lon="8.1080121"><ele>774.0</ele><time>2026-05-03T12:38:24.906Z</time></trkpt><trkpt lat="44.2711116" lon="8.1082379"><ele>774.0</ele><time>2026-05-03T12:38:25.928Z</time></trkpt><trkpt lat="44.2711093" lon="8.1084832"><ele>774.75</ele><time>2026-05-03T12:38:26.913Z</time></trkpt><trkpt lat="44.2711142" lon="8.1087041"><ele>775.5</ele><time>2026-05-03T12:38:27.911Z</time></trkpt><trkpt lat="44.2711124" lon="8.1088773"><ele>776.25</ele><time>2026-05-03T12:38:28.906Z</time></trkpt><trkpt lat="44.2710738" lon="8.1090068"><ele>777.0</ele><time>2026-05-03T12:38:29.904Z</time></trkpt><trkpt lat="44.2709853" lon="8.1091034"><ele>777.0</ele><time>2026-05-03T12:38:30.909Z</time></trkpt><trkpt lat="44.2708544" lon="8.1092093"><ele>777.0</ele><time>2026-05-03T12:38:31.903Z</time></trkpt><trkpt lat="44.2707325" lon="8.1093377"><ele>777.0</ele><time>2026-05-03T12:38:32.906Z</time></trkpt><trkpt lat="44.2706391" lon="8.1094653"><ele>777.0</ele><time>2026-05-03T12:38:33.91Z</time></trkpt><trkpt lat="44.2705627" lon="8.1095909"><ele>773.5</ele><time>2026-05-03T12:38:34.91Z</time></trkpt><trkpt lat="44.270497" lon="8.1097232"><ele>770.0</ele><time>2026-05-03T12:38:35.909Z</time></trkpt><trkpt lat="44.2704567" lon="8.10988"><ele>766.5</ele><time>2026-05-03T12:38:36.911Z</time></trkpt><trkpt lat="44.270446" lon="8.1100808"><ele>763.0</ele><time>2026-05-03T12:38:37.907Z</time></trkpt><trkpt lat="44.2704463" lon="8.110288"><ele>763.0</ele><time>2026-05-03T12:38:38.906Z</time></trkpt><trkpt lat="44.2704537" lon="8.1104747"><ele>763.0</ele><time>2026-05-03T12:38:39.913Z</time></trkpt><trkpt lat="44.2704606" lon="8.1106064"><ele>763.0</ele><time>2026-05-03T12:38:40.902Z</time></trkpt><trkpt lat="44.2705056" lon="8.1107075"><ele>763.0</ele><time>2026-05-03T12:38:41.921Z</time></trkpt><trkpt lat="44.2705715" lon="8.1107091"><ele>763.0</ele><time>2026-05-03T12:38:42.902Z</time></trkpt><trkpt lat="44.2706268" lon="8.1106666"><ele>763.0</ele><time>2026-05-03T12:38:43.898Z</time></trkpt><trkpt lat="44.2706813" lon="8.1105444"><ele>766.5</ele><time>2026-05-03T12:38:44.925Z</time></trkpt><trkpt lat="44.2707025" lon="8.1103757"><ele>770.0</ele><time>2026-05-03T12:38:45.943Z</time></trkpt><trkpt lat="44.27074" lon="8.1101958"><ele>773.5</ele><time>2026-05-03T12:38:46.906Z</time></trkpt><trkpt lat="44.2707823" lon="8.1099936"><ele>777.0</ele><time>2026-05-03T12:38:47.9Z</time></trkpt><trkpt lat="44.2708577" lon="8.1098205"><ele>777.0</ele><time>2026-05-03T12:38:48.904Z</time></trkpt><trkpt lat="44.2709543" lon="8.109675"><ele>777.0</ele><time>2026-05-03T12:38:49.941Z</time></trkpt><trkpt lat="44.2710633" lon="8.1095446"><ele>777.0</ele><time>2026-05-03T12:38:50.915Z</time></trkpt><trkpt lat="44.2711956" lon="8.1094625"><ele>777.0</ele><time>2026-05-03T12:38:51.904Z</time></trkpt><trkpt lat="44.2713195" lon="8.1094157"><ele>777.0</ele><time>2026-05-03T12:38:52.902Z</time></trkpt><trkpt lat="44.2714293" lon="8.1093603"><ele>777.0</ele><time>2026-05-03T12:38:53.894Z</time></trkpt><trkpt lat="44.2715193" lon="8.1092762"><ele>777.0</ele><time>2026-05-03T12:38:54.9Z</time></trkpt><trkpt lat="44.271574" lon="8.1091473"><ele>777.0</ele><time>2026-05-03T12:38:55.897Z</time></trkpt><trkpt lat="44.2715899" lon="8.1089902"><ele>777.0</ele><time>2026-05-03T12:38:56.905Z</time></trkpt><trkpt lat="44.2716035" lon="8.1088139"><ele>783.25</ele><time>2026-05-03T12:38:57.9Z</time></trkpt><trkpt lat="44.2716559" lon="8.108647"><ele>789.5</ele><time>2026-05-03T12:38:58.906Z</time></trkpt><trkpt lat="44.2717557" lon="8.1084971"><ele>795.75</ele><time>2026-05-03T12:38:59.899Z</time></trkpt><trkpt lat="44.2718596" lon="8.1083385"><ele>802.0</ele><time>2026-05-03T12:39:00.908Z</time></trkpt><trkpt lat="44.2719627" lon="8.108172"><ele>802.0</ele><time>2026-05-03T12:39:01.898Z</time></trkpt><trkpt lat="44.272067" lon="8.1080033"><ele>802.0</ele><time>2026-05-03T12:39:02.91Z</time></trkpt><trkpt lat="44.2721372" lon="8.1078356"><ele>802.0</ele><time>2026-05-03T12:39:03.909Z</time></trkpt><trkpt lat="44.2721778" lon="8.1076498"><ele>802.0</ele><time>2026-05-03T12:39:04.905Z</time></trkpt><trkpt lat="44.2722009" lon="8.1074401"><ele>800.3333333333333</ele><time>2026-05-03T12:39:05.904Z</time></trkpt><trkpt lat="44.2722218" lon="8.107224"><ele>798.6666666666667</ele><time>2026-05-03T12:39:06.91Z</time></trkpt><trkpt lat="44.2722662" lon="8.1070139"><ele>797.0</ele><time>2026-05-03T12:39:07.908Z</time></trkpt><trkpt lat="44.2723272" lon="8.1068002"><ele>803.6666666666667</ele><time>2026-05-03T12:39:08.898Z</time></trkpt><trkpt lat="44.2723711" lon="8.1065815"><ele>810.3333333333333</ele><time>2026-05-03T12:39:09.909Z</time></trkpt><trkpt lat="44.2724069" lon="8.1063533"><ele>817.0</ele><time>2026-05-03T12:39:10.91Z</time></trkpt><trkpt lat="44.2724142" lon="8.1061195"><ele>820.6666666666666</ele><time>2026-05-03T12:39:11.912Z</time></trkpt><trkpt lat="44.2723775" lon="8.1058671"><ele>824.3333333333333</ele><time>2026-05-03T12:39:12.92Z</time></trkpt><trkpt lat="44.2723516" lon="8.105621"><ele>828.0</ele><time>2026-05-03T12:39:13.913Z</time></trkpt><trkpt lat="44.2723269" lon="8.1053998"><ele>827.75</ele><time>2026-05-03T12:39:14.911Z</time></trkpt><trkpt lat="44.272304" lon="8.1051902"><ele>827.5</ele><time>2026-05-03T12:39:15.908Z</time></trkpt><trkpt lat="44.2722812" lon="8.1049965"><ele>827.25</ele><time>2026-05-03T12:39:16.908Z</time></trkpt><trkpt lat="44.2722505" lon="8.1048026"><ele>827.0</ele><time>2026-05-03T12:39:17.926Z</time></trkpt><trkpt lat="44.2722014" lon="8.1046261"><ele>827.0</ele><time>2026-05-03T12:39:18.906Z</time></trkpt><trkpt lat="44.2721364" lon="8.1044791"><ele>827.0</ele><time>2026-05-03T12:39:19.917Z</time></trkpt><trkpt lat="44.2720624" lon="8.1043489"><ele>827.0</ele><time>2026-05-03T12:39:20.913Z</time></trkpt><trkpt lat="44.2719798" lon="8.1042173"><ele>827.0</ele><time>2026-05-03T12:39:21.912Z</time></trkpt><trkpt lat="44.2718914" lon="8.1040886"><ele>828.5</ele><time>2026-05-03T12:39:22.903Z</time></trkpt><trkpt lat="44.2718008" lon="8.1039539"><ele>830.0</ele><time>2026-05-03T12:39:23.911Z</time></trkpt><trkpt lat="44.2717058" lon="8.1038128"><ele>831.5</ele><time>2026-05-03T12:39:24.911Z</time></trkpt><trkpt lat="44.2716103" lon="8.1036799"><ele>833.0</ele><time>2026-05-03T12:39:25.917Z</time></trkpt><trkpt lat="44.271528" lon="8.1035675"><ele>833.0000000000001</ele><time>2026-05-03T12:39:26.913Z</time></trkpt><trkpt lat="44.2714701" lon="8.1034698"><ele>833.0</ele><time>2026-05-03T12:39:27.918Z</time></trkpt><trkpt lat="44.2714382" lon="8.1033712"><ele>833.0</ele><time>2026-05-03T12:39:28.909Z</time></trkpt><trkpt lat="44.271431" lon="8.1032699"><ele>833.0</ele><time>2026-05-03T12:39:29.907Z</time></trkpt><trkpt lat="44.2715213" lon="8.1031461"><ele>833.0000000000001</ele><time>2026-05-03T12:39:31.911Z</time></trkpt><trkpt lat="44.2715997" lon="8.1031645"><ele>833.0</ele><time>2026-05-03T12:39:32.913Z</time></trkpt><trkpt lat="44.2716714" lon="8.1032175"><ele>833.0</ele><time>2026-05-03T12:39:33.906Z</time></trkpt><trkpt lat="44.2717373" lon="8.1033"><ele>833.0</ele><time>2026-05-03T12:39:34.907Z</time></trkpt><trkpt lat="44.2717944" lon="8.1034052"><ele>833.0</ele><time>2026-05-03T12:39:35.909Z</time></trkpt><trkpt lat="44.271844" lon="8.1035259"><ele>833.0</ele><time>2026-05-03T12:39:36.902Z</time></trkpt><trkpt lat="44.2718977" lon="8.1036545"><ele>833.0</ele><time>2026-05-03T12:39:37.911Z</time></trkpt><trkpt lat="44.2719693" lon="8.1037827"><ele>833.0</ele><time>2026-05-03T12:39:38.918Z</time></trkpt><trkpt lat="44.2720555" lon="8.1039181"><ele>833.0</ele><time>2026-05-03T12:39:39.917Z</time></trkpt><trkpt lat="44.2721699" lon="8.1040515"><ele>833.0</ele><time>2026-05-03T12:39:40.913Z</time></trkpt><trkpt lat="44.2722828" lon="8.1041795"><ele>833.0</ele><time>2026-05-03T12:39:41.913Z</time></trkpt><trkpt lat="44.272387" lon="8.1042918"><ele>835.4</ele><time>2026-05-03T12:39:42.912Z</time></trkpt><trkpt lat="44.2724824" lon="8.1043981"><ele>837.8</ele><time>2026-05-03T12:39:43.907Z</time></trkpt><trkpt lat="44.2725611" lon="8.1045046"><ele>840.2</ele><time>2026-05-03T12:39:44.914Z</time></trkpt><trkpt lat="44.2726265" lon="8.1046199"><ele>842.6</ele><time>2026-05-03T12:39:45.91Z</time></trkpt><trkpt lat="44.2726759" lon="8.104752"><ele>845.0</ele><time>2026-05-03T12:39:46.915Z</time></trkpt><trkpt lat="44.2727054" lon="8.1049019"><ele>843.4</ele><time>2026-05-03T12:39:47.908Z</time></trkpt><trkpt lat="44.272728" lon="8.1050483"><ele>841.8</ele><time>2026-05-03T12:39:48.914Z</time></trkpt><trkpt lat="44.2727518" lon="8.1051746"><ele>840.2</ele><time>2026-05-03T12:39:49.917Z</time></trkpt><trkpt lat="44.2727728" lon="8.1052968"><ele>838.6</ele><time>2026-05-03T12:39:50.915Z</time></trkpt><trkpt lat="44.2727938" lon="8.1054123"><ele>837.0</ele><time>2026-05-03T12:39:51.912Z</time></trkpt><trkpt lat="44.2728289" lon="8.1055068"><ele>837.0</ele><time>2026-05-03T12:39:52.919Z</time></trkpt><trkpt lat="44.2729166" lon="8.1055842"><ele>837.0</ele><time>2026-05-03T12:39:54.917Z</time></trkpt><trkpt lat="44.2729666" lon="8.1054505"><ele>837.0</ele><time>2026-05-03T12:39:56.91Z</time></trkpt><trkpt lat="44.2729545" lon="8.1053377"><ele>837.0</ele><time>2026-05-03T12:39:57.906Z</time></trkpt><trkpt lat="44.272909" lon="8.105171"><ele>837.0</ele><time>2026-05-03T12:39:58.913Z</time></trkpt><trkpt lat="44.2728778" lon="8.1049515"><ele>839.0</ele><time>2026-05-03T12:39:59.913Z</time></trkpt><trkpt lat="44.2728734" lon="8.104726"><ele>841.0</ele><time>2026-05-03T12:40:00.912Z</time></trkpt><trkpt lat="44.2728753" lon="8.1045248"><ele>843.0</ele><time>2026-05-03T12:40:01.904Z</time></trkpt><trkpt lat="44.2728598" lon="8.1043421"><ele>845.0</ele><time>2026-05-03T12:40:02.912Z</time></trkpt><trkpt lat="44.2728145" lon="8.1041921"><ele>847.0</ele><time>2026-05-03T12:40:03.914Z</time></trkpt><trkpt lat="44.2727383" lon="8.1040432"><ele>849.0</ele><time>2026-05-03T12:40:04.925Z</time></trkpt><trkpt lat="44.2726598" lon="8.1039185"><ele>851.0</ele><time>2026-05-03T12:40:05.907Z</time></trkpt><trkpt lat="44.2725853" lon="8.1037976"><ele>853.0</ele><time>2026-05-03T12:40:06.91Z</time></trkpt><trkpt lat="44.2725062" lon="8.1036804"><ele>853.0</ele><time>2026-05-03T12:40:07.91Z</time></trkpt><trkpt lat="44.2724418" lon="8.1035555"><ele>853.0</ele><time>2026-05-03T12:40:08.91Z</time></trkpt><trkpt lat="44.2723993" lon="8.103427"><ele>853.0</ele><time>2026-05-03T12:40:09.908Z</time></trkpt><trkpt lat="44.2723865" lon="8.1032912"><ele>853.0</ele><time>2026-05-03T12:40:10.905Z</time></trkpt><trkpt lat="44.2724188" lon="8.1031538"><ele>853.0</ele><time>2026-05-03T12:40:11.905Z</time></trkpt><trkpt lat="44.2724767" lon="8.1030284"><ele>852.25</ele><time>2026-05-03T12:40:12.907Z</time></trkpt><trkpt lat="44.2725404" lon="8.1028908"><ele>851.5</ele><time>2026-05-03T12:40:13.914Z</time></trkpt><trkpt lat="44.2726127" lon="8.1027493"><ele>850.75</ele><time>2026-05-03T12:40:14.913Z</time></trkpt><trkpt lat="44.2726796" lon="8.1026073"><ele>850.0</ele><time>2026-05-03T12:40:15.91Z</time></trkpt><trkpt lat="44.2727442" lon="8.1024713"><ele>847.4</ele><time>2026-05-03T12:40:16.909Z</time></trkpt><trkpt lat="44.2728061" lon="8.1023577"><ele>844.8</ele><time>2026-05-03T12:40:17.911Z</time></trkpt><trkpt lat="44.2728766" lon="8.1022674"><ele>842.2</ele><time>2026-05-03T12:40:18.909Z</time></trkpt><trkpt lat="44.2729578" lon="8.1022014"><ele>839.6</ele><time>2026-05-03T12:40:19.917Z</time></trkpt><trkpt lat="44.2730437" lon="8.1021502"><ele>837.0</ele><time>2026-05-03T12:40:20.905Z</time></trkpt><trkpt lat="44.273121" lon="8.1021115"><ele>844.0</ele><time>2026-05-03T12:40:21.92Z</time></trkpt><trkpt lat="44.2732048" lon="8.102041"><ele>851.0</ele><time>2026-05-03T12:40:22.914Z</time></trkpt><trkpt lat="44.2732786" lon="8.1018899"><ele>858.0</ele><time>2026-05-03T12:40:23.911Z</time></trkpt><trkpt lat="44.2733055" lon="8.1016301"><ele>865.0</ele><time>2026-05-03T12:40:24.9Z</time></trkpt><trkpt lat="44.2733468" lon="8.1013752"><ele>865.0</ele><time>2026-05-03T12:40:25.911Z</time></trkpt><trkpt lat="44.2734096" lon="8.1011274"><ele>865.0</ele><time>2026-05-03T12:40:26.911Z</time></trkpt><trkpt lat="44.2734756" lon="8.1009038"><ele>865.0</ele><time>2026-05-03T12:40:27.923Z</time></trkpt><trkpt lat="44.273534" lon="8.1006939"><ele>862.25</ele><time>2026-05-03T12:40:28.908Z</time></trkpt><trkpt lat="44.2735657" lon="8.100519"><ele>859.5</ele><time>2026-05-03T12:40:29.906Z</time></trkpt><trkpt lat="44.2735753" lon="8.1003538"><ele>856.75</ele><time>2026-05-03T12:40:30.908Z</time></trkpt><trkpt lat="44.2736116" lon="8.1002021"><ele>854.0</ele><time>2026-05-03T12:40:31.917Z</time></trkpt><trkpt lat="44.2736934" lon="8.1000733"><ele>854.0</ele><time>2026-05-03T12:40:32.919Z</time></trkpt><trkpt lat="44.273798" lon="8.09995"><ele>854.0</ele><time>2026-05-03T12:40:33.906Z</time></trkpt><trkpt lat="44.273906" lon="8.0998189"><ele>854.0</ele><time>2026-05-03T12:40:34.922Z</time></trkpt><trkpt lat="44.2740192" lon="8.0997039"><ele>854.0</ele><time>2026-05-03T12:40:35.911Z</time></trkpt><trkpt lat="44.2741345" lon="8.0995768"><ele>857.75</ele><time>2026-05-03T12:40:36.913Z</time></trkpt><trkpt lat="44.2742428" lon="8.0994531"><ele>861.5</ele><time>2026-05-03T12:40:37.907Z</time></trkpt><trkpt lat="44.2743486" lon="8.0993531"><ele>865.25</ele><time>2026-05-03T12:40:38.906Z</time></trkpt><trkpt lat="44.2744536" lon="8.0992568"><ele>869.0</ele><time>2026-05-03T12:40:39.913Z</time></trkpt><trkpt lat="44.2745855" lon="8.0992092"><ele>869.0</ele><time>2026-05-03T12:40:40.905Z</time></trkpt><trkpt lat="44.2747359" lon="8.0991757"><ele>869.0</ele><time>2026-05-03T12:40:41.91Z</time></trkpt><trkpt lat="44.2748881" lon="8.0991258"><ele>869.0</ele><time>2026-05-03T12:40:42.909Z</time></trkpt><trkpt lat="44.2750487" lon="8.099051"><ele>865.6666666666667</ele><time>2026-05-03T12:40:43.909Z</time></trkpt><trkpt lat="44.2752174" lon="8.0989734"><ele>862.3333333333333</ele><time>2026-05-03T12:40:44.907Z</time></trkpt><trkpt lat="44.2753898" lon="8.098903"><ele>859.0</ele><time>2026-05-03T12:40:45.906Z</time></trkpt><trkpt lat="44.2755596" lon="8.0988461"><ele>864.6666666666666</ele><time>2026-05-03T12:40:46.908Z</time></trkpt><trkpt lat="44.275729" lon="8.0987981"><ele>870.3333333333333</ele><time>2026-05-03T12:40:47.915Z</time></trkpt><trkpt lat="44.2759032" lon="8.0987473"><ele>876.0</ele><time>2026-05-03T12:40:48.911Z</time></trkpt><trkpt lat="44.2760703" lon="8.0986906"><ele>876.0</ele><time>2026-05-03T12:40:49.907Z</time></trkpt><trkpt lat="44.2762313" lon="8.0986559"><ele>876.0</ele><time>2026-05-03T12:40:50.912Z</time></trkpt><trkpt lat="44.2763747" lon="8.098655"><ele>876.0</ele><time>2026-05-03T12:40:51.911Z</time></trkpt><trkpt lat="44.2764967" lon="8.0986495"><ele>876.0</ele><time>2026-05-03T12:40:52.908Z</time></trkpt><trkpt lat="44.276615" lon="8.098605"><ele>874.0</ele><time>2026-05-03T12:40:53.91Z</time></trkpt><trkpt lat="44.2767166" lon="8.0985172"><ele>872.0</ele><time>2026-05-03T12:40:54.901Z</time></trkpt><trkpt lat="44.276799" lon="8.098406"><ele>870.0</ele><time>2026-05-03T12:40:55.913Z</time></trkpt><trkpt lat="44.2768965" lon="8.0983079"><ele>868.0</ele><time>2026-05-03T12:40:56.904Z</time></trkpt><trkpt lat="44.2770112" lon="8.0982391"><ele>868.0</ele><time>2026-05-03T12:40:57.905Z</time></trkpt><trkpt lat="44.2771357" lon="8.0982155"><ele>868.0</ele><time>2026-05-03T12:40:58.909Z</time></trkpt><trkpt lat="44.2772529" lon="8.0981917"><ele>868.0</ele><time>2026-05-03T12:40:59.905Z</time></trkpt><trkpt lat="44.277354" lon="8.0981412"><ele>868.0</ele><time>2026-05-03T12:41:00.907Z</time></trkpt><trkpt lat="44.2774008" lon="8.0980405"><ele>868.0</ele><time>2026-05-03T12:41:01.915Z</time></trkpt><trkpt lat="44.2774239" lon="8.0979169"><ele>871.25</ele><time>2026-05-03T12:41:02.921Z</time></trkpt><trkpt lat="44.2774512" lon="8.0977578"><ele>874.5</ele><time>2026-05-03T12:41:03.905Z</time></trkpt><trkpt lat="44.2774996" lon="8.0976052"><ele>877.75</ele><time>2026-05-03T12:41:04.908Z</time></trkpt><trkpt lat="44.2775646" lon="8.0974934"><ele>881.0</ele><time>2026-05-03T12:41:05.901Z</time></trkpt><trkpt lat="44.2776635" lon="8.0973842"><ele>881.0</ele><time>2026-05-03T12:41:06.913Z</time></trkpt><trkpt lat="44.2777836" lon="8.0972734"><ele>881.0</ele><time>2026-05-03T12:41:07.906Z</time></trkpt><trkpt lat="44.2779088" lon="8.097166"><ele>881.0</ele><time>2026-05-03T12:41:08.907Z</time></trkpt><trkpt lat="44.2780492" lon="8.097077"><ele>881.0</ele><time>2026-05-03T12:41:09.919Z</time></trkpt><trkpt lat="44.2781884" lon="8.097001"><ele>888.6666666666667</ele><time>2026-05-03T12:41:10.91Z</time></trkpt><trkpt lat="44.278345" lon="8.0969399"><ele>896.3333333333333</ele><time>2026-05-03T12:41:11.907Z</time></trkpt><trkpt lat="44.2784988" lon="8.096877"><ele>904.0</ele><time>2026-05-03T12:41:12.901Z</time></trkpt><trkpt lat="44.278642" lon="8.0967711"><ele>904.0</ele><time>2026-05-03T12:41:13.907Z</time></trkpt><trkpt lat="44.2787766" lon="8.096631"><ele>904.0</ele><time>2026-05-03T12:41:14.917Z</time></trkpt><trkpt lat="44.2789231" lon="8.0965161"><ele>904.0</ele><time>2026-05-03T12:41:15.9Z</time></trkpt><trkpt lat="44.2790625" lon="8.0963985"><ele>910.0</ele><time>2026-05-03T12:41:16.904Z</time></trkpt><trkpt lat="44.279209" lon="8.0963208"><ele>916.0</ele><time>2026-05-03T12:41:17.923Z</time></trkpt><trkpt lat="44.2793446" lon="8.0962515"><ele>922.0</ele><time>2026-05-03T12:41:18.906Z</time></trkpt><trkpt lat="44.2794955" lon="8.0961881"><ele>922.0</ele><time>2026-05-03T12:41:19.91Z</time></trkpt><trkpt lat="44.2796559" lon="8.096115"><ele>922.0</ele><time>2026-05-03T12:41:20.909Z</time></trkpt><trkpt lat="44.2798239" lon="8.0960248"><ele>922.0</ele><time>2026-05-03T12:41:21.9Z</time></trkpt><trkpt lat="44.2799943" lon="8.0959298"><ele>925.0</ele><time>2026-05-03T12:41:22.903Z</time></trkpt><trkpt lat="44.2801581" lon="8.0958437"><ele>928.0</ele><time>2026-05-03T12:41:23.909Z</time></trkpt><trkpt lat="44.2803143" lon="8.0957684"><ele>931.0</ele><time>2026-05-03T12:41:24.907Z</time></trkpt><trkpt lat="44.2804642" lon="8.095711"><ele>939.3333333333333</ele><time>2026-05-03T12:41:25.901Z</time></trkpt><trkpt lat="44.2806118" lon="8.0956752"><ele>947.6666666666667</ele><time>2026-05-03T12:41:26.908Z</time></trkpt><trkpt lat="44.2807734" lon="8.0956712"><ele>956.0</ele><time>2026-05-03T12:41:27.904Z</time></trkpt><trkpt lat="44.2809528" lon="8.0956611"><ele>956.0</ele><time>2026-05-03T12:41:28.91Z</time></trkpt><trkpt lat="44.2811442" lon="8.0956594"><ele>956.0</ele><time>2026-05-03T12:41:29.907Z</time></trkpt><trkpt lat="44.2813348" lon="8.095653"><ele>956.0</ele><time>2026-05-03T12:41:30.908Z</time></trkpt><trkpt lat="44.2815232" lon="8.095647"><ele>954.3333333333334</ele><time>2026-05-03T12:41:31.908Z</time></trkpt><trkpt lat="44.2816992" lon="8.0956446"><ele>952.6666666666667</ele><time>2026-05-03T12:41:32.903Z</time></trkpt><trkpt lat="44.2818743" lon="8.0956382"><ele>951.0</ele><time>2026-05-03T12:41:33.908Z</time></trkpt><trkpt lat="44.2820459" lon="8.0956227"><ele>951.0</ele><time>2026-05-03T12:41:34.906Z</time></trkpt><trkpt lat="44.2822153" lon="8.0956073"><ele>951.0</ele><time>2026-05-03T12:41:35.904Z</time></trkpt><trkpt lat="44.2823912" lon="8.0955971"><ele>951.0</ele><time>2026-05-03T12:41:36.901Z</time></trkpt><trkpt lat="44.2825639" lon="8.095622"><ele>949.3333333333333</ele><time>2026-05-03T12:41:37.9Z</time></trkpt><trkpt lat="44.2827381" lon="8.0956715"><ele>947.6666666666666</ele><time>2026-05-03T12:41:38.907Z</time></trkpt><trkpt lat="44.2829149" lon="8.095735"><ele>946.0</ele><time>2026-05-03T12:41:39.901Z</time></trkpt><trkpt lat="44.2830948" lon="8.095784"><ele>935.0</ele><time>2026-05-03T12:41:40.907Z</time></trkpt><trkpt lat="44.2832733" lon="8.0958275"><ele>924.0</ele><time>2026-05-03T12:41:41.913Z</time></trkpt><trkpt lat="44.2834533" lon="8.0958667"><ele>913.0</ele><time>2026-05-03T12:41:42.9Z</time></trkpt><trkpt lat="44.2836319" lon="8.0959072"><ele>913.0</ele><time>2026-05-03T12:41:43.928Z</time></trkpt><trkpt lat="44.2838122" lon="8.095945"><ele>913.0</ele><time>2026-05-03T12:41:44.909Z</time></trkpt><trkpt lat="44.2839943" lon="8.0959727"><ele>913.0</ele><time>2026-05-03T12:41:45.902Z</time></trkpt><trkpt lat="44.2841711" lon="8.0959925"><ele>913.6666666666666</ele><time>2026-05-03T12:41:46.903Z</time></trkpt><trkpt lat="44.2843471" lon="8.0959867"><ele>914.3333333333333</ele><time>2026-05-03T12:41:47.907Z</time></trkpt><trkpt lat="44.2845204" lon="8.0959682"><ele>915.0</ele><time>2026-05-03T12:41:48.907Z</time></trkpt><trkpt lat="44.2846909" lon="8.0959498"><ele>914.3333333333333</ele><time>2026-05-03T12:41:49.912Z</time></trkpt><trkpt lat="44.2848634" lon="8.0959377"><ele>913.6666666666666</ele><time>2026-05-03T12:41:50.909Z</time></trkpt><trkpt lat="44.2850351" lon="8.0959303"><ele>913.0</ele><time>2026-05-03T12:41:51.908Z</time></trkpt><trkpt lat="44.285195" lon="8.0959202"><ele>913.0</ele><time>2026-05-03T12:41:52.908Z</time></trkpt><trkpt lat="44.2853527" lon="8.0959246"><ele>913.0</ele><time>2026-05-03T12:41:53.908Z</time></trkpt><trkpt lat="44.2855066" lon="8.0959339"><ele>913.0</ele><time>2026-05-03T12:41:54.908Z</time></trkpt><trkpt lat="44.2856654" lon="8.0959524"><ele>910.5</ele><time>2026-05-03T12:41:55.91Z</time></trkpt><trkpt lat="44.2858171" lon="8.0959649"><ele>908.0</ele><time>2026-05-03T12:41:56.909Z</time></trkpt><trkpt lat="44.2859566" lon="8.0959796"><ele>905.5</ele><time>2026-05-03T12:41:57.915Z</time></trkpt><trkpt lat="44.286087" lon="8.0959985"><ele>903.0</ele><time>2026-05-03T12:41:58.912Z</time></trkpt><trkpt lat="44.2862156" lon="8.0960117"><ele>903.0</ele><time>2026-05-03T12:41:59.91Z</time></trkpt><trkpt lat="44.2863283" lon="8.0960229"><ele>903.0</ele><time>2026-05-03T12:42:00.918Z</time></trkpt><trkpt lat="44.2864191" lon="8.0960237"><ele>903.0</ele><time>2026-05-03T12:42:01.913Z</time></trkpt><trkpt lat="44.2865081" lon="8.0960312"><ele>903.0</ele><time>2026-05-03T12:42:02.909Z</time></trkpt><trkpt lat="44.2865956" lon="8.0960434"><ele>903.0</ele><time>2026-05-03T12:42:03.91Z</time></trkpt><trkpt lat="44.2866936" lon="8.0960834"><ele>898.75</ele><time>2026-05-03T12:42:04.917Z</time></trkpt><trkpt lat="44.2867887" lon="8.096144"><ele>894.5</ele><time>2026-05-03T12:42:05.915Z</time></trkpt><trkpt lat="44.2868869" lon="8.0962309"><ele>890.25</ele><time>2026-05-03T12:42:06.923Z</time></trkpt><trkpt lat="44.2869788" lon="8.0963296"><ele>886.0</ele><time>2026-05-03T12:42:07.917Z</time></trkpt><trkpt lat="44.2870787" lon="8.0964179"><ele>886.0</ele><time>2026-05-03T12:42:08.916Z</time></trkpt><trkpt lat="44.2871949" lon="8.0964858"><ele>886.0</ele><time>2026-05-03T12:42:09.916Z</time></trkpt><trkpt lat="44.2873267" lon="8.0965409"><ele>886.0</ele><time>2026-05-03T12:42:10.916Z</time></trkpt><trkpt lat="44.2874516" lon="8.0965932"><ele>886.0</ele><time>2026-05-03T12:42:11.92Z</time></trkpt><trkpt lat="44.2875764" lon="8.0966328"><ele>885.5</ele><time>2026-05-03T12:42:12.914Z</time></trkpt><trkpt lat="44.2877028" lon="8.0966652"><ele>885.0</ele><time>2026-05-03T12:42:13.914Z</time></trkpt><trkpt lat="44.2878265" lon="8.0966904"><ele>884.5</ele><time>2026-05-03T12:42:14.913Z</time></trkpt><trkpt lat="44.2879437" lon="8.0967171"><ele>884.0</ele><time>2026-05-03T12:42:15.914Z</time></trkpt><trkpt lat="44.2880688" lon="8.0967203"><ele>882.25</ele><time>2026-05-03T12:42:16.907Z</time></trkpt><trkpt lat="44.2881996" lon="8.0966834"><ele>880.5</ele><time>2026-05-03T12:42:17.91Z</time></trkpt><trkpt lat="44.2883185" lon="8.096614"><ele>878.75</ele><time>2026-05-03T12:42:18.917Z</time></trkpt><trkpt lat="44.2884439" lon="8.096545"><ele>877.0</ele><time>2026-05-03T12:42:19.91Z</time></trkpt><trkpt lat="44.2885698" lon="8.096479"><ele>872.0</ele><time>2026-05-03T12:42:20.913Z</time></trkpt><trkpt lat="44.288694" lon="8.0964178"><ele>867.0</ele><time>2026-05-03T12:42:21.909Z</time></trkpt><trkpt lat="44.2888194" lon="8.0963609"><ele>862.0</ele><time>2026-05-03T12:42:22.917Z</time></trkpt><trkpt lat="44.2889417" lon="8.0963097"><ele>857.0</ele><time>2026-05-03T12:42:23.927Z</time></trkpt><trkpt lat="44.2890639" lon="8.0962623"><ele>857.0</ele><time>2026-05-03T12:42:24.919Z</time></trkpt><trkpt lat="44.2891813" lon="8.0962281"><ele>857.0</ele><time>2026-05-03T12:42:25.912Z</time></trkpt><trkpt lat="44.2892969" lon="8.0962265"><ele>857.0</ele><time>2026-05-03T12:42:26.914Z</time></trkpt><trkpt lat="44.2894138" lon="8.0962804"><ele>857.0</ele><time>2026-05-03T12:42:27.91Z</time></trkpt><trkpt lat="44.2895104" lon="8.0963754"><ele>857.0</ele><time>2026-05-03T12:42:28.911Z</time></trkpt><trkpt lat="44.2895895" lon="8.0965031"><ele>857.0</ele><time>2026-05-03T12:42:29.91Z</time></trkpt><trkpt lat="44.2896687" lon="8.0966492"><ele>857.0</ele><time>2026-05-03T12:42:30.924Z</time></trkpt><trkpt lat="44.2897559" lon="8.0967859"><ele>857.0</ele><time>2026-05-03T12:42:31.915Z</time></trkpt><trkpt lat="44.2898558" lon="8.096898"><ele>858.25</ele><time>2026-05-03T12:42:32.915Z</time></trkpt><trkpt lat="44.2899742" lon="8.0969786"><ele>859.5</ele><time>2026-05-03T12:42:33.916Z</time></trkpt><trkpt lat="44.2901054" lon="8.0970485"><ele>860.75</ele><time>2026-05-03T12:42:34.914Z</time></trkpt><trkpt lat="44.2902381" lon="8.0970982"><ele>862.0</ele><time>2026-05-03T12:42:35.915Z</time></trkpt><trkpt lat="44.2903637" lon="8.0971235"><ele>862.0</ele><time>2026-05-03T12:42:36.915Z</time></trkpt><trkpt lat="44.2904946" lon="8.0971035"><ele>862.0</ele><time>2026-05-03T12:42:37.915Z</time></trkpt><trkpt lat="44.2906418" lon="8.0970568"><ele>862.0</ele><time>2026-05-03T12:42:38.91Z</time></trkpt><trkpt lat="44.2907943" lon="8.0970065"><ele>862.0</ele><time>2026-05-03T12:42:39.912Z</time></trkpt><trkpt lat="44.2909455" lon="8.0969563"><ele>859.75</ele><time>2026-05-03T12:42:40.917Z</time></trkpt><trkpt lat="44.2910883" lon="8.0969097"><ele>857.5</ele><time>2026-05-03T12:42:41.929Z</time></trkpt><trkpt lat="44.2912343" lon="8.0968631"><ele>855.25</ele><time>2026-05-03T12:42:42.91Z</time></trkpt><trkpt lat="44.2913771" lon="8.0968118"><ele>853.0</ele><time>2026-05-03T12:42:43.912Z</time></trkpt><trkpt lat="44.2915089" lon="8.0967614"><ele>853.0</ele><time>2026-05-03T12:42:44.906Z</time></trkpt><trkpt lat="44.2916325" lon="8.0967023"><ele>853.0</ele><time>2026-05-03T12:42:45.914Z</time></trkpt><trkpt lat="44.2917482" lon="8.0966352"><ele>853.0</ele><time>2026-05-03T12:42:46.912Z</time></trkpt><trkpt lat="44.2918679" lon="8.096575"><ele>853.0</ele><time>2026-05-03T12:42:47.909Z</time></trkpt><trkpt lat="44.2919877" lon="8.096512"><ele>848.75</ele><time>2026-05-03T12:42:48.904Z</time></trkpt><trkpt lat="44.2921069" lon="8.0964678"><ele>844.5</ele><time>2026-05-03T12:42:49.906Z</time></trkpt><trkpt lat="44.2922249" lon="8.0964522"><ele>840.25</ele><time>2026-05-03T12:42:50.909Z</time></trkpt><trkpt lat="44.2923572" lon="8.0964847"><ele>836.0</ele><time>2026-05-03T12:42:51.916Z</time></trkpt><trkpt lat="44.2924991" lon="8.0965018"><ele>836.0</ele><time>2026-05-03T12:42:52.911Z</time></trkpt><trkpt lat="44.292643" lon="8.0964928"><ele>836.0</ele><time>2026-05-03T12:42:53.911Z</time></trkpt><trkpt lat="44.292788" lon="8.0964476"><ele>836.0</ele><time>2026-05-03T12:42:54.916Z</time></trkpt><trkpt lat="44.2929293" lon="8.0963886"><ele>836.0</ele><time>2026-05-03T12:42:55.919Z</time></trkpt><trkpt lat="44.2930765" lon="8.0963506"><ele>834.5</ele><time>2026-05-03T12:42:56.913Z</time></trkpt><trkpt lat="44.2932251" lon="8.0963492"><ele>833.0</ele><time>2026-05-03T12:42:57.923Z</time></trkpt><trkpt lat="44.2933705" lon="8.096363"><ele>831.5</ele><time>2026-05-03T12:42:58.916Z</time></trkpt><trkpt lat="44.2935198" lon="8.096385"><ele>830.0</ele><time>2026-05-03T12:42:59.911Z</time></trkpt><trkpt lat="44.293675" lon="8.0964389"><ele>830.0</ele><time>2026-05-03T12:43:00.912Z</time></trkpt><trkpt lat="44.2938307" lon="8.0965015"><ele>830.0</ele><time>2026-05-03T12:43:01.924Z</time></trkpt><trkpt lat="44.2939923" lon="8.0965506"><ele>830.0</ele><time>2026-05-03T12:43:02.917Z</time></trkpt><trkpt lat="44.2941526" lon="8.096572"><ele>832.75</ele><time>2026-05-03T12:43:03.911Z</time></trkpt><trkpt lat="44.2943038" lon="8.0966044"><ele>835.5</ele><time>2026-05-03T12:43:04.914Z</time></trkpt><trkpt lat="44.2944495" lon="8.0966559"><ele>838.25</ele><time>2026-05-03T12:43:05.908Z</time></trkpt><trkpt lat="44.2945933" lon="8.0966883"><ele>841.0</ele><time>2026-05-03T12:43:06.913Z</time></trkpt><trkpt lat="44.2947356" lon="8.0966961"><ele>840.0</ele><time>2026-05-03T12:43:07.915Z</time></trkpt><trkpt lat="44.2948753" lon="8.0966612"><ele>839.0</ele><time>2026-05-03T12:43:08.911Z</time></trkpt><trkpt lat="44.2949961" lon="8.0965803"><ele>838.0</ele><time>2026-05-03T12:43:09.922Z</time></trkpt><trkpt lat="44.2951122" lon="8.0965119"><ele>837.0</ele><time>2026-05-03T12:43:10.918Z</time></trkpt><trkpt lat="44.2952251" lon="8.0964734"><ele>832.8</ele><time>2026-05-03T12:43:11.913Z</time></trkpt><trkpt lat="44.2953299" lon="8.0964799"><ele>828.6</ele><time>2026-05-03T12:43:12.91Z</time></trkpt><trkpt lat="44.2954336" lon="8.0965136"><ele>824.4</ele><time>2026-05-03T12:43:13.902Z</time></trkpt><trkpt lat="44.2955348" lon="8.0965334"><ele>820.1999999999999</ele><time>2026-05-03T12:43:14.923Z</time></trkpt><trkpt lat="44.2956201" lon="8.0965038"><ele>816.0</ele><time>2026-05-03T12:43:15.915Z</time></trkpt><trkpt lat="44.2956887" lon="8.0964052"><ele>815.4</ele><time>2026-05-03T12:43:16.907Z</time></trkpt><trkpt lat="44.2957521" lon="8.0962771"><ele>814.8</ele><time>2026-05-03T12:43:17.907Z</time></trkpt><trkpt lat="44.2958218" lon="8.0961624"><ele>814.1999999999999</ele><time>2026-05-03T12:43:18.904Z</time></trkpt><trkpt lat="44.2958926" lon="8.0960489"><ele>813.5999999999999</ele><time>2026-05-03T12:43:19.914Z</time></trkpt><trkpt lat="44.2959656" lon="8.0959397"><ele>813.0</ele><time>2026-05-03T12:43:20.915Z</time></trkpt><trkpt lat="44.2960473" lon="8.0958535"><ele>813.0</ele><time>2026-05-03T12:43:21.92Z</time></trkpt><trkpt lat="44.2961262" lon="8.0957576"><ele>813.0</ele><time>2026-05-03T12:43:22.912Z</time></trkpt><trkpt lat="44.2962009" lon="8.0956629"><ele>813.0</ele><time>2026-05-03T12:43:23.912Z</time></trkpt><trkpt lat="44.2962769" lon="8.0955717"><ele>813.0</ele><time>2026-05-03T12:43:24.913Z</time></trkpt><trkpt lat="44.2963544" lon="8.0954845"><ele>813.0</ele><time>2026-05-03T12:43:25.913Z</time></trkpt><trkpt lat="44.2964318" lon="8.0954063"><ele>813.0</ele><time>2026-05-03T12:43:26.912Z</time></trkpt><trkpt lat="44.2965204" lon="8.0953283"><ele>813.0</ele><time>2026-05-03T12:43:27.914Z</time></trkpt><trkpt lat="44.296602" lon="8.0952381"><ele>813.0</ele><time>2026-05-03T12:43:28.909Z</time></trkpt><trkpt lat="44.2966801" lon="8.0951229"><ele>813.0</ele><time>2026-05-03T12:43:29.922Z</time></trkpt><trkpt lat="44.296733" lon="8.0949835"><ele>813.0</ele><time>2026-05-03T12:43:30.911Z</time></trkpt><trkpt lat="44.2967721" lon="8.0948346"><ele>808.5</ele><time>2026-05-03T12:43:31.917Z</time></trkpt><trkpt lat="44.2968064" lon="8.0946713"><ele>804.0</ele><time>2026-05-03T12:43:32.911Z</time></trkpt><trkpt lat="44.2968481" lon="8.0944986"><ele>799.5</ele><time>2026-05-03T12:43:33.911Z</time></trkpt><trkpt lat="44.2969025" lon="8.0943352"><ele>795.0</ele><time>2026-05-03T12:43:34.914Z</time></trkpt><trkpt lat="44.2969657" lon="8.0941825"><ele>792.6</ele><time>2026-05-03T12:43:35.907Z</time></trkpt><trkpt lat="44.2970365" lon="8.0940582"><ele>790.2</ele><time>2026-05-03T12:43:36.935Z</time></trkpt><trkpt lat="44.2971136" lon="8.0939603"><ele>787.8</ele><time>2026-05-03T12:43:37.914Z</time></trkpt><trkpt lat="44.2971865" lon="8.0938997"><ele>785.4</ele><time>2026-05-03T12:43:38.911Z</time></trkpt><trkpt lat="44.2972664" lon="8.0938456"><ele>783.0</ele><time>2026-05-03T12:43:40.916Z</time></trkpt><trkpt lat="44.2973328" lon="8.0938058"><ele>783.0</ele><time>2026-05-03T12:43:42.911Z</time></trkpt><trkpt lat="44.2974033" lon="8.0937333"><ele>783.0</ele><time>2026-05-03T12:43:44.911Z</time></trkpt><trkpt lat="44.2974015" lon="8.0936307"><ele>783.0</ele><time>2026-05-03T12:43:46.917Z</time></trkpt><trkpt lat="44.2972934" lon="8.0936344"><ele>783.0</ele><time>2026-05-03T12:43:48.906Z</time></trkpt><trkpt lat="44.2972133" lon="8.0936831"><ele>783.0</ele><time>2026-05-03T12:43:49.91Z</time></trkpt><trkpt lat="44.2971266" lon="8.0937534"><ele>781.8</ele><time>2026-05-03T12:43:50.907Z</time></trkpt><trkpt lat="44.2970377" lon="8.0938328"><ele>780.5999999999999</ele><time>2026-05-03T12:43:51.913Z</time></trkpt><trkpt lat="44.2969513" lon="8.0939244"><ele>779.4000000000001</ele><time>2026-05-03T12:43:52.918Z</time></trkpt><trkpt lat="44.2968869" lon="8.0940287"><ele>778.2</ele><time>2026-05-03T12:43:53.916Z</time></trkpt><trkpt lat="44.2968287" lon="8.0941418"><ele>777.0</ele><time>2026-05-03T12:43:54.911Z</time></trkpt><trkpt lat="44.2967687" lon="8.0942554"><ele>775.2</ele><time>2026-05-03T12:43:55.915Z</time></trkpt><trkpt lat="44.2967088" lon="8.0943674"><ele>773.4000000000001</ele><time>2026-05-03T12:43:56.925Z</time></trkpt><trkpt lat="44.2966428" lon="8.0944844"><ele>771.5999999999999</ele><time>2026-05-03T12:43:57.915Z</time></trkpt><trkpt lat="44.2965737" lon="8.094595"><ele>769.8</ele><time>2026-05-03T12:43:58.908Z</time></trkpt><trkpt lat="44.2964936" lon="8.094688"><ele>768.0</ele><time>2026-05-03T12:43:59.906Z</time></trkpt><trkpt lat="44.2964024" lon="8.0947609"><ele>768.0</ele><time>2026-05-03T12:44:00.912Z</time></trkpt><trkpt lat="44.2963" lon="8.094801"><ele>768.0</ele><time>2026-05-03T12:44:01.906Z</time></trkpt><trkpt lat="44.2962113" lon="8.094845"><ele>768.0</ele><time>2026-05-03T12:44:02.911Z</time></trkpt><trkpt lat="44.2961174" lon="8.0949035"><ele>768.0</ele><time>2026-05-03T12:44:03.915Z</time></trkpt><trkpt lat="44.2960446" lon="8.0950088"><ele>768.0</ele><time>2026-05-03T12:44:04.913Z</time></trkpt><trkpt lat="44.2959892" lon="8.0951459"><ele>771.3333333333334</ele><time>2026-05-03T12:44:05.915Z</time></trkpt><trkpt lat="44.2959144" lon="8.0952521"><ele>774.6666666666667</ele><time>2026-05-03T12:44:06.907Z</time></trkpt><trkpt lat="44.2958322" lon="8.0953316"><ele>778.0</ele><time>2026-05-03T12:44:07.907Z</time></trkpt><trkpt lat="44.2957594" lon="8.0953975"><ele>781.3333333333334</ele><time>2026-05-03T12:44:08.907Z</time></trkpt><trkpt lat="44.2956887" lon="8.0954525"><ele>784.6666666666667</ele><time>2026-05-03T12:44:09.91Z</time></trkpt><trkpt lat="44.2956176" lon="8.0954842"><ele>788.0</ele><time>2026-05-03T12:44:10.914Z</time></trkpt><trkpt lat="44.2955378" lon="8.0954591"><ele>788.0</ele><time>2026-05-03T12:44:11.911Z</time></trkpt><trkpt lat="44.2954632" lon="8.0953952"><ele>788.0</ele><time>2026-05-03T12:44:12.907Z</time></trkpt><trkpt lat="44.2953857" lon="8.0953255"><ele>788.0</ele><time>2026-05-03T12:44:13.908Z</time></trkpt><trkpt lat="44.2953039" lon="8.0952582"><ele>788.0</ele><time>2026-05-03T12:44:14.902Z</time></trkpt><trkpt lat="44.2952215" lon="8.0952097"><ele>788.0</ele><time>2026-05-03T12:44:15.906Z</time></trkpt><trkpt lat="44.2951405" lon="8.0951661"><ele>788.0000000000001</ele><time>2026-05-03T12:44:16.926Z</time></trkpt><trkpt lat="44.29506" lon="8.0951137"><ele>788.0</ele><time>2026-05-03T12:44:17.909Z</time></trkpt><trkpt lat="44.2949792" lon="8.0950746"><ele>788.0</ele><time>2026-05-03T12:44:18.91Z</time></trkpt><trkpt lat="44.2948943" lon="8.0950288"><ele>788.0</ele><time>2026-05-03T12:44:19.907Z</time></trkpt><trkpt lat="44.2948115" lon="8.0949832"><ele>788.0000000000001</ele><time>2026-05-03T12:44:20.902Z</time></trkpt><trkpt lat="44.2947259" lon="8.0949441"><ele>788.0</ele><time>2026-05-03T12:44:21.907Z</time></trkpt><trkpt lat="44.2946365" lon="8.0949024"><ele>786.0000000000001</ele><time>2026-05-03T12:44:22.913Z</time></trkpt><trkpt lat="44.2945556" lon="8.0948611"><ele>784.0</ele><time>2026-05-03T12:44:23.911Z</time></trkpt><trkpt lat="44.2944772" lon="8.0948115"><ele>782.0</ele><time>2026-05-03T12:44:24.917Z</time></trkpt><trkpt lat="44.2944022" lon="8.094766"><ele>780.0</ele><time>2026-05-03T12:44:25.916Z</time></trkpt><trkpt lat="44.294336" lon="8.0947333"><ele>778.0000000000001</ele><time>2026-05-03T12:44:26.911Z</time></trkpt><trkpt lat="44.2942775" lon="8.0946964"><ele>776.0</ele><time>2026-05-03T12:44:27.91Z</time></trkpt><trkpt lat="44.2941698" lon="8.0946383"><ele>776.0000000000001</ele><time>2026-05-03T12:44:29.914Z</time></trkpt><trkpt lat="44.2940706" lon="8.0945985"><ele>776.0</ele><time>2026-05-03T12:44:31.918Z</time></trkpt><trkpt lat="44.2939866" lon="8.0945652"><ele>776.0</ele><time>2026-05-03T12:44:33.91Z</time></trkpt><trkpt lat="44.293948" lon="8.0944802"><ele>776.0</ele><time>2026-05-03T12:44:35.908Z</time></trkpt><trkpt lat="44.2940174" lon="8.0944048"><ele>776.0000000000001</ele><time>2026-05-03T12:44:37.902Z</time></trkpt><trkpt lat="44.294083" lon="8.0944174"><ele>776.0</ele><time>2026-05-03T12:44:38.918Z</time></trkpt><trkpt lat="44.2941706" lon="8.0944508"><ele>776.0</ele><time>2026-05-03T12:44:39.909Z</time></trkpt><trkpt lat="44.2942677" lon="8.0944981"><ele>776.0</ele><time>2026-05-03T12:44:40.926Z</time></trkpt><trkpt lat="44.2943704" lon="8.0945476"><ele>776.0</ele><time>2026-05-03T12:44:41.907Z</time></trkpt><trkpt lat="44.2944705" lon="8.0945889"><ele>776.0</ele><time>2026-05-03T12:44:42.913Z</time></trkpt><trkpt lat="44.2945749" lon="8.0946324"><ele>776.0</ele><time>2026-05-03T12:44:43.911Z</time></trkpt><trkpt lat="44.2946753" lon="8.0946621"><ele>773.0</ele><time>2026-05-03T12:44:44.906Z</time></trkpt><trkpt lat="44.2947751" lon="8.0946719"><ele>770.0</ele><time>2026-05-03T12:44:45.914Z</time></trkpt><trkpt lat="44.2948824" lon="8.0946403"><ele>767.0</ele><time>2026-05-03T12:44:46.906Z</time></trkpt><trkpt lat="44.294978" lon="8.0946047"><ele>764.0</ele><time>2026-05-03T12:44:47.91Z</time></trkpt><trkpt lat="44.2950729" lon="8.0945653"><ele>761.0</ele><time>2026-05-03T12:44:48.912Z</time></trkpt><trkpt lat="44.2951682" lon="8.0945193"><ele>761.0</ele><time>2026-05-03T12:44:49.913Z</time></trkpt><trkpt lat="44.2952658" lon="8.0944986"><ele>761.0</ele><time>2026-05-03T12:44:50.91Z</time></trkpt><trkpt lat="44.2953589" lon="8.094499"><ele>761.0</ele><time>2026-05-03T12:44:51.909Z</time></trkpt><trkpt lat="44.2954365" lon="8.0945409"><ele>761.0</ele><time>2026-05-03T12:44:52.915Z</time></trkpt><trkpt lat="44.2955014" lon="8.0946082"><ele>761.0</ele><time>2026-05-03T12:44:53.912Z</time></trkpt><trkpt lat="44.295573" lon="8.0946583"><ele>761.0</ele><time>2026-05-03T12:44:54.909Z</time></trkpt><trkpt lat="44.2956389" lon="8.0946283"><ele>762.4</ele><time>2026-05-03T12:44:55.915Z</time></trkpt><trkpt lat="44.2956829" lon="8.0945311"><ele>763.8</ele><time>2026-05-03T12:44:56.918Z</time></trkpt><trkpt lat="44.2957189" lon="8.0944248"><ele>765.1999999999999</ele><time>2026-05-03T12:44:57.921Z</time></trkpt><trkpt lat="44.2957606" lon="8.0942971"><ele>766.5999999999999</ele><time>2026-05-03T12:44:58.908Z</time></trkpt><trkpt lat="44.2958095" lon="8.0941693"><ele>768.0</ele><time>2026-05-03T12:44:59.913Z</time></trkpt><trkpt lat="44.2958704" lon="8.0940391"><ele>764.0</ele><time>2026-05-03T12:45:00.906Z</time></trkpt><trkpt lat="44.2959385" lon="8.0939148"><ele>760.0</ele><time>2026-05-03T12:45:01.903Z</time></trkpt><trkpt lat="44.2960141" lon="8.0938099"><ele>756.0</ele><time>2026-05-03T12:45:02.913Z</time></trkpt><trkpt lat="44.2960884" lon="8.0937134"><ele>752.0</ele><time>2026-05-03T12:45:03.908Z</time></trkpt><trkpt lat="44.2961559" lon="8.0936111"><ele>748.0</ele><time>2026-05-03T12:45:04.909Z</time></trkpt><trkpt lat="44.2962125" lon="8.0934967"><ele>748.0</ele><time>2026-05-03T12:45:05.913Z</time></trkpt><trkpt lat="44.2962684" lon="8.093364"><ele>748.0</ele><time>2026-05-03T12:45:06.905Z</time></trkpt><trkpt lat="44.2963078" lon="8.0932201"><ele>748.0</ele><time>2026-05-03T12:45:07.904Z</time></trkpt><trkpt lat="44.2963235" lon="8.0930739"><ele>748.0</ele><time>2026-05-03T12:45:08.908Z</time></trkpt><trkpt lat="44.2963293" lon="8.0929296"><ele>748.0</ele><time>2026-05-03T12:45:09.902Z</time></trkpt><trkpt lat="44.2963176" lon="8.0927816"><ele>745.0</ele><time>2026-05-03T12:45:10.907Z</time></trkpt><trkpt lat="44.2963111" lon="8.0926351"><ele>742.0</ele><time>2026-05-03T12:45:11.899Z</time></trkpt><trkpt lat="44.2963122" lon="8.0924823"><ele>739.0</ele><time>2026-05-03T12:45:12.909Z</time></trkpt><trkpt lat="44.2963296" lon="8.0923349"><ele>736.0</ele><time>2026-05-03T12:45:13.905Z</time></trkpt><trkpt lat="44.2963674" lon="8.092202"><ele>733.0</ele><time>2026-05-03T12:45:14.908Z</time></trkpt><trkpt lat="44.296417" lon="8.0920907"><ele>733.8333333333334</ele><time>2026-05-03T12:45:15.9Z</time></trkpt><trkpt lat="44.296479" lon="8.0920012"><ele>734.6666666666667</ele><time>2026-05-03T12:45:16.905Z</time></trkpt><trkpt lat="44.2965441" lon="8.0919395"><ele>735.5</ele><time>2026-05-03T12:45:17.903Z</time></trkpt><trkpt lat="44.2966199" lon="8.0919328"><ele>736.3333333333334</ele><time>2026-05-03T12:45:18.901Z</time></trkpt><trkpt lat="44.2967042" lon="8.0919717"><ele>737.1666666666666</ele><time>2026-05-03T12:45:19.902Z</time></trkpt><trkpt lat="44.2967885" lon="8.0920318"><ele>738.0</ele><time>2026-05-03T12:45:20.902Z</time></trkpt><trkpt lat="44.2968674" lon="8.0921194"><ele>738.0</ele><time>2026-05-03T12:45:21.909Z</time></trkpt><trkpt lat="44.2969501" lon="8.0922004"><ele>738.0</ele><time>2026-05-03T12:45:22.91Z</time></trkpt><trkpt lat="44.2970364" lon="8.0922782"><ele>738.0</ele><time>2026-05-03T12:45:23.904Z</time></trkpt><trkpt lat="44.2971184" lon="8.092313"><ele>738.0</ele><time>2026-05-03T12:45:24.907Z</time></trkpt><trkpt lat="44.297179" lon="8.0923441"><ele>738.0</ele><time>2026-05-03T12:45:25.905Z</time></trkpt><trkpt lat="44.2972577" lon="8.0923673"><ele>738.0</ele><time>2026-05-03T12:45:27.902Z</time></trkpt><trkpt lat="44.2973226" lon="8.0923756"><ele>739.3333333333334</ele><time>2026-05-03T12:45:29.909Z</time></trkpt><trkpt lat="44.297394" lon="8.092373"><ele>740.6666666666666</ele><time>2026-05-03T12:45:31.906Z</time></trkpt><trkpt lat="44.297474" lon="8.092377"><ele>742.0</ele><time>2026-05-03T12:45:33.908Z</time></trkpt><trkpt lat="44.2975851" lon="8.0923993"><ele>743.3333333333333</ele><time>2026-05-03T12:45:35.908Z</time></trkpt><trkpt lat="44.2976477" lon="8.0924281"><ele>744.6666666666666</ele><time>2026-05-03T12:45:36.908Z</time></trkpt><trkpt lat="44.2977142" lon="8.0924758"><ele>746.0</ele><time>2026-05-03T12:45:37.924Z</time></trkpt><trkpt lat="44.297779" lon="8.0925364"><ele>746.0</ele><time>2026-05-03T12:45:38.908Z</time></trkpt><trkpt lat="44.2978465" lon="8.0925931"><ele>746.0</ele><time>2026-05-03T12:45:39.917Z</time></trkpt><trkpt lat="44.2979228" lon="8.0926489"><ele>746.0</ele><time>2026-05-03T12:45:40.909Z</time></trkpt><trkpt lat="44.2979942" lon="8.0927175"><ele>746.0</ele><time>2026-05-03T12:45:41.903Z</time></trkpt><trkpt lat="44.2980631" lon="8.0927941"><ele>746.0</ele><time>2026-05-03T12:45:42.911Z</time></trkpt><trkpt lat="44.2981311" lon="8.0928815"><ele>746.0</ele><time>2026-05-03T12:45:43.919Z</time></trkpt><trkpt lat="44.298197" lon="8.0929787"><ele>746.4</ele><time>2026-05-03T12:45:44.908Z</time></trkpt><trkpt lat="44.298249" lon="8.0930874"><ele>746.8</ele><time>2026-05-03T12:45:45.917Z</time></trkpt><trkpt lat="44.2982997" lon="8.0931871"><ele>747.1999999999999</ele><time>2026-05-03T12:45:46.905Z</time></trkpt><trkpt lat="44.2983664" lon="8.0932806"><ele>747.5999999999999</ele><time>2026-05-03T12:45:47.905Z</time></trkpt><trkpt lat="44.2984444" lon="8.0933486"><ele>748.0</ele><time>2026-05-03T12:45:48.907Z</time></trkpt><trkpt lat="44.2985169" lon="8.0934207"><ele>748.0</ele><time>2026-05-03T12:45:49.906Z</time></trkpt><trkpt lat="44.2985912" lon="8.0934643"><ele>748.0</ele><time>2026-05-03T12:45:50.903Z</time></trkpt><trkpt lat="44.2986625" lon="8.0934706"><ele>748.0</ele><time>2026-05-03T12:45:51.906Z</time></trkpt><trkpt lat="44.2987324" lon="8.0934332"><ele>748.0</ele><time>2026-05-03T12:45:52.901Z</time></trkpt><trkpt lat="44.298775" lon="8.0933516"><ele>748.0</ele><time>2026-05-03T12:45:53.908Z</time></trkpt><trkpt lat="44.298803" lon="8.0932169"><ele>748.0</ele><time>2026-05-03T12:45:54.907Z</time></trkpt><trkpt lat="44.2988111" lon="8.0930927"><ele>742.0</ele><time>2026-05-03T12:45:55.912Z</time></trkpt><trkpt lat="44.2988171" lon="8.0929609"><ele>736.0</ele><time>2026-05-03T12:45:56.908Z</time></trkpt><trkpt lat="44.2988354" lon="8.0928197"><ele>730.0</ele><time>2026-05-03T12:45:57.902Z</time></trkpt><trkpt lat="44.2988532" lon="8.0926776"><ele>724.0</ele><time>2026-05-03T12:45:58.919Z</time></trkpt><trkpt lat="44.2988753" lon="8.0925316"><ele>718.0</ele><time>2026-05-03T12:45:59.904Z</time></trkpt><trkpt lat="44.2988996" lon="8.0924052"><ele>723.2</ele><time>2026-05-03T12:46:00.907Z</time></trkpt><trkpt lat="44.2989234" lon="8.0922733"><ele>728.4</ele><time>2026-05-03T12:46:01.907Z</time></trkpt><trkpt lat="44.2989391" lon="8.0921365"><ele>733.6</ele><time>2026-05-03T12:46:02.909Z</time></trkpt><trkpt lat="44.2989421" lon="8.0919969"><ele>738.8000000000001</ele><time>2026-05-03T12:46:03.905Z</time></trkpt><trkpt lat="44.2989331" lon="8.0918596"><ele>744.0</ele><time>2026-05-03T12:46:04.899Z</time></trkpt><trkpt lat="44.2989255" lon="8.091723"><ele>736.8333333333334</ele><time>2026-05-03T12:46:05.91Z</time></trkpt><trkpt lat="44.2989115" lon="8.0916105"><ele>729.6666666666666</ele><time>2026-05-03T12:46:06.908Z</time></trkpt><trkpt lat="44.2988968" lon="8.0914934"><ele>722.5</ele><time>2026-05-03T12:46:07.909Z</time></trkpt><trkpt lat="44.2988805" lon="8.0913896"><ele>715.3333333333333</ele><time>2026-05-03T12:46:08.911Z</time></trkpt><trkpt lat="44.2988626" lon="8.091284"><ele>708.1666666666666</ele><time>2026-05-03T12:46:09.909Z</time></trkpt><trkpt lat="44.2988427" lon="8.0911861"><ele>701.0</ele><time>2026-05-03T12:46:10.903Z</time></trkpt><trkpt lat="44.2988399" lon="8.0910811"><ele>699.5</ele><time>2026-05-03T12:46:11.907Z</time></trkpt><trkpt lat="44.2988644" lon="8.0909732"><ele>698.0</ele><time>2026-05-03T12:46:12.91Z</time></trkpt><trkpt lat="44.2989144" lon="8.090873"><ele>696.5</ele><time>2026-05-03T12:46:13.919Z</time></trkpt><trkpt lat="44.2989566" lon="8.0907848"><ele>695.0</ele><time>2026-05-03T12:46:14.905Z</time></trkpt><trkpt lat="44.2989866" lon="8.0906813"><ele>693.5</ele><time>2026-05-03T12:46:15.905Z</time></trkpt><trkpt lat="44.2989747" lon="8.0905717"><ele>692.0</ele><time>2026-05-03T12:46:16.909Z</time></trkpt><trkpt lat="44.2989281" lon="8.0904782"><ele>692.0</ele><time>2026-05-03T12:46:17.907Z</time></trkpt><trkpt lat="44.2988694" lon="8.0903999"><ele>692.0</ele><time>2026-05-03T12:46:18.909Z</time></trkpt><trkpt lat="44.2988104" lon="8.0903222"><ele>692.0</ele><time>2026-05-03T12:46:19.91Z</time></trkpt><trkpt lat="44.298763" lon="8.0902481"><ele>692.0</ele><time>2026-05-03T12:46:20.904Z</time></trkpt><trkpt lat="44.298727" lon="8.0901736"><ele>692.0</ele><time>2026-05-03T12:46:21.897Z</time></trkpt><trkpt lat="44.298702" lon="8.090086"><ele>692.0</ele><time>2026-05-03T12:46:22.908Z</time></trkpt><trkpt lat="44.2986844" lon="8.0899949"><ele>692.0</ele><time>2026-05-03T12:46:23.904Z</time></trkpt><trkpt lat="44.2986769" lon="8.0898134"><ele>694.1666666666666</ele><time>2026-05-03T12:46:25.908Z</time></trkpt><trkpt lat="44.2986842" lon="8.0897218"><ele>696.3333333333333</ele><time>2026-05-03T12:46:26.912Z</time></trkpt><trkpt lat="44.2986771" lon="8.0896275"><ele>698.5</ele><time>2026-05-03T12:46:27.909Z</time></trkpt><trkpt lat="44.2986487" lon="8.0895287"><ele>700.6666666666666</ele><time>2026-05-03T12:46:28.904Z</time></trkpt><trkpt lat="44.2986109" lon="8.0894362"><ele>702.8333333333334</ele><time>2026-05-03T12:46:29.907Z</time></trkpt><trkpt lat="44.2985697" lon="8.089338"><ele>705.0</ele><time>2026-05-03T12:46:30.916Z</time></trkpt><trkpt lat="44.2985259" lon="8.0892319"><ele>705.0</ele><time>2026-05-03T12:46:31.903Z</time></trkpt><trkpt lat="44.2984849" lon="8.0891126"><ele>705.0</ele><time>2026-05-03T12:46:32.904Z</time></trkpt><trkpt lat="44.2984446" lon="8.0889932"><ele>705.0</ele><time>2026-05-03T12:46:33.904Z</time></trkpt><trkpt lat="44.2984042" lon="8.0888781"><ele>705.0</ele><time>2026-05-03T12:46:34.907Z</time></trkpt><trkpt lat="44.2983662" lon="8.0887673"><ele>705.0</ele><time>2026-05-03T12:46:35.907Z</time></trkpt><trkpt lat="44.2983209" lon="8.0886737"><ele>704.5</ele><time>2026-05-03T12:46:36.915Z</time></trkpt><trkpt lat="44.29827" lon="8.088582"><ele>704.0</ele><time>2026-05-03T12:46:37.909Z</time></trkpt><trkpt lat="44.2982187" lon="8.0884923"><ele>703.5</ele><time>2026-05-03T12:46:38.909Z</time></trkpt><trkpt lat="44.2981748" lon="8.0884068"><ele>703.0</ele><time>2026-05-03T12:46:39.908Z</time></trkpt><trkpt lat="44.2981383" lon="8.0883123"><ele>702.5</ele><time>2026-05-03T12:46:40.914Z</time></trkpt><trkpt lat="44.298121" lon="8.0882093"><ele>702.0</ele><time>2026-05-03T12:46:41.911Z</time></trkpt><trkpt lat="44.2981243" lon="8.0880924"><ele>702.0</ele><time>2026-05-03T12:46:42.909Z</time></trkpt><trkpt lat="44.2981396" lon="8.0879828"><ele>702.0</ele><time>2026-05-03T12:46:43.918Z</time></trkpt><trkpt lat="44.2981686" lon="8.0878654"><ele>702.0</ele><time>2026-05-03T12:46:44.906Z</time></trkpt><trkpt lat="44.2982027" lon="8.087742"><ele>702.0</ele><time>2026-05-03T12:46:45.913Z</time></trkpt><trkpt lat="44.2982449" lon="8.0876295"><ele>702.0</ele><time>2026-05-03T12:46:46.908Z</time></trkpt><trkpt lat="44.2983009" lon="8.0875311"><ele>702.0</ele><time>2026-05-03T12:46:47.903Z</time></trkpt><trkpt lat="44.2983729" lon="8.0874554"><ele>699.0</ele><time>2026-05-03T12:46:48.907Z</time></trkpt><trkpt lat="44.2984495" lon="8.087411"><ele>696.0</ele><time>2026-05-03T12:46:49.91Z</time></trkpt><trkpt lat="44.2985322" lon="8.0873825"><ele>693.0</ele><time>2026-05-03T12:46:50.913Z</time></trkpt><trkpt lat="44.2986171" lon="8.0873481"><ele>690.0</ele><time>2026-05-03T12:46:51.908Z</time></trkpt><trkpt lat="44.2986995" lon="8.0872982"><ele>687.0</ele><time>2026-05-03T12:46:52.914Z</time></trkpt><trkpt lat="44.2987804" lon="8.0872239"><ele>684.0</ele><time>2026-05-03T12:46:53.913Z</time></trkpt><trkpt lat="44.2988439" lon="8.0871192"><ele>684.0</ele><time>2026-05-03T12:46:54.904Z</time></trkpt><trkpt lat="44.2988916" lon="8.086987"><ele>684.0</ele><time>2026-05-03T12:46:55.91Z</time></trkpt><trkpt lat="44.2989028" lon="8.0868528"><ele>684.0</ele><time>2026-05-03T12:46:56.906Z</time></trkpt><trkpt lat="44.2988879" lon="8.086734"><ele>684.0</ele><time>2026-05-03T12:46:57.898Z</time></trkpt><trkpt lat="44.2988764" lon="8.0866127"><ele>684.0</ele><time>2026-05-03T12:46:58.91Z</time></trkpt><trkpt lat="44.2988936" lon="8.086496"><ele>681.8333333333334</ele><time>2026-05-03T12:46:59.899Z</time></trkpt><trkpt lat="44.298945" lon="8.0864216"><ele>679.6666666666666</ele><time>2026-05-03T12:47:00.901Z</time></trkpt><trkpt lat="44.2990135" lon="8.0863652"><ele>677.5</ele><time>2026-05-03T12:47:01.901Z</time></trkpt><trkpt lat="44.2990922" lon="8.0863346"><ele>675.3333333333333</ele><time>2026-05-03T12:47:02.905Z</time></trkpt><trkpt lat="44.2991667" lon="8.0863146"><ele>673.1666666666666</ele><time>2026-05-03T12:47:03.91Z</time></trkpt><trkpt lat="44.299241" lon="8.0863024"><ele>671.0</ele><time>2026-05-03T12:47:04.905Z</time></trkpt><trkpt lat="44.2993136" lon="8.0863128"><ele>671.0</ele><time>2026-05-03T12:47:05.905Z</time></trkpt><trkpt lat="44.2993899" lon="8.0863317"><ele>671.0</ele><time>2026-05-03T12:47:06.902Z</time></trkpt><trkpt lat="44.2994763" lon="8.0863775"><ele>671.0</ele><time>2026-05-03T12:47:07.915Z</time></trkpt><trkpt lat="44.2995733" lon="8.0864477"><ele>671.0</ele><time>2026-05-03T12:47:08.907Z</time></trkpt><trkpt lat="44.2996685" lon="8.0865065"><ele>671.0</ele><time>2026-05-03T12:47:09.906Z</time></trkpt><trkpt lat="44.2997682" lon="8.0865758"><ele>675.1999999999999</ele><time>2026-05-03T12:47:10.906Z</time></trkpt><trkpt lat="44.2998648" lon="8.0866262"><ele>679.4</ele><time>2026-05-03T12:47:11.9Z</time></trkpt><trkpt lat="44.2999575" lon="8.0866777"><ele>683.6</ele><time>2026-05-03T12:47:12.908Z</time></trkpt><trkpt lat="44.3000424" lon="8.0867235"><ele>687.8</ele><time>2026-05-03T12:47:13.901Z</time></trkpt><trkpt lat="44.3001267" lon="8.0867706"><ele>692.0</ele><time>2026-05-03T12:47:14.903Z</time></trkpt><trkpt lat="44.300197" lon="8.086809"><ele>692.0</ele><time>2026-05-03T12:47:15.906Z</time></trkpt><trkpt lat="44.3003011" lon="8.0868743"><ele>692.0</ele><time>2026-05-03T12:47:17.924Z</time></trkpt><trkpt lat="44.3003899" lon="8.0869466"><ele>692.0</ele><time>2026-05-03T12:47:19.909Z</time></trkpt><trkpt lat="44.3004612" lon="8.0870204"><ele>692.0</ele><time>2026-05-03T12:47:21.904Z</time></trkpt><trkpt lat="44.3005365" lon="8.0870728"><ele>692.0</ele><time>2026-05-03T12:47:23.904Z</time></trkpt><trkpt lat="44.3006217" lon="8.0870681"><ele>692.0</ele><time>2026-05-03T12:47:25.908Z</time></trkpt><trkpt lat="44.3006147" lon="8.0869235"><ele>692.0</ele><time>2026-05-03T12:47:27.915Z</time></trkpt><trkpt lat="44.3005552" lon="8.0868538"><ele>692.0</ele><time>2026-05-03T12:47:28.92Z</time></trkpt><trkpt lat="44.3004633" lon="8.0867852"><ele>692.0</ele><time>2026-05-03T12:47:29.908Z</time></trkpt><trkpt lat="44.3003501" lon="8.0867099"><ele>692.0</ele><time>2026-05-03T12:47:30.912Z</time></trkpt><trkpt lat="44.3002521" lon="8.0866279"><ele>688.3333333333333</ele><time>2026-05-03T12:47:31.905Z</time></trkpt><trkpt lat="44.3001604" lon="8.0865543"><ele>684.6666666666666</ele><time>2026-05-03T12:47:32.913Z</time></trkpt><trkpt lat="44.3000818" lon="8.0864917"><ele>681.0</ele><time>2026-05-03T12:47:33.908Z</time></trkpt><trkpt lat="44.3000145" lon="8.0864242"><ele>677.3333333333334</ele><time>2026-05-03T12:47:34.907Z</time></trkpt><trkpt lat="44.2999611" lon="8.0863493"><ele>673.6666666666667</ele><time>2026-05-03T12:47:35.923Z</time></trkpt><trkpt lat="44.2999232" lon="8.0862486"><ele>670.0</ele><time>2026-05-03T12:47:36.906Z</time></trkpt><trkpt lat="44.2998934" lon="8.0861489"><ele>670.0</ele><time>2026-05-03T12:47:37.915Z</time></trkpt><trkpt lat="44.2998608" lon="8.0860543"><ele>670.0</ele><time>2026-05-03T12:47:38.914Z</time></trkpt><trkpt lat="44.2998112" lon="8.0859857"><ele>670.0</ele><time>2026-05-03T12:47:39.911Z</time></trkpt><trkpt lat="44.2997403" lon="8.0859569"><ele>670.0</ele><time>2026-05-03T12:47:40.918Z</time></trkpt><trkpt lat="44.299649" lon="8.08593"><ele>670.0</ele><time>2026-05-03T12:47:41.91Z</time></trkpt><trkpt lat="44.2995573" lon="8.0859137"><ele>670.0</ele><time>2026-05-03T12:47:42.906Z</time></trkpt><trkpt lat="44.2994669" lon="8.0858952"><ele>670.1666666666667</ele><time>2026-05-03T12:47:43.908Z</time></trkpt><trkpt lat="44.29938" lon="8.0858652"><ele>670.3333333333334</ele><time>2026-05-03T12:47:44.91Z</time></trkpt><trkpt lat="44.2992975" lon="8.0858362"><ele>670.5</ele><time>2026-05-03T12:47:45.911Z</time></trkpt><trkpt lat="44.2992172" lon="8.0858064"><ele>670.6666666666666</ele><time>2026-05-03T12:47:46.904Z</time></trkpt><trkpt lat="44.2991276" lon="8.0857897"><ele>670.8333333333333</ele><time>2026-05-03T12:47:47.905Z</time></trkpt><trkpt lat="44.2990317" lon="8.0857716"><ele>671.0</ele><time>2026-05-03T12:47:48.912Z</time></trkpt><trkpt lat="44.2989325" lon="8.0857659"><ele>669.8333333333333</ele><time>2026-05-03T12:47:49.916Z</time></trkpt><trkpt lat="44.2988344" lon="8.0857648"><ele>668.6666666666666</ele><time>2026-05-03T12:47:50.911Z</time></trkpt><trkpt lat="44.2987438" lon="8.0857503"><ele>667.5</ele><time>2026-05-03T12:47:51.905Z</time></trkpt><trkpt lat="44.2986639" lon="8.0857306"><ele>666.3333333333334</ele><time>2026-05-03T12:47:52.903Z</time></trkpt><trkpt lat="44.298597" lon="8.0857128"><ele>665.1666666666667</ele><time>2026-05-03T12:47:53.911Z</time></trkpt><trkpt lat="44.2984999" lon="8.0856866"><ele>664.0</ele><time>2026-05-03T12:47:55.908Z</time></trkpt><trkpt lat="44.2984157" lon="8.0856716"><ele>664.0</ele><time>2026-05-03T12:47:58.905Z</time></trkpt><trkpt lat="44.2983518" lon="8.0856874"><ele>664.0</ele><time>2026-05-03T12:48:00.908Z</time></trkpt><trkpt lat="44.2982795" lon="8.085713"><ele>664.0</ele><time>2026-05-03T12:48:02.899Z</time></trkpt><trkpt lat="44.2982184" lon="8.085759"><ele>664.0</ele><time>2026-05-03T12:48:04.905Z</time></trkpt><trkpt lat="44.2981657" lon="8.0858134"><ele>664.0</ele><time>2026-05-03T12:48:06.899Z</time></trkpt><trkpt lat="44.2981038" lon="8.0858772"><ele>664.0</ele><time>2026-05-03T12:48:08.901Z</time></trkpt><trkpt lat="44.2980396" lon="8.0858227"><ele>664.0</ele><time>2026-05-03T12:48:10.909Z</time></trkpt><trkpt lat="44.2980906" lon="8.0857081"><ele>658.5</ele><time>2026-05-03T12:48:12.905Z</time></trkpt><trkpt lat="44.2981463" lon="8.0856539"><ele>653.0</ele><time>2026-05-03T12:48:13.913Z</time></trkpt><trkpt lat="44.2982224" lon="8.0856145"><ele>647.5</ele><time>2026-05-03T12:48:14.911Z</time></trkpt><trkpt lat="44.2983072" lon="8.0855845"><ele>642.0</ele><time>2026-05-03T12:48:15.904Z</time></trkpt><trkpt lat="44.2983963" lon="8.085568"><ele>636.5</ele><time>2026-05-03T12:48:16.899Z</time></trkpt><trkpt lat="44.2984953" lon="8.0855559"><ele>631.0</ele><time>2026-05-03T12:48:17.91Z</time></trkpt><trkpt lat="44.2985922" lon="8.0855522"><ele>631.0</ele><time>2026-05-03T12:48:18.898Z</time></trkpt><trkpt lat="44.2986957" lon="8.0855496"><ele>631.0</ele><time>2026-05-03T12:48:19.9Z</time></trkpt><trkpt lat="44.2987953" lon="8.0855329"><ele>631.0</ele><time>2026-05-03T12:48:20.898Z</time></trkpt><trkpt lat="44.2988905" lon="8.085514"><ele>631.0</ele><time>2026-05-03T12:48:21.906Z</time></trkpt><trkpt lat="44.2989829" lon="8.0854986"><ele>631.0</ele><time>2026-05-03T12:48:22.906Z</time></trkpt><trkpt lat="44.2990773" lon="8.0854892"><ele>632.2</ele><time>2026-05-03T12:48:23.898Z</time></trkpt><trkpt lat="44.2991806" lon="8.0855026"><ele>633.4000000000001</ele><time>2026-05-03T12:48:24.912Z</time></trkpt><trkpt lat="44.2992901" lon="8.0855199"><ele>634.6</ele><time>2026-05-03T12:48:25.905Z</time></trkpt><trkpt lat="44.2993975" lon="8.0855334"><ele>635.8000000000001</ele><time>2026-05-03T12:48:26.902Z</time></trkpt><trkpt lat="44.2994954" lon="8.0855381"><ele>637.0</ele><time>2026-05-03T12:48:27.905Z</time></trkpt><trkpt lat="44.2995891" lon="8.0855135"><ele>637.0</ele><time>2026-05-03T12:48:28.902Z</time></trkpt><trkpt lat="44.299676" lon="8.0854535"><ele>637.0</ele><time>2026-05-03T12:48:29.907Z</time></trkpt><trkpt lat="44.299755" lon="8.0853878"><ele>637.0</ele><time>2026-05-03T12:48:30.909Z</time></trkpt><trkpt lat="44.2998371" lon="8.0853159"><ele>637.0</ele><time>2026-05-03T12:48:31.905Z</time></trkpt><trkpt lat="44.2999395" lon="8.0852536"><ele>637.0</ele><time>2026-05-03T12:48:32.905Z</time></trkpt><trkpt lat="44.3000435" lon="8.0852055"><ele>638.4000000000001</ele><time>2026-05-03T12:48:33.904Z</time></trkpt><trkpt lat="44.3001475" lon="8.0851575"><ele>639.8000000000001</ele><time>2026-05-03T12:48:34.901Z</time></trkpt><trkpt lat="44.3002402" lon="8.0851074"><ele>641.2</ele><time>2026-05-03T12:48:35.907Z</time></trkpt><trkpt lat="44.3003233" lon="8.0850494"><ele>642.6</ele><time>2026-05-03T12:48:36.901Z</time></trkpt><trkpt lat="44.3003966" lon="8.0849659"><ele>644.0</ele><time>2026-05-03T12:48:37.906Z</time></trkpt><trkpt lat="44.3004528" lon="8.0848689"><ele>641.2</ele><time>2026-05-03T12:48:38.909Z</time></trkpt><trkpt lat="44.3004987" lon="8.0847478"><ele>638.4000000000001</ele><time>2026-05-03T12:48:39.903Z</time></trkpt><trkpt lat="44.3005259" lon="8.084627"><ele>635.6</ele><time>2026-05-03T12:48:40.915Z</time></trkpt><trkpt lat="44.3005206" lon="8.0844727"><ele>632.8</ele><time>2026-05-03T12:48:41.907Z</time></trkpt><trkpt lat="44.3004948" lon="8.0843215"><ele>630.0</ele><time>2026-05-03T12:48:42.909Z</time></trkpt><trkpt lat="44.3004649" lon="8.084172"><ele>629.4</ele><time>2026-05-03T12:48:43.903Z</time></trkpt><trkpt lat="44.3004392" lon="8.0840333"><ele>628.8</ele><time>2026-05-03T12:48:44.9Z</time></trkpt><trkpt lat="44.3004207" lon="8.0838785"><ele>628.2</ele><time>2026-05-03T12:48:45.913Z</time></trkpt><trkpt lat="44.3004138" lon="8.0837088"><ele>627.6</ele><time>2026-05-03T12:48:46.915Z</time></trkpt><trkpt lat="44.3004161" lon="8.0835512"><ele>627.0</ele><time>2026-05-03T12:48:47.913Z</time></trkpt><trkpt lat="44.3004127" lon="8.0834007"><ele>627.3333333333334</ele><time>2026-05-03T12:48:48.916Z</time></trkpt><trkpt lat="44.3004045" lon="8.0832609"><ele>627.6666666666666</ele><time>2026-05-03T12:48:49.899Z</time></trkpt><trkpt lat="44.3003773" lon="8.0831361"><ele>628.0</ele><time>2026-05-03T12:48:50.914Z</time></trkpt><trkpt lat="44.300341" lon="8.08302"><ele>628.3333333333333</ele><time>2026-05-03T12:48:51.905Z</time></trkpt><trkpt lat="44.3003039" lon="8.0829145"><ele>628.6666666666666</ele><time>2026-05-03T12:48:52.917Z</time></trkpt><trkpt lat="44.3002682" lon="8.0828175"><ele>629.0</ele><time>2026-05-03T12:48:53.906Z</time></trkpt><trkpt lat="44.3002308" lon="8.0827238"><ele>629.0</ele><time>2026-05-03T12:48:54.905Z</time></trkpt><trkpt lat="44.300202" lon="8.0826276"><ele>629.0</ele><time>2026-05-03T12:48:55.913Z</time></trkpt><trkpt lat="44.3001765" lon="8.0825358"><ele>629.0</ele><time>2026-05-03T12:48:56.908Z</time></trkpt><trkpt lat="44.3001643" lon="8.0824295"><ele>629.0</ele><time>2026-05-03T12:48:57.913Z</time></trkpt><trkpt lat="44.3001804" lon="8.0822998"><ele>629.0</ele><time>2026-05-03T12:48:58.902Z</time></trkpt><trkpt lat="44.3002082" lon="8.0821602"><ele>629.0</ele><time>2026-05-03T12:48:59.903Z</time></trkpt><trkpt lat="44.3002515" lon="8.0820321"><ele>627.0</ele><time>2026-05-03T12:49:00.914Z</time></trkpt><trkpt lat="44.3003028" lon="8.0819047"><ele>625.0</ele><time>2026-05-03T12:49:01.91Z</time></trkpt><trkpt lat="44.3003562" lon="8.0818008"><ele>623.0</ele><time>2026-05-03T12:49:02.906Z</time></trkpt><trkpt lat="44.3004194" lon="8.0816929"><ele>621.0</ele><time>2026-05-03T12:49:03.912Z</time></trkpt><trkpt lat="44.3004684" lon="8.0815885"><ele>619.0</ele><time>2026-05-03T12:49:04.906Z</time></trkpt><trkpt lat="44.3005061" lon="8.0815071"><ele>618.5714285714286</ele><time>2026-05-03T12:49:05.918Z</time></trkpt><trkpt lat="44.3005397" lon="8.0814241"><ele>618.1428571428571</ele><time>2026-05-03T12:49:06.906Z</time></trkpt><trkpt lat="44.3005817" lon="8.0813549"><ele>617.7142857142858</ele><time>2026-05-03T12:49:07.91Z</time></trkpt><trkpt lat="44.3006464" lon="8.0813115"><ele>617.2857142857142</ele><time>2026-05-03T12:49:08.903Z</time></trkpt><trkpt lat="44.3007088" lon="8.0812714"><ele>616.8571428571429</ele><time>2026-05-03T12:49:09.908Z</time></trkpt><trkpt lat="44.3007798" lon="8.0812432"><ele>616.4285714285714</ele><time>2026-05-03T12:49:11.912Z</time></trkpt><trkpt lat="44.3008726" lon="8.0812149"><ele>616.0</ele><time>2026-05-03T12:49:14.902Z</time></trkpt><trkpt lat="44.3009429" lon="8.0811934"><ele>619.5</ele><time>2026-05-03T12:49:16.899Z</time></trkpt><trkpt lat="44.3010139" lon="8.081111"><ele>623.0</ele><time>2026-05-03T12:49:18.907Z</time></trkpt><trkpt lat="44.3010113" lon="8.0810156"><ele>626.5</ele><time>2026-05-03T12:49:20.906Z</time></trkpt><trkpt lat="44.3009499" lon="8.0809898"><ele>630.0</ele><time>2026-05-03T12:49:21.914Z</time></trkpt><trkpt lat="44.3008546" lon="8.0809726"><ele>633.5</ele><time>2026-05-03T12:49:22.905Z</time></trkpt><trkpt lat="44.3007741" lon="8.0809679"><ele>637.0</ele><time>2026-05-03T12:49:23.915Z</time></trkpt><trkpt lat="44.300695" lon="8.0809467"><ele>637.0</ele><time>2026-05-03T12:49:24.909Z</time></trkpt><trkpt lat="44.3006199" lon="8.0809234"><ele>637.0</ele><time>2026-05-03T12:49:25.902Z</time></trkpt><trkpt lat="44.3005477" lon="8.0808863"><ele>637.0</ele><time>2026-05-03T12:49:26.91Z</time></trkpt><trkpt lat="44.3004718" lon="8.0808383"><ele>637.0</ele><time>2026-05-03T12:49:27.911Z</time></trkpt><trkpt lat="44.3003952" lon="8.080788"><ele>637.0</ele><time>2026-05-03T12:49:28.911Z</time></trkpt><trkpt lat="44.3003214" lon="8.0807318"><ele>637.0</ele><time>2026-05-03T12:49:29.912Z</time></trkpt><trkpt lat="44.3002441" lon="8.0806729"><ele>633.8000000000001</ele><time>2026-05-03T12:49:30.909Z</time></trkpt><trkpt lat="44.3001699" lon="8.0806032"><ele>630.6</ele><time>2026-05-03T12:49:31.909Z</time></trkpt><trkpt lat="44.3000995" lon="8.0805072"><ele>627.4000000000001</ele><time>2026-05-03T12:49:32.903Z</time></trkpt><trkpt lat="44.3000395" lon="8.0803933"><ele>624.2</ele><time>2026-05-03T12:49:33.915Z</time></trkpt><trkpt lat="44.2999856" lon="8.0802671"><ele>621.0</ele><time>2026-05-03T12:49:34.909Z</time></trkpt><trkpt lat="44.2999235" lon="8.0801401"><ele>621.0</ele><time>2026-05-03T12:49:35.903Z</time></trkpt><trkpt lat="44.2998603" lon="8.0800185"><ele>621.0</ele><time>2026-05-03T12:49:36.91Z</time></trkpt><trkpt lat="44.2998029" lon="8.0799052"><ele>621.0</ele><time>2026-05-03T12:49:37.889Z</time></trkpt><trkpt lat="44.2997464" lon="8.0797921"><ele>621.0</ele><time>2026-05-03T12:49:38.912Z</time></trkpt><trkpt lat="44.2996957" lon="8.0796779"><ele>621.0</ele><time>2026-05-03T12:49:39.91Z</time></trkpt><trkpt lat="44.2996763" lon="8.0795501"><ele>619.2</ele><time>2026-05-03T12:49:40.906Z</time></trkpt><trkpt lat="44.2997057" lon="8.0794207"><ele>617.4000000000001</ele><time>2026-05-03T12:49:41.911Z</time></trkpt><trkpt lat="44.2997638" lon="8.0793079"><ele>615.6</ele><time>2026-05-03T12:49:42.91Z</time></trkpt><trkpt lat="44.2998373" lon="8.0792183"><ele>613.8000000000001</ele><time>2026-05-03T12:49:43.908Z</time></trkpt><trkpt lat="44.299908" lon="8.0791273"><ele>612.0</ele><time>2026-05-03T12:49:44.904Z</time></trkpt><trkpt lat="44.299962" lon="8.0790153"><ele>610.0</ele><time>2026-05-03T12:49:45.905Z</time></trkpt><trkpt lat="44.2999973" lon="8.0788861"><ele>608.0</ele><time>2026-05-03T12:49:46.906Z</time></trkpt><trkpt lat="44.3000193" lon="8.0787447"><ele>606.0</ele><time>2026-05-03T12:49:47.904Z</time></trkpt><trkpt lat="44.3000545" lon="8.0786088"><ele>604.0</ele><time>2026-05-03T12:49:48.914Z</time></trkpt><trkpt lat="44.3001204" lon="8.0784934"><ele>602.0</ele><time>2026-05-03T12:49:49.907Z</time></trkpt><trkpt lat="44.300205" lon="8.0784002"><ele>602.0</ele><time>2026-05-03T12:49:50.902Z</time></trkpt><trkpt lat="44.3002835" lon="8.0783233"><ele>602.0</ele><time>2026-05-03T12:49:51.905Z</time></trkpt><trkpt lat="44.3003612" lon="8.0782564"><ele>602.0</ele><time>2026-05-03T12:49:52.908Z</time></trkpt><trkpt lat="44.3004395" lon="8.0781823"><ele>602.0</ele><time>2026-05-03T12:49:53.9Z</time></trkpt><trkpt lat="44.3004989" lon="8.0780911"><ele>602.0</ele><time>2026-05-03T12:49:54.913Z</time></trkpt><trkpt lat="44.3005319" lon="8.0779835"><ele>603.3333333333333</ele><time>2026-05-03T12:49:55.906Z</time></trkpt><trkpt lat="44.3005248" lon="8.0778889"><ele>604.6666666666666</ele><time>2026-05-03T12:49:56.91Z</time></trkpt><trkpt lat="44.3004772" lon="8.0778091"><ele>606.0</ele><time>2026-05-03T12:49:57.925Z</time></trkpt><trkpt lat="44.300404" lon="8.0777572"><ele>607.3333333333334</ele><time>2026-05-03T12:49:58.897Z</time></trkpt><trkpt lat="44.3003029" lon="8.077696"><ele>608.6666666666667</ele><time>2026-05-03T12:49:59.899Z</time></trkpt><trkpt lat="44.3001944" lon="8.0776454"><ele>610.0</ele><time>2026-05-03T12:50:00.901Z</time></trkpt><trkpt lat="44.3000916" lon="8.0776013"><ele>610.0</ele><time>2026-05-03T12:50:01.904Z</time></trkpt><trkpt lat="44.2999921" lon="8.0775705"><ele>610.0</ele><time>2026-05-03T12:50:02.901Z</time></trkpt><trkpt lat="44.2998968" lon="8.0775552"><ele>610.0</ele><time>2026-05-03T12:50:03.899Z</time></trkpt><trkpt lat="44.2998064" lon="8.0775419"><ele>610.0</ele><time>2026-05-03T12:50:04.906Z</time></trkpt><trkpt lat="44.299722" lon="8.0775356"><ele>610.0</ele><time>2026-05-03T12:50:05.913Z</time></trkpt><trkpt lat="44.2996387" lon="8.0775303"><ele>608.1666666666667</ele><time>2026-05-03T12:50:06.904Z</time></trkpt><trkpt lat="44.2995619" lon="8.077531"><ele>606.3333333333334</ele><time>2026-05-03T12:50:07.903Z</time></trkpt><trkpt lat="44.2994894" lon="8.0775213"><ele>604.5</ele><time>2026-05-03T12:50:08.908Z</time></trkpt><trkpt lat="44.2994173" lon="8.0775006"><ele>602.6666666666666</ele><time>2026-05-03T12:50:09.903Z</time></trkpt><trkpt lat="44.2993417" lon="8.0774409"><ele>600.8333333333333</ele><time>2026-05-03T12:50:10.917Z</time></trkpt><trkpt lat="44.2992641" lon="8.0773641"><ele>599.0</ele><time>2026-05-03T12:50:11.908Z</time></trkpt><trkpt lat="44.2991902" lon="8.0772674"><ele>599.0</ele><time>2026-05-03T12:50:12.907Z</time></trkpt><trkpt lat="44.29912" lon="8.0771532"><ele>599.0</ele><time>2026-05-03T12:50:13.903Z</time></trkpt><trkpt lat="44.2990615" lon="8.0770393"><ele>599.0</ele><time>2026-05-03T12:50:14.909Z</time></trkpt><trkpt lat="44.299007" lon="8.0769299"><ele>599.0</ele><time>2026-05-03T12:50:15.908Z</time></trkpt><trkpt lat="44.2989455" lon="8.0768166"><ele>599.0</ele><time>2026-05-03T12:50:16.912Z</time></trkpt><trkpt lat="44.2988826" lon="8.0766988"><ele>592.8333333333333</ele><time>2026-05-03T12:50:17.906Z</time></trkpt><trkpt lat="44.2988333" lon="8.0765842"><ele>586.6666666666666</ele><time>2026-05-03T12:50:18.91Z</time></trkpt><trkpt lat="44.2987971" lon="8.076475"><ele>580.5</ele><time>2026-05-03T12:50:19.901Z</time></trkpt><trkpt lat="44.2987657" lon="8.0763522"><ele>574.3333333333334</ele><time>2026-05-03T12:50:20.914Z</time></trkpt><trkpt lat="44.2987474" lon="8.0762441"><ele>568.1666666666667</ele><time>2026-05-03T12:50:21.909Z</time></trkpt><trkpt lat="44.2987485" lon="8.0761194"><ele>562.0</ele><time>2026-05-03T12:50:22.919Z</time></trkpt><trkpt lat="44.298779" lon="8.0759891"><ele>562.0</ele><time>2026-05-03T12:50:23.911Z</time></trkpt><trkpt lat="44.2988227" lon="8.07587"><ele>562.0</ele><time>2026-05-03T12:50:24.917Z</time></trkpt><trkpt lat="44.2988664" lon="8.0757578"><ele>562.0</ele><time>2026-05-03T12:50:25.918Z</time></trkpt><trkpt lat="44.2989147" lon="8.0756395"><ele>562.0</ele><time>2026-05-03T12:50:26.907Z</time></trkpt><trkpt lat="44.2989677" lon="8.0755218"><ele>562.0</ele><time>2026-05-03T12:50:27.905Z</time></trkpt><trkpt lat="44.2990354" lon="8.0754128"><ele>563.8000000000001</ele><time>2026-05-03T12:50:28.911Z</time></trkpt><trkpt lat="44.2991129" lon="8.0753103"><ele>565.6</ele><time>2026-05-03T12:50:29.91Z</time></trkpt><trkpt lat="44.2991951" lon="8.0752152"><ele>567.4000000000001</ele><time>2026-05-03T12:50:30.905Z</time></trkpt><trkpt lat="44.2992739" lon="8.0751379"><ele>569.2</ele><time>2026-05-03T12:50:31.905Z</time></trkpt><trkpt lat="44.2993539" lon="8.0750731"><ele>571.0</ele><time>2026-05-03T12:50:32.905Z</time></trkpt><trkpt lat="44.2994392" lon="8.0750248"><ele>571.0</ele><time>2026-05-03T12:50:33.911Z</time></trkpt><trkpt lat="44.2995205" lon="8.0749983"><ele>571.0</ele><time>2026-05-03T12:50:34.913Z</time></trkpt><trkpt lat="44.299587" lon="8.0749739"><ele>571.0</ele><time>2026-05-03T12:50:35.909Z</time></trkpt><trkpt lat="44.2996538" lon="8.0749448"><ele>571.0</ele><time>2026-05-03T12:50:36.909Z</time></trkpt><trkpt lat="44.2997115" lon="8.0748804"><ele>571.0</ele><time>2026-05-03T12:50:37.908Z</time></trkpt><trkpt lat="44.2997453" lon="8.0747995"><ele>571.0</ele><time>2026-05-03T12:50:38.905Z</time></trkpt><trkpt lat="44.2997612" lon="8.0746913"><ele>571.0</ele><time>2026-05-03T12:50:39.904Z</time></trkpt><trkpt lat="44.2997682" lon="8.0745828"><ele>571.1666666666667</ele><time>2026-05-03T12:50:40.905Z</time></trkpt><trkpt lat="44.2997893" lon="8.0744736"><ele>571.3333333333334</ele><time>2026-05-03T12:50:41.901Z</time></trkpt><trkpt lat="44.2998134" lon="8.0743571"><ele>571.5</ele><time>2026-05-03T12:50:42.908Z</time></trkpt><trkpt lat="44.2998497" lon="8.0742641"><ele>571.6666666666666</ele><time>2026-05-03T12:50:43.903Z</time></trkpt><trkpt lat="44.2998841" lon="8.0741686"><ele>571.8333333333333</ele><time>2026-05-03T12:50:44.906Z</time></trkpt><trkpt lat="44.2999102" lon="8.0740536"><ele>572.0</ele><time>2026-05-03T12:50:45.9Z</time></trkpt><trkpt lat="44.2999162" lon="8.0739284"><ele>572.0</ele><time>2026-05-03T12:50:46.907Z</time></trkpt><trkpt lat="44.2998922" lon="8.0738162"><ele>572.0</ele><time>2026-05-03T12:50:47.922Z</time></trkpt><trkpt lat="44.2998613" lon="8.0736973"><ele>572.0</ele><time>2026-05-03T12:50:48.908Z</time></trkpt><trkpt lat="44.2998479" lon="8.073578"><ele>572.0</ele><time>2026-05-03T12:50:49.921Z</time></trkpt><trkpt lat="44.2998688" lon="8.0734581"><ele>572.0</ele><time>2026-05-03T12:50:50.906Z</time></trkpt><trkpt lat="44.2999081" lon="8.0733494"><ele>572.0</ele><time>2026-05-03T12:50:51.903Z</time></trkpt><trkpt lat="44.2999363" lon="8.0732376"><ele>570.6666666666666</ele><time>2026-05-03T12:50:52.905Z</time></trkpt><trkpt lat="44.2999557" lon="8.0731206"><ele>569.3333333333333</ele><time>2026-05-03T12:50:53.903Z</time></trkpt><trkpt lat="44.2999564" lon="8.0730075"><ele>568.0</ele><time>2026-05-03T12:50:54.926Z</time></trkpt><trkpt lat="44.2999546" lon="8.0728959"><ele>566.6666666666666</ele><time>2026-05-03T12:50:55.909Z</time></trkpt><trkpt lat="44.2999597" lon="8.0727879"><ele>565.3333333333334</ele><time>2026-05-03T12:50:56.908Z</time></trkpt><trkpt lat="44.2999683" lon="8.0726917"><ele>564.0</ele><time>2026-05-03T12:50:57.913Z</time></trkpt><trkpt lat="44.2999797" lon="8.0726014"><ele>564.0</ele><time>2026-05-03T12:50:58.91Z</time></trkpt><trkpt lat="44.2999987" lon="8.0724549"><ele>564.0</ele><time>2026-05-03T12:51:00.902Z</time></trkpt><trkpt lat="44.3000426" lon="8.0722851"><ele>564.0</ele><time>2026-05-03T12:51:02.907Z</time></trkpt><trkpt lat="44.3000729" lon="8.0721442"><ele>564.0</ele><time>2026-05-03T12:51:04.909Z</time></trkpt><trkpt lat="44.3000307" lon="8.0720365"><ele>564.0</ele><time>2026-05-03T12:51:06.908Z</time></trkpt><trkpt lat="44.2999366" lon="8.0721125"><ele>564.0</ele><time>2026-05-03T12:51:08.914Z</time></trkpt><trkpt lat="44.2999018" lon="8.0722321"><ele>564.0</ele><time>2026-05-03T12:51:09.905Z</time></trkpt><trkpt lat="44.2998592" lon="8.0724043"><ele>564.0</ele><time>2026-05-03T12:51:10.905Z</time></trkpt><trkpt lat="44.2998041" lon="8.0726117"><ele>564.0</ele><time>2026-05-03T12:51:11.906Z</time></trkpt><trkpt lat="44.2997487" lon="8.072787"><ele>559.25</ele><time>2026-05-03T12:51:12.906Z</time></trkpt><trkpt lat="44.2996915" lon="8.0729367"><ele>554.5</ele><time>2026-05-03T12:51:13.909Z</time></trkpt><trkpt lat="44.2996234" lon="8.0730781"><ele>549.75</ele><time>2026-05-03T12:51:14.913Z</time></trkpt><trkpt lat="44.2995603" lon="8.0732094"><ele>545.0</ele><time>2026-05-03T12:51:15.903Z</time></trkpt><trkpt lat="44.2995146" lon="8.073348"><ele>545.0</ele><time>2026-05-03T12:51:16.904Z</time></trkpt><trkpt lat="44.2994889" lon="8.0734996"><ele>545.0</ele><time>2026-05-03T12:51:17.912Z</time></trkpt><trkpt lat="44.2994702" lon="8.0736417"><ele>545.0</ele><time>2026-05-03T12:51:18.908Z</time></trkpt><trkpt lat="44.2994499" lon="8.0737693"><ele>545.0</ele><time>2026-05-03T12:51:19.912Z</time></trkpt><trkpt lat="44.2994182" lon="8.0738939"><ele>545.0</ele><time>2026-05-03T12:51:20.915Z</time></trkpt><trkpt lat="44.2993766" lon="8.0740122"><ele>546.5</ele><time>2026-05-03T12:51:21.911Z</time></trkpt><trkpt lat="44.2993247" lon="8.0741174"><ele>548.0</ele><time>2026-05-03T12:51:22.907Z</time></trkpt><trkpt lat="44.2992641" lon="8.0742081"><ele>549.5</ele><time>2026-05-03T12:51:23.914Z</time></trkpt><trkpt lat="44.2992036" lon="8.0742782"><ele>551.0</ele><time>2026-05-03T12:51:24.911Z</time></trkpt><trkpt lat="44.2991463" lon="8.0743361"><ele>552.5</ele><time>2026-05-03T12:51:25.91Z</time></trkpt><trkpt lat="44.2990652" lon="8.0744072"><ele>554.0</ele><time>2026-05-03T12:51:27.904Z</time></trkpt><trkpt lat="44.2990038" lon="8.0744568"><ele>554.0</ele><time>2026-05-03T12:51:29.905Z</time></trkpt><trkpt lat="44.2989323" lon="8.074511"><ele>554.0</ele><time>2026-05-03T12:51:31.903Z</time></trkpt><trkpt lat="44.2988534" lon="8.0745378"><ele>554.0</ele><time>2026-05-03T12:51:33.903Z</time></trkpt><trkpt lat="44.2987899" lon="8.0744195"><ele>554.0</ele><time>2026-05-03T12:51:35.911Z</time></trkpt><trkpt lat="44.2988636" lon="8.0742821"><ele>554.0</ele><time>2026-05-03T12:51:37.907Z</time></trkpt><trkpt lat="44.298928" lon="8.0742073"><ele>554.0</ele><time>2026-05-03T12:51:38.899Z</time></trkpt><trkpt lat="44.2989908" lon="8.0741107"><ele>554.0</ele><time>2026-05-03T12:51:39.905Z</time></trkpt><trkpt lat="44.2990447" lon="8.0740038"><ele>554.0</ele><time>2026-05-03T12:51:40.901Z</time></trkpt><trkpt lat="44.2990889" lon="8.073894"><ele>554.0</ele><time>2026-05-03T12:51:41.903Z</time></trkpt><trkpt lat="44.2991169" lon="8.0737743"><ele>554.0</ele><time>2026-05-03T12:51:42.901Z</time></trkpt><trkpt lat="44.2991317" lon="8.073656"><ele>552.2</ele><time>2026-05-03T12:51:43.914Z</time></trkpt><trkpt lat="44.2991335" lon="8.0735226"><ele>550.4</ele><time>2026-05-03T12:51:44.901Z</time></trkpt><trkpt lat="44.2991275" lon="8.0733952"><ele>548.6</ele><time>2026-05-03T12:51:45.906Z</time></trkpt><trkpt lat="44.2991248" lon="8.0732711"><ele>546.8</ele><time>2026-05-03T12:51:46.902Z</time></trkpt><trkpt lat="44.2991182" lon="8.0731437"><ele>545.0</ele><time>2026-05-03T12:51:47.906Z</time></trkpt><trkpt lat="44.2991138" lon="8.0730103"><ele>544.2</ele><time>2026-05-03T12:51:48.906Z</time></trkpt><trkpt lat="44.2991137" lon="8.0728687"><ele>543.4</ele><time>2026-05-03T12:51:49.905Z</time></trkpt><trkpt lat="44.2991138" lon="8.0727259"><ele>542.6</ele><time>2026-05-03T12:51:50.911Z</time></trkpt><trkpt lat="44.2991133" lon="8.0725859"><ele>541.8</ele><time>2026-05-03T12:51:51.899Z</time></trkpt><trkpt lat="44.2991089" lon="8.0724371"><ele>541.0</ele><time>2026-05-03T12:51:52.907Z</time></trkpt><trkpt lat="44.2991022" lon="8.0722871"><ele>539.8</ele><time>2026-05-03T12:51:53.902Z</time></trkpt><trkpt lat="44.2990973" lon="8.0721274"><ele>538.6</ele><time>2026-05-03T12:51:54.91Z</time></trkpt><trkpt lat="44.2990933" lon="8.0719732"><ele>537.4</ele><time>2026-05-03T12:51:55.9Z</time></trkpt><trkpt lat="44.2990896" lon="8.0718394"><ele>536.2</ele><time>2026-05-03T12:51:56.903Z</time></trkpt><trkpt lat="44.2990858" lon="8.0717173"><ele>535.0</ele><time>2026-05-03T12:51:57.92Z</time></trkpt><trkpt lat="44.2990807" lon="8.0716007"><ele>534.6</ele><time>2026-05-03T12:51:58.903Z</time></trkpt><trkpt lat="44.2990734" lon="8.0714805"><ele>534.2</ele><time>2026-05-03T12:51:59.914Z</time></trkpt><trkpt lat="44.2990672" lon="8.0713539"><ele>533.8</ele><time>2026-05-03T12:52:00.903Z</time></trkpt><trkpt lat="44.2990532" lon="8.0711993"><ele>533.4</ele><time>2026-05-03T12:52:01.901Z</time></trkpt><trkpt lat="44.2990422" lon="8.0710434"><ele>533.0</ele><time>2026-05-03T12:52:02.912Z</time></trkpt><trkpt lat="44.2990437" lon="8.070914"><ele>533.0</ele><time>2026-05-03T12:52:03.901Z</time></trkpt><trkpt lat="44.2990462" lon="8.0707986"><ele>533.0</ele><time>2026-05-03T12:52:04.898Z</time></trkpt><trkpt lat="44.299041" lon="8.0706978"><ele>533.0</ele><time>2026-05-03T12:52:05.909Z</time></trkpt><trkpt lat="44.2990329" lon="8.0705994"><ele>533.0</ele><time>2026-05-03T12:52:06.905Z</time></trkpt><trkpt lat="44.299032" lon="8.0705091"><ele>533.0</ele><time>2026-05-03T12:52:07.909Z</time></trkpt><trkpt lat="44.2990238" lon="8.0704213"><ele>533.0</ele><time>2026-05-03T12:52:08.907Z</time></trkpt><trkpt lat="44.299018" lon="8.0703175"><ele>533.0</ele><time>2026-05-03T12:52:09.913Z</time></trkpt><trkpt lat="44.2990139" lon="8.0701998"><ele>532.8333333333333</ele><time>2026-05-03T12:52:10.91Z</time></trkpt><trkpt lat="44.2990072" lon="8.0700888"><ele>532.6666666666666</ele><time>2026-05-03T12:52:11.903Z</time></trkpt><trkpt lat="44.2990056" lon="8.0699804"><ele>532.5</ele><time>2026-05-03T12:52:12.905Z</time></trkpt><trkpt lat="44.2990075" lon="8.069882"><ele>532.3333333333334</ele><time>2026-05-03T12:52:13.911Z</time></trkpt><trkpt lat="44.2990074" lon="8.0697681"><ele>532.1666666666667</ele><time>2026-05-03T12:52:14.91Z</time></trkpt><trkpt lat="44.2990045" lon="8.0696501"><ele>532.0</ele><time>2026-05-03T12:52:15.914Z</time></trkpt><trkpt lat="44.2990024" lon="8.0695311"><ele>530.75</ele><time>2026-05-03T12:52:16.909Z</time></trkpt><trkpt lat="44.2990139" lon="8.0694031"><ele>529.5</ele><time>2026-05-03T12:52:17.909Z</time></trkpt><trkpt lat="44.2990403" lon="8.0692592"><ele>528.25</ele><time>2026-05-03T12:52:18.911Z</time></trkpt><trkpt lat="44.2990798" lon="8.0690846"><ele>527.0</ele><time>2026-05-03T12:52:19.904Z</time></trkpt><trkpt lat="44.2991475" lon="8.0688582"><ele>526.0</ele><time>2026-05-03T12:52:20.903Z</time></trkpt><trkpt lat="44.2992459" lon="8.0685891"><ele>525.0</ele><time>2026-05-03T12:52:21.916Z</time></trkpt><trkpt lat="44.2993493" lon="8.0683358"><ele>524.0</ele><time>2026-05-03T12:52:22.905Z</time></trkpt><trkpt lat="44.299445" lon="8.0681058"><ele>523.3333333333333</ele><time>2026-05-03T12:52:23.912Z</time></trkpt><trkpt lat="44.2995284" lon="8.0678985"><ele>522.6666666666666</ele><time>2026-05-03T12:52:24.906Z</time></trkpt><trkpt lat="44.2996122" lon="8.0676883"><ele>522.0</ele><time>2026-05-03T12:52:25.915Z</time></trkpt><trkpt lat="44.2997023" lon="8.0674609"><ele>523.3333333333334</ele><time>2026-05-03T12:52:26.918Z</time></trkpt><trkpt lat="44.2997893" lon="8.0672464"><ele>524.6666666666667</ele><time>2026-05-03T12:52:27.917Z</time></trkpt><trkpt lat="44.2998683" lon="8.067056"><ele>526.0</ele><time>2026-05-03T12:52:28.906Z</time></trkpt><trkpt lat="44.2999387" lon="8.066886"><ele>526.0</ele><time>2026-05-03T12:52:29.908Z</time></trkpt><trkpt lat="44.3000046" lon="8.0667237"><ele>526.0</ele><time>2026-05-03T12:52:30.907Z</time></trkpt><trkpt lat="44.3000701" lon="8.0665493"><ele>526.0</ele><time>2026-05-03T12:52:31.906Z</time></trkpt><trkpt lat="44.3001417" lon="8.0663473"><ele>526.0</ele><time>2026-05-03T12:52:32.908Z</time></trkpt><trkpt lat="44.300234" lon="8.0661097"><ele>524.0</ele><time>2026-05-03T12:52:33.921Z</time></trkpt><trkpt lat="44.3003359" lon="8.0658258"><ele>522.0</ele><time>2026-05-03T12:52:34.917Z</time></trkpt><trkpt lat="44.3004343" lon="8.0655535"><ele>520.0</ele><time>2026-05-03T12:52:35.917Z</time></trkpt><trkpt lat="44.3005233" lon="8.0653068"><ele>519.3333333333334</ele><time>2026-05-03T12:52:36.914Z</time></trkpt><trkpt lat="44.3006091" lon="8.0650819"><ele>518.6666666666666</ele><time>2026-05-03T12:52:37.914Z</time></trkpt><trkpt lat="44.3006904" lon="8.0648619"><ele>518.0</ele><time>2026-05-03T12:52:38.915Z</time></trkpt><trkpt lat="44.3007702" lon="8.0646211"><ele>518.0</ele><time>2026-05-03T12:52:39.904Z</time></trkpt><trkpt lat="44.3008509" lon="8.0643554"><ele>518.0</ele><time>2026-05-03T12:52:40.913Z</time></trkpt><trkpt lat="44.3009294" lon="8.0640863"><ele>518.0</ele><time>2026-05-03T12:52:41.906Z</time></trkpt><trkpt lat="44.3010085" lon="8.0638311"><ele>516.0</ele><time>2026-05-03T12:52:42.907Z</time></trkpt><trkpt lat="44.3010836" lon="8.0635943"><ele>514.0</ele><time>2026-05-03T12:52:43.909Z</time></trkpt><trkpt lat="44.301152" lon="8.0633656"><ele>512.0</ele><time>2026-05-03T12:52:44.925Z</time></trkpt><trkpt lat="44.3012183" lon="8.0631391"><ele>511.0</ele><time>2026-05-03T12:52:45.915Z</time></trkpt><trkpt lat="44.3012933" lon="8.0629142"><ele>510.0</ele><time>2026-05-03T12:52:46.919Z</time></trkpt><trkpt lat="44.3013774" lon="8.0626905"><ele>509.0</ele><time>2026-05-03T12:52:47.911Z</time></trkpt><trkpt lat="44.3014726" lon="8.0624628"><ele>509.66666666666663</ele><time>2026-05-03T12:52:48.907Z</time></trkpt><trkpt lat="44.3015745" lon="8.0622383"><ele>510.33333333333337</ele><time>2026-05-03T12:52:49.891Z</time></trkpt><trkpt lat="44.30168" lon="8.0620218"><ele>511.0</ele><time>2026-05-03T12:52:50.907Z</time></trkpt><trkpt lat="44.3017886" lon="8.0617954"><ele>508.6666666666667</ele><time>2026-05-03T12:52:51.913Z</time></trkpt><trkpt lat="44.3019026" lon="8.061559"><ele>506.33333333333337</ele><time>2026-05-03T12:52:52.91Z</time></trkpt><trkpt lat="44.3020211" lon="8.0613142"><ele>504.0</ele><time>2026-05-03T12:52:53.924Z</time></trkpt><trkpt lat="44.3021328" lon="8.0610679"><ele>504.66666666666663</ele><time>2026-05-03T12:52:54.912Z</time></trkpt><trkpt lat="44.3022512" lon="8.0608186"><ele>505.3333333333333</ele><time>2026-05-03T12:52:55.909Z</time></trkpt><trkpt lat="44.3023678" lon="8.0605634"><ele>506.0</ele><time>2026-05-03T12:52:56.915Z</time></trkpt><trkpt lat="44.3024797" lon="8.0603194"><ele>506.0</ele><time>2026-05-03T12:52:57.911Z</time></trkpt><trkpt lat="44.3025967" lon="8.0600815"><ele>506.0</ele><time>2026-05-03T12:52:58.912Z</time></trkpt><trkpt lat="44.302716" lon="8.0598386"><ele>506.0</ele><time>2026-05-03T12:52:59.908Z</time></trkpt><trkpt lat="44.3028303" lon="8.0595973"><ele>504.0</ele><time>2026-05-03T12:53:00.906Z</time></trkpt><trkpt lat="44.3029436" lon="8.0593488"><ele>502.0</ele><time>2026-05-03T12:53:01.904Z</time></trkpt><trkpt lat="44.3030616" lon="8.059108"><ele>500.0</ele><time>2026-05-03T12:53:02.908Z</time></trkpt><trkpt lat="44.3031965" lon="8.0588786"><ele>499.3333333333333</ele><time>2026-05-03T12:53:03.91Z</time></trkpt><trkpt lat="44.3033423" lon="8.0586656"><ele>498.66666666666663</ele><time>2026-05-03T12:53:04.909Z</time></trkpt><trkpt lat="44.3034906" lon="8.0584578"><ele>498.0</ele><time>2026-05-03T12:53:05.924Z</time></trkpt><trkpt lat="44.3036334" lon="8.0582589"><ele>497.66666666666663</ele><time>2026-05-03T12:53:06.911Z</time></trkpt><trkpt lat="44.3037716" lon="8.0580602"><ele>497.3333333333333</ele><time>2026-05-03T12:53:07.912Z</time></trkpt><trkpt lat="44.3039117" lon="8.0578636"><ele>497.0</ele><time>2026-05-03T12:53:08.916Z</time></trkpt><trkpt lat="44.3040546" lon="8.0576677"><ele>497.0</ele><time>2026-05-03T12:53:09.914Z</time></trkpt><trkpt lat="44.3042031" lon="8.05747"><ele>497.0</ele><time>2026-05-03T12:53:10.92Z</time></trkpt><trkpt lat="44.3043516" lon="8.0572663"><ele>497.0</ele><time>2026-05-03T12:53:11.913Z</time></trkpt><trkpt lat="44.3044948" lon="8.0570665"><ele>497.0</ele><time>2026-05-03T12:53:12.914Z</time></trkpt><trkpt lat="44.3046396" lon="8.0568681"><ele>497.0</ele><time>2026-05-03T12:53:13.915Z</time></trkpt><trkpt lat="44.3047797" lon="8.0566759"><ele>497.0</ele><time>2026-05-03T12:53:14.91Z</time></trkpt><trkpt lat="44.3049127" lon="8.0564993"><ele>493.66666666666663</ele><time>2026-05-03T12:53:15.914Z</time></trkpt><trkpt lat="44.3050482" lon="8.0563418"><ele>490.33333333333337</ele><time>2026-05-03T12:53:16.918Z</time></trkpt><trkpt lat="44.3051937" lon="8.0562215"><ele>487.0</ele><time>2026-05-03T12:53:17.915Z</time></trkpt><trkpt lat="44.3053447" lon="8.056125"><ele>487.0</ele><time>2026-05-03T12:53:18.915Z</time></trkpt><trkpt lat="44.3055047" lon="8.0560339"><ele>487.0</ele><time>2026-05-03T12:53:19.916Z</time></trkpt><trkpt lat="44.3056647" lon="8.0559368"><ele>487.0</ele><time>2026-05-03T12:53:20.915Z</time></trkpt><trkpt lat="44.305828" lon="8.0558445"><ele>484.33333333333337</ele><time>2026-05-03T12:53:21.914Z</time></trkpt><trkpt lat="44.3059984" lon="8.0557482"><ele>481.66666666666663</ele><time>2026-05-03T12:53:22.915Z</time></trkpt><trkpt lat="44.3061606" lon="8.0556496"><ele>479.0</ele><time>2026-05-03T12:53:23.912Z</time></trkpt><trkpt lat="44.3063183" lon="8.0555534"><ele>480.0</ele><time>2026-05-03T12:53:24.915Z</time></trkpt><trkpt lat="44.3064735" lon="8.0554632"><ele>481.0</ele><time>2026-05-03T12:53:25.915Z</time></trkpt><trkpt lat="44.3066259" lon="8.0553719"><ele>482.0</ele><time>2026-05-03T12:53:26.919Z</time></trkpt><trkpt lat="44.3067728" lon="8.0552854"><ele>482.0</ele><time>2026-05-03T12:53:27.914Z</time></trkpt><trkpt lat="44.3069165" lon="8.0552046"><ele>482.0</ele><time>2026-05-03T12:53:28.917Z</time></trkpt><trkpt lat="44.3070571" lon="8.055137"><ele>482.0</ele><time>2026-05-03T12:53:29.914Z</time></trkpt><trkpt lat="44.3071881" lon="8.0550671"><ele>482.0</ele><time>2026-05-03T12:53:30.922Z</time></trkpt><trkpt lat="44.307298" lon="8.0549828"><ele>480.5</ele><time>2026-05-03T12:53:31.914Z</time></trkpt><trkpt lat="44.3073735" lon="8.0548543"><ele>479.0</ele><time>2026-05-03T12:53:32.915Z</time></trkpt><trkpt lat="44.3074286" lon="8.0547014"><ele>477.5</ele><time>2026-05-03T12:53:33.908Z</time></trkpt><trkpt lat="44.3074483" lon="8.0545128"><ele>476.0</ele><time>2026-05-03T12:53:34.915Z</time></trkpt><trkpt lat="44.3074494" lon="8.0543073"><ele>475.75</ele><time>2026-05-03T12:53:35.91Z</time></trkpt><trkpt lat="44.3074533" lon="8.054112"><ele>475.5</ele><time>2026-05-03T12:53:36.914Z</time></trkpt><trkpt lat="44.3074552" lon="8.053917"><ele>475.25</ele><time>2026-05-03T12:53:37.929Z</time></trkpt><trkpt lat="44.3074602" lon="8.05375"><ele>475.0</ele><time>2026-05-03T12:53:38.916Z</time></trkpt><trkpt lat="44.3074677" lon="8.0535958"><ele>475.0</ele><time>2026-05-03T12:53:39.917Z</time></trkpt><trkpt lat="44.307468" lon="8.0534311"><ele>475.0</ele><time>2026-05-03T12:53:40.917Z</time></trkpt><trkpt lat="44.3074712" lon="8.0532539"><ele>475.0</ele><time>2026-05-03T12:53:41.914Z</time></trkpt><trkpt lat="44.3074687" lon="8.0530644"><ele>475.0</ele><time>2026-05-03T12:53:42.911Z</time></trkpt><trkpt lat="44.3074656" lon="8.0528614"><ele>475.75</ele><time>2026-05-03T12:53:43.908Z</time></trkpt><trkpt lat="44.3074591" lon="8.0526455"><ele>476.5</ele><time>2026-05-03T12:53:44.915Z</time></trkpt><trkpt lat="44.3074445" lon="8.0524355"><ele>477.25</ele><time>2026-05-03T12:53:45.916Z</time></trkpt><trkpt lat="44.3074121" lon="8.0522494"><ele>478.0</ele><time>2026-05-03T12:53:46.918Z</time></trkpt><trkpt lat="44.3073565" lon="8.0521028"><ele>478.0</ele><time>2026-05-03T12:53:47.907Z</time></trkpt><trkpt lat="44.3072813" lon="8.0519627"><ele>477.99999999999994</ele><time>2026-05-03T12:53:48.926Z</time></trkpt><trkpt lat="44.3072072" lon="8.0518504"><ele>477.99999999999994</ele><time>2026-05-03T12:53:49.912Z</time></trkpt><trkpt lat="44.3071447" lon="8.0517477"><ele>478.0</ele><time>2026-05-03T12:53:50.913Z</time></trkpt><trkpt lat="44.3070989" lon="8.051655"><ele>478.0</ele><time>2026-05-03T12:53:51.905Z</time></trkpt><trkpt lat="44.3070545" lon="8.0515406"><ele>478.2</ele><time>2026-05-03T12:53:53.911Z</time></trkpt><trkpt lat="44.307036" lon="8.051451"><ele>478.4</ele><time>2026-05-03T12:53:59.911Z</time></trkpt><trkpt lat="44.3070032" lon="8.0512525"><ele>478.59999999999997</ele><time>2026-05-03T12:54:01.909Z</time></trkpt><trkpt lat="44.3070032" lon="8.0511061"><ele>478.79999999999995</ele><time>2026-05-03T12:54:02.909Z</time></trkpt><trkpt lat="44.3070091" lon="8.0509342"><ele>479.0</ele><time>2026-05-03T12:54:03.911Z</time></trkpt><trkpt lat="44.3070455" lon="8.0505571"><ele>479.3333333333333</ele><time>2026-05-03T12:54:05.918Z</time></trkpt><trkpt lat="44.3070607" lon="8.0503553"><ele>479.66666666666663</ele><time>2026-05-03T12:54:06.914Z</time></trkpt><trkpt lat="44.3070757" lon="8.0501315"><ele>480.0</ele><time>2026-05-03T12:54:07.91Z</time></trkpt><trkpt lat="44.3070972" lon="8.0499032"><ele>480.33333333333337</ele><time>2026-05-03T12:54:08.914Z</time></trkpt><trkpt lat="44.3071191" lon="8.0496718"><ele>480.6666666666667</ele><time>2026-05-03T12:54:09.914Z</time></trkpt><trkpt lat="44.3071375" lon="8.0494521"><ele>481.0</ele><time>2026-05-03T12:54:10.911Z</time></trkpt><trkpt lat="44.3071521" lon="8.0492409"><ele>481.5</ele><time>2026-05-03T12:54:11.925Z</time></trkpt><trkpt lat="44.3071681" lon="8.0490384"><ele>482.0</ele><time>2026-05-03T12:54:12.91Z</time></trkpt><trkpt lat="44.3071802" lon="8.0488525"><ele>482.5</ele><time>2026-05-03T12:54:13.915Z</time></trkpt><trkpt lat="44.3071844" lon="8.0486772"><ele>483.0</ele><time>2026-05-03T12:54:14.91Z</time></trkpt><trkpt lat="44.3071897" lon="8.0484996"><ele>483.0</ele><time>2026-05-03T12:54:15.915Z</time></trkpt><trkpt lat="44.307194" lon="8.0483229"><ele>483.0</ele><time>2026-05-03T12:54:16.917Z</time></trkpt><trkpt lat="44.3071987" lon="8.0481515"><ele>483.0</ele><time>2026-05-03T12:54:17.919Z</time></trkpt><trkpt lat="44.3072031" lon="8.0479879"><ele>483.0</ele><time>2026-05-03T12:54:18.916Z</time></trkpt><trkpt lat="44.307207" lon="8.0478395"><ele>483.0</ele><time>2026-05-03T12:54:19.918Z</time></trkpt><trkpt lat="44.3072094" lon="8.0476988"><ele>483.0</ele><time>2026-05-03T12:54:20.911Z</time></trkpt><trkpt lat="44.3072174" lon="8.0475851"><ele>483.0</ele><time>2026-05-03T12:54:21.91Z</time></trkpt><trkpt lat="44.307227" lon="8.0474843"><ele>483.0</ele><time>2026-05-03T12:54:22.909Z</time></trkpt><trkpt lat="44.3072387" lon="8.047337"><ele>483.0</ele><time>2026-05-03T12:54:24.909Z</time></trkpt><trkpt lat="44.3072378" lon="8.0472182"><ele>483.0</ele><time>2026-05-03T12:54:26.914Z</time></trkpt><trkpt lat="44.3072455" lon="8.047101"><ele>483.5</ele><time>2026-05-03T12:54:28.915Z</time></trkpt><trkpt lat="44.3072492" lon="8.0469553"><ele>484.0</ele><time>2026-05-03T12:54:30.91Z</time></trkpt><trkpt lat="44.3072456" lon="8.046856"><ele>484.5</ele><time>2026-05-03T12:54:32.911Z</time></trkpt><trkpt lat="44.3072464" lon="8.0467408"><ele>485.0</ele><time>2026-05-03T12:54:40.914Z</time></trkpt><trkpt lat="44.3072676" lon="8.0466245"><ele>485.5</ele><time>2026-05-03T12:54:42.913Z</time></trkpt><trkpt lat="44.3072807" lon="8.0465322"><ele>486.0</ele><time>2026-05-03T12:54:44.914Z</time></trkpt><trkpt lat="44.3072809" lon="8.046439"><ele>486.8</ele><time>2026-05-03T12:54:46.91Z</time></trkpt><trkpt lat="44.3072923" lon="8.0463437"><ele>487.6</ele><time>2026-05-03T12:54:49.913Z</time></trkpt><trkpt lat="44.3074072" lon="8.0463352"><ele>488.4</ele><time>2026-05-03T12:54:52.908Z</time></trkpt><trkpt lat="44.3074877" lon="8.0463657"><ele>489.2</ele><time>2026-05-03T12:54:53.914Z</time></trkpt><trkpt lat="44.3075666" lon="8.0464054"><ele>490.0</ele><time>2026-05-03T12:54:54.909Z</time></trkpt><trkpt lat="44.3076659" lon="8.0464348"><ele>490.0</ele><time>2026-05-03T12:54:55.918Z</time></trkpt><trkpt lat="44.3077706" lon="8.0464795"><ele>490.0</ele><time>2026-05-03T12:54:56.909Z</time></trkpt><trkpt lat="44.3078707" lon="8.0465301"><ele>490.0</ele><time>2026-05-03T12:54:57.908Z</time></trkpt><trkpt lat="44.3079683" lon="8.0465712"><ele>490.0</ele><time>2026-05-03T12:54:58.908Z</time></trkpt><trkpt lat="44.3080716" lon="8.0466164"><ele>490.0</ele><time>2026-05-03T12:54:59.91Z</time></trkpt><trkpt lat="44.3081843" lon="8.0466653"><ele>488.75</ele><time>2026-05-03T12:55:00.9Z</time></trkpt><trkpt lat="44.308297" lon="8.046708"><ele>487.5</ele><time>2026-05-03T12:55:01.907Z</time></trkpt><trkpt lat="44.3084077" lon="8.046757"><ele>486.25</ele><time>2026-05-03T12:55:02.901Z</time></trkpt><trkpt lat="44.3085181" lon="8.0468008"><ele>485.0</ele><time>2026-05-03T12:55:03.912Z</time></trkpt><trkpt lat="44.3086244" lon="8.0468367"><ele>484.99999999999994</ele><time>2026-05-03T12:55:04.915Z</time></trkpt><trkpt lat="44.3087131" lon="8.0468726"><ele>485.0</ele><time>2026-05-03T12:55:05.907Z</time></trkpt><trkpt lat="44.3087902" lon="8.0468958"><ele>485.0</ele><time>2026-05-03T12:55:06.901Z</time></trkpt><trkpt lat="44.3088578" lon="8.0469135"><ele>485.0</ele><time>2026-05-03T12:55:07.901Z</time></trkpt><trkpt lat="44.3089489" lon="8.0469109"><ele>484.99999999999994</ele><time>2026-05-03T12:55:09.903Z</time></trkpt><trkpt lat="44.3090016" lon="8.0468507"><ele>485.0</ele><time>2026-05-03T12:55:11.91Z</time></trkpt><trkpt lat="44.3090162" lon="8.0467581"><ele>486.0</ele><time>2026-05-03T12:55:14.903Z</time></trkpt><trkpt lat="44.3090349" lon="8.0465986"><ele>487.0</ele><time>2026-05-03T12:55:17.906Z</time></trkpt><trkpt lat="44.3090475" lon="8.0464569"><ele>488.0</ele><time>2026-05-03T12:55:18.915Z</time></trkpt><trkpt lat="44.309057" lon="8.0462959"><ele>489.0</ele><time>2026-05-03T12:55:19.9Z</time></trkpt><trkpt lat="44.3090669" lon="8.0461239"><ele>489.0</ele><time>2026-05-03T12:55:20.908Z</time></trkpt><trkpt lat="44.3090734" lon="8.0459355"><ele>489.0</ele><time>2026-05-03T12:55:21.899Z</time></trkpt><trkpt lat="44.3090761" lon="8.0457403"><ele>489.0</ele><time>2026-05-03T12:55:22.909Z</time></trkpt><trkpt lat="44.3090791" lon="8.0455464"><ele>489.0</ele><time>2026-05-03T12:55:23.907Z</time></trkpt><trkpt lat="44.3091008" lon="8.0453802"><ele>492.5</ele><time>2026-05-03T12:55:24.905Z</time></trkpt><trkpt lat="44.3091454" lon="8.0452332"><ele>496.0</ele><time>2026-05-03T12:55:25.903Z</time></trkpt><trkpt lat="44.3092145" lon="8.0451226"><ele>499.5</ele><time>2026-05-03T12:55:26.914Z</time></trkpt><trkpt lat="44.3093223" lon="8.0450877"><ele>503.0</ele><time>2026-05-03T12:55:27.902Z</time></trkpt><trkpt lat="44.3094473" lon="8.0451053"><ele>503.0</ele><time>2026-05-03T12:55:28.907Z</time></trkpt><trkpt lat="44.3095774" lon="8.0451733"><ele>503.0</ele><time>2026-05-03T12:55:29.91Z</time></trkpt><trkpt lat="44.3097087" lon="8.0452598"><ele>503.0</ele><time>2026-05-03T12:55:30.907Z</time></trkpt><trkpt lat="44.3098493" lon="8.0453579"><ele>503.0</ele><time>2026-05-03T12:55:31.912Z</time></trkpt><trkpt lat="44.309993" lon="8.0454585"><ele>509.66666666666663</ele><time>2026-05-03T12:55:32.906Z</time></trkpt><trkpt lat="44.3101476" lon="8.0455482"><ele>516.3333333333334</ele><time>2026-05-03T12:55:33.903Z</time></trkpt><trkpt lat="44.3103128" lon="8.0456215"><ele>523.0</ele><time>2026-05-03T12:55:34.899Z</time></trkpt><trkpt lat="44.3104849" lon="8.0456863"><ele>528.6666666666667</ele><time>2026-05-03T12:55:35.911Z</time></trkpt><trkpt lat="44.3106535" lon="8.045735"><ele>534.3333333333334</ele><time>2026-05-03T12:55:36.901Z</time></trkpt><trkpt lat="44.3108128" lon="8.0457713"><ele>540.0</ele><time>2026-05-03T12:55:37.901Z</time></trkpt><trkpt lat="44.3109854" lon="8.045779"><ele>540.0</ele><time>2026-05-03T12:55:38.896Z</time></trkpt><trkpt lat="44.3111688" lon="8.0457602"><ele>540.0</ele><time>2026-05-03T12:55:39.899Z</time></trkpt><trkpt lat="44.3113647" lon="8.0457357"><ele>540.0</ele><time>2026-05-03T12:55:40.91Z</time></trkpt><trkpt lat="44.3115651" lon="8.0457107"><ele>541.6666666666666</ele><time>2026-05-03T12:55:41.896Z</time></trkpt><trkpt lat="44.3117653" lon="8.0456864"><ele>543.3333333333333</ele><time>2026-05-03T12:55:42.903Z</time></trkpt><trkpt lat="44.3119706" lon="8.0456582"><ele>545.0</ele><time>2026-05-03T12:55:43.897Z</time></trkpt><trkpt lat="44.3121809" lon="8.0456274"><ele>546.3333333333333</ele><time>2026-05-03T12:55:44.903Z</time></trkpt><trkpt lat="44.3123946" lon="8.0456143"><ele>547.6666666666666</ele><time>2026-05-03T12:55:45.901Z</time></trkpt><trkpt lat="44.3126099" lon="8.0456189"><ele>549.0</ele><time>2026-05-03T12:55:46.895Z</time></trkpt><trkpt lat="44.3128288" lon="8.04564"><ele>549.0</ele><time>2026-05-03T12:55:47.899Z</time></trkpt><trkpt lat="44.3130489" lon="8.0456571"><ele>549.0</ele><time>2026-05-03T12:55:48.894Z</time></trkpt><trkpt lat="44.3132668" lon="8.0456748"><ele>549.0</ele><time>2026-05-03T12:55:49.902Z</time></trkpt><trkpt lat="44.3134849" lon="8.0456942"><ele>549.0</ele><time>2026-05-03T12:55:50.904Z</time></trkpt><trkpt lat="44.3137005" lon="8.0457145"><ele>549.0</ele><time>2026-05-03T12:55:51.9Z</time></trkpt><trkpt lat="44.313903" lon="8.0457375"><ele>549.0</ele><time>2026-05-03T12:55:52.902Z</time></trkpt><trkpt lat="44.3140887" lon="8.045753"><ele>549.0</ele><time>2026-05-03T12:55:53.906Z</time></trkpt><trkpt lat="44.3142575" lon="8.0457565"><ele>549.0</ele><time>2026-05-03T12:55:54.904Z</time></trkpt><trkpt lat="44.3144149" lon="8.0457492"><ele>549.0</ele><time>2026-05-03T12:55:55.913Z</time></trkpt><trkpt lat="44.3145535" lon="8.045718"><ele>549.0</ele><time>2026-05-03T12:55:56.913Z</time></trkpt><trkpt lat="44.3146645" lon="8.0456835"><ele>549.0</ele><time>2026-05-03T12:55:57.905Z</time></trkpt><trkpt lat="44.3147409" lon="8.0456264"><ele>549.0</ele><time>2026-05-03T12:55:58.916Z</time></trkpt><trkpt lat="44.314793" lon="8.0455434"><ele>549.0</ele><time>2026-05-03T12:55:59.905Z</time></trkpt><trkpt lat="44.3147338" lon="8.0454061"><ele>549.0</ele><time>2026-05-03T12:56:01.912Z</time></trkpt><trkpt lat="44.3146547" lon="8.0454028"><ele>549.0</ele><time>2026-05-03T12:56:02.921Z</time></trkpt><trkpt lat="44.3145429" lon="8.0453925"><ele>549.0</ele><time>2026-05-03T12:56:03.905Z</time></trkpt><trkpt lat="44.3144285" lon="8.0453786"><ele>549.0</ele><time>2026-05-03T12:56:04.911Z</time></trkpt><trkpt lat="44.3143089" lon="8.0453404"><ele>549.0</ele><time>2026-05-03T12:56:05.908Z</time></trkpt><trkpt lat="44.3141678" lon="8.0452797"><ele>549.0</ele><time>2026-05-03T12:56:06.907Z</time></trkpt><trkpt lat="44.3140255" lon="8.0452101"><ele>549.0</ele><time>2026-05-03T12:56:07.903Z</time></trkpt><trkpt lat="44.3138779" lon="8.0451214"><ele>549.0</ele><time>2026-05-03T12:56:08.913Z</time></trkpt><trkpt lat="44.3137253" lon="8.045029"><ele>559.0</ele><time>2026-05-03T12:56:09.905Z</time></trkpt><trkpt lat="44.3135542" lon="8.0449572"><ele>569.0</ele><time>2026-05-03T12:56:10.911Z</time></trkpt><trkpt lat="44.3133731" lon="8.0449043"><ele>579.0</ele><time>2026-05-03T12:56:11.907Z</time></trkpt><trkpt lat="44.3131848" lon="8.0448596"><ele>578.6666666666666</ele><time>2026-05-03T12:56:12.907Z</time></trkpt><trkpt lat="44.3129934" lon="8.0448046"><ele>578.3333333333333</ele><time>2026-05-03T12:56:13.909Z</time></trkpt><trkpt lat="44.3127993" lon="8.044734"><ele>578.0</ele><time>2026-05-03T12:56:14.908Z</time></trkpt><trkpt lat="44.3126058" lon="8.0446515"><ele>578.0</ele><time>2026-05-03T12:56:15.905Z</time></trkpt><trkpt lat="44.3124145" lon="8.0445716"><ele>578.0</ele><time>2026-05-03T12:56:16.908Z</time></trkpt><trkpt lat="44.3122212" lon="8.0445094"><ele>578.0</ele><time>2026-05-03T12:56:17.9Z</time></trkpt><trkpt lat="44.3120216" lon="8.0444675"><ele>576.3333333333333</ele><time>2026-05-03T12:56:18.904Z</time></trkpt><trkpt lat="44.311819" lon="8.0444315"><ele>574.6666666666666</ele><time>2026-05-03T12:56:19.903Z</time></trkpt><trkpt lat="44.3116195" lon="8.0443971"><ele>573.0</ele><time>2026-05-03T12:56:20.913Z</time></trkpt><trkpt lat="44.3114504" lon="8.0443795"><ele>571.25</ele><time>2026-05-03T12:56:21.905Z</time></trkpt><trkpt lat="44.3113067" lon="8.0443394"><ele>569.5</ele><time>2026-05-03T12:56:22.913Z</time></trkpt><trkpt lat="44.3111806" lon="8.0442563"><ele>567.75</ele><time>2026-05-03T12:56:23.913Z</time></trkpt><trkpt lat="44.3110646" lon="8.0441544"><ele>566.0</ele><time>2026-05-03T12:56:24.91Z</time></trkpt><trkpt lat="44.3109555" lon="8.0440348"><ele>569.75</ele><time>2026-05-03T12:56:25.908Z</time></trkpt><trkpt lat="44.3108483" lon="8.0439268"><ele>573.5</ele><time>2026-05-03T12:56:26.906Z</time></trkpt><trkpt lat="44.3107515" lon="8.0437961"><ele>577.25</ele><time>2026-05-03T12:56:27.905Z</time></trkpt><trkpt lat="44.3106754" lon="8.0436329"><ele>581.0</ele><time>2026-05-03T12:56:28.913Z</time></trkpt><trkpt lat="44.3106479" lon="8.0434409"><ele>585.0</ele><time>2026-05-03T12:56:29.902Z</time></trkpt><trkpt lat="44.3106238" lon="8.0432379"><ele>589.0</ele><time>2026-05-03T12:56:30.908Z</time></trkpt><trkpt lat="44.31061" lon="8.0430282"><ele>593.0</ele><time>2026-05-03T12:56:31.907Z</time></trkpt><trkpt lat="44.3105748" lon="8.0428191"><ele>589.3333333333333</ele><time>2026-05-03T12:56:32.909Z</time></trkpt><trkpt lat="44.3105121" lon="8.0426162"><ele>585.6666666666666</ele><time>2026-05-03T12:56:33.915Z</time></trkpt><trkpt lat="44.3104281" lon="8.0424355"><ele>582.0</ele><time>2026-05-03T12:56:34.907Z</time></trkpt><trkpt lat="44.3103428" lon="8.0422775"><ele>582.0</ele><time>2026-05-03T12:56:35.911Z</time></trkpt><trkpt lat="44.3102644" lon="8.0421436"><ele>582.0</ele><time>2026-05-03T12:56:36.917Z</time></trkpt><trkpt lat="44.3102056" lon="8.0420452"><ele>582.0</ele><time>2026-05-03T12:56:37.904Z</time></trkpt><trkpt lat="44.3101813" lon="8.0419522"><ele>582.0</ele><time>2026-05-03T12:56:38.916Z</time></trkpt><trkpt lat="44.3102426" lon="8.0418496"><ele>582.0</ele><time>2026-05-03T12:56:40.912Z</time></trkpt><trkpt lat="44.3103076" lon="8.0418535"><ele>582.0</ele><time>2026-05-03T12:56:41.901Z</time></trkpt><trkpt lat="44.3103698" lon="8.0419094"><ele>582.0</ele><time>2026-05-03T12:56:42.912Z</time></trkpt><trkpt lat="44.3104396" lon="8.0419908"><ele>582.0</ele><time>2026-05-03T12:56:43.908Z</time></trkpt><trkpt lat="44.310531" lon="8.0420949"><ele>582.0</ele><time>2026-05-03T12:56:44.905Z</time></trkpt><trkpt lat="44.3106318" lon="8.0422143"><ele>582.0</ele><time>2026-05-03T12:56:45.909Z</time></trkpt><trkpt lat="44.310735" lon="8.042344"><ele>584.75</ele><time>2026-05-03T12:56:46.909Z</time></trkpt><trkpt lat="44.3108336" lon="8.0424921"><ele>587.5</ele><time>2026-05-03T12:56:47.901Z</time></trkpt><trkpt lat="44.3109174" lon="8.0426567"><ele>590.25</ele><time>2026-05-03T12:56:48.903Z</time></trkpt><trkpt lat="44.3109922" lon="8.0428242"><ele>593.0</ele><time>2026-05-03T12:56:49.918Z</time></trkpt><trkpt lat="44.3110595" lon="8.0429828"><ele>593.0</ele><time>2026-05-03T12:56:50.914Z</time></trkpt><trkpt lat="44.3111432" lon="8.043095"><ele>593.0</ele><time>2026-05-03T12:56:51.91Z</time></trkpt><trkpt lat="44.3112706" lon="8.0431647"><ele>593.0</ele><time>2026-05-03T12:56:52.913Z</time></trkpt><trkpt lat="44.3114062" lon="8.0431661"><ele>593.0</ele><time>2026-05-03T12:56:53.908Z</time></trkpt><trkpt lat="44.3115543" lon="8.0431268"><ele>600.3333333333333</ele><time>2026-05-03T12:56:54.914Z</time></trkpt><trkpt lat="44.3117106" lon="8.0431009"><ele>607.6666666666666</ele><time>2026-05-03T12:56:55.904Z</time></trkpt><trkpt lat="44.3118621" lon="8.043137"><ele>615.0</ele><time>2026-05-03T12:56:56.902Z</time></trkpt><trkpt lat="44.3120174" lon="8.0432294"><ele>611.3333333333334</ele><time>2026-05-03T12:56:57.91Z</time></trkpt><trkpt lat="44.3121711" lon="8.0433185"><ele>607.6666666666667</ele><time>2026-05-03T12:56:58.903Z</time></trkpt><trkpt lat="44.3123194" lon="8.0433574"><ele>604.0</ele><time>2026-05-03T12:56:59.899Z</time></trkpt><trkpt lat="44.3124687" lon="8.0433364"><ele>608.25</ele><time>2026-05-03T12:57:00.91Z</time></trkpt><trkpt lat="44.3126145" lon="8.0432846"><ele>612.5</ele><time>2026-05-03T12:57:01.912Z</time></trkpt><trkpt lat="44.3127574" lon="8.0432093"><ele>616.75</ele><time>2026-05-03T12:57:02.918Z</time></trkpt><trkpt lat="44.312889" lon="8.0431321"><ele>621.0</ele><time>2026-05-03T12:57:03.914Z</time></trkpt><trkpt lat="44.3129902" lon="8.0430526"><ele>621.0</ele><time>2026-05-03T12:57:04.912Z</time></trkpt><trkpt lat="44.3130405" lon="8.0429207"><ele>621.0</ele><time>2026-05-03T12:57:05.905Z</time></trkpt><trkpt lat="44.3130377" lon="8.042759"><ele>621.0</ele><time>2026-05-03T12:57:06.915Z</time></trkpt><trkpt lat="44.3129838" lon="8.0426021"><ele>621.0</ele><time>2026-05-03T12:57:07.913Z</time></trkpt><trkpt lat="44.3129043" lon="8.0424254"><ele>623.0</ele><time>2026-05-03T12:57:08.92Z</time></trkpt><trkpt lat="44.3128275" lon="8.0422257"><ele>625.0</ele><time>2026-05-03T12:57:09.91Z</time></trkpt><trkpt lat="44.3127769" lon="8.0420098"><ele>627.0</ele><time>2026-05-03T12:57:10.913Z</time></trkpt><trkpt lat="44.3127377" lon="8.0417819"><ele>626.3333333333334</ele><time>2026-05-03T12:57:11.902Z</time></trkpt><trkpt lat="44.3127044" lon="8.0415405"><ele>625.6666666666667</ele><time>2026-05-03T12:57:12.915Z</time></trkpt><trkpt lat="44.3126723" lon="8.0412942"><ele>625.0</ele><time>2026-05-03T12:57:13.912Z</time></trkpt><trkpt lat="44.3126388" lon="8.0410469"><ele>625.0</ele><time>2026-05-03T12:57:14.911Z</time></trkpt><trkpt lat="44.3126057" lon="8.0408038"><ele>625.0</ele><time>2026-05-03T12:57:15.917Z</time></trkpt><trkpt lat="44.3125615" lon="8.0405687"><ele>625.0</ele><time>2026-05-03T12:57:16.908Z</time></trkpt><trkpt lat="44.312499" lon="8.0403486"><ele>622.5</ele><time>2026-05-03T12:57:17.908Z</time></trkpt><trkpt lat="44.3124282" lon="8.0401615"><ele>620.0</ele><time>2026-05-03T12:57:18.901Z</time></trkpt><trkpt lat="44.3123498" lon="8.0399944"><ele>617.5</ele><time>2026-05-03T12:57:19.908Z</time></trkpt><trkpt lat="44.3122762" lon="8.0398374"><ele>615.0</ele><time>2026-05-03T12:57:20.905Z</time></trkpt><trkpt lat="44.3122035" lon="8.0396774"><ele>622.5</ele><time>2026-05-03T12:57:21.908Z</time></trkpt><trkpt lat="44.3121395" lon="8.0395033"><ele>630.0</ele><time>2026-05-03T12:57:22.907Z</time></trkpt><trkpt lat="44.3120899" lon="8.0393159"><ele>637.5</ele><time>2026-05-03T12:57:23.904Z</time></trkpt><trkpt lat="44.3120587" lon="8.0391154"><ele>645.0</ele><time>2026-05-03T12:57:24.908Z</time></trkpt><trkpt lat="44.3120607" lon="8.0388842"><ele>647.0</ele><time>2026-05-03T12:57:25.906Z</time></trkpt><trkpt lat="44.3120971" lon="8.0386416"><ele>649.0</ele><time>2026-05-03T12:57:26.912Z</time></trkpt><trkpt lat="44.3121479" lon="8.0384031"><ele>651.0</ele><time>2026-05-03T12:57:27.906Z</time></trkpt><trkpt lat="44.3121957" lon="8.0381591"><ele>652.0</ele><time>2026-05-03T12:57:28.907Z</time></trkpt><trkpt lat="44.3122247" lon="8.0379265"><ele>653.0</ele><time>2026-05-03T12:57:29.909Z</time></trkpt><trkpt lat="44.3122227" lon="8.0377006"><ele>654.0</ele><time>2026-05-03T12:57:30.905Z</time></trkpt><trkpt lat="44.3121972" lon="8.0374666"><ele>654.6666666666666</ele><time>2026-05-03T12:57:31.905Z</time></trkpt><trkpt lat="44.3121541" lon="8.0372286"><ele>655.3333333333333</ele><time>2026-05-03T12:57:32.91Z</time></trkpt><trkpt lat="44.3121173" lon="8.0369837"><ele>656.0</ele><time>2026-05-03T12:57:33.908Z</time></trkpt><trkpt lat="44.3120869" lon="8.0367403"><ele>659.3333333333333</ele><time>2026-05-03T12:57:34.9Z</time></trkpt><trkpt lat="44.3120745" lon="8.0364978"><ele>662.6666666666666</ele><time>2026-05-03T12:57:35.91Z</time></trkpt><trkpt lat="44.312131" lon="8.0362698"><ele>666.0</ele><time>2026-05-03T12:57:36.908Z</time></trkpt><trkpt lat="44.3122257" lon="8.0360524"><ele>654.3333333333334</ele><time>2026-05-03T12:57:37.904Z</time></trkpt><trkpt lat="44.3123171" lon="8.0358376"><ele>642.6666666666667</ele><time>2026-05-03T12:57:38.902Z</time></trkpt><trkpt lat="44.3123858" lon="8.035613"><ele>631.0</ele><time>2026-05-03T12:57:39.911Z</time></trkpt><trkpt lat="44.3124308" lon="8.0353618"><ele>631.0</ele><time>2026-05-03T12:57:40.909Z</time></trkpt><trkpt lat="44.3124503" lon="8.0350961"><ele>631.0</ele><time>2026-05-03T12:57:41.9Z</time></trkpt><trkpt lat="44.3124609" lon="8.0348216"><ele>631.0</ele><time>2026-05-03T12:57:42.906Z</time></trkpt><trkpt lat="44.3124746" lon="8.0345314"><ele>633.6666666666667</ele><time>2026-05-03T12:57:43.9Z</time></trkpt><trkpt lat="44.3125132" lon="8.0342498"><ele>636.3333333333334</ele><time>2026-05-03T12:57:44.902Z</time></trkpt><trkpt lat="44.3125848" lon="8.0339918"><ele>639.0</ele><time>2026-05-03T12:57:45.904Z</time></trkpt><trkpt lat="44.3126585" lon="8.0337253"><ele>643.0</ele><time>2026-05-03T12:57:46.914Z</time></trkpt><trkpt lat="44.3127252" lon="8.0334576"><ele>647.0</ele><time>2026-05-03T12:57:47.895Z</time></trkpt><trkpt lat="44.3127903" lon="8.0331898"><ele>651.0</ele><time>2026-05-03T12:57:48.908Z</time></trkpt><trkpt lat="44.3128509" lon="8.0329178"><ele>654.0</ele><time>2026-05-03T12:57:49.903Z</time></trkpt><trkpt lat="44.3129148" lon="8.0326564"><ele>657.0</ele><time>2026-05-03T12:57:50.905Z</time></trkpt><trkpt lat="44.3129722" lon="8.0324192"><ele>660.0</ele><time>2026-05-03T12:57:51.904Z</time></trkpt><trkpt lat="44.3130221" lon="8.0321935"><ele>659.3333333333334</ele><time>2026-05-03T12:57:52.906Z</time></trkpt><trkpt lat="44.3130431" lon="8.0319743"><ele>658.6666666666667</ele><time>2026-05-03T12:57:53.908Z</time></trkpt><trkpt lat="44.3130383" lon="8.0317449"><ele>658.0</ele><time>2026-05-03T12:57:54.902Z</time></trkpt><trkpt lat="44.3130072" lon="8.031511"><ele>658.0</ele><time>2026-05-03T12:57:55.907Z</time></trkpt><trkpt lat="44.3129618" lon="8.0312914"><ele>658.0</ele><time>2026-05-03T12:57:56.908Z</time></trkpt><trkpt lat="44.3129135" lon="8.0310843"><ele>658.0</ele><time>2026-05-03T12:57:57.914Z</time></trkpt><trkpt lat="44.3128686" lon="8.0309101"><ele>659.2</ele><time>2026-05-03T12:57:58.909Z</time></trkpt><trkpt lat="44.3128456" lon="8.0307558"><ele>660.4</ele><time>2026-05-03T12:57:59.899Z</time></trkpt><trkpt lat="44.3128622" lon="8.0306174"><ele>661.6</ele><time>2026-05-03T12:58:00.901Z</time></trkpt><trkpt lat="44.3129215" lon="8.0305221"><ele>662.8000000000001</ele><time>2026-05-03T12:58:01.903Z</time></trkpt><trkpt lat="44.3130156" lon="8.0304517"><ele>664.0</ele><time>2026-05-03T12:58:02.909Z</time></trkpt><trkpt lat="44.3131456" lon="8.0304211"><ele>664.0</ele><time>2026-05-03T12:58:03.905Z</time></trkpt><trkpt lat="44.3132802" lon="8.0304488"><ele>664.0</ele><time>2026-05-03T12:58:04.909Z</time></trkpt><trkpt lat="44.3134212" lon="8.0305045"><ele>664.0</ele><time>2026-05-03T12:58:05.903Z</time></trkpt><trkpt lat="44.3135612" lon="8.0305524"><ele>664.0</ele><time>2026-05-03T12:58:06.903Z</time></trkpt><trkpt lat="44.3136893" lon="8.0305833"><ele>664.0</ele><time>2026-05-03T12:58:07.906Z</time></trkpt><trkpt lat="44.3138176" lon="8.0305618"><ele>664.0</ele><time>2026-05-03T12:58:08.899Z</time></trkpt><trkpt lat="44.3139372" lon="8.0304884"><ele>664.0</ele><time>2026-05-03T12:58:09.917Z</time></trkpt><trkpt lat="44.3140316" lon="8.0303877"><ele>664.0</ele><time>2026-05-03T12:58:10.92Z</time></trkpt><trkpt lat="44.3140952" lon="8.0302481"><ele>662.75</ele><time>2026-05-03T12:58:11.915Z</time></trkpt><trkpt lat="44.3141257" lon="8.0300713"><ele>661.5</ele><time>2026-05-03T12:58:12.904Z</time></trkpt><trkpt lat="44.3141216" lon="8.0298658"><ele>660.25</ele><time>2026-05-03T12:58:13.912Z</time></trkpt><trkpt lat="44.3141131" lon="8.0296557"><ele>659.0</ele><time>2026-05-03T12:58:14.906Z</time></trkpt><trkpt lat="44.3141106" lon="8.0294306"><ele>659.0</ele><time>2026-05-03T12:58:15.899Z</time></trkpt><trkpt lat="44.31411" lon="8.0292021"><ele>659.0</ele><time>2026-05-03T12:58:16.904Z</time></trkpt><trkpt lat="44.3141108" lon="8.0289603"><ele>659.0</ele><time>2026-05-03T12:58:17.911Z</time></trkpt><trkpt lat="44.3141073" lon="8.0287098"><ele>659.6666666666666</ele><time>2026-05-03T12:58:18.904Z</time></trkpt><trkpt lat="44.3141048" lon="8.0284407"><ele>660.3333333333334</ele><time>2026-05-03T12:58:19.904Z</time></trkpt><trkpt lat="44.314103" lon="8.0281742"><ele>661.0</ele><time>2026-05-03T12:58:20.908Z</time></trkpt><trkpt lat="44.3140977" lon="8.0278965"><ele>663.6666666666667</ele><time>2026-05-03T12:58:21.902Z</time></trkpt><trkpt lat="44.3140903" lon="8.0276144"><ele>666.3333333333334</ele><time>2026-05-03T12:58:22.903Z</time></trkpt><trkpt lat="44.3140845" lon="8.0273481"><ele>669.0</ele><time>2026-05-03T12:58:23.906Z</time></trkpt><trkpt lat="44.3140801" lon="8.0270973"><ele>671.0</ele><time>2026-05-03T12:58:24.899Z</time></trkpt><trkpt lat="44.3140769" lon="8.0268251"><ele>673.0</ele><time>2026-05-03T12:58:25.901Z</time></trkpt><trkpt lat="44.3140708" lon="8.026547"><ele>675.0</ele><time>2026-05-03T12:58:26.906Z</time></trkpt><trkpt lat="44.3140613" lon="8.026269"><ele>676.3333333333334</ele><time>2026-05-03T12:58:27.906Z</time></trkpt><trkpt lat="44.3140551" lon="8.0259911"><ele>677.6666666666667</ele><time>2026-05-03T12:58:28.911Z</time></trkpt><trkpt lat="44.3140676" lon="8.0257158"><ele>679.0</ele><time>2026-05-03T12:58:29.906Z</time></trkpt><trkpt lat="44.3140995" lon="8.0254446"><ele>680.6666666666667</ele><time>2026-05-03T12:58:30.904Z</time></trkpt><trkpt lat="44.314147" lon="8.0251666"><ele>682.3333333333334</ele><time>2026-05-03T12:58:31.891Z</time></trkpt><trkpt lat="44.3142017" lon="8.0248981"><ele>684.0</ele><time>2026-05-03T12:58:32.902Z</time></trkpt><trkpt lat="44.3142535" lon="8.0246571"><ele>688.0</ele><time>2026-05-03T12:58:33.902Z</time></trkpt><trkpt lat="44.3142957" lon="8.0244263"><ele>692.0</ele><time>2026-05-03T12:58:34.899Z</time></trkpt><trkpt lat="44.3143315" lon="8.0241982"><ele>696.0</ele><time>2026-05-03T12:58:35.904Z</time></trkpt><trkpt lat="44.3143626" lon="8.02402"><ele>696.8</ele><time>2026-05-03T12:58:36.908Z</time></trkpt><trkpt lat="44.314399" lon="8.0238651"><ele>697.5999999999999</ele><time>2026-05-03T12:58:37.9Z</time></trkpt><trkpt lat="44.314448" lon="8.0237644"><ele>698.4</ele><time>2026-05-03T12:58:38.904Z</time></trkpt><trkpt lat="44.3145306" lon="8.0237273"><ele>699.2</ele><time>2026-05-03T12:58:39.901Z</time></trkpt><trkpt lat="44.3146275" lon="8.0237659"><ele>700.0</ele><time>2026-05-03T12:58:40.903Z</time></trkpt><trkpt lat="44.3146935" lon="8.0238807"><ele>700.0</ele><time>2026-05-03T12:58:41.913Z</time></trkpt><trkpt lat="44.3147273" lon="8.0240377"><ele>700.0</ele><time>2026-05-03T12:58:42.907Z</time></trkpt><trkpt lat="44.3147345" lon="8.0242194"><ele>700.0</ele><time>2026-05-03T12:58:43.897Z</time></trkpt><trkpt lat="44.3147389" lon="8.0244256"><ele>700.0</ele><time>2026-05-03T12:58:44.905Z</time></trkpt><trkpt lat="44.3147495" lon="8.0246261"><ele>697.6666666666667</ele><time>2026-05-03T12:58:45.9Z</time></trkpt><trkpt lat="44.3147755" lon="8.0248292"><ele>695.3333333333334</ele><time>2026-05-03T12:58:46.917Z</time></trkpt><trkpt lat="44.3148171" lon="8.0250356"><ele>693.0</ele><time>2026-05-03T12:58:47.902Z</time></trkpt><trkpt lat="44.3148904" lon="8.025245"><ele>692.3333333333334</ele><time>2026-05-03T12:58:48.92Z</time></trkpt><trkpt lat="44.3149748" lon="8.0254495"><ele>691.6666666666667</ele><time>2026-05-03T12:58:49.912Z</time></trkpt><trkpt lat="44.3150659" lon="8.0256515"><ele>691.0</ele><time>2026-05-03T12:58:50.91Z</time></trkpt><trkpt lat="44.3151739" lon="8.0258463"><ele>688.6666666666667</ele><time>2026-05-03T12:58:51.908Z</time></trkpt><trkpt lat="44.3152996" lon="8.0260286"><ele>686.3333333333334</ele><time>2026-05-03T12:58:52.927Z</time></trkpt><trkpt lat="44.3154297" lon="8.0262081"><ele>684.0</ele><time>2026-05-03T12:58:53.908Z</time></trkpt><trkpt lat="44.3155535" lon="8.0263932"><ele>690.6666666666666</ele><time>2026-05-03T12:58:54.91Z</time></trkpt><trkpt lat="44.3156626" lon="8.0265862"><ele>697.3333333333333</ele><time>2026-05-03T12:58:55.913Z</time></trkpt><trkpt lat="44.3157265" lon="8.0267984"><ele>704.0</ele><time>2026-05-03T12:58:56.909Z</time></trkpt><trkpt lat="44.3157442" lon="8.0270032"><ele>704.0</ele><time>2026-05-03T12:58:57.906Z</time></trkpt><trkpt lat="44.3157577" lon="8.0271838"><ele>704.0</ele><time>2026-05-03T12:58:58.909Z</time></trkpt><trkpt lat="44.3157822" lon="8.0273244"><ele>704.0</ele><time>2026-05-03T12:58:59.904Z</time></trkpt><trkpt lat="44.3158199" lon="8.0274125"><ele>704.0</ele><time>2026-05-03T12:59:00.915Z</time></trkpt><trkpt lat="44.3158829" lon="8.0274354"><ele>704.0</ele><time>2026-05-03T12:59:01.903Z</time></trkpt><trkpt lat="44.3159374" lon="8.0273722"><ele>704.0</ele><time>2026-05-03T12:59:02.911Z</time></trkpt><trkpt lat="44.3159764" lon="8.0272826"><ele>704.0</ele><time>2026-05-03T12:59:03.906Z</time></trkpt><trkpt lat="44.3159749" lon="8.0271495"><ele>704.0</ele><time>2026-05-03T12:59:04.917Z</time></trkpt><trkpt lat="44.3159791" lon="8.0269937"><ele>704.0</ele><time>2026-05-03T12:59:05.903Z</time></trkpt><trkpt lat="44.3159833" lon="8.0268235"><ele>704.0</ele><time>2026-05-03T12:59:06.911Z</time></trkpt><trkpt lat="44.3159807" lon="8.0266362"><ele>707.6666666666666</ele><time>2026-05-03T12:59:07.903Z</time></trkpt><trkpt lat="44.3159725" lon="8.0264187"><ele>711.3333333333334</ele><time>2026-05-03T12:59:08.913Z</time></trkpt><trkpt lat="44.315955" lon="8.0261979"><ele>715.0</ele><time>2026-05-03T12:59:09.907Z</time></trkpt><trkpt lat="44.3159305" lon="8.0259599"><ele>717.0</ele><time>2026-05-03T12:59:10.909Z</time></trkpt><trkpt lat="44.3159095" lon="8.0257002"><ele>719.0</ele><time>2026-05-03T12:59:11.894Z</time></trkpt><trkpt lat="44.3158908" lon="8.0254554"><ele>721.0</ele><time>2026-05-03T12:59:12.91Z</time></trkpt><trkpt lat="44.3158684" lon="8.0252116"><ele>721.0</ele><time>2026-05-03T12:59:13.903Z</time></trkpt><trkpt lat="44.3158454" lon="8.02498"><ele>721.0</ele><time>2026-05-03T12:59:14.904Z</time></trkpt><trkpt lat="44.31582" lon="8.0247665"><ele>721.0</ele><time>2026-05-03T12:59:15.912Z</time></trkpt><trkpt lat="44.3158092" lon="8.0245635"><ele>720.0</ele><time>2026-05-03T12:59:16.907Z</time></trkpt><trkpt lat="44.3158305" lon="8.0243731"><ele>719.0</ele><time>2026-05-03T12:59:17.916Z</time></trkpt><trkpt lat="44.3158906" lon="8.0241961"><ele>718.0</ele><time>2026-05-03T12:59:18.913Z</time></trkpt><trkpt lat="44.3159791" lon="8.0240335"><ele>717.0</ele><time>2026-05-03T12:59:19.908Z</time></trkpt><trkpt lat="44.3160981" lon="8.0238828"><ele>715.6666666666666</ele><time>2026-05-03T12:59:20.912Z</time></trkpt><trkpt lat="44.3162192" lon="8.0237273"><ele>714.3333333333333</ele><time>2026-05-03T12:59:21.912Z</time></trkpt><trkpt lat="44.3163378" lon="8.0235595"><ele>713.0</ele><time>2026-05-03T12:59:22.909Z</time></trkpt><trkpt lat="44.3164609" lon="8.0233885"><ele>718.6666666666666</ele><time>2026-05-03T12:59:23.916Z</time></trkpt><trkpt lat="44.316587" lon="8.0232349"><ele>724.3333333333334</ele><time>2026-05-03T12:59:24.911Z</time></trkpt><trkpt lat="44.3167317" lon="8.0231203"><ele>730.0</ele><time>2026-05-03T12:59:25.92Z</time></trkpt><trkpt lat="44.3168968" lon="8.0230264"><ele>730.0</ele><time>2026-05-03T12:59:26.907Z</time></trkpt><trkpt lat="44.3170579" lon="8.0229353"><ele>730.0</ele><time>2026-05-03T12:59:27.908Z</time></trkpt><trkpt lat="44.3172025" lon="8.0228285"><ele>730.0</ele><time>2026-05-03T12:59:28.909Z</time></trkpt><trkpt lat="44.3173224" lon="8.0227153"><ele>733.8</ele><time>2026-05-03T12:59:29.913Z</time></trkpt><trkpt lat="44.31743" lon="8.0226092"><ele>737.6</ele><time>2026-05-03T12:59:30.921Z</time></trkpt><trkpt lat="44.3175207" lon="8.0225149"><ele>741.4000000000001</ele><time>2026-05-03T12:59:31.911Z</time></trkpt><trkpt lat="44.317589" lon="8.0224433"><ele>745.2</ele><time>2026-05-03T12:59:32.914Z</time></trkpt><trkpt lat="44.3176523" lon="8.0224057"><ele>749.0</ele><time>2026-05-03T12:59:33.913Z</time></trkpt><trkpt lat="44.3177205" lon="8.0224946"><ele>749.0</ele><time>2026-05-03T12:59:35.922Z</time></trkpt><trkpt lat="44.3176941" lon="8.0225954"><ele>749.0</ele><time>2026-05-03T12:59:36.906Z</time></trkpt><trkpt lat="44.3176239" lon="8.0226921"><ele>749.0</ele><time>2026-05-03T12:59:37.917Z</time></trkpt><trkpt lat="44.3175219" lon="8.0227922"><ele>749.0</ele><time>2026-05-03T12:59:38.905Z</time></trkpt><trkpt lat="44.3174286" lon="8.0229115"><ele>749.0</ele><time>2026-05-03T12:59:39.916Z</time></trkpt><trkpt lat="44.3173192" lon="8.0230467"><ele>745.3333333333333</ele><time>2026-05-03T12:59:40.912Z</time></trkpt><trkpt lat="44.3172008" lon="8.0231957"><ele>741.6666666666666</ele><time>2026-05-03T12:59:41.913Z</time></trkpt><trkpt lat="44.3170888" lon="8.0233476"><ele>738.0</ele><time>2026-05-03T12:59:42.915Z</time></trkpt><trkpt lat="44.3169902" lon="8.0234836"><ele>738.0</ele><time>2026-05-03T12:59:43.916Z</time></trkpt><trkpt lat="44.3169136" lon="8.0236237"><ele>738.0</ele><time>2026-05-03T12:59:44.914Z</time></trkpt><trkpt lat="44.3168649" lon="8.0237807"><ele>738.0</ele><time>2026-05-03T12:59:45.925Z</time></trkpt><trkpt lat="44.3168389" lon="8.0239575"><ele>738.0</ele><time>2026-05-03T12:59:46.912Z</time></trkpt><trkpt lat="44.3168069" lon="8.0241648"><ele>742.3333333333334</ele><time>2026-05-03T12:59:47.914Z</time></trkpt><trkpt lat="44.3167704" lon="8.02438"><ele>746.6666666666667</ele><time>2026-05-03T12:59:48.914Z</time></trkpt><trkpt lat="44.3167422" lon="8.0245867"><ele>751.0</ele><time>2026-05-03T12:59:49.907Z</time></trkpt><trkpt lat="44.316733" lon="8.0247909"><ele>752.3333333333334</ele><time>2026-05-03T12:59:50.91Z</time></trkpt><trkpt lat="44.3167547" lon="8.0250027"><ele>753.6666666666666</ele><time>2026-05-03T12:59:51.912Z</time></trkpt><trkpt lat="44.3168003" lon="8.0252164"><ele>755.0</ele><time>2026-05-03T12:59:52.902Z</time></trkpt><trkpt lat="44.3168624" lon="8.0254328"><ele>755.0</ele><time>2026-05-03T12:59:53.914Z</time></trkpt><trkpt lat="44.3169179" lon="8.0256398"><ele>755.0</ele><time>2026-05-03T12:59:54.916Z</time></trkpt><trkpt lat="44.3169556" lon="8.0258398"><ele>755.0</ele><time>2026-05-03T12:59:55.913Z</time></trkpt><trkpt lat="44.3169779" lon="8.0260232"><ele>755.0</ele><time>2026-05-03T12:59:56.905Z</time></trkpt><trkpt lat="44.3169983" lon="8.0261716"><ele>754.3333333333333</ele><time>2026-05-03T12:59:57.92Z</time></trkpt><trkpt lat="44.3170176" lon="8.0263032"><ele>753.6666666666666</ele><time>2026-05-03T12:59:58.915Z</time></trkpt><trkpt lat="44.3170623" lon="8.026406"><ele>753.0</ele><time>2026-05-03T12:59:59.912Z</time></trkpt><trkpt lat="44.317118" lon="8.0264534"><ele>752.3333333333334</ele><time>2026-05-03T13:00:00.915Z</time></trkpt><trkpt lat="44.3171882" lon="8.026428"><ele>751.6666666666667</ele><time>2026-05-03T13:00:01.916Z</time></trkpt><trkpt lat="44.317231" lon="8.0263458"><ele>751.0</ele><time>2026-05-03T13:00:02.91Z</time></trkpt><trkpt lat="44.3172368" lon="8.0262383"><ele>751.0</ele><time>2026-05-03T13:00:03.91Z</time></trkpt><trkpt lat="44.3172149" lon="8.0260994"><ele>751.0</ele><time>2026-05-03T13:00:04.911Z</time></trkpt><trkpt lat="44.3171811" lon="8.0259376"><ele>751.0</ele><time>2026-05-03T13:00:05.91Z</time></trkpt><trkpt lat="44.3171558" lon="8.0257539"><ele>751.0</ele><time>2026-05-03T13:00:06.908Z</time></trkpt><trkpt lat="44.3171462" lon="8.0255527"><ele>751.0</ele><time>2026-05-03T13:00:07.917Z</time></trkpt><trkpt lat="44.3171551" lon="8.0253523"><ele>751.0</ele><time>2026-05-03T13:00:08.903Z</time></trkpt><trkpt lat="44.3171792" lon="8.0251529"><ele>751.0</ele><time>2026-05-03T13:00:09.914Z</time></trkpt><trkpt lat="44.3172178" lon="8.0249405"><ele>751.0</ele><time>2026-05-03T13:00:10.916Z</time></trkpt><trkpt lat="44.3172742" lon="8.0247274"><ele>760.3333333333334</ele><time>2026-05-03T13:00:11.91Z</time></trkpt><trkpt lat="44.3173457" lon="8.024533"><ele>769.6666666666667</ele><time>2026-05-03T13:00:12.911Z</time></trkpt><trkpt lat="44.317428" lon="8.0243641"><ele>779.0</ele><time>2026-05-03T13:00:13.91Z</time></trkpt><trkpt lat="44.3175222" lon="8.0242025"><ele>774.6666666666667</ele><time>2026-05-03T13:00:14.913Z</time></trkpt><trkpt lat="44.3176343" lon="8.0240402"><ele>770.3333333333334</ele><time>2026-05-03T13:00:15.917Z</time></trkpt><trkpt lat="44.3177552" lon="8.0239291"><ele>766.0</ele><time>2026-05-03T13:00:16.912Z</time></trkpt><trkpt lat="44.317893" lon="8.0238324"><ele>766.0</ele><time>2026-05-03T13:00:17.913Z</time></trkpt><trkpt lat="44.3180381" lon="8.0237373"><ele>766.0</ele><time>2026-05-03T13:00:18.917Z</time></trkpt><trkpt lat="44.3181915" lon="8.0236347"><ele>766.0</ele><time>2026-05-03T13:00:19.91Z</time></trkpt><trkpt lat="44.3183522" lon="8.02353"><ele>768.6666666666667</ele><time>2026-05-03T13:00:20.919Z</time></trkpt><trkpt lat="44.3185151" lon="8.0234275"><ele>771.3333333333334</ele><time>2026-05-03T13:00:21.908Z</time></trkpt><trkpt lat="44.3186718" lon="8.0233224"><ele>774.0</ele><time>2026-05-03T13:00:22.904Z</time></trkpt><trkpt lat="44.3188154" lon="8.0232158"><ele>781.0</ele><time>2026-05-03T13:00:23.905Z</time></trkpt><trkpt lat="44.3189467" lon="8.0230985"><ele>788.0</ele><time>2026-05-03T13:00:24.908Z</time></trkpt><trkpt lat="44.3190689" lon="8.0229881"><ele>795.0</ele><time>2026-05-03T13:00:25.916Z</time></trkpt><trkpt lat="44.3191738" lon="8.0228946"><ele>802.0</ele><time>2026-05-03T13:00:26.909Z</time></trkpt><trkpt lat="44.3192653" lon="8.0227876"><ele>802.0</ele><time>2026-05-03T13:00:27.91Z</time></trkpt><trkpt lat="44.3193287" lon="8.0226447"><ele>802.0</ele><time>2026-05-03T13:00:28.91Z</time></trkpt><trkpt lat="44.3193671" lon="8.0224655"><ele>802.0</ele><time>2026-05-03T13:00:29.902Z</time></trkpt><trkpt lat="44.3193742" lon="8.0222603"><ele>802.0</ele><time>2026-05-03T13:00:30.912Z</time></trkpt><trkpt lat="44.3193632" lon="8.022035"><ele>802.0</ele><time>2026-05-03T13:00:31.903Z</time></trkpt><trkpt lat="44.319368" lon="8.0217935"><ele>802.0</ele><time>2026-05-03T13:00:32.901Z</time></trkpt><trkpt lat="44.3193704" lon="8.0215433"><ele>802.0</ele><time>2026-05-03T13:00:33.912Z</time></trkpt><trkpt lat="44.3193764" lon="8.021285"><ele>802.3333333333333</ele><time>2026-05-03T13:00:34.91Z</time></trkpt><trkpt lat="44.3193739" lon="8.0210174"><ele>802.6666666666667</ele><time>2026-05-03T13:00:35.909Z</time></trkpt><trkpt lat="44.319373" lon="8.0207455"><ele>803.0</ele><time>2026-05-03T13:00:36.914Z</time></trkpt><trkpt lat="44.3193758" lon="8.0204727"><ele>804.6666666666667</ele><time>2026-05-03T13:00:37.922Z</time></trkpt><trkpt lat="44.3193947" lon="8.0202173"><ele>806.3333333333333</ele><time>2026-05-03T13:00:38.909Z</time></trkpt><trkpt lat="44.3194279" lon="8.019983"><ele>808.0</ele><time>2026-05-03T13:00:39.911Z</time></trkpt><trkpt lat="44.3194454" lon="8.0197677"><ele>809.6666666666666</ele><time>2026-05-03T13:00:40.911Z</time></trkpt><trkpt lat="44.3194328" lon="8.0195425"><ele>811.3333333333333</ele><time>2026-05-03T13:00:41.906Z</time></trkpt><trkpt lat="44.3193921" lon="8.0193175"><ele>813.0</ele><time>2026-05-03T13:00:42.911Z</time></trkpt><trkpt lat="44.3193426" lon="8.0190804"><ele>815.0</ele><time>2026-05-03T13:00:43.913Z</time></trkpt><trkpt lat="44.3192774" lon="8.0188427"><ele>817.0</ele><time>2026-05-03T13:00:44.914Z</time></trkpt><trkpt lat="44.3192085" lon="8.0185979"><ele>819.0</ele><time>2026-05-03T13:00:45.915Z</time></trkpt><trkpt lat="44.3191528" lon="8.0183528"><ele>821.3333333333333</ele><time>2026-05-03T13:00:46.914Z</time></trkpt><trkpt lat="44.3191042" lon="8.0181178"><ele>823.6666666666666</ele><time>2026-05-03T13:00:47.924Z</time></trkpt><trkpt lat="44.3190707" lon="8.0178876"><ele>826.0</ele><time>2026-05-03T13:00:48.912Z</time></trkpt><trkpt lat="44.3190577" lon="8.017653"><ele>827.3333333333333</ele><time>2026-05-03T13:00:49.916Z</time></trkpt><trkpt lat="44.3190708" lon="8.0174135"><ele>828.6666666666667</ele><time>2026-05-03T13:00:50.92Z</time></trkpt><trkpt lat="44.3191186" lon="8.0171781"><ele>830.0</ele><time>2026-05-03T13:00:51.921Z</time></trkpt><trkpt lat="44.3191809" lon="8.0169667"><ele>830.0</ele><time>2026-05-03T13:00:52.923Z</time></trkpt><trkpt lat="44.3192611" lon="8.0167707"><ele>830.0</ele><time>2026-05-03T13:00:53.915Z</time></trkpt><trkpt lat="44.3193442" lon="8.0165826"><ele>830.0</ele><time>2026-05-03T13:00:54.922Z</time></trkpt><trkpt lat="44.3194268" lon="8.0164018"><ele>831.0</ele><time>2026-05-03T13:00:55.923Z</time></trkpt><trkpt lat="44.319505" lon="8.0162201"><ele>832.0</ele><time>2026-05-03T13:00:56.917Z</time></trkpt><trkpt lat="44.3195843" lon="8.0160708"><ele>833.0</ele><time>2026-05-03T13:00:57.921Z</time></trkpt><trkpt lat="44.3196744" lon="8.0159448"><ele>834.0</ele><time>2026-05-03T13:00:58.915Z</time></trkpt><trkpt lat="44.3197966" lon="8.0159033"><ele>834.0</ele><time>2026-05-03T13:00:59.91Z</time></trkpt><trkpt lat="44.3199091" lon="8.0159209"><ele>834.0</ele><time>2026-05-03T13:01:00.922Z</time></trkpt><trkpt lat="44.3200139" lon="8.0159842"><ele>834.0</ele><time>2026-05-03T13:01:01.913Z</time></trkpt><trkpt lat="44.3201069" lon="8.0160513"><ele>834.0</ele><time>2026-05-03T13:01:02.913Z</time></trkpt><trkpt lat="44.3201985" lon="8.0161054"><ele>834.0</ele><time>2026-05-03T13:01:03.916Z</time></trkpt><trkpt lat="44.320286" lon="8.0161314"><ele>834.0</ele><time>2026-05-03T13:01:04.914Z</time></trkpt><trkpt lat="44.3203799" lon="8.0161418"><ele>834.0</ele><time>2026-05-03T13:01:05.923Z</time></trkpt><trkpt lat="44.3204808" lon="8.0161271"><ele>834.0</ele><time>2026-05-03T13:01:06.915Z</time></trkpt><trkpt lat="44.3205804" lon="8.0160946"><ele>834.0</ele><time>2026-05-03T13:01:07.919Z</time></trkpt><trkpt lat="44.3206717" lon="8.0160338"><ele>834.0</ele><time>2026-05-03T13:01:08.915Z</time></trkpt><trkpt lat="44.320739" lon="8.0159554"><ele>836.0</ele><time>2026-05-03T13:01:09.909Z</time></trkpt><trkpt lat="44.3207366" lon="8.015795"><ele>838.0</ele><time>2026-05-03T13:01:11.911Z</time></trkpt><trkpt lat="44.3206816" lon="8.0156777"><ele>840.0</ele><time>2026-05-03T13:01:12.917Z</time></trkpt><trkpt lat="44.3206089" lon="8.0155407"><ele>842.0</ele><time>2026-05-03T13:01:13.907Z</time></trkpt><trkpt lat="44.3205351" lon="8.0153933"><ele>842.0</ele><time>2026-05-03T13:01:14.926Z</time></trkpt><trkpt lat="44.3204555" lon="8.015249"><ele>842.0</ele><time>2026-05-03T13:01:15.905Z</time></trkpt><trkpt lat="44.3203919" lon="8.0151242"><ele>842.0</ele><time>2026-05-03T13:01:16.915Z</time></trkpt><trkpt lat="44.320342" lon="8.0149998"><ele>842.0</ele><time>2026-05-03T13:01:17.915Z</time></trkpt><trkpt lat="44.3203144" lon="8.0148675"><ele>842.0</ele><time>2026-05-03T13:01:18.922Z</time></trkpt><trkpt lat="44.320315" lon="8.0147152"><ele>844.25</ele><time>2026-05-03T13:01:19.916Z</time></trkpt><trkpt lat="44.3203276" lon="8.0145477"><ele>846.5</ele><time>2026-05-03T13:01:20.915Z</time></trkpt><trkpt lat="44.3203369" lon="8.0143887"><ele>848.75</ele><time>2026-05-03T13:01:21.917Z</time></trkpt><trkpt lat="44.3203315" lon="8.0142363"><ele>851.0</ele><time>2026-05-03T13:01:22.908Z</time></trkpt><trkpt lat="44.3203283" lon="8.0140692"><ele>852.4</ele><time>2026-05-03T13:01:23.91Z</time></trkpt><trkpt lat="44.3203191" lon="8.0139065"><ele>853.8</ele><time>2026-05-03T13:01:24.932Z</time></trkpt><trkpt lat="44.3203109" lon="8.0137511"><ele>855.1999999999999</ele><time>2026-05-03T13:01:25.913Z</time></trkpt><trkpt lat="44.3203028" lon="8.0136038"><ele>856.5999999999999</ele><time>2026-05-03T13:01:26.918Z</time></trkpt><trkpt lat="44.3202842" lon="8.0134696"><ele>858.0</ele><time>2026-05-03T13:01:27.924Z</time></trkpt><trkpt lat="44.3202398" lon="8.0133337"><ele>858.0</ele><time>2026-05-03T13:01:28.916Z</time></trkpt><trkpt lat="44.320169" lon="8.0131913"><ele>858.0</ele><time>2026-05-03T13:01:29.919Z</time></trkpt><trkpt lat="44.3201005" lon="8.0130549"><ele>858.0</ele><time>2026-05-03T13:01:30.923Z</time></trkpt><trkpt lat="44.3200325" lon="8.0129064"><ele>858.0</ele><time>2026-05-03T13:01:31.919Z</time></trkpt><trkpt lat="44.3199727" lon="8.0127443"><ele>858.0</ele><time>2026-05-03T13:01:32.925Z</time></trkpt><trkpt lat="44.3199265" lon="8.0125836"><ele>858.0</ele><time>2026-05-03T13:01:33.92Z</time></trkpt><trkpt lat="44.3198891" lon="8.0124136"><ele>858.0</ele><time>2026-05-03T13:01:34.92Z</time></trkpt><trkpt lat="44.3198469" lon="8.0122431"><ele>858.0</ele><time>2026-05-03T13:01:35.918Z</time></trkpt><trkpt lat="44.319804" lon="8.0120677"><ele>858.0</ele><time>2026-05-03T13:01:36.923Z</time></trkpt><trkpt lat="44.3197581" lon="8.0119066"><ele>858.0</ele><time>2026-05-03T13:01:37.919Z</time></trkpt><trkpt lat="44.3197116" lon="8.0117554"><ele>858.0</ele><time>2026-05-03T13:01:38.922Z</time></trkpt><trkpt lat="44.3196731" lon="8.0116228"><ele>858.0</ele><time>2026-05-03T13:01:39.917Z</time></trkpt><trkpt lat="44.319636" lon="8.0115013"><ele>858.0</ele><time>2026-05-03T13:01:40.924Z</time></trkpt><trkpt lat="44.3195983" lon="8.0113738"><ele>859.4</ele><time>2026-05-03T13:01:41.916Z</time></trkpt><trkpt lat="44.31957" lon="8.011245"><ele>860.8</ele><time>2026-05-03T13:01:42.915Z</time></trkpt><trkpt lat="44.3195495" lon="8.0110992"><ele>862.2</ele><time>2026-05-03T13:01:43.91Z</time></trkpt><trkpt lat="44.3195306" lon="8.0109356"><ele>863.6</ele><time>2026-05-03T13:01:44.904Z</time></trkpt><trkpt lat="44.3195146" lon="8.0107744"><ele>865.0</ele><time>2026-05-03T13:01:45.904Z</time></trkpt><trkpt lat="44.3195004" lon="8.0106008"><ele>865.0</ele><time>2026-05-03T13:01:46.917Z</time></trkpt><trkpt lat="44.3194838" lon="8.0104171"><ele>865.0</ele><time>2026-05-03T13:01:47.914Z</time></trkpt><trkpt lat="44.3194714" lon="8.0102304"><ele>865.0</ele><time>2026-05-03T13:01:48.918Z</time></trkpt><trkpt lat="44.319458" lon="8.0100405"><ele>865.0</ele><time>2026-05-03T13:01:49.914Z</time></trkpt><trkpt lat="44.3194519" lon="8.009849"><ele>865.75</ele><time>2026-05-03T13:01:50.924Z</time></trkpt><trkpt lat="44.3194559" lon="8.0096623"><ele>866.5</ele><time>2026-05-03T13:01:51.913Z</time></trkpt><trkpt lat="44.3194819" lon="8.0094909"><ele>867.25</ele><time>2026-05-03T13:01:52.918Z</time></trkpt><trkpt lat="44.3195301" lon="8.0093354"><ele>868.0</ele><time>2026-05-03T13:01:53.921Z</time></trkpt><trkpt lat="44.3196029" lon="8.0091984"><ele>869.75</ele><time>2026-05-03T13:01:54.914Z</time></trkpt><trkpt lat="44.319684" lon="8.0090689"><ele>871.5</ele><time>2026-05-03T13:01:55.919Z</time></trkpt><trkpt lat="44.3197652" lon="8.0089476"><ele>873.25</ele><time>2026-05-03T13:01:56.92Z</time></trkpt><trkpt lat="44.3198453" lon="8.0088206"><ele>875.0</ele><time>2026-05-03T13:01:57.916Z</time></trkpt><trkpt lat="44.3199217" lon="8.008689"><ele>872.0</ele><time>2026-05-03T13:01:58.919Z</time></trkpt><trkpt lat="44.3200008" lon="8.0085563"><ele>869.0</ele><time>2026-05-03T13:01:59.921Z</time></trkpt><trkpt lat="44.3200775" lon="8.0084316"><ele>866.0</ele><time>2026-05-03T13:02:00.92Z</time></trkpt><trkpt lat="44.3201583" lon="8.0083216"><ele>863.0</ele><time>2026-05-03T13:02:01.918Z</time></trkpt><trkpt lat="44.3202372" lon="8.0082257"><ele>863.0</ele><time>2026-05-03T13:02:02.919Z</time></trkpt><trkpt lat="44.3203118" lon="8.0081414"><ele>863.0</ele><time>2026-05-03T13:02:03.926Z</time></trkpt><trkpt lat="44.3203711" lon="8.0080519"><ele>863.0</ele><time>2026-05-03T13:02:04.915Z</time></trkpt><trkpt lat="44.3204476" lon="8.0079509"><ele>863.0</ele><time>2026-05-03T13:02:05.93Z</time></trkpt><trkpt lat="44.3205266" lon="8.0078442"><ele>863.0</ele><time>2026-05-03T13:02:06.921Z</time></trkpt><trkpt lat="44.3206083" lon="8.0077324"><ele>860.8</ele><time>2026-05-03T13:02:07.918Z</time></trkpt><trkpt lat="44.3206904" lon="8.0076255"><ele>858.5999999999999</ele><time>2026-05-03T13:02:08.917Z</time></trkpt><trkpt lat="44.3207736" lon="8.007513"><ele>856.4000000000001</ele><time>2026-05-03T13:02:09.916Z</time></trkpt><trkpt lat="44.3208504" lon="8.0074097"><ele>854.2</ele><time>2026-05-03T13:02:10.921Z</time></trkpt><trkpt lat="44.3209222" lon="8.0073111"><ele>852.0</ele><time>2026-05-03T13:02:11.913Z</time></trkpt><trkpt lat="44.3209855" lon="8.0072147"><ele>852.0</ele><time>2026-05-03T13:02:12.92Z</time></trkpt><trkpt lat="44.3210474" lon="8.0071162"><ele>852.0</ele><time>2026-05-03T13:02:13.92Z</time></trkpt><trkpt lat="44.3211028" lon="8.0070187"><ele>852.0</ele><time>2026-05-03T13:02:14.918Z</time></trkpt><trkpt lat="44.3211543" lon="8.0069296"><ele>852.0</ele><time>2026-05-03T13:02:15.92Z</time></trkpt><trkpt lat="44.3212048" lon="8.0068547"><ele>852.0</ele><time>2026-05-03T13:02:16.905Z</time></trkpt><trkpt lat="44.3213129" lon="8.0068053"><ele>852.0</ele><time>2026-05-03T13:02:18.918Z</time></trkpt><trkpt lat="44.3213939" lon="8.0068265"><ele>852.0</ele><time>2026-05-03T13:02:19.926Z</time></trkpt><trkpt lat="44.3214921" lon="8.0068801"><ele>852.0</ele><time>2026-05-03T13:02:20.921Z</time></trkpt><trkpt lat="44.3216053" lon="8.0069379"><ele>852.0</ele><time>2026-05-03T13:02:21.91Z</time></trkpt><trkpt lat="44.3217377" lon="8.0070049"><ele>852.0</ele><time>2026-05-03T13:02:22.923Z</time></trkpt><trkpt lat="44.321877" lon="8.007075"><ele>849.0</ele><time>2026-05-03T13:02:23.917Z</time></trkpt><trkpt lat="44.3220146" lon="8.0071552"><ele>846.0</ele><time>2026-05-03T13:02:24.906Z</time></trkpt><trkpt lat="44.3221565" lon="8.0072276"><ele>843.0</ele><time>2026-05-03T13:02:25.909Z</time></trkpt><trkpt lat="44.3222956" lon="8.0073094"><ele>843.6666666666667</ele><time>2026-05-03T13:02:26.911Z</time></trkpt><trkpt lat="44.3224359" lon="8.0073925"><ele>844.3333333333334</ele><time>2026-05-03T13:02:27.922Z</time></trkpt><trkpt lat="44.3225864" lon="8.0074848"><ele>845.0</ele><time>2026-05-03T13:02:28.922Z</time></trkpt><trkpt lat="44.3227348" lon="8.0075766"><ele>845.0</ele><time>2026-05-03T13:02:29.915Z</time></trkpt><trkpt lat="44.3228853" lon="8.007658"><ele>845.0</ele><time>2026-05-03T13:02:30.924Z</time></trkpt><trkpt lat="44.3230309" lon="8.0077162"><ele>845.0</ele><time>2026-05-03T13:02:31.922Z</time></trkpt><trkpt lat="44.3231747" lon="8.0077607"><ele>844.5</ele><time>2026-05-03T13:02:32.922Z</time></trkpt><trkpt lat="44.3233195" lon="8.007782"><ele>844.0</ele><time>2026-05-03T13:02:33.924Z</time></trkpt><trkpt lat="44.3234688" lon="8.0077867"><ele>843.5</ele><time>2026-05-03T13:02:34.918Z</time></trkpt><trkpt lat="44.3236164" lon="8.0077915"><ele>843.0</ele><time>2026-05-03T13:02:35.921Z</time></trkpt><trkpt lat="44.3237582" lon="8.0078079"><ele>843.0</ele><time>2026-05-03T13:02:36.917Z</time></trkpt><trkpt lat="44.3238873" lon="8.0078466"><ele>843.0</ele><time>2026-05-03T13:02:37.922Z</time></trkpt><trkpt lat="44.3240071" lon="8.0078992"><ele>843.0</ele><time>2026-05-03T13:02:38.916Z</time></trkpt><trkpt lat="44.324116" lon="8.0080018"><ele>843.0</ele><time>2026-05-03T13:02:39.923Z</time></trkpt><trkpt lat="44.3242289" lon="8.0081396"><ele>842.3333333333333</ele><time>2026-05-03T13:02:40.913Z</time></trkpt><trkpt lat="44.3243388" lon="8.0082803"><ele>841.6666666666666</ele><time>2026-05-03T13:02:41.909Z</time></trkpt><trkpt lat="44.3244578" lon="8.0084197"><ele>841.0</ele><time>2026-05-03T13:02:42.919Z</time></trkpt><trkpt lat="44.3245902" lon="8.0085429"><ele>844.6666666666666</ele><time>2026-05-03T13:02:43.918Z</time></trkpt><trkpt lat="44.3247393" lon="8.0086507"><ele>848.3333333333333</ele><time>2026-05-03T13:02:44.914Z</time></trkpt><trkpt lat="44.324892" lon="8.0087522"><ele>852.0</ele><time>2026-05-03T13:02:45.918Z</time></trkpt><trkpt lat="44.3250419" lon="8.0088351"><ele>852.0</ele><time>2026-05-03T13:02:46.916Z</time></trkpt><trkpt lat="44.3251848" lon="8.0089076"><ele>852.0</ele><time>2026-05-03T13:02:47.906Z</time></trkpt><trkpt lat="44.3253227" lon="8.0089796"><ele>852.0</ele><time>2026-05-03T13:02:48.914Z</time></trkpt><trkpt lat="44.3254613" lon="8.0090506"><ele>852.0</ele><time>2026-05-03T13:02:49.908Z</time></trkpt><trkpt lat="44.3256106" lon="8.0091186"><ele>855.6666666666667</ele><time>2026-05-03T13:02:50.91Z</time></trkpt><trkpt lat="44.3257727" lon="8.0092051"><ele>859.3333333333334</ele><time>2026-05-03T13:02:51.911Z</time></trkpt><trkpt lat="44.3259328" lon="8.0093209"><ele>863.0</ele><time>2026-05-03T13:02:52.911Z</time></trkpt><trkpt lat="44.3260931" lon="8.0094511"><ele>863.0</ele><time>2026-05-03T13:02:53.917Z</time></trkpt><trkpt lat="44.3262439" lon="8.0095857"><ele>863.0</ele><time>2026-05-03T13:02:54.915Z</time></trkpt><trkpt lat="44.3263961" lon="8.0097163"><ele>863.0</ele><time>2026-05-03T13:02:55.914Z</time></trkpt><trkpt lat="44.3265502" lon="8.0098357"><ele>862.0</ele><time>2026-05-03T13:02:56.915Z</time></trkpt><trkpt lat="44.3266992" lon="8.0099566"><ele>861.0</ele><time>2026-05-03T13:02:57.912Z</time></trkpt><trkpt lat="44.3268356" lon="8.0100861"><ele>860.0</ele><time>2026-05-03T13:02:58.909Z</time></trkpt><trkpt lat="44.3269482" lon="8.0102264"><ele>860.0</ele><time>2026-05-03T13:02:59.908Z</time></trkpt><trkpt lat="44.3270356" lon="8.0103988"><ele>860.0</ele><time>2026-05-03T13:03:00.912Z</time></trkpt><trkpt lat="44.3271043" lon="8.0105953"><ele>860.0</ele><time>2026-05-03T13:03:01.912Z</time></trkpt><trkpt lat="44.3271565" lon="8.0108029"><ele>855.6666666666667</ele><time>2026-05-03T13:03:02.909Z</time></trkpt><trkpt lat="44.3272199" lon="8.0110226"><ele>851.3333333333333</ele><time>2026-05-03T13:03:03.908Z</time></trkpt><trkpt lat="44.3272927" lon="8.0112361"><ele>847.0</ele><time>2026-05-03T13:03:04.912Z</time></trkpt><trkpt lat="44.3273811" lon="8.01143"><ele>850.3333333333333</ele><time>2026-05-03T13:03:05.907Z</time></trkpt><trkpt lat="44.3274958" lon="8.0115774"><ele>853.6666666666667</ele><time>2026-05-03T13:03:06.907Z</time></trkpt><trkpt lat="44.3276365" lon="8.0116779"><ele>857.0</ele><time>2026-05-03T13:03:07.902Z</time></trkpt><trkpt lat="44.3277991" lon="8.011758"><ele>857.0</ele><time>2026-05-03T13:03:08.907Z</time></trkpt><trkpt lat="44.3279717" lon="8.0118245"><ele>857.0</ele><time>2026-05-03T13:03:09.914Z</time></trkpt><trkpt lat="44.328128" lon="8.0118835"><ele>857.0</ele><time>2026-05-03T13:03:10.908Z</time></trkpt><trkpt lat="44.3282719" lon="8.011933"><ele>860.0</ele><time>2026-05-03T13:03:11.913Z</time></trkpt><trkpt lat="44.3283857" lon="8.011998"><ele>863.0</ele><time>2026-05-03T13:03:12.909Z</time></trkpt><trkpt lat="44.3284742" lon="8.0121093"><ele>866.0</ele><time>2026-05-03T13:03:13.911Z</time></trkpt><trkpt lat="44.3285327" lon="8.0122766"><ele>869.0</ele><time>2026-05-03T13:03:14.904Z</time></trkpt><trkpt lat="44.328549" lon="8.012461"><ele>865.0</ele><time>2026-05-03T13:03:15.906Z</time></trkpt><trkpt lat="44.3285434" lon="8.0126794"><ele>861.0</ele><time>2026-05-03T13:03:16.907Z</time></trkpt><trkpt lat="44.3285386" lon="8.0128916"><ele>857.0</ele><time>2026-05-03T13:03:17.914Z</time></trkpt><trkpt lat="44.3285383" lon="8.0130934"><ele>857.0</ele><time>2026-05-03T13:03:18.908Z</time></trkpt><trkpt lat="44.3285374" lon="8.0133098"><ele>857.0</ele><time>2026-05-03T13:03:19.917Z</time></trkpt><trkpt lat="44.3285443" lon="8.013524"><ele>857.0</ele><time>2026-05-03T13:03:20.91Z</time></trkpt><trkpt lat="44.328566" lon="8.0137497"><ele>854.3333333333334</ele><time>2026-05-03T13:03:21.909Z</time></trkpt><trkpt lat="44.3286085" lon="8.0139605"><ele>851.6666666666667</ele><time>2026-05-03T13:03:22.909Z</time></trkpt><trkpt lat="44.3286747" lon="8.014178"><ele>849.0</ele><time>2026-05-03T13:03:23.909Z</time></trkpt><trkpt lat="44.3287632" lon="8.0143861"><ele>848.3333333333333</ele><time>2026-05-03T13:03:24.913Z</time></trkpt><trkpt lat="44.3288566" lon="8.0145884"><ele>847.6666666666666</ele><time>2026-05-03T13:03:25.913Z</time></trkpt><trkpt lat="44.3289488" lon="8.0147851"><ele>847.0</ele><time>2026-05-03T13:03:26.908Z</time></trkpt><trkpt lat="44.3290348" lon="8.0149637"><ele>852.0</ele><time>2026-05-03T13:03:27.916Z</time></trkpt><trkpt lat="44.3291334" lon="8.0151136"><ele>857.0</ele><time>2026-05-03T13:03:28.912Z</time></trkpt><trkpt lat="44.3292592" lon="8.0152455"><ele>862.0</ele><time>2026-05-03T13:03:29.905Z</time></trkpt><trkpt lat="44.3294002" lon="8.0153455"><ele>862.0</ele><time>2026-05-03T13:03:30.91Z</time></trkpt><trkpt lat="44.3295583" lon="8.0154407"><ele>862.0</ele><time>2026-05-03T13:03:31.919Z</time></trkpt><trkpt lat="44.3297281" lon="8.0155357"><ele>862.0</ele><time>2026-05-03T13:03:32.911Z</time></trkpt><trkpt lat="44.3298959" lon="8.0156041"><ele>864.0</ele><time>2026-05-03T13:03:33.909Z</time></trkpt><trkpt lat="44.330067" lon="8.015635"><ele>866.0</ele><time>2026-05-03T13:03:34.911Z</time></trkpt><trkpt lat="44.3302436" lon="8.0156196"><ele>868.0</ele><time>2026-05-03T13:03:35.915Z</time></trkpt><trkpt lat="44.3304171" lon="8.0155802"><ele>868.0</ele><time>2026-05-03T13:03:36.917Z</time></trkpt><trkpt lat="44.3305535" lon="8.0155271"><ele>868.0</ele><time>2026-05-03T13:03:37.912Z</time></trkpt><trkpt lat="44.3306594" lon="8.0154551"><ele>868.0</ele><time>2026-05-03T13:03:38.909Z</time></trkpt><trkpt lat="44.330755" lon="8.0153132"><ele>868.0</ele><time>2026-05-03T13:03:39.914Z</time></trkpt><trkpt lat="44.3308476" lon="8.0151162"><ele>864.0</ele><time>2026-05-03T13:03:40.912Z</time></trkpt><trkpt lat="44.330914" lon="8.0149018"><ele>860.0</ele><time>2026-05-03T13:03:41.915Z</time></trkpt><trkpt lat="44.3309669" lon="8.014678"><ele>856.0</ele><time>2026-05-03T13:03:42.913Z</time></trkpt><trkpt lat="44.3310059" lon="8.0144354"><ele>856.0</ele><time>2026-05-03T13:03:43.911Z</time></trkpt><trkpt lat="44.3310431" lon="8.0141897"><ele>856.0</ele><time>2026-05-03T13:03:44.908Z</time></trkpt><trkpt lat="44.331083" lon="8.0139461"><ele>856.0</ele><time>2026-05-03T13:03:45.917Z</time></trkpt><trkpt lat="44.3311251" lon="8.0137168"><ele>858.0</ele><time>2026-05-03T13:03:46.92Z</time></trkpt><trkpt lat="44.3311665" lon="8.0134919"><ele>860.0</ele><time>2026-05-03T13:03:47.914Z</time></trkpt><trkpt lat="44.3312011" lon="8.0132768"><ele>862.0</ele><time>2026-05-03T13:03:48.901Z</time></trkpt><trkpt lat="44.3312318" lon="8.0130676"><ele>862.0</ele><time>2026-05-03T13:03:49.907Z</time></trkpt><trkpt lat="44.3312627" lon="8.0128761"><ele>862.0</ele><time>2026-05-03T13:03:50.918Z</time></trkpt><trkpt lat="44.3313092" lon="8.0127102"><ele>862.0</ele><time>2026-05-03T13:03:51.916Z</time></trkpt><trkpt lat="44.3313793" lon="8.0126096"><ele>862.0</ele><time>2026-05-03T13:03:52.909Z</time></trkpt><trkpt lat="44.3314874" lon="8.0125705"><ele>858.5</ele><time>2026-05-03T13:03:53.912Z</time></trkpt><trkpt lat="44.3315968" lon="8.0125907"><ele>855.0</ele><time>2026-05-03T13:03:54.909Z</time></trkpt><trkpt lat="44.3317114" lon="8.0126705"><ele>851.5</ele><time>2026-05-03T13:03:55.905Z</time></trkpt><trkpt lat="44.3318264" lon="8.0127641"><ele>848.0</ele><time>2026-05-03T13:03:56.91Z</time></trkpt><trkpt lat="44.3319463" lon="8.0128548"><ele>848.0</ele><time>2026-05-03T13:03:57.908Z</time></trkpt><trkpt lat="44.3320781" lon="8.0129399"><ele>848.0</ele><time>2026-05-03T13:03:58.912Z</time></trkpt><trkpt lat="44.3322217" lon="8.0130108"><ele>848.0</ele><time>2026-05-03T13:03:59.908Z</time></trkpt><trkpt lat="44.3323797" lon="8.0130432"><ele>845.0</ele><time>2026-05-03T13:04:00.914Z</time></trkpt><trkpt lat="44.3325501" lon="8.0130575"><ele>842.0</ele><time>2026-05-03T13:04:01.909Z</time></trkpt><trkpt lat="44.3327334" lon="8.0130556"><ele>839.0</ele><time>2026-05-03T13:04:02.913Z</time></trkpt><trkpt lat="44.3329206" lon="8.0130456"><ele>836.0</ele><time>2026-05-03T13:04:03.919Z</time></trkpt><trkpt lat="44.3331048" lon="8.0130538"><ele>833.0</ele><time>2026-05-03T13:04:04.915Z</time></trkpt><trkpt lat="44.3332692" lon="8.0130821"><ele>830.0</ele><time>2026-05-03T13:04:05.905Z</time></trkpt><trkpt lat="44.3334179" lon="8.013182"><ele>829.0</ele><time>2026-05-03T13:04:06.914Z</time></trkpt><trkpt lat="44.3335328" lon="8.0133381"><ele>828.0</ele><time>2026-05-03T13:04:07.916Z</time></trkpt><trkpt lat="44.3336082" lon="8.0134773"><ele>827.0</ele><time>2026-05-03T13:04:08.911Z</time></trkpt><trkpt lat="44.333685" lon="8.0135671"><ele>826.0</ele><time>2026-05-03T13:04:09.907Z</time></trkpt><trkpt lat="44.3337766" lon="8.0136137"><ele>826.0</ele><time>2026-05-03T13:04:10.917Z</time></trkpt><trkpt lat="44.3338765" lon="8.0135639"><ele>826.0</ele><time>2026-05-03T13:04:11.916Z</time></trkpt><trkpt lat="44.3339405" lon="8.0134574"><ele>826.0</ele><time>2026-05-03T13:04:12.915Z</time></trkpt><trkpt lat="44.3339809" lon="8.013306"><ele>826.0</ele><time>2026-05-03T13:04:13.914Z</time></trkpt><trkpt lat="44.3339997" lon="8.0131104"><ele>822.6666666666666</ele><time>2026-05-03T13:04:14.904Z</time></trkpt><trkpt lat="44.3340387" lon="8.0129023"><ele>819.3333333333333</ele><time>2026-05-03T13:04:15.903Z</time></trkpt><trkpt lat="44.3340757" lon="8.0126913"><ele>816.0</ele><time>2026-05-03T13:04:16.915Z</time></trkpt><trkpt lat="44.334106" lon="8.012484"><ele>814.5</ele><time>2026-05-03T13:04:17.909Z</time></trkpt><trkpt lat="44.3341059" lon="8.0122853"><ele>813.0</ele><time>2026-05-03T13:04:18.901Z</time></trkpt><trkpt lat="44.3340627" lon="8.0120999"><ele>811.5</ele><time>2026-05-03T13:04:19.906Z</time></trkpt><trkpt lat="44.3339809" lon="8.0119479"><ele>810.0</ele><time>2026-05-03T13:04:20.913Z</time></trkpt><trkpt lat="44.3338846" lon="8.0118414"><ele>809.8</ele><time>2026-05-03T13:04:21.921Z</time></trkpt><trkpt lat="44.3337809" lon="8.0117693"><ele>809.6</ele><time>2026-05-03T13:04:22.909Z</time></trkpt><trkpt lat="44.3337247" lon="8.011678"><ele>809.4000000000001</ele><time>2026-05-03T13:04:23.921Z</time></trkpt><trkpt lat="44.3337594" lon="8.0115336"><ele>809.2</ele><time>2026-05-03T13:04:25.911Z</time></trkpt><trkpt lat="44.3338344" lon="8.011514"><ele>809.0</ele><time>2026-05-03T13:04:26.92Z</time></trkpt><trkpt lat="44.3339421" lon="8.0115482"><ele>809.25</ele><time>2026-05-03T13:04:27.91Z</time></trkpt><trkpt lat="44.3340729" lon="8.0116008"><ele>809.5</ele><time>2026-05-03T13:04:28.917Z</time></trkpt><trkpt lat="44.3341994" lon="8.0116781"><ele>809.75</ele><time>2026-05-03T13:04:29.918Z</time></trkpt><trkpt lat="44.3343138" lon="8.0118177"><ele>810.0</ele><time>2026-05-03T13:04:30.907Z</time></trkpt><trkpt lat="44.3343942" lon="8.0119909"><ele>810.0</ele><time>2026-05-03T13:04:31.907Z</time></trkpt><trkpt lat="44.3344436" lon="8.0121913"><ele>810.0</ele><time>2026-05-03T13:04:32.909Z</time></trkpt><trkpt lat="44.3344732" lon="8.012391"><ele>810.0</ele><time>2026-05-03T13:04:33.929Z</time></trkpt><trkpt lat="44.3344932" lon="8.0125875"><ele>810.0</ele><time>2026-05-03T13:04:34.913Z</time></trkpt><trkpt lat="44.3345341" lon="8.0127669"><ele>811.5</ele><time>2026-05-03T13:04:35.913Z</time></trkpt><trkpt lat="44.3346119" lon="8.0129274"><ele>813.0</ele><time>2026-05-03T13:04:36.916Z</time></trkpt><trkpt lat="44.3347274" lon="8.0130692"><ele>814.5</ele><time>2026-05-03T13:04:37.908Z</time></trkpt><trkpt lat="44.3348541" lon="8.0131957"><ele>816.0</ele><time>2026-05-03T13:04:38.911Z</time></trkpt><trkpt lat="44.3350008" lon="8.0133196"><ele>811.0</ele><time>2026-05-03T13:04:39.912Z</time></trkpt><trkpt lat="44.335149" lon="8.0134363"><ele>806.0</ele><time>2026-05-03T13:04:40.909Z</time></trkpt><trkpt lat="44.3353043" lon="8.0135537"><ele>801.0</ele><time>2026-05-03T13:04:41.903Z</time></trkpt><trkpt lat="44.3354592" lon="8.0136749"><ele>797.6666666666667</ele><time>2026-05-03T13:04:42.912Z</time></trkpt><trkpt lat="44.3356139" lon="8.0138054"><ele>794.3333333333334</ele><time>2026-05-03T13:04:43.906Z</time></trkpt><trkpt lat="44.3357638" lon="8.0139323"><ele>791.0</ele><time>2026-05-03T13:04:44.918Z</time></trkpt><trkpt lat="44.3359056" lon="8.0140696"><ele>792.0</ele><time>2026-05-03T13:04:45.912Z</time></trkpt><trkpt lat="44.3360209" lon="8.0142419"><ele>793.0</ele><time>2026-05-03T13:04:46.914Z</time></trkpt><trkpt lat="44.3361051" lon="8.0144462"><ele>794.0</ele><time>2026-05-03T13:04:47.908Z</time></trkpt><trkpt lat="44.3361626" lon="8.0146619"><ele>794.0</ele><time>2026-05-03T13:04:48.911Z</time></trkpt><trkpt lat="44.3362095" lon="8.0148672"><ele>794.0</ele><time>2026-05-03T13:04:49.909Z</time></trkpt><trkpt lat="44.336261" lon="8.0150707"><ele>794.0</ele><time>2026-05-03T13:04:50.909Z</time></trkpt><trkpt lat="44.3363334" lon="8.0152555"><ele>790.0</ele><time>2026-05-03T13:04:51.918Z</time></trkpt><trkpt lat="44.3364361" lon="8.0154191"><ele>786.0</ele><time>2026-05-03T13:04:52.905Z</time></trkpt><trkpt lat="44.3365545" lon="8.0155534"><ele>782.0</ele><time>2026-05-03T13:04:53.922Z</time></trkpt><trkpt lat="44.3366944" lon="8.0156604"><ele>782.0</ele><time>2026-05-03T13:04:54.905Z</time></trkpt><trkpt lat="44.3368503" lon="8.0157412"><ele>782.0</ele><time>2026-05-03T13:04:55.914Z</time></trkpt><trkpt lat="44.3370231" lon="8.0158204"><ele>782.0</ele><time>2026-05-03T13:04:56.911Z</time></trkpt><trkpt lat="44.3371987" lon="8.0159049"><ele>780.6666666666667</ele><time>2026-05-03T13:04:57.908Z</time></trkpt><trkpt lat="44.3373689" lon="8.0159673"><ele>779.3333333333333</ele><time>2026-05-03T13:04:58.91Z</time></trkpt><trkpt lat="44.3375325" lon="8.0159896"><ele>778.0</ele><time>2026-05-03T13:04:59.909Z</time></trkpt><trkpt lat="44.3376981" lon="8.0159575"><ele>778.0</ele><time>2026-05-03T13:05:00.915Z</time></trkpt><trkpt lat="44.3378638" lon="8.0158759"><ele>778.0</ele><time>2026-05-03T13:05:01.905Z</time></trkpt><trkpt lat="44.3380252" lon="8.0157662"><ele>778.0</ele><time>2026-05-03T13:05:02.911Z</time></trkpt><trkpt lat="44.3381903" lon="8.0156469"><ele>776.0</ele><time>2026-05-03T13:05:03.911Z</time></trkpt><trkpt lat="44.3383549" lon="8.0155265"><ele>774.0</ele><time>2026-05-03T13:05:04.918Z</time></trkpt><trkpt lat="44.3385222" lon="8.015399"><ele>772.0</ele><time>2026-05-03T13:05:05.917Z</time></trkpt><trkpt lat="44.3386891" lon="8.0152543"><ele>772.0</ele><time>2026-05-03T13:05:06.927Z</time></trkpt><trkpt lat="44.3388532" lon="8.0150897"><ele>772.0</ele><time>2026-05-03T13:05:07.911Z</time></trkpt><trkpt lat="44.3390126" lon="8.0149103"><ele>772.0</ele><time>2026-05-03T13:05:08.915Z</time></trkpt><trkpt lat="44.3391688" lon="8.0147299"><ele>772.3333333333333</ele><time>2026-05-03T13:05:09.918Z</time></trkpt><trkpt lat="44.33932" lon="8.0145675"><ele>772.6666666666667</ele><time>2026-05-03T13:05:10.914Z</time></trkpt><trkpt lat="44.3394695" lon="8.0143907"><ele>773.0</ele><time>2026-05-03T13:05:11.92Z</time></trkpt><trkpt lat="44.3395974" lon="8.0141808"><ele>774.0</ele><time>2026-05-03T13:05:12.916Z</time></trkpt><trkpt lat="44.3397105" lon="8.0139559"><ele>775.0</ele><time>2026-05-03T13:05:13.92Z</time></trkpt><trkpt lat="44.3397958" lon="8.0137196"><ele>776.0</ele><time>2026-05-03T13:05:14.918Z</time></trkpt><trkpt lat="44.3398846" lon="8.0135028"><ele>776.0</ele><time>2026-05-03T13:05:15.908Z</time></trkpt><trkpt lat="44.3400026" lon="8.0133418"><ele>776.0</ele><time>2026-05-03T13:05:16.917Z</time></trkpt><trkpt lat="44.3401417" lon="8.0132213"><ele>776.0</ele><time>2026-05-03T13:05:17.897Z</time></trkpt><trkpt lat="44.3402947" lon="8.0131482"><ele>777.75</ele><time>2026-05-03T13:05:18.922Z</time></trkpt><trkpt lat="44.3404278" lon="8.0130555"><ele>779.5</ele><time>2026-05-03T13:05:19.902Z</time></trkpt><trkpt lat="44.3405193" lon="8.0129199"><ele>781.25</ele><time>2026-05-03T13:05:20.905Z</time></trkpt><trkpt lat="44.34056" lon="8.0127198"><ele>783.0</ele><time>2026-05-03T13:05:21.903Z</time></trkpt><trkpt lat="44.3405954" lon="8.0124939"><ele>780.0</ele><time>2026-05-03T13:05:22.906Z</time></trkpt><trkpt lat="44.3406375" lon="8.0122537"><ele>777.0</ele><time>2026-05-03T13:05:23.901Z</time></trkpt><trkpt lat="44.3407142" lon="8.0120133"><ele>774.0</ele><time>2026-05-03T13:05:24.895Z</time></trkpt><trkpt lat="44.3408047" lon="8.0117784"><ele>770.3333333333334</ele><time>2026-05-03T13:05:25.898Z</time></trkpt><trkpt lat="44.3409062" lon="8.0115628"><ele>766.6666666666667</ele><time>2026-05-03T13:05:26.912Z</time></trkpt><trkpt lat="44.3410139" lon="8.0113723"><ele>763.0</ele><time>2026-05-03T13:05:27.905Z</time></trkpt><trkpt lat="44.3411294" lon="8.0112054"><ele>763.0</ele><time>2026-05-03T13:05:28.903Z</time></trkpt><trkpt lat="44.3412475" lon="8.0110663"><ele>763.0</ele><time>2026-05-03T13:05:29.913Z</time></trkpt><trkpt lat="44.3413656" lon="8.0109476"><ele>763.0</ele><time>2026-05-03T13:05:30.91Z</time></trkpt><trkpt lat="44.3414537" lon="8.0108228"><ele>763.0</ele><time>2026-05-03T13:05:31.903Z</time></trkpt><trkpt lat="44.3415062" lon="8.0106817"><ele>761.75</ele><time>2026-05-03T13:05:32.905Z</time></trkpt><trkpt lat="44.3415127" lon="8.010501"><ele>760.5</ele><time>2026-05-03T13:05:33.906Z</time></trkpt><trkpt lat="44.3414671" lon="8.0103682"><ele>759.25</ele><time>2026-05-03T13:05:34.899Z</time></trkpt><trkpt lat="44.3413792" lon="8.0102259"><ele>758.0</ele><time>2026-05-03T13:05:35.903Z</time></trkpt><trkpt lat="44.3412739" lon="8.0100956"><ele>757.25</ele><time>2026-05-03T13:05:36.904Z</time></trkpt><trkpt lat="44.3411673" lon="8.0099651"><ele>756.5</ele><time>2026-05-03T13:05:37.909Z</time></trkpt><trkpt lat="44.3410863" lon="8.0098322"><ele>755.75</ele><time>2026-05-03T13:05:38.91Z</time></trkpt><trkpt lat="44.3410416" lon="8.0096767"><ele>755.0</ele><time>2026-05-03T13:05:39.906Z</time></trkpt><trkpt lat="44.3410633" lon="8.0094997"><ele>755.0</ele><time>2026-05-03T13:05:40.9Z</time></trkpt><trkpt lat="44.341119" lon="8.0093347"><ele>755.0</ele><time>2026-05-03T13:05:41.907Z</time></trkpt><trkpt lat="44.3411962" lon="8.0091666"><ele>755.0</ele><time>2026-05-03T13:05:42.902Z</time></trkpt><trkpt lat="44.3412547" lon="8.0089879"><ele>755.0</ele><time>2026-05-03T13:05:43.9Z</time></trkpt><trkpt lat="44.3412646" lon="8.0087887"><ele>755.0</ele><time>2026-05-03T13:05:44.906Z</time></trkpt><trkpt lat="44.3412387" lon="8.0085802"><ele>755.0</ele><time>2026-05-03T13:05:45.911Z</time></trkpt><trkpt lat="44.3412098" lon="8.0083488"><ele>755.0</ele><time>2026-05-03T13:05:46.904Z</time></trkpt><trkpt lat="44.3411773" lon="8.0081003"><ele>755.0</ele><time>2026-05-03T13:05:47.906Z</time></trkpt><trkpt lat="44.3411498" lon="8.0078533"><ele>755.0</ele><time>2026-05-03T13:05:48.907Z</time></trkpt><trkpt lat="44.3411073" lon="8.0076084"><ele>755.0</ele><time>2026-05-03T13:05:49.913Z</time></trkpt><trkpt lat="44.3410419" lon="8.0073788"><ele>754.5</ele><time>2026-05-03T13:05:50.904Z</time></trkpt><trkpt lat="44.3409671" lon="8.0071652"><ele>754.0</ele><time>2026-05-03T13:05:51.904Z</time></trkpt><trkpt lat="44.3409234" lon="8.0069697"><ele>753.5</ele><time>2026-05-03T13:05:52.905Z</time></trkpt><trkpt lat="44.3409178" lon="8.006786"><ele>753.0</ele><time>2026-05-03T13:05:53.91Z</time></trkpt><trkpt lat="44.340961" lon="8.0066257"><ele>750.0</ele><time>2026-05-03T13:05:54.91Z</time></trkpt><trkpt lat="44.3410586" lon="8.0064951"><ele>747.0</ele><time>2026-05-03T13:05:55.898Z</time></trkpt><trkpt lat="44.3411821" lon="8.0063767"><ele>744.0</ele><time>2026-05-03T13:05:56.917Z</time></trkpt><trkpt lat="44.3413355" lon="8.0062643"><ele>747.0</ele><time>2026-05-03T13:05:57.906Z</time></trkpt><trkpt lat="44.3414913" lon="8.0061406"><ele>750.0</ele><time>2026-05-03T13:05:58.913Z</time></trkpt><trkpt lat="44.3416474" lon="8.0060141"><ele>753.0</ele><time>2026-05-03T13:05:59.922Z</time></trkpt><trkpt lat="44.3418024" lon="8.0059045"><ele>751.3333333333334</ele><time>2026-05-03T13:06:00.911Z</time></trkpt><trkpt lat="44.3419538" lon="8.0058223"><ele>749.6666666666667</ele><time>2026-05-03T13:06:01.911Z</time></trkpt><trkpt lat="44.342126" lon="8.0058063"><ele>748.0</ele><time>2026-05-03T13:06:02.907Z</time></trkpt><trkpt lat="44.3423063" lon="8.0058592"><ele>748.0</ele><time>2026-05-03T13:06:03.906Z</time></trkpt><trkpt lat="44.3424643" lon="8.0059284"><ele>748.0</ele><time>2026-05-03T13:06:04.911Z</time></trkpt><trkpt lat="44.3426021" lon="8.0060245"><ele>748.0</ele><time>2026-05-03T13:06:05.909Z</time></trkpt><trkpt lat="44.3427004" lon="8.0061429"><ele>748.0</ele><time>2026-05-03T13:06:06.908Z</time></trkpt><trkpt lat="44.3427598" lon="8.0063134"><ele>748.0</ele><time>2026-05-03T13:06:07.905Z</time></trkpt><trkpt lat="44.3427611" lon="8.0064836"><ele>748.0</ele><time>2026-05-03T13:06:08.911Z</time></trkpt><trkpt lat="44.3427307" lon="8.006663"><ele>748.0</ele><time>2026-05-03T13:06:09.908Z</time></trkpt><trkpt lat="44.3426758" lon="8.006845"><ele>748.0</ele><time>2026-05-03T13:06:10.908Z</time></trkpt><trkpt lat="44.3426307" lon="8.0070288"><ele>749.5</ele><time>2026-05-03T13:06:11.917Z</time></trkpt><trkpt lat="44.342608" lon="8.0072168"><ele>751.0</ele><time>2026-05-03T13:06:12.918Z</time></trkpt><trkpt lat="44.3425901" lon="8.0074092"><ele>752.5</ele><time>2026-05-03T13:06:13.897Z</time></trkpt><trkpt lat="44.3426514" lon="8.007545"><ele>754.0</ele><time>2026-05-03T13:06:14.909Z</time></trkpt><trkpt lat="44.3427852" lon="8.0076041"><ele>754.25</ele><time>2026-05-03T13:06:15.908Z</time></trkpt><trkpt lat="44.3429428" lon="8.0076053"><ele>754.5</ele><time>2026-05-03T13:06:16.908Z</time></trkpt><trkpt lat="44.3430799" lon="8.0075859"><ele>754.75</ele><time>2026-05-03T13:06:17.91Z</time></trkpt><trkpt lat="44.3432032" lon="8.0075669"><ele>755.0</ele><time>2026-05-03T13:06:18.912Z</time></trkpt><trkpt lat="44.3433309" lon="8.0075751"><ele>751.25</ele><time>2026-05-03T13:06:19.904Z</time></trkpt><trkpt lat="44.3434642" lon="8.0076443"><ele>747.5</ele><time>2026-05-03T13:06:20.904Z</time></trkpt><trkpt lat="44.3435756" lon="8.0077592"><ele>743.75</ele><time>2026-05-03T13:06:21.9Z</time></trkpt><trkpt lat="44.3436702" lon="8.0078837"><ele>740.0</ele><time>2026-05-03T13:06:22.913Z</time></trkpt><trkpt lat="44.3437499" lon="8.0079614"><ele>740.0</ele><time>2026-05-03T13:06:23.907Z</time></trkpt><trkpt lat="44.3438479" lon="8.0079729"><ele>740.0</ele><time>2026-05-03T13:06:24.914Z</time></trkpt><trkpt lat="44.343953" lon="8.0079139"><ele>740.0</ele><time>2026-05-03T13:06:25.911Z</time></trkpt><trkpt lat="44.3440321" lon="8.0077998"><ele>740.0</ele><time>2026-05-03T13:06:26.915Z</time></trkpt><trkpt lat="44.3441152" lon="8.0076874"><ele>740.0</ele><time>2026-05-03T13:06:27.909Z</time></trkpt><trkpt lat="44.3442299" lon="8.0076103"><ele>737.25</ele><time>2026-05-03T13:06:28.904Z</time></trkpt><trkpt lat="44.3443364" lon="8.0076175"><ele>734.5</ele><time>2026-05-03T13:06:29.909Z</time></trkpt><trkpt lat="44.3444312" lon="8.0077129"><ele>731.75</ele><time>2026-05-03T13:06:30.907Z</time></trkpt><trkpt lat="44.3445019" lon="8.0078681"><ele>729.0</ele><time>2026-05-03T13:06:31.906Z</time></trkpt><trkpt lat="44.3445684" lon="8.0080416"><ele>729.0</ele><time>2026-05-03T13:06:32.91Z</time></trkpt><trkpt lat="44.3446532" lon="8.0081695"><ele>729.0</ele><time>2026-05-03T13:06:33.904Z</time></trkpt><trkpt lat="44.3447749" lon="8.0082619"><ele>729.0</ele><time>2026-05-03T13:06:34.908Z</time></trkpt><trkpt lat="44.3449084" lon="8.0082882"><ele>729.0</ele><time>2026-05-03T13:06:35.909Z</time></trkpt><trkpt lat="44.345063" lon="8.0082838"><ele>724.0</ele><time>2026-05-03T13:06:36.901Z</time></trkpt><trkpt lat="44.3452275" lon="8.0082479"><ele>719.0</ele><time>2026-05-03T13:06:37.899Z</time></trkpt><trkpt lat="44.3453943" lon="8.0082015"><ele>714.0</ele><time>2026-05-03T13:06:38.907Z</time></trkpt><trkpt lat="44.3455599" lon="8.0081368"><ele>711.6666666666666</ele><time>2026-05-03T13:06:39.91Z</time></trkpt><trkpt lat="44.3457166" lon="8.0080742"><ele>709.3333333333333</ele><time>2026-05-03T13:06:40.916Z</time></trkpt><trkpt lat="44.3458709" lon="8.0080054"><ele>707.0</ele><time>2026-05-03T13:06:41.909Z</time></trkpt><trkpt lat="44.3460168" lon="8.0079667"><ele>707.0</ele><time>2026-05-03T13:06:42.899Z</time></trkpt><trkpt lat="44.3461435" lon="8.0079767"><ele>707.0</ele><time>2026-05-03T13:06:43.909Z</time></trkpt><trkpt lat="44.3462514" lon="8.0080699"><ele>707.0</ele><time>2026-05-03T13:06:44.906Z</time></trkpt><trkpt lat="44.3463443" lon="8.0082326"><ele>707.0</ele><time>2026-05-03T13:06:45.914Z</time></trkpt><trkpt lat="44.3464359" lon="8.0084074"><ele>708.75</ele><time>2026-05-03T13:06:46.902Z</time></trkpt><trkpt lat="44.3465282" lon="8.0085631"><ele>710.5</ele><time>2026-05-03T13:06:47.908Z</time></trkpt><trkpt lat="44.3466489" lon="8.0086894"><ele>712.25</ele><time>2026-05-03T13:06:48.909Z</time></trkpt><trkpt lat="44.3467789" lon="8.0087791"><ele>714.0</ele><time>2026-05-03T13:06:49.902Z</time></trkpt><trkpt lat="44.3469197" lon="8.008813"><ele>714.0</ele><time>2026-05-03T13:06:50.903Z</time></trkpt><trkpt lat="44.3470886" lon="8.00881"><ele>714.0</ele><time>2026-05-03T13:06:51.899Z</time></trkpt><trkpt lat="44.3472503" lon="8.0087964"><ele>714.0</ele><time>2026-05-03T13:06:52.897Z</time></trkpt><trkpt lat="44.3474133" lon="8.0088251"><ele>709.0</ele><time>2026-05-03T13:06:53.913Z</time></trkpt><trkpt lat="44.3475696" lon="8.0088512"><ele>704.0</ele><time>2026-05-03T13:06:54.907Z</time></trkpt><trkpt lat="44.3477354" lon="8.008832"><ele>699.0</ele><time>2026-05-03T13:06:55.904Z</time></trkpt><trkpt lat="44.3478951" lon="8.0087768"><ele>698.3333333333334</ele><time>2026-05-03T13:06:56.912Z</time></trkpt><trkpt lat="44.3480471" lon="8.0087108"><ele>697.6666666666667</ele><time>2026-05-03T13:06:57.902Z</time></trkpt><trkpt lat="44.3481983" lon="8.0086596"><ele>697.0</ele><time>2026-05-03T13:06:58.908Z</time></trkpt><trkpt lat="44.3483511" lon="8.008653"><ele>697.0</ele><time>2026-05-03T13:06:59.912Z</time></trkpt><trkpt lat="44.3485072" lon="8.008693"><ele>697.0</ele><time>2026-05-03T13:07:00.907Z</time></trkpt><trkpt lat="44.3486665" lon="8.0087363"><ele>697.0</ele><time>2026-05-03T13:07:01.906Z</time></trkpt><trkpt lat="44.3488343" lon="8.0087377"><ele>697.0</ele><time>2026-05-03T13:07:02.905Z</time></trkpt><trkpt lat="44.349001" lon="8.0086663"><ele>697.0</ele><time>2026-05-03T13:07:03.91Z</time></trkpt><trkpt lat="44.3491623" lon="8.0085439"><ele>697.0</ele><time>2026-05-03T13:07:04.905Z</time></trkpt><trkpt lat="44.3493076" lon="8.0083891"><ele>693.6666666666667</ele><time>2026-05-03T13:07:05.908Z</time></trkpt><trkpt lat="44.3494448" lon="8.0082511"><ele>690.3333333333334</ele><time>2026-05-03T13:07:06.905Z</time></trkpt><trkpt lat="44.3495785" lon="8.0081321"><ele>687.0</ele><time>2026-05-03T13:07:07.902Z</time></trkpt><trkpt lat="44.3497176" lon="8.0080533"><ele>687.0</ele><time>2026-05-03T13:07:08.91Z</time></trkpt><trkpt lat="44.3498638" lon="8.0079989"><ele>687.0</ele><time>2026-05-03T13:07:09.904Z</time></trkpt><trkpt lat="44.3500327" lon="8.0080047"><ele>687.0</ele><time>2026-05-03T13:07:10.908Z</time></trkpt><trkpt lat="44.3501901" lon="8.0080719"><ele>687.0</ele><time>2026-05-03T13:07:11.905Z</time></trkpt><trkpt lat="44.3503341" lon="8.0081485"><ele>687.0</ele><time>2026-05-03T13:07:12.913Z</time></trkpt><trkpt lat="44.3504645" lon="8.0081731"><ele>687.0</ele><time>2026-05-03T13:07:13.913Z</time></trkpt><trkpt lat="44.3505861" lon="8.0081452"><ele>687.0</ele><time>2026-05-03T13:07:14.905Z</time></trkpt><trkpt lat="44.3506933" lon="8.0080581"><ele>687.0</ele><time>2026-05-03T13:07:15.91Z</time></trkpt><trkpt lat="44.3507688" lon="8.0079096"><ele>687.0</ele><time>2026-05-03T13:07:16.917Z</time></trkpt><trkpt lat="44.3508318" lon="8.0077382"><ele>687.0</ele><time>2026-05-03T13:07:17.91Z</time></trkpt><trkpt lat="44.3509027" lon="8.0075815"><ele>687.0</ele><time>2026-05-03T13:07:18.9Z</time></trkpt><trkpt lat="44.3510132" lon="8.0074608"><ele>688.25</ele><time>2026-05-03T13:07:19.9Z</time></trkpt><trkpt lat="44.3511624" lon="8.0074028"><ele>689.5</ele><time>2026-05-03T13:07:20.907Z</time></trkpt><trkpt lat="44.3512788" lon="8.0073299"><ele>690.75</ele><time>2026-05-03T13:07:21.903Z</time></trkpt><trkpt lat="44.3513504" lon="8.0072249"><ele>692.0</ele><time>2026-05-03T13:07:22.902Z</time></trkpt><trkpt lat="44.3513808" lon="8.0070666"><ele>685.6666666666666</ele><time>2026-05-03T13:07:23.901Z</time></trkpt><trkpt lat="44.3513705" lon="8.0068696"><ele>679.3333333333334</ele><time>2026-05-03T13:07:24.901Z</time></trkpt><trkpt lat="44.3513619" lon="8.0066561"><ele>673.0</ele><time>2026-05-03T13:07:25.906Z</time></trkpt><trkpt lat="44.3513622" lon="8.0064237"><ele>673.6666666666667</ele><time>2026-05-03T13:07:26.911Z</time></trkpt><trkpt lat="44.3514128" lon="8.0061808"><ele>674.3333333333334</ele><time>2026-05-03T13:07:27.909Z</time></trkpt><trkpt lat="44.3514975" lon="8.005951"><ele>675.0</ele><time>2026-05-03T13:07:28.907Z</time></trkpt><trkpt lat="44.3515593" lon="8.0057122"><ele>675.0</ele><time>2026-05-03T13:07:29.902Z</time></trkpt><trkpt lat="44.351589" lon="8.0054924"><ele>675.0</ele><time>2026-05-03T13:07:30.908Z</time></trkpt><trkpt lat="44.3515894" lon="8.0052524"><ele>675.0</ele><time>2026-05-03T13:07:31.906Z</time></trkpt><trkpt lat="44.3515841" lon="8.0050238"><ele>671.3333333333334</ele><time>2026-05-03T13:07:32.911Z</time></trkpt><trkpt lat="44.3516057" lon="8.0048092"><ele>667.6666666666667</ele><time>2026-05-03T13:07:33.917Z</time></trkpt><trkpt lat="44.3516625" lon="8.0046113"><ele>664.0</ele><time>2026-05-03T13:07:34.913Z</time></trkpt><trkpt lat="44.3517571" lon="8.0044483"><ele>664.0</ele><time>2026-05-03T13:07:35.907Z</time></trkpt><trkpt lat="44.3518592" lon="8.0043377"><ele>664.0</ele><time>2026-05-03T13:07:36.91Z</time></trkpt><trkpt lat="44.3519915" lon="8.0042945"><ele>664.0</ele><time>2026-05-03T13:07:37.907Z</time></trkpt><trkpt lat="44.3521304" lon="8.0042955"><ele>664.0</ele><time>2026-05-03T13:07:38.919Z</time></trkpt><trkpt lat="44.3522582" lon="8.0043664"><ele>665.0</ele><time>2026-05-03T13:07:39.909Z</time></trkpt><trkpt lat="44.3523962" lon="8.0044669"><ele>666.0</ele><time>2026-05-03T13:07:40.907Z</time></trkpt><trkpt lat="44.3525429" lon="8.0045734"><ele>667.0</ele><time>2026-05-03T13:07:41.911Z</time></trkpt><trkpt lat="44.3526959" lon="8.0046632"><ele>667.0</ele><time>2026-05-03T13:07:42.91Z</time></trkpt><trkpt lat="44.3528434" lon="8.0047624"><ele>667.0</ele><time>2026-05-03T13:07:43.908Z</time></trkpt><trkpt lat="44.3529854" lon="8.0048763"><ele>667.0</ele><time>2026-05-03T13:07:44.911Z</time></trkpt><trkpt lat="44.3531237" lon="8.0050123"><ele>666.0</ele><time>2026-05-03T13:07:45.91Z</time></trkpt><trkpt lat="44.3532438" lon="8.0051904"><ele>665.0</ele><time>2026-05-03T13:07:46.918Z</time></trkpt><trkpt lat="44.3533509" lon="8.0053825"><ele>664.0</ele><time>2026-05-03T13:07:47.917Z</time></trkpt><trkpt lat="44.3534532" lon="8.0055773"><ele>664.0</ele><time>2026-05-03T13:07:48.907Z</time></trkpt><trkpt lat="44.3535686" lon="8.0057529"><ele>664.0</ele><time>2026-05-03T13:07:49.902Z</time></trkpt><trkpt lat="44.3536897" lon="8.0058886"><ele>664.0</ele><time>2026-05-03T13:07:50.909Z</time></trkpt><trkpt lat="44.3537937" lon="8.0060227"><ele>665.5</ele><time>2026-05-03T13:07:51.911Z</time></trkpt><trkpt lat="44.3538581" lon="8.0061899"><ele>667.0</ele><time>2026-05-03T13:07:52.915Z</time></trkpt><trkpt lat="44.3538916" lon="8.0063772"><ele>668.5</ele><time>2026-05-03T13:07:53.908Z</time></trkpt><trkpt lat="44.3538696" lon="8.006581"><ele>670.0</ele><time>2026-05-03T13:07:54.909Z</time></trkpt><trkpt lat="44.3537994" lon="8.0067635"><ele>671.4</ele><time>2026-05-03T13:07:55.904Z</time></trkpt><trkpt lat="44.3537428" lon="8.0069195"><ele>672.8</ele><time>2026-05-03T13:07:56.908Z</time></trkpt><trkpt lat="44.3537313" lon="8.0070569"><ele>674.2</ele><time>2026-05-03T13:07:57.907Z</time></trkpt><trkpt lat="44.3537627" lon="8.0071891"><ele>675.6</ele><time>2026-05-03T13:07:58.906Z</time></trkpt><trkpt lat="44.3538463" lon="8.0072935"><ele>677.0</ele><time>2026-05-03T13:07:59.886Z</time></trkpt><trkpt lat="44.3539799" lon="8.0073557"><ele>671.25</ele><time>2026-05-03T13:08:00.917Z</time></trkpt><trkpt lat="44.3541253" lon="8.007398"><ele>665.5</ele><time>2026-05-03T13:08:01.905Z</time></trkpt><trkpt lat="44.3542672" lon="8.0074464"><ele>659.75</ele><time>2026-05-03T13:08:02.901Z</time></trkpt><trkpt lat="44.3544117" lon="8.0075026"><ele>654.0</ele><time>2026-05-03T13:08:03.91Z</time></trkpt><trkpt lat="44.3545569" lon="8.0075972"><ele>654.0</ele><time>2026-05-03T13:08:04.897Z</time></trkpt><trkpt lat="44.3546915" lon="8.0077043"><ele>654.0</ele><time>2026-05-03T13:08:05.917Z</time></trkpt><trkpt lat="44.3548161" lon="8.0078188"><ele>654.0</ele><time>2026-05-03T13:08:06.905Z</time></trkpt><trkpt lat="44.354892" lon="8.0079586"><ele>654.0</ele><time>2026-05-03T13:08:07.904Z</time></trkpt><trkpt lat="44.3548878" lon="8.0081525"><ele>651.0</ele><time>2026-05-03T13:08:08.904Z</time></trkpt><trkpt lat="44.3548533" lon="8.0083192"><ele>648.0</ele><time>2026-05-03T13:08:09.899Z</time></trkpt><trkpt lat="44.3548518" lon="8.0084651"><ele>645.0</ele><time>2026-05-03T13:08:10.903Z</time></trkpt><trkpt lat="44.3548996" lon="8.0085835"><ele>642.0</ele><time>2026-05-03T13:08:11.907Z</time></trkpt><trkpt lat="44.355002" lon="8.0086464"><ele>639.0</ele><time>2026-05-03T13:08:12.901Z</time></trkpt><trkpt lat="44.3551154" lon="8.0086861"><ele>639.0</ele><time>2026-05-03T13:08:13.9Z</time></trkpt><trkpt lat="44.355257" lon="8.0087071"><ele>639.0</ele><time>2026-05-03T13:08:14.9Z</time></trkpt><trkpt lat="44.3554006" lon="8.0086788"><ele>639.0</ele><time>2026-05-03T13:08:15.906Z</time></trkpt><trkpt lat="44.3555503" lon="8.0085983"><ele>639.0</ele><time>2026-05-03T13:08:16.906Z</time></trkpt><trkpt lat="44.355677" lon="8.0085195"><ele>635.0</ele><time>2026-05-03T13:08:17.905Z</time></trkpt><trkpt lat="44.355805" lon="8.0085294"><ele>631.0</ele><time>2026-05-03T13:08:18.902Z</time></trkpt><trkpt lat="44.3559228" lon="8.0086054"><ele>627.0</ele><time>2026-05-03T13:08:19.903Z</time></trkpt><trkpt lat="44.3560053" lon="8.0087475"><ele>623.0</ele><time>2026-05-03T13:08:20.91Z</time></trkpt><trkpt lat="44.3560591" lon="8.0089117"><ele>623.0</ele><time>2026-05-03T13:08:21.909Z</time></trkpt><trkpt lat="44.3560964" lon="8.0090983"><ele>623.0</ele><time>2026-05-03T13:08:22.907Z</time></trkpt><trkpt lat="44.3561024" lon="8.009284"><ele>623.0</ele><time>2026-05-03T13:08:23.909Z</time></trkpt><trkpt lat="44.3560711" lon="8.0094624"><ele>623.0</ele><time>2026-05-03T13:08:24.912Z</time></trkpt><trkpt lat="44.3560379" lon="8.0096282"><ele>625.4</ele><time>2026-05-03T13:08:25.924Z</time></trkpt><trkpt lat="44.3560638" lon="8.0097692"><ele>627.8</ele><time>2026-05-03T13:08:26.912Z</time></trkpt><trkpt lat="44.3561206" lon="8.0098695"><ele>630.2</ele><time>2026-05-03T13:08:27.905Z</time></trkpt><trkpt lat="44.3562175" lon="8.0099555"><ele>632.6</ele><time>2026-05-03T13:08:28.903Z</time></trkpt><trkpt lat="44.3563367" lon="8.0100538"><ele>635.0</ele><time>2026-05-03T13:08:29.916Z</time></trkpt><trkpt lat="44.3564501" lon="8.0101835"><ele>626.3333333333333</ele><time>2026-05-03T13:08:30.904Z</time></trkpt><trkpt lat="44.3565378" lon="8.0103452"><ele>617.6666666666666</ele><time>2026-05-03T13:08:31.901Z</time></trkpt><trkpt lat="44.3566057" lon="8.0105311"><ele>609.0</ele><time>2026-05-03T13:08:32.903Z</time></trkpt><trkpt lat="44.3566427" lon="8.010744"><ele>611.3333333333334</ele><time>2026-05-03T13:08:33.903Z</time></trkpt><trkpt lat="44.3566759" lon="8.0109685"><ele>613.6666666666667</ele><time>2026-05-03T13:08:34.903Z</time></trkpt><trkpt lat="44.3567103" lon="8.01118"><ele>616.0</ele><time>2026-05-03T13:08:35.908Z</time></trkpt><trkpt lat="44.356754" lon="8.0113735"><ele>616.0</ele><time>2026-05-03T13:08:36.905Z</time></trkpt><trkpt lat="44.3568373" lon="8.0115315"><ele>616.0</ele><time>2026-05-03T13:08:37.9Z</time></trkpt><trkpt lat="44.3569528" lon="8.0116758"><ele>616.0</ele><time>2026-05-03T13:08:38.906Z</time></trkpt><trkpt lat="44.3571089" lon="8.0118165"><ele>610.3333333333334</ele><time>2026-05-03T13:08:39.903Z</time></trkpt><trkpt lat="44.3572755" lon="8.0119639"><ele>604.6666666666666</ele><time>2026-05-03T13:08:40.898Z</time></trkpt><trkpt lat="44.357445" lon="8.0121176"><ele>599.0</ele><time>2026-05-03T13:08:41.903Z</time></trkpt><trkpt lat="44.3576126" lon="8.0122686"><ele>599.0</ele><time>2026-05-03T13:08:42.899Z</time></trkpt><trkpt lat="44.3577762" lon="8.0124235"><ele>599.0</ele><time>2026-05-03T13:08:43.898Z</time></trkpt><trkpt lat="44.3579378" lon="8.0125708"><ele>599.0</ele><time>2026-05-03T13:08:44.908Z</time></trkpt><trkpt lat="44.3581025" lon="8.0127142"><ele>594.0</ele><time>2026-05-03T13:08:45.905Z</time></trkpt><trkpt lat="44.3582691" lon="8.0128502"><ele>589.0</ele><time>2026-05-03T13:08:46.899Z</time></trkpt><trkpt lat="44.3584447" lon="8.0129687"><ele>584.0</ele><time>2026-05-03T13:08:47.904Z</time></trkpt><trkpt lat="44.3586192" lon="8.0130776"><ele>584.0</ele><time>2026-05-03T13:08:48.902Z</time></trkpt><trkpt lat="44.3587942" lon="8.0131829"><ele>584.0</ele><time>2026-05-03T13:08:49.907Z</time></trkpt><trkpt lat="44.3589753" lon="8.0132769"><ele>584.0</ele><time>2026-05-03T13:08:50.905Z</time></trkpt><trkpt lat="44.3591551" lon="8.0133891"><ele>581.3333333333333</ele><time>2026-05-03T13:08:51.905Z</time></trkpt><trkpt lat="44.3593344" lon="8.0134954"><ele>578.6666666666666</ele><time>2026-05-03T13:08:52.902Z</time></trkpt><trkpt lat="44.3595124" lon="8.0136055"><ele>576.0</ele><time>2026-05-03T13:08:53.901Z</time></trkpt><trkpt lat="44.3596845" lon="8.0137229"><ele>573.6666666666666</ele><time>2026-05-03T13:08:54.91Z</time></trkpt><trkpt lat="44.3598437" lon="8.0138677"><ele>571.3333333333333</ele><time>2026-05-03T13:08:55.911Z</time></trkpt><trkpt lat="44.3599841" lon="8.0140349"><ele>569.0</ele><time>2026-05-03T13:08:56.909Z</time></trkpt><trkpt lat="44.360123" lon="8.014216"><ele>569.0</ele><time>2026-05-03T13:08:57.911Z</time></trkpt><trkpt lat="44.3602727" lon="8.0143792"><ele>569.0</ele><time>2026-05-03T13:08:58.904Z</time></trkpt><trkpt lat="44.3604254" lon="8.0145174"><ele>569.0</ele><time>2026-05-03T13:08:59.906Z</time></trkpt><trkpt lat="44.3605905" lon="8.0146472"><ele>563.6666666666666</ele><time>2026-05-03T13:09:00.911Z</time></trkpt><trkpt lat="44.3607608" lon="8.0147632"><ele>558.3333333333334</ele><time>2026-05-03T13:09:01.906Z</time></trkpt><trkpt lat="44.360929" lon="8.0148641"><ele>553.0</ele><time>2026-05-03T13:09:02.908Z</time></trkpt><trkpt lat="44.361095" lon="8.0149353"><ele>554.6666666666667</ele><time>2026-05-03T13:09:03.908Z</time></trkpt><trkpt lat="44.3612588" lon="8.0149915"><ele>556.3333333333334</ele><time>2026-05-03T13:09:04.909Z</time></trkpt><trkpt lat="44.3614242" lon="8.0150364"><ele>558.0</ele><time>2026-05-03T13:09:05.903Z</time></trkpt><trkpt lat="44.3615791" lon="8.0150852"><ele>558.0</ele><time>2026-05-03T13:09:06.904Z</time></trkpt><trkpt lat="44.3617247" lon="8.0151535"><ele>558.0</ele><time>2026-05-03T13:09:07.914Z</time></trkpt><trkpt lat="44.361863" lon="8.0152548"><ele>558.0</ele><time>2026-05-03T13:09:08.91Z</time></trkpt><trkpt lat="44.3619966" lon="8.0153884"><ele>558.0</ele><time>2026-05-03T13:09:09.902Z</time></trkpt><trkpt lat="44.3621231" lon="8.0155336"><ele>558.0</ele><time>2026-05-03T13:09:10.913Z</time></trkpt><trkpt lat="44.3622453" lon="8.015688"><ele>558.0</ele><time>2026-05-03T13:09:11.907Z</time></trkpt><trkpt lat="44.3623566" lon="8.0158339"><ele>556.3333333333334</ele><time>2026-05-03T13:09:12.905Z</time></trkpt><trkpt lat="44.3624566" lon="8.0159875"><ele>554.6666666666667</ele><time>2026-05-03T13:09:13.909Z</time></trkpt><trkpt lat="44.362533" lon="8.0161689"><ele>553.0</ele><time>2026-05-03T13:09:14.911Z</time></trkpt><trkpt lat="44.36259" lon="8.0163812"><ele>553.0</ele><time>2026-05-03T13:09:15.906Z</time></trkpt><trkpt lat="44.3626211" lon="8.0166042"><ele>553.0</ele><time>2026-05-03T13:09:16.909Z</time></trkpt><trkpt lat="44.3626552" lon="8.0168249"><ele>553.0</ele><time>2026-05-03T13:09:17.91Z</time></trkpt><trkpt lat="44.3627001" lon="8.0170242"><ele>553.3333333333334</ele><time>2026-05-03T13:09:18.911Z</time></trkpt><trkpt lat="44.362756" lon="8.0172301"><ele>553.6666666666666</ele><time>2026-05-03T13:09:19.902Z</time></trkpt><trkpt lat="44.3628102" lon="8.0174361"><ele>554.0</ele><time>2026-05-03T13:09:20.91Z</time></trkpt><trkpt lat="44.3628723" lon="8.0176362"><ele>554.0</ele><time>2026-05-03T13:09:21.905Z</time></trkpt><trkpt lat="44.362945" lon="8.017823"><ele>554.0</ele><time>2026-05-03T13:09:22.912Z</time></trkpt><trkpt lat="44.3630332" lon="8.018009"><ele>554.0</ele><time>2026-05-03T13:09:23.916Z</time></trkpt><trkpt lat="44.3631328" lon="8.0181707"><ele>550.6666666666666</ele><time>2026-05-03T13:09:24.903Z</time></trkpt><trkpt lat="44.3632528" lon="8.0183228"><ele>547.3333333333334</ele><time>2026-05-03T13:09:25.916Z</time></trkpt><trkpt lat="44.3633802" lon="8.0184712"><ele>544.0</ele><time>2026-05-03T13:09:26.905Z</time></trkpt><trkpt lat="44.3635054" lon="8.0186159"><ele>544.0</ele><time>2026-05-03T13:09:27.909Z</time></trkpt><trkpt lat="44.3636352" lon="8.0187547"><ele>544.0</ele><time>2026-05-03T13:09:28.907Z</time></trkpt><trkpt lat="44.3637666" lon="8.018862"><ele>544.0</ele><time>2026-05-03T13:09:29.918Z</time></trkpt><trkpt lat="44.3639186" lon="8.0189264"><ele>539.6666666666667</ele><time>2026-05-03T13:09:30.913Z</time></trkpt><trkpt lat="44.3640787" lon="8.0189335"><ele>535.3333333333334</ele><time>2026-05-03T13:09:31.905Z</time></trkpt><trkpt lat="44.3642527" lon="8.0188911"><ele>531.0</ele><time>2026-05-03T13:09:32.912Z</time></trkpt><trkpt lat="44.3644139" lon="8.0188166"><ele>531.0</ele><time>2026-05-03T13:09:33.908Z</time></trkpt><trkpt lat="44.3645365" lon="8.0186939"><ele>531.0</ele><time>2026-05-03T13:09:34.9Z</time></trkpt><trkpt lat="44.3646413" lon="8.01855"><ele>531.0</ele><time>2026-05-03T13:09:35.903Z</time></trkpt><trkpt lat="44.3647401" lon="8.0184018"><ele>531.0</ele><time>2026-05-03T13:09:36.907Z</time></trkpt><trkpt lat="44.3648263" lon="8.0182481"><ele>529.75</ele><time>2026-05-03T13:09:37.909Z</time></trkpt><trkpt lat="44.3649066" lon="8.0180883"><ele>528.5</ele><time>2026-05-03T13:09:38.907Z</time></trkpt><trkpt lat="44.3649858" lon="8.0179195"><ele>527.25</ele><time>2026-05-03T13:09:39.914Z</time></trkpt><trkpt lat="44.3650718" lon="8.0177459"><ele>526.0</ele><time>2026-05-03T13:09:40.911Z</time></trkpt><trkpt lat="44.3651654" lon="8.017551"><ele>522.6666666666667</ele><time>2026-05-03T13:09:41.916Z</time></trkpt><trkpt lat="44.365264" lon="8.0173489"><ele>519.3333333333334</ele><time>2026-05-03T13:09:42.908Z</time></trkpt><trkpt lat="44.3653695" lon="8.0171561"><ele>516.0</ele><time>2026-05-03T13:09:43.91Z</time></trkpt><trkpt lat="44.3654821" lon="8.0169701"><ele>517.6666666666666</ele><time>2026-05-03T13:09:44.91Z</time></trkpt><trkpt lat="44.3655968" lon="8.0167902"><ele>519.3333333333333</ele><time>2026-05-03T13:09:45.909Z</time></trkpt><trkpt lat="44.3657106" lon="8.0166311"><ele>521.0</ele><time>2026-05-03T13:09:46.914Z</time></trkpt><trkpt lat="44.3658239" lon="8.0165101"><ele>521.0</ele><time>2026-05-03T13:09:47.921Z</time></trkpt><trkpt lat="44.3659454" lon="8.0164265"><ele>521.0</ele><time>2026-05-03T13:09:48.913Z</time></trkpt><trkpt lat="44.3660849" lon="8.0164325"><ele>521.0</ele><time>2026-05-03T13:09:49.907Z</time></trkpt><trkpt lat="44.3662372" lon="8.0164786"><ele>521.0</ele><time>2026-05-03T13:09:50.91Z</time></trkpt><trkpt lat="44.3663879" lon="8.0165054"><ele>518.3333333333333</ele><time>2026-05-03T13:09:51.908Z</time></trkpt><trkpt lat="44.3665396" lon="8.0164775"><ele>515.6666666666666</ele><time>2026-05-03T13:09:52.909Z</time></trkpt><trkpt lat="44.3667085" lon="8.0164227"><ele>513.0</ele><time>2026-05-03T13:09:53.909Z</time></trkpt><trkpt lat="44.366873" lon="8.0163387"><ele>513.0</ele><time>2026-05-03T13:09:54.909Z</time></trkpt><trkpt lat="44.367035" lon="8.0162613"><ele>513.0</ele><time>2026-05-03T13:09:55.918Z</time></trkpt><trkpt lat="44.3671869" lon="8.016195"><ele>513.0</ele><time>2026-05-03T13:09:56.904Z</time></trkpt><trkpt lat="44.3673443" lon="8.0161753"><ele>510.0</ele><time>2026-05-03T13:09:57.905Z</time></trkpt><trkpt lat="44.3674937" lon="8.01624"><ele>507.0</ele><time>2026-05-03T13:09:58.909Z</time></trkpt><trkpt lat="44.3676331" lon="8.0163421"><ele>504.0</ele><time>2026-05-03T13:09:59.91Z</time></trkpt><trkpt lat="44.3677683" lon="8.0164773"><ele>504.0</ele><time>2026-05-03T13:10:00.911Z</time></trkpt><trkpt lat="44.3679087" lon="8.0166037"><ele>504.0</ele><time>2026-05-03T13:10:01.909Z</time></trkpt><trkpt lat="44.3680597" lon="8.0167348"><ele>504.0</ele><time>2026-05-03T13:10:02.909Z</time></trkpt><trkpt lat="44.3682187" lon="8.016859"><ele>500.33333333333337</ele><time>2026-05-03T13:10:03.903Z</time></trkpt><trkpt lat="44.3683801" lon="8.0169852"><ele>496.6666666666667</ele><time>2026-05-03T13:10:04.904Z</time></trkpt><trkpt lat="44.3685464" lon="8.0171049"><ele>493.0</ele><time>2026-05-03T13:10:05.91Z</time></trkpt><trkpt lat="44.3687179" lon="8.0172272"><ele>492.33333333333337</ele><time>2026-05-03T13:10:06.907Z</time></trkpt><trkpt lat="44.3688879" lon="8.0173491"><ele>491.66666666666663</ele><time>2026-05-03T13:10:07.909Z</time></trkpt><trkpt lat="44.3690495" lon="8.0174663"><ele>491.0</ele><time>2026-05-03T13:10:08.914Z</time></trkpt><trkpt lat="44.3692063" lon="8.0175768"><ele>491.0</ele><time>2026-05-03T13:10:09.909Z</time></trkpt><trkpt lat="44.3693573" lon="8.0176716"><ele>491.0</ele><time>2026-05-03T13:10:10.921Z</time></trkpt><trkpt lat="44.3695088" lon="8.0177465"><ele>491.0</ele><time>2026-05-03T13:10:11.909Z</time></trkpt><trkpt lat="44.3696578" lon="8.0178135"><ele>490.0</ele><time>2026-05-03T13:10:12.906Z</time></trkpt><trkpt lat="44.3697987" lon="8.0178907"><ele>489.0</ele><time>2026-05-03T13:10:13.908Z</time></trkpt><trkpt lat="44.3699406" lon="8.0179574"><ele>488.0</ele><time>2026-05-03T13:10:14.906Z</time></trkpt><trkpt lat="44.37008" lon="8.0179975"><ele>487.0</ele><time>2026-05-03T13:10:15.906Z</time></trkpt><trkpt lat="44.3702281" lon="8.0179871"><ele>487.0</ele><time>2026-05-03T13:10:16.915Z</time></trkpt><trkpt lat="44.3703854" lon="8.0179265"><ele>487.0</ele><time>2026-05-03T13:10:17.92Z</time></trkpt><trkpt lat="44.3705447" lon="8.0178428"><ele>487.0</ele><time>2026-05-03T13:10:18.914Z</time></trkpt><trkpt lat="44.3707029" lon="8.0177332"><ele>485.6666666666667</ele><time>2026-05-03T13:10:19.911Z</time></trkpt><trkpt lat="44.3708515" lon="8.0175926"><ele>484.33333333333337</ele><time>2026-05-03T13:10:20.91Z</time></trkpt><trkpt lat="44.3709862" lon="8.0174366"><ele>483.0</ele><time>2026-05-03T13:10:21.914Z</time></trkpt><trkpt lat="44.3711148" lon="8.0172836"><ele>481.0</ele><time>2026-05-03T13:10:22.917Z</time></trkpt><trkpt lat="44.371236" lon="8.0171129"><ele>479.0</ele><time>2026-05-03T13:10:23.908Z</time></trkpt><trkpt lat="44.3713483" lon="8.0169271"><ele>477.0</ele><time>2026-05-03T13:10:24.916Z</time></trkpt><trkpt lat="44.371462" lon="8.0167337"><ele>476.0</ele><time>2026-05-03T13:10:25.905Z</time></trkpt><trkpt lat="44.3715788" lon="8.0165487"><ele>475.0</ele><time>2026-05-03T13:10:26.911Z</time></trkpt><trkpt lat="44.3717006" lon="8.016373"><ele>474.0</ele><time>2026-05-03T13:10:27.923Z</time></trkpt><trkpt lat="44.3718257" lon="8.0162155"><ele>474.0</ele><time>2026-05-03T13:10:28.913Z</time></trkpt><trkpt lat="44.3719671" lon="8.0160753"><ele>474.0</ele><time>2026-05-03T13:10:29.9Z</time></trkpt><trkpt lat="44.3721085" lon="8.0159511"><ele>474.0</ele><time>2026-05-03T13:10:30.91Z</time></trkpt><trkpt lat="44.3722499" lon="8.0158365"><ele>476.25</ele><time>2026-05-03T13:10:31.909Z</time></trkpt><trkpt lat="44.3723975" lon="8.0157314"><ele>478.5</ele><time>2026-05-03T13:10:32.912Z</time></trkpt><trkpt lat="44.3725455" lon="8.015695"><ele>480.75</ele><time>2026-05-03T13:10:33.904Z</time></trkpt><trkpt lat="44.3726718" lon="8.0157322"><ele>483.0</ele><time>2026-05-03T13:10:34.912Z</time></trkpt><trkpt lat="44.3727632" lon="8.0158096"><ele>481.5</ele><time>2026-05-03T13:10:35.907Z</time></trkpt><trkpt lat="44.3728274" lon="8.0159548"><ele>480.0</ele><time>2026-05-03T13:10:36.911Z</time></trkpt><trkpt lat="44.3728421" lon="8.0161221"><ele>478.5</ele><time>2026-05-03T13:10:37.911Z</time></trkpt><trkpt lat="44.3728191" lon="8.0162837"><ele>477.0</ele><time>2026-05-03T13:10:38.905Z</time></trkpt><trkpt lat="44.3727563" lon="8.0164514"><ele>477.0</ele><time>2026-05-03T13:10:39.902Z</time></trkpt><trkpt lat="44.3726726" lon="8.0166335"><ele>477.0</ele><time>2026-05-03T13:10:40.905Z</time></trkpt><trkpt lat="44.3725807" lon="8.0168398"><ele>477.0</ele><time>2026-05-03T13:10:41.913Z</time></trkpt><trkpt lat="44.3724905" lon="8.0170414"><ele>473.66666666666663</ele><time>2026-05-03T13:10:42.905Z</time></trkpt><trkpt lat="44.3724004" lon="8.0172462"><ele>470.3333333333333</ele><time>2026-05-03T13:10:43.906Z</time></trkpt><trkpt lat="44.3723081" lon="8.0174521"><ele>467.0</ele><time>2026-05-03T13:10:44.913Z</time></trkpt><trkpt lat="44.3722119" lon="8.017657"><ele>467.75</ele><time>2026-05-03T13:10:45.898Z</time></trkpt><trkpt lat="44.3721236" lon="8.0178442"><ele>468.5</ele><time>2026-05-03T13:10:46.904Z</time></trkpt><trkpt lat="44.3720403" lon="8.0180111"><ele>469.25</ele><time>2026-05-03T13:10:47.897Z</time></trkpt><trkpt lat="44.3719644" lon="8.0181568"><ele>470.0</ele><time>2026-05-03T13:10:48.907Z</time></trkpt><trkpt lat="44.3719085" lon="8.0182835"><ele>468.49999999999994</ele><time>2026-05-03T13:10:49.905Z</time></trkpt><trkpt lat="44.3718751" lon="8.0184046"><ele>467.0</ele><time>2026-05-03T13:10:50.898Z</time></trkpt><trkpt lat="44.3718951" lon="8.0185115"><ele>465.5</ele><time>2026-05-03T13:10:51.907Z</time></trkpt><trkpt lat="44.3719402" lon="8.0185997"><ele>464.0</ele><time>2026-05-03T13:10:52.905Z</time></trkpt><trkpt lat="44.3720212" lon="8.0186323"><ele>462.49999999999994</ele><time>2026-05-03T13:10:53.921Z</time></trkpt><trkpt lat="44.3721242" lon="8.0186223"><ele>461.0</ele><time>2026-05-03T13:10:54.913Z</time></trkpt><trkpt lat="44.372245" lon="8.0185626"><ele>459.25</ele><time>2026-05-03T13:10:55.906Z</time></trkpt><trkpt lat="44.3723677" lon="8.0184918"><ele>457.5</ele><time>2026-05-03T13:10:56.909Z</time></trkpt><trkpt lat="44.372507" lon="8.0184309"><ele>455.75</ele><time>2026-05-03T13:10:57.907Z</time></trkpt><trkpt lat="44.3726583" lon="8.0183632"><ele>454.0</ele><time>2026-05-03T13:10:58.906Z</time></trkpt><trkpt lat="44.3728008" lon="8.0182908"><ele>454.0</ele><time>2026-05-03T13:10:59.901Z</time></trkpt><trkpt lat="44.3729396" lon="8.0182137"><ele>454.0</ele><time>2026-05-03T13:11:00.91Z</time></trkpt><trkpt lat="44.3730799" lon="8.0181349"><ele>454.0</ele><time>2026-05-03T13:11:01.907Z</time></trkpt><trkpt lat="44.3732214" lon="8.0180652"><ele>451.25</ele><time>2026-05-03T13:11:02.908Z</time></trkpt><trkpt lat="44.3733573" lon="8.0180287"><ele>448.5</ele><time>2026-05-03T13:11:03.907Z</time></trkpt><trkpt lat="44.3734917" lon="8.0180712"><ele>445.75</ele><time>2026-05-03T13:11:04.906Z</time></trkpt><trkpt lat="44.3736157" lon="8.0181481"><ele>443.0</ele><time>2026-05-03T13:11:05.902Z</time></trkpt><trkpt lat="44.3737081" lon="8.0182741"><ele>439.66666666666663</ele><time>2026-05-03T13:11:06.903Z</time></trkpt><trkpt lat="44.3738008" lon="8.0184519"><ele>436.33333333333337</ele><time>2026-05-03T13:11:07.903Z</time></trkpt><trkpt lat="44.3738943" lon="8.0186428"><ele>433.0</ele><time>2026-05-03T13:11:08.908Z</time></trkpt><trkpt lat="44.373992" lon="8.0188348"><ele>430.33333333333337</ele><time>2026-05-03T13:11:09.911Z</time></trkpt><trkpt lat="44.3740913" lon="8.0190202"><ele>427.66666666666663</ele><time>2026-05-03T13:11:10.91Z</time></trkpt><trkpt lat="44.3741851" lon="8.0192098"><ele>425.0</ele><time>2026-05-03T13:11:11.905Z</time></trkpt><trkpt lat="44.3742749" lon="8.0194066"><ele>424.66666666666663</ele><time>2026-05-03T13:11:12.903Z</time></trkpt><trkpt lat="44.3743632" lon="8.0195928"><ele>424.33333333333337</ele><time>2026-05-03T13:11:13.909Z</time></trkpt><trkpt lat="44.3744559" lon="8.0197754"><ele>424.0</ele><time>2026-05-03T13:11:14.912Z</time></trkpt><trkpt lat="44.3745642" lon="8.0199561"><ele>423.6666666666667</ele><time>2026-05-03T13:11:15.899Z</time></trkpt><trkpt lat="44.3746791" lon="8.0201287"><ele>423.33333333333337</ele><time>2026-05-03T13:11:16.905Z</time></trkpt><trkpt lat="44.3747944" lon="8.0202929"><ele>423.0</ele><time>2026-05-03T13:11:17.904Z</time></trkpt><trkpt lat="44.3749056" lon="8.0204405"><ele>422.75</ele><time>2026-05-03T13:11:18.912Z</time></trkpt><trkpt lat="44.3750056" lon="8.0205751"><ele>422.5</ele><time>2026-05-03T13:11:19.903Z</time></trkpt><trkpt lat="44.3751029" lon="8.0207043"><ele>422.25</ele><time>2026-05-03T13:11:20.908Z</time></trkpt><trkpt lat="44.3751984" lon="8.0208427"><ele>422.0</ele><time>2026-05-03T13:11:21.906Z</time></trkpt><trkpt lat="44.375297" lon="8.0209779"><ele>422.0</ele><time>2026-05-03T13:11:22.909Z</time></trkpt><trkpt lat="44.3753956" lon="8.0211158"><ele>422.0</ele><time>2026-05-03T13:11:23.914Z</time></trkpt><trkpt lat="44.3755071" lon="8.021255"><ele>422.0</ele><time>2026-05-03T13:11:24.913Z</time></trkpt><trkpt lat="44.3756213" lon="8.0214065"><ele>422.0</ele><time>2026-05-03T13:11:25.91Z</time></trkpt><trkpt lat="44.3757391" lon="8.021559"><ele>421.3333333333333</ele><time>2026-05-03T13:11:26.913Z</time></trkpt><trkpt lat="44.3758632" lon="8.0217243"><ele>420.66666666666663</ele><time>2026-05-03T13:11:27.91Z</time></trkpt><trkpt lat="44.3759919" lon="8.0219045"><ele>420.0</ele><time>2026-05-03T13:11:28.91Z</time></trkpt><trkpt lat="44.3761284" lon="8.0220894"><ele>420.0</ele><time>2026-05-03T13:11:29.905Z</time></trkpt><trkpt lat="44.3762655" lon="8.0222715"><ele>420.0</ele><time>2026-05-03T13:11:30.914Z</time></trkpt><trkpt lat="44.3764034" lon="8.0224547"><ele>420.0</ele><time>2026-05-03T13:11:31.914Z</time></trkpt><trkpt lat="44.3765423" lon="8.0226459"><ele>419.33333333333337</ele><time>2026-05-03T13:11:32.909Z</time></trkpt><trkpt lat="44.3766834" lon="8.0228314"><ele>418.6666666666667</ele><time>2026-05-03T13:11:33.908Z</time></trkpt><trkpt lat="44.3768173" lon="8.0230157"><ele>418.0</ele><time>2026-05-03T13:11:34.911Z</time></trkpt><trkpt lat="44.3769587" lon="8.0231991"><ele>417.0</ele><time>2026-05-03T13:11:35.907Z</time></trkpt><trkpt lat="44.3771094" lon="8.0233633"><ele>416.0</ele><time>2026-05-03T13:11:36.907Z</time></trkpt><trkpt lat="44.3772708" lon="8.0235132"><ele>415.0</ele><time>2026-05-03T13:11:37.906Z</time></trkpt><trkpt lat="44.3774462" lon="8.0236543"><ele>415.0</ele><time>2026-05-03T13:11:38.906Z</time></trkpt><trkpt lat="44.3776228" lon="8.0237838"><ele>415.0</ele><time>2026-05-03T13:11:39.912Z</time></trkpt><trkpt lat="44.3778071" lon="8.0238983"><ele>415.0</ele><time>2026-05-03T13:11:40.907Z</time></trkpt><trkpt lat="44.3780055" lon="8.0240043"><ele>414.33333333333337</ele><time>2026-05-03T13:11:41.909Z</time></trkpt><trkpt lat="44.3781982" lon="8.0241076"><ele>413.66666666666663</ele><time>2026-05-03T13:11:42.905Z</time></trkpt><trkpt lat="44.3783864" lon="8.0242106"><ele>413.0</ele><time>2026-05-03T13:11:43.903Z</time></trkpt><trkpt lat="44.3785648" lon="8.0243055"><ele>413.0</ele><time>2026-05-03T13:11:44.905Z</time></trkpt><trkpt lat="44.3787351" lon="8.0243862"><ele>413.0</ele><time>2026-05-03T13:11:45.915Z</time></trkpt><trkpt lat="44.3789012" lon="8.0244401"><ele>413.0</ele><time>2026-05-03T13:11:46.904Z</time></trkpt><trkpt lat="44.3790613" lon="8.0244569"><ele>414.66666666666663</ele><time>2026-05-03T13:11:47.906Z</time></trkpt><trkpt lat="44.3792231" lon="8.0244347"><ele>416.33333333333337</ele><time>2026-05-03T13:11:48.908Z</time></trkpt><trkpt lat="44.379391" lon="8.0243866"><ele>418.0</ele><time>2026-05-03T13:11:49.907Z</time></trkpt><trkpt lat="44.37956" lon="8.0243178"><ele>417.6666666666667</ele><time>2026-05-03T13:11:50.913Z</time></trkpt><trkpt lat="44.3797244" lon="8.0242322"><ele>417.33333333333337</ele><time>2026-05-03T13:11:51.907Z</time></trkpt><trkpt lat="44.3798959" lon="8.0241456"><ele>417.0</ele><time>2026-05-03T13:11:52.908Z</time></trkpt><trkpt lat="44.3800664" lon="8.0240564"><ele>416.66666666666663</ele><time>2026-05-03T13:11:53.91Z</time></trkpt><trkpt lat="44.3802394" lon="8.0239723"><ele>416.3333333333333</ele><time>2026-05-03T13:11:54.91Z</time></trkpt><trkpt lat="44.380408" lon="8.0238918"><ele>416.0</ele><time>2026-05-03T13:11:55.905Z</time></trkpt><trkpt lat="44.3805743" lon="8.0238134"><ele>416.0</ele><time>2026-05-03T13:11:56.908Z</time></trkpt><trkpt lat="44.3807375" lon="8.0237214"><ele>416.0</ele><time>2026-05-03T13:11:57.905Z</time></trkpt><trkpt lat="44.3809033" lon="8.0236298"><ele>416.0</ele><time>2026-05-03T13:11:58.905Z</time></trkpt><trkpt lat="44.3810709" lon="8.0235448"><ele>416.0</ele><time>2026-05-03T13:11:59.907Z</time></trkpt><trkpt lat="44.3812354" lon="8.0234614"><ele>416.0</ele><time>2026-05-03T13:12:00.903Z</time></trkpt><trkpt lat="44.381387" lon="8.0233881"><ele>416.0</ele><time>2026-05-03T13:12:01.905Z</time></trkpt><trkpt lat="44.3815352" lon="8.0233122"><ele>416.25</ele><time>2026-05-03T13:12:02.907Z</time></trkpt><trkpt lat="44.3816743" lon="8.0232401"><ele>416.5</ele><time>2026-05-03T13:12:03.909Z</time></trkpt><trkpt lat="44.3818065" lon="8.0231829"><ele>416.75</ele><time>2026-05-03T13:12:04.905Z</time></trkpt><trkpt lat="44.3819305" lon="8.0231282"><ele>417.0</ele><time>2026-05-03T13:12:05.907Z</time></trkpt><trkpt lat="44.3820444" lon="8.0230922"><ele>417.0</ele><time>2026-05-03T13:12:06.91Z</time></trkpt><trkpt lat="44.3821527" lon="8.0230639"><ele>417.0</ele><time>2026-05-03T13:12:07.91Z</time></trkpt><trkpt lat="44.3822591" lon="8.0230472"><ele>417.0</ele><time>2026-05-03T13:12:08.906Z</time></trkpt><trkpt lat="44.3823621" lon="8.0230306"><ele>417.0</ele><time>2026-05-03T13:12:09.908Z</time></trkpt><trkpt lat="44.3824579" lon="8.023018"><ele>417.0</ele><time>2026-05-03T13:12:10.912Z</time></trkpt><trkpt lat="44.3825499" lon="8.0230053"><ele>417.0</ele><time>2026-05-03T13:12:11.919Z</time></trkpt><trkpt lat="44.3826337" lon="8.0229961"><ele>417.0</ele><time>2026-05-03T13:12:12.904Z</time></trkpt><trkpt lat="44.3827122" lon="8.0229819"><ele>417.0</ele><time>2026-05-03T13:12:13.923Z</time></trkpt><trkpt lat="44.3827912" lon="8.0229646"><ele>417.0</ele><time>2026-05-03T13:12:14.907Z</time></trkpt><trkpt lat="44.3828713" lon="8.0229564"><ele>417.0</ele><time>2026-05-03T13:12:15.904Z</time></trkpt><trkpt lat="44.3829487" lon="8.0229622"><ele>417.0</ele><time>2026-05-03T13:12:16.906Z</time></trkpt><trkpt lat="44.383017" lon="8.0229834"><ele>417.0</ele><time>2026-05-03T13:12:17.901Z</time></trkpt><trkpt lat="44.3830955" lon="8.023033"><ele>417.0</ele><time>2026-05-03T13:12:18.906Z</time></trkpt><trkpt lat="44.3831856" lon="8.0231166"><ele>417.0</ele><time>2026-05-03T13:12:19.909Z</time></trkpt><trkpt lat="44.3832874" lon="8.0232084"><ele>417.0</ele><time>2026-05-03T13:12:20.913Z</time></trkpt><trkpt lat="44.3833947" lon="8.0233137"><ele>417.0</ele><time>2026-05-03T13:12:21.918Z</time></trkpt><trkpt lat="44.3835017" lon="8.0234134"><ele>416.75</ele><time>2026-05-03T13:12:22.899Z</time></trkpt><trkpt lat="44.3836129" lon="8.0235209"><ele>416.5</ele><time>2026-05-03T13:12:23.915Z</time></trkpt><trkpt lat="44.3837248" lon="8.0236373"><ele>416.25</ele><time>2026-05-03T13:12:24.907Z</time></trkpt><trkpt lat="44.3838268" lon="8.0237451"><ele>416.0</ele><time>2026-05-03T13:12:25.912Z</time></trkpt><trkpt lat="44.3839216" lon="8.0238548"><ele>415.75</ele><time>2026-05-03T13:12:26.908Z</time></trkpt><trkpt lat="44.3840043" lon="8.0239807"><ele>415.5</ele><time>2026-05-03T13:12:27.909Z</time></trkpt><trkpt lat="44.384078" lon="8.0241331"><ele>415.25</ele><time>2026-05-03T13:12:28.908Z</time></trkpt><trkpt lat="44.3841245" lon="8.0242929"><ele>415.0</ele><time>2026-05-03T13:12:29.909Z</time></trkpt><trkpt lat="44.3841633" lon="8.0244541"><ele>414.5</ele><time>2026-05-03T13:12:30.902Z</time></trkpt><trkpt lat="44.3841963" lon="8.0246135"><ele>414.0</ele><time>2026-05-03T13:12:31.909Z</time></trkpt><trkpt lat="44.384236" lon="8.0247728"><ele>413.5</ele><time>2026-05-03T13:12:32.913Z</time></trkpt><trkpt lat="44.3842929" lon="8.0249242"><ele>413.0</ele><time>2026-05-03T13:12:33.91Z</time></trkpt><trkpt lat="44.3843659" lon="8.025077"><ele>412.5</ele><time>2026-05-03T13:12:34.904Z</time></trkpt><trkpt lat="44.3844514" lon="8.025221"><ele>412.0</ele><time>2026-05-03T13:12:35.909Z</time></trkpt><trkpt lat="44.3845407" lon="8.0253467"><ele>411.5</ele><time>2026-05-03T13:12:36.926Z</time></trkpt><trkpt lat="44.3846414" lon="8.0254624"><ele>411.0</ele><time>2026-05-03T13:12:37.906Z</time></trkpt><trkpt lat="44.3847374" lon="8.025581"><ele>411.0</ele><time>2026-05-03T13:12:38.909Z</time></trkpt><trkpt lat="44.3848314" lon="8.0257014"><ele>411.0</ele><time>2026-05-03T13:12:39.908Z</time></trkpt><trkpt lat="44.384927" lon="8.0258257"><ele>411.0</ele><time>2026-05-03T13:12:40.917Z</time></trkpt><trkpt lat="44.3850177" lon="8.0259647"><ele>411.0</ele><time>2026-05-03T13:12:41.909Z</time></trkpt><trkpt lat="44.3851054" lon="8.0261057"><ele>409.0</ele><time>2026-05-03T13:12:42.902Z</time></trkpt><trkpt lat="44.3851819" lon="8.0262428"><ele>407.0</ele><time>2026-05-03T13:12:43.903Z</time></trkpt><trkpt lat="44.3852563" lon="8.0263633"><ele>405.0</ele><time>2026-05-03T13:12:44.907Z</time></trkpt><trkpt lat="44.3853252" lon="8.026457"><ele>403.0</ele><time>2026-05-03T13:12:45.913Z</time></trkpt><trkpt lat="44.3853871" lon="8.026527"><ele>401.0</ele><time>2026-05-03T13:12:46.906Z</time></trkpt><trkpt lat="44.3854568" lon="8.0265891"><ele>400.66666666666663</ele><time>2026-05-03T13:12:47.901Z</time></trkpt><trkpt lat="44.3855115" lon="8.0266628"><ele>400.3333333333333</ele><time>2026-05-03T13:12:48.908Z</time></trkpt><trkpt lat="44.3855618" lon="8.0267518"><ele>400.0</ele><time>2026-05-03T13:12:49.917Z</time></trkpt><trkpt lat="44.3856003" lon="8.026846"><ele>399.66666666666663</ele><time>2026-05-03T13:12:50.907Z</time></trkpt><trkpt lat="44.385607" lon="8.0269468"><ele>399.3333333333333</ele><time>2026-05-03T13:12:51.905Z</time></trkpt><trkpt lat="44.3855705" lon="8.0270904"><ele>399.0</ele><time>2026-05-03T13:12:53.908Z</time></trkpt><trkpt lat="44.3854856" lon="8.0271265"><ele>399.4</ele><time>2026-05-03T13:12:56.908Z</time></trkpt><trkpt lat="44.3853985" lon="8.027063"><ele>399.79999999999995</ele><time>2026-05-03T13:12:58.921Z</time></trkpt><trkpt lat="44.3853574" lon="8.0269881"><ele>400.20000000000005</ele><time>2026-05-03T13:12:59.908Z</time></trkpt><trkpt lat="44.3853221" lon="8.0268795"><ele>400.6</ele><time>2026-05-03T13:13:00.911Z</time></trkpt><trkpt lat="44.3852832" lon="8.0267483"><ele>401.0</ele><time>2026-05-03T13:13:01.908Z</time></trkpt><trkpt lat="44.3852258" lon="8.0266256"><ele>401.0</ele><time>2026-05-03T13:13:02.911Z</time></trkpt><trkpt lat="44.3851514" lon="8.0264928"><ele>401.0</ele><time>2026-05-03T13:13:03.915Z</time></trkpt><trkpt lat="44.3850723" lon="8.0263582"><ele>401.0</ele><time>2026-05-03T13:13:04.908Z</time></trkpt><trkpt lat="44.3849739" lon="8.0262228"><ele>401.0</ele><time>2026-05-03T13:13:05.902Z</time></trkpt><trkpt lat="44.3848668" lon="8.0260859"><ele>401.0</ele><time>2026-05-03T13:13:06.908Z</time></trkpt><trkpt lat="44.3847489" lon="8.0259646"><ele>401.0</ele><time>2026-05-03T13:13:07.901Z</time></trkpt><trkpt lat="44.3846176" lon="8.0258656"><ele>401.0</ele><time>2026-05-03T13:13:08.907Z</time></trkpt><trkpt lat="44.3844684" lon="8.0257824"><ele>402.0</ele><time>2026-05-03T13:13:09.901Z</time></trkpt><trkpt lat="44.38432" lon="8.0257082"><ele>403.0</ele><time>2026-05-03T13:13:10.898Z</time></trkpt><trkpt lat="44.3841723" lon="8.0256521"><ele>404.0</ele><time>2026-05-03T13:13:11.905Z</time></trkpt><trkpt lat="44.3840287" lon="8.0256182"><ele>404.0</ele><time>2026-05-03T13:13:12.895Z</time></trkpt><trkpt lat="44.3838799" lon="8.0256109"><ele>404.0</ele><time>2026-05-03T13:13:13.902Z</time></trkpt><trkpt lat="44.3837397" lon="8.0256491"><ele>404.0</ele><time>2026-05-03T13:13:14.908Z</time></trkpt><trkpt lat="44.3836125" lon="8.0257438"><ele>404.0</ele><time>2026-05-03T13:13:15.9Z</time></trkpt><trkpt lat="44.3834946" lon="8.0258858"><ele>396.0</ele><time>2026-05-03T13:13:16.901Z</time></trkpt><trkpt lat="44.3834039" lon="8.0260657"><ele>388.0</ele><time>2026-05-03T13:13:17.9Z</time></trkpt><trkpt lat="44.3833262" lon="8.0262587"><ele>380.0</ele><time>2026-05-03T13:13:18.895Z</time></trkpt><trkpt lat="44.3832806" lon="8.0264585"><ele>380.0</ele><time>2026-05-03T13:13:19.902Z</time></trkpt><trkpt lat="44.383244" lon="8.0266547"><ele>380.0</ele><time>2026-05-03T13:13:20.899Z</time></trkpt><trkpt lat="44.3832081" lon="8.026843"><ele>380.0</ele><time>2026-05-03T13:13:21.912Z</time></trkpt><trkpt lat="44.3831742" lon="8.0270231"><ele>380.0</ele><time>2026-05-03T13:13:22.902Z</time></trkpt><trkpt lat="44.383141" lon="8.0271978"><ele>380.0</ele><time>2026-05-03T13:13:23.898Z</time></trkpt><trkpt lat="44.383111" lon="8.0273644"><ele>380.0</ele><time>2026-05-03T13:13:24.908Z</time></trkpt><trkpt lat="44.3830809" lon="8.0275316"><ele>380.0</ele><time>2026-05-03T13:13:25.914Z</time></trkpt><trkpt lat="44.3830482" lon="8.0277057"><ele>380.0</ele><time>2026-05-03T13:13:26.909Z</time></trkpt><trkpt lat="44.3830154" lon="8.0278849"><ele>380.0</ele><time>2026-05-03T13:13:27.904Z</time></trkpt><trkpt lat="44.3829825" lon="8.0280652"><ele>380.0</ele><time>2026-05-03T13:13:28.901Z</time></trkpt><trkpt lat="44.3829469" lon="8.0282548"><ele>380.0</ele><time>2026-05-03T13:13:29.901Z</time></trkpt><trkpt lat="44.382909" lon="8.0284376"><ele>380.0</ele><time>2026-05-03T13:13:30.904Z</time></trkpt><trkpt lat="44.3828732" lon="8.0286224"><ele>380.0</ele><time>2026-05-03T13:13:31.904Z</time></trkpt><trkpt lat="44.3828379" lon="8.0288175"><ele>380.0</ele><time>2026-05-03T13:13:32.908Z</time></trkpt><trkpt lat="44.3828004" lon="8.0290155"><ele>380.0</ele><time>2026-05-03T13:13:33.903Z</time></trkpt><trkpt lat="44.382768" lon="8.0291987"><ele>380.0</ele><time>2026-05-03T13:13:34.91Z</time></trkpt><trkpt lat="44.3827362" lon="8.0293767"><ele>379.5</ele><time>2026-05-03T13:13:35.909Z</time></trkpt><trkpt lat="44.3827072" lon="8.0295401"><ele>379.0</ele><time>2026-05-03T13:13:36.906Z</time></trkpt><trkpt lat="44.3826774" lon="8.029699"><ele>378.5</ele><time>2026-05-03T13:13:37.907Z</time></trkpt><trkpt lat="44.3826499" lon="8.0298512"><ele>378.0</ele><time>2026-05-03T13:13:38.905Z</time></trkpt><trkpt lat="44.3826214" lon="8.0299977"><ele>377.4</ele><time>2026-05-03T13:13:39.913Z</time></trkpt><trkpt lat="44.3825906" lon="8.0301471"><ele>376.79999999999995</ele><time>2026-05-03T13:13:40.903Z</time></trkpt><trkpt lat="44.3825614" lon="8.0302975"><ele>376.2</ele><time>2026-05-03T13:13:41.903Z</time></trkpt><trkpt lat="44.3825334" lon="8.0304511"><ele>375.6</ele><time>2026-05-03T13:13:42.913Z</time></trkpt><trkpt lat="44.3825052" lon="8.0306015"><ele>375.0</ele><time>2026-05-03T13:13:43.896Z</time></trkpt><trkpt lat="44.3824749" lon="8.0307577"><ele>375.1666666666667</ele><time>2026-05-03T13:13:44.911Z</time></trkpt><trkpt lat="44.3824534" lon="8.0308895"><ele>375.3333333333333</ele><time>2026-05-03T13:13:45.913Z</time></trkpt><trkpt lat="44.3824307" lon="8.0310168"><ele>375.5</ele><time>2026-05-03T13:13:46.912Z</time></trkpt><trkpt lat="44.3823975" lon="8.0311307"><ele>375.66666666666663</ele><time>2026-05-03T13:13:47.92Z</time></trkpt><trkpt lat="44.3823564" lon="8.0312334"><ele>375.8333333333333</ele><time>2026-05-03T13:13:48.9Z</time></trkpt><trkpt lat="44.3823111" lon="8.0313236"><ele>376.0</ele><time>2026-05-03T13:13:49.913Z</time></trkpt><trkpt lat="44.3822801" lon="8.0314157"><ele>376.0</ele><time>2026-05-03T13:13:50.904Z</time></trkpt><trkpt lat="44.3822726" lon="8.031511"><ele>376.0</ele><time>2026-05-03T13:13:51.911Z</time></trkpt><trkpt lat="44.3822801" lon="8.0316183"><ele>376.0</ele><time>2026-05-03T13:13:52.903Z</time></trkpt><trkpt lat="44.3822894" lon="8.0317479"><ele>376.0</ele><time>2026-05-03T13:13:53.908Z</time></trkpt><trkpt lat="44.382294" lon="8.0318845"><ele>376.0</ele><time>2026-05-03T13:13:54.906Z</time></trkpt><trkpt lat="44.3822962" lon="8.0320378"><ele>376.0</ele><time>2026-05-03T13:13:55.901Z</time></trkpt><trkpt lat="44.3822979" lon="8.0322196"><ele>376.25</ele><time>2026-05-03T13:13:56.911Z</time></trkpt><trkpt lat="44.3823084" lon="8.032414"><ele>376.5</ele><time>2026-05-03T13:13:57.911Z</time></trkpt><trkpt lat="44.3823142" lon="8.032593"><ele>376.75</ele><time>2026-05-03T13:13:58.92Z</time></trkpt><trkpt lat="44.3822973" lon="8.0327625"><ele>377.0</ele><time>2026-05-03T13:13:59.902Z</time></trkpt><trkpt lat="44.3822468" lon="8.0328899"><ele>380.75</ele><time>2026-05-03T13:14:00.906Z</time></trkpt><trkpt lat="44.3821553" lon="8.0329826"><ele>384.5</ele><time>2026-05-03T13:14:01.9Z</time></trkpt><trkpt lat="44.382049" lon="8.0330231"><ele>388.25</ele><time>2026-05-03T13:14:02.906Z</time></trkpt><trkpt lat="44.3819249" lon="8.0329989"><ele>392.0</ele><time>2026-05-03T13:14:03.906Z</time></trkpt><trkpt lat="44.3818168" lon="8.032912"><ele>392.0</ele><time>2026-05-03T13:14:04.905Z</time></trkpt><trkpt lat="44.3817307" lon="8.0327871"><ele>392.0</ele><time>2026-05-03T13:14:05.906Z</time></trkpt><trkpt lat="44.3816516" lon="8.0326272"><ele>392.0</ele><time>2026-05-03T13:14:06.903Z</time></trkpt><trkpt lat="44.3815684" lon="8.0324512"><ele>392.0</ele><time>2026-05-03T13:14:07.898Z</time></trkpt><trkpt lat="44.3814806" lon="8.0322638"><ele>388.3333333333333</ele><time>2026-05-03T13:14:08.904Z</time></trkpt><trkpt lat="44.3813872" lon="8.0320674"><ele>384.66666666666663</ele><time>2026-05-03T13:14:09.904Z</time></trkpt><trkpt lat="44.3812965" lon="8.0318727"><ele>381.0</ele><time>2026-05-03T13:14:10.912Z</time></trkpt><trkpt lat="44.3812045" lon="8.0316727"><ele>385.33333333333337</ele><time>2026-05-03T13:14:11.899Z</time></trkpt><trkpt lat="44.3811172" lon="8.0314783"><ele>389.6666666666667</ele><time>2026-05-03T13:14:12.905Z</time></trkpt><trkpt lat="44.3810353" lon="8.031275"><ele>394.0</ele><time>2026-05-03T13:14:13.901Z</time></trkpt><trkpt lat="44.3809504" lon="8.0310902"><ele>394.0</ele><time>2026-05-03T13:14:14.907Z</time></trkpt><trkpt lat="44.380858" lon="8.0309392"><ele>394.0</ele><time>2026-05-03T13:14:15.911Z</time></trkpt><trkpt lat="44.3807525" lon="8.0308106"><ele>394.0</ele><time>2026-05-03T13:14:16.905Z</time></trkpt><trkpt lat="44.3806154" lon="8.030729"><ele>394.0</ele><time>2026-05-03T13:14:17.906Z</time></trkpt><trkpt lat="44.3804522" lon="8.0306789"><ele>395.33333333333337</ele><time>2026-05-03T13:14:18.909Z</time></trkpt><trkpt lat="44.3802853" lon="8.0306577"><ele>396.66666666666663</ele><time>2026-05-03T13:14:19.903Z</time></trkpt><trkpt lat="44.3801143" lon="8.0306474"><ele>398.0</ele><time>2026-05-03T13:14:20.916Z</time></trkpt><trkpt lat="44.3799469" lon="8.0306449"><ele>398.0</ele><time>2026-05-03T13:14:21.912Z</time></trkpt><trkpt lat="44.3797868" lon="8.0306583"><ele>398.0</ele><time>2026-05-03T13:14:22.912Z</time></trkpt><trkpt lat="44.3796421" lon="8.0306904"><ele>398.0</ele><time>2026-05-03T13:14:23.909Z</time></trkpt><trkpt lat="44.3795058" lon="8.0307397"><ele>398.0</ele><time>2026-05-03T13:14:24.915Z</time></trkpt><trkpt lat="44.3793703" lon="8.0307979"><ele>400.75</ele><time>2026-05-03T13:14:25.908Z</time></trkpt><trkpt lat="44.3792398" lon="8.0308728"><ele>403.5</ele><time>2026-05-03T13:14:26.907Z</time></trkpt><trkpt lat="44.3791233" lon="8.0309636"><ele>406.25</ele><time>2026-05-03T13:14:27.903Z</time></trkpt><trkpt lat="44.3790153" lon="8.031095"><ele>409.0</ele><time>2026-05-03T13:14:28.91Z</time></trkpt><trkpt lat="44.3789211" lon="8.0312592"><ele>409.33333333333337</ele><time>2026-05-03T13:14:29.912Z</time></trkpt><trkpt lat="44.3788414" lon="8.0314472"><ele>409.66666666666663</ele><time>2026-05-03T13:14:30.908Z</time></trkpt><trkpt lat="44.3787584" lon="8.0316477"><ele>410.0</ele><time>2026-05-03T13:14:31.908Z</time></trkpt><trkpt lat="44.3786773" lon="8.0318492"><ele>412.0</ele><time>2026-05-03T13:14:32.899Z</time></trkpt><trkpt lat="44.3785969" lon="8.0320471"><ele>414.0</ele><time>2026-05-03T13:14:33.908Z</time></trkpt><trkpt lat="44.3785186" lon="8.0322447"><ele>416.0</ele><time>2026-05-03T13:14:34.902Z</time></trkpt><trkpt lat="44.3784406" lon="8.0324419"><ele>416.66666666666663</ele><time>2026-05-03T13:14:35.905Z</time></trkpt><trkpt lat="44.3783564" lon="8.032657"><ele>417.33333333333337</ele><time>2026-05-03T13:14:36.91Z</time></trkpt><trkpt lat="44.3782779" lon="8.0328655"><ele>418.0</ele><time>2026-05-03T13:14:37.915Z</time></trkpt><trkpt lat="44.3782031" lon="8.0330657"><ele>418.0</ele><time>2026-05-03T13:14:38.906Z</time></trkpt><trkpt lat="44.3781255" lon="8.033256"><ele>418.0</ele><time>2026-05-03T13:14:39.908Z</time></trkpt><trkpt lat="44.3780489" lon="8.033453"><ele>418.0</ele><time>2026-05-03T13:14:40.906Z</time></trkpt><trkpt lat="44.3779714" lon="8.0336535"><ele>418.0</ele><time>2026-05-03T13:14:41.907Z</time></trkpt><trkpt lat="44.3778872" lon="8.0338643"><ele>418.0</ele><time>2026-05-03T13:14:42.905Z</time></trkpt><trkpt lat="44.3778014" lon="8.0340834"><ele>418.0</ele><time>2026-05-03T13:14:43.901Z</time></trkpt><trkpt lat="44.3777116" lon="8.0343096"><ele>418.0</ele><time>2026-05-03T13:14:44.909Z</time></trkpt><trkpt lat="44.3776248" lon="8.0345424"><ele>418.0</ele><time>2026-05-03T13:14:45.9Z</time></trkpt><trkpt lat="44.3775372" lon="8.034786"><ele>418.0</ele><time>2026-05-03T13:14:46.914Z</time></trkpt><trkpt lat="44.3774469" lon="8.0350231"><ele>417.6666666666667</ele><time>2026-05-03T13:14:47.907Z</time></trkpt><trkpt lat="44.3773529" lon="8.0352691"><ele>417.33333333333337</ele><time>2026-05-03T13:14:48.904Z</time></trkpt><trkpt lat="44.3772566" lon="8.0355117"><ele>417.0</ele><time>2026-05-03T13:14:49.919Z</time></trkpt><trkpt lat="44.3771627" lon="8.035753"><ele>418.33333333333337</ele><time>2026-05-03T13:14:50.908Z</time></trkpt><trkpt lat="44.3770675" lon="8.0359942"><ele>419.6666666666667</ele><time>2026-05-03T13:14:51.917Z</time></trkpt><trkpt lat="44.3769762" lon="8.0362258"><ele>421.0</ele><time>2026-05-03T13:14:52.91Z</time></trkpt><trkpt lat="44.3768971" lon="8.036446"><ele>422.6666666666667</ele><time>2026-05-03T13:14:53.911Z</time></trkpt><trkpt lat="44.3768281" lon="8.036658"><ele>424.33333333333337</ele><time>2026-05-03T13:14:54.904Z</time></trkpt><trkpt lat="44.376778" lon="8.0368672"><ele>426.0</ele><time>2026-05-03T13:14:55.905Z</time></trkpt><trkpt lat="44.3767426" lon="8.037067"><ele>426.0</ele><time>2026-05-03T13:14:56.91Z</time></trkpt><trkpt lat="44.3767249" lon="8.0372548"><ele>426.0</ele><time>2026-05-03T13:14:57.906Z</time></trkpt><trkpt lat="44.3767165" lon="8.0374302"><ele>426.0</ele><time>2026-05-03T13:14:58.91Z</time></trkpt><trkpt lat="44.3767203" lon="8.037592"><ele>426.0</ele><time>2026-05-03T13:14:59.906Z</time></trkpt><trkpt lat="44.3767265" lon="8.0377311"><ele>426.6666666666667</ele><time>2026-05-03T13:15:00.908Z</time></trkpt><trkpt lat="44.3767366" lon="8.0378483"><ele>427.33333333333337</ele><time>2026-05-03T13:15:01.918Z</time></trkpt><trkpt lat="44.3767511" lon="8.0379592"><ele>428.0</ele><time>2026-05-03T13:15:02.909Z</time></trkpt><trkpt lat="44.3767703" lon="8.0380659"><ele>428.6666666666667</ele><time>2026-05-03T13:15:03.911Z</time></trkpt><trkpt lat="44.376788" lon="8.0381618"><ele>429.33333333333337</ele><time>2026-05-03T13:15:04.906Z</time></trkpt><trkpt lat="44.3768051" lon="8.0382478"><ele>430.0</ele><time>2026-05-03T13:15:05.924Z</time></trkpt><trkpt lat="44.3768466" lon="8.0384199"><ele>430.4</ele><time>2026-05-03T13:15:07.904Z</time></trkpt><trkpt lat="44.3768725" lon="8.0385262"><ele>430.8</ele><time>2026-05-03T13:15:08.905Z</time></trkpt><trkpt lat="44.3769045" lon="8.0386481"><ele>431.20000000000005</ele><time>2026-05-03T13:15:09.901Z</time></trkpt><trkpt lat="44.3769345" lon="8.0387761"><ele>431.6</ele><time>2026-05-03T13:15:10.91Z</time></trkpt><trkpt lat="44.3769649" lon="8.0389105"><ele>432.0</ele><time>2026-05-03T13:15:11.91Z</time></trkpt><trkpt lat="44.3769889" lon="8.0390322"><ele>432.5</ele><time>2026-05-03T13:15:12.905Z</time></trkpt><trkpt lat="44.3770198" lon="8.039156"><ele>433.0</ele><time>2026-05-03T13:15:13.91Z</time></trkpt><trkpt lat="44.3770501" lon="8.0392961"><ele>433.5</ele><time>2026-05-03T13:15:14.909Z</time></trkpt><trkpt lat="44.3770772" lon="8.0394145"><ele>434.0</ele><time>2026-05-03T13:15:15.906Z</time></trkpt><trkpt lat="44.3771062" lon="8.039513"><ele>434.5</ele><time>2026-05-03T13:15:16.914Z</time></trkpt><trkpt lat="44.3771303" lon="8.0396126"><ele>435.0</ele><time>2026-05-03T13:15:17.911Z</time></trkpt><trkpt lat="44.3771571" lon="8.0397202"><ele>435.0</ele><time>2026-05-03T13:15:18.908Z</time></trkpt><trkpt lat="44.3771839" lon="8.0398165"><ele>435.0</ele><time>2026-05-03T13:15:19.91Z</time></trkpt><trkpt lat="44.3772155" lon="8.0399202"><ele>435.0</ele><time>2026-05-03T13:15:20.91Z</time></trkpt><trkpt lat="44.3772494" lon="8.0400359"><ele>435.0</ele><time>2026-05-03T13:15:21.904Z</time></trkpt><trkpt lat="44.3772788" lon="8.0401276"><ele>435.0</ele><time>2026-05-03T13:15:22.908Z</time></trkpt><trkpt lat="44.3773019" lon="8.040219"><ele>435.0</ele><time>2026-05-03T13:15:23.912Z</time></trkpt><trkpt lat="44.377322" lon="8.0403098"><ele>435.5</ele><time>2026-05-03T13:15:24.909Z</time></trkpt><trkpt lat="44.3773434" lon="8.040406"><ele>436.0</ele><time>2026-05-03T13:15:25.907Z</time></trkpt><trkpt lat="44.3773586" lon="8.0405028"><ele>436.5</ele><time>2026-05-03T13:15:26.907Z</time></trkpt><trkpt lat="44.3773738" lon="8.040597"><ele>437.0</ele><time>2026-05-03T13:15:27.909Z</time></trkpt><trkpt lat="44.3773779" lon="8.0407305"><ele>437.5</ele><time>2026-05-03T13:15:29.904Z</time></trkpt><trkpt lat="44.3773691" lon="8.0408385"><ele>438.0</ele><time>2026-05-03T13:15:31.909Z</time></trkpt><trkpt lat="44.3773151" lon="8.0409607"><ele>438.0</ele><time>2026-05-03T13:15:34.905Z</time></trkpt><trkpt lat="44.377273" lon="8.0410527"><ele>437.99999999999994</ele><time>2026-05-03T13:15:36.902Z</time></trkpt><trkpt lat="44.3772853" lon="8.0411963"><ele>437.99999999999994</ele><time>2026-05-03T13:15:39.899Z</time></trkpt><trkpt lat="44.3773256" lon="8.0413404"><ele>438.0</ele><time>2026-05-03T13:15:41.896Z</time></trkpt><trkpt lat="44.3773427" lon="8.0414728"><ele>438.0</ele><time>2026-05-03T13:15:43.898Z</time></trkpt><trkpt lat="44.3773332" lon="8.0416005"><ele>438.1666666666667</ele><time>2026-05-03T13:15:45.9Z</time></trkpt><trkpt lat="44.3772897" lon="8.0416899"><ele>438.33333333333337</ele><time>2026-05-03T13:15:48.904Z</time></trkpt><trkpt lat="44.3772577" lon="8.041795"><ele>438.5</ele><time>2026-05-03T13:15:52.9Z</time></trkpt><trkpt lat="44.3771963" lon="8.041844"><ele>438.6666666666667</ele><time>2026-05-03T13:16:32.906Z</time></trkpt><trkpt lat="44.3771827" lon="8.0417497"><ele>438.83333333333337</ele><time>2026-05-03T13:16:35.904Z</time></trkpt><trkpt lat="44.3772547" lon="8.0416908"><ele>439.0</ele><time>2026-05-03T13:16:38.906Z</time></trkpt><trkpt lat="44.3773354" lon="8.041672"><ele>438.83333333333337</ele><time>2026-05-03T13:16:40.907Z</time></trkpt><trkpt lat="44.3774338" lon="8.0415401"><ele>438.6666666666667</ele><time>2026-05-03T13:16:42.902Z</time></trkpt><trkpt lat="44.3774799" lon="8.0414517"><ele>438.5</ele><time>2026-05-03T13:16:43.922Z</time></trkpt><trkpt lat="44.3775305" lon="8.0413614"><ele>438.33333333333337</ele><time>2026-05-03T13:16:44.905Z</time></trkpt><trkpt lat="44.3775719" lon="8.0412777"><ele>438.1666666666667</ele><time>2026-05-03T13:16:45.91Z</time></trkpt><trkpt lat="44.3775967" lon="8.0411865"><ele>438.0</ele><time>2026-05-03T13:16:46.913Z</time></trkpt><trkpt lat="44.3775991" lon="8.0410821"><ele>438.0</ele><time>2026-05-03T13:16:47.911Z</time></trkpt><trkpt lat="44.3775746" lon="8.0409847"><ele>437.99999999999994</ele><time>2026-05-03T13:16:48.921Z</time></trkpt><trkpt lat="44.3775307" lon="8.0408647"><ele>437.99999999999994</ele><time>2026-05-03T13:16:49.913Z</time></trkpt><trkpt lat="44.3774798" lon="8.0407333"><ele>438.0</ele><time>2026-05-03T13:16:50.913Z</time></trkpt><trkpt lat="44.3774291" lon="8.0405818"><ele>438.0</ele><time>2026-05-03T13:16:51.902Z</time></trkpt><trkpt lat="44.3773866" lon="8.0404253"><ele>438.0</ele><time>2026-05-03T13:16:52.906Z</time></trkpt><trkpt lat="44.3773465" lon="8.0402684"><ele>438.0</ele><time>2026-05-03T13:16:53.914Z</time></trkpt><trkpt lat="44.3773065" lon="8.0401154"><ele>438.0</ele><time>2026-05-03T13:16:54.91Z</time></trkpt><trkpt lat="44.3772678" lon="8.0399687"><ele>438.0</ele><time>2026-05-03T13:16:55.912Z</time></trkpt><trkpt lat="44.3772274" lon="8.0398197"><ele>437.25</ele><time>2026-05-03T13:16:56.907Z</time></trkpt><trkpt lat="44.3771844" lon="8.0396666"><ele>436.5</ele><time>2026-05-03T13:16:57.91Z</time></trkpt><trkpt lat="44.3771412" lon="8.0394972"><ele>435.75</ele><time>2026-05-03T13:16:58.911Z</time></trkpt><trkpt lat="44.3770994" lon="8.039323"><ele>435.0</ele><time>2026-05-03T13:16:59.911Z</time></trkpt><trkpt lat="44.3770575" lon="8.0391515"><ele>434.25</ele><time>2026-05-03T13:17:00.902Z</time></trkpt><trkpt lat="44.3770155" lon="8.0389764"><ele>433.5</ele><time>2026-05-03T13:17:01.907Z</time></trkpt><trkpt lat="44.3769727" lon="8.0388133"><ele>432.75</ele><time>2026-05-03T13:17:02.906Z</time></trkpt><trkpt lat="44.376932" lon="8.0386554"><ele>432.0</ele><time>2026-05-03T13:17:03.92Z</time></trkpt><trkpt lat="44.3768902" lon="8.0385009"><ele>432.0</ele><time>2026-05-03T13:17:04.907Z</time></trkpt><trkpt lat="44.3768533" lon="8.0383576"><ele>432.00000000000006</ele><time>2026-05-03T13:17:05.915Z</time></trkpt><trkpt lat="44.3768182" lon="8.0382197"><ele>432.00000000000006</ele><time>2026-05-03T13:17:06.903Z</time></trkpt><trkpt lat="44.3767902" lon="8.0380834"><ele>432.0</ele><time>2026-05-03T13:17:07.908Z</time></trkpt><trkpt lat="44.3767679" lon="8.0379533"><ele>432.0</ele><time>2026-05-03T13:17:08.904Z</time></trkpt><trkpt lat="44.3767462" lon="8.0378572"><ele>431.6</ele><time>2026-05-03T13:17:09.92Z</time></trkpt><trkpt lat="44.3766762" lon="8.0377664"><ele>431.20000000000005</ele><time>2026-05-03T13:17:11.91Z</time></trkpt><trkpt lat="44.3765638" lon="8.0377192"><ele>430.8</ele><time>2026-05-03T13:17:13.908Z</time></trkpt><trkpt lat="44.3764798" lon="8.0376278"><ele>430.4</ele><time>2026-05-03T13:17:15.906Z</time></trkpt><trkpt lat="44.3764108" lon="8.0375043"><ele>430.0</ele><time>2026-05-03T13:17:17.898Z</time></trkpt><trkpt lat="44.3763693" lon="8.0373919"><ele>430.00000000000006</ele><time>2026-05-03T13:17:19.899Z</time></trkpt><trkpt lat="44.376306" lon="8.0373851"><ele>430.0</ele><time>2026-05-03T13:17:22.904Z</time></trkpt><trkpt lat="44.3762416" lon="8.0373954"><ele>430.0</ele><time>2026-05-03T13:20:09.911Z</time></trkpt><trkpt lat="44.3762577" lon="8.0374994"><ele>430.0</ele><time>2026-05-03T13:20:14.901Z</time></trkpt><trkpt lat="44.3762934" lon="8.0376049"><ele>430.00000000000006</ele><time>2026-05-03T13:22:30.905Z</time></trkpt><trkpt lat="44.3763846" lon="8.0377052"><ele>430.0</ele><time>2026-05-03T13:22:32.905Z</time></trkpt><trkpt lat="44.3764547" lon="8.0377119"><ele>430.00000000000006</ele><time>2026-05-03T13:22:33.9Z</time></trkpt><trkpt lat="44.3765289" lon="8.0377124"><ele>430.0</ele><time>2026-05-03T13:22:34.903Z</time></trkpt><trkpt lat="44.3765903" lon="8.0377326"><ele>430.0</ele><time>2026-05-03T13:22:35.91Z</time></trkpt><trkpt lat="44.3766862" lon="8.037789"><ele>430.0</ele><time>2026-05-03T13:22:37.913Z</time></trkpt><trkpt lat="44.3767506" lon="8.037931"><ele>430.00000000000006</ele><time>2026-05-03T13:22:39.913Z</time></trkpt><trkpt lat="44.3767734" lon="8.0380445"><ele>430.0</ele><time>2026-05-03T13:22:40.901Z</time></trkpt><trkpt lat="44.3767969" lon="8.0381764"><ele>430.4</ele><time>2026-05-03T13:22:41.923Z</time></trkpt><trkpt lat="44.3768252" lon="8.0383178"><ele>430.8</ele><time>2026-05-03T13:22:42.906Z</time></trkpt><trkpt lat="44.3768503" lon="8.0384579"><ele>431.20000000000005</ele><time>2026-05-03T13:22:43.9Z</time></trkpt><trkpt lat="44.3768802" lon="8.038601"><ele>431.6</ele><time>2026-05-03T13:22:44.908Z</time></trkpt><trkpt lat="44.3769178" lon="8.0387418"><ele>432.0</ele><time>2026-05-03T13:22:45.916Z</time></trkpt><trkpt lat="44.3769557" lon="8.0388967"><ele>432.0</ele><time>2026-05-03T13:22:46.902Z</time></trkpt><trkpt lat="44.376996" lon="8.0390516"><ele>432.0</ele><time>2026-05-03T13:22:47.924Z</time></trkpt><trkpt lat="44.3770366" lon="8.0392122"><ele>432.0</ele><time>2026-05-03T13:22:48.903Z</time></trkpt><trkpt lat="44.3770786" lon="8.0393852"><ele>432.0</ele><time>2026-05-03T13:22:49.918Z</time></trkpt><trkpt lat="44.3771199" lon="8.0395537"><ele>432.75</ele><time>2026-05-03T13:22:50.9Z</time></trkpt><trkpt lat="44.377163" lon="8.0397297"><ele>433.5</ele><time>2026-05-03T13:22:51.901Z</time></trkpt><trkpt lat="44.3772108" lon="8.0399078"><ele>434.25</ele><time>2026-05-03T13:22:52.909Z</time></trkpt><trkpt lat="44.3772526" lon="8.0400827"><ele>435.0</ele><time>2026-05-03T13:22:53.905Z</time></trkpt><trkpt lat="44.3772897" lon="8.0402465"><ele>435.5</ele><time>2026-05-03T13:22:54.903Z</time></trkpt><trkpt lat="44.377323" lon="8.0403894"><ele>436.0</ele><time>2026-05-03T13:22:55.912Z</time></trkpt><trkpt lat="44.3773466" lon="8.0405186"><ele>436.5</ele><time>2026-05-03T13:22:56.906Z</time></trkpt><trkpt lat="44.3773656" lon="8.0406396"><ele>437.0</ele><time>2026-05-03T13:22:57.907Z</time></trkpt><trkpt lat="44.3773668" lon="8.0407482"><ele>437.5</ele><time>2026-05-03T13:22:58.906Z</time></trkpt><trkpt lat="44.3773533" lon="8.0408415"><ele>438.0</ele><time>2026-05-03T13:22:59.898Z</time></trkpt><trkpt lat="44.3772735" lon="8.0409912"><ele>438.0</ele><time>2026-05-03T13:23:01.904Z</time></trkpt><trkpt lat="44.3771899" lon="8.0410609"><ele>438.0</ele><time>2026-05-03T13:23:02.907Z</time></trkpt><trkpt lat="44.3770722" lon="8.0410933"><ele>438.0</ele><time>2026-05-03T13:23:03.912Z</time></trkpt><trkpt lat="44.3769456" lon="8.0410921"><ele>438.0</ele><time>2026-05-03T13:23:04.899Z</time></trkpt><trkpt lat="44.3768047" lon="8.0410575"><ele>438.25</ele><time>2026-05-03T13:23:05.908Z</time></trkpt><trkpt lat="44.3766718" lon="8.0410199"><ele>438.5</ele><time>2026-05-03T13:23:06.9Z</time></trkpt><trkpt lat="44.3765461" lon="8.0409789"><ele>438.75</ele><time>2026-05-03T13:23:07.911Z</time></trkpt><trkpt lat="44.3764235" lon="8.040946"><ele>439.0</ele><time>2026-05-03T13:23:08.901Z</time></trkpt><trkpt lat="44.3762977" lon="8.0409138"><ele>439.25</ele><time>2026-05-03T13:23:09.909Z</time></trkpt><trkpt lat="44.3761708" lon="8.040874"><ele>439.5</ele><time>2026-05-03T13:23:10.905Z</time></trkpt><trkpt lat="44.3760419" lon="8.0408343"><ele>439.75</ele><time>2026-05-03T13:23:11.909Z</time></trkpt><trkpt lat="44.3759197" lon="8.0407887"><ele>440.0</ele><time>2026-05-03T13:23:12.907Z</time></trkpt><trkpt lat="44.375803" lon="8.040744"><ele>439.25</ele><time>2026-05-03T13:23:13.9Z</time></trkpt><trkpt lat="44.3756873" lon="8.0407005"><ele>438.5</ele><time>2026-05-03T13:23:14.903Z</time></trkpt><trkpt lat="44.375574" lon="8.04066"><ele>437.75</ele><time>2026-05-03T13:23:15.91Z</time></trkpt><trkpt lat="44.3754704" lon="8.0406167"><ele>437.0</ele><time>2026-05-03T13:23:16.908Z</time></trkpt><trkpt lat="44.3753707" lon="8.040572"><ele>436.8</ele><time>2026-05-03T13:23:17.907Z</time></trkpt><trkpt lat="44.375277" lon="8.0405161"><ele>436.6</ele><time>2026-05-03T13:23:18.906Z</time></trkpt><trkpt lat="44.3751934" lon="8.0404316"><ele>436.40000000000003</ele><time>2026-05-03T13:23:19.9Z</time></trkpt><trkpt lat="44.3751204" lon="8.0403308"><ele>436.20000000000005</ele><time>2026-05-03T13:23:20.902Z</time></trkpt><trkpt lat="44.3750635" lon="8.0402178"><ele>436.0</ele><time>2026-05-03T13:23:21.914Z</time></trkpt><trkpt lat="44.3750138" lon="8.040098"><ele>436.0</ele><time>2026-05-03T13:23:22.913Z</time></trkpt><trkpt lat="44.3749747" lon="8.0399677"><ele>436.0</ele><time>2026-05-03T13:23:23.909Z</time></trkpt><trkpt lat="44.3749367" lon="8.039844"><ele>436.0</ele><time>2026-05-03T13:23:24.901Z</time></trkpt><trkpt lat="44.374891" lon="8.0397057"><ele>436.0</ele><time>2026-05-03T13:23:25.904Z</time></trkpt><trkpt lat="44.3748294" lon="8.0395806"><ele>436.0</ele><time>2026-05-03T13:23:26.905Z</time></trkpt><trkpt lat="44.3747652" lon="8.0394903"><ele>435.83333333333337</ele><time>2026-05-03T13:23:27.905Z</time></trkpt><trkpt lat="44.3746967" lon="8.0394158"><ele>435.6666666666667</ele><time>2026-05-03T13:23:28.91Z</time></trkpt><trkpt lat="44.374621" lon="8.0393507"><ele>435.5</ele><time>2026-05-03T13:23:29.907Z</time></trkpt><trkpt lat="44.3745537" lon="8.0393109"><ele>435.33333333333337</ele><time>2026-05-03T13:23:30.907Z</time></trkpt><trkpt lat="44.3744493" lon="8.039253"><ele>435.1666666666667</ele><time>2026-05-03T13:23:32.898Z</time></trkpt><trkpt lat="44.3743869" lon="8.039214"><ele>435.0</ele><time>2026-05-03T13:23:34.906Z</time></trkpt><trkpt lat="44.3743173" lon="8.0391837"><ele>435.0</ele><time>2026-05-03T13:23:36.904Z</time></trkpt><trkpt lat="44.3742367" lon="8.0391552"><ele>435.0</ele><time>2026-05-03T13:23:38.911Z</time></trkpt><trkpt lat="44.3741421" lon="8.0391268"><ele>435.0</ele><time>2026-05-03T13:23:40.906Z</time></trkpt><trkpt lat="44.3740825" lon="8.0390964"><ele>435.0</ele><time>2026-05-03T13:23:42.901Z</time></trkpt><trkpt lat="44.3740256" lon="8.0390533"><ele>435.0</ele><time>2026-05-03T13:23:50.905Z</time></trkpt><trkpt lat="44.373925" lon="8.0389791"><ele>435.0</ele><time>2026-05-03T13:24:08.9Z</time></trkpt><trkpt lat="44.3738264" lon="8.0388978"><ele>434.5</ele><time>2026-05-03T13:24:09.92Z</time></trkpt><trkpt lat="44.3737367" lon="8.0388139"><ele>434.0</ele><time>2026-05-03T13:24:10.909Z</time></trkpt><trkpt lat="44.3736373" lon="8.0387248"><ele>433.5</ele><time>2026-05-03T13:24:11.904Z</time></trkpt><trkpt lat="44.3735399" lon="8.0386217"><ele>433.0</ele><time>2026-05-03T13:24:12.905Z</time></trkpt><trkpt lat="44.3734448" lon="8.0385279"><ele>433.0</ele><time>2026-05-03T13:24:13.914Z</time></trkpt><trkpt lat="44.3733435" lon="8.0384267"><ele>433.0</ele><time>2026-05-03T13:24:14.901Z</time></trkpt><trkpt lat="44.3732297" lon="8.0383274"><ele>433.0</ele><time>2026-05-03T13:24:15.909Z</time></trkpt><trkpt lat="44.3731047" lon="8.0382425"><ele>433.0</ele><time>2026-05-03T13:24:16.907Z</time></trkpt><trkpt lat="44.3729743" lon="8.0381926"><ele>432.25</ele><time>2026-05-03T13:24:17.9Z</time></trkpt><trkpt lat="44.3728421" lon="8.03817"><ele>431.5</ele><time>2026-05-03T13:24:18.905Z</time></trkpt><trkpt lat="44.3727139" lon="8.0381741"><ele>430.75</ele><time>2026-05-03T13:24:19.901Z</time></trkpt><trkpt lat="44.3725929" lon="8.0381944"><ele>430.0</ele><time>2026-05-03T13:24:20.905Z</time></trkpt><trkpt lat="44.3724921" lon="8.0382434"><ele>430.0</ele><time>2026-05-03T13:24:21.907Z</time></trkpt><trkpt lat="44.3723911" lon="8.038292"><ele>430.0</ele><time>2026-05-03T13:24:22.902Z</time></trkpt><trkpt lat="44.372294" lon="8.0383228"><ele>430.0</ele><time>2026-05-03T13:24:23.907Z</time></trkpt><trkpt lat="44.3721931" lon="8.0383308"><ele>430.0</ele><time>2026-05-03T13:24:24.903Z</time></trkpt><trkpt lat="44.3720828" lon="8.0382985"><ele>430.0</ele><time>2026-05-03T13:24:25.904Z</time></trkpt><trkpt lat="44.3719795" lon="8.038241"><ele>429.75</ele><time>2026-05-03T13:24:26.901Z</time></trkpt><trkpt lat="44.3718794" lon="8.038146"><ele>429.5</ele><time>2026-05-03T13:24:27.898Z</time></trkpt><trkpt lat="44.371786" lon="8.038018"><ele>429.25</ele><time>2026-05-03T13:24:28.9Z</time></trkpt><trkpt lat="44.3716852" lon="8.0378687"><ele>429.0</ele><time>2026-05-03T13:24:29.906Z</time></trkpt><trkpt lat="44.3715741" lon="8.0377084"><ele>429.0</ele><time>2026-05-03T13:24:30.899Z</time></trkpt><trkpt lat="44.3714566" lon="8.0375443"><ele>429.0</ele><time>2026-05-03T13:24:31.906Z</time></trkpt><trkpt lat="44.3713332" lon="8.0373696"><ele>429.0</ele><time>2026-05-03T13:24:32.897Z</time></trkpt><trkpt lat="44.3712048" lon="8.0371824"><ele>425.33333333333337</ele><time>2026-05-03T13:24:33.893Z</time></trkpt><trkpt lat="44.3710772" lon="8.0369824"><ele>421.6666666666667</ele><time>2026-05-03T13:24:34.902Z</time></trkpt><trkpt lat="44.3709432" lon="8.0367699"><ele>418.0</ele><time>2026-05-03T13:24:35.914Z</time></trkpt><trkpt lat="44.3708008" lon="8.0365415"><ele>415.6666666666667</ele><time>2026-05-03T13:24:36.9Z</time></trkpt><trkpt lat="44.370665" lon="8.036304"><ele>413.33333333333337</ele><time>2026-05-03T13:24:37.902Z</time></trkpt><trkpt lat="44.3705384" lon="8.0360646"><ele>411.0</ele><time>2026-05-03T13:24:38.902Z</time></trkpt><trkpt lat="44.37042" lon="8.0358135"><ele>413.33333333333337</ele><time>2026-05-03T13:24:39.905Z</time></trkpt><trkpt lat="44.3703091" lon="8.0355593"><ele>415.6666666666667</ele><time>2026-05-03T13:24:40.901Z</time></trkpt><trkpt lat="44.3702123" lon="8.0353064"><ele>418.0</ele><time>2026-05-03T13:24:41.896Z</time></trkpt><trkpt lat="44.3701338" lon="8.035063"><ele>419.33333333333337</ele><time>2026-05-03T13:24:42.921Z</time></trkpt><trkpt lat="44.3700622" lon="8.034808"><ele>420.66666666666663</ele><time>2026-05-03T13:24:43.899Z</time></trkpt><trkpt lat="44.3699964" lon="8.0345543"><ele>422.0</ele><time>2026-05-03T13:24:44.905Z</time></trkpt><trkpt lat="44.3699396" lon="8.0342947"><ele>423.66666666666663</ele><time>2026-05-03T13:24:45.908Z</time></trkpt><trkpt lat="44.3698882" lon="8.0340301"><ele>425.33333333333337</ele><time>2026-05-03T13:24:46.904Z</time></trkpt><trkpt lat="44.3698458" lon="8.0337576"><ele>427.0</ele><time>2026-05-03T13:24:47.9Z</time></trkpt><trkpt lat="44.3698129" lon="8.0334812"><ele>429.0</ele><time>2026-05-03T13:24:48.901Z</time></trkpt><trkpt lat="44.3697908" lon="8.0332088"><ele>431.0</ele><time>2026-05-03T13:24:49.914Z</time></trkpt><trkpt lat="44.3697744" lon="8.032938"><ele>433.0</ele><time>2026-05-03T13:24:50.899Z</time></trkpt><trkpt lat="44.3697641" lon="8.0326703"><ele>434.6666666666667</ele><time>2026-05-03T13:24:51.897Z</time></trkpt><trkpt lat="44.3697629" lon="8.0324052"><ele>436.33333333333337</ele><time>2026-05-03T13:24:52.898Z</time></trkpt><trkpt lat="44.3697743" lon="8.0321419"><ele>438.0</ele><time>2026-05-03T13:24:53.899Z</time></trkpt><trkpt lat="44.3697909" lon="8.0318799"><ele>437.33333333333337</ele><time>2026-05-03T13:24:54.901Z</time></trkpt><trkpt lat="44.3698166" lon="8.0316156"><ele>436.6666666666667</ele><time>2026-05-03T13:24:55.911Z</time></trkpt><trkpt lat="44.3698453" lon="8.0313402"><ele>436.0</ele><time>2026-05-03T13:24:56.896Z</time></trkpt><trkpt lat="44.369884" lon="8.0310644"><ele>436.0</ele><time>2026-05-03T13:24:57.907Z</time></trkpt><trkpt lat="44.3699338" lon="8.0307881"><ele>436.0</ele><time>2026-05-03T13:24:58.899Z</time></trkpt><trkpt lat="44.3699979" lon="8.030506"><ele>436.0</ele><time>2026-05-03T13:24:59.897Z</time></trkpt><trkpt lat="44.3700831" lon="8.0302115"><ele>438.5</ele><time>2026-05-03T13:25:00.906Z</time></trkpt><trkpt lat="44.3701862" lon="8.0299046"><ele>441.0</ele><time>2026-05-03T13:25:01.906Z</time></trkpt><trkpt lat="44.3703082" lon="8.0295902"><ele>441.0</ele><time>2026-05-03T13:25:02.899Z</time></trkpt><trkpt lat="44.3704407" lon="8.0292799"><ele>441.0</ele><time>2026-05-03T13:25:03.896Z</time></trkpt><trkpt lat="44.3705909" lon="8.0289666"><ele>436.0</ele><time>2026-05-03T13:25:04.901Z</time></trkpt><trkpt lat="44.3707597" lon="8.0286569"><ele>431.0</ele><time>2026-05-03T13:25:05.901Z</time></trkpt><trkpt lat="44.3709448" lon="8.0283499"><ele>433.0</ele><time>2026-05-03T13:25:06.902Z</time></trkpt><trkpt lat="44.37113" lon="8.0280444"><ele>435.0</ele><time>2026-05-03T13:25:07.904Z</time></trkpt><trkpt lat="44.3713161" lon="8.0277344"><ele>430.5</ele><time>2026-05-03T13:25:08.905Z</time></trkpt><trkpt lat="44.3715014" lon="8.0274179"><ele>426.0</ele><time>2026-05-03T13:25:09.904Z</time></trkpt><trkpt lat="44.3716834" lon="8.0270971"><ele>426.0</ele><time>2026-05-03T13:25:10.901Z</time></trkpt><trkpt lat="44.3718669" lon="8.0267789"><ele>426.0</ele><time>2026-05-03T13:25:11.901Z</time></trkpt><trkpt lat="44.3720496" lon="8.026465"><ele>424.0</ele><time>2026-05-03T13:25:12.906Z</time></trkpt><trkpt lat="44.372235" lon="8.0261495"><ele>422.0</ele><time>2026-05-03T13:25:13.898Z</time></trkpt><trkpt lat="44.3724251" lon="8.025835"><ele>422.5</ele><time>2026-05-03T13:25:14.9Z</time></trkpt><trkpt lat="44.3726202" lon="8.0255272"><ele>423.0</ele><time>2026-05-03T13:25:15.901Z</time></trkpt><trkpt lat="44.3728127" lon="8.0252255"><ele>423.0</ele><time>2026-05-03T13:25:16.905Z</time></trkpt><trkpt lat="44.3730046" lon="8.0249172"><ele>423.0</ele><time>2026-05-03T13:25:17.903Z</time></trkpt><trkpt lat="44.3731906" lon="8.0246047"><ele>423.0</ele><time>2026-05-03T13:25:18.903Z</time></trkpt><trkpt lat="44.3733755" lon="8.0242919"><ele>423.0</ele><time>2026-05-03T13:25:19.901Z</time></trkpt><trkpt lat="44.373556" lon="8.0239865"><ele>423.0</ele><time>2026-05-03T13:25:20.902Z</time></trkpt><trkpt lat="44.3737349" lon="8.0236802"><ele>423.0</ele><time>2026-05-03T13:25:21.909Z</time></trkpt><trkpt lat="44.3739159" lon="8.0233725"><ele>422.5</ele><time>2026-05-03T13:25:22.913Z</time></trkpt><trkpt lat="44.3740941" lon="8.0230675"><ele>422.0</ele><time>2026-05-03T13:25:23.897Z</time></trkpt><trkpt lat="44.3742737" lon="8.0227591"><ele>422.0</ele><time>2026-05-03T13:25:24.899Z</time></trkpt><trkpt lat="44.3744586" lon="8.0224491"><ele>422.0</ele><time>2026-05-03T13:25:25.903Z</time></trkpt><trkpt lat="44.37464" lon="8.0221377"><ele>422.0</ele><time>2026-05-03T13:25:26.904Z</time></trkpt><trkpt lat="44.3748268" lon="8.0218212"><ele>422.0</ele><time>2026-05-03T13:25:27.91Z</time></trkpt><trkpt lat="44.3750165" lon="8.0215087"><ele>422.0</ele><time>2026-05-03T13:25:28.905Z</time></trkpt><trkpt lat="44.3752163" lon="8.0211952"><ele>422.0</ele><time>2026-05-03T13:25:29.904Z</time></trkpt><trkpt lat="44.3754189" lon="8.0208828"><ele>420.5</ele><time>2026-05-03T13:25:30.909Z</time></trkpt><trkpt lat="44.3756355" lon="8.0205835"><ele>419.0</ele><time>2026-05-03T13:25:31.908Z</time></trkpt><trkpt lat="44.3758609" lon="8.020294"><ele>419.0</ele><time>2026-05-03T13:25:32.906Z</time></trkpt><trkpt lat="44.3760929" lon="8.0200057"><ele>419.0</ele><time>2026-05-03T13:25:33.899Z</time></trkpt><trkpt lat="44.3763284" lon="8.0197309"><ele>418.5</ele><time>2026-05-03T13:25:34.904Z</time></trkpt><trkpt lat="44.3765682" lon="8.0194639"><ele>418.0</ele><time>2026-05-03T13:25:35.898Z</time></trkpt><trkpt lat="44.376813" lon="8.019195"><ele>418.5</ele><time>2026-05-03T13:25:36.9Z</time></trkpt><trkpt lat="44.3770616" lon="8.0189288"><ele>419.0</ele><time>2026-05-03T13:25:37.898Z</time></trkpt><trkpt lat="44.377312" lon="8.0186658"><ele>419.0</ele><time>2026-05-03T13:25:38.906Z</time></trkpt><trkpt lat="44.3775618" lon="8.0184101"><ele>419.0</ele><time>2026-05-03T13:25:39.901Z</time></trkpt><trkpt lat="44.3778136" lon="8.0181566"><ele>418.0</ele><time>2026-05-03T13:25:40.904Z</time></trkpt><trkpt lat="44.3780613" lon="8.0179041"><ele>417.0</ele><time>2026-05-03T13:25:41.9Z</time></trkpt><trkpt lat="44.3783108" lon="8.0176463"><ele>417.5</ele><time>2026-05-03T13:25:42.898Z</time></trkpt><trkpt lat="44.378559" lon="8.0173835"><ele>418.0</ele><time>2026-05-03T13:25:43.899Z</time></trkpt><trkpt lat="44.3788172" lon="8.0171185"><ele>418.0</ele><time>2026-05-03T13:25:44.906Z</time></trkpt><trkpt lat="44.3790767" lon="8.0168517"><ele>418.0</ele><time>2026-05-03T13:25:45.905Z</time></trkpt><trkpt lat="44.379337" lon="8.0165895"><ele>418.5</ele><time>2026-05-03T13:25:46.898Z</time></trkpt><trkpt lat="44.3795943" lon="8.0163287"><ele>419.0</ele><time>2026-05-03T13:25:47.903Z</time></trkpt><trkpt lat="44.379855" lon="8.0160645"><ele>419.5</ele><time>2026-05-03T13:25:48.903Z</time></trkpt><trkpt lat="44.3801126" lon="8.0157982"><ele>420.0</ele><time>2026-05-03T13:25:49.894Z</time></trkpt><trkpt lat="44.3803746" lon="8.0155311"><ele>419.0</ele><time>2026-05-03T13:25:50.907Z</time></trkpt><trkpt lat="44.3806403" lon="8.0152641"><ele>418.0</ele><time>2026-05-03T13:25:51.904Z</time></trkpt><trkpt lat="44.3809049" lon="8.0149943"><ele>418.5</ele><time>2026-05-03T13:25:52.899Z</time></trkpt><trkpt lat="44.3811661" lon="8.0147232"><ele>419.0</ele><time>2026-05-03T13:25:53.899Z</time></trkpt><trkpt lat="44.3814327" lon="8.014452"><ele>419.5</ele><time>2026-05-03T13:25:54.902Z</time></trkpt><trkpt lat="44.3816895" lon="8.0141892"><ele>420.0</ele><time>2026-05-03T13:25:55.9Z</time></trkpt><trkpt lat="44.381946" lon="8.013929"><ele>420.0</ele><time>2026-05-03T13:25:56.907Z</time></trkpt><trkpt lat="44.3821998" lon="8.0136703"><ele>420.0</ele><time>2026-05-03T13:25:57.899Z</time></trkpt><trkpt lat="44.3824483" lon="8.0134137"><ele>422.5</ele><time>2026-05-03T13:25:58.906Z</time></trkpt><trkpt lat="44.3826929" lon="8.0131522"><ele>425.0</ele><time>2026-05-03T13:25:59.909Z</time></trkpt><trkpt lat="44.3829387" lon="8.0128908"><ele>424.0</ele><time>2026-05-03T13:26:00.903Z</time></trkpt><trkpt lat="44.3831852" lon="8.0126269"><ele>423.0</ele><time>2026-05-03T13:26:01.902Z</time></trkpt><trkpt lat="44.3834342" lon="8.0123623"><ele>424.0</ele><time>2026-05-03T13:26:02.903Z</time></trkpt><trkpt lat="44.3836831" lon="8.0120999"><ele>425.0</ele><time>2026-05-03T13:26:03.903Z</time></trkpt><trkpt lat="44.3839335" lon="8.0118406"><ele>430.5</ele><time>2026-05-03T13:26:04.905Z</time></trkpt><trkpt lat="44.384187" lon="8.0115775"><ele>436.0</ele><time>2026-05-03T13:26:05.907Z</time></trkpt><trkpt lat="44.3844388" lon="8.0113122"><ele>436.5</ele><time>2026-05-03T13:26:06.909Z</time></trkpt><trkpt lat="44.3846872" lon="8.0110507"><ele>437.0</ele><time>2026-05-03T13:26:07.902Z</time></trkpt><trkpt lat="44.3849313" lon="8.0107883"><ele>437.0</ele><time>2026-05-03T13:26:08.909Z</time></trkpt><trkpt lat="44.3851747" lon="8.0105301"><ele>437.0</ele><time>2026-05-03T13:26:09.898Z</time></trkpt><trkpt lat="44.3854166" lon="8.0102741"><ele>440.0</ele><time>2026-05-03T13:26:10.905Z</time></trkpt><trkpt lat="44.385656" lon="8.0100144"><ele>443.0</ele><time>2026-05-03T13:26:11.9Z</time></trkpt><trkpt lat="44.3858917" lon="8.0097646"><ele>443.0</ele><time>2026-05-03T13:26:12.897Z</time></trkpt><trkpt lat="44.386126" lon="8.0095212"><ele>443.0</ele><time>2026-05-03T13:26:13.905Z</time></trkpt><trkpt lat="44.3863573" lon="8.0092789"><ele>443.5</ele><time>2026-05-03T13:26:14.908Z</time></trkpt><trkpt lat="44.3865828" lon="8.0090346"><ele>444.0</ele><time>2026-05-03T13:26:15.906Z</time></trkpt><trkpt lat="44.3868007" lon="8.0087949"><ele>444.0</ele><time>2026-05-03T13:26:16.9Z</time></trkpt><trkpt lat="44.3870077" lon="8.0085601"><ele>444.0</ele><time>2026-05-03T13:26:17.907Z</time></trkpt><trkpt lat="44.38721" lon="8.0083123"><ele>441.5</ele><time>2026-05-03T13:26:18.905Z</time></trkpt><trkpt lat="44.3873985" lon="8.0080528"><ele>439.0</ele><time>2026-05-03T13:26:19.9Z</time></trkpt><trkpt lat="44.3875758" lon="8.0077813"><ele>442.0</ele><time>2026-05-03T13:26:20.897Z</time></trkpt><trkpt lat="44.387746" lon="8.0074908"><ele>445.0</ele><time>2026-05-03T13:26:21.899Z</time></trkpt><trkpt lat="44.3878982" lon="8.0071852"><ele>441.5</ele><time>2026-05-03T13:26:22.906Z</time></trkpt><trkpt lat="44.3880386" lon="8.0068606"><ele>438.0</ele><time>2026-05-03T13:26:23.898Z</time></trkpt><trkpt lat="44.388167" lon="8.0065271"><ele>438.0</ele><time>2026-05-03T13:26:24.899Z</time></trkpt><trkpt lat="44.3882872" lon="8.0061785"><ele>438.0</ele><time>2026-05-03T13:26:25.899Z</time></trkpt><trkpt lat="44.388401" lon="8.0058252"><ele>439.5</ele><time>2026-05-03T13:26:26.896Z</time></trkpt><trkpt lat="44.3885201" lon="8.0054622"><ele>441.0</ele><time>2026-05-03T13:26:27.903Z</time></trkpt><trkpt lat="44.3886379" lon="8.0051018"><ele>440.5</ele><time>2026-05-03T13:26:28.893Z</time></trkpt><trkpt lat="44.3887612" lon="8.0047337"><ele>440.0</ele><time>2026-05-03T13:26:29.903Z</time></trkpt><trkpt lat="44.3888863" lon="8.0043529"><ele>435.0</ele><time>2026-05-03T13:26:30.893Z</time></trkpt><trkpt lat="44.3890178" lon="8.0039578"><ele>430.0</ele><time>2026-05-03T13:26:31.902Z</time></trkpt><trkpt lat="44.3891495" lon="8.0035579"><ele>429.5</ele><time>2026-05-03T13:26:32.895Z</time></trkpt><trkpt lat="44.3892811" lon="8.0031598"><ele>429.0</ele><time>2026-05-03T13:26:33.895Z</time></trkpt><trkpt lat="44.3894158" lon="8.0027593"><ele>429.0</ele><time>2026-05-03T13:26:34.893Z</time></trkpt><trkpt lat="44.3895507" lon="8.0023601"><ele>429.0</ele><time>2026-05-03T13:26:35.896Z</time></trkpt><trkpt lat="44.3896879" lon="8.0019632"><ele>428.5</ele><time>2026-05-03T13:26:36.902Z</time></trkpt><trkpt lat="44.3898266" lon="8.0015634"><ele>428.0</ele><time>2026-05-03T13:26:37.895Z</time></trkpt><trkpt lat="44.3899655" lon="8.0011567"><ele>428.0</ele><time>2026-05-03T13:26:38.922Z</time></trkpt><trkpt lat="44.3901031" lon="8.0007609"><ele>428.0</ele><time>2026-05-03T13:26:39.9Z</time></trkpt><trkpt lat="44.3902399" lon="8.0003547"><ele>428.0</ele><time>2026-05-03T13:26:40.904Z</time></trkpt><trkpt lat="44.3903771" lon="7.9999453"><ele>428.0</ele><time>2026-05-03T13:26:41.897Z</time></trkpt><trkpt lat="44.3905143" lon="7.9995279"><ele>426.5</ele><time>2026-05-03T13:26:42.901Z</time></trkpt><trkpt lat="44.3906501" lon="7.9991152"><ele>425.0</ele><time>2026-05-03T13:26:43.901Z</time></trkpt><trkpt lat="44.3907868" lon="7.9987038"><ele>425.5</ele><time>2026-05-03T13:26:44.907Z</time></trkpt><trkpt lat="44.3909179" lon="7.9983007"><ele>426.0</ele><time>2026-05-03T13:26:45.925Z</time></trkpt><trkpt lat="44.3910495" lon="7.9979123"><ele>426.0</ele><time>2026-05-03T13:26:46.89Z</time></trkpt><trkpt lat="44.3911756" lon="7.9975337"><ele>426.0</ele><time>2026-05-03T13:26:47.901Z</time></trkpt><trkpt lat="44.3913019" lon="7.9971577"><ele>426.0</ele><time>2026-05-03T13:26:48.892Z</time></trkpt><trkpt lat="44.3914261" lon="7.9967696"><ele>426.0</ele><time>2026-05-03T13:26:49.888Z</time></trkpt><trkpt lat="44.3915538" lon="7.9963869"><ele>426.0</ele><time>2026-05-03T13:26:50.9Z</time></trkpt><trkpt lat="44.3916823" lon="7.9959901"><ele>426.0</ele><time>2026-05-03T13:26:51.894Z</time></trkpt><trkpt lat="44.3918159" lon="7.9955998"><ele>425.0</ele><time>2026-05-03T13:26:52.904Z</time></trkpt><trkpt lat="44.3919505" lon="7.9951981"><ele>424.0</ele><time>2026-05-03T13:26:53.904Z</time></trkpt><trkpt lat="44.3920796" lon="7.9947986"><ele>422.5</ele><time>2026-05-03T13:26:54.904Z</time></trkpt><trkpt lat="44.3922069" lon="7.9943956"><ele>421.0</ele><time>2026-05-03T13:26:55.9Z</time></trkpt><trkpt lat="44.3923357" lon="7.9939936"><ele>421.0</ele><time>2026-05-03T13:26:56.903Z</time></trkpt><trkpt lat="44.3924628" lon="7.9935805"><ele>421.0</ele><time>2026-05-03T13:26:57.905Z</time></trkpt><trkpt lat="44.3925925" lon="7.9931648"><ele>421.5</ele><time>2026-05-03T13:26:58.895Z</time></trkpt><trkpt lat="44.3927224" lon="7.9927486"><ele>422.0</ele><time>2026-05-03T13:26:59.895Z</time></trkpt><trkpt lat="44.3928565" lon="7.9923457"><ele>422.0</ele><time>2026-05-03T13:27:00.902Z</time></trkpt><trkpt lat="44.3929851" lon="7.9919573"><ele>422.0</ele><time>2026-05-03T13:27:01.892Z</time></trkpt><trkpt lat="44.3931156" lon="7.9915681"><ele>421.5</ele><time>2026-05-03T13:27:02.909Z</time></trkpt><trkpt lat="44.3932406" lon="7.9911837"><ele>421.0</ele><time>2026-05-03T13:27:03.899Z</time></trkpt><trkpt lat="44.3933662" lon="7.9908009"><ele>422.5</ele><time>2026-05-03T13:27:04.907Z</time></trkpt><trkpt lat="44.3934919" lon="7.9904137"><ele>424.0</ele><time>2026-05-03T13:27:05.916Z</time></trkpt><trkpt lat="44.3936223" lon="7.9900256"><ele>424.0</ele><time>2026-05-03T13:27:06.9Z</time></trkpt><trkpt lat="44.3937508" lon="7.9896433"><ele>424.0</ele><time>2026-05-03T13:27:07.896Z</time></trkpt><trkpt lat="44.3938766" lon="7.9892615"><ele>423.5</ele><time>2026-05-03T13:27:08.901Z</time></trkpt><trkpt lat="44.3940011" lon="7.988873"><ele>423.0</ele><time>2026-05-03T13:27:09.901Z</time></trkpt><trkpt lat="44.3941288" lon="7.9884949"><ele>425.0</ele><time>2026-05-03T13:27:10.907Z</time></trkpt><trkpt lat="44.3942544" lon="7.9881192"><ele>427.0</ele><time>2026-05-03T13:27:11.905Z</time></trkpt><trkpt lat="44.3943812" lon="7.9877365"><ele>430.5</ele><time>2026-05-03T13:27:12.905Z</time></trkpt><trkpt lat="44.3945095" lon="7.9873557"><ele>434.0</ele><time>2026-05-03T13:27:13.901Z</time></trkpt><trkpt lat="44.3946374" lon="7.9869742"><ele>432.5</ele><time>2026-05-03T13:27:14.904Z</time></trkpt><trkpt lat="44.3947666" lon="7.9865872"><ele>431.0</ele><time>2026-05-03T13:27:15.892Z</time></trkpt><trkpt lat="44.3948973" lon="7.9862032"><ele>430.5</ele><time>2026-05-03T13:27:16.899Z</time></trkpt><trkpt lat="44.3950303" lon="7.9858222"><ele>430.0</ele><time>2026-05-03T13:27:17.897Z</time></trkpt><trkpt lat="44.3951588" lon="7.9854497"><ele>430.0</ele><time>2026-05-03T13:27:18.9Z</time></trkpt><trkpt lat="44.3952861" lon="7.9850725"><ele>430.0</ele><time>2026-05-03T13:27:19.902Z</time></trkpt><trkpt lat="44.3954103" lon="7.9846915"><ele>428.5</ele><time>2026-05-03T13:27:20.901Z</time></trkpt><trkpt lat="44.3955339" lon="7.9843043"><ele>427.0</ele><time>2026-05-03T13:27:21.905Z</time></trkpt><trkpt lat="44.3956586" lon="7.9839223"><ele>426.5</ele><time>2026-05-03T13:27:22.904Z</time></trkpt><trkpt lat="44.3957862" lon="7.9835388"><ele>426.0</ele><time>2026-05-03T13:27:23.9Z</time></trkpt><trkpt lat="44.3959132" lon="7.9831516"><ele>427.0</ele><time>2026-05-03T13:27:24.907Z</time></trkpt><trkpt lat="44.3960419" lon="7.9827689"><ele>428.0</ele><time>2026-05-03T13:27:25.896Z</time></trkpt><trkpt lat="44.3961684" lon="7.9823846"><ele>428.5</ele><time>2026-05-03T13:27:26.904Z</time></trkpt><trkpt lat="44.3962948" lon="7.9820048"><ele>429.0</ele><time>2026-05-03T13:27:27.899Z</time></trkpt><trkpt lat="44.3964211" lon="7.981619"><ele>429.0</ele><time>2026-05-03T13:27:28.904Z</time></trkpt><trkpt lat="44.3965459" lon="7.9812373"><ele>429.0</ele><time>2026-05-03T13:27:29.902Z</time></trkpt><trkpt lat="44.3966734" lon="7.9808544"><ele>431.0</ele><time>2026-05-03T13:27:30.901Z</time></trkpt><trkpt lat="44.3967935" lon="7.9804637"><ele>433.0</ele><time>2026-05-03T13:27:31.896Z</time></trkpt><trkpt lat="44.3969118" lon="7.9800847"><ele>434.5</ele><time>2026-05-03T13:27:32.904Z</time></trkpt><trkpt lat="44.3970287" lon="7.9797078"><ele>436.0</ele><time>2026-05-03T13:27:33.899Z</time></trkpt><trkpt lat="44.397146" lon="7.9793318"><ele>434.0</ele><time>2026-05-03T13:27:34.891Z</time></trkpt><trkpt lat="44.3972684" lon="7.9789568"><ele>432.0</ele><time>2026-05-03T13:27:35.892Z</time></trkpt><trkpt lat="44.3973925" lon="7.9785918"><ele>432.0</ele><time>2026-05-03T13:27:36.906Z</time></trkpt><trkpt lat="44.3975298" lon="7.9782369"><ele>432.0</ele><time>2026-05-03T13:27:37.905Z</time></trkpt><trkpt lat="44.3976893" lon="7.9778909"><ele>432.0</ele><time>2026-05-03T13:27:38.902Z</time></trkpt><trkpt lat="44.3978714" lon="7.977566"><ele>432.0</ele><time>2026-05-03T13:27:39.895Z</time></trkpt><trkpt lat="44.3980626" lon="7.9772576"><ele>431.0</ele><time>2026-05-03T13:27:40.904Z</time></trkpt><trkpt lat="44.3982703" lon="7.9769609"><ele>430.0</ele><time>2026-05-03T13:27:41.893Z</time></trkpt><trkpt lat="44.3984886" lon="7.976677"><ele>430.0</ele><time>2026-05-03T13:27:42.899Z</time></trkpt><trkpt lat="44.3987163" lon="7.9764216"><ele>430.0</ele><time>2026-05-03T13:27:43.898Z</time></trkpt><trkpt lat="44.3989545" lon="7.9761905"><ele>430.0</ele><time>2026-05-03T13:27:44.91Z</time></trkpt><trkpt lat="44.3992007" lon="7.9759743"><ele>430.0</ele><time>2026-05-03T13:27:45.896Z</time></trkpt><trkpt lat="44.3994498" lon="7.9757694"><ele>429.0</ele><time>2026-05-03T13:27:46.898Z</time></trkpt><trkpt lat="44.3997013" lon="7.9755619"><ele>428.0</ele><time>2026-05-03T13:27:47.902Z</time></trkpt><trkpt lat="44.3999626" lon="7.9753526"><ele>428.0</ele><time>2026-05-03T13:27:48.901Z</time></trkpt><trkpt lat="44.4002253" lon="7.9751386"><ele>428.0</ele><time>2026-05-03T13:27:49.898Z</time></trkpt><trkpt lat="44.4004898" lon="7.9749188"><ele>425.0</ele><time>2026-05-03T13:27:50.901Z</time></trkpt><trkpt lat="44.4007641" lon="7.9746973"><ele>422.0</ele><time>2026-05-03T13:27:51.904Z</time></trkpt><trkpt lat="44.4010372" lon="7.974477"><ele>422.0</ele><time>2026-05-03T13:27:52.91Z</time></trkpt><trkpt lat="44.401305" lon="7.9742605"><ele>422.0</ele><time>2026-05-03T13:27:53.896Z</time></trkpt><trkpt lat="44.4015812" lon="7.9740446"><ele>419.0</ele><time>2026-05-03T13:27:54.9Z</time></trkpt><trkpt lat="44.401855" lon="7.9738251"><ele>416.0</ele><time>2026-05-03T13:27:55.907Z</time></trkpt><trkpt lat="44.4021277" lon="7.9736073"><ele>415.5</ele><time>2026-05-03T13:27:56.895Z</time></trkpt><trkpt lat="44.4024006" lon="7.9733853"><ele>415.0</ele><time>2026-05-03T13:27:57.893Z</time></trkpt><trkpt lat="44.4026689" lon="7.973168"><ele>415.0</ele><time>2026-05-03T13:27:58.91Z</time></trkpt><trkpt lat="44.4029459" lon="7.9729484"><ele>415.0</ele><time>2026-05-03T13:27:59.897Z</time></trkpt><trkpt lat="44.4032266" lon="7.9727259"><ele>414.0</ele><time>2026-05-03T13:28:00.901Z</time></trkpt><trkpt lat="44.4035082" lon="7.9725062"><ele>413.0</ele><time>2026-05-03T13:28:01.898Z</time></trkpt><trkpt lat="44.40379" lon="7.9722802"><ele>412.0</ele><time>2026-05-03T13:28:02.901Z</time></trkpt><trkpt lat="44.4040763" lon="7.9720527"><ele>411.0</ele><time>2026-05-03T13:28:03.899Z</time></trkpt><trkpt lat="44.4043569" lon="7.9718279"><ele>411.0</ele><time>2026-05-03T13:28:04.908Z</time></trkpt><trkpt lat="44.4046254" lon="7.9716109"><ele>411.0</ele><time>2026-05-03T13:28:05.888Z</time></trkpt><trkpt lat="44.4048883" lon="7.9714014"><ele>410.5</ele><time>2026-05-03T13:28:06.911Z</time></trkpt><trkpt lat="44.4051501" lon="7.9711877"><ele>410.0</ele><time>2026-05-03T13:28:07.895Z</time></trkpt><trkpt lat="44.4054123" lon="7.9709728"><ele>408.5</ele><time>2026-05-03T13:28:08.903Z</time></trkpt><trkpt lat="44.405681" lon="7.9707545"><ele>407.0</ele><time>2026-05-03T13:28:09.899Z</time></trkpt><trkpt lat="44.4059497" lon="7.9705365"><ele>407.0</ele><time>2026-05-03T13:28:10.899Z</time></trkpt><trkpt lat="44.4062239" lon="7.9703235"><ele>407.0</ele><time>2026-05-03T13:28:11.903Z</time></trkpt><trkpt lat="44.4064983" lon="7.9701221"><ele>406.5</ele><time>2026-05-03T13:28:12.9Z</time></trkpt><trkpt lat="44.4067613" lon="7.9699175"><ele>406.0</ele><time>2026-05-03T13:28:13.896Z</time></trkpt><trkpt lat="44.4070223" lon="7.9697113"><ele>403.5</ele><time>2026-05-03T13:28:14.9Z</time></trkpt><trkpt lat="44.4072827" lon="7.9695021"><ele>401.0</ele><time>2026-05-03T13:28:15.901Z</time></trkpt><trkpt lat="44.4075473" lon="7.9692866"><ele>401.0</ele><time>2026-05-03T13:28:16.904Z</time></trkpt><trkpt lat="44.4078133" lon="7.9690721"><ele>401.0</ele><time>2026-05-03T13:28:17.908Z</time></trkpt><trkpt lat="44.408077" lon="7.9688543"><ele>400.0</ele><time>2026-05-03T13:28:18.904Z</time></trkpt><trkpt lat="44.4083438" lon="7.9686334"><ele>399.0</ele><time>2026-05-03T13:28:19.901Z</time></trkpt><trkpt lat="44.408606" lon="7.9683926"><ele>399.5</ele><time>2026-05-03T13:28:20.906Z</time></trkpt><trkpt lat="44.408858" lon="7.9681361"><ele>400.0</ele><time>2026-05-03T13:28:21.901Z</time></trkpt><trkpt lat="44.409098" lon="7.9678687"><ele>400.0</ele><time>2026-05-03T13:28:22.902Z</time></trkpt><trkpt lat="44.409333" lon="7.9675957"><ele>400.0</ele><time>2026-05-03T13:28:23.902Z</time></trkpt><trkpt lat="44.4095562" lon="7.9673092"><ele>399.0</ele><time>2026-05-03T13:28:24.905Z</time></trkpt><trkpt lat="44.4097692" lon="7.967014"><ele>398.0</ele><time>2026-05-03T13:28:25.897Z</time></trkpt><trkpt lat="44.4099706" lon="7.9667061"><ele>398.0</ele><time>2026-05-03T13:28:26.899Z</time></trkpt><trkpt lat="44.4101633" lon="7.9663906"><ele>398.0</ele><time>2026-05-03T13:28:27.894Z</time></trkpt><trkpt lat="44.4103474" lon="7.9660589"><ele>397.5</ele><time>2026-05-03T13:28:28.899Z</time></trkpt><trkpt lat="44.4105213" lon="7.9657206"><ele>397.0</ele><time>2026-05-03T13:28:29.897Z</time></trkpt><trkpt lat="44.4106875" lon="7.9653693"><ele>395.5</ele><time>2026-05-03T13:28:30.899Z</time></trkpt><trkpt lat="44.4108388" lon="7.9649988"><ele>394.0</ele><time>2026-05-03T13:28:31.904Z</time></trkpt><trkpt lat="44.410985" lon="7.96462"><ele>394.0</ele><time>2026-05-03T13:28:32.923Z</time></trkpt><trkpt lat="44.4111227" lon="7.96423"><ele>394.0</ele><time>2026-05-03T13:28:33.889Z</time></trkpt><trkpt lat="44.4112487" lon="7.9638432"><ele>386.0</ele><time>2026-05-03T13:28:34.906Z</time></trkpt><trkpt lat="44.4113599" lon="7.9634506"><ele>378.0</ele><time>2026-05-03T13:28:35.938Z</time></trkpt><trkpt lat="44.4114551" lon="7.963043"><ele>374.5</ele><time>2026-05-03T13:28:36.89Z</time></trkpt><trkpt lat="44.4115366" lon="7.9626367"><ele>371.0</ele><time>2026-05-03T13:28:37.901Z</time></trkpt><trkpt lat="44.4116054" lon="7.962239"><ele>371.0</ele><time>2026-05-03T13:28:38.894Z</time></trkpt><trkpt lat="44.411661" lon="7.9618406"><ele>371.0</ele><time>2026-05-03T13:28:39.892Z</time></trkpt><trkpt lat="44.411705" lon="7.9614457"><ele>374.0</ele><time>2026-05-03T13:28:40.91Z</time></trkpt><trkpt lat="44.4117383" lon="7.9610472"><ele>377.0</ele><time>2026-05-03T13:28:41.912Z</time></trkpt><trkpt lat="44.4117638" lon="7.9606494"><ele>381.0</ele><time>2026-05-03T13:28:42.94Z</time></trkpt><trkpt lat="44.4117747" lon="7.9602453"><ele>385.0</ele><time>2026-05-03T13:28:43.923Z</time></trkpt><trkpt lat="44.4117743" lon="7.9598478"><ele>385.5</ele><time>2026-05-03T13:28:44.895Z</time></trkpt><trkpt lat="44.4117618" lon="7.9594473"><ele>386.0</ele><time>2026-05-03T13:28:45.904Z</time></trkpt><trkpt lat="44.4117363" lon="7.9590454"><ele>386.0</ele><time>2026-05-03T13:28:46.897Z</time></trkpt><trkpt lat="44.4116969" lon="7.9586457"><ele>386.0</ele><time>2026-05-03T13:28:47.918Z</time></trkpt><trkpt lat="44.4116465" lon="7.9582509"><ele>384.0</ele><time>2026-05-03T13:28:48.927Z</time></trkpt><trkpt lat="44.4115804" lon="7.9578482"><ele>382.0</ele><time>2026-05-03T13:28:49.918Z</time></trkpt><trkpt lat="44.4115002" lon="7.9574328"><ele>377.0</ele><time>2026-05-03T13:28:50.886Z</time></trkpt><trkpt lat="44.4114081" lon="7.9570015"><ele>372.0</ele><time>2026-05-03T13:28:51.904Z</time></trkpt><trkpt lat="44.4113042" lon="7.9565824"><ele>362.5</ele><time>2026-05-03T13:28:52.917Z</time></trkpt><trkpt lat="44.411191" lon="7.9561856"><ele>353.0</ele><time>2026-05-03T13:28:53.905Z</time></trkpt><trkpt lat="44.4110726" lon="7.9558015"><ele>350.5</ele><time>2026-05-03T13:28:54.906Z</time></trkpt><trkpt lat="44.4109568" lon="7.955437"><ele>348.0</ele><time>2026-05-03T13:28:55.914Z</time></trkpt><trkpt lat="44.4108425" lon="7.9550936"><ele>347.0</ele><time>2026-05-03T13:28:56.918Z</time></trkpt><trkpt lat="44.4107358" lon="7.9547518"><ele>346.0</ele><time>2026-05-03T13:28:57.91Z</time></trkpt><trkpt lat="44.4106346" lon="7.9543996"><ele>353.5</ele><time>2026-05-03T13:28:58.914Z</time></trkpt><trkpt lat="44.4105309" lon="7.9540442"><ele>361.0</ele><time>2026-05-03T13:28:59.927Z</time></trkpt><trkpt lat="44.4104316" lon="7.9536866"><ele>374.5</ele><time>2026-05-03T13:29:00.938Z</time></trkpt><trkpt lat="44.410329" lon="7.9533288"><ele>388.0</ele><time>2026-05-03T13:29:01.915Z</time></trkpt><trkpt lat="44.410228" lon="7.9529726"><ele>388.0</ele><time>2026-05-03T13:29:02.9Z</time></trkpt><trkpt lat="44.4101248" lon="7.9526175"><ele>388.0</ele><time>2026-05-03T13:29:03.905Z</time></trkpt><trkpt lat="44.4100193" lon="7.9522642"><ele>389.0</ele><time>2026-05-03T13:29:04.897Z</time></trkpt><trkpt lat="44.4099091" lon="7.9519068"><ele>390.0</ele><time>2026-05-03T13:29:05.898Z</time></trkpt><trkpt lat="44.4098038" lon="7.9515581"><ele>390.5</ele><time>2026-05-03T13:29:06.943Z</time></trkpt><trkpt lat="44.4096976" lon="7.9512152"><ele>391.0</ele><time>2026-05-03T13:29:07.92Z</time></trkpt><trkpt lat="44.4095999" lon="7.9508774"><ele>390.0</ele><time>2026-05-03T13:29:08.941Z</time></trkpt><trkpt lat="44.4094969" lon="7.9505432"><ele>389.0</ele><time>2026-05-03T13:29:09.939Z</time></trkpt><trkpt lat="44.4093925" lon="7.9502089"><ele>393.0</ele><time>2026-05-03T13:29:10.9Z</time></trkpt><trkpt lat="44.4092932" lon="7.9498824"><ele>397.0</ele><time>2026-05-03T13:29:11.937Z</time></trkpt><trkpt lat="44.4092009" lon="7.9495721"><ele>397.0</ele><time>2026-05-03T13:29:12.893Z</time></trkpt><trkpt lat="44.409112" lon="7.9492669"><ele>397.0</ele><time>2026-05-03T13:29:13.88Z</time></trkpt><trkpt lat="44.4090193" lon="7.9489614"><ele>397.0</ele><time>2026-05-03T13:29:14.889Z</time></trkpt><trkpt lat="44.4089227" lon="7.9486453"><ele>397.0</ele><time>2026-05-03T13:29:15.895Z</time></trkpt><trkpt lat="44.4088241" lon="7.9483232"><ele>397.0</ele><time>2026-05-03T13:29:16.955Z</time></trkpt><trkpt lat="44.4087221" lon="7.9479955"><ele>397.0</ele><time>2026-05-03T13:29:17.889Z</time></trkpt><trkpt lat="44.4086167" lon="7.9476647"><ele>400.5</ele><time>2026-05-03T13:29:18.913Z</time></trkpt><trkpt lat="44.4085109" lon="7.9473349"><ele>404.0</ele><time>2026-05-03T13:29:19.893Z</time></trkpt><trkpt lat="44.4084119" lon="7.9470174"><ele>404.0</ele><time>2026-05-03T13:29:20.922Z</time></trkpt><trkpt lat="44.4083237" lon="7.9467261"><ele>404.0</ele><time>2026-05-03T13:29:21.94Z</time></trkpt><trkpt lat="44.408234" lon="7.9464506"><ele>404.0</ele><time>2026-05-03T13:29:22.915Z</time></trkpt><trkpt lat="44.4081532" lon="7.9461837"><ele>404.66666666666663</ele><time>2026-05-03T13:29:23.895Z</time></trkpt><trkpt lat="44.4080758" lon="7.9459316"><ele>405.33333333333337</ele><time>2026-05-03T13:29:24.939Z</time></trkpt><trkpt lat="44.4079964" lon="7.9456717"><ele>406.0</ele><time>2026-05-03T13:29:25.915Z</time></trkpt><trkpt lat="44.4079178" lon="7.9454122"><ele>408.0</ele><time>2026-05-03T13:29:26.901Z</time></trkpt><trkpt lat="44.4078347" lon="7.9451468"><ele>410.0</ele><time>2026-05-03T13:29:27.904Z</time></trkpt><trkpt lat="44.4077522" lon="7.9448795"><ele>412.0</ele><time>2026-05-03T13:29:28.903Z</time></trkpt><trkpt lat="44.4076716" lon="7.9446231"><ele>412.6666666666667</ele><time>2026-05-03T13:29:29.912Z</time></trkpt><trkpt lat="44.4075906" lon="7.9443648"><ele>413.33333333333337</ele><time>2026-05-03T13:29:30.92Z</time></trkpt><trkpt lat="44.4075116" lon="7.9441087"><ele>414.0</ele><time>2026-05-03T13:29:31.913Z</time></trkpt><trkpt lat="44.4074386" lon="7.9438459"><ele>414.33333333333337</ele><time>2026-05-03T13:29:32.896Z</time></trkpt><trkpt lat="44.4073544" lon="7.9435783"><ele>414.6666666666667</ele><time>2026-05-03T13:29:33.906Z</time></trkpt><trkpt lat="44.4072718" lon="7.9433089"><ele>415.0</ele><time>2026-05-03T13:29:34.898Z</time></trkpt><trkpt lat="44.4071877" lon="7.9430329"><ele>416.5</ele><time>2026-05-03T13:29:35.897Z</time></trkpt><trkpt lat="44.4070955" lon="7.9427513"><ele>418.0</ele><time>2026-05-03T13:29:36.903Z</time></trkpt><trkpt lat="44.406997" lon="7.9424502"><ele>418.0</ele><time>2026-05-03T13:29:37.907Z</time></trkpt><trkpt lat="44.4068954" lon="7.9421408"><ele>418.0</ele><time>2026-05-03T13:29:38.925Z</time></trkpt><trkpt lat="44.4067968" lon="7.9418355"><ele>418.5</ele><time>2026-05-03T13:29:39.908Z</time></trkpt><trkpt lat="44.4066974" lon="7.9415341"><ele>419.0</ele><time>2026-05-03T13:29:40.911Z</time></trkpt><trkpt lat="44.4066057" lon="7.9412327"><ele>419.0</ele><time>2026-05-03T13:29:41.912Z</time></trkpt><trkpt lat="44.4065127" lon="7.9409312"><ele>419.0</ele><time>2026-05-03T13:29:42.916Z</time></trkpt><trkpt lat="44.4064224" lon="7.9406383"><ele>419.0</ele><time>2026-05-03T13:29:43.905Z</time></trkpt><trkpt lat="44.4063317" lon="7.9403495"><ele>419.0</ele><time>2026-05-03T13:29:44.896Z</time></trkpt><trkpt lat="44.4062442" lon="7.9400691"><ele>419.0</ele><time>2026-05-03T13:29:45.888Z</time></trkpt><trkpt lat="44.4061572" lon="7.9397895"><ele>419.0</ele><time>2026-05-03T13:29:46.904Z</time></trkpt><trkpt lat="44.4060746" lon="7.9395045"><ele>419.0</ele><time>2026-05-03T13:29:47.92Z</time></trkpt><trkpt lat="44.405988" lon="7.939221"><ele>419.0</ele><time>2026-05-03T13:29:48.934Z</time></trkpt><trkpt lat="44.4059024" lon="7.9389286"><ele>419.0</ele><time>2026-05-03T13:29:49.885Z</time></trkpt><trkpt lat="44.4058138" lon="7.9386354"><ele>419.0</ele><time>2026-05-03T13:29:50.941Z</time></trkpt><trkpt lat="44.4057202" lon="7.9383378"><ele>419.0</ele><time>2026-05-03T13:29:51.96Z</time></trkpt><trkpt lat="44.4056302" lon="7.9380366"><ele>419.0</ele><time>2026-05-03T13:29:52.931Z</time></trkpt><trkpt lat="44.4055378" lon="7.9377366"><ele>419.5</ele><time>2026-05-03T13:29:53.905Z</time></trkpt><trkpt lat="44.4054433" lon="7.9374385"><ele>420.0</ele><time>2026-05-03T13:29:54.904Z</time></trkpt><trkpt lat="44.405349" lon="7.9371401"><ele>420.0</ele><time>2026-05-03T13:29:55.903Z</time></trkpt><trkpt lat="44.4052528" lon="7.9368313"><ele>420.0</ele><time>2026-05-03T13:29:56.901Z</time></trkpt><trkpt lat="44.4051588" lon="7.9365209"><ele>421.0</ele><time>2026-05-03T13:29:57.922Z</time></trkpt><trkpt lat="44.4050656" lon="7.9362179"><ele>422.0</ele><time>2026-05-03T13:29:58.925Z</time></trkpt><trkpt lat="44.4049802" lon="7.9359313"><ele>422.0</ele><time>2026-05-03T13:29:59.904Z</time></trkpt><trkpt lat="44.4048936" lon="7.9356557"><ele>422.0</ele><time>2026-05-03T13:30:00.951Z</time></trkpt><trkpt lat="44.4048091" lon="7.9353802"><ele>422.0</ele><time>2026-05-03T13:30:01.931Z</time></trkpt><trkpt lat="44.4047278" lon="7.9351069"><ele>422.3333333333333</ele><time>2026-05-03T13:30:02.902Z</time></trkpt><trkpt lat="44.4046427" lon="7.9348243"><ele>422.66666666666663</ele><time>2026-05-03T13:30:03.946Z</time></trkpt><trkpt lat="44.4045557" lon="7.9345396"><ele>423.0</ele><time>2026-05-03T13:30:04.914Z</time></trkpt><trkpt lat="44.4044689" lon="7.9342527"><ele>423.33333333333337</ele><time>2026-05-03T13:30:05.922Z</time></trkpt><trkpt lat="44.4043776" lon="7.9339681"><ele>423.6666666666667</ele><time>2026-05-03T13:30:06.908Z</time></trkpt><trkpt lat="44.4042907" lon="7.9336819"><ele>424.0</ele><time>2026-05-03T13:30:07.942Z</time></trkpt><trkpt lat="44.4042023" lon="7.9333896"><ele>423.0</ele><time>2026-05-03T13:30:08.958Z</time></trkpt><trkpt lat="44.4041149" lon="7.9330898"><ele>422.0</ele><time>2026-05-03T13:30:09.962Z</time></trkpt><trkpt lat="44.4040265" lon="7.9327783"><ele>421.0</ele><time>2026-05-03T13:30:10.961Z</time></trkpt><trkpt lat="44.4039398" lon="7.9324555"><ele>420.0</ele><time>2026-05-03T13:30:11.969Z</time></trkpt><trkpt lat="44.4038563" lon="7.9321195"><ele>423.0</ele><time>2026-05-03T13:30:12.922Z</time></trkpt><trkpt lat="44.4037866" lon="7.9317777"><ele>426.0</ele><time>2026-05-03T13:30:13.893Z</time></trkpt><trkpt lat="44.403725" lon="7.9314247"><ele>428.0</ele><time>2026-05-03T13:30:14.935Z</time></trkpt><trkpt lat="44.403667" lon="7.9310671"><ele>430.0</ele><time>2026-05-03T13:30:15.917Z</time></trkpt><trkpt lat="44.4036163" lon="7.9307008"><ele>430.0</ele><time>2026-05-03T13:30:16.925Z</time></trkpt><trkpt lat="44.4035707" lon="7.9303359"><ele>430.0</ele><time>2026-05-03T13:30:17.941Z</time></trkpt><trkpt lat="44.4035344" lon="7.9299809"><ele>430.0</ele><time>2026-05-03T13:30:18.954Z</time></trkpt><trkpt lat="44.4035094" lon="7.9296269"><ele>430.0</ele><time>2026-05-03T13:30:19.962Z</time></trkpt><trkpt lat="44.4034932" lon="7.9292728"><ele>429.0</ele><time>2026-05-03T13:30:20.955Z</time></trkpt><trkpt lat="44.403486" lon="7.9289073"><ele>428.0</ele><time>2026-05-03T13:30:21.93Z</time></trkpt><trkpt lat="44.4034879" lon="7.928542"><ele>428.5</ele><time>2026-05-03T13:30:22.954Z</time></trkpt><trkpt lat="44.4035025" lon="7.928178"><ele>429.0</ele><time>2026-05-03T13:30:23.92Z</time></trkpt><trkpt lat="44.4035261" lon="7.9278183"><ele>427.5</ele><time>2026-05-03T13:30:24.975Z</time></trkpt><trkpt lat="44.4035579" lon="7.9274588"><ele>426.0</ele><time>2026-05-03T13:30:25.907Z</time></trkpt><trkpt lat="44.4035907" lon="7.927103"><ele>426.0</ele><time>2026-05-03T13:30:26.948Z</time></trkpt><trkpt lat="44.403633" lon="7.9267516"><ele>426.0</ele><time>2026-05-03T13:30:27.96Z</time></trkpt><trkpt lat="44.4036808" lon="7.926401"><ele>424.5</ele><time>2026-05-03T13:30:28.952Z</time></trkpt><trkpt lat="44.4037321" lon="7.926055"><ele>423.0</ele><time>2026-05-03T13:30:29.968Z</time></trkpt><trkpt lat="44.4037964" lon="7.9257067"><ele>420.0</ele><time>2026-05-03T13:30:30.933Z</time></trkpt><trkpt lat="44.4038715" lon="7.9253575"><ele>417.0</ele><time>2026-05-03T13:30:31.954Z</time></trkpt><trkpt lat="44.4039536" lon="7.9250046"><ele>417.0</ele><time>2026-05-03T13:30:32.93Z</time></trkpt><trkpt lat="44.4040439" lon="7.9246467"><ele>417.0</ele><time>2026-05-03T13:30:33.942Z</time></trkpt><trkpt lat="44.4041455" lon="7.9242894"><ele>417.5</ele><time>2026-05-03T13:30:34.965Z</time></trkpt><trkpt lat="44.4042617" lon="7.9239229"><ele>418.0</ele><time>2026-05-03T13:30:35.931Z</time></trkpt><trkpt lat="44.4043853" lon="7.923558"><ele>419.5</ele><time>2026-05-03T13:30:36.95Z</time></trkpt><trkpt lat="44.4045238" lon="7.9232037"><ele>421.0</ele><time>2026-05-03T13:30:37.931Z</time></trkpt><trkpt lat="44.4046663" lon="7.9228702"><ele>419.0</ele><time>2026-05-03T13:30:38.969Z</time></trkpt><trkpt lat="44.4048171" lon="7.9225465"><ele>417.0</ele><time>2026-05-03T13:30:39.962Z</time></trkpt><trkpt lat="44.4049733" lon="7.9222288"><ele>417.0</ele><time>2026-05-03T13:30:40.941Z</time></trkpt><trkpt lat="44.4051329" lon="7.9219204"><ele>417.0</ele><time>2026-05-03T13:30:41.947Z</time></trkpt><trkpt lat="44.4052964" lon="7.9216139"><ele>417.5</ele><time>2026-05-03T13:30:42.944Z</time></trkpt><trkpt lat="44.4054681" lon="7.921318"><ele>418.0</ele><time>2026-05-03T13:30:43.932Z</time></trkpt><trkpt lat="44.4056371" lon="7.9210138"><ele>418.5</ele><time>2026-05-03T13:30:44.907Z</time></trkpt><trkpt lat="44.4058035" lon="7.9207125"><ele>419.0</ele><time>2026-05-03T13:30:45.931Z</time></trkpt><trkpt lat="44.4059738" lon="7.920408"><ele>419.0</ele><time>2026-05-03T13:30:46.928Z</time></trkpt><trkpt lat="44.4061443" lon="7.9200964"><ele>419.0</ele><time>2026-05-03T13:30:47.918Z</time></trkpt><trkpt lat="44.4063152" lon="7.9197768"><ele>418.5</ele><time>2026-05-03T13:30:48.921Z</time></trkpt><trkpt lat="44.4064876" lon="7.9194631"><ele>418.0</ele><time>2026-05-03T13:30:49.913Z</time></trkpt><trkpt lat="44.4066634" lon="7.9191537"><ele>419.0</ele><time>2026-05-03T13:30:50.918Z</time></trkpt><trkpt lat="44.4068389" lon="7.9188455"><ele>420.0</ele><time>2026-05-03T13:30:51.888Z</time></trkpt><trkpt lat="44.4070164" lon="7.9185335"><ele>417.0</ele><time>2026-05-03T13:30:52.904Z</time></trkpt><trkpt lat="44.4071895" lon="7.9182214"><ele>414.0</ele><time>2026-05-03T13:30:53.889Z</time></trkpt><trkpt lat="44.4073624" lon="7.9179082"><ele>414.0</ele><time>2026-05-03T13:30:54.942Z</time></trkpt><trkpt lat="44.4075343" lon="7.9175938"><ele>414.0</ele><time>2026-05-03T13:30:55.907Z</time></trkpt><trkpt lat="44.4077074" lon="7.9172825"><ele>415.5</ele><time>2026-05-03T13:30:56.895Z</time></trkpt><trkpt lat="44.4078894" lon="7.9169636"><ele>417.0</ele><time>2026-05-03T13:30:57.904Z</time></trkpt><trkpt lat="44.4080721" lon="7.9166434"><ele>417.0</ele><time>2026-05-03T13:30:58.902Z</time></trkpt><trkpt lat="44.4084425" lon="7.9159847"><ele>418.5</ele><time>2026-05-03T13:31:00.903Z</time></trkpt><trkpt lat="44.4086323" lon="7.9156606"><ele>420.0</ele><time>2026-05-03T13:31:01.91Z</time></trkpt><trkpt lat="44.4088303" lon="7.9153299"><ele>415.5</ele><time>2026-05-03T13:31:02.902Z</time></trkpt><trkpt lat="44.4090311" lon="7.9149885"><ele>411.0</ele><time>2026-05-03T13:31:03.899Z</time></trkpt><trkpt lat="44.409229" lon="7.9146455"><ele>411.0</ele><time>2026-05-03T13:31:04.897Z</time></trkpt><trkpt lat="44.4094307" lon="7.9143024"><ele>411.0</ele><time>2026-05-03T13:31:05.905Z</time></trkpt><trkpt lat="44.4096287" lon="7.9139607"><ele>405.0</ele><time>2026-05-03T13:31:06.931Z</time></trkpt><trkpt lat="44.409824" lon="7.9136219"><ele>399.0</ele><time>2026-05-03T13:31:07.908Z</time></trkpt><trkpt lat="44.4100149" lon="7.9132895"><ele>399.0</ele><time>2026-05-03T13:31:08.91Z</time></trkpt><trkpt lat="44.4102089" lon="7.9129544"><ele>399.0</ele><time>2026-05-03T13:31:09.907Z</time></trkpt><trkpt lat="44.4104009" lon="7.9126172"><ele>399.5</ele><time>2026-05-03T13:31:10.921Z</time></trkpt><trkpt lat="44.4106004" lon="7.9122829"><ele>400.0</ele><time>2026-05-03T13:31:11.912Z</time></trkpt><trkpt lat="44.4107964" lon="7.9119558"><ele>404.5</ele><time>2026-05-03T13:31:12.9Z</time></trkpt><trkpt lat="44.4109936" lon="7.9116249"><ele>409.0</ele><time>2026-05-03T13:31:13.949Z</time></trkpt><trkpt lat="44.4111862" lon="7.9112928"><ele>411.0</ele><time>2026-05-03T13:31:14.91Z</time></trkpt><trkpt lat="44.4113797" lon="7.9109509"><ele>413.0</ele><time>2026-05-03T13:31:15.903Z</time></trkpt><trkpt lat="44.4115725" lon="7.9106147"><ele>413.0</ele><time>2026-05-03T13:31:16.898Z</time></trkpt><trkpt lat="44.4117659" lon="7.9102733"><ele>413.0</ele><time>2026-05-03T13:31:17.909Z</time></trkpt><trkpt lat="44.4119658" lon="7.9099322"><ele>412.5</ele><time>2026-05-03T13:31:18.913Z</time></trkpt><trkpt lat="44.4121662" lon="7.9095911"><ele>412.0</ele><time>2026-05-03T13:31:19.91Z</time></trkpt><trkpt lat="44.4123628" lon="7.909241"><ele>417.0</ele><time>2026-05-03T13:31:20.896Z</time></trkpt><trkpt lat="44.4125593" lon="7.9088944"><ele>422.0</ele><time>2026-05-03T13:31:21.912Z</time></trkpt><trkpt lat="44.4127537" lon="7.9085546"><ele>420.0</ele><time>2026-05-03T13:31:22.92Z</time></trkpt><trkpt lat="44.4129477" lon="7.9082082"><ele>418.0</ele><time>2026-05-03T13:31:23.919Z</time></trkpt><trkpt lat="44.4131279" lon="7.9078509"><ele>419.5</ele><time>2026-05-03T13:31:24.917Z</time></trkpt><trkpt lat="44.4132882" lon="7.9074726"><ele>421.0</ele><time>2026-05-03T13:31:25.919Z</time></trkpt><trkpt lat="44.413427" lon="7.907078"><ele>424.0</ele><time>2026-05-03T13:31:26.916Z</time></trkpt><trkpt lat="44.4135399" lon="7.9066679"><ele>427.0</ele><time>2026-05-03T13:31:27.921Z</time></trkpt><trkpt lat="44.413636" lon="7.9062432"><ele>431.0</ele><time>2026-05-03T13:31:28.902Z</time></trkpt><trkpt lat="44.4137102" lon="7.9058148"><ele>435.0</ele><time>2026-05-03T13:31:29.904Z</time></trkpt><trkpt lat="44.413759" lon="7.9053873"><ele>435.5</ele><time>2026-05-03T13:31:30.905Z</time></trkpt><trkpt lat="44.4137946" lon="7.9049642"><ele>436.0</ele><time>2026-05-03T13:31:31.909Z</time></trkpt><trkpt lat="44.4138197" lon="7.9045519"><ele>429.5</ele><time>2026-05-03T13:31:32.908Z</time></trkpt><trkpt lat="44.4138424" lon="7.9041487"><ele>423.0</ele><time>2026-05-03T13:31:33.913Z</time></trkpt><trkpt lat="44.4138754" lon="7.9037395"><ele>422.5</ele><time>2026-05-03T13:31:34.906Z</time></trkpt><trkpt lat="44.4139035" lon="7.903331"><ele>422.0</ele><time>2026-05-03T13:31:35.906Z</time></trkpt><trkpt lat="44.413937" lon="7.9029248"><ele>420.5</ele><time>2026-05-03T13:31:36.903Z</time></trkpt><trkpt lat="44.4139838" lon="7.9025359"><ele>419.0</ele><time>2026-05-03T13:31:37.906Z</time></trkpt><trkpt lat="44.4140496" lon="7.9021578"><ele>419.0</ele><time>2026-05-03T13:31:38.904Z</time></trkpt><trkpt lat="44.414142" lon="7.9017805"><ele>419.0</ele><time>2026-05-03T13:31:39.901Z</time></trkpt><trkpt lat="44.414252" lon="7.9014169"><ele>417.0</ele><time>2026-05-03T13:31:40.9Z</time></trkpt><trkpt lat="44.4143779" lon="7.901061"><ele>415.0</ele><time>2026-05-03T13:31:41.906Z</time></trkpt><trkpt lat="44.4145227" lon="7.9007113"><ele>399.5</ele><time>2026-05-03T13:31:42.906Z</time></trkpt><trkpt lat="44.4146667" lon="7.9003657"><ele>384.0</ele><time>2026-05-03T13:31:43.904Z</time></trkpt><trkpt lat="44.4148125" lon="7.9000172"><ele>384.0</ele><time>2026-05-03T13:31:44.91Z</time></trkpt><trkpt lat="44.4149558" lon="7.8996606"><ele>384.0</ele><time>2026-05-03T13:31:45.925Z</time></trkpt><trkpt lat="44.4151033" lon="7.8993028"><ele>395.0</ele><time>2026-05-03T13:31:46.915Z</time></trkpt><trkpt lat="44.4152559" lon="7.8989436"><ele>406.0</ele><time>2026-05-03T13:31:47.906Z</time></trkpt><trkpt lat="44.4154068" lon="7.8985789"><ele>410.5</ele><time>2026-05-03T13:31:48.91Z</time></trkpt><trkpt lat="44.4155633" lon="7.8982161"><ele>415.0</ele><time>2026-05-03T13:31:49.91Z</time></trkpt><trkpt lat="44.4157158" lon="7.8978527"><ele>417.0</ele><time>2026-05-03T13:31:50.914Z</time></trkpt><trkpt lat="44.4158727" lon="7.8974891"><ele>419.0</ele><time>2026-05-03T13:31:51.902Z</time></trkpt><trkpt lat="44.4160238" lon="7.8971267"><ele>419.0</ele><time>2026-05-03T13:31:52.918Z</time></trkpt><trkpt lat="44.4161737" lon="7.8967635"><ele>419.0</ele><time>2026-05-03T13:31:53.92Z</time></trkpt><trkpt lat="44.4163251" lon="7.8964016"><ele>418.0</ele><time>2026-05-03T13:31:54.903Z</time></trkpt><trkpt lat="44.4164784" lon="7.8960404"><ele>417.0</ele><time>2026-05-03T13:31:55.913Z</time></trkpt><trkpt lat="44.4166343" lon="7.8956755"><ele>417.0</ele><time>2026-05-03T13:31:56.901Z</time></trkpt><trkpt lat="44.4167917" lon="7.8953132"><ele>417.0</ele><time>2026-05-03T13:31:57.916Z</time></trkpt><trkpt lat="44.4169536" lon="7.8949503"><ele>416.5</ele><time>2026-05-03T13:31:58.9Z</time></trkpt><trkpt lat="44.4171176" lon="7.8945895"><ele>416.0</ele><time>2026-05-03T13:31:59.906Z</time></trkpt><trkpt lat="44.4172814" lon="7.8942495"><ele>416.0</ele><time>2026-05-03T13:32:00.901Z</time></trkpt><trkpt lat="44.4174453" lon="7.8939354"><ele>416.0</ele><time>2026-05-03T13:32:01.9Z</time></trkpt><trkpt lat="44.417619" lon="7.8936248"><ele>413.5</ele><time>2026-05-03T13:32:02.897Z</time></trkpt><trkpt lat="44.4178044" lon="7.8933121"><ele>411.0</ele><time>2026-05-03T13:32:03.892Z</time></trkpt><trkpt lat="44.4179961" lon="7.8930014"><ele>411.0</ele><time>2026-05-03T13:32:04.9Z</time></trkpt><trkpt lat="44.418202" lon="7.8926872"><ele>411.0</ele><time>2026-05-03T13:32:05.894Z</time></trkpt><trkpt lat="44.4184178" lon="7.8923848"><ele>413.0</ele><time>2026-05-03T13:32:06.899Z</time></trkpt><trkpt lat="44.418645" lon="7.8920853"><ele>415.0</ele><time>2026-05-03T13:32:07.899Z</time></trkpt><trkpt lat="44.4188849" lon="7.8917954"><ele>410.5</ele><time>2026-05-03T13:32:08.903Z</time></trkpt><trkpt lat="44.4191367" lon="7.8915037"><ele>406.0</ele><time>2026-05-03T13:32:09.903Z</time></trkpt><trkpt lat="44.4193908" lon="7.8912196"><ele>406.0</ele><time>2026-05-03T13:32:10.901Z</time></trkpt><trkpt lat="44.4196335" lon="7.8909422"><ele>406.0</ele><time>2026-05-03T13:32:11.895Z</time></trkpt><trkpt lat="44.4198699" lon="7.8906843"><ele>406.5</ele><time>2026-05-03T13:32:12.906Z</time></trkpt><trkpt lat="44.4201034" lon="7.8904249"><ele>407.0</ele><time>2026-05-03T13:32:13.894Z</time></trkpt><trkpt lat="44.4203354" lon="7.8901636"><ele>412.0</ele><time>2026-05-03T13:32:14.901Z</time></trkpt><trkpt lat="44.4205685" lon="7.8899069"><ele>417.0</ele><time>2026-05-03T13:32:15.9Z</time></trkpt><trkpt lat="44.420799" lon="7.8896404"><ele>417.0</ele><time>2026-05-03T13:32:16.901Z</time></trkpt><trkpt lat="44.421034" lon="7.8893635"><ele>417.0</ele><time>2026-05-03T13:32:17.899Z</time></trkpt><trkpt lat="44.4212719" lon="7.8890884"><ele>417.0</ele><time>2026-05-03T13:32:18.898Z</time></trkpt><trkpt lat="44.4215076" lon="7.888821"><ele>417.0</ele><time>2026-05-03T13:32:19.903Z</time></trkpt><trkpt lat="44.4217449" lon="7.8885538"><ele>416.0</ele><time>2026-05-03T13:32:20.899Z</time></trkpt><trkpt lat="44.4219808" lon="7.8882786"><ele>415.0</ele><time>2026-05-03T13:32:21.898Z</time></trkpt><trkpt lat="44.4222088" lon="7.8879968"><ele>415.0</ele><time>2026-05-03T13:32:22.897Z</time></trkpt><trkpt lat="44.4224282" lon="7.8877031"><ele>415.0</ele><time>2026-05-03T13:32:23.907Z</time></trkpt><trkpt lat="44.4226393" lon="7.8873891"><ele>415.5</ele><time>2026-05-03T13:32:24.892Z</time></trkpt><trkpt lat="44.4228412" lon="7.8870665"><ele>416.0</ele><time>2026-05-03T13:32:25.904Z</time></trkpt><trkpt lat="44.4230355" lon="7.8867268"><ele>416.0</ele><time>2026-05-03T13:32:26.9Z</time></trkpt><trkpt lat="44.4232104" lon="7.8863825"><ele>416.0</ele><time>2026-05-03T13:32:27.906Z</time></trkpt><trkpt lat="44.4233606" lon="7.8860385"><ele>417.0</ele><time>2026-05-03T13:32:28.902Z</time></trkpt><trkpt lat="44.4234872" lon="7.8856809"><ele>418.0</ele><time>2026-05-03T13:32:29.898Z</time></trkpt><trkpt lat="44.4235908" lon="7.8853038"><ele>420.0</ele><time>2026-05-03T13:32:30.895Z</time></trkpt><trkpt lat="44.4236699" lon="7.8849212"><ele>422.0</ele><time>2026-05-03T13:32:31.898Z</time></trkpt><trkpt lat="44.4237303" lon="7.8845313"><ele>423.0</ele><time>2026-05-03T13:32:32.9Z</time></trkpt><trkpt lat="44.42377" lon="7.8841322"><ele>424.0</ele><time>2026-05-03T13:32:33.896Z</time></trkpt><trkpt lat="44.4237934" lon="7.8837329"><ele>424.0</ele><time>2026-05-03T13:32:34.894Z</time></trkpt><trkpt lat="44.4237957" lon="7.8833326"><ele>424.0</ele><time>2026-05-03T13:32:35.895Z</time></trkpt><trkpt lat="44.423775" lon="7.8829281"><ele>424.5</ele><time>2026-05-03T13:32:36.892Z</time></trkpt><trkpt lat="44.4237408" lon="7.882532"><ele>425.0</ele><time>2026-05-03T13:32:37.896Z</time></trkpt><trkpt lat="44.4236867" lon="7.882146"><ele>424.5</ele><time>2026-05-03T13:32:38.898Z</time></trkpt><trkpt lat="44.4236161" lon="7.881763"><ele>424.0</ele><time>2026-05-03T13:32:39.901Z</time></trkpt><trkpt lat="44.4235295" lon="7.8813817"><ele>424.0</ele><time>2026-05-03T13:32:40.91Z</time></trkpt><trkpt lat="44.4234257" lon="7.8810035"><ele>424.0</ele><time>2026-05-03T13:32:41.9Z</time></trkpt><trkpt lat="44.4233132" lon="7.880641"><ele>422.5</ele><time>2026-05-03T13:32:42.903Z</time></trkpt><trkpt lat="44.4231832" lon="7.8802921"><ele>421.0</ele><time>2026-05-03T13:32:43.893Z</time></trkpt><trkpt lat="44.423042" lon="7.8799553"><ele>422.5</ele><time>2026-05-03T13:32:44.902Z</time></trkpt><trkpt lat="44.4228817" lon="7.8796316"><ele>424.0</ele><time>2026-05-03T13:32:45.903Z</time></trkpt><trkpt lat="44.4227249" lon="7.8793191"><ele>422.5</ele><time>2026-05-03T13:32:46.898Z</time></trkpt><trkpt lat="44.4225719" lon="7.8790066"><ele>421.0</ele><time>2026-05-03T13:32:47.906Z</time></trkpt><trkpt lat="44.4224259" lon="7.8786996"><ele>415.5</ele><time>2026-05-03T13:32:48.901Z</time></trkpt><trkpt lat="44.4222834" lon="7.8783999"><ele>410.0</ele><time>2026-05-03T13:32:49.884Z</time></trkpt><trkpt lat="44.4200522" lon="7.8737892"><ele>410.0</ele><time>2026-05-03T13:33:12.875Z</time></trkpt><trkpt lat="44.4199713" lon="7.8735875"><ele>410.0</ele><time>2026-05-03T13:33:13.889Z</time></trkpt><trkpt lat="44.4198721" lon="7.873374"><ele>410.0</ele><time>2026-05-03T13:33:14.896Z</time></trkpt><trkpt lat="44.4197715" lon="7.8731672"><ele>411.0</ele><time>2026-05-03T13:33:15.889Z</time></trkpt><trkpt lat="44.4196745" lon="7.8729505"><ele>412.0</ele><time>2026-05-03T13:33:16.897Z</time></trkpt><trkpt lat="44.4195755" lon="7.8727411"><ele>413.0</ele><time>2026-05-03T13:33:17.885Z</time></trkpt><trkpt lat="44.4194797" lon="7.8725391"><ele>408.66666666666663</ele><time>2026-05-03T13:33:18.901Z</time></trkpt><trkpt lat="44.419384" lon="7.8723441"><ele>404.33333333333337</ele><time>2026-05-03T13:33:19.89Z</time></trkpt><trkpt lat="44.4192851" lon="7.8721483"><ele>400.0</ele><time>2026-05-03T13:33:20.897Z</time></trkpt><trkpt lat="44.4191756" lon="7.8719363"><ele>398.0</ele><time>2026-05-03T13:33:21.9Z</time></trkpt><trkpt lat="44.4190664" lon="7.8717177"><ele>396.0</ele><time>2026-05-03T13:33:22.9Z</time></trkpt><trkpt lat="44.4189639" lon="7.8715066"><ele>394.0</ele><time>2026-05-03T13:33:23.903Z</time></trkpt><trkpt lat="44.4188674" lon="7.8713006"><ele>393.33333333333337</ele><time>2026-05-03T13:33:24.894Z</time></trkpt><trkpt lat="44.4187705" lon="7.8710994"><ele>392.66666666666663</ele><time>2026-05-03T13:33:25.899Z</time></trkpt><trkpt lat="44.4186677" lon="7.8708848"><ele>392.0</ele><time>2026-05-03T13:33:26.89Z</time></trkpt><trkpt lat="44.418557" lon="7.8706451"><ele>392.0</ele><time>2026-05-03T13:33:27.898Z</time></trkpt><trkpt lat="44.4184423" lon="7.8704025"><ele>392.0</ele><time>2026-05-03T13:33:28.906Z</time></trkpt><trkpt lat="44.4183276" lon="7.8701444"><ele>392.0</ele><time>2026-05-03T13:33:29.903Z</time></trkpt><trkpt lat="44.4182177" lon="7.8698661"><ele>389.5</ele><time>2026-05-03T13:33:30.906Z</time></trkpt><trkpt lat="44.4181171" lon="7.869582"><ele>387.0</ele><time>2026-05-03T13:33:31.895Z</time></trkpt><trkpt lat="44.418025" lon="7.8692878"><ele>382.5</ele><time>2026-05-03T13:33:32.905Z</time></trkpt><trkpt lat="44.417944" lon="7.8689813"><ele>378.0</ele><time>2026-05-03T13:33:33.903Z</time></trkpt><trkpt lat="44.4178765" lon="7.8686604"><ele>365.0</ele><time>2026-05-03T13:33:34.895Z</time></trkpt><trkpt lat="44.4178163" lon="7.8683337"><ele>352.0</ele><time>2026-05-03T13:33:35.899Z</time></trkpt><trkpt lat="44.417756" lon="7.8679985"><ele>352.0</ele><time>2026-05-03T13:33:36.899Z</time></trkpt><trkpt lat="44.417695" lon="7.8676603"><ele>352.0</ele><time>2026-05-03T13:33:37.898Z</time></trkpt><trkpt lat="44.4176286" lon="7.8673202"><ele>342.0</ele><time>2026-05-03T13:33:38.898Z</time></trkpt><trkpt lat="44.4175644" lon="7.8669785"><ele>332.0</ele><time>2026-05-03T13:33:39.893Z</time></trkpt><trkpt lat="44.417502" lon="7.866637"><ele>328.0</ele><time>2026-05-03T13:33:40.897Z</time></trkpt><trkpt lat="44.4174434" lon="7.8663093"><ele>324.0</ele><time>2026-05-03T13:33:41.907Z</time></trkpt><trkpt lat="44.4173875" lon="7.8659798"><ele>323.0</ele><time>2026-05-03T13:33:42.905Z</time></trkpt><trkpt lat="44.4173355" lon="7.8656571"><ele>322.0</ele><time>2026-05-03T13:33:43.898Z</time></trkpt><trkpt lat="44.4172917" lon="7.8653266"><ele>323.0</ele><time>2026-05-03T13:33:44.905Z</time></trkpt><trkpt lat="44.4172643" lon="7.8649997"><ele>324.0</ele><time>2026-05-03T13:33:45.898Z</time></trkpt><trkpt lat="44.4172491" lon="7.864669"><ele>324.0</ele><time>2026-05-03T13:33:46.896Z</time></trkpt><trkpt lat="44.4172426" lon="7.8643335"><ele>324.0</ele><time>2026-05-03T13:33:47.901Z</time></trkpt><trkpt lat="44.4172544" lon="7.8639861"><ele>326.0</ele><time>2026-05-03T13:33:48.909Z</time></trkpt><trkpt lat="44.4172792" lon="7.8636362"><ele>328.0</ele><time>2026-05-03T13:33:49.897Z</time></trkpt><trkpt lat="44.4173197" lon="7.8632758"><ele>337.0</ele><time>2026-05-03T13:33:50.905Z</time></trkpt><trkpt lat="44.4173774" lon="7.862919"><ele>346.0</ele><time>2026-05-03T13:33:51.902Z</time></trkpt><trkpt lat="44.4174446" lon="7.8625755"><ele>353.0</ele><time>2026-05-03T13:33:52.906Z</time></trkpt><trkpt lat="44.4175248" lon="7.8622476"><ele>360.0</ele><time>2026-05-03T13:33:53.907Z</time></trkpt><trkpt lat="44.417615" lon="7.861929"><ele>361.0</ele><time>2026-05-03T13:33:54.903Z</time></trkpt><trkpt lat="44.4177163" lon="7.8616142"><ele>362.0</ele><time>2026-05-03T13:33:55.899Z</time></trkpt><trkpt lat="44.4178299" lon="7.8613122"><ele>362.0</ele><time>2026-05-03T13:33:56.898Z</time></trkpt><trkpt lat="44.4179569" lon="7.8610189"><ele>362.0</ele><time>2026-05-03T13:33:57.902Z</time></trkpt><trkpt lat="44.418097" lon="7.8607189"><ele>367.5</ele><time>2026-05-03T13:33:58.898Z</time></trkpt><trkpt lat="44.4182492" lon="7.8604315"><ele>373.0</ele><time>2026-05-03T13:33:59.902Z</time></trkpt><trkpt lat="44.4184216" lon="7.8601585"><ele>374.0</ele><time>2026-05-03T13:34:00.904Z</time></trkpt><trkpt lat="44.4186047" lon="7.8598981"><ele>375.0</ele><time>2026-05-03T13:34:01.9Z</time></trkpt><trkpt lat="44.4188002" lon="7.8596505"><ele>370.5</ele><time>2026-05-03T13:34:02.898Z</time></trkpt><trkpt lat="44.4190025" lon="7.8594198"><ele>366.0</ele><time>2026-05-03T13:34:03.902Z</time></trkpt><trkpt lat="44.419221" lon="7.8591975"><ele>364.0</ele><time>2026-05-03T13:34:04.901Z</time></trkpt><trkpt lat="44.4194442" lon="7.8589939"><ele>362.0</ele><time>2026-05-03T13:34:05.895Z</time></trkpt><trkpt lat="44.4196748" lon="7.8588031"><ele>353.0</ele><time>2026-05-03T13:34:06.901Z</time></trkpt><trkpt lat="44.4199105" lon="7.8586249"><ele>344.0</ele><time>2026-05-03T13:34:07.902Z</time></trkpt><trkpt lat="44.420146" lon="7.8584527"><ele>347.0</ele><time>2026-05-03T13:34:08.897Z</time></trkpt><trkpt lat="44.4203813" lon="7.8582765"><ele>350.0</ele><time>2026-05-03T13:34:09.898Z</time></trkpt><trkpt lat="44.4206172" lon="7.858102"><ele>358.5</ele><time>2026-05-03T13:34:10.897Z</time></trkpt><trkpt lat="44.4208544" lon="7.8579211"><ele>367.0</ele><time>2026-05-03T13:34:11.889Z</time></trkpt><trkpt lat="44.4210972" lon="7.8577402"><ele>370.0</ele><time>2026-05-03T13:34:12.899Z</time></trkpt><trkpt lat="44.4213452" lon="7.8575674"><ele>373.0</ele><time>2026-05-03T13:34:13.897Z</time></trkpt><trkpt lat="44.4215976" lon="7.8573936"><ele>373.0</ele><time>2026-05-03T13:34:14.9Z</time></trkpt><trkpt lat="44.421852" lon="7.8572264"><ele>373.0</ele><time>2026-05-03T13:34:15.903Z</time></trkpt><trkpt lat="44.4221117" lon="7.8570634"><ele>374.0</ele><time>2026-05-03T13:34:16.898Z</time></trkpt><trkpt lat="44.4223705" lon="7.8569007"><ele>375.0</ele><time>2026-05-03T13:34:17.894Z</time></trkpt><trkpt lat="44.4226345" lon="7.8567409"><ele>376.0</ele><time>2026-05-03T13:34:18.899Z</time></trkpt><trkpt lat="44.4228974" lon="7.8565824"><ele>377.0</ele><time>2026-05-03T13:34:19.899Z</time></trkpt><trkpt lat="44.4231646" lon="7.8564179"><ele>378.0</ele><time>2026-05-03T13:34:20.895Z</time></trkpt><trkpt lat="44.4234339" lon="7.8562506"><ele>379.0</ele><time>2026-05-03T13:34:21.896Z</time></trkpt><trkpt lat="44.4237044" lon="7.8560885"><ele>379.5</ele><time>2026-05-03T13:34:22.902Z</time></trkpt><trkpt lat="44.4239792" lon="7.8559224"><ele>380.0</ele><time>2026-05-03T13:34:23.903Z</time></trkpt><trkpt lat="44.4242534" lon="7.855751"><ele>380.0</ele><time>2026-05-03T13:34:24.9Z</time></trkpt><trkpt lat="44.4245334" lon="7.8555815"><ele>380.0</ele><time>2026-05-03T13:34:25.905Z</time></trkpt><trkpt lat="44.4248191" lon="7.8554092"><ele>382.0</ele><time>2026-05-03T13:34:26.912Z</time></trkpt><trkpt lat="44.4250988" lon="7.8552447"><ele>384.0</ele><time>2026-05-03T13:34:27.913Z</time></trkpt><trkpt lat="44.4253739" lon="7.8550774"><ele>383.5</ele><time>2026-05-03T13:34:28.9Z</time></trkpt><trkpt lat="44.4256427" lon="7.8549207"><ele>383.0</ele><time>2026-05-03T13:34:29.895Z</time></trkpt><trkpt lat="44.425914" lon="7.8547597"><ele>383.0</ele><time>2026-05-03T13:34:30.901Z</time></trkpt><trkpt lat="44.4261858" lon="7.8545936"><ele>383.0</ele><time>2026-05-03T13:34:31.894Z</time></trkpt><trkpt lat="44.4264556" lon="7.8544312"><ele>382.0</ele><time>2026-05-03T13:34:32.902Z</time></trkpt><trkpt lat="44.4267186" lon="7.8542743"><ele>381.0</ele><time>2026-05-03T13:34:33.899Z</time></trkpt><trkpt lat="44.4269799" lon="7.8541149"><ele>380.5</ele><time>2026-05-03T13:34:34.902Z</time></trkpt><trkpt lat="44.4272395" lon="7.8539554"><ele>380.0</ele><time>2026-05-03T13:34:35.892Z</time></trkpt><trkpt lat="44.4275053" lon="7.8537962"><ele>380.0</ele><time>2026-05-03T13:34:36.899Z</time></trkpt><trkpt lat="44.4277692" lon="7.8536339"><ele>380.0</ele><time>2026-05-03T13:34:37.895Z</time></trkpt><trkpt lat="44.428026" lon="7.8534817"><ele>380.0</ele><time>2026-05-03T13:34:38.898Z</time></trkpt><trkpt lat="44.428269" lon="7.853342"><ele>380.0</ele><time>2026-05-03T13:34:39.894Z</time></trkpt><trkpt lat="44.4284996" lon="7.8532105"><ele>380.0</ele><time>2026-05-03T13:34:40.901Z</time></trkpt><trkpt lat="44.4287225" lon="7.8530817"><ele>380.0</ele><time>2026-05-03T13:34:41.895Z</time></trkpt><trkpt lat="44.4289376" lon="7.8529487"><ele>379.0</ele><time>2026-05-03T13:34:42.903Z</time></trkpt><trkpt lat="44.4291609" lon="7.8528188"><ele>378.0</ele><time>2026-05-03T13:34:43.902Z</time></trkpt><trkpt lat="44.4293852" lon="7.8526836"><ele>376.0</ele><time>2026-05-03T13:34:44.901Z</time></trkpt><trkpt lat="44.4296153" lon="7.8525473"><ele>374.0</ele><time>2026-05-03T13:34:45.905Z</time></trkpt><trkpt lat="44.4298446" lon="7.8524049"><ele>371.5</ele><time>2026-05-03T13:34:46.897Z</time></trkpt><trkpt lat="44.4300841" lon="7.8522619"><ele>369.0</ele><time>2026-05-03T13:34:47.901Z</time></trkpt><trkpt lat="44.4303171" lon="7.8521203"><ele>362.0</ele><time>2026-05-03T13:34:48.897Z</time></trkpt><trkpt lat="44.4305477" lon="7.8519799"><ele>355.0</ele><time>2026-05-03T13:34:49.891Z</time></trkpt><trkpt lat="44.4307726" lon="7.8518458"><ele>349.0</ele><time>2026-05-03T13:34:50.901Z</time></trkpt><trkpt lat="44.4309938" lon="7.8517133"><ele>343.0</ele><time>2026-05-03T13:34:51.896Z</time></trkpt><trkpt lat="44.4312145" lon="7.8515789"><ele>344.5</ele><time>2026-05-03T13:34:52.902Z</time></trkpt><trkpt lat="44.4314335" lon="7.8514416"><ele>346.0</ele><time>2026-05-03T13:34:53.895Z</time></trkpt><trkpt lat="44.4316498" lon="7.8513072"><ele>346.0</ele><time>2026-05-03T13:34:54.901Z</time></trkpt><trkpt lat="44.4318521" lon="7.8511875"><ele>346.0</ele><time>2026-05-03T13:34:55.903Z</time></trkpt><trkpt lat="44.4320567" lon="7.8510665"><ele>346.0</ele><time>2026-05-03T13:34:56.894Z</time></trkpt><trkpt lat="44.4322655" lon="7.8509422"><ele>357.5</ele><time>2026-05-03T13:34:57.906Z</time></trkpt><trkpt lat="44.4324743" lon="7.8508202"><ele>369.0</ele><time>2026-05-03T13:34:58.894Z</time></trkpt><trkpt lat="44.4326809" lon="7.8506972"><ele>369.0</ele><time>2026-05-03T13:34:59.903Z</time></trkpt><trkpt lat="44.4328866" lon="7.8505708"><ele>369.0</ele><time>2026-05-03T13:35:00.903Z</time></trkpt><trkpt lat="44.433103" lon="7.850444"><ele>375.5</ele><time>2026-05-03T13:35:01.901Z</time></trkpt><trkpt lat="44.4333217" lon="7.8503131"><ele>382.0</ele><time>2026-05-03T13:35:02.914Z</time></trkpt><trkpt lat="44.433549" lon="7.8501738"><ele>383.0</ele><time>2026-05-03T13:35:03.897Z</time></trkpt><trkpt lat="44.4337864" lon="7.8500315"><ele>384.0</ele><time>2026-05-03T13:35:04.891Z</time></trkpt><trkpt lat="44.4340307" lon="7.8498876"><ele>385.0</ele><time>2026-05-03T13:35:05.9Z</time></trkpt><trkpt lat="44.4342769" lon="7.8497359"><ele>386.0</ele><time>2026-05-03T13:35:06.897Z</time></trkpt><trkpt lat="44.4345286" lon="7.8495788"><ele>386.5</ele><time>2026-05-03T13:35:07.894Z</time></trkpt><trkpt lat="44.4347784" lon="7.8494262"><ele>387.0</ele><time>2026-05-03T13:35:08.901Z</time></trkpt><trkpt lat="44.4350295" lon="7.8492736"><ele>387.5</ele><time>2026-05-03T13:35:09.9Z</time></trkpt><trkpt lat="44.4352823" lon="7.8491248"><ele>388.0</ele><time>2026-05-03T13:35:10.91Z</time></trkpt><trkpt lat="44.435536" lon="7.8489727"><ele>387.0</ele><time>2026-05-03T13:35:11.896Z</time></trkpt><trkpt lat="44.4357776" lon="7.8488256"><ele>386.0</ele><time>2026-05-03T13:35:12.899Z</time></trkpt><trkpt lat="44.4360186" lon="7.8486848"><ele>386.0</ele><time>2026-05-03T13:35:13.896Z</time></trkpt><trkpt lat="44.4362603" lon="7.8485414"><ele>386.0</ele><time>2026-05-03T13:35:14.898Z</time></trkpt><trkpt lat="44.4364974" lon="7.8483976"><ele>387.0</ele><time>2026-05-03T13:35:15.907Z</time></trkpt><trkpt lat="44.4367328" lon="7.8482515"><ele>388.0</ele><time>2026-05-03T13:35:16.901Z</time></trkpt><trkpt lat="44.4369693" lon="7.8481132"><ele>386.5</ele><time>2026-05-03T13:35:17.91Z</time></trkpt><trkpt lat="44.4372061" lon="7.8479717"><ele>385.0</ele><time>2026-05-03T13:35:18.9Z</time></trkpt><trkpt lat="44.4374487" lon="7.8478259"><ele>385.0</ele><time>2026-05-03T13:35:19.896Z</time></trkpt><trkpt lat="44.4376973" lon="7.8476772"><ele>385.0</ele><time>2026-05-03T13:35:20.896Z</time></trkpt><trkpt lat="44.437947" lon="7.8475283"><ele>384.0</ele><time>2026-05-03T13:35:21.897Z</time></trkpt><trkpt lat="44.438196" lon="7.8473756"><ele>383.0</ele><time>2026-05-03T13:35:22.9Z</time></trkpt><trkpt lat="44.4384466" lon="7.8472181"><ele>383.0</ele><time>2026-05-03T13:35:23.905Z</time></trkpt><trkpt lat="44.4387011" lon="7.8470642"><ele>383.0</ele><time>2026-05-03T13:35:24.901Z</time></trkpt><trkpt lat="44.4389603" lon="7.8469123"><ele>382.5</ele><time>2026-05-03T13:35:25.897Z</time></trkpt><trkpt lat="44.439226" lon="7.8467586"><ele>382.0</ele><time>2026-05-03T13:35:26.896Z</time></trkpt><trkpt lat="44.4394983" lon="7.8465964"><ele>382.0</ele><time>2026-05-03T13:35:27.894Z</time></trkpt><trkpt lat="44.4397797" lon="7.84643"><ele>382.0</ele><time>2026-05-03T13:35:28.903Z</time></trkpt><trkpt lat="44.4400671" lon="7.8462525"><ele>382.0</ele><time>2026-05-03T13:35:29.898Z</time></trkpt><trkpt lat="44.4403594" lon="7.8460777"><ele>382.0</ele><time>2026-05-03T13:35:30.902Z</time></trkpt><trkpt lat="44.440646" lon="7.8459032"><ele>382.5</ele><time>2026-05-03T13:35:31.916Z</time></trkpt><trkpt lat="44.4409344" lon="7.8457341"><ele>383.0</ele><time>2026-05-03T13:35:32.898Z</time></trkpt><trkpt lat="44.4412228" lon="7.84556"><ele>383.0</ele><time>2026-05-03T13:35:33.899Z</time></trkpt><trkpt lat="44.4415153" lon="7.8453836"><ele>383.0</ele><time>2026-05-03T13:35:34.897Z</time></trkpt><trkpt lat="44.4418111" lon="7.8452082"><ele>383.0</ele><time>2026-05-03T13:35:35.9Z</time></trkpt><trkpt lat="44.442109" lon="7.8450289"><ele>383.0</ele><time>2026-05-03T13:35:36.905Z</time></trkpt><trkpt lat="44.4424063" lon="7.8448468"><ele>383.0</ele><time>2026-05-03T13:35:37.898Z</time></trkpt><trkpt lat="44.442708" lon="7.844664"><ele>383.0</ele><time>2026-05-03T13:35:38.908Z</time></trkpt><trkpt lat="44.4430131" lon="7.8444831"><ele>383.5</ele><time>2026-05-03T13:35:39.899Z</time></trkpt><trkpt lat="44.4433143" lon="7.8443019"><ele>384.0</ele><time>2026-05-03T13:35:40.904Z</time></trkpt><trkpt lat="44.4436169" lon="7.8441293"><ele>384.5</ele><time>2026-05-03T13:35:41.901Z</time></trkpt><trkpt lat="44.4439139" lon="7.8439638"><ele>385.0</ele><time>2026-05-03T13:35:42.905Z</time></trkpt><trkpt lat="44.4442125" lon="7.8437965"><ele>385.0</ele><time>2026-05-03T13:35:43.9Z</time></trkpt><trkpt lat="44.4445081" lon="7.8436265"><ele>385.0</ele><time>2026-05-03T13:35:44.896Z</time></trkpt><trkpt lat="44.4447951" lon="7.8434575"><ele>385.0</ele><time>2026-05-03T13:35:45.893Z</time></trkpt><trkpt lat="44.4450774" lon="7.8432876"><ele>385.0</ele><time>2026-05-03T13:35:46.898Z</time></trkpt><trkpt lat="44.4453576" lon="7.8431129"><ele>385.5</ele><time>2026-05-03T13:35:47.899Z</time></trkpt><trkpt lat="44.4456348" lon="7.842935"><ele>386.0</ele><time>2026-05-03T13:35:48.908Z</time></trkpt><trkpt lat="44.4459179" lon="7.8427642"><ele>386.0</ele><time>2026-05-03T13:35:49.899Z</time></trkpt><trkpt lat="44.4462069" lon="7.8425921"><ele>386.0</ele><time>2026-05-03T13:35:50.895Z</time></trkpt><trkpt lat="44.446495" lon="7.8424169"><ele>385.0</ele><time>2026-05-03T13:35:51.906Z</time></trkpt><trkpt lat="44.4467884" lon="7.8422436"><ele>384.0</ele><time>2026-05-03T13:35:52.897Z</time></trkpt><trkpt lat="44.4470818" lon="7.8420641"><ele>385.0</ele><time>2026-05-03T13:35:53.898Z</time></trkpt><trkpt lat="44.4473786" lon="7.8418862"><ele>386.0</ele><time>2026-05-03T13:35:54.899Z</time></trkpt><trkpt lat="44.447674" lon="7.8417129"><ele>386.5</ele><time>2026-05-03T13:35:55.902Z</time></trkpt><trkpt lat="44.4479714" lon="7.8415342"><ele>387.0</ele><time>2026-05-03T13:35:56.906Z</time></trkpt><trkpt lat="44.4482731" lon="7.8413494"><ele>387.0</ele><time>2026-05-03T13:35:57.895Z</time></trkpt><trkpt lat="44.448576" lon="7.8411669"><ele>387.0</ele><time>2026-05-03T13:35:58.907Z</time></trkpt><trkpt lat="44.4488863" lon="7.8409857"><ele>387.0</ele><time>2026-05-03T13:35:59.902Z</time></trkpt><trkpt lat="44.4491994" lon="7.8407994"><ele>387.0</ele><time>2026-05-03T13:36:00.903Z</time></trkpt><trkpt lat="44.4495147" lon="7.8406097"><ele>387.0</ele><time>2026-05-03T13:36:01.891Z</time></trkpt><trkpt lat="44.4498317" lon="7.8404224"><ele>387.0</ele><time>2026-05-03T13:36:02.908Z</time></trkpt><trkpt lat="44.4501461" lon="7.8402371"><ele>379.5</ele><time>2026-05-03T13:36:03.898Z</time></trkpt><trkpt lat="44.450461" lon="7.8400611"><ele>372.0</ele><time>2026-05-03T13:36:04.913Z</time></trkpt><trkpt lat="44.4507775" lon="7.8398828"><ele>372.0</ele><time>2026-05-03T13:36:05.897Z</time></trkpt><trkpt lat="44.4510894" lon="7.8397133"><ele>372.0</ele><time>2026-05-03T13:36:06.903Z</time></trkpt><trkpt lat="44.4513987" lon="7.8395466"><ele>362.0</ele><time>2026-05-03T13:36:07.899Z</time></trkpt><trkpt lat="44.4517087" lon="7.8393758"><ele>352.0</ele><time>2026-05-03T13:36:08.898Z</time></trkpt><trkpt lat="44.4520237" lon="7.8392112"><ele>341.0</ele><time>2026-05-03T13:36:09.903Z</time></trkpt><trkpt lat="44.4523408" lon="7.8390442"><ele>330.0</ele><time>2026-05-03T13:36:10.906Z</time></trkpt><trkpt lat="44.4526549" lon="7.8388841"><ele>319.0</ele><time>2026-05-03T13:36:11.897Z</time></trkpt><trkpt lat="44.4529712" lon="7.8387235"><ele>308.0</ele><time>2026-05-03T13:36:12.895Z</time></trkpt><trkpt lat="44.4532901" lon="7.838561"><ele>308.0</ele><time>2026-05-03T13:36:13.914Z</time></trkpt><trkpt lat="44.453601" lon="7.8384004"><ele>308.0</ele><time>2026-05-03T13:36:14.907Z</time></trkpt><trkpt lat="44.4539164" lon="7.8382392"><ele>308.0</ele><time>2026-05-03T13:36:15.897Z</time></trkpt><trkpt lat="44.4542323" lon="7.8380757"><ele>308.0</ele><time>2026-05-03T13:36:16.901Z</time></trkpt><trkpt lat="44.454543" lon="7.8379101"><ele>307.5</ele><time>2026-05-03T13:36:17.907Z</time></trkpt><trkpt lat="44.4548605" lon="7.8377467"><ele>307.0</ele><time>2026-05-03T13:36:18.899Z</time></trkpt><trkpt lat="44.4551711" lon="7.8375866"><ele>306.5</ele><time>2026-05-03T13:36:19.906Z</time></trkpt><trkpt lat="44.4554771" lon="7.8374333"><ele>306.0</ele><time>2026-05-03T13:36:20.9Z</time></trkpt><trkpt lat="44.4557782" lon="7.8372821"><ele>306.0</ele><time>2026-05-03T13:36:21.896Z</time></trkpt><trkpt lat="44.4560777" lon="7.8371368"><ele>306.0</ele><time>2026-05-03T13:36:22.895Z</time></trkpt><trkpt lat="44.4563671" lon="7.8369941"><ele>312.0</ele><time>2026-05-03T13:36:23.897Z</time></trkpt><trkpt lat="44.4566515" lon="7.836852"><ele>318.0</ele><time>2026-05-03T13:36:24.902Z</time></trkpt><trkpt lat="44.4569336" lon="7.8367056"><ele>321.0</ele><time>2026-05-03T13:36:25.91Z</time></trkpt><trkpt lat="44.4572129" lon="7.8365612"><ele>324.0</ele><time>2026-05-03T13:36:26.894Z</time></trkpt><trkpt lat="44.4574918" lon="7.836416"><ele>324.0</ele><time>2026-05-03T13:36:27.909Z</time></trkpt><trkpt lat="44.4577722" lon="7.8362741"><ele>324.0</ele><time>2026-05-03T13:36:28.908Z</time></trkpt><trkpt lat="44.4580539" lon="7.8361287"><ele>326.0</ele><time>2026-05-03T13:36:29.899Z</time></trkpt><trkpt lat="44.4583363" lon="7.8359827"><ele>328.0</ele><time>2026-05-03T13:36:30.9Z</time></trkpt><trkpt lat="44.4586177" lon="7.835838"><ele>334.0</ele><time>2026-05-03T13:36:31.902Z</time></trkpt><trkpt lat="44.4588963" lon="7.8356994"><ele>340.0</ele><time>2026-05-03T13:36:32.901Z</time></trkpt><trkpt lat="44.4591673" lon="7.8355644"><ele>340.0</ele><time>2026-05-03T13:36:33.912Z</time></trkpt><trkpt lat="44.4594237" lon="7.8354308"><ele>340.0</ele><time>2026-05-03T13:36:34.9Z</time></trkpt><trkpt lat="44.4596663" lon="7.8353115"><ele>346.5</ele><time>2026-05-03T13:36:35.901Z</time></trkpt><trkpt lat="44.4598971" lon="7.8351956"><ele>353.0</ele><time>2026-05-03T13:36:36.909Z</time></trkpt><trkpt lat="44.4601305" lon="7.8350772"><ele>354.5</ele><time>2026-05-03T13:36:37.908Z</time></trkpt><trkpt lat="44.4603592" lon="7.8349576"><ele>356.0</ele><time>2026-05-03T13:36:38.901Z</time></trkpt><trkpt lat="44.4605929" lon="7.834835"><ele>363.5</ele><time>2026-05-03T13:36:39.901Z</time></trkpt><trkpt lat="44.4608317" lon="7.8347144"><ele>371.0</ele><time>2026-05-03T13:36:40.906Z</time></trkpt><trkpt lat="44.4610803" lon="7.8345899"><ele>372.0</ele><time>2026-05-03T13:36:41.901Z</time></trkpt><trkpt lat="44.4613389" lon="7.8344564"><ele>373.0</ele><time>2026-05-03T13:36:42.896Z</time></trkpt><trkpt lat="44.4616051" lon="7.834318"><ele>372.5</ele><time>2026-05-03T13:36:43.903Z</time></trkpt><trkpt lat="44.4618787" lon="7.8341778"><ele>372.0</ele><time>2026-05-03T13:36:44.899Z</time></trkpt><trkpt lat="44.462153" lon="7.834044"><ele>372.0</ele><time>2026-05-03T13:36:45.899Z</time></trkpt><trkpt lat="44.4624221" lon="7.8339098"><ele>372.0</ele><time>2026-05-03T13:36:46.902Z</time></trkpt><trkpt lat="44.4626907" lon="7.8337696"><ele>372.5</ele><time>2026-05-03T13:36:47.9Z</time></trkpt><trkpt lat="44.462957" lon="7.8336281"><ele>373.0</ele><time>2026-05-03T13:36:48.907Z</time></trkpt><trkpt lat="44.4632233" lon="7.8334835"><ele>373.0</ele><time>2026-05-03T13:36:49.901Z</time></trkpt><trkpt lat="44.463494" lon="7.8333437"><ele>373.0</ele><time>2026-05-03T13:36:50.895Z</time></trkpt><trkpt lat="44.4637589" lon="7.8332091"><ele>373.5</ele><time>2026-05-03T13:36:51.89Z</time></trkpt><trkpt lat="44.4640148" lon="7.8330887"><ele>374.0</ele><time>2026-05-03T13:36:52.903Z</time></trkpt><trkpt lat="44.4642495" lon="7.8329769"><ele>374.0</ele><time>2026-05-03T13:36:53.902Z</time></trkpt><trkpt lat="44.4644713" lon="7.832863"><ele>374.0</ele><time>2026-05-03T13:36:54.901Z</time></trkpt><trkpt lat="44.4646895" lon="7.8327524"><ele>374.5</ele><time>2026-05-03T13:36:55.894Z</time></trkpt><trkpt lat="44.464912" lon="7.8326371"><ele>375.0</ele><time>2026-05-03T13:36:56.902Z</time></trkpt><trkpt lat="44.4651302" lon="7.8325255"><ele>375.0</ele><time>2026-05-03T13:36:57.902Z</time></trkpt><trkpt lat="44.4653451" lon="7.8324157"><ele>375.0</ele><time>2026-05-03T13:36:58.906Z</time></trkpt><trkpt lat="44.4655594" lon="7.8323061"><ele>375.0</ele><time>2026-05-03T13:36:59.903Z</time></trkpt><trkpt lat="44.4657797" lon="7.8321902"><ele>375.0</ele><time>2026-05-03T13:37:00.901Z</time></trkpt><trkpt lat="44.466003" lon="7.8320719"><ele>375.0</ele><time>2026-05-03T13:37:01.901Z</time></trkpt><trkpt lat="44.4662311" lon="7.8319538"><ele>375.0</ele><time>2026-05-03T13:37:02.911Z</time></trkpt><trkpt lat="44.4664591" lon="7.8318352"><ele>375.5</ele><time>2026-05-03T13:37:03.91Z</time></trkpt><trkpt lat="44.4666875" lon="7.8317207"><ele>376.0</ele><time>2026-05-03T13:37:04.903Z</time></trkpt><trkpt lat="44.4669089" lon="7.8316061"><ele>376.3333333333333</ele><time>2026-05-03T13:37:05.9Z</time></trkpt><trkpt lat="44.4671218" lon="7.8314972"><ele>376.6666666666667</ele><time>2026-05-03T13:37:06.9Z</time></trkpt><trkpt lat="44.467327" lon="7.8313905"><ele>377.0</ele><time>2026-05-03T13:37:07.899Z</time></trkpt><trkpt lat="44.4675243" lon="7.8312887"><ele>377.0</ele><time>2026-05-03T13:37:08.904Z</time></trkpt><trkpt lat="44.467709" lon="7.831187"><ele>377.0</ele><time>2026-05-03T13:37:09.909Z</time></trkpt><trkpt lat="44.4679021" lon="7.8310903"><ele>377.0</ele><time>2026-05-03T13:37:10.907Z</time></trkpt><trkpt lat="44.4680986" lon="7.83099"><ele>379.33333333333337</ele><time>2026-05-03T13:37:11.893Z</time></trkpt><trkpt lat="44.4682963" lon="7.8308953"><ele>381.6666666666667</ele><time>2026-05-03T13:37:12.9Z</time></trkpt><trkpt lat="44.4684811" lon="7.8307951"><ele>384.0</ele><time>2026-05-03T13:37:13.902Z</time></trkpt><trkpt lat="44.4686561" lon="7.8307048"><ele>386.0</ele><time>2026-05-03T13:37:14.909Z</time></trkpt><trkpt lat="44.4688324" lon="7.8306179"><ele>388.0</ele><time>2026-05-03T13:37:15.903Z</time></trkpt><trkpt lat="44.4690042" lon="7.8305246"><ele>390.0</ele><time>2026-05-03T13:37:16.909Z</time></trkpt><trkpt lat="44.4691648" lon="7.8304439"><ele>390.0</ele><time>2026-05-03T13:37:17.918Z</time></trkpt><trkpt lat="44.4693188" lon="7.8303681"><ele>390.0</ele><time>2026-05-03T13:37:18.901Z</time></trkpt><trkpt lat="44.4694585" lon="7.8302916"><ele>390.0</ele><time>2026-05-03T13:37:19.9Z</time></trkpt><trkpt lat="44.4695909" lon="7.8302239"><ele>392.5</ele><time>2026-05-03T13:37:20.91Z</time></trkpt><trkpt lat="44.469716" lon="7.8301577"><ele>395.0</ele><time>2026-05-03T13:37:21.903Z</time></trkpt><trkpt lat="44.4698312" lon="7.8300999"><ele>397.5</ele><time>2026-05-03T13:37:22.898Z</time></trkpt><trkpt lat="44.4699452" lon="7.830049"><ele>400.0</ele><time>2026-05-03T13:37:23.901Z</time></trkpt><trkpt lat="44.4700471" lon="7.8299974"><ele>400.33333333333337</ele><time>2026-05-03T13:37:24.899Z</time></trkpt><trkpt lat="44.4701426" lon="7.8299519"><ele>400.6666666666667</ele><time>2026-05-03T13:37:25.907Z</time></trkpt><trkpt lat="44.4702243" lon="7.8299166"><ele>401.0</ele><time>2026-05-03T13:37:26.905Z</time></trkpt><trkpt lat="44.4702948" lon="7.8298818"><ele>401.33333333333337</ele><time>2026-05-03T13:37:27.902Z</time></trkpt><trkpt lat="44.4703658" lon="7.8298505"><ele>401.6666666666667</ele><time>2026-05-03T13:37:28.908Z</time></trkpt><trkpt lat="44.4704309" lon="7.8298195"><ele>402.0</ele><time>2026-05-03T13:37:29.901Z</time></trkpt><trkpt lat="44.4705373" lon="7.8297596"><ele>402.0</ele><time>2026-05-03T13:37:31.908Z</time></trkpt><trkpt lat="44.47065" lon="7.829702"><ele>402.0</ele><time>2026-05-03T13:37:33.9Z</time></trkpt><trkpt lat="44.4707174" lon="7.8296729"><ele>402.0</ele><time>2026-05-03T13:37:34.91Z</time></trkpt><trkpt lat="44.4707969" lon="7.829634"><ele>402.0</ele><time>2026-05-03T13:37:35.902Z</time></trkpt><trkpt lat="44.4708877" lon="7.8295942"><ele>402.0</ele><time>2026-05-03T13:37:36.898Z</time></trkpt><trkpt lat="44.4709781" lon="7.8295495"><ele>402.0</ele><time>2026-05-03T13:37:37.898Z</time></trkpt><trkpt lat="44.4710608" lon="7.8295075"><ele>402.0</ele><time>2026-05-03T13:37:38.903Z</time></trkpt><trkpt lat="44.4711425" lon="7.8294622"><ele>402.0</ele><time>2026-05-03T13:37:39.901Z</time></trkpt><trkpt lat="44.4712206" lon="7.8294198"><ele>402.0</ele><time>2026-05-03T13:37:40.917Z</time></trkpt><trkpt lat="44.4713012" lon="7.8293759"><ele>402.0</ele><time>2026-05-03T13:37:41.9Z</time></trkpt><trkpt lat="44.47138" lon="7.8293374"><ele>402.0</ele><time>2026-05-03T13:37:42.9Z</time></trkpt><trkpt lat="44.4714517" lon="7.8293017"><ele>402.1666666666667</ele><time>2026-05-03T13:37:43.902Z</time></trkpt><trkpt lat="44.4715155" lon="7.829268"><ele>402.33333333333337</ele><time>2026-05-03T13:37:44.903Z</time></trkpt><trkpt lat="44.4715807" lon="7.8292371"><ele>402.5</ele><time>2026-05-03T13:37:45.91Z</time></trkpt><trkpt lat="44.4716519" lon="7.8292076"><ele>402.6666666666667</ele><time>2026-05-03T13:37:46.894Z</time></trkpt><trkpt lat="44.4717303" lon="7.8291729"><ele>402.83333333333337</ele><time>2026-05-03T13:37:47.925Z</time></trkpt><trkpt lat="44.47181" lon="7.8291375"><ele>403.0</ele><time>2026-05-03T13:37:48.907Z</time></trkpt><trkpt lat="44.4718945" lon="7.8291"><ele>403.0</ele><time>2026-05-03T13:37:49.92Z</time></trkpt><trkpt lat="44.4719725" lon="7.8290552"><ele>403.0</ele><time>2026-05-03T13:37:50.91Z</time></trkpt><trkpt lat="44.4720491" lon="7.8290033"><ele>403.0</ele><time>2026-05-03T13:37:51.921Z</time></trkpt><trkpt lat="44.4721354" lon="7.8289608"><ele>403.0</ele><time>2026-05-03T13:37:52.924Z</time></trkpt><trkpt lat="44.47223" lon="7.8289134"><ele>403.0</ele><time>2026-05-03T13:37:53.911Z</time></trkpt><trkpt lat="44.4723279" lon="7.8288637"><ele>402.75</ele><time>2026-05-03T13:37:54.913Z</time></trkpt><trkpt lat="44.4724319" lon="7.8288049"><ele>402.5</ele><time>2026-05-03T13:37:55.915Z</time></trkpt><trkpt lat="44.4725413" lon="7.8287451"><ele>402.25</ele><time>2026-05-03T13:37:56.905Z</time></trkpt><trkpt lat="44.4726615" lon="7.8286776"><ele>402.0</ele><time>2026-05-03T13:37:57.902Z</time></trkpt><trkpt lat="44.472798" lon="7.8286081"><ele>403.0</ele><time>2026-05-03T13:37:58.922Z</time></trkpt><trkpt lat="44.4729434" lon="7.8285276"><ele>404.0</ele><time>2026-05-03T13:37:59.907Z</time></trkpt><trkpt lat="44.4730878" lon="7.8284496"><ele>405.0</ele><time>2026-05-03T13:38:00.916Z</time></trkpt><trkpt lat="44.4732334" lon="7.8283718"><ele>405.0</ele><time>2026-05-03T13:38:01.926Z</time></trkpt><trkpt lat="44.4733854" lon="7.8282891"><ele>405.0</ele><time>2026-05-03T13:38:02.925Z</time></trkpt><trkpt lat="44.4735413" lon="7.828207"><ele>405.0</ele><time>2026-05-03T13:38:03.91Z</time></trkpt><trkpt lat="44.4736819" lon="7.8281352"><ele>405.0</ele><time>2026-05-03T13:38:04.915Z</time></trkpt><trkpt lat="44.4737969" lon="7.8280719"><ele>405.0</ele><time>2026-05-03T13:38:05.911Z</time></trkpt><trkpt lat="44.4739039" lon="7.8280186"><ele>405.0</ele><time>2026-05-03T13:38:06.916Z</time></trkpt><trkpt lat="44.4740025" lon="7.8279666"><ele>405.0</ele><time>2026-05-03T13:38:07.91Z</time></trkpt><trkpt lat="44.4740963" lon="7.8279254"><ele>405.0</ele><time>2026-05-03T13:38:08.927Z</time></trkpt><trkpt lat="44.4741777" lon="7.827885"><ele>404.99999999999994</ele><time>2026-05-03T13:38:09.894Z</time></trkpt><trkpt lat="44.4742457" lon="7.8278463"><ele>405.0</ele><time>2026-05-03T13:38:10.912Z</time></trkpt><trkpt lat="44.4743069" lon="7.8278124"><ele>405.0</ele><time>2026-05-03T13:38:11.914Z</time></trkpt><trkpt lat="44.4743711" lon="7.8277789"><ele>405.0</ele><time>2026-05-03T13:38:12.914Z</time></trkpt><trkpt lat="44.4744392" lon="7.8277463"><ele>405.0</ele><time>2026-05-03T13:38:13.922Z</time></trkpt><trkpt lat="44.4745123" lon="7.8277041"><ele>404.99999999999994</ele><time>2026-05-03T13:38:14.915Z</time></trkpt><trkpt lat="44.4745917" lon="7.8276551"><ele>405.0</ele><time>2026-05-03T13:38:15.92Z</time></trkpt><trkpt lat="44.4746814" lon="7.8275967"><ele>406.2</ele><time>2026-05-03T13:38:16.904Z</time></trkpt><trkpt lat="44.4747822" lon="7.8275354"><ele>407.4</ele><time>2026-05-03T13:38:17.908Z</time></trkpt><trkpt lat="44.4748823" lon="7.8274824"><ele>408.6</ele><time>2026-05-03T13:38:18.894Z</time></trkpt><trkpt lat="44.4749689" lon="7.8274373"><ele>409.8</ele><time>2026-05-03T13:38:19.906Z</time></trkpt><trkpt lat="44.4750521" lon="7.827394"><ele>411.0</ele><time>2026-05-03T13:38:20.902Z</time></trkpt><trkpt lat="44.4751245" lon="7.8273624"><ele>411.0</ele><time>2026-05-03T13:38:21.908Z</time></trkpt><trkpt lat="44.4751898" lon="7.8273288"><ele>411.0</ele><time>2026-05-03T13:38:22.896Z</time></trkpt><trkpt lat="44.4753105" lon="7.8272451"><ele>411.0</ele><time>2026-05-03T13:38:24.896Z</time></trkpt><trkpt lat="44.4753706" lon="7.8272008"><ele>411.0</ele><time>2026-05-03T13:38:25.91Z</time></trkpt><trkpt lat="44.4754282" lon="7.8271605"><ele>411.0</ele><time>2026-05-03T13:38:26.897Z</time></trkpt><trkpt lat="44.4755426" lon="7.8270856"><ele>410.8333333333333</ele><time>2026-05-03T13:38:28.903Z</time></trkpt><trkpt lat="44.4756099" lon="7.8270426"><ele>410.66666666666663</ele><time>2026-05-03T13:38:29.903Z</time></trkpt><trkpt lat="44.4756726" lon="7.8269972"><ele>410.5</ele><time>2026-05-03T13:38:30.896Z</time></trkpt><trkpt lat="44.4757361" lon="7.8269561"><ele>410.3333333333333</ele><time>2026-05-03T13:38:31.903Z</time></trkpt><trkpt lat="44.4757944" lon="7.8269132"><ele>410.16666666666663</ele><time>2026-05-03T13:38:32.902Z</time></trkpt><trkpt lat="44.475905" lon="7.8268283"><ele>410.0</ele><time>2026-05-03T13:38:34.895Z</time></trkpt><trkpt lat="44.4759728" lon="7.8267852"><ele>410.0</ele><time>2026-05-03T13:38:35.908Z</time></trkpt><trkpt lat="44.476042" lon="7.8267341"><ele>410.0</ele><time>2026-05-03T13:38:36.9Z</time></trkpt><trkpt lat="44.4761176" lon="7.8266807"><ele>410.0</ele><time>2026-05-03T13:38:37.907Z</time></trkpt><trkpt lat="44.4761829" lon="7.8266333"><ele>410.0</ele><time>2026-05-03T13:38:38.894Z</time></trkpt><trkpt lat="44.4762442" lon="7.8265901"><ele>410.0</ele><time>2026-05-03T13:38:39.902Z</time></trkpt><trkpt lat="44.4763044" lon="7.8265487"><ele>410.0</ele><time>2026-05-03T13:38:40.902Z</time></trkpt><trkpt lat="44.4763717" lon="7.8265013"><ele>410.0</ele><time>2026-05-03T13:38:41.904Z</time></trkpt><trkpt lat="44.4764466" lon="7.8264452"><ele>409.49999999999994</ele><time>2026-05-03T13:38:42.899Z</time></trkpt><trkpt lat="44.4765297" lon="7.8263851"><ele>409.0</ele><time>2026-05-03T13:38:43.897Z</time></trkpt><trkpt lat="44.4766111" lon="7.8263221"><ele>408.5</ele><time>2026-05-03T13:38:44.903Z</time></trkpt><trkpt lat="44.4766884" lon="7.8262754"><ele>408.0</ele><time>2026-05-03T13:38:45.906Z</time></trkpt><trkpt lat="44.4767524" lon="7.8262267"><ele>407.49999999999994</ele><time>2026-05-03T13:38:46.9Z</time></trkpt><trkpt lat="44.4768125" lon="7.826194"><ele>407.0</ele><time>2026-05-03T13:38:47.897Z</time></trkpt><trkpt lat="44.4768798" lon="7.8261655"><ele>406.99999999999994</ele><time>2026-05-03T13:38:48.896Z</time></trkpt><trkpt lat="44.4769489" lon="7.8261343"><ele>407.0</ele><time>2026-05-03T13:38:49.894Z</time></trkpt><trkpt lat="44.4770152" lon="7.8260862"><ele>407.0</ele><time>2026-05-03T13:38:50.899Z</time></trkpt><trkpt lat="44.4770883" lon="7.8260382"><ele>407.0</ele><time>2026-05-03T13:38:51.913Z</time></trkpt><trkpt lat="44.4771591" lon="7.8259883"><ele>406.99999999999994</ele><time>2026-05-03T13:38:52.9Z</time></trkpt><trkpt lat="44.4772206" lon="7.825941"><ele>407.0</ele><time>2026-05-03T13:38:53.91Z</time></trkpt><trkpt lat="44.4773097" lon="7.8258684"><ele>407.3333333333333</ele><time>2026-05-03T13:38:55.916Z</time></trkpt><trkpt lat="44.4773556" lon="7.8257993"><ele>407.66666666666663</ele><time>2026-05-03T13:38:57.902Z</time></trkpt><trkpt lat="44.4774474" lon="7.8257264"><ele>408.0</ele><time>2026-05-03T13:38:59.899Z</time></trkpt><trkpt lat="44.4775188" lon="7.8256825"><ele>408.33333333333337</ele><time>2026-05-03T13:39:00.902Z</time></trkpt><trkpt lat="44.4775849" lon="7.8256406"><ele>408.6666666666667</ele><time>2026-05-03T13:39:01.895Z</time></trkpt><trkpt lat="44.4776417" lon="7.825599"><ele>409.0</ele><time>2026-05-03T13:39:02.899Z</time></trkpt><trkpt lat="44.4777463" lon="7.8255117"><ele>409.00000000000006</ele><time>2026-05-03T13:39:04.902Z</time></trkpt><trkpt lat="44.4778078" lon="7.8254699"><ele>409.0</ele><time>2026-05-03T13:39:05.907Z</time></trkpt><trkpt lat="44.4778748" lon="7.8254231"><ele>409.0</ele><time>2026-05-03T13:39:06.902Z</time></trkpt><trkpt lat="44.4779421" lon="7.825376"><ele>409.0</ele><time>2026-05-03T13:39:07.904Z</time></trkpt><trkpt lat="44.4780159" lon="7.825322"><ele>409.00000000000006</ele><time>2026-05-03T13:39:08.903Z</time></trkpt><trkpt lat="44.4780959" lon="7.8252651"><ele>409.0</ele><time>2026-05-03T13:39:09.897Z</time></trkpt><trkpt lat="44.4781815" lon="7.8252119"><ele>408.79999999999995</ele><time>2026-05-03T13:39:10.908Z</time></trkpt><trkpt lat="44.4782702" lon="7.8251534"><ele>408.59999999999997</ele><time>2026-05-03T13:39:11.902Z</time></trkpt><trkpt lat="44.4783627" lon="7.8250913"><ele>408.4</ele><time>2026-05-03T13:39:12.906Z</time></trkpt><trkpt lat="44.4784542" lon="7.8250201"><ele>408.2</ele><time>2026-05-03T13:39:13.913Z</time></trkpt><trkpt lat="44.4785526" lon="7.8249519"><ele>408.0</ele><time>2026-05-03T13:39:14.905Z</time></trkpt><trkpt lat="44.4786459" lon="7.8248847"><ele>408.0</ele><time>2026-05-03T13:39:15.905Z</time></trkpt><trkpt lat="44.4787384" lon="7.8248234"><ele>408.0</ele><time>2026-05-03T13:39:16.903Z</time></trkpt><trkpt lat="44.4788334" lon="7.8247554"><ele>408.0</ele><time>2026-05-03T13:39:17.901Z</time></trkpt><trkpt lat="44.4789347" lon="7.8246835"><ele>408.0</ele><time>2026-05-03T13:39:18.913Z</time></trkpt><trkpt lat="44.4790406" lon="7.824609"><ele>408.0</ele><time>2026-05-03T13:39:19.901Z</time></trkpt><trkpt lat="44.4791514" lon="7.8245267"><ele>408.0</ele><time>2026-05-03T13:39:20.899Z</time></trkpt><trkpt lat="44.479267" lon="7.8244463"><ele>408.0</ele><time>2026-05-03T13:39:21.906Z</time></trkpt><trkpt lat="44.4793883" lon="7.8243626"><ele>408.0</ele><time>2026-05-03T13:39:22.898Z</time></trkpt><trkpt lat="44.4795147" lon="7.8242752"><ele>408.0</ele><time>2026-05-03T13:39:23.9Z</time></trkpt><trkpt lat="44.4796496" lon="7.8241834"><ele>408.66666666666663</ele><time>2026-05-03T13:39:24.897Z</time></trkpt><trkpt lat="44.4797991" lon="7.8240775"><ele>409.3333333333333</ele><time>2026-05-03T13:39:25.902Z</time></trkpt><trkpt lat="44.4799548" lon="7.8239709"><ele>410.0</ele><time>2026-05-03T13:39:26.902Z</time></trkpt><trkpt lat="44.4801126" lon="7.8238621"><ele>410.0</ele><time>2026-05-03T13:39:27.904Z</time></trkpt><trkpt lat="44.4802734" lon="7.8237497"><ele>410.0</ele><time>2026-05-03T13:39:28.9Z</time></trkpt><trkpt lat="44.4804381" lon="7.8236318"><ele>410.0</ele><time>2026-05-03T13:39:29.897Z</time></trkpt><trkpt lat="44.4806084" lon="7.823508"><ele>409.66666666666663</ele><time>2026-05-03T13:39:30.9Z</time></trkpt><trkpt lat="44.4807829" lon="7.8233867"><ele>409.33333333333337</ele><time>2026-05-03T13:39:31.906Z</time></trkpt><trkpt lat="44.4809559" lon="7.8232661"><ele>409.0</ele><time>2026-05-03T13:39:32.893Z</time></trkpt><trkpt lat="44.4811292" lon="7.8231444"><ele>409.33333333333337</ele><time>2026-05-03T13:39:33.917Z</time></trkpt><trkpt lat="44.4813044" lon="7.8230171"><ele>409.66666666666663</ele><time>2026-05-03T13:39:34.902Z</time></trkpt><trkpt lat="44.4814867" lon="7.8228852"><ele>410.0</ele><time>2026-05-03T13:39:35.902Z</time></trkpt><trkpt lat="44.4816706" lon="7.8227525"><ele>410.0</ele><time>2026-05-03T13:39:36.906Z</time></trkpt><trkpt lat="44.4818585" lon="7.8226158"><ele>410.0</ele><time>2026-05-03T13:39:37.9Z</time></trkpt><trkpt lat="44.4820501" lon="7.8224818"><ele>410.0</ele><time>2026-05-03T13:39:38.898Z</time></trkpt><trkpt lat="44.4822417" lon="7.822347"><ele>409.66666666666663</ele><time>2026-05-03T13:39:39.908Z</time></trkpt><trkpt lat="44.4824359" lon="7.8222161"><ele>409.33333333333337</ele><time>2026-05-03T13:39:40.91Z</time></trkpt><trkpt lat="44.4826233" lon="7.8220903"><ele>409.0</ele><time>2026-05-03T13:39:41.91Z</time></trkpt><trkpt lat="44.4828049" lon="7.8219616"><ele>409.0</ele><time>2026-05-03T13:39:42.899Z</time></trkpt><trkpt lat="44.4829826" lon="7.8218334"><ele>409.0</ele><time>2026-05-03T13:39:43.904Z</time></trkpt><trkpt lat="44.4831614" lon="7.8217006"><ele>409.0</ele><time>2026-05-03T13:39:44.911Z</time></trkpt><trkpt lat="44.4833488" lon="7.8215715"><ele>409.33333333333337</ele><time>2026-05-03T13:39:45.908Z</time></trkpt><trkpt lat="44.4835348" lon="7.8214377"><ele>409.66666666666663</ele><time>2026-05-03T13:39:46.904Z</time></trkpt><trkpt lat="44.4837317" lon="7.8212997"><ele>410.0</ele><time>2026-05-03T13:39:47.896Z</time></trkpt><trkpt lat="44.4839318" lon="7.8211616"><ele>410.5</ele><time>2026-05-03T13:39:48.901Z</time></trkpt><trkpt lat="44.4841328" lon="7.8210168"><ele>411.0</ele><time>2026-05-03T13:39:49.903Z</time></trkpt><trkpt lat="44.4843413" lon="7.8208711"><ele>411.5</ele><time>2026-05-03T13:39:50.899Z</time></trkpt><trkpt lat="44.4845528" lon="7.8207292"><ele>412.0</ele><time>2026-05-03T13:39:51.897Z</time></trkpt><trkpt lat="44.4847617" lon="7.8205843"><ele>412.0</ele><time>2026-05-03T13:39:52.904Z</time></trkpt><trkpt lat="44.4849667" lon="7.82044"><ele>412.0</ele><time>2026-05-03T13:39:53.91Z</time></trkpt><trkpt lat="44.4851744" lon="7.8202939"><ele>412.0</ele><time>2026-05-03T13:39:54.908Z</time></trkpt><trkpt lat="44.4853723" lon="7.8201525"><ele>412.0</ele><time>2026-05-03T13:39:55.903Z</time></trkpt><trkpt lat="44.4855612" lon="7.8200204"><ele>412.0</ele><time>2026-05-03T13:39:56.903Z</time></trkpt><trkpt lat="44.4857451" lon="7.8199023"><ele>412.0</ele><time>2026-05-03T13:39:57.901Z</time></trkpt><trkpt lat="44.4859204" lon="7.8197824"><ele>412.0</ele><time>2026-05-03T13:39:58.9Z</time></trkpt><trkpt lat="44.4860952" lon="7.819653"><ele>412.0</ele><time>2026-05-03T13:39:59.898Z</time></trkpt><trkpt lat="44.4862716" lon="7.8195169"><ele>412.0</ele><time>2026-05-03T13:40:00.909Z</time></trkpt><trkpt lat="44.486446" lon="7.8193914"><ele>412.0</ele><time>2026-05-03T13:40:01.901Z</time></trkpt><trkpt lat="44.4866218" lon="7.819271"><ele>412.0</ele><time>2026-05-03T13:40:02.897Z</time></trkpt><trkpt lat="44.4867951" lon="7.8191491"><ele>411.6666666666667</ele><time>2026-05-03T13:40:03.899Z</time></trkpt><trkpt lat="44.4869728" lon="7.8190307"><ele>411.33333333333337</ele><time>2026-05-03T13:40:04.907Z</time></trkpt><trkpt lat="44.48715" lon="7.818907"><ele>411.0</ele><time>2026-05-03T13:40:05.896Z</time></trkpt><trkpt lat="44.4873331" lon="7.8187819"><ele>410.66666666666663</ele><time>2026-05-03T13:40:06.9Z</time></trkpt><trkpt lat="44.4875199" lon="7.8186435"><ele>410.3333333333333</ele><time>2026-05-03T13:40:07.911Z</time></trkpt><trkpt lat="44.4877174" lon="7.8185053"><ele>410.0</ele><time>2026-05-03T13:40:08.905Z</time></trkpt><trkpt lat="44.4879187" lon="7.8183685"><ele>410.5</ele><time>2026-05-03T13:40:09.898Z</time></trkpt><trkpt lat="44.4881228" lon="7.81823"><ele>411.0</ele><time>2026-05-03T13:40:10.9Z</time></trkpt><trkpt lat="44.4883265" lon="7.818082"><ele>411.0</ele><time>2026-05-03T13:40:11.901Z</time></trkpt><trkpt lat="44.4885417" lon="7.8179337"><ele>411.0</ele><time>2026-05-03T13:40:12.906Z</time></trkpt><trkpt lat="44.4887521" lon="7.8177847"><ele>411.5</ele><time>2026-05-03T13:40:13.899Z</time></trkpt><trkpt lat="44.4889598" lon="7.8176371"><ele>412.0</ele><time>2026-05-03T13:40:14.905Z</time></trkpt><trkpt lat="44.4891655" lon="7.817492"><ele>412.0</ele><time>2026-05-03T13:40:15.907Z</time></trkpt><trkpt lat="44.4893626" lon="7.8173524"><ele>412.0</ele><time>2026-05-03T13:40:16.909Z</time></trkpt><trkpt lat="44.4895585" lon="7.8172176"><ele>412.0</ele><time>2026-05-03T13:40:17.906Z</time></trkpt><trkpt lat="44.4897624" lon="7.8170777"><ele>410.5</ele><time>2026-05-03T13:40:18.897Z</time></trkpt><trkpt lat="44.4899697" lon="7.8169341"><ele>409.0</ele><time>2026-05-03T13:40:19.901Z</time></trkpt><trkpt lat="44.490165" lon="7.8167881"><ele>408.6666666666667</ele><time>2026-05-03T13:40:20.904Z</time></trkpt><trkpt lat="44.4903615" lon="7.8166529"><ele>408.33333333333337</ele><time>2026-05-03T13:40:21.902Z</time></trkpt><trkpt lat="44.4905581" lon="7.8165186"><ele>408.0</ele><time>2026-05-03T13:40:22.91Z</time></trkpt><trkpt lat="44.4907534" lon="7.8163792"><ele>408.66666666666663</ele><time>2026-05-03T13:40:23.891Z</time></trkpt><trkpt lat="44.4909508" lon="7.8162396"><ele>409.3333333333333</ele><time>2026-05-03T13:40:24.901Z</time></trkpt><trkpt lat="44.4911527" lon="7.816096"><ele>410.0</ele><time>2026-05-03T13:40:25.901Z</time></trkpt><trkpt lat="44.491357" lon="7.8159528"><ele>410.5</ele><time>2026-05-03T13:40:26.902Z</time></trkpt><trkpt lat="44.491566" lon="7.8158105"><ele>411.0</ele><time>2026-05-03T13:40:27.906Z</time></trkpt><trkpt lat="44.4917776" lon="7.8156635"><ele>411.0</ele><time>2026-05-03T13:40:28.908Z</time></trkpt><trkpt lat="44.4919846" lon="7.8155158"><ele>411.0</ele><time>2026-05-03T13:40:29.901Z</time></trkpt><trkpt lat="44.4921897" lon="7.8153687"><ele>410.0</ele><time>2026-05-03T13:40:30.909Z</time></trkpt><trkpt lat="44.4923914" lon="7.8152223"><ele>409.0</ele><time>2026-05-03T13:40:31.912Z</time></trkpt><trkpt lat="44.4925821" lon="7.8150887"><ele>408.0</ele><time>2026-05-03T13:40:32.897Z</time></trkpt><trkpt lat="44.4927699" lon="7.8149631"><ele>408.0</ele><time>2026-05-03T13:40:33.894Z</time></trkpt><trkpt lat="44.4929467" lon="7.8148384"><ele>408.0</ele><time>2026-05-03T13:40:34.909Z</time></trkpt><trkpt lat="44.4931237" lon="7.8147177"><ele>408.0</ele><time>2026-05-03T13:40:35.897Z</time></trkpt><trkpt lat="44.4933117" lon="7.8145958"><ele>408.0</ele><time>2026-05-03T13:40:36.907Z</time></trkpt><trkpt lat="44.4935005" lon="7.8144706"><ele>408.0</ele><time>2026-05-03T13:40:37.904Z</time></trkpt><trkpt lat="44.4936921" lon="7.8143422"><ele>408.0</ele><time>2026-05-03T13:40:38.905Z</time></trkpt><trkpt lat="44.49388" lon="7.8142112"><ele>408.0</ele><time>2026-05-03T13:40:39.902Z</time></trkpt><trkpt lat="44.4940622" lon="7.8140842"><ele>408.0</ele><time>2026-05-03T13:40:40.902Z</time></trkpt><trkpt lat="44.4942461" lon="7.8139578"><ele>408.0</ele><time>2026-05-03T13:40:41.905Z</time></trkpt><trkpt lat="44.4944291" lon="7.8138266"><ele>408.0</ele><time>2026-05-03T13:40:42.896Z</time></trkpt><trkpt lat="44.4946166" lon="7.8136906"><ele>408.0</ele><time>2026-05-03T13:40:43.905Z</time></trkpt><trkpt lat="44.4948131" lon="7.8135532"><ele>408.0</ele><time>2026-05-03T13:40:44.907Z</time></trkpt><trkpt lat="44.4950143" lon="7.813413"><ele>408.0</ele><time>2026-05-03T13:40:45.908Z</time></trkpt><trkpt lat="44.4952228" lon="7.8132692"><ele>408.0</ele><time>2026-05-03T13:40:46.901Z</time></trkpt><trkpt lat="44.4954397" lon="7.8131189"><ele>407.5</ele><time>2026-05-03T13:40:47.906Z</time></trkpt><trkpt lat="44.4956626" lon="7.8129688"><ele>407.0</ele><time>2026-05-03T13:40:48.9Z</time></trkpt><trkpt lat="44.4958866" lon="7.8128051"><ele>408.0</ele><time>2026-05-03T13:40:49.893Z</time></trkpt><trkpt lat="44.4961109" lon="7.8126404"><ele>409.0</ele><time>2026-05-03T13:40:50.904Z</time></trkpt><trkpt lat="44.4963391" lon="7.8124757"><ele>409.5</ele><time>2026-05-03T13:40:51.907Z</time></trkpt><trkpt lat="44.4965691" lon="7.8123159"><ele>410.0</ele><time>2026-05-03T13:40:52.902Z</time></trkpt><trkpt lat="44.4967953" lon="7.8121653"><ele>410.0</ele><time>2026-05-03T13:40:53.908Z</time></trkpt><trkpt lat="44.4970178" lon="7.8120115"><ele>410.0</ele><time>2026-05-03T13:40:54.899Z</time></trkpt><trkpt lat="44.4972428" lon="7.8118592"><ele>412.5</ele><time>2026-05-03T13:40:55.901Z</time></trkpt><trkpt lat="44.4974719" lon="7.8117179"><ele>415.0</ele><time>2026-05-03T13:40:56.905Z</time></trkpt><trkpt lat="44.4977" lon="7.8115812"><ele>415.0</ele><time>2026-05-03T13:40:57.901Z</time></trkpt><trkpt lat="44.4979369" lon="7.8114429"><ele>415.0</ele><time>2026-05-03T13:40:58.908Z</time></trkpt><trkpt lat="44.4981758" lon="7.8113013"><ele>415.0</ele><time>2026-05-03T13:40:59.898Z</time></trkpt><trkpt lat="44.4984113" lon="7.8111583"><ele>415.0</ele><time>2026-05-03T13:41:00.897Z</time></trkpt><trkpt lat="44.4986433" lon="7.8110238"><ele>414.0</ele><time>2026-05-03T13:41:01.909Z</time></trkpt><trkpt lat="44.4988743" lon="7.8108835"><ele>413.0</ele><time>2026-05-03T13:41:02.91Z</time></trkpt><trkpt lat="44.4990986" lon="7.8107494"><ele>413.0</ele><time>2026-05-03T13:41:03.902Z</time></trkpt><trkpt lat="44.4993125" lon="7.8106274"><ele>413.0</ele><time>2026-05-03T13:41:04.908Z</time></trkpt><trkpt lat="44.4995193" lon="7.8105127"><ele>412.66666666666663</ele><time>2026-05-03T13:41:05.908Z</time></trkpt><trkpt lat="44.4997173" lon="7.8104007"><ele>412.33333333333337</ele><time>2026-05-03T13:41:06.906Z</time></trkpt><trkpt lat="44.4999011" lon="7.8102951"><ele>412.0</ele><time>2026-05-03T13:41:07.902Z</time></trkpt><trkpt lat="44.5000721" lon="7.810195"><ele>412.0</ele><time>2026-05-03T13:41:08.898Z</time></trkpt><trkpt lat="44.5002272" lon="7.8101125"><ele>412.0</ele><time>2026-05-03T13:41:09.903Z</time></trkpt><trkpt lat="44.5003574" lon="7.8100339"><ele>412.0</ele><time>2026-05-03T13:41:10.91Z</time></trkpt><trkpt lat="44.5004706" lon="7.8099721"><ele>412.0</ele><time>2026-05-03T13:41:11.909Z</time></trkpt><trkpt lat="44.5005669" lon="7.8099176"><ele>412.00000000000006</ele><time>2026-05-03T13:41:12.901Z</time></trkpt><trkpt lat="44.5006568" lon="7.8098708"><ele>412.0</ele><time>2026-05-03T13:41:13.904Z</time></trkpt><trkpt lat="44.5007312" lon="7.8098204"><ele>412.0</ele><time>2026-05-03T13:41:14.9Z</time></trkpt><trkpt lat="44.5008013" lon="7.8097749"><ele>412.0</ele><time>2026-05-03T13:41:15.91Z</time></trkpt><trkpt lat="44.5008752" lon="7.8097363"><ele>412.00000000000006</ele><time>2026-05-03T13:41:16.9Z</time></trkpt><trkpt lat="44.500943" lon="7.8097034"><ele>412.0</ele><time>2026-05-03T13:41:17.899Z</time></trkpt><trkpt lat="44.5010512" lon="7.8096457"><ele>412.0</ele><time>2026-05-03T13:41:19.896Z</time></trkpt><trkpt lat="44.5011735" lon="7.8095735"><ele>412.0</ele><time>2026-05-03T13:41:21.901Z</time></trkpt><trkpt lat="44.5012577" lon="7.809524"><ele>412.0</ele><time>2026-05-03T13:41:22.891Z</time></trkpt><trkpt lat="44.5013558" lon="7.8094714"><ele>412.0</ele><time>2026-05-03T13:41:23.906Z</time></trkpt><trkpt lat="44.501455" lon="7.809414"><ele>412.0</ele><time>2026-05-03T13:41:24.899Z</time></trkpt><trkpt lat="44.5015688" lon="7.8093483"><ele>412.0</ele><time>2026-05-03T13:41:25.901Z</time></trkpt><trkpt lat="44.5016852" lon="7.8092831"><ele>412.0</ele><time>2026-05-03T13:41:26.895Z</time></trkpt><trkpt lat="44.5017986" lon="7.8092134"><ele>412.0</ele><time>2026-05-03T13:41:27.894Z</time></trkpt><trkpt lat="44.5019165" lon="7.8091404"><ele>412.0</ele><time>2026-05-03T13:41:28.903Z</time></trkpt><trkpt lat="44.5020398" lon="7.8090715"><ele>411.75</ele><time>2026-05-03T13:41:29.917Z</time></trkpt><trkpt lat="44.5021589" lon="7.8090021"><ele>411.5</ele><time>2026-05-03T13:41:30.895Z</time></trkpt><trkpt lat="44.5022766" lon="7.8089336"><ele>411.25</ele><time>2026-05-03T13:41:31.898Z</time></trkpt><trkpt lat="44.5023882" lon="7.8088679"><ele>411.0</ele><time>2026-05-03T13:41:32.896Z</time></trkpt><trkpt lat="44.5025034" lon="7.8087944"><ele>411.0</ele><time>2026-05-03T13:41:33.895Z</time></trkpt><trkpt lat="44.5026138" lon="7.8087248"><ele>411.0</ele><time>2026-05-03T13:41:34.901Z</time></trkpt><trkpt lat="44.5027279" lon="7.8086558"><ele>411.0</ele><time>2026-05-03T13:41:35.908Z</time></trkpt><trkpt lat="44.5028419" lon="7.8085871"><ele>411.0</ele><time>2026-05-03T13:41:36.893Z</time></trkpt><trkpt lat="44.5029603" lon="7.8085192"><ele>409.25</ele><time>2026-05-03T13:41:37.908Z</time></trkpt><trkpt lat="44.5030783" lon="7.808455"><ele>407.5</ele><time>2026-05-03T13:41:38.908Z</time></trkpt><trkpt lat="44.5032051" lon="7.8083846"><ele>405.75</ele><time>2026-05-03T13:41:39.901Z</time></trkpt><trkpt lat="44.5033381" lon="7.8083101"><ele>404.0</ele><time>2026-05-03T13:41:40.904Z</time></trkpt><trkpt lat="44.5034739" lon="7.8082345"><ele>404.0</ele><time>2026-05-03T13:41:41.913Z</time></trkpt><trkpt lat="44.5036168" lon="7.8081498"><ele>404.0</ele><time>2026-05-03T13:41:42.906Z</time></trkpt><trkpt lat="44.503769" lon="7.80806"><ele>404.0</ele><time>2026-05-03T13:41:43.915Z</time></trkpt><trkpt lat="44.5039302" lon="7.8079627"><ele>404.0</ele><time>2026-05-03T13:41:44.899Z</time></trkpt><trkpt lat="44.5040989" lon="7.8078694"><ele>404.0</ele><time>2026-05-03T13:41:45.899Z</time></trkpt><trkpt lat="44.5042697" lon="7.8077735"><ele>404.0</ele><time>2026-05-03T13:41:46.9Z</time></trkpt><trkpt lat="44.5044416" lon="7.8076809"><ele>400.0</ele><time>2026-05-03T13:41:47.901Z</time></trkpt><trkpt lat="44.504612" lon="7.8075925"><ele>396.0</ele><time>2026-05-03T13:41:48.897Z</time></trkpt><trkpt lat="44.5047713" lon="7.8075002"><ele>392.0</ele><time>2026-05-03T13:41:49.903Z</time></trkpt><trkpt lat="44.5049262" lon="7.8074078"><ele>392.0</ele><time>2026-05-03T13:41:50.914Z</time></trkpt><trkpt lat="44.5050802" lon="7.8073225"><ele>392.0</ele><time>2026-05-03T13:41:51.906Z</time></trkpt><trkpt lat="44.5052274" lon="7.8072385"><ele>392.0</ele><time>2026-05-03T13:41:52.907Z</time></trkpt><trkpt lat="44.5053635" lon="7.8071507"><ele>392.3333333333333</ele><time>2026-05-03T13:41:53.904Z</time></trkpt><trkpt lat="44.5054988" lon="7.8070722"><ele>392.66666666666663</ele><time>2026-05-03T13:41:54.902Z</time></trkpt><trkpt lat="44.5056374" lon="7.8069964"><ele>393.0</ele><time>2026-05-03T13:41:55.903Z</time></trkpt><trkpt lat="44.5057827" lon="7.8069167"><ele>393.0</ele><time>2026-05-03T13:41:56.913Z</time></trkpt><trkpt lat="44.5059265" lon="7.8068405"><ele>393.0</ele><time>2026-05-03T13:41:57.892Z</time></trkpt><trkpt lat="44.5060661" lon="7.8067696"><ele>393.0</ele><time>2026-05-03T13:41:58.899Z</time></trkpt><trkpt lat="44.5062013" lon="7.8066936"><ele>393.0</ele><time>2026-05-03T13:41:59.909Z</time></trkpt><trkpt lat="44.5063362" lon="7.8066153"><ele>387.0</ele><time>2026-05-03T13:42:00.902Z</time></trkpt><trkpt lat="44.5064814" lon="7.8065315"><ele>381.0</ele><time>2026-05-03T13:42:01.91Z</time></trkpt><trkpt lat="44.5066263" lon="7.8064422"><ele>375.0</ele><time>2026-05-03T13:42:02.899Z</time></trkpt><trkpt lat="44.50678" lon="7.8063517"><ele>375.0</ele><time>2026-05-03T13:42:03.896Z</time></trkpt><trkpt lat="44.506941" lon="7.8062551"><ele>375.0</ele><time>2026-05-03T13:42:04.902Z</time></trkpt><trkpt lat="44.5071135" lon="7.8061533"><ele>375.0</ele><time>2026-05-03T13:42:05.893Z</time></trkpt><trkpt lat="44.5072913" lon="7.8060467"><ele>372.0</ele><time>2026-05-03T13:42:06.897Z</time></trkpt><trkpt lat="44.5074768" lon="7.8059384"><ele>369.0</ele><time>2026-05-03T13:42:07.907Z</time></trkpt><trkpt lat="44.5076665" lon="7.8058324"><ele>366.0</ele><time>2026-05-03T13:42:08.893Z</time></trkpt><trkpt lat="44.5078644" lon="7.8057183"><ele>365.6666666666667</ele><time>2026-05-03T13:42:09.91Z</time></trkpt><trkpt lat="44.508063" lon="7.8056011"><ele>365.33333333333337</ele><time>2026-05-03T13:42:10.908Z</time></trkpt><trkpt lat="44.5082505" lon="7.8054901"><ele>365.0</ele><time>2026-05-03T13:42:11.899Z</time></trkpt><trkpt lat="44.508429" lon="7.8053817"><ele>365.0</ele><time>2026-05-03T13:42:12.902Z</time></trkpt><trkpt lat="44.5086042" lon="7.8052836"><ele>365.0</ele><time>2026-05-03T13:42:13.918Z</time></trkpt><trkpt lat="44.5087881" lon="7.8051794"><ele>365.0</ele><time>2026-05-03T13:42:14.902Z</time></trkpt><trkpt lat="44.5089748" lon="7.8050645"><ele>364.33333333333337</ele><time>2026-05-03T13:42:15.903Z</time></trkpt><trkpt lat="44.5091539" lon="7.8049587"><ele>363.6666666666667</ele><time>2026-05-03T13:42:16.904Z</time></trkpt><trkpt lat="44.5093237" lon="7.8048569"><ele>363.0</ele><time>2026-05-03T13:42:17.905Z</time></trkpt><trkpt lat="44.5094968" lon="7.804758"><ele>362.6666666666667</ele><time>2026-05-03T13:42:18.904Z</time></trkpt><trkpt lat="44.5096662" lon="7.8046603"><ele>362.33333333333337</ele><time>2026-05-03T13:42:19.902Z</time></trkpt><trkpt lat="44.5098289" lon="7.8045613"><ele>362.0</ele><time>2026-05-03T13:42:20.898Z</time></trkpt><trkpt lat="44.5099921" lon="7.8044633"><ele>362.0</ele><time>2026-05-03T13:42:21.906Z</time></trkpt><trkpt lat="44.5101573" lon="7.804366"><ele>362.0</ele><time>2026-05-03T13:42:22.906Z</time></trkpt><trkpt lat="44.510322" lon="7.8042735"><ele>362.0</ele><time>2026-05-03T13:42:23.898Z</time></trkpt><trkpt lat="44.5104746" lon="7.8041851"><ele>362.0</ele><time>2026-05-03T13:42:24.907Z</time></trkpt><trkpt lat="44.5106171" lon="7.8041113"><ele>362.0</ele><time>2026-05-03T13:42:25.899Z</time></trkpt><trkpt lat="44.5107534" lon="7.8040295"><ele>362.0</ele><time>2026-05-03T13:42:26.905Z</time></trkpt><trkpt lat="44.5108845" lon="7.8039537"><ele>362.0</ele><time>2026-05-03T13:42:27.897Z</time></trkpt><trkpt lat="44.5110117" lon="7.8038783"><ele>362.0</ele><time>2026-05-03T13:42:28.904Z</time></trkpt><trkpt lat="44.5111348" lon="7.8038078"><ele>362.0</ele><time>2026-05-03T13:42:29.911Z</time></trkpt><trkpt lat="44.5112577" lon="7.8037361"><ele>362.0</ele><time>2026-05-03T13:42:30.896Z</time></trkpt><trkpt lat="44.5113745" lon="7.8036716"><ele>362.0</ele><time>2026-05-03T13:42:31.902Z</time></trkpt><trkpt lat="44.5114798" lon="7.8036034"><ele>362.0</ele><time>2026-05-03T13:42:32.901Z</time></trkpt><trkpt lat="44.5115754" lon="7.8035516"><ele>362.0</ele><time>2026-05-03T13:42:33.908Z</time></trkpt><trkpt lat="44.5116571" lon="7.8035012"><ele>362.0</ele><time>2026-05-03T13:42:34.902Z</time></trkpt><trkpt lat="44.5117247" lon="7.8034668"><ele>362.0</ele><time>2026-05-03T13:42:35.901Z</time></trkpt><trkpt lat="44.511834" lon="7.803412"><ele>362.0</ele><time>2026-05-03T13:42:37.91Z</time></trkpt><trkpt lat="44.5119263" lon="7.8033495"><ele>361.83333333333337</ele><time>2026-05-03T13:42:39.913Z</time></trkpt><trkpt lat="44.5119863" lon="7.8033177"><ele>361.6666666666667</ele><time>2026-05-03T13:42:40.908Z</time></trkpt><trkpt lat="44.5120521" lon="7.8032812"><ele>361.5</ele><time>2026-05-03T13:42:41.899Z</time></trkpt><trkpt lat="44.512119" lon="7.8032468"><ele>361.3333333333333</ele><time>2026-05-03T13:42:42.912Z</time></trkpt><trkpt lat="44.5121922" lon="7.8032063"><ele>361.16666666666663</ele><time>2026-05-03T13:42:43.899Z</time></trkpt><trkpt lat="44.5122667" lon="7.8031639"><ele>361.0</ele><time>2026-05-03T13:42:44.898Z</time></trkpt><trkpt lat="44.5123532" lon="7.8031137"><ele>361.0</ele><time>2026-05-03T13:42:45.909Z</time></trkpt><trkpt lat="44.5124356" lon="7.8030634"><ele>361.0</ele><time>2026-05-03T13:42:46.909Z</time></trkpt><trkpt lat="44.5125094" lon="7.8030209"><ele>361.0</ele><time>2026-05-03T13:42:47.904Z</time></trkpt><trkpt lat="44.5125858" lon="7.8029821"><ele>361.0</ele><time>2026-05-03T13:42:48.9Z</time></trkpt><trkpt lat="44.5126691" lon="7.802934"><ele>361.0</ele><time>2026-05-03T13:42:49.893Z</time></trkpt><trkpt lat="44.5127629" lon="7.8028738"><ele>361.0</ele><time>2026-05-03T13:42:50.91Z</time></trkpt><trkpt lat="44.5128521" lon="7.8028231"><ele>361.0</ele><time>2026-05-03T13:42:51.892Z</time></trkpt><trkpt lat="44.5129338" lon="7.8027796"><ele>361.0</ele><time>2026-05-03T13:42:52.905Z</time></trkpt><trkpt lat="44.5130046" lon="7.8027384"><ele>361.0</ele><time>2026-05-03T13:42:53.903Z</time></trkpt><trkpt lat="44.513104" lon="7.8026797"><ele>361.0</ele><time>2026-05-03T13:42:55.903Z</time></trkpt><trkpt lat="44.5131706" lon="7.8026467"><ele>361.0</ele><time>2026-05-03T13:42:56.905Z</time></trkpt><trkpt lat="44.5132439" lon="7.8026068"><ele>361.0</ele><time>2026-05-03T13:42:57.902Z</time></trkpt><trkpt lat="44.513319" lon="7.802562"><ele>361.0</ele><time>2026-05-03T13:42:58.891Z</time></trkpt><trkpt lat="44.5133972" lon="7.80252"><ele>361.0</ele><time>2026-05-03T13:42:59.902Z</time></trkpt><trkpt lat="44.5134733" lon="7.8024776"><ele>361.0</ele><time>2026-05-03T13:43:00.902Z</time></trkpt><trkpt lat="44.5135533" lon="7.8024247"><ele>361.0</ele><time>2026-05-03T13:43:01.897Z</time></trkpt><trkpt lat="44.5136428" lon="7.8023678"><ele>361.0</ele><time>2026-05-03T13:43:02.904Z</time></trkpt><trkpt lat="44.5137332" lon="7.80232"><ele>361.0</ele><time>2026-05-03T13:43:03.902Z</time></trkpt><trkpt lat="44.5138208" lon="7.8022662"><ele>361.20000000000005</ele><time>2026-05-03T13:43:04.914Z</time></trkpt><trkpt lat="44.5139098" lon="7.8022144"><ele>361.40000000000003</ele><time>2026-05-03T13:43:05.901Z</time></trkpt><trkpt lat="44.5139983" lon="7.8021706"><ele>361.6</ele><time>2026-05-03T13:43:06.906Z</time></trkpt><trkpt lat="44.5140914" lon="7.8021175"><ele>361.8</ele><time>2026-05-03T13:43:07.9Z</time></trkpt><trkpt lat="44.514193" lon="7.8020594"><ele>362.0</ele><time>2026-05-03T13:43:08.9Z</time></trkpt><trkpt lat="44.5143109" lon="7.8019951"><ele>362.0</ele><time>2026-05-03T13:43:09.906Z</time></trkpt><trkpt lat="44.5144351" lon="7.8019205"><ele>362.0</ele><time>2026-05-03T13:43:10.903Z</time></trkpt><trkpt lat="44.5145623" lon="7.8018352"><ele>362.0</ele><time>2026-05-03T13:43:11.907Z</time></trkpt><trkpt lat="44.5146916" lon="7.8017636"><ele>362.0</ele><time>2026-05-03T13:43:12.903Z</time></trkpt><trkpt lat="44.5148012" lon="7.8017009"><ele>362.0</ele><time>2026-05-03T13:43:13.897Z</time></trkpt><trkpt lat="44.5149049" lon="7.8016525"><ele>362.0</ele><time>2026-05-03T13:43:14.901Z</time></trkpt><trkpt lat="44.5150073" lon="7.8015919"><ele>362.0</ele><time>2026-05-03T13:43:15.897Z</time></trkpt><trkpt lat="44.5151144" lon="7.8015224"><ele>362.0</ele><time>2026-05-03T13:43:16.901Z</time></trkpt><trkpt lat="44.5152372" lon="7.8014479"><ele>362.0</ele><time>2026-05-03T13:43:17.903Z</time></trkpt><trkpt lat="44.5153691" lon="7.8013719"><ele>362.0</ele><time>2026-05-03T13:43:18.906Z</time></trkpt><trkpt lat="44.5155074" lon="7.8012913"><ele>362.0</ele><time>2026-05-03T13:43:19.9Z</time></trkpt><trkpt lat="44.5156466" lon="7.8012099"><ele>362.0</ele><time>2026-05-03T13:43:20.893Z</time></trkpt><trkpt lat="44.5157793" lon="7.801132"><ele>362.0</ele><time>2026-05-03T13:43:21.917Z</time></trkpt><trkpt lat="44.5159115" lon="7.8010554"><ele>362.0</ele><time>2026-05-03T13:43:22.898Z</time></trkpt><trkpt lat="44.5160419" lon="7.8009862"><ele>362.0</ele><time>2026-05-03T13:43:23.902Z</time></trkpt><trkpt lat="44.5161536" lon="7.8009105"><ele>362.0</ele><time>2026-05-03T13:43:24.907Z</time></trkpt><trkpt lat="44.5162554" lon="7.8008494"><ele>362.40000000000003</ele><time>2026-05-03T13:43:25.899Z</time></trkpt><trkpt lat="44.5163527" lon="7.8007934"><ele>362.8</ele><time>2026-05-03T13:43:26.905Z</time></trkpt><trkpt lat="44.5164478" lon="7.8007346"><ele>363.2</ele><time>2026-05-03T13:43:27.906Z</time></trkpt><trkpt lat="44.5165565" lon="7.8006701"><ele>363.6</ele><time>2026-05-03T13:43:28.901Z</time></trkpt><trkpt lat="44.5166662" lon="7.8006105"><ele>364.0</ele><time>2026-05-03T13:43:29.899Z</time></trkpt><trkpt lat="44.516778" lon="7.8005557"><ele>364.0</ele><time>2026-05-03T13:43:30.906Z</time></trkpt><trkpt lat="44.5168892" lon="7.8004985"><ele>364.0</ele><time>2026-05-03T13:43:31.9Z</time></trkpt><trkpt lat="44.5170026" lon="7.8004306"><ele>364.0</ele><time>2026-05-03T13:43:32.902Z</time></trkpt><trkpt lat="44.5171163" lon="7.8003687"><ele>364.0</ele><time>2026-05-03T13:43:33.894Z</time></trkpt><trkpt lat="44.517242" lon="7.8002921"><ele>364.0</ele><time>2026-05-03T13:43:34.896Z</time></trkpt><trkpt lat="44.5173649" lon="7.8002223"><ele>364.0</ele><time>2026-05-03T13:43:35.896Z</time></trkpt><trkpt lat="44.5174816" lon="7.8001537"><ele>364.0</ele><time>2026-05-03T13:43:36.902Z</time></trkpt><trkpt lat="44.517604" lon="7.8000865"><ele>364.0</ele><time>2026-05-03T13:43:37.904Z</time></trkpt><trkpt lat="44.5177345" lon="7.8000126"><ele>364.0</ele><time>2026-05-03T13:43:38.899Z</time></trkpt><trkpt lat="44.5178666" lon="7.7999287"><ele>364.0</ele><time>2026-05-03T13:43:39.9Z</time></trkpt><trkpt lat="44.5179961" lon="7.7998465"><ele>364.0</ele><time>2026-05-03T13:43:40.9Z</time></trkpt><trkpt lat="44.5181338" lon="7.7997627"><ele>364.0</ele><time>2026-05-03T13:43:41.894Z</time></trkpt><trkpt lat="44.5182769" lon="7.7996799"><ele>364.0</ele><time>2026-05-03T13:43:42.904Z</time></trkpt><trkpt lat="44.5184239" lon="7.7995948"><ele>364.0</ele><time>2026-05-03T13:43:43.899Z</time></trkpt><trkpt lat="44.5185784" lon="7.7995041"><ele>364.0</ele><time>2026-05-03T13:43:44.894Z</time></trkpt><trkpt lat="44.5187334" lon="7.7994148"><ele>363.3333333333333</ele><time>2026-05-03T13:43:45.902Z</time></trkpt><trkpt lat="44.5188963" lon="7.7993271"><ele>362.6666666666667</ele><time>2026-05-03T13:43:46.898Z</time></trkpt><trkpt lat="44.5190698" lon="7.7992279"><ele>362.0</ele><time>2026-05-03T13:43:47.904Z</time></trkpt><trkpt lat="44.5192502" lon="7.7991289"><ele>362.0</ele><time>2026-05-03T13:43:48.896Z</time></trkpt><trkpt lat="44.5194265" lon="7.7990307"><ele>362.0</ele><time>2026-05-03T13:43:49.897Z</time></trkpt><trkpt lat="44.5195959" lon="7.7989331"><ele>362.0</ele><time>2026-05-03T13:43:50.903Z</time></trkpt><trkpt lat="44.5197703" lon="7.7988302"><ele>361.33333333333337</ele><time>2026-05-03T13:43:51.909Z</time></trkpt><trkpt lat="44.5199539" lon="7.7987219"><ele>360.6666666666667</ele><time>2026-05-03T13:43:52.899Z</time></trkpt><trkpt lat="44.5201407" lon="7.7986099"><ele>360.0</ele><time>2026-05-03T13:43:53.911Z</time></trkpt><trkpt lat="44.5203285" lon="7.7985023"><ele>360.6666666666667</ele><time>2026-05-03T13:43:54.898Z</time></trkpt><trkpt lat="44.5205176" lon="7.7983972"><ele>361.33333333333337</ele><time>2026-05-03T13:43:55.9Z</time></trkpt><trkpt lat="44.5207091" lon="7.7982905"><ele>362.0</ele><time>2026-05-03T13:43:56.896Z</time></trkpt><trkpt lat="44.5209047" lon="7.7981765"><ele>362.0</ele><time>2026-05-03T13:43:57.899Z</time></trkpt><trkpt lat="44.5211054" lon="7.7980558"><ele>362.0</ele><time>2026-05-03T13:43:58.902Z</time></trkpt><trkpt lat="44.5213134" lon="7.7979394"><ele>362.0</ele><time>2026-05-03T13:43:59.899Z</time></trkpt><trkpt lat="44.5215203" lon="7.7978213"><ele>361.6666666666667</ele><time>2026-05-03T13:44:00.892Z</time></trkpt><trkpt lat="44.5217228" lon="7.7977022"><ele>361.3333333333333</ele><time>2026-05-03T13:44:01.901Z</time></trkpt><trkpt lat="44.5219278" lon="7.7975822"><ele>361.0</ele><time>2026-05-03T13:44:02.895Z</time></trkpt><trkpt lat="44.5221316" lon="7.7974672"><ele>361.66666666666663</ele><time>2026-05-03T13:44:03.901Z</time></trkpt><trkpt lat="44.5223336" lon="7.7973523"><ele>362.3333333333333</ele><time>2026-05-03T13:44:04.899Z</time></trkpt><trkpt lat="44.522536" lon="7.7972386"><ele>363.0</ele><time>2026-05-03T13:44:05.898Z</time></trkpt><trkpt lat="44.5227415" lon="7.7971244"><ele>362.5</ele><time>2026-05-03T13:44:06.909Z</time></trkpt><trkpt lat="44.5229476" lon="7.796998"><ele>362.0</ele><time>2026-05-03T13:44:07.896Z</time></trkpt><trkpt lat="44.5231565" lon="7.7968801"><ele>363.0</ele><time>2026-05-03T13:44:08.899Z</time></trkpt><trkpt lat="44.5233635" lon="7.7967592"><ele>364.0</ele><time>2026-05-03T13:44:09.911Z</time></trkpt><trkpt lat="44.5235715" lon="7.796637"><ele>363.5</ele><time>2026-05-03T13:44:10.897Z</time></trkpt><trkpt lat="44.5237818" lon="7.7965194"><ele>363.0</ele><time>2026-05-03T13:44:11.907Z</time></trkpt><trkpt lat="44.5239931" lon="7.7963981"><ele>363.0</ele><time>2026-05-03T13:44:12.904Z</time></trkpt><trkpt lat="44.5242048" lon="7.7962715"><ele>363.0</ele><time>2026-05-03T13:44:13.904Z</time></trkpt><trkpt lat="44.5244181" lon="7.7961405"><ele>362.5</ele><time>2026-05-03T13:44:14.908Z</time></trkpt><trkpt lat="44.5246338" lon="7.7960104"><ele>362.0</ele><time>2026-05-03T13:44:15.903Z</time></trkpt><trkpt lat="44.5248493" lon="7.7958848"><ele>363.5</ele><time>2026-05-03T13:44:16.902Z</time></trkpt><trkpt lat="44.5250712" lon="7.7957558"><ele>365.0</ele><time>2026-05-03T13:44:17.899Z</time></trkpt><trkpt lat="44.5252925" lon="7.7956339"><ele>363.0</ele><time>2026-05-03T13:44:18.897Z</time></trkpt><trkpt lat="44.525507" lon="7.795513"><ele>361.0</ele><time>2026-05-03T13:44:19.902Z</time></trkpt><trkpt lat="44.5257185" lon="7.7953911"><ele>361.0</ele><time>2026-05-03T13:44:20.906Z</time></trkpt><trkpt lat="44.5259323" lon="7.7952672"><ele>361.0</ele><time>2026-05-03T13:44:21.895Z</time></trkpt><trkpt lat="44.5261509" lon="7.7951418"><ele>361.5</ele><time>2026-05-03T13:44:22.9Z</time></trkpt><trkpt lat="44.5263633" lon="7.7950165"><ele>362.0</ele><time>2026-05-03T13:44:23.899Z</time></trkpt><trkpt lat="44.5265728" lon="7.7948997"><ele>362.0</ele><time>2026-05-03T13:44:24.902Z</time></trkpt><trkpt lat="44.526781" lon="7.7947794"><ele>362.0</ele><time>2026-05-03T13:44:25.902Z</time></trkpt><trkpt lat="44.5269926" lon="7.7946589"><ele>362.5</ele><time>2026-05-03T13:44:26.899Z</time></trkpt><trkpt lat="44.5272005" lon="7.7945392"><ele>363.0</ele><time>2026-05-03T13:44:27.902Z</time></trkpt><trkpt lat="44.5274121" lon="7.7944172"><ele>362.5</ele><time>2026-05-03T13:44:28.906Z</time></trkpt><trkpt lat="44.5276244" lon="7.7942935"><ele>362.0</ele><time>2026-05-03T13:44:29.906Z</time></trkpt><trkpt lat="44.5278462" lon="7.7941663"><ele>361.5</ele><time>2026-05-03T13:44:30.899Z</time></trkpt><trkpt lat="44.5280704" lon="7.794037"><ele>361.0</ele><time>2026-05-03T13:44:31.896Z</time></trkpt><trkpt lat="44.528298" lon="7.7939006"><ele>361.0</ele><time>2026-05-03T13:44:32.899Z</time></trkpt><trkpt lat="44.5285326" lon="7.7937648"><ele>361.0</ele><time>2026-05-03T13:44:33.903Z</time></trkpt><trkpt lat="44.5287715" lon="7.7936253"><ele>362.5</ele><time>2026-05-03T13:44:34.908Z</time></trkpt><trkpt lat="44.5290077" lon="7.7934874"><ele>364.0</ele><time>2026-05-03T13:44:35.899Z</time></trkpt><trkpt lat="44.5292453" lon="7.7933534"><ele>364.0</ele><time>2026-05-03T13:44:36.897Z</time></trkpt><trkpt lat="44.5294815" lon="7.7932126"><ele>364.0</ele><time>2026-05-03T13:44:37.893Z</time></trkpt><trkpt lat="44.5297156" lon="7.7930746"><ele>364.5</ele><time>2026-05-03T13:44:38.902Z</time></trkpt><trkpt lat="44.5299532" lon="7.792942"><ele>365.0</ele><time>2026-05-03T13:44:39.89Z</time></trkpt><trkpt lat="44.53019" lon="7.7928114"><ele>370.5</ele><time>2026-05-03T13:44:40.892Z</time></trkpt><trkpt lat="44.5304249" lon="7.7926811"><ele>376.0</ele><time>2026-05-03T13:44:41.888Z</time></trkpt><trkpt lat="44.5306592" lon="7.7925499"><ele>381.5</ele><time>2026-05-03T13:44:42.89Z</time></trkpt><trkpt lat="44.5308945" lon="7.7924188"><ele>387.0</ele><time>2026-05-03T13:44:43.888Z</time></trkpt><trkpt lat="44.5311324" lon="7.7922801"><ele>394.0</ele><time>2026-05-03T13:44:44.89Z</time></trkpt><trkpt lat="44.5313679" lon="7.7921396"><ele>401.0</ele><time>2026-05-03T13:44:45.891Z</time></trkpt><trkpt lat="44.5316073" lon="7.7919986"><ele>401.0</ele><time>2026-05-03T13:44:46.891Z</time></trkpt><trkpt lat="44.531851" lon="7.7918597"><ele>401.0</ele><time>2026-05-03T13:44:47.888Z</time></trkpt><trkpt lat="44.5320994" lon="7.7917127"><ele>402.0</ele><time>2026-05-03T13:44:48.891Z</time></trkpt><trkpt lat="44.5323555" lon="7.7915675"><ele>403.0</ele><time>2026-05-03T13:44:49.891Z</time></trkpt><trkpt lat="44.5326201" lon="7.7914211"><ele>403.0</ele><time>2026-05-03T13:44:50.887Z</time></trkpt><trkpt lat="44.5328859" lon="7.7912716"><ele>403.0</ele><time>2026-05-03T13:44:51.906Z</time></trkpt><trkpt lat="44.533153" lon="7.7911151"><ele>404.0</ele><time>2026-05-03T13:44:52.897Z</time></trkpt><trkpt lat="44.5334191" lon="7.7909602"><ele>405.0</ele><time>2026-05-03T13:44:53.888Z</time></trkpt><trkpt lat="44.5336949" lon="7.7907981"><ele>403.5</ele><time>2026-05-03T13:44:54.901Z</time></trkpt><trkpt lat="44.5339708" lon="7.790637"><ele>402.0</ele><time>2026-05-03T13:44:55.893Z</time></trkpt><trkpt lat="44.5342441" lon="7.7904803"><ele>402.0</ele><time>2026-05-03T13:44:56.901Z</time></trkpt><trkpt lat="44.5345138" lon="7.7903297"><ele>402.0</ele><time>2026-05-03T13:44:57.891Z</time></trkpt><trkpt lat="44.534775" lon="7.7901818"><ele>401.5</ele><time>2026-05-03T13:44:58.898Z</time></trkpt><trkpt lat="44.5350313" lon="7.7900357"><ele>401.0</ele><time>2026-05-03T13:44:59.898Z</time></trkpt><trkpt lat="44.5352884" lon="7.7898882"><ele>401.5</ele><time>2026-05-03T13:45:00.892Z</time></trkpt><trkpt lat="44.5355393" lon="7.7897428"><ele>402.0</ele><time>2026-05-03T13:45:01.886Z</time></trkpt><trkpt lat="44.5357849" lon="7.7895982"><ele>402.0</ele><time>2026-05-03T13:45:02.898Z</time></trkpt><trkpt lat="44.5360351" lon="7.789452"><ele>402.0</ele><time>2026-05-03T13:45:03.891Z</time></trkpt><trkpt lat="44.5362873" lon="7.789305"><ele>401.5</ele><time>2026-05-03T13:45:04.899Z</time></trkpt><trkpt lat="44.5365402" lon="7.7891626"><ele>401.0</ele><time>2026-05-03T13:45:05.89Z</time></trkpt><trkpt lat="44.5367916" lon="7.7890196"><ele>401.0</ele><time>2026-05-03T13:45:06.893Z</time></trkpt><trkpt lat="44.537042" lon="7.7888833"><ele>401.0</ele><time>2026-05-03T13:45:07.895Z</time></trkpt><trkpt lat="44.5372915" lon="7.7887493"><ele>401.0</ele><time>2026-05-03T13:45:08.898Z</time></trkpt><trkpt lat="44.5375455" lon="7.7886209"><ele>401.0</ele><time>2026-05-03T13:45:09.911Z</time></trkpt><trkpt lat="44.5377976" lon="7.7884927"><ele>401.5</ele><time>2026-05-03T13:45:10.914Z</time></trkpt><trkpt lat="44.538047" lon="7.7883677"><ele>402.0</ele><time>2026-05-03T13:45:11.897Z</time></trkpt><trkpt lat="44.5382981" lon="7.7882432"><ele>402.0</ele><time>2026-05-03T13:45:12.905Z</time></trkpt><trkpt lat="44.5385539" lon="7.7881231"><ele>402.0</ele><time>2026-05-03T13:45:13.9Z</time></trkpt><trkpt lat="44.538809" lon="7.788013"><ele>403.0</ele><time>2026-05-03T13:45:14.894Z</time></trkpt><trkpt lat="44.5390608" lon="7.7879038"><ele>404.0</ele><time>2026-05-03T13:45:15.903Z</time></trkpt><trkpt lat="44.539319" lon="7.7877949"><ele>403.5</ele><time>2026-05-03T13:45:16.907Z</time></trkpt><trkpt lat="44.5395835" lon="7.7876845"><ele>403.0</ele><time>2026-05-03T13:45:17.901Z</time></trkpt><trkpt lat="44.5398481" lon="7.7875737"><ele>402.5</ele><time>2026-05-03T13:45:18.907Z</time></trkpt><trkpt lat="44.5401121" lon="7.787463"><ele>402.0</ele><time>2026-05-03T13:45:19.902Z</time></trkpt><trkpt lat="44.5403828" lon="7.7873614"><ele>401.0</ele><time>2026-05-03T13:45:20.903Z</time></trkpt><trkpt lat="44.5406573" lon="7.7872642"><ele>400.0</ele><time>2026-05-03T13:45:21.901Z</time></trkpt><trkpt lat="44.5409333" lon="7.7871643"><ele>400.5</ele><time>2026-05-03T13:45:22.899Z</time></trkpt><trkpt lat="44.5412204" lon="7.7870616"><ele>401.0</ele><time>2026-05-03T13:45:23.911Z</time></trkpt><trkpt lat="44.5415127" lon="7.7869654"><ele>401.0</ele><time>2026-05-03T13:45:24.905Z</time></trkpt><trkpt lat="44.5418033" lon="7.7868711"><ele>401.0</ele><time>2026-05-03T13:45:25.904Z</time></trkpt><trkpt lat="44.5420934" lon="7.7867784"><ele>401.0</ele><time>2026-05-03T13:45:26.898Z</time></trkpt><trkpt lat="44.5423864" lon="7.7866874"><ele>401.0</ele><time>2026-05-03T13:45:27.902Z</time></trkpt><trkpt lat="44.5426749" lon="7.7865994"><ele>400.5</ele><time>2026-05-03T13:45:28.904Z</time></trkpt><trkpt lat="44.5429639" lon="7.786515"><ele>400.0</ele><time>2026-05-03T13:45:29.91Z</time></trkpt><trkpt lat="44.5432508" lon="7.7864415"><ele>400.0</ele><time>2026-05-03T13:45:30.902Z</time></trkpt><trkpt lat="44.5435333" lon="7.7863751"><ele>400.0</ele><time>2026-05-03T13:45:31.9Z</time></trkpt><trkpt lat="44.543801" lon="7.7863169"><ele>400.0</ele><time>2026-05-03T13:45:32.899Z</time></trkpt><trkpt lat="44.5440655" lon="7.7862568"><ele>400.0</ele><time>2026-05-03T13:45:33.901Z</time></trkpt><trkpt lat="44.5443294" lon="7.7861984"><ele>399.5</ele><time>2026-05-03T13:45:34.895Z</time></trkpt><trkpt lat="44.5446002" lon="7.7861407"><ele>399.0</ele><time>2026-05-03T13:45:35.895Z</time></trkpt><trkpt lat="44.5448698" lon="7.7860789"><ele>399.0</ele><time>2026-05-03T13:45:36.899Z</time></trkpt><trkpt lat="44.5451453" lon="7.7860249"><ele>399.0</ele><time>2026-05-03T13:45:37.9Z</time></trkpt><trkpt lat="44.5454182" lon="7.7859744"><ele>399.0</ele><time>2026-05-03T13:45:38.901Z</time></trkpt><trkpt lat="44.5456855" lon="7.7859224"><ele>399.0</ele><time>2026-05-03T13:45:39.898Z</time></trkpt><trkpt lat="44.5459459" lon="7.7858697"><ele>399.0</ele><time>2026-05-03T13:45:40.902Z</time></trkpt><trkpt lat="44.5462076" lon="7.7858213"><ele>399.0</ele><time>2026-05-03T13:45:41.905Z</time></trkpt><trkpt lat="44.5464722" lon="7.7857721"><ele>400.0</ele><time>2026-05-03T13:45:42.907Z</time></trkpt><trkpt lat="44.5467479" lon="7.7857232"><ele>401.0</ele><time>2026-05-03T13:45:43.914Z</time></trkpt><trkpt lat="44.5470123" lon="7.7856778"><ele>400.5</ele><time>2026-05-03T13:45:44.9Z</time></trkpt><trkpt lat="44.5472664" lon="7.7856302"><ele>400.0</ele><time>2026-05-03T13:45:45.905Z</time></trkpt><trkpt lat="44.5475212" lon="7.7855793"><ele>400.0</ele><time>2026-05-03T13:45:46.905Z</time></trkpt><trkpt lat="44.5477791" lon="7.7855247"><ele>400.0</ele><time>2026-05-03T13:45:47.891Z</time></trkpt><trkpt lat="44.548041" lon="7.7854723"><ele>399.5</ele><time>2026-05-03T13:45:48.903Z</time></trkpt><trkpt lat="44.5483029" lon="7.7854168"><ele>399.0</ele><time>2026-05-03T13:45:49.899Z</time></trkpt><trkpt lat="44.5485696" lon="7.7853625"><ele>399.0</ele><time>2026-05-03T13:45:50.916Z</time></trkpt><trkpt lat="44.5488401" lon="7.7853117"><ele>399.0</ele><time>2026-05-03T13:45:51.901Z</time></trkpt><trkpt lat="44.5491172" lon="7.7852589"><ele>399.0</ele><time>2026-05-03T13:45:52.896Z</time></trkpt><trkpt lat="44.5493979" lon="7.7852082"><ele>399.0</ele><time>2026-05-03T13:45:53.907Z</time></trkpt><trkpt lat="44.5496788" lon="7.7851489"><ele>398.0</ele><time>2026-05-03T13:45:54.904Z</time></trkpt><trkpt lat="44.5499581" lon="7.7850905"><ele>397.0</ele><time>2026-05-03T13:45:55.91Z</time></trkpt><trkpt lat="44.5502385" lon="7.7850348"><ele>396.0</ele><time>2026-05-03T13:45:56.903Z</time></trkpt><trkpt lat="44.5505178" lon="7.7849786"><ele>395.0</ele><time>2026-05-03T13:45:57.906Z</time></trkpt><trkpt lat="44.5507985" lon="7.7849276"><ele>395.0</ele><time>2026-05-03T13:45:58.904Z</time></trkpt><trkpt lat="44.5510798" lon="7.784877"><ele>395.0</ele><time>2026-05-03T13:45:59.908Z</time></trkpt><trkpt lat="44.5513653" lon="7.784825"><ele>395.0</ele><time>2026-05-03T13:46:00.906Z</time></trkpt><trkpt lat="44.5516511" lon="7.7847751"><ele>395.0</ele><time>2026-05-03T13:46:01.904Z</time></trkpt><trkpt lat="44.5519392" lon="7.784722"><ele>394.0</ele><time>2026-05-03T13:46:02.897Z</time></trkpt><trkpt lat="44.5522299" lon="7.7846611"><ele>393.0</ele><time>2026-05-03T13:46:03.895Z</time></trkpt><trkpt lat="44.552523" lon="7.7846041"><ele>393.0</ele><time>2026-05-03T13:46:04.899Z</time></trkpt><trkpt lat="44.5528223" lon="7.7845476"><ele>393.0</ele><time>2026-05-03T13:46:05.898Z</time></trkpt><trkpt lat="44.5531184" lon="7.7844919"><ele>392.5</ele><time>2026-05-03T13:46:06.902Z</time></trkpt><trkpt lat="44.5534186" lon="7.7844333"><ele>392.0</ele><time>2026-05-03T13:46:07.897Z</time></trkpt><trkpt lat="44.553718" lon="7.7843737"><ele>393.5</ele><time>2026-05-03T13:46:08.901Z</time></trkpt><trkpt lat="44.5540103" lon="7.7843193"><ele>395.0</ele><time>2026-05-03T13:46:09.902Z</time></trkpt><trkpt lat="44.5543022" lon="7.7842628"><ele>396.0</ele><time>2026-05-03T13:46:10.902Z</time></trkpt><trkpt lat="44.5545903" lon="7.7842047"><ele>397.0</ele><time>2026-05-03T13:46:11.898Z</time></trkpt><trkpt lat="44.5548804" lon="7.784149"><ele>397.0</ele><time>2026-05-03T13:46:12.904Z</time></trkpt><trkpt lat="44.555168" lon="7.7840925"><ele>397.0</ele><time>2026-05-03T13:46:13.908Z</time></trkpt><trkpt lat="44.555454" lon="7.7840377"><ele>396.5</ele><time>2026-05-03T13:46:14.908Z</time></trkpt><trkpt lat="44.555746" lon="7.783984"><ele>396.0</ele><time>2026-05-03T13:46:15.902Z</time></trkpt><trkpt lat="44.556034" lon="7.7839286"><ele>396.0</ele><time>2026-05-03T13:46:16.901Z</time></trkpt><trkpt lat="44.5563163" lon="7.7838716"><ele>396.0</ele><time>2026-05-03T13:46:17.897Z</time></trkpt><trkpt lat="44.5565926" lon="7.7838153"><ele>396.0</ele><time>2026-05-03T13:46:18.896Z</time></trkpt><trkpt lat="44.5568754" lon="7.7837619"><ele>396.0</ele><time>2026-05-03T13:46:19.898Z</time></trkpt><trkpt lat="44.5571575" lon="7.7837073"><ele>395.5</ele><time>2026-05-03T13:46:20.899Z</time></trkpt><trkpt lat="44.5574414" lon="7.7836587"><ele>395.0</ele><time>2026-05-03T13:46:21.907Z</time></trkpt><trkpt lat="44.5577247" lon="7.7836012"><ele>395.0</ele><time>2026-05-03T13:46:22.905Z</time></trkpt><trkpt lat="44.5580094" lon="7.7835419"><ele>395.0</ele><time>2026-05-03T13:46:23.908Z</time></trkpt><trkpt lat="44.5582913" lon="7.7834834"><ele>395.0</ele><time>2026-05-03T13:46:24.907Z</time></trkpt><trkpt lat="44.55857" lon="7.7834194"><ele>395.0</ele><time>2026-05-03T13:46:25.907Z</time></trkpt><trkpt lat="44.5588448" lon="7.7833535"><ele>395.0</ele><time>2026-05-03T13:46:26.903Z</time></trkpt><trkpt lat="44.5591238" lon="7.7832887"><ele>395.0</ele><time>2026-05-03T13:46:27.901Z</time></trkpt><trkpt lat="44.5594036" lon="7.7832194"><ele>394.0</ele><time>2026-05-03T13:46:28.901Z</time></trkpt><trkpt lat="44.5596838" lon="7.7831438"><ele>393.0</ele><time>2026-05-03T13:46:29.902Z</time></trkpt><trkpt lat="44.5599619" lon="7.7830594"><ele>393.0</ele><time>2026-05-03T13:46:30.896Z</time></trkpt><trkpt lat="44.5602488" lon="7.7829722"><ele>393.0</ele><time>2026-05-03T13:46:31.904Z</time></trkpt><trkpt lat="44.5605363" lon="7.7828762"><ele>392.0</ele><time>2026-05-03T13:46:32.907Z</time></trkpt><trkpt lat="44.5608209" lon="7.7827689"><ele>391.0</ele><time>2026-05-03T13:46:33.902Z</time></trkpt><trkpt lat="44.5611046" lon="7.7826582"><ele>391.0</ele><time>2026-05-03T13:46:34.901Z</time></trkpt><trkpt lat="44.5613874" lon="7.7825518"><ele>391.0</ele><time>2026-05-03T13:46:35.908Z</time></trkpt><trkpt lat="44.5616593" lon="7.7824452"><ele>391.0</ele><time>2026-05-03T13:46:36.896Z</time></trkpt><trkpt lat="44.5619239" lon="7.7823331"><ele>391.0</ele><time>2026-05-03T13:46:37.901Z</time></trkpt><trkpt lat="44.5621868" lon="7.7822136"><ele>391.0</ele><time>2026-05-03T13:46:38.904Z</time></trkpt><trkpt lat="44.5624418" lon="7.7820892"><ele>391.0</ele><time>2026-05-03T13:46:39.903Z</time></trkpt><trkpt lat="44.5627041" lon="7.7819615"><ele>390.0</ele><time>2026-05-03T13:46:40.916Z</time></trkpt><trkpt lat="44.5629615" lon="7.7818298"><ele>389.0</ele><time>2026-05-03T13:46:41.906Z</time></trkpt><trkpt lat="44.5632151" lon="7.7816913"><ele>389.0</ele><time>2026-05-03T13:46:42.905Z</time></trkpt><trkpt lat="44.5634745" lon="7.7815499"><ele>389.0</ele><time>2026-05-03T13:46:43.903Z</time></trkpt><trkpt lat="44.5637401" lon="7.781398"><ele>389.5</ele><time>2026-05-03T13:46:44.909Z</time></trkpt><trkpt lat="44.5640034" lon="7.7812388"><ele>390.0</ele><time>2026-05-03T13:46:45.906Z</time></trkpt><trkpt lat="44.5642696" lon="7.7810749"><ele>387.0</ele><time>2026-05-03T13:46:46.902Z</time></trkpt><trkpt lat="44.5645314" lon="7.7809059"><ele>384.0</ele><time>2026-05-03T13:46:47.908Z</time></trkpt><trkpt lat="44.56479" lon="7.7807387"><ele>384.0</ele><time>2026-05-03T13:46:48.903Z</time></trkpt><trkpt lat="44.5650462" lon="7.7805663"><ele>384.0</ele><time>2026-05-03T13:46:49.906Z</time></trkpt><trkpt lat="44.5653022" lon="7.7803883"><ele>381.5</ele><time>2026-05-03T13:46:50.905Z</time></trkpt><trkpt lat="44.5655576" lon="7.7802088"><ele>379.0</ele><time>2026-05-03T13:46:51.907Z</time></trkpt><trkpt lat="44.565811" lon="7.7800336"><ele>380.5</ele><time>2026-05-03T13:46:52.897Z</time></trkpt><trkpt lat="44.566069" lon="7.7798604"><ele>382.0</ele><time>2026-05-03T13:46:53.902Z</time></trkpt><trkpt lat="44.5663287" lon="7.779684"><ele>382.0</ele><time>2026-05-03T13:46:54.908Z</time></trkpt><trkpt lat="44.5665878" lon="7.7795058"><ele>382.0</ele><time>2026-05-03T13:46:55.901Z</time></trkpt><trkpt lat="44.5668467" lon="7.7793275"><ele>372.5</ele><time>2026-05-03T13:46:56.9Z</time></trkpt><trkpt lat="44.5671043" lon="7.7791495"><ele>363.0</ele><time>2026-05-03T13:46:57.906Z</time></trkpt><trkpt lat="44.5673641" lon="7.7789683"><ele>363.0</ele><time>2026-05-03T13:46:58.901Z</time></trkpt><trkpt lat="44.5676241" lon="7.7787874"><ele>363.0</ele><time>2026-05-03T13:46:59.906Z</time></trkpt><trkpt lat="44.5678935" lon="7.7786013"><ele>363.5</ele><time>2026-05-03T13:47:00.9Z</time></trkpt><trkpt lat="44.5681539" lon="7.7784157"><ele>364.0</ele><time>2026-05-03T13:47:01.896Z</time></trkpt><trkpt lat="44.5684252" lon="7.7782239"><ele>363.5</ele><time>2026-05-03T13:47:02.902Z</time></trkpt><trkpt lat="44.5686963" lon="7.7780382"><ele>363.0</ele><time>2026-05-03T13:47:03.903Z</time></trkpt><trkpt lat="44.5689756" lon="7.7778505"><ele>356.5</ele><time>2026-05-03T13:47:04.9Z</time></trkpt><trkpt lat="44.5692583" lon="7.7776507"><ele>350.0</ele><time>2026-05-03T13:47:05.898Z</time></trkpt><trkpt lat="44.5695445" lon="7.7774526"><ele>347.0</ele><time>2026-05-03T13:47:06.909Z</time></trkpt><trkpt lat="44.5698358" lon="7.7772482"><ele>344.0</ele><time>2026-05-03T13:47:07.899Z</time></trkpt><trkpt lat="44.5701309" lon="7.7770424"><ele>334.5</ele><time>2026-05-03T13:47:08.897Z</time></trkpt><trkpt lat="44.5704215" lon="7.7768399"><ele>325.0</ele><time>2026-05-03T13:47:09.896Z</time></trkpt><trkpt lat="44.5707072" lon="7.7766412"><ele>325.0</ele><time>2026-05-03T13:47:10.9Z</time></trkpt><trkpt lat="44.5709925" lon="7.7764425"><ele>325.0</ele><time>2026-05-03T13:47:11.904Z</time></trkpt><trkpt lat="44.5712793" lon="7.7762427"><ele>317.0</ele><time>2026-05-03T13:47:12.905Z</time></trkpt><trkpt lat="44.5715691" lon="7.776045"><ele>309.0</ele><time>2026-05-03T13:47:13.896Z</time></trkpt><trkpt lat="44.5718564" lon="7.7758497"><ele>300.5</ele><time>2026-05-03T13:47:14.903Z</time></trkpt><trkpt lat="44.5721381" lon="7.7756528"><ele>292.0</ele><time>2026-05-03T13:47:15.901Z</time></trkpt><trkpt lat="44.5724177" lon="7.7754574"><ele>292.0</ele><time>2026-05-03T13:47:16.903Z</time></trkpt><trkpt lat="44.5727015" lon="7.7752583"><ele>292.0</ele><time>2026-05-03T13:47:17.897Z</time></trkpt><trkpt lat="44.5729846" lon="7.7750623"><ele>288.5</ele><time>2026-05-03T13:47:18.899Z</time></trkpt><trkpt lat="44.5732636" lon="7.7748643"><ele>285.0</ele><time>2026-05-03T13:47:19.898Z</time></trkpt><trkpt lat="44.5735449" lon="7.7746744"><ele>281.5</ele><time>2026-05-03T13:47:20.897Z</time></trkpt><trkpt lat="44.573821" lon="7.7744863"><ele>278.0</ele><time>2026-05-03T13:47:21.915Z</time></trkpt><trkpt lat="44.5740991" lon="7.7742954"><ele>278.0</ele><time>2026-05-03T13:47:22.901Z</time></trkpt><trkpt lat="44.57438" lon="7.7741043"><ele>278.0</ele><time>2026-05-03T13:47:23.906Z</time></trkpt><trkpt lat="44.57466" lon="7.7739063"><ele>275.5</ele><time>2026-05-03T13:47:24.901Z</time></trkpt><trkpt lat="44.5749448" lon="7.7737076"><ele>273.0</ele><time>2026-05-03T13:47:25.897Z</time></trkpt><trkpt lat="44.5752257" lon="7.7735128"><ele>270.0</ele><time>2026-05-03T13:47:26.902Z</time></trkpt><trkpt lat="44.5755092" lon="7.7733193"><ele>267.0</ele><time>2026-05-03T13:47:27.899Z</time></trkpt><trkpt lat="44.5757929" lon="7.773123"><ele>267.0</ele><time>2026-05-03T13:47:28.899Z</time></trkpt><trkpt lat="44.5760741" lon="7.772929"><ele>267.0</ele><time>2026-05-03T13:47:29.907Z</time></trkpt><trkpt lat="44.5763504" lon="7.772738"><ele>268.5</ele><time>2026-05-03T13:47:30.904Z</time></trkpt><trkpt lat="44.5766303" lon="7.7725465"><ele>270.0</ele><time>2026-05-03T13:47:31.911Z</time></trkpt><trkpt lat="44.5769129" lon="7.7723535"><ele>269.0</ele><time>2026-05-03T13:47:32.903Z</time></trkpt><trkpt lat="44.5771971" lon="7.7721574"><ele>268.0</ele><time>2026-05-03T13:47:33.893Z</time></trkpt><trkpt lat="44.5774816" lon="7.7719566"><ele>268.5</ele><time>2026-05-03T13:47:34.897Z</time></trkpt><trkpt lat="44.5777661" lon="7.7717587"><ele>269.0</ele><time>2026-05-03T13:47:35.896Z</time></trkpt><trkpt lat="44.5780513" lon="7.7715548"><ele>269.0</ele><time>2026-05-03T13:47:36.905Z</time></trkpt><trkpt lat="44.5783399" lon="7.77136"><ele>269.0</ele><time>2026-05-03T13:47:37.902Z</time></trkpt><trkpt lat="44.5786294" lon="7.7711612"><ele>271.5</ele><time>2026-05-03T13:47:38.913Z</time></trkpt><trkpt lat="44.5789234" lon="7.7709566"><ele>274.0</ele><time>2026-05-03T13:47:39.904Z</time></trkpt><trkpt lat="44.579222" lon="7.7707531"><ele>274.5</ele><time>2026-05-03T13:47:40.903Z</time></trkpt><trkpt lat="44.5795191" lon="7.7705533"><ele>275.0</ele><time>2026-05-03T13:47:41.904Z</time></trkpt><trkpt lat="44.5798177" lon="7.7703491"><ele>276.5</ele><time>2026-05-03T13:47:42.904Z</time></trkpt><trkpt lat="44.5801161" lon="7.7701378"><ele>278.0</ele><time>2026-05-03T13:47:43.903Z</time></trkpt><trkpt lat="44.5804129" lon="7.7699301"><ele>278.0</ele><time>2026-05-03T13:47:44.899Z</time></trkpt><trkpt lat="44.5806969" lon="7.7697274"><ele>278.0</ele><time>2026-05-03T13:47:45.905Z</time></trkpt><trkpt lat="44.5809719" lon="7.7695358"><ele>282.5</ele><time>2026-05-03T13:47:46.908Z</time></trkpt><trkpt lat="44.5812479" lon="7.7693407"><ele>287.0</ele><time>2026-05-03T13:47:47.913Z</time></trkpt><trkpt lat="44.581525" lon="7.7691525"><ele>287.0</ele><time>2026-05-03T13:47:48.901Z</time></trkpt><trkpt lat="44.5818072" lon="7.768969"><ele>287.0</ele><time>2026-05-03T13:47:49.898Z</time></trkpt><trkpt lat="44.5820842" lon="7.7687811"><ele>289.0</ele><time>2026-05-03T13:47:50.905Z</time></trkpt><trkpt lat="44.5823597" lon="7.7685934"><ele>291.0</ele><time>2026-05-03T13:47:51.899Z</time></trkpt><trkpt lat="44.5826364" lon="7.768399"><ele>290.0</ele><time>2026-05-03T13:47:52.905Z</time></trkpt><trkpt lat="44.5829191" lon="7.7682047"><ele>289.0</ele><time>2026-05-03T13:47:53.909Z</time></trkpt><trkpt lat="44.5832029" lon="7.7680042"><ele>289.0</ele><time>2026-05-03T13:47:54.901Z</time></trkpt><trkpt lat="44.5834837" lon="7.7678121"><ele>289.0</ele><time>2026-05-03T13:47:55.901Z</time></trkpt><trkpt lat="44.583763" lon="7.7676225"><ele>289.0</ele><time>2026-05-03T13:47:56.909Z</time></trkpt><trkpt lat="44.5840421" lon="7.7674291"><ele>289.0</ele><time>2026-05-03T13:47:57.907Z</time></trkpt><trkpt lat="44.5843213" lon="7.7672349"><ele>289.0</ele><time>2026-05-03T13:47:58.905Z</time></trkpt><trkpt lat="44.5846042" lon="7.7670394"><ele>289.0</ele><time>2026-05-03T13:47:59.891Z</time></trkpt><trkpt lat="44.584887" lon="7.7668405"><ele>291.5</ele><time>2026-05-03T13:48:00.911Z</time></trkpt><trkpt lat="44.5851666" lon="7.7666464"><ele>294.0</ele><time>2026-05-03T13:48:01.91Z</time></trkpt><trkpt lat="44.5854472" lon="7.7664518"><ele>294.0</ele><time>2026-05-03T13:48:02.896Z</time></trkpt><trkpt lat="44.5857291" lon="7.7662602"><ele>294.0</ele><time>2026-05-03T13:48:03.902Z</time></trkpt><trkpt lat="44.58601" lon="7.7660638"><ele>299.0</ele><time>2026-05-03T13:48:04.9Z</time></trkpt><trkpt lat="44.5862844" lon="7.7658709"><ele>304.0</ele><time>2026-05-03T13:48:05.901Z</time></trkpt><trkpt lat="44.5865597" lon="7.7656813"><ele>304.0</ele><time>2026-05-03T13:48:06.901Z</time></trkpt><trkpt lat="44.5868389" lon="7.7654937"><ele>304.0</ele><time>2026-05-03T13:48:07.899Z</time></trkpt><trkpt lat="44.5871124" lon="7.7653028"><ele>311.5</ele><time>2026-05-03T13:48:08.898Z</time></trkpt><trkpt lat="44.587388" lon="7.7651096"><ele>319.0</ele><time>2026-05-03T13:48:09.901Z</time></trkpt><trkpt lat="44.5876647" lon="7.76492"><ele>323.0</ele><time>2026-05-03T13:48:10.91Z</time></trkpt><trkpt lat="44.5879446" lon="7.7647289"><ele>327.0</ele><time>2026-05-03T13:48:11.902Z</time></trkpt><trkpt lat="44.5882254" lon="7.7645379"><ele>328.0</ele><time>2026-05-03T13:48:12.91Z</time></trkpt><trkpt lat="44.5884951" lon="7.764356"><ele>329.0</ele><time>2026-05-03T13:48:13.907Z</time></trkpt><trkpt lat="44.5887672" lon="7.7641774"><ele>329.0</ele><time>2026-05-03T13:48:14.903Z</time></trkpt><trkpt lat="44.5890458" lon="7.7640049"><ele>329.0</ele><time>2026-05-03T13:48:15.895Z</time></trkpt><trkpt lat="44.5893266" lon="7.7638462"><ele>329.0</ele><time>2026-05-03T13:48:16.894Z</time></trkpt><trkpt lat="44.5896115" lon="7.7636836"><ele>329.0</ele><time>2026-05-03T13:48:17.894Z</time></trkpt><trkpt lat="44.5899002" lon="7.7635227"><ele>328.5</ele><time>2026-05-03T13:48:18.902Z</time></trkpt><trkpt lat="44.5901881" lon="7.7633639"><ele>328.0</ele><time>2026-05-03T13:48:19.889Z</time></trkpt><trkpt lat="44.5904799" lon="7.7632054"><ele>328.0</ele><time>2026-05-03T13:48:20.902Z</time></trkpt><trkpt lat="44.590783" lon="7.7630533"><ele>328.0</ele><time>2026-05-03T13:48:21.902Z</time></trkpt><trkpt lat="44.5910918" lon="7.7629098"><ele>328.0</ele><time>2026-05-03T13:48:22.903Z</time></trkpt><trkpt lat="44.5914037" lon="7.7627715"><ele>328.0</ele><time>2026-05-03T13:48:23.903Z</time></trkpt><trkpt lat="44.5917228" lon="7.7626308"><ele>329.0</ele><time>2026-05-03T13:48:24.903Z</time></trkpt><trkpt lat="44.592042" lon="7.762497"><ele>330.0</ele><time>2026-05-03T13:48:25.905Z</time></trkpt><trkpt lat="44.592358" lon="7.7623684"><ele>330.0</ele><time>2026-05-03T13:48:26.903Z</time></trkpt><trkpt lat="44.592666" lon="7.7622499"><ele>330.0</ele><time>2026-05-03T13:48:27.901Z</time></trkpt><trkpt lat="44.5929716" lon="7.7621324"><ele>329.0</ele><time>2026-05-03T13:48:28.902Z</time></trkpt><trkpt lat="44.5932846" lon="7.7620185"><ele>328.0</ele><time>2026-05-03T13:48:29.904Z</time></trkpt><trkpt lat="44.5936019" lon="7.7619121"><ele>328.5</ele><time>2026-05-03T13:48:30.898Z</time></trkpt><trkpt lat="44.5939169" lon="7.761815"><ele>329.0</ele><time>2026-05-03T13:48:31.897Z</time></trkpt><trkpt lat="44.5942383" lon="7.7617182"><ele>327.5</ele><time>2026-05-03T13:48:32.913Z</time></trkpt><trkpt lat="44.5945578" lon="7.7616279"><ele>326.0</ele><time>2026-05-03T13:48:33.894Z</time></trkpt><trkpt lat="44.5948798" lon="7.7615469"><ele>326.0</ele><time>2026-05-03T13:48:34.897Z</time></trkpt><trkpt lat="44.5952067" lon="7.7614673"><ele>326.0</ele><time>2026-05-03T13:48:35.909Z</time></trkpt><trkpt lat="44.5955303" lon="7.76139"><ele>326.5</ele><time>2026-05-03T13:48:36.902Z</time></trkpt><trkpt lat="44.5958518" lon="7.761321"><ele>327.0</ele><time>2026-05-03T13:48:37.905Z</time></trkpt><trkpt lat="44.5961629" lon="7.7612541"><ele>326.5</ele><time>2026-05-03T13:48:38.905Z</time></trkpt><trkpt lat="44.596482" lon="7.7611945"><ele>326.0</ele><time>2026-05-03T13:48:39.914Z</time></trkpt><trkpt lat="44.5968019" lon="7.7611418"><ele>326.0</ele><time>2026-05-03T13:48:40.903Z</time></trkpt><trkpt lat="44.5971183" lon="7.7610966"><ele>326.0</ele><time>2026-05-03T13:48:41.903Z</time></trkpt><trkpt lat="44.5974372" lon="7.7610566"><ele>326.5</ele><time>2026-05-03T13:48:42.906Z</time></trkpt><trkpt lat="44.5977601" lon="7.7610234"><ele>327.0</ele><time>2026-05-03T13:48:43.905Z</time></trkpt><trkpt lat="44.598082" lon="7.7609898"><ele>328.0</ele><time>2026-05-03T13:48:44.896Z</time></trkpt><trkpt lat="44.598404" lon="7.760963"><ele>329.0</ele><time>2026-05-03T13:48:45.896Z</time></trkpt><trkpt lat="44.5987256" lon="7.7609454"><ele>329.0</ele><time>2026-05-03T13:48:46.901Z</time></trkpt><trkpt lat="44.599044" lon="7.760924"><ele>329.0</ele><time>2026-05-03T13:48:47.902Z</time></trkpt><trkpt lat="44.5993568" lon="7.7609113"><ele>327.5</ele><time>2026-05-03T13:48:48.908Z</time></trkpt><trkpt lat="44.5996769" lon="7.7609075"><ele>326.0</ele><time>2026-05-03T13:48:49.91Z</time></trkpt><trkpt lat="44.6000009" lon="7.7609076"><ele>326.0</ele><time>2026-05-03T13:48:50.905Z</time></trkpt><trkpt lat="44.6003238" lon="7.7609161"><ele>326.0</ele><time>2026-05-03T13:48:51.91Z</time></trkpt><trkpt lat="44.6006476" lon="7.7609305"><ele>325.5</ele><time>2026-05-03T13:48:52.903Z</time></trkpt><trkpt lat="44.6009687" lon="7.7609421"><ele>325.0</ele><time>2026-05-03T13:48:53.921Z</time></trkpt><trkpt lat="44.60129" lon="7.7609584"><ele>325.0</ele><time>2026-05-03T13:48:54.902Z</time></trkpt><trkpt lat="44.6016125" lon="7.7609834"><ele>325.0</ele><time>2026-05-03T13:48:55.903Z</time></trkpt><trkpt lat="44.6019315" lon="7.7610197"><ele>326.0</ele><time>2026-05-03T13:48:56.902Z</time></trkpt><trkpt lat="44.6022533" lon="7.7610585"><ele>327.0</ele><time>2026-05-03T13:48:57.91Z</time></trkpt><trkpt lat="44.6025769" lon="7.7610956"><ele>326.5</ele><time>2026-05-03T13:48:58.904Z</time></trkpt><trkpt lat="44.6029038" lon="7.7611439"><ele>326.0</ele><time>2026-05-03T13:48:59.913Z</time></trkpt><trkpt lat="44.603231" lon="7.761202"><ele>326.0</ele><time>2026-05-03T13:49:00.902Z</time></trkpt><trkpt lat="44.6035497" lon="7.7612638"><ele>326.0</ele><time>2026-05-03T13:49:01.897Z</time></trkpt><trkpt lat="44.6038563" lon="7.7613266"><ele>325.5</ele><time>2026-05-03T13:49:02.904Z</time></trkpt><trkpt lat="44.6041471" lon="7.7613892"><ele>325.0</ele><time>2026-05-03T13:49:03.903Z</time></trkpt><trkpt lat="44.60443" lon="7.7614558"><ele>323.5</ele><time>2026-05-03T13:49:04.9Z</time></trkpt><trkpt lat="44.6047055" lon="7.761523"><ele>322.0</ele><time>2026-05-03T13:49:05.916Z</time></trkpt><trkpt lat="44.6049789" lon="7.7615954"><ele>322.0</ele><time>2026-05-03T13:49:06.901Z</time></trkpt><trkpt lat="44.605253" lon="7.7616737"><ele>322.0</ele><time>2026-05-03T13:49:07.91Z</time></trkpt><trkpt lat="44.6055279" lon="7.7617519"><ele>322.0</ele><time>2026-05-03T13:49:08.904Z</time></trkpt><trkpt lat="44.6058038" lon="7.7618383"><ele>322.0</ele><time>2026-05-03T13:49:09.899Z</time></trkpt><trkpt lat="44.6060723" lon="7.7619241"><ele>322.0</ele><time>2026-05-03T13:49:10.901Z</time></trkpt><trkpt lat="44.6063463" lon="7.7620159"><ele>322.0</ele><time>2026-05-03T13:49:11.898Z</time></trkpt><trkpt lat="44.6066286" lon="7.7621133"><ele>322.0</ele><time>2026-05-03T13:49:12.903Z</time></trkpt><trkpt lat="44.6069131" lon="7.762223"><ele>322.0</ele><time>2026-05-03T13:49:13.905Z</time></trkpt><trkpt lat="44.6071985" lon="7.7623328"><ele>323.5</ele><time>2026-05-03T13:49:14.899Z</time></trkpt><trkpt lat="44.6074886" lon="7.7624501"><ele>325.0</ele><time>2026-05-03T13:49:15.905Z</time></trkpt><trkpt lat="44.6077794" lon="7.7625746"><ele>323.0</ele><time>2026-05-03T13:49:16.901Z</time></trkpt><trkpt lat="44.6080722" lon="7.7627006"><ele>321.0</ele><time>2026-05-03T13:49:17.9Z</time></trkpt><trkpt lat="44.6083608" lon="7.7628325"><ele>321.0</ele><time>2026-05-03T13:49:18.906Z</time></trkpt><trkpt lat="44.6086499" lon="7.7629666"><ele>321.0</ele><time>2026-05-03T13:49:19.902Z</time></trkpt><trkpt lat="44.6089321" lon="7.7631088"><ele>321.5</ele><time>2026-05-03T13:49:20.899Z</time></trkpt><trkpt lat="44.6092075" lon="7.7632574"><ele>322.0</ele><time>2026-05-03T13:49:21.903Z</time></trkpt><trkpt lat="44.6094709" lon="7.7634009"><ele>321.5</ele><time>2026-05-03T13:49:22.909Z</time></trkpt><trkpt lat="44.6097326" lon="7.7635423"><ele>321.0</ele><time>2026-05-03T13:49:23.908Z</time></trkpt><trkpt lat="44.6099943" lon="7.7636847"><ele>321.0</ele><time>2026-05-03T13:49:24.902Z</time></trkpt><trkpt lat="44.610255" lon="7.7638279"><ele>321.0</ele><time>2026-05-03T13:49:25.896Z</time></trkpt><trkpt lat="44.6105161" lon="7.7639785"><ele>321.5</ele><time>2026-05-03T13:49:26.906Z</time></trkpt><trkpt lat="44.610776" lon="7.7641367"><ele>322.0</ele><time>2026-05-03T13:49:27.9Z</time></trkpt><trkpt lat="44.6110365" lon="7.7642981"><ele>321.0</ele><time>2026-05-03T13:49:28.899Z</time></trkpt><trkpt lat="44.6112999" lon="7.764465"><ele>320.0</ele><time>2026-05-03T13:49:29.9Z</time></trkpt><trkpt lat="44.6115636" lon="7.7646367"><ele>320.0</ele><time>2026-05-03T13:49:30.899Z</time></trkpt><trkpt lat="44.6118355" lon="7.7648151"><ele>320.0</ele><time>2026-05-03T13:49:31.897Z</time></trkpt><trkpt lat="44.612104" lon="7.7649928"><ele>320.0</ele><time>2026-05-03T13:49:32.905Z</time></trkpt><trkpt lat="44.6123806" lon="7.7651689"><ele>320.0</ele><time>2026-05-03T13:49:33.897Z</time></trkpt><trkpt lat="44.6126489" lon="7.7653435"><ele>319.5</ele><time>2026-05-03T13:49:34.901Z</time></trkpt><trkpt lat="44.6129194" lon="7.7655216"><ele>319.0</ele><time>2026-05-03T13:49:35.917Z</time></trkpt><trkpt lat="44.6131841" lon="7.7656924"><ele>319.0</ele><time>2026-05-03T13:49:36.903Z</time></trkpt><trkpt lat="44.6134503" lon="7.7658681"><ele>319.0</ele><time>2026-05-03T13:49:37.899Z</time></trkpt><trkpt lat="44.6137211" lon="7.7660387"><ele>319.0</ele><time>2026-05-03T13:49:38.897Z</time></trkpt><trkpt lat="44.6139886" lon="7.7662122"><ele>319.0</ele><time>2026-05-03T13:49:39.901Z</time></trkpt><trkpt lat="44.6142628" lon="7.7663883"><ele>319.5</ele><time>2026-05-03T13:49:40.914Z</time></trkpt><trkpt lat="44.614536" lon="7.766567"><ele>320.0</ele><time>2026-05-03T13:49:41.897Z</time></trkpt><trkpt lat="44.6148043" lon="7.7667453"><ele>320.0</ele><time>2026-05-03T13:49:42.902Z</time></trkpt><trkpt lat="44.6150741" lon="7.7669212"><ele>320.0</ele><time>2026-05-03T13:49:43.908Z</time></trkpt><trkpt lat="44.6153366" lon="7.7670916"><ele>319.0</ele><time>2026-05-03T13:49:44.904Z</time></trkpt><trkpt lat="44.6155905" lon="7.7672532"><ele>318.0</ele><time>2026-05-03T13:49:45.895Z</time></trkpt><trkpt lat="44.615843" lon="7.7674134"><ele>318.0</ele><time>2026-05-03T13:49:46.903Z</time></trkpt><trkpt lat="44.6160968" lon="7.7675723"><ele>318.0</ele><time>2026-05-03T13:49:47.912Z</time></trkpt><trkpt lat="44.6163527" lon="7.7677287"><ele>318.0</ele><time>2026-05-03T13:49:48.902Z</time></trkpt><trkpt lat="44.6165972" lon="7.767877"><ele>318.0</ele><time>2026-05-03T13:49:49.909Z</time></trkpt><trkpt lat="44.6168411" lon="7.7680254"><ele>318.5</ele><time>2026-05-03T13:49:50.895Z</time></trkpt><trkpt lat="44.617082" lon="7.7681734"><ele>319.0</ele><time>2026-05-03T13:49:51.897Z</time></trkpt><trkpt lat="44.6173248" lon="7.7683288"><ele>319.0</ele><time>2026-05-03T13:49:52.898Z</time></trkpt><trkpt lat="44.6175695" lon="7.7684843"><ele>319.0</ele><time>2026-05-03T13:49:53.902Z</time></trkpt><trkpt lat="44.6178167" lon="7.7686417"><ele>318.5</ele><time>2026-05-03T13:49:54.9Z</time></trkpt><trkpt lat="44.6180635" lon="7.7687991"><ele>318.0</ele><time>2026-05-03T13:49:55.911Z</time></trkpt><trkpt lat="44.6183117" lon="7.7689646"><ele>318.0</ele><time>2026-05-03T13:49:56.896Z</time></trkpt><trkpt lat="44.6185606" lon="7.7691232"><ele>318.0</ele><time>2026-05-03T13:49:57.908Z</time></trkpt><trkpt lat="44.6188037" lon="7.7692824"><ele>317.0</ele><time>2026-05-03T13:49:58.909Z</time></trkpt><trkpt lat="44.6190435" lon="7.7694388"><ele>316.0</ele><time>2026-05-03T13:49:59.901Z</time></trkpt><trkpt lat="44.619287" lon="7.7695926"><ele>316.0</ele><time>2026-05-03T13:50:00.913Z</time></trkpt><trkpt lat="44.6195312" lon="7.7697557"><ele>316.0</ele><time>2026-05-03T13:50:01.897Z</time></trkpt><trkpt lat="44.6197688" lon="7.7699124"><ele>316.0</ele><time>2026-05-03T13:50:02.892Z</time></trkpt><trkpt lat="44.6200054" lon="7.7700695"><ele>316.0</ele><time>2026-05-03T13:50:03.899Z</time></trkpt><trkpt lat="44.6202458" lon="7.7702221"><ele>315.0</ele><time>2026-05-03T13:50:04.906Z</time></trkpt><trkpt lat="44.6204933" lon="7.7703821"><ele>314.0</ele><time>2026-05-03T13:50:05.912Z</time></trkpt><trkpt lat="44.6207485" lon="7.7705475"><ele>314.0</ele><time>2026-05-03T13:50:06.897Z</time></trkpt><trkpt lat="44.6210079" lon="7.7707157"><ele>314.0</ele><time>2026-05-03T13:50:07.9Z</time></trkpt><trkpt lat="44.6212687" lon="7.7708828"><ele>313.5</ele><time>2026-05-03T13:50:08.903Z</time></trkpt><trkpt lat="44.621531" lon="7.771053"><ele>313.0</ele><time>2026-05-03T13:50:09.904Z</time></trkpt><trkpt lat="44.6217953" lon="7.7712269"><ele>314.0</ele><time>2026-05-03T13:50:10.904Z</time></trkpt><trkpt lat="44.6220584" lon="7.7713992"><ele>315.0</ele><time>2026-05-03T13:50:11.9Z</time></trkpt><trkpt lat="44.6223235" lon="7.7715742"><ele>315.0</ele><time>2026-05-03T13:50:12.898Z</time></trkpt><trkpt lat="44.6225878" lon="7.7717479"><ele>315.0</ele><time>2026-05-03T13:50:13.91Z</time></trkpt><trkpt lat="44.6228573" lon="7.7719215"><ele>315.5</ele><time>2026-05-03T13:50:14.907Z</time></trkpt><trkpt lat="44.623122" lon="7.7720975"><ele>316.0</ele><time>2026-05-03T13:50:15.911Z</time></trkpt><trkpt lat="44.6233776" lon="7.7722642"><ele>316.0</ele><time>2026-05-03T13:50:16.898Z</time></trkpt><trkpt lat="44.6236285" lon="7.7724317"><ele>316.0</ele><time>2026-05-03T13:50:17.902Z</time></trkpt><trkpt lat="44.6238825" lon="7.7726015"><ele>316.0</ele><time>2026-05-03T13:50:18.891Z</time></trkpt><trkpt lat="44.6241356" lon="7.7727633"><ele>316.0</ele><time>2026-05-03T13:50:19.894Z</time></trkpt><trkpt lat="44.624391" lon="7.7729269"><ele>316.0</ele><time>2026-05-03T13:50:20.9Z</time></trkpt><trkpt lat="44.6246467" lon="7.7730861"><ele>316.0</ele><time>2026-05-03T13:50:21.906Z</time></trkpt><trkpt lat="44.624906" lon="7.7732545"><ele>316.0</ele><time>2026-05-03T13:50:22.9Z</time></trkpt><trkpt lat="44.6251564" lon="7.7734215"><ele>316.0</ele><time>2026-05-03T13:50:23.896Z</time></trkpt><trkpt lat="44.6254146" lon="7.773583"><ele>315.0</ele><time>2026-05-03T13:50:24.893Z</time></trkpt><trkpt lat="44.6256784" lon="7.7737461"><ele>314.0</ele><time>2026-05-03T13:50:25.903Z</time></trkpt><trkpt lat="44.6259429" lon="7.773907"><ele>314.0</ele><time>2026-05-03T13:50:26.899Z</time></trkpt><trkpt lat="44.6262095" lon="7.7740724"><ele>314.0</ele><time>2026-05-03T13:50:27.899Z</time></trkpt><trkpt lat="44.6264775" lon="7.7742341"><ele>313.5</ele><time>2026-05-03T13:50:28.905Z</time></trkpt><trkpt lat="44.6267468" lon="7.77439"><ele>313.0</ele><time>2026-05-03T13:50:29.9Z</time></trkpt><trkpt lat="44.627012" lon="7.7745408"><ele>313.0</ele><time>2026-05-03T13:50:30.899Z</time></trkpt><trkpt lat="44.6272775" lon="7.7746867"><ele>313.0</ele><time>2026-05-03T13:50:31.909Z</time></trkpt><trkpt lat="44.6275491" lon="7.7748349"><ele>313.5</ele><time>2026-05-03T13:50:32.897Z</time></trkpt><trkpt lat="44.6278235" lon="7.7749841"><ele>314.0</ele><time>2026-05-03T13:50:33.911Z</time></trkpt><trkpt lat="44.6280976" lon="7.7751396"><ele>313.5</ele><time>2026-05-03T13:50:34.9Z</time></trkpt><trkpt lat="44.6283747" lon="7.7752955"><ele>313.0</ele><time>2026-05-03T13:50:35.905Z</time></trkpt><trkpt lat="44.6286549" lon="7.7754509"><ele>312.5</ele><time>2026-05-03T13:50:36.904Z</time></trkpt><trkpt lat="44.6289339" lon="7.7756063"><ele>312.0</ele><time>2026-05-03T13:50:37.902Z</time></trkpt><trkpt lat="44.6292191" lon="7.7757506"><ele>312.0</ele><time>2026-05-03T13:50:38.9Z</time></trkpt><trkpt lat="44.6295102" lon="7.7758973"><ele>312.0</ele><time>2026-05-03T13:50:39.903Z</time></trkpt><trkpt lat="44.6298023" lon="7.7760406"><ele>312.0</ele><time>2026-05-03T13:50:40.91Z</time></trkpt><trkpt lat="44.6300956" lon="7.7761794"><ele>312.0</ele><time>2026-05-03T13:50:41.908Z</time></trkpt><trkpt lat="44.6303906" lon="7.7763133"><ele>312.0</ele><time>2026-05-03T13:50:42.9Z</time></trkpt><trkpt lat="44.6306869" lon="7.7764419"><ele>312.0</ele><time>2026-05-03T13:50:43.902Z</time></trkpt><trkpt lat="44.6309876" lon="7.7765665"><ele>312.0</ele><time>2026-05-03T13:50:44.895Z</time></trkpt><trkpt lat="44.6312846" lon="7.7766897"><ele>312.0</ele><time>2026-05-03T13:50:45.901Z</time></trkpt><trkpt lat="44.6315799" lon="7.7768077"><ele>312.0</ele><time>2026-05-03T13:50:46.897Z</time></trkpt><trkpt lat="44.6318706" lon="7.7769243"><ele>312.0</ele><time>2026-05-03T13:50:47.903Z</time></trkpt><trkpt lat="44.6321557" lon="7.7770347"><ele>311.0</ele><time>2026-05-03T13:50:48.905Z</time></trkpt><trkpt lat="44.632442" lon="7.777145"><ele>310.0</ele><time>2026-05-03T13:50:49.902Z</time></trkpt><trkpt lat="44.6327315" lon="7.7772544"><ele>310.5</ele><time>2026-05-03T13:50:50.905Z</time></trkpt><trkpt lat="44.6330169" lon="7.7773564"><ele>311.0</ele><time>2026-05-03T13:50:51.899Z</time></trkpt><trkpt lat="44.6333089" lon="7.7774589"><ele>311.0</ele><time>2026-05-03T13:50:52.902Z</time></trkpt><trkpt lat="44.6336045" lon="7.7775587"><ele>311.0</ele><time>2026-05-03T13:50:53.906Z</time></trkpt><trkpt lat="44.6339044" lon="7.7776511"><ele>311.0</ele><time>2026-05-03T13:50:54.897Z</time></trkpt><trkpt lat="44.6342061" lon="7.7777412"><ele>311.0</ele><time>2026-05-03T13:50:55.907Z</time></trkpt><trkpt lat="44.6345112" lon="7.7778331"><ele>311.0</ele><time>2026-05-03T13:50:56.903Z</time></trkpt><trkpt lat="44.6348213" lon="7.7779274"><ele>311.0</ele><time>2026-05-03T13:50:57.904Z</time></trkpt><trkpt lat="44.6351308" lon="7.7780205"><ele>311.0</ele><time>2026-05-03T13:50:58.901Z</time></trkpt><trkpt lat="44.6354444" lon="7.7781108"><ele>311.0</ele><time>2026-05-03T13:50:59.899Z</time></trkpt><trkpt lat="44.6357589" lon="7.7781908"><ele>311.0</ele><time>2026-05-03T13:51:00.899Z</time></trkpt><trkpt lat="44.6360741" lon="7.7782673"><ele>311.0</ele><time>2026-05-03T13:51:01.902Z</time></trkpt><trkpt lat="44.6363879" lon="7.7783428"><ele>310.5</ele><time>2026-05-03T13:51:02.901Z</time></trkpt><trkpt lat="44.6367054" lon="7.7784148"><ele>310.0</ele><time>2026-05-03T13:51:03.901Z</time></trkpt><trkpt lat="44.6370235" lon="7.7784875"><ele>309.5</ele><time>2026-05-03T13:51:04.896Z</time></trkpt><trkpt lat="44.6373449" lon="7.7785586"><ele>309.0</ele><time>2026-05-03T13:51:05.896Z</time></trkpt><trkpt lat="44.6376653" lon="7.7786202"><ele>309.5</ele><time>2026-05-03T13:51:06.904Z</time></trkpt><trkpt lat="44.6379862" lon="7.7786757"><ele>310.0</ele><time>2026-05-03T13:51:07.898Z</time></trkpt><trkpt lat="44.6382904" lon="7.7787249"><ele>310.0</ele><time>2026-05-03T13:51:08.906Z</time></trkpt><trkpt lat="44.6385914" lon="7.7787728"><ele>310.0</ele><time>2026-05-03T13:51:09.904Z</time></trkpt><trkpt lat="44.6388924" lon="7.7788243"><ele>309.5</ele><time>2026-05-03T13:51:10.903Z</time></trkpt><trkpt lat="44.6391994" lon="7.7788674"><ele>309.0</ele><time>2026-05-03T13:51:11.895Z</time></trkpt><trkpt lat="44.6395091" lon="7.7789149"><ele>308.0</ele><time>2026-05-03T13:51:12.896Z</time></trkpt><trkpt lat="44.6398251" lon="7.7789562"><ele>307.0</ele><time>2026-05-03T13:51:13.914Z</time></trkpt><trkpt lat="44.6401467" lon="7.7789979"><ele>307.5</ele><time>2026-05-03T13:51:14.902Z</time></trkpt><trkpt lat="44.6404744" lon="7.7790385"><ele>308.0</ele><time>2026-05-03T13:51:15.913Z</time></trkpt><trkpt lat="44.6408019" lon="7.7790764"><ele>308.0</ele><time>2026-05-03T13:51:16.899Z</time></trkpt><trkpt lat="44.6411279" lon="7.7791108"><ele>308.0</ele><time>2026-05-03T13:51:17.907Z</time></trkpt><trkpt lat="44.6414584" lon="7.7791445"><ele>308.5</ele><time>2026-05-03T13:51:18.899Z</time></trkpt><trkpt lat="44.6417865" lon="7.7791784"><ele>309.0</ele><time>2026-05-03T13:51:19.91Z</time></trkpt><trkpt lat="44.6421175" lon="7.7792032"><ele>307.5</ele><time>2026-05-03T13:51:20.898Z</time></trkpt><trkpt lat="44.6424489" lon="7.7792226"><ele>306.0</ele><time>2026-05-03T13:51:21.907Z</time></trkpt><trkpt lat="44.6427854" lon="7.7792324"><ele>306.0</ele><time>2026-05-03T13:51:22.9Z</time></trkpt><trkpt lat="44.6431209" lon="7.779242"><ele>306.0</ele><time>2026-05-03T13:51:23.904Z</time></trkpt><trkpt lat="44.643458" lon="7.7792466"><ele>306.0</ele><time>2026-05-03T13:51:24.894Z</time></trkpt><trkpt lat="44.6437874" lon="7.7792517"><ele>306.0</ele><time>2026-05-03T13:51:25.906Z</time></trkpt><trkpt lat="44.6441105" lon="7.7792589"><ele>306.0</ele><time>2026-05-03T13:51:26.901Z</time></trkpt><trkpt lat="44.6444222" lon="7.7792595"><ele>306.0</ele><time>2026-05-03T13:51:27.912Z</time></trkpt><trkpt lat="44.6447217" lon="7.7792543"><ele>306.5</ele><time>2026-05-03T13:51:28.904Z</time></trkpt><trkpt lat="44.6450162" lon="7.7792481"><ele>307.0</ele><time>2026-05-03T13:51:29.902Z</time></trkpt><trkpt lat="44.6452957" lon="7.779238"><ele>307.0</ele><time>2026-05-03T13:51:30.902Z</time></trkpt><trkpt lat="44.645568" lon="7.7792245"><ele>307.0</ele><time>2026-05-03T13:51:31.907Z</time></trkpt><trkpt lat="44.6458366" lon="7.7792088"><ele>307.0</ele><time>2026-05-03T13:51:32.906Z</time></trkpt><trkpt lat="44.6461092" lon="7.7791934"><ele>307.0</ele><time>2026-05-03T13:51:33.906Z</time></trkpt><trkpt lat="44.6463939" lon="7.7791816"><ele>307.5</ele><time>2026-05-03T13:51:34.9Z</time></trkpt><trkpt lat="44.6466774" lon="7.7791593"><ele>308.0</ele><time>2026-05-03T13:51:35.896Z</time></trkpt><trkpt lat="44.6469643" lon="7.7791319"><ele>308.0</ele><time>2026-05-03T13:51:36.899Z</time></trkpt><trkpt lat="44.6472566" lon="7.7790978"><ele>308.0</ele><time>2026-05-03T13:51:37.904Z</time></trkpt><trkpt lat="44.64755" lon="7.7790674"><ele>308.5</ele><time>2026-05-03T13:51:38.913Z</time></trkpt><trkpt lat="44.6478514" lon="7.7790345"><ele>309.0</ele><time>2026-05-03T13:51:39.905Z</time></trkpt><trkpt lat="44.6481447" lon="7.7789983"><ele>309.0</ele><time>2026-05-03T13:51:40.899Z</time></trkpt><trkpt lat="44.6484389" lon="7.7789573"><ele>309.0</ele><time>2026-05-03T13:51:41.898Z</time></trkpt><trkpt lat="44.6487322" lon="7.7789128"><ele>307.0</ele><time>2026-05-03T13:51:42.903Z</time></trkpt><trkpt lat="44.6490255" lon="7.7788656"><ele>305.0</ele><time>2026-05-03T13:51:43.901Z</time></trkpt><trkpt lat="44.6493119" lon="7.778816"><ele>305.0</ele><time>2026-05-03T13:51:44.906Z</time></trkpt><trkpt lat="44.6496016" lon="7.7787698"><ele>305.0</ele><time>2026-05-03T13:51:45.899Z</time></trkpt><trkpt lat="44.6498932" lon="7.7787219"><ele>305.0</ele><time>2026-05-03T13:51:46.902Z</time></trkpt><trkpt lat="44.6501842" lon="7.7786694"><ele>305.0</ele><time>2026-05-03T13:51:47.904Z</time></trkpt><trkpt lat="44.6504737" lon="7.7786134"><ele>305.5</ele><time>2026-05-03T13:51:48.901Z</time></trkpt><trkpt lat="44.6507618" lon="7.7785496"><ele>306.0</ele><time>2026-05-03T13:51:49.899Z</time></trkpt><trkpt lat="44.6510405" lon="7.7784806"><ele>306.0</ele><time>2026-05-03T13:51:50.902Z</time></trkpt><trkpt lat="44.6513211" lon="7.778409"><ele>306.0</ele><time>2026-05-03T13:51:51.9Z</time></trkpt><trkpt lat="44.6516086" lon="7.7783352"><ele>306.0</ele><time>2026-05-03T13:51:52.913Z</time></trkpt><trkpt lat="44.6518916" lon="7.7782643"><ele>306.0</ele><time>2026-05-03T13:51:53.9Z</time></trkpt><trkpt lat="44.6521734" lon="7.7781912"><ele>304.5</ele><time>2026-05-03T13:51:54.907Z</time></trkpt><trkpt lat="44.6524539" lon="7.7781149"><ele>303.0</ele><time>2026-05-03T13:51:55.897Z</time></trkpt><trkpt lat="44.6527341" lon="7.7780357"><ele>302.5</ele><time>2026-05-03T13:51:56.898Z</time></trkpt><trkpt lat="44.6530082" lon="7.7779633"><ele>302.0</ele><time>2026-05-03T13:51:57.901Z</time></trkpt><trkpt lat="44.6532744" lon="7.7778878"><ele>302.0</ele><time>2026-05-03T13:51:58.901Z</time></trkpt><trkpt lat="44.6535351" lon="7.7778118"><ele>302.0</ele><time>2026-05-03T13:51:59.908Z</time></trkpt><trkpt lat="44.6537838" lon="7.7777401"><ele>302.0</ele><time>2026-05-03T13:52:00.898Z</time></trkpt><trkpt lat="44.6540293" lon="7.7776728"><ele>302.0</ele><time>2026-05-03T13:52:01.897Z</time></trkpt><trkpt lat="44.6542745" lon="7.777598"><ele>302.0</ele><time>2026-05-03T13:52:02.913Z</time></trkpt><trkpt lat="44.654527" lon="7.7775278"><ele>302.0</ele><time>2026-05-03T13:52:03.902Z</time></trkpt><trkpt lat="44.6547745" lon="7.7774556"><ele>302.0</ele><time>2026-05-03T13:52:04.896Z</time></trkpt><trkpt lat="44.6550275" lon="7.7773813"><ele>302.0</ele><time>2026-05-03T13:52:05.896Z</time></trkpt><trkpt lat="44.6552727" lon="7.7773115"><ele>301.0</ele><time>2026-05-03T13:52:06.905Z</time></trkpt><trkpt lat="44.6555195" lon="7.7772401"><ele>300.0</ele><time>2026-05-03T13:52:07.89Z</time></trkpt><trkpt lat="44.6557756" lon="7.7771663"><ele>300.0</ele><time>2026-05-03T13:52:08.904Z</time></trkpt><trkpt lat="44.6560344" lon="7.7770923"><ele>300.0</ele><time>2026-05-03T13:52:09.898Z</time></trkpt><trkpt lat="44.6562796" lon="7.7770154"><ele>301.5</ele><time>2026-05-03T13:52:10.904Z</time></trkpt><trkpt lat="44.6565243" lon="7.7769408"><ele>303.0</ele><time>2026-05-03T13:52:11.894Z</time></trkpt><trkpt lat="44.6567715" lon="7.7768723"><ele>303.5</ele><time>2026-05-03T13:52:12.909Z</time></trkpt><trkpt lat="44.6570106" lon="7.7768028"><ele>304.0</ele><time>2026-05-03T13:52:13.9Z</time></trkpt><trkpt lat="44.6572525" lon="7.7767407"><ele>304.0</ele><time>2026-05-03T13:52:14.908Z</time></trkpt><trkpt lat="44.657499" lon="7.7766702"><ele>304.0</ele><time>2026-05-03T13:52:15.905Z</time></trkpt><trkpt lat="44.6577431" lon="7.7765954"><ele>303.5</ele><time>2026-05-03T13:52:16.898Z</time></trkpt><trkpt lat="44.657985" lon="7.776527"><ele>303.0</ele><time>2026-05-03T13:52:17.905Z</time></trkpt><trkpt lat="44.6582298" lon="7.7764586"><ele>303.0</ele><time>2026-05-03T13:52:18.916Z</time></trkpt><trkpt lat="44.6584815" lon="7.7763821"><ele>303.0</ele><time>2026-05-03T13:52:19.908Z</time></trkpt><trkpt lat="44.6587348" lon="7.776312"><ele>303.0</ele><time>2026-05-03T13:52:20.9Z</time></trkpt><trkpt lat="44.6589982" lon="7.7762376"><ele>303.0</ele><time>2026-05-03T13:52:21.906Z</time></trkpt><trkpt lat="44.6592598" lon="7.7761592"><ele>303.0</ele><time>2026-05-03T13:52:22.899Z</time></trkpt><trkpt lat="44.6595209" lon="7.7760801"><ele>303.0</ele><time>2026-05-03T13:52:23.902Z</time></trkpt><trkpt lat="44.6597815" lon="7.7760046"><ele>301.5</ele><time>2026-05-03T13:52:24.906Z</time></trkpt><trkpt lat="44.6600408" lon="7.7759285"><ele>300.0</ele><time>2026-05-03T13:52:25.895Z</time></trkpt><trkpt lat="44.660304" lon="7.7758509"><ele>299.5</ele><time>2026-05-03T13:52:26.902Z</time></trkpt><trkpt lat="44.6605726" lon="7.7757699"><ele>299.0</ele><time>2026-05-03T13:52:27.888Z</time></trkpt><trkpt lat="44.6608458" lon="7.7756897"><ele>300.0</ele><time>2026-05-03T13:52:28.9Z</time></trkpt><trkpt lat="44.6611235" lon="7.7756078"><ele>301.0</ele><time>2026-05-03T13:52:29.899Z</time></trkpt><trkpt lat="44.6613967" lon="7.7755284"><ele>301.0</ele><time>2026-05-03T13:52:30.897Z</time></trkpt><trkpt lat="44.6616664" lon="7.7754491"><ele>301.0</ele><time>2026-05-03T13:52:31.903Z</time></trkpt><trkpt lat="44.6619353" lon="7.775375"><ele>300.0</ele><time>2026-05-03T13:52:32.898Z</time></trkpt><trkpt lat="44.6622127" lon="7.7752944"><ele>299.0</ele><time>2026-05-03T13:52:33.908Z</time></trkpt><trkpt lat="44.6624918" lon="7.7752118"><ele>299.0</ele><time>2026-05-03T13:52:34.899Z</time></trkpt><trkpt lat="44.662774" lon="7.7751307"><ele>299.0</ele><time>2026-05-03T13:52:35.904Z</time></trkpt><trkpt lat="44.6630574" lon="7.7750504"><ele>298.5</ele><time>2026-05-03T13:52:36.899Z</time></trkpt><trkpt lat="44.6633396" lon="7.7749679"><ele>298.0</ele><time>2026-05-03T13:52:37.897Z</time></trkpt><trkpt lat="44.6636228" lon="7.7748861"><ele>300.0</ele><time>2026-05-03T13:52:38.898Z</time></trkpt><trkpt lat="44.6639063" lon="7.7748049"><ele>302.0</ele><time>2026-05-03T13:52:39.907Z</time></trkpt><trkpt lat="44.6641834" lon="7.7747281"><ele>303.0</ele><time>2026-05-03T13:52:40.903Z</time></trkpt><trkpt lat="44.664466" lon="7.7746526"><ele>304.0</ele><time>2026-05-03T13:52:41.903Z</time></trkpt><trkpt lat="44.6647527" lon="7.7745732"><ele>304.0</ele><time>2026-05-03T13:52:42.905Z</time></trkpt><trkpt lat="44.665036" lon="7.7744929"><ele>304.0</ele><time>2026-05-03T13:52:43.894Z</time></trkpt><trkpt lat="44.6653264" lon="7.7744138"><ele>301.5</ele><time>2026-05-03T13:52:44.902Z</time></trkpt><trkpt lat="44.6656159" lon="7.7743338"><ele>299.0</ele><time>2026-05-03T13:52:45.914Z</time></trkpt><trkpt lat="44.6659103" lon="7.7742479"><ele>298.0</ele><time>2026-05-03T13:52:46.905Z</time></trkpt><trkpt lat="44.6662088" lon="7.7741595"><ele>297.0</ele><time>2026-05-03T13:52:47.901Z</time></trkpt><trkpt lat="44.6665065" lon="7.774072"><ele>297.0</ele><time>2026-05-03T13:52:48.901Z</time></trkpt><trkpt lat="44.6668126" lon="7.7739827"><ele>297.0</ele><time>2026-05-03T13:52:49.914Z</time></trkpt><trkpt lat="44.6671223" lon="7.7738939"><ele>296.0</ele><time>2026-05-03T13:52:50.895Z</time></trkpt><trkpt lat="44.6674323" lon="7.7738011"><ele>295.0</ele><time>2026-05-03T13:52:51.903Z</time></trkpt><trkpt lat="44.6677384" lon="7.7737115"><ele>295.0</ele><time>2026-05-03T13:52:52.903Z</time></trkpt><trkpt lat="44.6680464" lon="7.7736293"><ele>295.0</ele><time>2026-05-03T13:52:53.895Z</time></trkpt><trkpt lat="44.6683465" lon="7.7735468"><ele>295.0</ele><time>2026-05-03T13:52:54.895Z</time></trkpt><trkpt lat="44.6686461" lon="7.7734598"><ele>295.0</ele><time>2026-05-03T13:52:55.9Z</time></trkpt><trkpt lat="44.6689463" lon="7.7733738"><ele>295.0</ele><time>2026-05-03T13:52:56.895Z</time></trkpt><trkpt lat="44.6692448" lon="7.7732902"><ele>295.0</ele><time>2026-05-03T13:52:57.896Z</time></trkpt><trkpt lat="44.6695449" lon="7.7732051"><ele>294.0</ele><time>2026-05-03T13:52:58.899Z</time></trkpt><trkpt lat="44.6698431" lon="7.7731224"><ele>293.0</ele><time>2026-05-03T13:52:59.904Z</time></trkpt><trkpt lat="44.6701407" lon="7.7730393"><ele>294.0</ele><time>2026-05-03T13:53:00.899Z</time></trkpt><trkpt lat="44.6704374" lon="7.7729502"><ele>295.0</ele><time>2026-05-03T13:53:01.894Z</time></trkpt><trkpt lat="44.6707371" lon="7.7728629"><ele>295.0</ele><time>2026-05-03T13:53:02.909Z</time></trkpt><trkpt lat="44.6710397" lon="7.7727741"><ele>295.0</ele><time>2026-05-03T13:53:03.91Z</time></trkpt><trkpt lat="44.6713458" lon="7.7726833"><ele>294.5</ele><time>2026-05-03T13:53:04.896Z</time></trkpt><trkpt lat="44.6716554" lon="7.7725946"><ele>294.0</ele><time>2026-05-03T13:53:05.905Z</time></trkpt><trkpt lat="44.6719557" lon="7.772506"><ele>294.0</ele><time>2026-05-03T13:53:06.894Z</time></trkpt><trkpt lat="44.6722493" lon="7.7724201"><ele>294.0</ele><time>2026-05-03T13:53:07.899Z</time></trkpt><trkpt lat="44.6725381" lon="7.7723373"><ele>293.5</ele><time>2026-05-03T13:53:08.897Z</time></trkpt><trkpt lat="44.6728214" lon="7.7722551"><ele>293.0</ele><time>2026-05-03T13:53:09.896Z</time></trkpt><trkpt lat="44.6731036" lon="7.7721741"><ele>293.0</ele><time>2026-05-03T13:53:10.903Z</time></trkpt><trkpt lat="44.6733795" lon="7.7720976"><ele>293.0</ele><time>2026-05-03T13:53:11.892Z</time></trkpt><trkpt lat="44.6736508" lon="7.7720186"><ele>293.5</ele><time>2026-05-03T13:53:12.897Z</time></trkpt><trkpt lat="44.6739241" lon="7.7719392"><ele>294.0</ele><time>2026-05-03T13:53:13.896Z</time></trkpt><trkpt lat="44.6741976" lon="7.7718585"><ele>293.5</ele><time>2026-05-03T13:53:14.891Z</time></trkpt><trkpt lat="44.6744751" lon="7.7717755"><ele>293.0</ele><time>2026-05-03T13:53:15.897Z</time></trkpt><trkpt lat="44.674757" lon="7.7716906"><ele>293.0</ele><time>2026-05-03T13:53:16.896Z</time></trkpt><trkpt lat="44.675035" lon="7.7716122"><ele>293.0</ele><time>2026-05-03T13:53:17.895Z</time></trkpt><trkpt lat="44.6753193" lon="7.771533"><ele>293.5</ele><time>2026-05-03T13:53:18.903Z</time></trkpt><trkpt lat="44.6756067" lon="7.7714494"><ele>294.0</ele><time>2026-05-03T13:53:19.895Z</time></trkpt><trkpt lat="44.6758985" lon="7.7713634"><ele>293.0</ele><time>2026-05-03T13:53:20.901Z</time></trkpt><trkpt lat="44.6761915" lon="7.7712832"><ele>292.0</ele><time>2026-05-03T13:53:21.892Z</time></trkpt><trkpt lat="44.6764767" lon="7.7712029"><ele>292.0</ele><time>2026-05-03T13:53:22.893Z</time></trkpt><trkpt lat="44.6767701" lon="7.7711216"><ele>292.0</ele><time>2026-05-03T13:53:23.899Z</time></trkpt><trkpt lat="44.6770607" lon="7.77104"><ele>291.5</ele><time>2026-05-03T13:53:24.911Z</time></trkpt><trkpt lat="44.6773426" lon="7.7709571"><ele>291.0</ele><time>2026-05-03T13:53:25.896Z</time></trkpt><trkpt lat="44.6776229" lon="7.7708773"><ele>292.5</ele><time>2026-05-03T13:53:26.898Z</time></trkpt><trkpt lat="44.6779064" lon="7.7707955"><ele>294.0</ele><time>2026-05-03T13:53:27.89Z</time></trkpt><trkpt lat="44.6781912" lon="7.7707164"><ele>294.0</ele><time>2026-05-03T13:53:28.889Z</time></trkpt><trkpt lat="44.6784804" lon="7.7706327"><ele>294.0</ele><time>2026-05-03T13:53:29.891Z</time></trkpt><trkpt lat="44.6787714" lon="7.7705435"><ele>292.5</ele><time>2026-05-03T13:53:30.898Z</time></trkpt><trkpt lat="44.6790682" lon="7.7704527"><ele>291.0</ele><time>2026-05-03T13:53:31.896Z</time></trkpt><trkpt lat="44.679371" lon="7.7703626"><ele>290.5</ele><time>2026-05-03T13:53:32.896Z</time></trkpt><trkpt lat="44.6796792" lon="7.7702779"><ele>290.0</ele><time>2026-05-03T13:53:33.895Z</time></trkpt><trkpt lat="44.6799888" lon="7.7701894"><ele>289.5</ele><time>2026-05-03T13:53:34.894Z</time></trkpt><trkpt lat="44.6803024" lon="7.7701027"><ele>289.0</ele><time>2026-05-03T13:53:35.896Z</time></trkpt><trkpt lat="44.6806116" lon="7.7700175"><ele>289.0</ele><time>2026-05-03T13:53:36.895Z</time></trkpt><trkpt lat="44.6809223" lon="7.7699299"><ele>289.0</ele><time>2026-05-03T13:53:37.91Z</time></trkpt><trkpt lat="44.6812386" lon="7.769843"><ele>288.5</ele><time>2026-05-03T13:53:38.899Z</time></trkpt><trkpt lat="44.6815541" lon="7.7697525"><ele>288.0</ele><time>2026-05-03T13:53:39.906Z</time></trkpt><trkpt lat="44.6818741" lon="7.7696616"><ele>287.5</ele><time>2026-05-03T13:53:40.893Z</time></trkpt><trkpt lat="44.6821862" lon="7.7695684"><ele>287.0</ele><time>2026-05-03T13:53:41.891Z</time></trkpt><trkpt lat="44.6824853" lon="7.7694775"><ele>287.0</ele><time>2026-05-03T13:53:42.902Z</time></trkpt><trkpt lat="44.68278" lon="7.7693898"><ele>287.0</ele><time>2026-05-03T13:53:43.903Z</time></trkpt><trkpt lat="44.6830703" lon="7.7693043"><ele>287.0</ele><time>2026-05-03T13:53:44.899Z</time></trkpt><trkpt lat="44.6833604" lon="7.7692182"><ele>287.0</ele><time>2026-05-03T13:53:45.894Z</time></trkpt><trkpt lat="44.6836505" lon="7.7691365"><ele>287.0</ele><time>2026-05-03T13:53:46.903Z</time></trkpt><trkpt lat="44.6839354" lon="7.7690546"><ele>287.0</ele><time>2026-05-03T13:53:47.903Z</time></trkpt><trkpt lat="44.684216" lon="7.7689785"><ele>286.5</ele><time>2026-05-03T13:53:48.899Z</time></trkpt><trkpt lat="44.6844859" lon="7.7689032"><ele>286.0</ele><time>2026-05-03T13:53:49.896Z</time></trkpt><trkpt lat="44.6847334" lon="7.7688367"><ele>286.0</ele><time>2026-05-03T13:53:50.898Z</time></trkpt><trkpt lat="44.6849568" lon="7.7687687"><ele>286.0</ele><time>2026-05-03T13:53:51.894Z</time></trkpt><trkpt lat="44.6851724" lon="7.7687067"><ele>286.0</ele><time>2026-05-03T13:53:52.915Z</time></trkpt><trkpt lat="44.6853757" lon="7.7686515"><ele>286.0</ele><time>2026-05-03T13:53:53.898Z</time></trkpt><trkpt lat="44.6855711" lon="7.7685959"><ele>286.0</ele><time>2026-05-03T13:53:54.901Z</time></trkpt><trkpt lat="44.6857742" lon="7.7685369"><ele>286.0</ele><time>2026-05-03T13:53:55.895Z</time></trkpt><trkpt lat="44.6859836" lon="7.7684766"><ele>286.66666666666663</ele><time>2026-05-03T13:53:56.897Z</time></trkpt><trkpt lat="44.6861877" lon="7.768418"><ele>287.3333333333333</ele><time>2026-05-03T13:53:57.891Z</time></trkpt><trkpt lat="44.6863923" lon="7.7683615"><ele>288.0</ele><time>2026-05-03T13:53:58.897Z</time></trkpt><trkpt lat="44.6866007" lon="7.7683038"><ele>288.0</ele><time>2026-05-03T13:53:59.897Z</time></trkpt><trkpt lat="44.6868071" lon="7.7682441"><ele>288.0</ele><time>2026-05-03T13:54:00.892Z</time></trkpt><trkpt lat="44.6870194" lon="7.7681823"><ele>288.0</ele><time>2026-05-03T13:54:01.906Z</time></trkpt><trkpt lat="44.6872456" lon="7.7681252"><ele>287.0</ele><time>2026-05-03T13:54:02.896Z</time></trkpt><trkpt lat="44.6874829" lon="7.7680608"><ele>286.0</ele><time>2026-05-03T13:54:03.891Z</time></trkpt><trkpt lat="44.6877293" lon="7.7679925"><ele>286.5</ele><time>2026-05-03T13:54:04.902Z</time></trkpt><trkpt lat="44.6879882" lon="7.7679232"><ele>287.0</ele><time>2026-05-03T13:54:05.89Z</time></trkpt><trkpt lat="44.6882465" lon="7.7678487"><ele>287.0</ele><time>2026-05-03T13:54:06.902Z</time></trkpt><trkpt lat="44.6885127" lon="7.7677736"><ele>287.0</ele><time>2026-05-03T13:54:07.897Z</time></trkpt><trkpt lat="44.6887833" lon="7.7676927"><ele>286.5</ele><time>2026-05-03T13:54:08.902Z</time></trkpt><trkpt lat="44.689058" lon="7.7676142"><ele>286.0</ele><time>2026-05-03T13:54:09.891Z</time></trkpt><trkpt lat="44.689331" lon="7.7675367"><ele>285.5</ele><time>2026-05-03T13:54:10.897Z</time></trkpt><trkpt lat="44.6895891" lon="7.7674622"><ele>285.0</ele><time>2026-05-03T13:54:11.913Z</time></trkpt><trkpt lat="44.6898429" lon="7.7673897"><ele>285.0</ele><time>2026-05-03T13:54:12.901Z</time></trkpt><trkpt lat="44.6900941" lon="7.7673155"><ele>285.0</ele><time>2026-05-03T13:54:13.898Z</time></trkpt><trkpt lat="44.6903494" lon="7.7672388"><ele>285.0</ele><time>2026-05-03T13:54:14.905Z</time></trkpt><trkpt lat="44.6906154" lon="7.767153"><ele>285.0</ele><time>2026-05-03T13:54:15.895Z</time></trkpt><trkpt lat="44.6908861" lon="7.7670629"><ele>284.5</ele><time>2026-05-03T13:54:16.895Z</time></trkpt><trkpt lat="44.6911598" lon="7.766978"><ele>284.0</ele><time>2026-05-03T13:54:17.899Z</time></trkpt><trkpt lat="44.6914359" lon="7.7669005"><ele>284.5</ele><time>2026-05-03T13:54:18.9Z</time></trkpt><trkpt lat="44.6917103" lon="7.7668269"><ele>285.0</ele><time>2026-05-03T13:54:19.894Z</time></trkpt><trkpt lat="44.6919858" lon="7.7667566"><ele>285.0</ele><time>2026-05-03T13:54:20.894Z</time></trkpt><trkpt lat="44.6922655" lon="7.76668"><ele>285.0</ele><time>2026-05-03T13:54:21.902Z</time></trkpt><trkpt lat="44.6925483" lon="7.7665989"><ele>285.0</ele><time>2026-05-03T13:54:22.902Z</time></trkpt><trkpt lat="44.6928281" lon="7.7665165"><ele>285.0</ele><time>2026-05-03T13:54:23.899Z</time></trkpt><trkpt lat="44.6931179" lon="7.766431"><ele>285.0</ele><time>2026-05-03T13:54:24.9Z</time></trkpt><trkpt lat="44.6934085" lon="7.7663484"><ele>285.0</ele><time>2026-05-03T13:54:25.895Z</time></trkpt><trkpt lat="44.6937002" lon="7.7662633"><ele>284.5</ele><time>2026-05-03T13:54:26.898Z</time></trkpt><trkpt lat="44.6939952" lon="7.7661785"><ele>284.0</ele><time>2026-05-03T13:54:27.896Z</time></trkpt><trkpt lat="44.6942832" lon="7.7660926"><ele>285.0</ele><time>2026-05-03T13:54:28.894Z</time></trkpt><trkpt lat="44.6945683" lon="7.7660109"><ele>286.0</ele><time>2026-05-03T13:54:29.894Z</time></trkpt><trkpt lat="44.6948473" lon="7.7659283"><ele>286.0</ele><time>2026-05-03T13:54:30.894Z</time></trkpt><trkpt lat="44.6951224" lon="7.7658535"><ele>286.0</ele><time>2026-05-03T13:54:31.893Z</time></trkpt><trkpt lat="44.6953958" lon="7.7657787"><ele>285.5</ele><time>2026-05-03T13:54:32.898Z</time></trkpt><trkpt lat="44.6956709" lon="7.7656933"><ele>285.0</ele><time>2026-05-03T13:54:33.897Z</time></trkpt><trkpt lat="44.6959457" lon="7.7656148"><ele>284.5</ele><time>2026-05-03T13:54:34.897Z</time></trkpt><trkpt lat="44.6962288" lon="7.7655332"><ele>284.0</ele><time>2026-05-03T13:54:35.901Z</time></trkpt><trkpt lat="44.6965167" lon="7.7654502"><ele>284.0</ele><time>2026-05-03T13:54:36.917Z</time></trkpt><trkpt lat="44.6967997" lon="7.7653652"><ele>284.0</ele><time>2026-05-03T13:54:37.892Z</time></trkpt><trkpt lat="44.6970735" lon="7.7652847"><ele>284.5</ele><time>2026-05-03T13:54:38.891Z</time></trkpt><trkpt lat="44.6973353" lon="7.7652088"><ele>285.0</ele><time>2026-05-03T13:54:39.896Z</time></trkpt><trkpt lat="44.6975917" lon="7.7651395"><ele>284.0</ele><time>2026-05-03T13:54:40.898Z</time></trkpt><trkpt lat="44.697844" lon="7.7650756"><ele>283.0</ele><time>2026-05-03T13:54:41.896Z</time></trkpt><trkpt lat="44.6980839" lon="7.7650057"><ele>283.0</ele><time>2026-05-03T13:54:42.896Z</time></trkpt><trkpt lat="44.698314" lon="7.7649372"><ele>283.0</ele><time>2026-05-03T13:54:43.899Z</time></trkpt><trkpt lat="44.6985371" lon="7.7648719"><ele>282.5</ele><time>2026-05-03T13:54:44.897Z</time></trkpt><trkpt lat="44.6987597" lon="7.7648089"><ele>282.0</ele><time>2026-05-03T13:54:45.897Z</time></trkpt><trkpt lat="44.6989896" lon="7.7647389"><ele>282.0</ele><time>2026-05-03T13:54:46.898Z</time></trkpt><trkpt lat="44.6992199" lon="7.7646693"><ele>282.0</ele><time>2026-05-03T13:54:47.893Z</time></trkpt><trkpt lat="44.6994425" lon="7.7646059"><ele>281.0</ele><time>2026-05-03T13:54:48.9Z</time></trkpt><trkpt lat="44.6996625" lon="7.7645431"><ele>280.0</ele><time>2026-05-03T13:54:49.899Z</time></trkpt><trkpt lat="44.6998875" lon="7.7644775"><ele>280.0</ele><time>2026-05-03T13:54:50.897Z</time></trkpt><trkpt lat="44.7001255" lon="7.7644103"><ele>280.0</ele><time>2026-05-03T13:54:51.916Z</time></trkpt><trkpt lat="44.7003643" lon="7.7643365"><ele>281.0</ele><time>2026-05-03T13:54:52.894Z</time></trkpt><trkpt lat="44.7006053" lon="7.7642657"><ele>282.0</ele><time>2026-05-03T13:54:53.9Z</time></trkpt><trkpt lat="44.7008526" lon="7.7641922"><ele>281.0</ele><time>2026-05-03T13:54:54.892Z</time></trkpt><trkpt lat="44.7011037" lon="7.7641203"><ele>280.0</ele><time>2026-05-03T13:54:55.908Z</time></trkpt><trkpt lat="44.701359" lon="7.7640504"><ele>280.0</ele><time>2026-05-03T13:54:56.892Z</time></trkpt><trkpt lat="44.7016114" lon="7.763982"><ele>280.0</ele><time>2026-05-03T13:54:57.905Z</time></trkpt><trkpt lat="44.7018628" lon="7.76391"><ele>279.5</ele><time>2026-05-03T13:54:58.907Z</time></trkpt><trkpt lat="44.7021197" lon="7.7638396"><ele>279.0</ele><time>2026-05-03T13:54:59.894Z</time></trkpt><trkpt lat="44.7023884" lon="7.7637659"><ele>279.0</ele><time>2026-05-03T13:55:00.904Z</time></trkpt><trkpt lat="44.7026618" lon="7.7636882"><ele>279.0</ele><time>2026-05-03T13:55:01.893Z</time></trkpt><trkpt lat="44.7029362" lon="7.7636079"><ele>279.0</ele><time>2026-05-03T13:55:02.897Z</time></trkpt><trkpt lat="44.7032108" lon="7.7635275"><ele>279.0</ele><time>2026-05-03T13:55:03.892Z</time></trkpt><trkpt lat="44.7034864" lon="7.7634519"><ele>279.5</ele><time>2026-05-03T13:55:04.897Z</time></trkpt><trkpt lat="44.7037652" lon="7.763377"><ele>280.0</ele><time>2026-05-03T13:55:05.893Z</time></trkpt><trkpt lat="44.704041" lon="7.7632947"><ele>280.0</ele><time>2026-05-03T13:55:06.896Z</time></trkpt><trkpt lat="44.7043156" lon="7.7632142"><ele>280.0</ele><time>2026-05-03T13:55:07.896Z</time></trkpt><trkpt lat="44.7045956" lon="7.7631391"><ele>280.0</ele><time>2026-05-03T13:55:08.897Z</time></trkpt><trkpt lat="44.7048756" lon="7.763058"><ele>280.0</ele><time>2026-05-03T13:55:09.901Z</time></trkpt><trkpt lat="44.7051527" lon="7.7629753"><ele>278.0</ele><time>2026-05-03T13:55:10.897Z</time></trkpt><trkpt lat="44.7054222" lon="7.7628961"><ele>276.0</ele><time>2026-05-03T13:55:11.902Z</time></trkpt><trkpt lat="44.7056779" lon="7.7628213"><ele>276.0</ele><time>2026-05-03T13:55:12.907Z</time></trkpt><trkpt lat="44.7059193" lon="7.7627403"><ele>276.0</ele><time>2026-05-03T13:55:13.896Z</time></trkpt><trkpt lat="44.7061646" lon="7.7626598"><ele>276.0</ele><time>2026-05-03T13:55:14.906Z</time></trkpt><trkpt lat="44.7064109" lon="7.7625783"><ele>276.0</ele><time>2026-05-03T13:55:15.89Z</time></trkpt><trkpt lat="44.7066589" lon="7.7625024"><ele>276.5</ele><time>2026-05-03T13:55:16.898Z</time></trkpt><trkpt lat="44.706914" lon="7.7624319"><ele>277.0</ele><time>2026-05-03T13:55:17.889Z</time></trkpt><trkpt lat="44.707162" lon="7.7623671"><ele>277.0</ele><time>2026-05-03T13:55:18.899Z</time></trkpt><trkpt lat="44.7074031" lon="7.7623005"><ele>277.0</ele><time>2026-05-03T13:55:19.896Z</time></trkpt><trkpt lat="44.7076412" lon="7.762234"><ele>276.5</ele><time>2026-05-03T13:55:20.895Z</time></trkpt><trkpt lat="44.7078805" lon="7.7621662"><ele>276.0</ele><time>2026-05-03T13:55:21.895Z</time></trkpt><trkpt lat="44.7081234" lon="7.762095"><ele>276.0</ele><time>2026-05-03T13:55:22.9Z</time></trkpt><trkpt lat="44.7083622" lon="7.762027"><ele>276.0</ele><time>2026-05-03T13:55:23.902Z</time></trkpt><trkpt lat="44.7085967" lon="7.7619547"><ele>276.0</ele><time>2026-05-03T13:55:24.902Z</time></trkpt><trkpt lat="44.7088232" lon="7.7618919"><ele>276.0</ele><time>2026-05-03T13:55:25.9Z</time></trkpt><trkpt lat="44.7090469" lon="7.7618284"><ele>276.5</ele><time>2026-05-03T13:55:26.906Z</time></trkpt><trkpt lat="44.7092789" lon="7.7617658"><ele>277.0</ele><time>2026-05-03T13:55:27.893Z</time></trkpt><trkpt lat="44.7095149" lon="7.7616999"><ele>277.5</ele><time>2026-05-03T13:55:28.902Z</time></trkpt><trkpt lat="44.7097542" lon="7.7616301"><ele>278.0</ele><time>2026-05-03T13:55:29.894Z</time></trkpt><trkpt lat="44.7099963" lon="7.7615617"><ele>278.0</ele><time>2026-05-03T13:55:30.905Z</time></trkpt><trkpt lat="44.7102397" lon="7.7614954"><ele>278.0</ele><time>2026-05-03T13:55:31.889Z</time></trkpt><trkpt lat="44.7104855" lon="7.7614294"><ele>277.0</ele><time>2026-05-03T13:55:32.896Z</time></trkpt><trkpt lat="44.7107301" lon="7.7613604"><ele>276.0</ele><time>2026-05-03T13:55:33.896Z</time></trkpt><trkpt lat="44.7109766" lon="7.7612891"><ele>276.0</ele><time>2026-05-03T13:55:34.896Z</time></trkpt><trkpt lat="44.7112277" lon="7.761216"><ele>276.0</ele><time>2026-05-03T13:55:35.894Z</time></trkpt><trkpt lat="44.7114846" lon="7.7611414"><ele>276.0</ele><time>2026-05-03T13:55:36.898Z</time></trkpt><trkpt lat="44.7117471" lon="7.7610681"><ele>276.0</ele><time>2026-05-03T13:55:37.904Z</time></trkpt><trkpt lat="44.7120117" lon="7.7609945"><ele>276.0</ele><time>2026-05-03T13:55:38.898Z</time></trkpt><trkpt lat="44.7122776" lon="7.7609212"><ele>276.0</ele><time>2026-05-03T13:55:39.891Z</time></trkpt><trkpt lat="44.7125372" lon="7.7608462"><ele>275.0</ele><time>2026-05-03T13:55:40.902Z</time></trkpt><trkpt lat="44.7127886" lon="7.7607731"><ele>274.0</ele><time>2026-05-03T13:55:41.888Z</time></trkpt><trkpt lat="44.7130436" lon="7.760699"><ele>274.0</ele><time>2026-05-03T13:55:42.896Z</time></trkpt><trkpt lat="44.7133006" lon="7.7606217"><ele>274.0</ele><time>2026-05-03T13:55:43.899Z</time></trkpt><trkpt lat="44.7135529" lon="7.7605454"><ele>273.5</ele><time>2026-05-03T13:55:44.896Z</time></trkpt><trkpt lat="44.7137964" lon="7.7604729"><ele>273.0</ele><time>2026-05-03T13:55:45.903Z</time></trkpt><trkpt lat="44.7140326" lon="7.7604055"><ele>273.0</ele><time>2026-05-03T13:55:46.895Z</time></trkpt><trkpt lat="44.7142665" lon="7.7603415"><ele>273.0</ele><time>2026-05-03T13:55:47.897Z</time></trkpt><trkpt lat="44.714506" lon="7.7602749"><ele>273.5</ele><time>2026-05-03T13:55:48.9Z</time></trkpt><trkpt lat="44.7147554" lon="7.7602056"><ele>274.0</ele><time>2026-05-03T13:55:49.895Z</time></trkpt><trkpt lat="44.7150116" lon="7.7601292"><ele>274.0</ele><time>2026-05-03T13:55:50.889Z</time></trkpt><trkpt lat="44.7152723" lon="7.7600557"><ele>274.0</ele><time>2026-05-03T13:55:51.895Z</time></trkpt><trkpt lat="44.7155272" lon="7.7599804"><ele>274.0</ele><time>2026-05-03T13:55:52.905Z</time></trkpt><trkpt lat="44.7157744" lon="7.7599089"><ele>274.0</ele><time>2026-05-03T13:55:53.895Z</time></trkpt><trkpt lat="44.7160204" lon="7.7598397"><ele>274.0</ele><time>2026-05-03T13:55:54.901Z</time></trkpt><trkpt lat="44.7162767" lon="7.7597625"><ele>274.0</ele><time>2026-05-03T13:55:55.897Z</time></trkpt><trkpt lat="44.7165373" lon="7.7596903"><ele>274.0</ele><time>2026-05-03T13:55:56.9Z</time></trkpt><trkpt lat="44.7168032" lon="7.7596103"><ele>274.0</ele><time>2026-05-03T13:55:57.899Z</time></trkpt><trkpt lat="44.7170674" lon="7.7595324"><ele>273.0</ele><time>2026-05-03T13:55:58.899Z</time></trkpt><trkpt lat="44.7173287" lon="7.7594581"><ele>272.0</ele><time>2026-05-03T13:55:59.896Z</time></trkpt><trkpt lat="44.7175902" lon="7.7593862"><ele>273.0</ele><time>2026-05-03T13:56:00.9Z</time></trkpt><trkpt lat="44.7178528" lon="7.7593127"><ele>274.0</ele><time>2026-05-03T13:56:01.895Z</time></trkpt><trkpt lat="44.7181092" lon="7.7592335"><ele>274.0</ele><time>2026-05-03T13:56:02.896Z</time></trkpt><trkpt lat="44.7183699" lon="7.7591608"><ele>274.0</ele><time>2026-05-03T13:56:03.906Z</time></trkpt><trkpt lat="44.7186266" lon="7.7590869"><ele>273.5</ele><time>2026-05-03T13:56:04.897Z</time></trkpt><trkpt lat="44.7188877" lon="7.7590082"><ele>273.0</ele><time>2026-05-03T13:56:05.893Z</time></trkpt><trkpt lat="44.7191545" lon="7.758937"><ele>273.0</ele><time>2026-05-03T13:56:06.901Z</time></trkpt><trkpt lat="44.7194174" lon="7.7588596"><ele>273.0</ele><time>2026-05-03T13:56:07.9Z</time></trkpt><trkpt lat="44.7196822" lon="7.7587829"><ele>273.0</ele><time>2026-05-03T13:56:08.9Z</time></trkpt><trkpt lat="44.7199499" lon="7.7586997"><ele>273.0</ele><time>2026-05-03T13:56:09.897Z</time></trkpt><trkpt lat="44.7202152" lon="7.758626"><ele>272.5</ele><time>2026-05-03T13:56:10.903Z</time></trkpt><trkpt lat="44.7204884" lon="7.7585506"><ele>272.0</ele><time>2026-05-03T13:56:11.899Z</time></trkpt><trkpt lat="44.7207643" lon="7.7584735"><ele>272.0</ele><time>2026-05-03T13:56:12.906Z</time></trkpt><trkpt lat="44.7210384" lon="7.7583904"><ele>272.0</ele><time>2026-05-03T13:56:13.915Z</time></trkpt><trkpt lat="44.7213206" lon="7.7583152"><ele>272.0</ele><time>2026-05-03T13:56:14.896Z</time></trkpt><trkpt lat="44.7216058" lon="7.7582353"><ele>272.0</ele><time>2026-05-03T13:56:15.899Z</time></trkpt><trkpt lat="44.7218892" lon="7.7581526"><ele>273.0</ele><time>2026-05-03T13:56:16.9Z</time></trkpt><trkpt lat="44.7221753" lon="7.7580695"><ele>274.0</ele><time>2026-05-03T13:56:17.905Z</time></trkpt><trkpt lat="44.7224602" lon="7.7579857"><ele>273.5</ele><time>2026-05-03T13:56:18.894Z</time></trkpt><trkpt lat="44.7227486" lon="7.7578973"><ele>273.0</ele><time>2026-05-03T13:56:19.901Z</time></trkpt><trkpt lat="44.7230398" lon="7.7578137"><ele>273.0</ele><time>2026-05-03T13:56:20.892Z</time></trkpt><trkpt lat="44.7233363" lon="7.757732"><ele>273.0</ele><time>2026-05-03T13:56:21.892Z</time></trkpt><trkpt lat="44.7236331" lon="7.757652"><ele>272.0</ele><time>2026-05-03T13:56:22.897Z</time></trkpt><trkpt lat="44.7239343" lon="7.7575702"><ele>271.0</ele><time>2026-05-03T13:56:23.9Z</time></trkpt><trkpt lat="44.7242348" lon="7.7574836"><ele>270.0</ele><time>2026-05-03T13:56:24.89Z</time></trkpt><trkpt lat="44.7245391" lon="7.7573965"><ele>269.0</ele><time>2026-05-03T13:56:25.917Z</time></trkpt><trkpt lat="44.724847" lon="7.7573091"><ele>269.0</ele><time>2026-05-03T13:56:26.895Z</time></trkpt><trkpt lat="44.7251517" lon="7.7572193"><ele>269.0</ele><time>2026-05-03T13:56:27.892Z</time></trkpt><trkpt lat="44.7254564" lon="7.7571345"><ele>269.0</ele><time>2026-05-03T13:56:28.903Z</time></trkpt><trkpt lat="44.7257614" lon="7.7570477"><ele>269.0</ele><time>2026-05-03T13:56:29.895Z</time></trkpt><trkpt lat="44.7260702" lon="7.7569584"><ele>269.0</ele><time>2026-05-03T13:56:30.902Z</time></trkpt><trkpt lat="44.7263705" lon="7.7568661"><ele>269.0</ele><time>2026-05-03T13:56:31.915Z</time></trkpt><trkpt lat="44.7266729" lon="7.7567745"><ele>268.5</ele><time>2026-05-03T13:56:32.898Z</time></trkpt><trkpt lat="44.7269788" lon="7.7566872"><ele>268.0</ele><time>2026-05-03T13:56:33.892Z</time></trkpt><trkpt lat="44.7272815" lon="7.7565988"><ele>268.0</ele><time>2026-05-03T13:56:34.898Z</time></trkpt><trkpt lat="44.7275821" lon="7.7565155"><ele>268.0</ele><time>2026-05-03T13:56:35.9Z</time></trkpt><trkpt lat="44.7278745" lon="7.7564285"><ele>268.5</ele><time>2026-05-03T13:56:36.896Z</time></trkpt><trkpt lat="44.7281698" lon="7.7563458"><ele>269.0</ele><time>2026-05-03T13:56:37.905Z</time></trkpt><trkpt lat="44.7284642" lon="7.7562605"><ele>268.5</ele><time>2026-05-03T13:56:38.889Z</time></trkpt><trkpt lat="44.7287539" lon="7.7561783"><ele>268.0</ele><time>2026-05-03T13:56:39.906Z</time></trkpt><trkpt lat="44.7290348" lon="7.7560954"><ele>268.5</ele><time>2026-05-03T13:56:40.891Z</time></trkpt><trkpt lat="44.7293009" lon="7.7560177"><ele>269.0</ele><time>2026-05-03T13:56:41.904Z</time></trkpt><trkpt lat="44.7295612" lon="7.7559398"><ele>269.0</ele><time>2026-05-03T13:56:42.901Z</time></trkpt><trkpt lat="44.7298242" lon="7.7558637"><ele>269.0</ele><time>2026-05-03T13:56:43.895Z</time></trkpt><trkpt lat="44.7300926" lon="7.7557856"><ele>268.5</ele><time>2026-05-03T13:56:44.904Z</time></trkpt><trkpt lat="44.730366" lon="7.7557035"><ele>268.0</ele><time>2026-05-03T13:56:45.892Z</time></trkpt><trkpt lat="44.730647" lon="7.7556245"><ele>268.0</ele><time>2026-05-03T13:56:46.904Z</time></trkpt><trkpt lat="44.7309273" lon="7.7555439"><ele>268.0</ele><time>2026-05-03T13:56:47.902Z</time></trkpt><trkpt lat="44.7312107" lon="7.7554639"><ele>268.5</ele><time>2026-05-03T13:56:48.89Z</time></trkpt><trkpt lat="44.7314873" lon="7.7553841"><ele>269.0</ele><time>2026-05-03T13:56:49.894Z</time></trkpt><trkpt lat="44.731761" lon="7.7553075"><ele>269.0</ele><time>2026-05-03T13:56:50.903Z</time></trkpt><trkpt lat="44.7320309" lon="7.7552342"><ele>269.0</ele><time>2026-05-03T13:56:51.904Z</time></trkpt><trkpt lat="44.7323041" lon="7.7551573"><ele>269.0</ele><time>2026-05-03T13:56:52.898Z</time></trkpt><trkpt lat="44.7325694" lon="7.7550794"><ele>269.0</ele><time>2026-05-03T13:56:53.903Z</time></trkpt><trkpt lat="44.7328175" lon="7.7550029"><ele>269.0</ele><time>2026-05-03T13:56:54.905Z</time></trkpt><trkpt lat="44.7330519" lon="7.7549363"><ele>269.0</ele><time>2026-05-03T13:56:55.895Z</time></trkpt><trkpt lat="44.7332795" lon="7.7548728"><ele>269.0</ele><time>2026-05-03T13:56:56.896Z</time></trkpt><trkpt lat="44.7335016" lon="7.7548082"><ele>269.0</ele><time>2026-05-03T13:56:57.894Z</time></trkpt><trkpt lat="44.7337305" lon="7.7547486"><ele>268.5</ele><time>2026-05-03T13:56:58.899Z</time></trkpt><trkpt lat="44.7339666" lon="7.7546803"><ele>268.0</ele><time>2026-05-03T13:56:59.887Z</time></trkpt><trkpt lat="44.7342049" lon="7.754614"><ele>268.0</ele><time>2026-05-03T13:57:00.898Z</time></trkpt><trkpt lat="44.7344465" lon="7.7545443"><ele>268.0</ele><time>2026-05-03T13:57:01.9Z</time></trkpt><trkpt lat="44.73469" lon="7.7544747"><ele>268.0</ele><time>2026-05-03T13:57:02.895Z</time></trkpt><trkpt lat="44.7349388" lon="7.754408"><ele>268.0</ele><time>2026-05-03T13:57:03.905Z</time></trkpt><trkpt lat="44.7351844" lon="7.754335"><ele>267.5</ele><time>2026-05-03T13:57:04.903Z</time></trkpt><trkpt lat="44.7354344" lon="7.7542635"><ele>267.0</ele><time>2026-05-03T13:57:05.897Z</time></trkpt><trkpt lat="44.735677" lon="7.754193"><ele>267.0</ele><time>2026-05-03T13:57:06.894Z</time></trkpt><trkpt lat="44.7359235" lon="7.7541226"><ele>267.0</ele><time>2026-05-03T13:57:07.893Z</time></trkpt><trkpt lat="44.7361721" lon="7.7540522"><ele>267.0</ele><time>2026-05-03T13:57:08.897Z</time></trkpt><trkpt lat="44.7364142" lon="7.7539818"><ele>267.0</ele><time>2026-05-03T13:57:09.885Z</time></trkpt><trkpt lat="44.7366411" lon="7.7539135"><ele>267.0</ele><time>2026-05-03T13:57:10.894Z</time></trkpt><trkpt lat="44.736868" lon="7.7538444"><ele>267.0</ele><time>2026-05-03T13:57:11.892Z</time></trkpt><trkpt lat="44.7370962" lon="7.7537789"><ele>267.5</ele><time>2026-05-03T13:57:12.901Z</time></trkpt><trkpt lat="44.7373285" lon="7.7537146"><ele>268.0</ele><time>2026-05-03T13:57:13.894Z</time></trkpt><trkpt lat="44.7375653" lon="7.7536457"><ele>267.0</ele><time>2026-05-03T13:57:14.897Z</time></trkpt><trkpt lat="44.7377986" lon="7.7535785"><ele>266.0</ele><time>2026-05-03T13:57:15.899Z</time></trkpt><trkpt lat="44.7380358" lon="7.7535118"><ele>266.0</ele><time>2026-05-03T13:57:16.894Z</time></trkpt><trkpt lat="44.7382657" lon="7.7534493"><ele>266.0</ele><time>2026-05-03T13:57:17.899Z</time></trkpt><trkpt lat="44.7384993" lon="7.7533819"><ele>266.0</ele><time>2026-05-03T13:57:18.898Z</time></trkpt><trkpt lat="44.7387334" lon="7.7533147"><ele>266.0</ele><time>2026-05-03T13:57:19.899Z</time></trkpt><trkpt lat="44.7389705" lon="7.7532482"><ele>266.0</ele><time>2026-05-03T13:57:20.889Z</time></trkpt><trkpt lat="44.7392049" lon="7.7531809"><ele>266.0</ele><time>2026-05-03T13:57:21.895Z</time></trkpt><trkpt lat="44.7394451" lon="7.7531132"><ele>266.0</ele><time>2026-05-03T13:57:22.901Z</time></trkpt><trkpt lat="44.739692" lon="7.7530417"><ele>266.0</ele><time>2026-05-03T13:57:23.894Z</time></trkpt><trkpt lat="44.7399393" lon="7.7529677"><ele>266.0</ele><time>2026-05-03T13:57:24.901Z</time></trkpt><trkpt lat="44.7401905" lon="7.7528931"><ele>266.0</ele><time>2026-05-03T13:57:25.893Z</time></trkpt><trkpt lat="44.7404455" lon="7.7528214"><ele>266.0</ele><time>2026-05-03T13:57:26.906Z</time></trkpt><trkpt lat="44.7407024" lon="7.75275"><ele>266.0</ele><time>2026-05-03T13:57:27.899Z</time></trkpt><trkpt lat="44.7409611" lon="7.7526728"><ele>265.0</ele><time>2026-05-03T13:57:28.898Z</time></trkpt><trkpt lat="44.74122" lon="7.7525975"><ele>264.0</ele><time>2026-05-03T13:57:29.896Z</time></trkpt><trkpt lat="44.7414801" lon="7.7525266"><ele>264.0</ele><time>2026-05-03T13:57:30.897Z</time></trkpt><trkpt lat="44.7417441" lon="7.7524533"><ele>264.0</ele><time>2026-05-03T13:57:31.9Z</time></trkpt><trkpt lat="44.7420072" lon="7.7523792"><ele>265.0</ele><time>2026-05-03T13:57:32.896Z</time></trkpt><trkpt lat="44.7422732" lon="7.7523066"><ele>266.0</ele><time>2026-05-03T13:57:33.894Z</time></trkpt><trkpt lat="44.7425435" lon="7.7522305"><ele>265.0</ele><time>2026-05-03T13:57:34.9Z</time></trkpt><trkpt lat="44.7428157" lon="7.7521537"><ele>264.0</ele><time>2026-05-03T13:57:35.891Z</time></trkpt><trkpt lat="44.7430807" lon="7.7520717"><ele>264.0</ele><time>2026-05-03T13:57:36.899Z</time></trkpt><trkpt lat="44.7433436" lon="7.7519969"><ele>264.0</ele><time>2026-05-03T13:57:37.895Z</time></trkpt><trkpt lat="44.743599" lon="7.7519215"><ele>263.5</ele><time>2026-05-03T13:57:38.901Z</time></trkpt><trkpt lat="44.7438495" lon="7.7518477"><ele>263.0</ele><time>2026-05-03T13:57:39.897Z</time></trkpt><trkpt lat="44.7440903" lon="7.7517803"><ele>263.0</ele><time>2026-05-03T13:57:40.896Z</time></trkpt><trkpt lat="44.7443213" lon="7.7517164"><ele>263.0</ele><time>2026-05-03T13:57:41.894Z</time></trkpt><trkpt lat="44.7445488" lon="7.7516461"><ele>262.5</ele><time>2026-05-03T13:57:42.892Z</time></trkpt><trkpt lat="44.7447812" lon="7.7515786"><ele>262.0</ele><time>2026-05-03T13:57:43.904Z</time></trkpt><trkpt lat="44.7450186" lon="7.7515078"><ele>263.0</ele><time>2026-05-03T13:57:44.889Z</time></trkpt><trkpt lat="44.7452606" lon="7.7514381"><ele>264.0</ele><time>2026-05-03T13:57:45.894Z</time></trkpt><trkpt lat="44.7455027" lon="7.7513721"><ele>264.0</ele><time>2026-05-03T13:57:46.9Z</time></trkpt><trkpt lat="44.7457446" lon="7.7513074"><ele>264.0</ele><time>2026-05-03T13:57:47.897Z</time></trkpt><trkpt lat="44.7459873" lon="7.751248"><ele>263.5</ele><time>2026-05-03T13:57:48.897Z</time></trkpt><trkpt lat="44.7462303" lon="7.7511864"><ele>263.0</ele><time>2026-05-03T13:57:49.91Z</time></trkpt><trkpt lat="44.7464763" lon="7.7511287"><ele>263.0</ele><time>2026-05-03T13:57:50.894Z</time></trkpt><trkpt lat="44.746727" lon="7.7510664"><ele>263.0</ele><time>2026-05-03T13:57:51.891Z</time></trkpt><trkpt lat="44.7469801" lon="7.751004"><ele>264.0</ele><time>2026-05-03T13:57:52.898Z</time></trkpt><trkpt lat="44.7472355" lon="7.750946"><ele>265.0</ele><time>2026-05-03T13:57:53.894Z</time></trkpt><trkpt lat="44.7474927" lon="7.7508907"><ele>263.5</ele><time>2026-05-03T13:57:54.895Z</time></trkpt><trkpt lat="44.7477517" lon="7.7508361"><ele>262.0</ele><time>2026-05-03T13:57:55.898Z</time></trkpt><trkpt lat="44.748012" lon="7.7507832"><ele>262.0</ele><time>2026-05-03T13:57:56.897Z</time></trkpt><trkpt lat="44.7482679" lon="7.750734"><ele>262.0</ele><time>2026-05-03T13:57:57.894Z</time></trkpt><trkpt lat="44.7485243" lon="7.7506847"><ele>262.0</ele><time>2026-05-03T13:57:58.897Z</time></trkpt><trkpt lat="44.7487861" lon="7.7506359"><ele>262.0</ele><time>2026-05-03T13:57:59.899Z</time></trkpt><trkpt lat="44.7490537" lon="7.7505912"><ele>262.0</ele><time>2026-05-03T13:58:00.895Z</time></trkpt><trkpt lat="44.7493237" lon="7.7505501"><ele>262.0</ele><time>2026-05-03T13:58:01.901Z</time></trkpt><trkpt lat="44.7496013" lon="7.7505076"><ele>261.5</ele><time>2026-05-03T13:58:02.895Z</time></trkpt><trkpt lat="44.7498802" lon="7.7504715"><ele>261.0</ele><time>2026-05-03T13:58:03.892Z</time></trkpt><trkpt lat="44.7501612" lon="7.750437"><ele>262.5</ele><time>2026-05-03T13:58:04.902Z</time></trkpt><trkpt lat="44.7504488" lon="7.7504002"><ele>264.0</ele><time>2026-05-03T13:58:05.895Z</time></trkpt><trkpt lat="44.7507363" lon="7.7503701"><ele>264.0</ele><time>2026-05-03T13:58:06.897Z</time></trkpt><trkpt lat="44.7510242" lon="7.7503453"><ele>264.0</ele><time>2026-05-03T13:58:07.889Z</time></trkpt><trkpt lat="44.7513138" lon="7.7503127"><ele>263.0</ele><time>2026-05-03T13:58:08.891Z</time></trkpt><trkpt lat="44.7516023" lon="7.7502825"><ele>262.0</ele><time>2026-05-03T13:58:09.89Z</time></trkpt><trkpt lat="44.7518889" lon="7.7502569"><ele>262.0</ele><time>2026-05-03T13:58:10.892Z</time></trkpt><trkpt lat="44.7521725" lon="7.7502372"><ele>262.0</ele><time>2026-05-03T13:58:11.893Z</time></trkpt><trkpt lat="44.7524538" lon="7.7502237"><ele>262.0</ele><time>2026-05-03T13:58:12.89Z</time></trkpt><trkpt lat="44.7527318" lon="7.7502106"><ele>262.0</ele><time>2026-05-03T13:58:13.908Z</time></trkpt><trkpt lat="44.7530069" lon="7.7501996"><ele>262.0</ele><time>2026-05-03T13:58:14.896Z</time></trkpt><trkpt lat="44.7532798" lon="7.7501917"><ele>262.0</ele><time>2026-05-03T13:58:15.885Z</time></trkpt><trkpt lat="44.7535439" lon="7.750187"><ele>262.0</ele><time>2026-05-03T13:58:16.891Z</time></trkpt><trkpt lat="44.7538015" lon="7.7501803"><ele>262.0</ele><time>2026-05-03T13:58:17.888Z</time></trkpt><trkpt lat="44.7540572" lon="7.7501818"><ele>262.0</ele><time>2026-05-03T13:58:18.897Z</time></trkpt><trkpt lat="44.7543133" lon="7.7501868"><ele>262.0</ele><time>2026-05-03T13:58:19.891Z</time></trkpt><trkpt lat="44.7545781" lon="7.7501851"><ele>261.5</ele><time>2026-05-03T13:58:20.897Z</time></trkpt><trkpt lat="44.75485" lon="7.750183"><ele>261.0</ele><time>2026-05-03T13:58:21.891Z</time></trkpt><trkpt lat="44.7551309" lon="7.7501877"><ele>260.5</ele><time>2026-05-03T13:58:22.902Z</time></trkpt><trkpt lat="44.755417" lon="7.7502017"><ele>260.0</ele><time>2026-05-03T13:58:23.896Z</time></trkpt><trkpt lat="44.7557021" lon="7.7502201"><ele>260.0</ele><time>2026-05-03T13:58:24.895Z</time></trkpt><trkpt lat="44.7559895" lon="7.7502346"><ele>260.0</ele><time>2026-05-03T13:58:25.9Z</time></trkpt><trkpt lat="44.7562779" lon="7.7502478"><ele>260.0</ele><time>2026-05-03T13:58:26.899Z</time></trkpt><trkpt lat="44.7565713" lon="7.7502688"><ele>260.0</ele><time>2026-05-03T13:58:27.903Z</time></trkpt><trkpt lat="44.7568665" lon="7.750289"><ele>261.0</ele><time>2026-05-03T13:58:28.894Z</time></trkpt><trkpt lat="44.7571596" lon="7.7503139"><ele>262.0</ele><time>2026-05-03T13:58:29.891Z</time></trkpt><trkpt lat="44.7574527" lon="7.7503452"><ele>260.5</ele><time>2026-05-03T13:58:30.899Z</time></trkpt><trkpt lat="44.7577504" lon="7.7503778"><ele>259.0</ele><time>2026-05-03T13:58:31.897Z</time></trkpt><trkpt lat="44.7580449" lon="7.7504112"><ele>259.0</ele><time>2026-05-03T13:58:32.897Z</time></trkpt><trkpt lat="44.7583416" lon="7.7504434"><ele>259.0</ele><time>2026-05-03T13:58:33.897Z</time></trkpt><trkpt lat="44.758641" lon="7.7504776"><ele>259.0</ele><time>2026-05-03T13:58:34.889Z</time></trkpt><trkpt lat="44.7589463" lon="7.750508"><ele>259.0</ele><time>2026-05-03T13:58:35.896Z</time></trkpt><trkpt lat="44.7592549" lon="7.750535"><ele>259.5</ele><time>2026-05-03T13:58:36.894Z</time></trkpt><trkpt lat="44.7595657" lon="7.7505662"><ele>260.0</ele><time>2026-05-03T13:58:37.902Z</time></trkpt><trkpt lat="44.7598774" lon="7.7505926"><ele>260.0</ele><time>2026-05-03T13:58:38.89Z</time></trkpt><trkpt lat="44.7601946" lon="7.7506226"><ele>260.0</ele><time>2026-05-03T13:58:39.905Z</time></trkpt><trkpt lat="44.7605195" lon="7.7506511"><ele>260.0</ele><time>2026-05-03T13:58:40.897Z</time></trkpt><trkpt lat="44.7608476" lon="7.7506846"><ele>260.0</ele><time>2026-05-03T13:58:41.896Z</time></trkpt><trkpt lat="44.7611751" lon="7.7507164"><ele>259.0</ele><time>2026-05-03T13:58:42.898Z</time></trkpt><trkpt lat="44.7614992" lon="7.7507543"><ele>258.0</ele><time>2026-05-03T13:58:43.896Z</time></trkpt><trkpt lat="44.7618248" lon="7.7507879"><ele>258.0</ele><time>2026-05-03T13:58:44.891Z</time></trkpt><trkpt lat="44.7621543" lon="7.750821"><ele>258.0</ele><time>2026-05-03T13:58:45.89Z</time></trkpt><trkpt lat="44.7624791" lon="7.7508554"><ele>258.0</ele><time>2026-05-03T13:58:46.892Z</time></trkpt><trkpt lat="44.7628035" lon="7.7508897"><ele>258.0</ele><time>2026-05-03T13:58:47.89Z</time></trkpt><trkpt lat="44.763123" lon="7.7509224"><ele>258.0</ele><time>2026-05-03T13:58:48.908Z</time></trkpt><trkpt lat="44.763443" lon="7.7509501"><ele>258.0</ele><time>2026-05-03T13:58:49.9Z</time></trkpt><trkpt lat="44.7637653" lon="7.7509834"><ele>258.0</ele><time>2026-05-03T13:58:50.895Z</time></trkpt><trkpt lat="44.7640872" lon="7.7510107"><ele>258.0</ele><time>2026-05-03T13:58:51.899Z</time></trkpt><trkpt lat="44.7644087" lon="7.7510464"><ele>258.5</ele><time>2026-05-03T13:58:52.894Z</time></trkpt><trkpt lat="44.764734" lon="7.751079"><ele>259.0</ele><time>2026-05-03T13:58:53.897Z</time></trkpt><trkpt lat="44.7650623" lon="7.7511148"><ele>259.5</ele><time>2026-05-03T13:58:54.904Z</time></trkpt><trkpt lat="44.765393" lon="7.7511513"><ele>260.0</ele><time>2026-05-03T13:58:55.892Z</time></trkpt><trkpt lat="44.7657251" lon="7.7511817"><ele>260.0</ele><time>2026-05-03T13:58:56.898Z</time></trkpt><trkpt lat="44.7660589" lon="7.7512154"><ele>260.0</ele><time>2026-05-03T13:58:57.913Z</time></trkpt><trkpt lat="44.7663953" lon="7.7512433"><ele>260.0</ele><time>2026-05-03T13:58:58.902Z</time></trkpt><trkpt lat="44.7667283" lon="7.7512793"><ele>260.0</ele><time>2026-05-03T13:58:59.901Z</time></trkpt><trkpt lat="44.7670609" lon="7.7513092"><ele>258.5</ele><time>2026-05-03T13:59:00.893Z</time></trkpt><trkpt lat="44.7673992" lon="7.7513449"><ele>257.0</ele><time>2026-05-03T13:59:01.893Z</time></trkpt><trkpt lat="44.7677405" lon="7.7513778"><ele>257.0</ele><time>2026-05-03T13:59:02.899Z</time></trkpt><trkpt lat="44.7680802" lon="7.751411"><ele>257.0</ele><time>2026-05-03T13:59:03.892Z</time></trkpt><trkpt lat="44.7684121" lon="7.7514484"><ele>257.0</ele><time>2026-05-03T13:59:04.904Z</time></trkpt><trkpt lat="44.7687453" lon="7.7514834"><ele>257.0</ele><time>2026-05-03T13:59:05.914Z</time></trkpt><trkpt lat="44.7690777" lon="7.7515146"><ele>257.0</ele><time>2026-05-03T13:59:06.893Z</time></trkpt><trkpt lat="44.7694097" lon="7.7515475"><ele>257.0</ele><time>2026-05-03T13:59:07.898Z</time></trkpt><trkpt lat="44.7697417" lon="7.751577"><ele>257.0</ele><time>2026-05-03T13:59:08.892Z</time></trkpt><trkpt lat="44.7700729" lon="7.7516105"><ele>257.0</ele><time>2026-05-03T13:59:09.892Z</time></trkpt><trkpt lat="44.7704009" lon="7.7516427"><ele>257.5</ele><time>2026-05-03T13:59:10.897Z</time></trkpt><trkpt lat="44.7707268" lon="7.7516756"><ele>258.0</ele><time>2026-05-03T13:59:11.898Z</time></trkpt><trkpt lat="44.7710523" lon="7.7517072"><ele>256.5</ele><time>2026-05-03T13:59:12.897Z</time></trkpt><trkpt lat="44.7713814" lon="7.7517387"><ele>255.0</ele><time>2026-05-03T13:59:13.893Z</time></trkpt><trkpt lat="44.7717075" lon="7.751767"><ele>255.5</ele><time>2026-05-03T13:59:14.892Z</time></trkpt><trkpt lat="44.7720328" lon="7.7518021"><ele>256.0</ele><time>2026-05-03T13:59:15.887Z</time></trkpt><trkpt lat="44.772355" lon="7.7518341"><ele>256.0</ele><time>2026-05-03T13:59:16.906Z</time></trkpt><trkpt lat="44.7726761" lon="7.7518673"><ele>256.0</ele><time>2026-05-03T13:59:17.89Z</time></trkpt><trkpt lat="44.772988" lon="7.7518991"><ele>256.5</ele><time>2026-05-03T13:59:18.898Z</time></trkpt><trkpt lat="44.773292" lon="7.7519334"><ele>257.0</ele><time>2026-05-03T13:59:19.893Z</time></trkpt><trkpt lat="44.7735907" lon="7.7519611"><ele>257.0</ele><time>2026-05-03T13:59:20.897Z</time></trkpt><trkpt lat="44.7738909" lon="7.7519916"><ele>257.0</ele><time>2026-05-03T13:59:21.892Z</time></trkpt><trkpt lat="44.7741943" lon="7.752023"><ele>256.0</ele><time>2026-05-03T13:59:22.898Z</time></trkpt><trkpt lat="44.7744994" lon="7.7520521"><ele>255.0</ele><time>2026-05-03T13:59:23.894Z</time></trkpt><trkpt lat="44.7748053" lon="7.7520838"><ele>255.0</ele><time>2026-05-03T13:59:24.896Z</time></trkpt><trkpt lat="44.7751097" lon="7.7521163"><ele>255.0</ele><time>2026-05-03T13:59:25.898Z</time></trkpt><trkpt lat="44.7754188" lon="7.7521477"><ele>255.5</ele><time>2026-05-03T13:59:26.894Z</time></trkpt><trkpt lat="44.7757252" lon="7.752183"><ele>256.0</ele><time>2026-05-03T13:59:27.898Z</time></trkpt><trkpt lat="44.7760304" lon="7.7522131"><ele>255.0</ele><time>2026-05-03T13:59:28.891Z</time></trkpt><trkpt lat="44.7763392" lon="7.7522505"><ele>254.0</ele><time>2026-05-03T13:59:29.904Z</time></trkpt><trkpt lat="44.7766488" lon="7.7522875"><ele>255.0</ele><time>2026-05-03T13:59:30.893Z</time></trkpt><trkpt lat="44.7769632" lon="7.7523169"><ele>256.0</ele><time>2026-05-03T13:59:31.89Z</time></trkpt><trkpt lat="44.7772773" lon="7.7523454"><ele>256.0</ele><time>2026-05-03T13:59:32.895Z</time></trkpt><trkpt lat="44.777587" lon="7.7523756"><ele>256.0</ele><time>2026-05-03T13:59:33.892Z</time></trkpt><trkpt lat="44.7778981" lon="7.7524027"><ele>255.5</ele><time>2026-05-03T13:59:34.902Z</time></trkpt><trkpt lat="44.7781998" lon="7.7524333"><ele>255.0</ele><time>2026-05-03T13:59:35.909Z</time></trkpt><trkpt lat="44.7784896" lon="7.7524652"><ele>254.5</ele><time>2026-05-03T13:59:36.892Z</time></trkpt><trkpt lat="44.7787717" lon="7.7524912"><ele>254.0</ele><time>2026-05-03T13:59:37.897Z</time></trkpt><trkpt lat="44.7790532" lon="7.7525188"><ele>254.0</ele><time>2026-05-03T13:59:38.898Z</time></trkpt><trkpt lat="44.779338" lon="7.7525465"><ele>254.0</ele><time>2026-05-03T13:59:39.895Z</time></trkpt><trkpt lat="44.7796132" lon="7.7525729"><ele>254.5</ele><time>2026-05-03T13:59:40.905Z</time></trkpt><trkpt lat="44.779881" lon="7.7526007"><ele>255.0</ele><time>2026-05-03T13:59:41.893Z</time></trkpt><trkpt lat="44.780153" lon="7.7526269"><ele>256.0</ele><time>2026-05-03T13:59:42.902Z</time></trkpt><trkpt lat="44.780426" lon="7.7526474"><ele>257.0</ele><time>2026-05-03T13:59:43.898Z</time></trkpt><trkpt lat="44.7806993" lon="7.7526718"><ele>257.0</ele><time>2026-05-03T13:59:44.899Z</time></trkpt><trkpt lat="44.7809747" lon="7.7527006"><ele>257.0</ele><time>2026-05-03T13:59:45.889Z</time></trkpt><trkpt lat="44.7812511" lon="7.7527351"><ele>256.5</ele><time>2026-05-03T13:59:46.897Z</time></trkpt><trkpt lat="44.7815261" lon="7.7527677"><ele>256.0</ele><time>2026-05-03T13:59:47.893Z</time></trkpt><trkpt lat="44.7818064" lon="7.7528009"><ele>256.0</ele><time>2026-05-03T13:59:48.888Z</time></trkpt><trkpt lat="44.7820913" lon="7.7528343"><ele>256.0</ele><time>2026-05-03T13:59:49.902Z</time></trkpt><trkpt lat="44.7823822" lon="7.7528636"><ele>256.0</ele><time>2026-05-03T13:59:50.9Z</time></trkpt><trkpt lat="44.7826793" lon="7.7528915"><ele>256.0</ele><time>2026-05-03T13:59:51.896Z</time></trkpt><trkpt lat="44.7829802" lon="7.7529164"><ele>255.5</ele><time>2026-05-03T13:59:52.902Z</time></trkpt><trkpt lat="44.7832854" lon="7.7529443"><ele>255.0</ele><time>2026-05-03T13:59:53.904Z</time></trkpt><trkpt lat="44.7835921" lon="7.7529686"><ele>255.0</ele><time>2026-05-03T13:59:54.891Z</time></trkpt><trkpt lat="44.7838907" lon="7.7529946"><ele>255.0</ele><time>2026-05-03T13:59:55.904Z</time></trkpt><trkpt lat="44.7841868" lon="7.7530247"><ele>255.0</ele><time>2026-05-03T13:59:56.897Z</time></trkpt><trkpt lat="44.7844837" lon="7.7530548"><ele>255.0</ele><time>2026-05-03T13:59:57.901Z</time></trkpt><trkpt lat="44.7847846" lon="7.7530847"><ele>255.0</ele><time>2026-05-03T13:59:58.897Z</time></trkpt><trkpt lat="44.785086" lon="7.7531216"><ele>255.0</ele><time>2026-05-03T13:59:59.905Z</time></trkpt><trkpt lat="44.7853848" lon="7.7531485"><ele>254.5</ele><time>2026-05-03T14:00:00.893Z</time></trkpt><trkpt lat="44.7856828" lon="7.7531751"><ele>254.0</ele><time>2026-05-03T14:00:01.899Z</time></trkpt><trkpt lat="44.7859806" lon="7.7531991"><ele>253.5</ele><time>2026-05-03T14:00:02.892Z</time></trkpt><trkpt lat="44.7862664" lon="7.7532195"><ele>253.0</ele><time>2026-05-03T14:00:03.895Z</time></trkpt><trkpt lat="44.7865531" lon="7.7532339"><ele>253.0</ele><time>2026-05-03T14:00:04.888Z</time></trkpt><trkpt lat="44.7868382" lon="7.7532484"><ele>253.0</ele><time>2026-05-03T14:00:05.893Z</time></trkpt><trkpt lat="44.7871272" lon="7.7532578"><ele>254.0</ele><time>2026-05-03T14:00:06.888Z</time></trkpt><trkpt lat="44.7874162" lon="7.753262"><ele>255.0</ele><time>2026-05-03T14:00:07.885Z</time></trkpt><trkpt lat="44.7877011" lon="7.7532603"><ele>256.0</ele><time>2026-05-03T14:00:08.894Z</time></trkpt><trkpt lat="44.787979" lon="7.7532554"><ele>257.0</ele><time>2026-05-03T14:00:09.886Z</time></trkpt><trkpt lat="44.7882606" lon="7.7532496"><ele>255.5</ele><time>2026-05-03T14:00:10.9Z</time></trkpt><trkpt lat="44.7885494" lon="7.7532474"><ele>254.0</ele><time>2026-05-03T14:00:11.887Z</time></trkpt><trkpt lat="44.7888384" lon="7.7532445"><ele>254.0</ele><time>2026-05-03T14:00:12.9Z</time></trkpt><trkpt lat="44.7891236" lon="7.753244"><ele>254.0</ele><time>2026-05-03T14:00:13.892Z</time></trkpt><trkpt lat="44.7893986" lon="7.7532401"><ele>254.5</ele><time>2026-05-03T14:00:14.895Z</time></trkpt><trkpt lat="44.7896655" lon="7.7532256"><ele>255.0</ele><time>2026-05-03T14:00:15.898Z</time></trkpt><trkpt lat="44.7899313" lon="7.7532061"><ele>254.5</ele><time>2026-05-03T14:00:16.892Z</time></trkpt><trkpt lat="44.7901987" lon="7.7531914"><ele>254.0</ele><time>2026-05-03T14:00:17.898Z</time></trkpt><trkpt lat="44.7904718" lon="7.7531727"><ele>254.0</ele><time>2026-05-03T14:00:18.898Z</time></trkpt><trkpt lat="44.7907461" lon="7.7531584"><ele>254.0</ele><time>2026-05-03T14:00:19.894Z</time></trkpt><trkpt lat="44.7910196" lon="7.7531402"><ele>253.5</ele><time>2026-05-03T14:00:20.889Z</time></trkpt><trkpt lat="44.7912893" lon="7.7531174"><ele>253.0</ele><time>2026-05-03T14:00:21.904Z</time></trkpt><trkpt lat="44.7915447" lon="7.7530949"><ele>253.0</ele><time>2026-05-03T14:00:22.897Z</time></trkpt><trkpt lat="44.7917941" lon="7.7530796"><ele>253.0</ele><time>2026-05-03T14:00:23.901Z</time></trkpt><trkpt lat="44.7920371" lon="7.7530673"><ele>253.5</ele><time>2026-05-03T14:00:24.895Z</time></trkpt><trkpt lat="44.7922798" lon="7.7530541"><ele>254.0</ele><time>2026-05-03T14:00:25.894Z</time></trkpt><trkpt lat="44.7925303" lon="7.7530316"><ele>253.0</ele><time>2026-05-03T14:00:26.893Z</time></trkpt><trkpt lat="44.792787" lon="7.7530106"><ele>252.0</ele><time>2026-05-03T14:00:27.902Z</time></trkpt><trkpt lat="44.7930454" lon="7.7529917"><ele>252.0</ele><time>2026-05-03T14:00:28.901Z</time></trkpt><trkpt lat="44.7933003" lon="7.752974"><ele>252.0</ele><time>2026-05-03T14:00:29.897Z</time></trkpt><trkpt lat="44.7935536" lon="7.7529605"><ele>252.0</ele><time>2026-05-03T14:00:30.898Z</time></trkpt><trkpt lat="44.7938002" lon="7.7529444"><ele>252.0</ele><time>2026-05-03T14:00:31.898Z</time></trkpt><trkpt lat="44.7940441" lon="7.7529282"><ele>252.0</ele><time>2026-05-03T14:00:32.908Z</time></trkpt><trkpt lat="44.7942763" lon="7.7529176"><ele>252.0</ele><time>2026-05-03T14:00:33.898Z</time></trkpt><trkpt lat="44.7945056" lon="7.7529091"><ele>253.5</ele><time>2026-05-03T14:00:34.902Z</time></trkpt><trkpt lat="44.7947388" lon="7.7528936"><ele>255.0</ele><time>2026-05-03T14:00:35.892Z</time></trkpt><trkpt lat="44.7949697" lon="7.7528792"><ele>254.5</ele><time>2026-05-03T14:00:36.897Z</time></trkpt><trkpt lat="44.7952046" lon="7.7528639"><ele>254.0</ele><time>2026-05-03T14:00:37.902Z</time></trkpt><trkpt lat="44.7954381" lon="7.752842"><ele>254.0</ele><time>2026-05-03T14:00:38.899Z</time></trkpt><trkpt lat="44.7956657" lon="7.7528207"><ele>254.0</ele><time>2026-05-03T14:00:39.903Z</time></trkpt><trkpt lat="44.7958878" lon="7.7528071"><ele>254.33333333333334</ele><time>2026-05-03T14:00:40.9Z</time></trkpt><trkpt lat="44.7961137" lon="7.7527916"><ele>254.66666666666669</ele><time>2026-05-03T14:00:41.899Z</time></trkpt><trkpt lat="44.7963319" lon="7.7527733"><ele>255.0</ele><time>2026-05-03T14:00:42.895Z</time></trkpt><trkpt lat="44.7965389" lon="7.7527609"><ele>255.0</ele><time>2026-05-03T14:00:43.9Z</time></trkpt><trkpt lat="44.7967348" lon="7.7527476"><ele>255.0</ele><time>2026-05-03T14:00:44.889Z</time></trkpt><trkpt lat="44.7969326" lon="7.7527393"><ele>255.0</ele><time>2026-05-03T14:00:45.9Z</time></trkpt><trkpt lat="44.7971393" lon="7.7527278"><ele>255.0</ele><time>2026-05-03T14:00:46.902Z</time></trkpt><trkpt lat="44.7973478" lon="7.752717"><ele>255.0</ele><time>2026-05-03T14:00:47.9Z</time></trkpt><trkpt lat="44.7975649" lon="7.7527036"><ele>255.0</ele><time>2026-05-03T14:00:48.893Z</time></trkpt><trkpt lat="44.7977855" lon="7.7526846"><ele>255.0</ele><time>2026-05-03T14:00:49.892Z</time></trkpt><trkpt lat="44.7980137" lon="7.7526651"><ele>255.0</ele><time>2026-05-03T14:00:50.901Z</time></trkpt><trkpt lat="44.7982465" lon="7.7526436"><ele>255.0</ele><time>2026-05-03T14:00:51.904Z</time></trkpt><trkpt lat="44.7984845" lon="7.7526237"><ele>255.0</ele><time>2026-05-03T14:00:52.899Z</time></trkpt><trkpt lat="44.798725" lon="7.7526089"><ele>255.0</ele><time>2026-05-03T14:00:53.897Z</time></trkpt><trkpt lat="44.7989684" lon="7.75259"><ele>255.0</ele><time>2026-05-03T14:00:54.899Z</time></trkpt><trkpt lat="44.7992164" lon="7.7525704"><ele>255.0</ele><time>2026-05-03T14:00:55.899Z</time></trkpt><trkpt lat="44.7994677" lon="7.7525525"><ele>255.0</ele><time>2026-05-03T14:00:56.895Z</time></trkpt><trkpt lat="44.7997169" lon="7.75253"><ele>255.0</ele><time>2026-05-03T14:00:57.896Z</time></trkpt><trkpt lat="44.799965" lon="7.7525129"><ele>255.0</ele><time>2026-05-03T14:00:58.9Z</time></trkpt><trkpt lat="44.8002137" lon="7.7524932"><ele>254.5</ele><time>2026-05-03T14:00:59.903Z</time></trkpt><trkpt lat="44.8004681" lon="7.7524797"><ele>254.0</ele><time>2026-05-03T14:01:00.902Z</time></trkpt><trkpt lat="44.8007216" lon="7.7524649"><ele>254.0</ele><time>2026-05-03T14:01:01.891Z</time></trkpt><trkpt lat="44.8009809" lon="7.7524463"><ele>254.0</ele><time>2026-05-03T14:01:02.902Z</time></trkpt><trkpt lat="44.8012429" lon="7.7524254"><ele>253.5</ele><time>2026-05-03T14:01:03.898Z</time></trkpt><trkpt lat="44.8015115" lon="7.7524082"><ele>253.0</ele><time>2026-05-03T14:01:04.907Z</time></trkpt><trkpt lat="44.8017832" lon="7.7523894"><ele>253.0</ele><time>2026-05-03T14:01:05.893Z</time></trkpt><trkpt lat="44.8020593" lon="7.7523755"><ele>253.0</ele><time>2026-05-03T14:01:06.893Z</time></trkpt><trkpt lat="44.8023371" lon="7.7523544"><ele>253.0</ele><time>2026-05-03T14:01:07.906Z</time></trkpt><trkpt lat="44.8026153" lon="7.7523352"><ele>253.0</ele><time>2026-05-03T14:01:08.9Z</time></trkpt><trkpt lat="44.8028916" lon="7.7523162"><ele>253.0</ele><time>2026-05-03T14:01:09.897Z</time></trkpt><trkpt lat="44.8031711" lon="7.7522979"><ele>253.0</ele><time>2026-05-03T14:01:10.89Z</time></trkpt><trkpt lat="44.8034512" lon="7.75228"><ele>253.0</ele><time>2026-05-03T14:01:11.893Z</time></trkpt><trkpt lat="44.803728" lon="7.7522593"><ele>253.0</ele><time>2026-05-03T14:01:12.895Z</time></trkpt><trkpt lat="44.8040008" lon="7.7522456"><ele>253.0</ele><time>2026-05-03T14:01:13.894Z</time></trkpt><trkpt lat="44.804274" lon="7.7522285"><ele>253.0</ele><time>2026-05-03T14:01:14.888Z</time></trkpt><trkpt lat="44.8045367" lon="7.7522098"><ele>252.5</ele><time>2026-05-03T14:01:15.895Z</time></trkpt><trkpt lat="44.8047921" lon="7.7521925"><ele>252.0</ele><time>2026-05-03T14:01:16.896Z</time></trkpt><trkpt lat="44.8050479" lon="7.7521737"><ele>252.5</ele><time>2026-05-03T14:01:17.895Z</time></trkpt><trkpt lat="44.8053021" lon="7.7521554"><ele>253.0</ele><time>2026-05-03T14:01:18.892Z</time></trkpt><trkpt lat="44.8055588" lon="7.7521347"><ele>253.0</ele><time>2026-05-03T14:01:19.888Z</time></trkpt><trkpt lat="44.805825" lon="7.7521112"><ele>253.0</ele><time>2026-05-03T14:01:20.901Z</time></trkpt><trkpt lat="44.8060923" lon="7.7520881"><ele>253.5</ele><time>2026-05-03T14:01:21.902Z</time></trkpt><trkpt lat="44.8063645" lon="7.7520625"><ele>254.0</ele><time>2026-05-03T14:01:22.894Z</time></trkpt><trkpt lat="44.8066429" lon="7.7520442"><ele>253.0</ele><time>2026-05-03T14:01:23.894Z</time></trkpt><trkpt lat="44.8069228" lon="7.7520274"><ele>252.0</ele><time>2026-05-03T14:01:24.897Z</time></trkpt><trkpt lat="44.8072035" lon="7.7520176"><ele>252.0</ele><time>2026-05-03T14:01:25.894Z</time></trkpt><trkpt lat="44.807482" lon="7.751998"><ele>252.0</ele><time>2026-05-03T14:01:26.891Z</time></trkpt><trkpt lat="44.8077579" lon="7.7519828"><ele>252.5</ele><time>2026-05-03T14:01:27.894Z</time></trkpt><trkpt lat="44.8080325" lon="7.7519646"><ele>253.0</ele><time>2026-05-03T14:01:28.894Z</time></trkpt><trkpt lat="44.808313" lon="7.7519451"><ele>253.0</ele><time>2026-05-03T14:01:29.899Z</time></trkpt><trkpt lat="44.8085948" lon="7.7519199"><ele>253.0</ele><time>2026-05-03T14:01:30.898Z</time></trkpt><trkpt lat="44.8088794" lon="7.7518962"><ele>253.0</ele><time>2026-05-03T14:01:31.901Z</time></trkpt><trkpt lat="44.8091649" lon="7.7518691"><ele>253.0</ele><time>2026-05-03T14:01:32.896Z</time></trkpt><trkpt lat="44.8094546" lon="7.751851"><ele>253.0</ele><time>2026-05-03T14:01:33.899Z</time></trkpt><trkpt lat="44.8097463" lon="7.7518261"><ele>253.0</ele><time>2026-05-03T14:01:34.904Z</time></trkpt><trkpt lat="44.8100426" lon="7.7518101"><ele>251.5</ele><time>2026-05-03T14:01:35.902Z</time></trkpt><trkpt lat="44.810344" lon="7.751791"><ele>250.0</ele><time>2026-05-03T14:01:36.906Z</time></trkpt><trkpt lat="44.8106541" lon="7.7517757"><ele>250.0</ele><time>2026-05-03T14:01:37.895Z</time></trkpt><trkpt lat="44.8109723" lon="7.7517552"><ele>250.0</ele><time>2026-05-03T14:01:38.898Z</time></trkpt><trkpt lat="44.8113" lon="7.7517366"><ele>250.0</ele><time>2026-05-03T14:01:39.894Z</time></trkpt><trkpt lat="44.8116316" lon="7.7517116"><ele>250.0</ele><time>2026-05-03T14:01:40.9Z</time></trkpt><trkpt lat="44.8119564" lon="7.7516887"><ele>250.5</ele><time>2026-05-03T14:01:41.888Z</time></trkpt><trkpt lat="44.8122755" lon="7.7516701"><ele>251.0</ele><time>2026-05-03T14:01:42.893Z</time></trkpt><trkpt lat="44.8125947" lon="7.7516471"><ele>250.5</ele><time>2026-05-03T14:01:43.893Z</time></trkpt><trkpt lat="44.8129101" lon="7.7516231"><ele>250.0</ele><time>2026-05-03T14:01:44.899Z</time></trkpt><trkpt lat="44.8132255" lon="7.7516019"><ele>250.0</ele><time>2026-05-03T14:01:45.9Z</time></trkpt><trkpt lat="44.8135365" lon="7.7515786"><ele>250.0</ele><time>2026-05-03T14:01:46.899Z</time></trkpt><trkpt lat="44.8138398" lon="7.7515538"><ele>250.0</ele><time>2026-05-03T14:01:47.902Z</time></trkpt><trkpt lat="44.8141382" lon="7.7515337"><ele>250.0</ele><time>2026-05-03T14:01:48.897Z</time></trkpt><trkpt lat="44.8144347" lon="7.75151"><ele>250.0</ele><time>2026-05-03T14:01:49.908Z</time></trkpt><trkpt lat="44.8147325" lon="7.7514858"><ele>250.0</ele><time>2026-05-03T14:01:50.902Z</time></trkpt><trkpt lat="44.8150319" lon="7.7514639"><ele>251.0</ele><time>2026-05-03T14:01:51.897Z</time></trkpt><trkpt lat="44.8153343" lon="7.7514437"><ele>252.0</ele><time>2026-05-03T14:01:52.9Z</time></trkpt><trkpt lat="44.8156417" lon="7.7514233"><ele>252.0</ele><time>2026-05-03T14:01:53.899Z</time></trkpt><trkpt lat="44.8159477" lon="7.7514039"><ele>252.0</ele><time>2026-05-03T14:01:54.899Z</time></trkpt><trkpt lat="44.8162459" lon="7.7513904"><ele>251.0</ele><time>2026-05-03T14:01:55.899Z</time></trkpt><trkpt lat="44.8165322" lon="7.7513712"><ele>250.0</ele><time>2026-05-03T14:01:56.896Z</time></trkpt><trkpt lat="44.8168109" lon="7.7513518"><ele>249.5</ele><time>2026-05-03T14:01:57.901Z</time></trkpt><trkpt lat="44.8170848" lon="7.7513342"><ele>249.0</ele><time>2026-05-03T14:01:58.892Z</time></trkpt><trkpt lat="44.8173458" lon="7.7513167"><ele>249.0</ele><time>2026-05-03T14:01:59.903Z</time></trkpt><trkpt lat="44.817604" lon="7.7512922"><ele>249.0</ele><time>2026-05-03T14:02:00.902Z</time></trkpt><trkpt lat="44.8178629" lon="7.7512704"><ele>247.5</ele><time>2026-05-03T14:02:01.906Z</time></trkpt><trkpt lat="44.8181206" lon="7.7512532"><ele>246.0</ele><time>2026-05-03T14:02:02.893Z</time></trkpt><trkpt lat="44.818382" lon="7.7512341"><ele>246.5</ele><time>2026-05-03T14:02:03.896Z</time></trkpt><trkpt lat="44.8186478" lon="7.7512194"><ele>247.0</ele><time>2026-05-03T14:02:04.897Z</time></trkpt><trkpt lat="44.8189113" lon="7.7512014"><ele>247.0</ele><time>2026-05-03T14:02:05.891Z</time></trkpt><trkpt lat="44.8191812" lon="7.7511778"><ele>247.0</ele><time>2026-05-03T14:02:06.889Z</time></trkpt><trkpt lat="44.8194584" lon="7.751157"><ele>247.5</ele><time>2026-05-03T14:02:07.893Z</time></trkpt><trkpt lat="44.8197389" lon="7.7511307"><ele>248.0</ele><time>2026-05-03T14:02:08.888Z</time></trkpt><trkpt lat="44.8200232" lon="7.7511108"><ele>246.5</ele><time>2026-05-03T14:02:09.899Z</time></trkpt><trkpt lat="44.8203077" lon="7.7510966"><ele>245.0</ele><time>2026-05-03T14:02:10.899Z</time></trkpt><trkpt lat="44.8205953" lon="7.7510771"><ele>245.0</ele><time>2026-05-03T14:02:11.891Z</time></trkpt><trkpt lat="44.8208887" lon="7.7510604"><ele>245.0</ele><time>2026-05-03T14:02:12.89Z</time></trkpt><trkpt lat="44.8211862" lon="7.7510374"><ele>246.0</ele><time>2026-05-03T14:02:13.903Z</time></trkpt><trkpt lat="44.8214873" lon="7.7510122"><ele>247.0</ele><time>2026-05-03T14:02:14.89Z</time></trkpt><trkpt lat="44.8217867" lon="7.7509887"><ele>249.0</ele><time>2026-05-03T14:02:15.896Z</time></trkpt><trkpt lat="44.8220793" lon="7.7509666"><ele>251.0</ele><time>2026-05-03T14:02:16.896Z</time></trkpt><trkpt lat="44.8223707" lon="7.7509524"><ele>249.0</ele><time>2026-05-03T14:02:17.908Z</time></trkpt><trkpt lat="44.8226558" lon="7.7509385"><ele>247.0</ele><time>2026-05-03T14:02:18.897Z</time></trkpt><trkpt lat="44.8229442" lon="7.7509197"><ele>247.0</ele><time>2026-05-03T14:02:19.909Z</time></trkpt><trkpt lat="44.8232323" lon="7.7508997"><ele>247.0</ele><time>2026-05-03T14:02:20.888Z</time></trkpt><trkpt lat="44.823511" lon="7.7508795"><ele>246.0</ele><time>2026-05-03T14:02:21.901Z</time></trkpt><trkpt lat="44.8237841" lon="7.7508596"><ele>245.0</ele><time>2026-05-03T14:02:22.896Z</time></trkpt><trkpt lat="44.8240516" lon="7.7508358"><ele>245.5</ele><time>2026-05-03T14:02:23.903Z</time></trkpt><trkpt lat="44.8243201" lon="7.7508146"><ele>246.0</ele><time>2026-05-03T14:02:24.89Z</time></trkpt><trkpt lat="44.8245905" lon="7.7507949"><ele>246.0</ele><time>2026-05-03T14:02:25.91Z</time></trkpt><trkpt lat="44.8248618" lon="7.7507827"><ele>246.0</ele><time>2026-05-03T14:02:26.897Z</time></trkpt><trkpt lat="44.8251324" lon="7.7507688"><ele>245.0</ele><time>2026-05-03T14:02:27.906Z</time></trkpt><trkpt lat="44.825399" lon="7.7507503"><ele>244.0</ele><time>2026-05-03T14:02:28.897Z</time></trkpt><trkpt lat="44.8256699" lon="7.7507301"><ele>244.0</ele><time>2026-05-03T14:02:29.906Z</time></trkpt><trkpt lat="44.8259437" lon="7.7507071"><ele>244.0</ele><time>2026-05-03T14:02:30.897Z</time></trkpt><trkpt lat="44.8262139" lon="7.7506874"><ele>245.0</ele><time>2026-05-03T14:02:31.898Z</time></trkpt><trkpt lat="44.8264837" lon="7.7506692"><ele>246.0</ele><time>2026-05-03T14:02:32.911Z</time></trkpt><trkpt lat="44.8267507" lon="7.750648"><ele>246.5</ele><time>2026-05-03T14:02:33.89Z</time></trkpt><trkpt lat="44.8270178" lon="7.7506285"><ele>247.0</ele><time>2026-05-03T14:02:34.896Z</time></trkpt><trkpt lat="44.8272926" lon="7.7506081"><ele>247.0</ele><time>2026-05-03T14:02:35.904Z</time></trkpt><trkpt lat="44.827568" lon="7.7505909"><ele>247.0</ele><time>2026-05-03T14:02:36.894Z</time></trkpt><trkpt lat="44.8278477" lon="7.7505706"><ele>246.5</ele><time>2026-05-03T14:02:37.901Z</time></trkpt><trkpt lat="44.8281318" lon="7.7505498"><ele>246.0</ele><time>2026-05-03T14:02:38.899Z</time></trkpt><trkpt lat="44.828419" lon="7.7505323"><ele>245.5</ele><time>2026-05-03T14:02:39.904Z</time></trkpt><trkpt lat="44.828707" lon="7.7505143"><ele>245.0</ele><time>2026-05-03T14:02:40.901Z</time></trkpt><trkpt lat="44.8289967" lon="7.7504958"><ele>245.0</ele><time>2026-05-03T14:02:41.889Z</time></trkpt><trkpt lat="44.8292924" lon="7.7504793"><ele>245.0</ele><time>2026-05-03T14:02:42.894Z</time></trkpt><trkpt lat="44.8295907" lon="7.7504606"><ele>245.0</ele><time>2026-05-03T14:02:43.894Z</time></trkpt><trkpt lat="44.8298884" lon="7.7504377"><ele>245.0</ele><time>2026-05-03T14:02:44.895Z</time></trkpt><trkpt lat="44.8301842" lon="7.7504146"><ele>245.0</ele><time>2026-05-03T14:02:45.899Z</time></trkpt><trkpt lat="44.8304872" lon="7.7503901"><ele>245.0</ele><time>2026-05-03T14:02:46.898Z</time></trkpt><trkpt lat="44.8307882" lon="7.7503674"><ele>246.0</ele><time>2026-05-03T14:02:47.9Z</time></trkpt><trkpt lat="44.8310863" lon="7.7503452"><ele>247.0</ele><time>2026-05-03T14:02:48.892Z</time></trkpt><trkpt lat="44.8313774" lon="7.7503235"><ele>247.0</ele><time>2026-05-03T14:02:49.897Z</time></trkpt><trkpt lat="44.8316675" lon="7.7503006"><ele>247.0</ele><time>2026-05-03T14:02:50.895Z</time></trkpt><trkpt lat="44.8319402" lon="7.7502816"><ele>246.5</ele><time>2026-05-03T14:02:51.905Z</time></trkpt><trkpt lat="44.8321976" lon="7.7502655"><ele>246.0</ele><time>2026-05-03T14:02:52.892Z</time></trkpt><trkpt lat="44.8324393" lon="7.7502498"><ele>245.66666666666669</ele><time>2026-05-03T14:02:53.898Z</time></trkpt><trkpt lat="44.8326666" lon="7.7502314"><ele>245.33333333333334</ele><time>2026-05-03T14:02:54.899Z</time></trkpt><trkpt lat="44.8328753" lon="7.7502196"><ele>245.0</ele><time>2026-05-03T14:02:55.895Z</time></trkpt><trkpt lat="44.8330557" lon="7.7502044"><ele>245.0</ele><time>2026-05-03T14:02:56.893Z</time></trkpt><trkpt lat="44.8332054" lon="7.7501956"><ele>245.0</ele><time>2026-05-03T14:02:57.889Z</time></trkpt><trkpt lat="44.8333419" lon="7.7501865"><ele>245.0</ele><time>2026-05-03T14:02:58.892Z</time></trkpt><trkpt lat="44.833473" lon="7.7501804"><ele>245.0</ele><time>2026-05-03T14:02:59.91Z</time></trkpt><trkpt lat="44.8335932" lon="7.7501745"><ele>245.25</ele><time>2026-05-03T14:03:00.891Z</time></trkpt><trkpt lat="44.833715" lon="7.7501667"><ele>245.5</ele><time>2026-05-03T14:03:01.897Z</time></trkpt><trkpt lat="44.8338446" lon="7.750153"><ele>245.75</ele><time>2026-05-03T14:03:02.897Z</time></trkpt><trkpt lat="44.8339717" lon="7.7501442"><ele>246.0</ele><time>2026-05-03T14:03:03.895Z</time></trkpt><trkpt lat="44.8340955" lon="7.7501354"><ele>246.0</ele><time>2026-05-03T14:03:04.896Z</time></trkpt><trkpt lat="44.8342228" lon="7.7501299"><ele>246.0</ele><time>2026-05-03T14:03:05.895Z</time></trkpt><trkpt lat="44.8343497" lon="7.7501229"><ele>246.0</ele><time>2026-05-03T14:03:06.895Z</time></trkpt><trkpt lat="44.8344815" lon="7.7501132"><ele>246.0</ele><time>2026-05-03T14:03:07.895Z</time></trkpt><trkpt lat="44.8346127" lon="7.7501051"><ele>245.75</ele><time>2026-05-03T14:03:08.893Z</time></trkpt><trkpt lat="44.8347437" lon="7.7501005"><ele>245.5</ele><time>2026-05-03T14:03:09.891Z</time></trkpt><trkpt lat="44.8348647" lon="7.7500893"><ele>245.25</ele><time>2026-05-03T14:03:10.895Z</time></trkpt><trkpt lat="44.8349739" lon="7.7500742"><ele>245.0</ele><time>2026-05-03T14:03:11.899Z</time></trkpt><trkpt lat="44.835076" lon="7.7500661"><ele>245.0</ele><time>2026-05-03T14:03:12.9Z</time></trkpt><trkpt lat="44.8351835" lon="7.7500578"><ele>245.0</ele><time>2026-05-03T14:03:13.893Z</time></trkpt><trkpt lat="44.8352975" lon="7.7500518"><ele>245.0</ele><time>2026-05-03T14:03:14.897Z</time></trkpt><trkpt lat="44.8354148" lon="7.7500447"><ele>245.0</ele><time>2026-05-03T14:03:15.893Z</time></trkpt><trkpt lat="44.8355241" lon="7.7500365"><ele>245.0</ele><time>2026-05-03T14:03:16.894Z</time></trkpt><trkpt lat="44.8356345" lon="7.750029"><ele>245.0</ele><time>2026-05-03T14:03:17.894Z</time></trkpt><trkpt lat="44.8357498" lon="7.7500206"><ele>245.0</ele><time>2026-05-03T14:03:18.911Z</time></trkpt><trkpt lat="44.8358662" lon="7.7500089"><ele>245.0</ele><time>2026-05-03T14:03:19.893Z</time></trkpt><trkpt lat="44.8359818" lon="7.7500031"><ele>245.0</ele><time>2026-05-03T14:03:20.887Z</time></trkpt><trkpt lat="44.8361016" lon="7.7499954"><ele>244.75</ele><time>2026-05-03T14:03:21.906Z</time></trkpt><trkpt lat="44.8362293" lon="7.7499876"><ele>244.5</ele><time>2026-05-03T14:03:22.894Z</time></trkpt><trkpt lat="44.8363623" lon="7.7499829"><ele>244.25</ele><time>2026-05-03T14:03:23.908Z</time></trkpt><trkpt lat="44.836502" lon="7.7499716"><ele>244.0</ele><time>2026-05-03T14:03:24.893Z</time></trkpt><trkpt lat="44.8366545" lon="7.7499624"><ele>243.66666666666666</ele><time>2026-05-03T14:03:25.895Z</time></trkpt><trkpt lat="44.8368167" lon="7.7499519"><ele>243.33333333333331</ele><time>2026-05-03T14:03:26.888Z</time></trkpt><trkpt lat="44.8369754" lon="7.7499355"><ele>243.0</ele><time>2026-05-03T14:03:27.896Z</time></trkpt><trkpt lat="44.8371316" lon="7.7499202"><ele>243.0</ele><time>2026-05-03T14:03:28.9Z</time></trkpt><trkpt lat="44.8372849" lon="7.7499084"><ele>243.0</ele><time>2026-05-03T14:03:29.893Z</time></trkpt><trkpt lat="44.8374394" lon="7.7498951"><ele>243.0</ele><time>2026-05-03T14:03:30.888Z</time></trkpt><trkpt lat="44.8375966" lon="7.7498845"><ele>243.75</ele><time>2026-05-03T14:03:31.893Z</time></trkpt><trkpt lat="44.8377455" lon="7.7498759"><ele>244.5</ele><time>2026-05-03T14:03:32.894Z</time></trkpt><trkpt lat="44.8378915" lon="7.7498666"><ele>245.25</ele><time>2026-05-03T14:03:33.904Z</time></trkpt><trkpt lat="44.8380406" lon="7.749853"><ele>246.0</ele><time>2026-05-03T14:03:34.895Z</time></trkpt><trkpt lat="44.8381894" lon="7.7498452"><ele>246.0</ele><time>2026-05-03T14:03:35.889Z</time></trkpt><trkpt lat="44.8383383" lon="7.7498368"><ele>246.0</ele><time>2026-05-03T14:03:36.901Z</time></trkpt><trkpt lat="44.838472" lon="7.7498308"><ele>246.0</ele><time>2026-05-03T14:03:37.89Z</time></trkpt><trkpt lat="44.8385987" lon="7.749828"><ele>246.0</ele><time>2026-05-03T14:03:38.894Z</time></trkpt><trkpt lat="44.8387299" lon="7.7498244"><ele>245.5</ele><time>2026-05-03T14:03:39.901Z</time></trkpt><trkpt lat="44.8388701" lon="7.7498141"><ele>245.0</ele><time>2026-05-03T14:03:40.896Z</time></trkpt><trkpt lat="44.839009" lon="7.7498"><ele>244.5</ele><time>2026-05-03T14:03:41.906Z</time></trkpt><trkpt lat="44.8391416" lon="7.7497922"><ele>244.0</ele><time>2026-05-03T14:03:42.898Z</time></trkpt><trkpt lat="44.8392711" lon="7.749783"><ele>244.0</ele><time>2026-05-03T14:03:43.895Z</time></trkpt><trkpt lat="44.8394133" lon="7.7497756"><ele>244.0</ele><time>2026-05-03T14:03:44.894Z</time></trkpt><trkpt lat="44.8395649" lon="7.7497644"><ele>244.0</ele><time>2026-05-03T14:03:45.895Z</time></trkpt><trkpt lat="44.8397209" lon="7.7497482"><ele>244.0</ele><time>2026-05-03T14:03:46.895Z</time></trkpt><trkpt lat="44.8398793" lon="7.7497358"><ele>244.0</ele><time>2026-05-03T14:03:47.888Z</time></trkpt><trkpt lat="44.8400383" lon="7.7497237"><ele>244.0</ele><time>2026-05-03T14:03:48.903Z</time></trkpt><trkpt lat="44.8401905" lon="7.749713"><ele>244.0</ele><time>2026-05-03T14:03:49.911Z</time></trkpt><trkpt lat="44.8403337" lon="7.7497027"><ele>244.0</ele><time>2026-05-03T14:03:50.898Z</time></trkpt><trkpt lat="44.8404814" lon="7.7496908"><ele>244.0</ele><time>2026-05-03T14:03:51.905Z</time></trkpt><trkpt lat="44.8406338" lon="7.7496811"><ele>244.0</ele><time>2026-05-03T14:03:52.895Z</time></trkpt><trkpt lat="44.8407834" lon="7.7496728"><ele>244.0</ele><time>2026-05-03T14:03:53.895Z</time></trkpt><trkpt lat="44.8409346" lon="7.7496625"><ele>244.0</ele><time>2026-05-03T14:03:54.897Z</time></trkpt><trkpt lat="44.8410896" lon="7.7496488"><ele>244.0</ele><time>2026-05-03T14:03:55.9Z</time></trkpt><trkpt lat="44.8412459" lon="7.7496386"><ele>244.0</ele><time>2026-05-03T14:03:56.897Z</time></trkpt><trkpt lat="44.8414194" lon="7.749628"><ele>244.0</ele><time>2026-05-03T14:03:57.893Z</time></trkpt><trkpt lat="44.8416076" lon="7.7496139"><ele>244.0</ele><time>2026-05-03T14:03:58.892Z</time></trkpt><trkpt lat="44.841808" lon="7.7496039"><ele>244.33333333333331</ele><time>2026-05-03T14:03:59.909Z</time></trkpt><trkpt lat="44.8420125" lon="7.7495971"><ele>244.66666666666669</ele><time>2026-05-03T14:04:00.9Z</time></trkpt><trkpt lat="44.8422209" lon="7.749583"><ele>245.0</ele><time>2026-05-03T14:04:01.901Z</time></trkpt><trkpt lat="44.8424334" lon="7.7495648"><ele>244.0</ele><time>2026-05-03T14:04:02.899Z</time></trkpt><trkpt lat="44.8426505" lon="7.7495443"><ele>243.0</ele><time>2026-05-03T14:04:03.899Z</time></trkpt><trkpt lat="44.8428719" lon="7.7495242"><ele>242.0</ele><time>2026-05-03T14:04:04.891Z</time></trkpt><trkpt lat="44.8431004" lon="7.7495057"><ele>242.0</ele><time>2026-05-03T14:04:05.892Z</time></trkpt><trkpt lat="44.8433328" lon="7.7494897"><ele>242.0</ele><time>2026-05-03T14:04:06.893Z</time></trkpt><trkpt lat="44.8435735" lon="7.7494709"><ele>243.0</ele><time>2026-05-03T14:04:07.896Z</time></trkpt><trkpt lat="44.8438143" lon="7.7494541"><ele>244.0</ele><time>2026-05-03T14:04:08.904Z</time></trkpt><trkpt lat="44.8440568" lon="7.7494342"><ele>243.0</ele><time>2026-05-03T14:04:09.896Z</time></trkpt><trkpt lat="44.8443056" lon="7.7494147"><ele>242.0</ele><time>2026-05-03T14:04:10.898Z</time></trkpt><trkpt lat="44.8445579" lon="7.7493917"><ele>242.0</ele><time>2026-05-03T14:04:11.897Z</time></trkpt><trkpt lat="44.8448137" lon="7.7493749"><ele>242.0</ele><time>2026-05-03T14:04:12.899Z</time></trkpt><trkpt lat="44.8450738" lon="7.7493607"><ele>242.5</ele><time>2026-05-03T14:04:13.896Z</time></trkpt><trkpt lat="44.8453318" lon="7.7493374"><ele>243.0</ele><time>2026-05-03T14:04:14.891Z</time></trkpt><trkpt lat="44.845598" lon="7.7493155"><ele>243.0</ele><time>2026-05-03T14:04:15.898Z</time></trkpt><trkpt lat="44.8458655" lon="7.7492943"><ele>243.0</ele><time>2026-05-03T14:04:16.893Z</time></trkpt><trkpt lat="44.8461363" lon="7.7492737"><ele>242.5</ele><time>2026-05-03T14:04:17.894Z</time></trkpt><trkpt lat="44.8464081" lon="7.7492536"><ele>242.0</ele><time>2026-05-03T14:04:18.892Z</time></trkpt><trkpt lat="44.8466865" lon="7.7492361"><ele>243.5</ele><time>2026-05-03T14:04:19.894Z</time></trkpt><trkpt lat="44.8469749" lon="7.7492253"><ele>245.0</ele><time>2026-05-03T14:04:20.907Z</time></trkpt><trkpt lat="44.8472815" lon="7.7492172"><ele>245.0</ele><time>2026-05-03T14:04:21.898Z</time></trkpt><trkpt lat="44.8476039" lon="7.7492004"><ele>245.0</ele><time>2026-05-03T14:04:22.898Z</time></trkpt><trkpt lat="44.8479335" lon="7.7491827"><ele>244.0</ele><time>2026-05-03T14:04:23.899Z</time></trkpt><trkpt lat="44.8482407" lon="7.7491591"><ele>243.0</ele><time>2026-05-03T14:04:24.907Z</time></trkpt><trkpt lat="44.8485248" lon="7.7491343"><ele>241.5</ele><time>2026-05-03T14:04:25.896Z</time></trkpt><trkpt lat="44.848808" lon="7.7491105"><ele>240.0</ele><time>2026-05-03T14:04:26.895Z</time></trkpt><trkpt lat="44.849093" lon="7.7490927"><ele>241.5</ele><time>2026-05-03T14:04:27.899Z</time></trkpt><trkpt lat="44.8493675" lon="7.7490738"><ele>243.0</ele><time>2026-05-03T14:04:28.898Z</time></trkpt><trkpt lat="44.8496336" lon="7.7490543"><ele>243.0</ele><time>2026-05-03T14:04:29.894Z</time></trkpt><trkpt lat="44.8498989" lon="7.7490365"><ele>243.0</ele><time>2026-05-03T14:04:30.891Z</time></trkpt><trkpt lat="44.8501671" lon="7.7490219"><ele>243.5</ele><time>2026-05-03T14:04:31.901Z</time></trkpt><trkpt lat="44.8504261" lon="7.749007"><ele>244.0</ele><time>2026-05-03T14:04:32.893Z</time></trkpt><trkpt lat="44.850677" lon="7.7489826"><ele>244.0</ele><time>2026-05-03T14:04:33.901Z</time></trkpt><trkpt lat="44.850919" lon="7.7489534"><ele>244.0</ele><time>2026-05-03T14:04:34.899Z</time></trkpt><trkpt lat="44.8511564" lon="7.748928"><ele>244.0</ele><time>2026-05-03T14:04:35.891Z</time></trkpt><trkpt lat="44.8513726" lon="7.7489157"><ele>244.0</ele><time>2026-05-03T14:04:36.892Z</time></trkpt><trkpt lat="44.8515777" lon="7.7488967"><ele>244.0</ele><time>2026-05-03T14:04:37.892Z</time></trkpt><trkpt lat="44.8517726" lon="7.7488689"><ele>243.66666666666666</ele><time>2026-05-03T14:04:38.896Z</time></trkpt><trkpt lat="44.8519664" lon="7.7488281"><ele>243.33333333333331</ele><time>2026-05-03T14:04:39.896Z</time></trkpt><trkpt lat="44.852172" lon="7.7487877"><ele>243.0</ele><time>2026-05-03T14:04:40.892Z</time></trkpt><trkpt lat="44.852359" lon="7.7487562"><ele>243.0</ele><time>2026-05-03T14:04:41.916Z</time></trkpt><trkpt lat="44.8525412" lon="7.7487324"><ele>243.0</ele><time>2026-05-03T14:04:42.894Z</time></trkpt><trkpt lat="44.8527248" lon="7.7487066"><ele>243.0</ele><time>2026-05-03T14:04:43.914Z</time></trkpt><trkpt lat="44.8529137" lon="7.7486812"><ele>243.33333333333331</ele><time>2026-05-03T14:04:44.896Z</time></trkpt><trkpt lat="44.8530931" lon="7.7486552"><ele>243.66666666666666</ele><time>2026-05-03T14:04:45.89Z</time></trkpt><trkpt lat="44.853266" lon="7.7486338"><ele>244.0</ele><time>2026-05-03T14:04:46.898Z</time></trkpt><trkpt lat="44.8534278" lon="7.7486263"><ele>244.0</ele><time>2026-05-03T14:04:47.895Z</time></trkpt><trkpt lat="44.8535627" lon="7.7486043"><ele>243.99999999999997</ele><time>2026-05-03T14:04:48.897Z</time></trkpt><trkpt lat="44.8536671" lon="7.748581"><ele>243.99999999999997</ele><time>2026-05-03T14:04:49.887Z</time></trkpt><trkpt lat="44.8537456" lon="7.7485613"><ele>244.0</ele><time>2026-05-03T14:04:50.906Z</time></trkpt><trkpt lat="44.8538158" lon="7.7485467"><ele>244.0</ele><time>2026-05-03T14:04:52.894Z</time></trkpt><trkpt lat="44.853905" lon="7.7485224"><ele>244.0</ele><time>2026-05-03T14:04:54.904Z</time></trkpt><trkpt lat="44.8539823" lon="7.7485079"><ele>243.99999999999997</ele><time>2026-05-03T14:04:55.901Z</time></trkpt><trkpt lat="44.8540645" lon="7.7485016"><ele>243.99999999999997</ele><time>2026-05-03T14:04:56.905Z</time></trkpt><trkpt lat="44.8541576" lon="7.7485013"><ele>244.0</ele><time>2026-05-03T14:04:57.892Z</time></trkpt><trkpt lat="44.854267" lon="7.748493"><ele>244.0</ele><time>2026-05-03T14:04:58.896Z</time></trkpt><trkpt lat="44.8543981" lon="7.7485139"><ele>244.0</ele><time>2026-05-03T14:04:59.891Z</time></trkpt><trkpt lat="44.8545623" lon="7.7485504"><ele>244.0</ele><time>2026-05-03T14:05:00.896Z</time></trkpt><trkpt lat="44.8547697" lon="7.7486029"><ele>244.0</ele><time>2026-05-03T14:05:01.894Z</time></trkpt><trkpt lat="44.8549897" lon="7.7486634"><ele>243.66666666666666</ele><time>2026-05-03T14:05:02.896Z</time></trkpt><trkpt lat="44.8551847" lon="7.7487091"><ele>243.33333333333331</ele><time>2026-05-03T14:05:03.896Z</time></trkpt><trkpt lat="44.8553573" lon="7.7487253"><ele>243.0</ele><time>2026-05-03T14:05:04.896Z</time></trkpt><trkpt lat="44.8555182" lon="7.7487148"><ele>243.0</ele><time>2026-05-03T14:05:05.895Z</time></trkpt><trkpt lat="44.8556769" lon="7.7486945"><ele>243.0</ele><time>2026-05-03T14:05:06.889Z</time></trkpt><trkpt lat="44.8558262" lon="7.7486766"><ele>243.0</ele><time>2026-05-03T14:05:07.895Z</time></trkpt><trkpt lat="44.8559736" lon="7.7486586"><ele>242.25</ele><time>2026-05-03T14:05:08.891Z</time></trkpt><trkpt lat="44.8561138" lon="7.7486521"><ele>241.5</ele><time>2026-05-03T14:05:09.901Z</time></trkpt><trkpt lat="44.8562562" lon="7.7486482"><ele>240.75</ele><time>2026-05-03T14:05:10.899Z</time></trkpt><trkpt lat="44.8563916" lon="7.7486378"><ele>240.0</ele><time>2026-05-03T14:05:11.891Z</time></trkpt><trkpt lat="44.8565166" lon="7.7486376"><ele>240.0</ele><time>2026-05-03T14:05:12.905Z</time></trkpt><trkpt lat="44.8566256" lon="7.7486571"><ele>240.0</ele><time>2026-05-03T14:05:13.895Z</time></trkpt><trkpt lat="44.8567186" lon="7.7486801"><ele>240.0</ele><time>2026-05-03T14:05:14.906Z</time></trkpt><trkpt lat="44.8567948" lon="7.7486897"><ele>240.0</ele><time>2026-05-03T14:05:15.894Z</time></trkpt><trkpt lat="44.8568888" lon="7.7486558"><ele>240.0</ele><time>2026-05-03T14:05:17.896Z</time></trkpt><trkpt lat="44.8569631" lon="7.7486371"><ele>240.2</ele><time>2026-05-03T14:10:27.904Z</time></trkpt><trkpt lat="44.8570345" lon="7.7486304"><ele>240.4</ele><time>2026-05-03T14:10:28.899Z</time></trkpt><trkpt lat="44.8571348" lon="7.7486307"><ele>240.60000000000002</ele><time>2026-05-03T14:10:29.895Z</time></trkpt><trkpt lat="44.8572502" lon="7.7486255"><ele>240.8</ele><time>2026-05-03T14:10:30.892Z</time></trkpt><trkpt lat="44.8573764" lon="7.7486113"><ele>241.0</ele><time>2026-05-03T14:10:31.897Z</time></trkpt><trkpt lat="44.8575172" lon="7.7485863"><ele>240.66666666666666</ele><time>2026-05-03T14:10:32.892Z</time></trkpt><trkpt lat="44.8576724" lon="7.7485591"><ele>240.33333333333331</ele><time>2026-05-03T14:10:33.895Z</time></trkpt><trkpt lat="44.8578423" lon="7.7485385"><ele>240.0</ele><time>2026-05-03T14:10:34.899Z</time></trkpt><trkpt lat="44.8580195" lon="7.7485193"><ele>240.0</ele><time>2026-05-03T14:10:35.892Z</time></trkpt><trkpt lat="44.8582117" lon="7.7484959"><ele>240.0</ele><time>2026-05-03T14:10:36.896Z</time></trkpt><trkpt lat="44.8584243" lon="7.7484734"><ele>240.0</ele><time>2026-05-03T14:10:37.899Z</time></trkpt><trkpt lat="44.8586597" lon="7.7484471"><ele>240.0</ele><time>2026-05-03T14:10:38.902Z</time></trkpt><trkpt lat="44.8589428" lon="7.7484176"><ele>240.0</ele><time>2026-05-03T14:10:39.896Z</time></trkpt><trkpt lat="44.8592404" lon="7.7483815"><ele>240.0</ele><time>2026-05-03T14:10:40.903Z</time></trkpt><trkpt lat="44.8595467" lon="7.7483543"><ele>240.0</ele><time>2026-05-03T14:10:41.908Z</time></trkpt><trkpt lat="44.859886" lon="7.7483294"><ele>240.0</ele><time>2026-05-03T14:10:42.9Z</time></trkpt><trkpt lat="44.8602593" lon="7.7483035"><ele>240.0</ele><time>2026-05-03T14:10:43.917Z</time></trkpt><trkpt lat="44.8606331" lon="7.7482816"><ele>239.5</ele><time>2026-05-03T14:10:44.887Z</time></trkpt><trkpt lat="44.8609859" lon="7.7482664"><ele>239.0</ele><time>2026-05-03T14:10:45.898Z</time></trkpt><trkpt lat="44.8613082" lon="7.7482489"><ele>239.0</ele><time>2026-05-03T14:10:46.897Z</time></trkpt><trkpt lat="44.86162" lon="7.7482227"><ele>239.0</ele><time>2026-05-03T14:10:47.895Z</time></trkpt><trkpt lat="44.8619134" lon="7.7481968"><ele>239.5</ele><time>2026-05-03T14:10:48.889Z</time></trkpt><trkpt lat="44.862207" lon="7.7481678"><ele>240.0</ele><time>2026-05-03T14:10:49.893Z</time></trkpt><trkpt lat="44.8624959" lon="7.7481375"><ele>240.0</ele><time>2026-05-03T14:10:50.889Z</time></trkpt><trkpt lat="44.8627939" lon="7.7481128"><ele>240.0</ele><time>2026-05-03T14:10:51.893Z</time></trkpt><trkpt lat="44.8630925" lon="7.7480858"><ele>240.0</ele><time>2026-05-03T14:10:52.89Z</time></trkpt><trkpt lat="44.8633825" lon="7.7480647"><ele>240.0</ele><time>2026-05-03T14:10:53.906Z</time></trkpt><trkpt lat="44.8636766" lon="7.7480417"><ele>239.5</ele><time>2026-05-03T14:10:54.906Z</time></trkpt><trkpt lat="44.8639691" lon="7.7480193"><ele>239.0</ele><time>2026-05-03T14:10:55.898Z</time></trkpt><trkpt lat="44.8642568" lon="7.7479942"><ele>238.5</ele><time>2026-05-03T14:10:56.892Z</time></trkpt><trkpt lat="44.8645473" lon="7.7479709"><ele>238.0</ele><time>2026-05-03T14:10:57.887Z</time></trkpt><trkpt lat="44.8648422" lon="7.747947"><ele>238.0</ele><time>2026-05-03T14:10:58.903Z</time></trkpt><trkpt lat="44.8651462" lon="7.7479264"><ele>238.0</ele><time>2026-05-03T14:10:59.887Z</time></trkpt><trkpt lat="44.8654536" lon="7.7479081"><ele>238.0</ele><time>2026-05-03T14:11:00.899Z</time></trkpt><trkpt lat="44.8657652" lon="7.7478859"><ele>238.0</ele><time>2026-05-03T14:11:01.889Z</time></trkpt><trkpt lat="44.8660859" lon="7.7478611"><ele>239.0</ele><time>2026-05-03T14:11:02.888Z</time></trkpt><trkpt lat="44.866409" lon="7.7478415"><ele>240.0</ele><time>2026-05-03T14:11:03.894Z</time></trkpt><trkpt lat="44.8667364" lon="7.7478171"><ele>240.0</ele><time>2026-05-03T14:11:04.895Z</time></trkpt><trkpt lat="44.8670713" lon="7.7477878"><ele>240.0</ele><time>2026-05-03T14:11:05.895Z</time></trkpt><trkpt lat="44.8674102" lon="7.7477622"><ele>240.5</ele><time>2026-05-03T14:11:06.973Z</time></trkpt><trkpt lat="44.8677532" lon="7.747739"><ele>241.0</ele><time>2026-05-03T14:11:07.942Z</time></trkpt><trkpt lat="44.8680989" lon="7.7477156"><ele>241.5</ele><time>2026-05-03T14:11:08.94Z</time></trkpt><trkpt lat="44.8684434" lon="7.7476934"><ele>242.0</ele><time>2026-05-03T14:11:09.944Z</time></trkpt><trkpt lat="44.8687935" lon="7.7476745"><ele>242.0</ele><time>2026-05-03T14:11:10.949Z</time></trkpt><trkpt lat="44.8691471" lon="7.7476551"><ele>242.0</ele><time>2026-05-03T14:11:11.952Z</time></trkpt><trkpt lat="44.8695049" lon="7.7476342"><ele>242.0</ele><time>2026-05-03T14:11:12.939Z</time></trkpt><trkpt lat="44.8698645" lon="7.74762"><ele>242.0</ele><time>2026-05-03T14:11:13.944Z</time></trkpt><trkpt lat="44.8702191" lon="7.7476052"><ele>241.0</ele><time>2026-05-03T14:11:14.943Z</time></trkpt><trkpt lat="44.8705791" lon="7.7475871"><ele>240.0</ele><time>2026-05-03T14:11:15.948Z</time></trkpt><trkpt lat="44.8709311" lon="7.7475678"><ele>239.5</ele><time>2026-05-03T14:11:16.947Z</time></trkpt><trkpt lat="44.8712766" lon="7.747543"><ele>239.0</ele><time>2026-05-03T14:11:17.948Z</time></trkpt><trkpt lat="44.871615" lon="7.7475125"><ele>239.5</ele><time>2026-05-03T14:11:18.948Z</time></trkpt><trkpt lat="44.8719459" lon="7.7474839"><ele>240.0</ele><time>2026-05-03T14:11:19.946Z</time></trkpt><trkpt lat="44.8722694" lon="7.7474572"><ele>240.0</ele><time>2026-05-03T14:11:20.946Z</time></trkpt><trkpt lat="44.8725905" lon="7.747432"><ele>240.0</ele><time>2026-05-03T14:11:21.948Z</time></trkpt><trkpt lat="44.8729096" lon="7.7474084"><ele>240.0</ele><time>2026-05-03T14:11:22.944Z</time></trkpt><trkpt lat="44.8732285" lon="7.7473845"><ele>240.0</ele><time>2026-05-03T14:11:23.955Z</time></trkpt><trkpt lat="44.8735455" lon="7.7473617"><ele>240.0</ele><time>2026-05-03T14:11:24.938Z</time></trkpt><trkpt lat="44.873866" lon="7.747344"><ele>240.0</ele><time>2026-05-03T14:11:25.941Z</time></trkpt><trkpt lat="44.8741829" lon="7.7473155"><ele>239.0</ele><time>2026-05-03T14:11:26.943Z</time></trkpt><trkpt lat="44.874502" lon="7.7472869"><ele>238.0</ele><time>2026-05-03T14:11:27.947Z</time></trkpt><trkpt lat="44.8748239" lon="7.7472573"><ele>237.5</ele><time>2026-05-03T14:11:28.94Z</time></trkpt><trkpt lat="44.8751483" lon="7.7472308"><ele>237.0</ele><time>2026-05-03T14:11:29.946Z</time></trkpt><trkpt lat="44.875473" lon="7.7472076"><ele>237.0</ele><time>2026-05-03T14:11:30.951Z</time></trkpt><trkpt lat="44.8757992" lon="7.7471788"><ele>237.0</ele><time>2026-05-03T14:11:31.938Z</time></trkpt><trkpt lat="44.8761216" lon="7.7471515"><ele>237.0</ele><time>2026-05-03T14:11:32.942Z</time></trkpt><trkpt lat="44.8764351" lon="7.7471211"><ele>237.0</ele><time>2026-05-03T14:11:33.952Z</time></trkpt><trkpt lat="44.8767347" lon="7.7470894"><ele>237.5</ele><time>2026-05-03T14:11:34.941Z</time></trkpt><trkpt lat="44.8770141" lon="7.7470638"><ele>238.0</ele><time>2026-05-03T14:11:35.94Z</time></trkpt><trkpt lat="44.8772857" lon="7.7470399"><ele>238.0</ele><time>2026-05-03T14:11:36.955Z</time></trkpt><trkpt lat="44.8775481" lon="7.7470148"><ele>238.0</ele><time>2026-05-03T14:11:37.95Z</time></trkpt><trkpt lat="44.8778079" lon="7.7469898"><ele>238.0</ele><time>2026-05-03T14:11:38.942Z</time></trkpt><trkpt lat="44.8780672" lon="7.7469674"><ele>238.0</ele><time>2026-05-03T14:11:39.944Z</time></trkpt><trkpt lat="44.8783267" lon="7.7469463"><ele>236.5</ele><time>2026-05-03T14:11:40.948Z</time></trkpt><trkpt lat="44.8785948" lon="7.7469298"><ele>235.0</ele><time>2026-05-03T14:11:41.95Z</time></trkpt><trkpt lat="44.8788656" lon="7.7469084"><ele>235.0</ele><time>2026-05-03T14:11:42.949Z</time></trkpt><trkpt lat="44.8791443" lon="7.7468853"><ele>235.0</ele><time>2026-05-03T14:11:43.943Z</time></trkpt><trkpt lat="44.8794284" lon="7.7468611"><ele>235.5</ele><time>2026-05-03T14:11:44.945Z</time></trkpt><trkpt lat="44.8797214" lon="7.746836"><ele>236.0</ele><time>2026-05-03T14:11:45.955Z</time></trkpt><trkpt lat="44.8800134" lon="7.7468133"><ele>236.5</ele><time>2026-05-03T14:11:46.942Z</time></trkpt><trkpt lat="44.8803168" lon="7.7467914"><ele>237.0</ele><time>2026-05-03T14:11:47.957Z</time></trkpt><trkpt lat="44.8806249" lon="7.7467668"><ele>237.0</ele><time>2026-05-03T14:11:48.945Z</time></trkpt><trkpt lat="44.8809351" lon="7.746743"><ele>237.0</ele><time>2026-05-03T14:11:49.944Z</time></trkpt><trkpt lat="44.8812415" lon="7.7467214"><ele>237.0</ele><time>2026-05-03T14:11:50.938Z</time></trkpt><trkpt lat="44.8815397" lon="7.7466946"><ele>237.0</ele><time>2026-05-03T14:11:51.958Z</time></trkpt><trkpt lat="44.8818329" lon="7.7466704"><ele>236.5</ele><time>2026-05-03T14:11:52.945Z</time></trkpt><trkpt lat="44.8821285" lon="7.7466433"><ele>236.0</ele><time>2026-05-03T14:11:53.952Z</time></trkpt><trkpt lat="44.8824277" lon="7.7466204"><ele>235.5</ele><time>2026-05-03T14:11:54.963Z</time></trkpt><trkpt lat="44.8827238" lon="7.7465962"><ele>235.0</ele><time>2026-05-03T14:11:55.951Z</time></trkpt><trkpt lat="44.8830235" lon="7.7465709"><ele>235.0</ele><time>2026-05-03T14:11:56.953Z</time></trkpt><trkpt lat="44.8833275" lon="7.746547"><ele>235.0</ele><time>2026-05-03T14:11:57.948Z</time></trkpt><trkpt lat="44.8836305" lon="7.7465195"><ele>235.0</ele><time>2026-05-03T14:11:58.946Z</time></trkpt><trkpt lat="44.8839335" lon="7.7464977"><ele>235.0</ele><time>2026-05-03T14:11:59.94Z</time></trkpt><trkpt lat="44.8842416" lon="7.746477"><ele>235.5</ele><time>2026-05-03T14:12:00.942Z</time></trkpt><trkpt lat="44.8845444" lon="7.7464506"><ele>236.0</ele><time>2026-05-03T14:12:01.947Z</time></trkpt><trkpt lat="44.8848446" lon="7.7464299"><ele>235.5</ele><time>2026-05-03T14:12:02.952Z</time></trkpt><trkpt lat="44.8851481" lon="7.7464007"><ele>235.0</ele><time>2026-05-03T14:12:03.955Z</time></trkpt><trkpt lat="44.8854501" lon="7.7463751"><ele>235.0</ele><time>2026-05-03T14:12:04.946Z</time></trkpt><trkpt lat="44.8857495" lon="7.7463496"><ele>235.0</ele><time>2026-05-03T14:12:05.944Z</time></trkpt><trkpt lat="44.8860506" lon="7.7463247"><ele>235.0</ele><time>2026-05-03T14:12:06.952Z</time></trkpt><trkpt lat="44.8863434" lon="7.7462993"><ele>235.0</ele><time>2026-05-03T14:12:07.954Z</time></trkpt><trkpt lat="44.8866326" lon="7.7462768"><ele>235.5</ele><time>2026-05-03T14:12:08.946Z</time></trkpt><trkpt lat="44.8869174" lon="7.7462569"><ele>236.0</ele><time>2026-05-03T14:12:09.944Z</time></trkpt><trkpt lat="44.8871974" lon="7.7462353"><ele>236.0</ele><time>2026-05-03T14:12:10.956Z</time></trkpt><trkpt lat="44.8874723" lon="7.7462122"><ele>236.0</ele><time>2026-05-03T14:12:11.943Z</time></trkpt><trkpt lat="44.8877517" lon="7.7461855"><ele>235.5</ele><time>2026-05-03T14:12:12.944Z</time></trkpt><trkpt lat="44.888027" lon="7.7461642"><ele>235.0</ele><time>2026-05-03T14:12:13.945Z</time></trkpt><trkpt lat="44.8882903" lon="7.7461467"><ele>234.5</ele><time>2026-05-03T14:12:14.949Z</time></trkpt><trkpt lat="44.8885379" lon="7.7461296"><ele>234.0</ele><time>2026-05-03T14:12:15.95Z</time></trkpt><trkpt lat="44.8887794" lon="7.7461084"><ele>234.0</ele><time>2026-05-03T14:12:16.949Z</time></trkpt><trkpt lat="44.8890046" lon="7.7460906"><ele>234.0</ele><time>2026-05-03T14:12:17.953Z</time></trkpt><trkpt lat="44.8892157" lon="7.7460719"><ele>234.0</ele><time>2026-05-03T14:12:18.95Z</time></trkpt><trkpt lat="44.8894074" lon="7.7460557"><ele>234.66666666666669</ele><time>2026-05-03T14:12:19.946Z</time></trkpt><trkpt lat="44.8895811" lon="7.7460417"><ele>235.33333333333334</ele><time>2026-05-03T14:12:20.968Z</time></trkpt><trkpt lat="44.8897501" lon="7.7460253"><ele>236.0</ele><time>2026-05-03T14:12:21.947Z</time></trkpt><trkpt lat="44.8899164" lon="7.7460117"><ele>236.0</ele><time>2026-05-03T14:12:22.945Z</time></trkpt><trkpt lat="44.8900759" lon="7.7460018"><ele>236.0</ele><time>2026-05-03T14:12:23.942Z</time></trkpt><trkpt lat="44.890234" lon="7.7459875"><ele>236.0</ele><time>2026-05-03T14:12:24.948Z</time></trkpt><trkpt lat="44.8903922" lon="7.7459761"><ele>235.33333333333334</ele><time>2026-05-03T14:12:25.955Z</time></trkpt><trkpt lat="44.8905611" lon="7.7459614"><ele>234.66666666666669</ele><time>2026-05-03T14:12:26.951Z</time></trkpt><trkpt lat="44.8907309" lon="7.745948"><ele>234.0</ele><time>2026-05-03T14:12:27.943Z</time></trkpt><trkpt lat="44.8909037" lon="7.7459336"><ele>234.0</ele><time>2026-05-03T14:12:28.942Z</time></trkpt><trkpt lat="44.8910828" lon="7.7459165"><ele>234.0</ele><time>2026-05-03T14:12:29.943Z</time></trkpt><trkpt lat="44.8912684" lon="7.7458995"><ele>234.0</ele><time>2026-05-03T14:12:30.944Z</time></trkpt><trkpt lat="44.8914556" lon="7.7458828"><ele>234.0</ele><time>2026-05-03T14:12:31.947Z</time></trkpt><trkpt lat="44.8916432" lon="7.7458682"><ele>234.0</ele><time>2026-05-03T14:12:32.95Z</time></trkpt><trkpt lat="44.891834" lon="7.745857"><ele>234.0</ele><time>2026-05-03T14:12:33.942Z</time></trkpt><trkpt lat="44.8920312" lon="7.7458403"><ele>234.0</ele><time>2026-05-03T14:12:34.954Z</time></trkpt><trkpt lat="44.8922391" lon="7.7458253"><ele>234.0</ele><time>2026-05-03T14:12:35.975Z</time></trkpt><trkpt lat="44.8924597" lon="7.7458072"><ele>234.0</ele><time>2026-05-03T14:12:36.945Z</time></trkpt><trkpt lat="44.8926938" lon="7.7457869"><ele>235.0</ele><time>2026-05-03T14:12:37.954Z</time></trkpt><trkpt lat="44.8929382" lon="7.7457677"><ele>236.0</ele><time>2026-05-03T14:12:38.944Z</time></trkpt><trkpt lat="44.8931914" lon="7.7457471"><ele>234.5</ele><time>2026-05-03T14:12:39.948Z</time></trkpt><trkpt lat="44.8934526" lon="7.745721"><ele>233.0</ele><time>2026-05-03T14:12:40.952Z</time></trkpt><trkpt lat="44.8937163" lon="7.7456982"><ele>233.0</ele><time>2026-05-03T14:12:41.949Z</time></trkpt><trkpt lat="44.8939806" lon="7.7456805"><ele>233.0</ele><time>2026-05-03T14:12:42.94Z</time></trkpt><trkpt lat="44.8942458" lon="7.7456637"><ele>232.0</ele><time>2026-05-03T14:12:43.947Z</time></trkpt><trkpt lat="44.8945162" lon="7.7456429"><ele>231.0</ele><time>2026-05-03T14:12:44.949Z</time></trkpt><trkpt lat="44.8947865" lon="7.7456241"><ele>231.0</ele><time>2026-05-03T14:12:45.947Z</time></trkpt><trkpt lat="44.8950609" lon="7.7456031"><ele>231.0</ele><time>2026-05-03T14:12:46.946Z</time></trkpt><trkpt lat="44.8953346" lon="7.74558"><ele>231.5</ele><time>2026-05-03T14:12:47.951Z</time></trkpt><trkpt lat="44.895606" lon="7.745558"><ele>232.0</ele><time>2026-05-03T14:12:48.942Z</time></trkpt><trkpt lat="44.8958744" lon="7.7455347"><ele>233.5</ele><time>2026-05-03T14:12:49.958Z</time></trkpt><trkpt lat="44.8961475" lon="7.7455104"><ele>235.0</ele><time>2026-05-03T14:12:50.947Z</time></trkpt><trkpt lat="44.8964213" lon="7.7454906"><ele>235.0</ele><time>2026-05-03T14:12:51.945Z</time></trkpt><trkpt lat="44.8966986" lon="7.7454689"><ele>235.0</ele><time>2026-05-03T14:12:52.948Z</time></trkpt><trkpt lat="44.8969791" lon="7.7454443"><ele>234.0</ele><time>2026-05-03T14:12:53.944Z</time></trkpt><trkpt lat="44.8972626" lon="7.7454172"><ele>233.0</ele><time>2026-05-03T14:12:54.948Z</time></trkpt><trkpt lat="44.8975466" lon="7.7453923"><ele>233.5</ele><time>2026-05-03T14:12:55.948Z</time></trkpt><trkpt lat="44.8978282" lon="7.7453697"><ele>234.0</ele><time>2026-05-03T14:12:56.946Z</time></trkpt><trkpt lat="44.898113" lon="7.7453433"><ele>234.0</ele><time>2026-05-03T14:12:57.949Z</time></trkpt><trkpt lat="44.8983952" lon="7.7453154"><ele>234.0</ele><time>2026-05-03T14:12:58.955Z</time></trkpt><trkpt lat="44.8986764" lon="7.7452812"><ele>235.0</ele><time>2026-05-03T14:12:59.951Z</time></trkpt><trkpt lat="44.8989536" lon="7.745245"><ele>236.0</ele><time>2026-05-03T14:13:00.948Z</time></trkpt><trkpt lat="44.8992222" lon="7.7452093"><ele>236.5</ele><time>2026-05-03T14:13:01.952Z</time></trkpt><trkpt lat="44.8994797" lon="7.7451699"><ele>237.0</ele><time>2026-05-03T14:13:02.945Z</time></trkpt><trkpt lat="44.8997368" lon="7.7451252"><ele>237.0</ele><time>2026-05-03T14:13:03.947Z</time></trkpt><trkpt lat="44.8999945" lon="7.7450796"><ele>237.0</ele><time>2026-05-03T14:13:04.959Z</time></trkpt><trkpt lat="44.9002494" lon="7.7450284"><ele>235.5</ele><time>2026-05-03T14:13:05.948Z</time></trkpt><trkpt lat="44.9005128" lon="7.7449685"><ele>234.0</ele><time>2026-05-03T14:13:06.946Z</time></trkpt><trkpt lat="44.9007741" lon="7.7449055"><ele>235.0</ele><time>2026-05-03T14:13:07.945Z</time></trkpt><trkpt lat="44.9010429" lon="7.744844"><ele>236.0</ele><time>2026-05-03T14:13:08.953Z</time></trkpt><trkpt lat="44.9013105" lon="7.7447753"><ele>236.0</ele><time>2026-05-03T14:13:09.955Z</time></trkpt><trkpt lat="44.9015716" lon="7.7447065"><ele>236.0</ele><time>2026-05-03T14:13:10.945Z</time></trkpt><trkpt lat="44.9018294" lon="7.7446322"><ele>235.0</ele><time>2026-05-03T14:13:11.959Z</time></trkpt><trkpt lat="44.9020839" lon="7.7445544"><ele>234.0</ele><time>2026-05-03T14:13:12.956Z</time></trkpt><trkpt lat="44.9023367" lon="7.7444688"><ele>234.0</ele><time>2026-05-03T14:13:13.949Z</time></trkpt><trkpt lat="44.9025908" lon="7.7443843"><ele>234.0</ele><time>2026-05-03T14:13:14.948Z</time></trkpt><trkpt lat="44.9028517" lon="7.7442877"><ele>234.0</ele><time>2026-05-03T14:13:15.947Z</time></trkpt><trkpt lat="44.9031157" lon="7.7441937"><ele>234.0</ele><time>2026-05-03T14:13:16.95Z</time></trkpt><trkpt lat="44.9033801" lon="7.744096"><ele>233.5</ele><time>2026-05-03T14:13:17.951Z</time></trkpt><trkpt lat="44.9036484" lon="7.7439926"><ele>233.0</ele><time>2026-05-03T14:13:18.945Z</time></trkpt><trkpt lat="44.903918" lon="7.7438853"><ele>233.0</ele><time>2026-05-03T14:13:19.948Z</time></trkpt><trkpt lat="44.9041899" lon="7.7437728"><ele>233.0</ele><time>2026-05-03T14:13:20.944Z</time></trkpt><trkpt lat="44.9044606" lon="7.7436519"><ele>234.0</ele><time>2026-05-03T14:13:21.943Z</time></trkpt><trkpt lat="44.9047382" lon="7.7435181"><ele>235.0</ele><time>2026-05-03T14:13:22.947Z</time></trkpt><trkpt lat="44.9050222" lon="7.7433826"><ele>235.0</ele><time>2026-05-03T14:13:23.957Z</time></trkpt><trkpt lat="44.9053091" lon="7.7432416"><ele>235.0</ele><time>2026-05-03T14:13:24.95Z</time></trkpt><trkpt lat="44.9055979" lon="7.7430947"><ele>235.0</ele><time>2026-05-03T14:13:25.956Z</time></trkpt><trkpt lat="44.9058864" lon="7.7429451"><ele>235.0</ele><time>2026-05-03T14:13:26.946Z</time></trkpt><trkpt lat="44.906169" lon="7.7427907"><ele>235.5</ele><time>2026-05-03T14:13:27.955Z</time></trkpt><trkpt lat="44.9064487" lon="7.7426342"><ele>236.0</ele><time>2026-05-03T14:13:28.94Z</time></trkpt><trkpt lat="44.906725" lon="7.742474"><ele>235.0</ele><time>2026-05-03T14:13:29.963Z</time></trkpt><trkpt lat="44.9069936" lon="7.7423135"><ele>234.0</ele><time>2026-05-03T14:13:30.949Z</time></trkpt><trkpt lat="44.9072567" lon="7.7421519"><ele>234.0</ele><time>2026-05-03T14:13:31.945Z</time></trkpt><trkpt lat="44.9075147" lon="7.741989"><ele>234.0</ele><time>2026-05-03T14:13:32.959Z</time></trkpt><trkpt lat="44.9077585" lon="7.7418284"><ele>233.5</ele><time>2026-05-03T14:13:33.954Z</time></trkpt><trkpt lat="44.9079901" lon="7.7416756"><ele>233.0</ele><time>2026-05-03T14:13:34.946Z</time></trkpt><trkpt lat="44.9082097" lon="7.7415282"><ele>231.5</ele><time>2026-05-03T14:13:35.95Z</time></trkpt><trkpt lat="44.9084206" lon="7.7413845"><ele>230.0</ele><time>2026-05-03T14:13:36.961Z</time></trkpt><trkpt lat="44.9086321" lon="7.7412387"><ele>230.0</ele><time>2026-05-03T14:13:37.944Z</time></trkpt><trkpt lat="44.9088432" lon="7.7410943"><ele>230.0</ele><time>2026-05-03T14:13:38.944Z</time></trkpt><trkpt lat="44.9090574" lon="7.7409467"><ele>231.0</ele><time>2026-05-03T14:13:39.943Z</time></trkpt><trkpt lat="44.9092656" lon="7.7408039"><ele>232.0</ele><time>2026-05-03T14:13:40.95Z</time></trkpt><trkpt lat="44.9094656" lon="7.7406671"><ele>232.0</ele><time>2026-05-03T14:13:41.949Z</time></trkpt><trkpt lat="44.9096679" lon="7.7405268"><ele>232.0</ele><time>2026-05-03T14:13:42.946Z</time></trkpt><trkpt lat="44.9098763" lon="7.7403834"><ele>232.0</ele><time>2026-05-03T14:13:43.946Z</time></trkpt><trkpt lat="44.9100881" lon="7.740236"><ele>232.0</ele><time>2026-05-03T14:13:44.946Z</time></trkpt><trkpt lat="44.9103063" lon="7.7400854"><ele>232.0</ele><time>2026-05-03T14:13:45.945Z</time></trkpt><trkpt lat="44.9105319" lon="7.7399289"><ele>232.0</ele><time>2026-05-03T14:13:46.941Z</time></trkpt><trkpt lat="44.9107614" lon="7.7397724"><ele>233.0</ele><time>2026-05-03T14:13:47.944Z</time></trkpt><trkpt lat="44.9109955" lon="7.7396146"><ele>234.0</ele><time>2026-05-03T14:13:48.946Z</time></trkpt><trkpt lat="44.9112385" lon="7.7394494"><ele>233.0</ele><time>2026-05-03T14:13:49.949Z</time></trkpt><trkpt lat="44.9114857" lon="7.7392814"><ele>232.0</ele><time>2026-05-03T14:13:50.945Z</time></trkpt><trkpt lat="44.9117353" lon="7.7391097"><ele>233.0</ele><time>2026-05-03T14:13:51.941Z</time></trkpt><trkpt lat="44.9119811" lon="7.7389394"><ele>234.0</ele><time>2026-05-03T14:13:52.943Z</time></trkpt><trkpt lat="44.9122282" lon="7.7387702"><ele>234.0</ele><time>2026-05-03T14:13:53.943Z</time></trkpt><trkpt lat="44.9124747" lon="7.7385996"><ele>234.0</ele><time>2026-05-03T14:13:54.949Z</time></trkpt><trkpt lat="44.9127213" lon="7.7384286"><ele>232.0</ele><time>2026-05-03T14:13:55.948Z</time></trkpt><trkpt lat="44.9129667" lon="7.7382609"><ele>230.0</ele><time>2026-05-03T14:13:56.945Z</time></trkpt><trkpt lat="44.9132122" lon="7.7380943"><ele>230.5</ele><time>2026-05-03T14:13:57.939Z</time></trkpt><trkpt lat="44.9134576" lon="7.7379289"><ele>231.0</ele><time>2026-05-03T14:13:58.95Z</time></trkpt><trkpt lat="44.913702" lon="7.7377607"><ele>230.5</ele><time>2026-05-03T14:13:59.946Z</time></trkpt><trkpt lat="44.9139431" lon="7.7375947"><ele>230.0</ele><time>2026-05-03T14:14:00.948Z</time></trkpt><trkpt lat="44.9141831" lon="7.7374292"><ele>230.5</ele><time>2026-05-03T14:14:01.948Z</time></trkpt><trkpt lat="44.9144274" lon="7.7372615"><ele>231.0</ele><time>2026-05-03T14:14:02.946Z</time></trkpt><trkpt lat="44.9146654" lon="7.7370995"><ele>231.0</ele><time>2026-05-03T14:14:03.942Z</time></trkpt><trkpt lat="44.9148958" lon="7.7369417"><ele>231.0</ele><time>2026-05-03T14:14:04.942Z</time></trkpt><trkpt lat="44.9151233" lon="7.736785"><ele>229.5</ele><time>2026-05-03T14:14:05.959Z</time></trkpt><trkpt lat="44.9153515" lon="7.736626"><ele>228.0</ele><time>2026-05-03T14:14:06.951Z</time></trkpt><trkpt lat="44.9155867" lon="7.7364635"><ele>228.0</ele><time>2026-05-03T14:14:07.951Z</time></trkpt><trkpt lat="44.9158223" lon="7.7363001"><ele>228.0</ele><time>2026-05-03T14:14:08.944Z</time></trkpt><trkpt lat="44.9160603" lon="7.7361341"><ele>228.0</ele><time>2026-05-03T14:14:09.948Z</time></trkpt><trkpt lat="44.9163048" lon="7.7359692"><ele>228.0</ele><time>2026-05-03T14:14:10.944Z</time></trkpt><trkpt lat="44.9165517" lon="7.7358029"><ele>229.5</ele><time>2026-05-03T14:14:11.951Z</time></trkpt><trkpt lat="44.9168006" lon="7.7356336"><ele>231.0</ele><time>2026-05-03T14:14:12.944Z</time></trkpt><trkpt lat="44.9170516" lon="7.7354587"><ele>231.0</ele><time>2026-05-03T14:14:13.947Z</time></trkpt><trkpt lat="44.9173037" lon="7.7352848"><ele>231.0</ele><time>2026-05-03T14:14:14.951Z</time></trkpt><trkpt lat="44.9175574" lon="7.7351088"><ele>230.5</ele><time>2026-05-03T14:14:15.947Z</time></trkpt><trkpt lat="44.9178112" lon="7.7349326"><ele>230.0</ele><time>2026-05-03T14:14:16.953Z</time></trkpt><trkpt lat="44.9180671" lon="7.7347566"><ele>230.0</ele><time>2026-05-03T14:14:17.947Z</time></trkpt><trkpt lat="44.9183181" lon="7.7345892"><ele>230.0</ele><time>2026-05-03T14:14:18.939Z</time></trkpt><trkpt lat="44.9185709" lon="7.7344174"><ele>230.0</ele><time>2026-05-03T14:14:19.946Z</time></trkpt><trkpt lat="44.918825" lon="7.7342446"><ele>230.0</ele><time>2026-05-03T14:14:20.946Z</time></trkpt><trkpt lat="44.9190778" lon="7.7340696"><ele>228.0</ele><time>2026-05-03T14:14:21.949Z</time></trkpt><trkpt lat="44.9193311" lon="7.733894"><ele>226.0</ele><time>2026-05-03T14:14:22.935Z</time></trkpt><trkpt lat="44.9195831" lon="7.7337205"><ele>226.5</ele><time>2026-05-03T14:14:23.959Z</time></trkpt><trkpt lat="44.9198382" lon="7.733545"><ele>227.0</ele><time>2026-05-03T14:14:24.943Z</time></trkpt><trkpt lat="44.9200928" lon="7.7333703"><ele>227.0</ele><time>2026-05-03T14:14:25.95Z</time></trkpt><trkpt lat="44.9203374" lon="7.7332016"><ele>227.0</ele><time>2026-05-03T14:14:26.945Z</time></trkpt><trkpt lat="44.9205825" lon="7.7330335"><ele>227.0</ele><time>2026-05-03T14:14:27.955Z</time></trkpt><trkpt lat="44.9208297" lon="7.7328647"><ele>227.0</ele><time>2026-05-03T14:14:28.942Z</time></trkpt><trkpt lat="44.9210758" lon="7.7326943"><ele>227.0</ele><time>2026-05-03T14:14:29.947Z</time></trkpt><trkpt lat="44.9213215" lon="7.7325243"><ele>227.0</ele><time>2026-05-03T14:14:30.945Z</time></trkpt><trkpt lat="44.9215678" lon="7.7323538"><ele>227.5</ele><time>2026-05-03T14:14:31.942Z</time></trkpt><trkpt lat="44.9218132" lon="7.7321853"><ele>228.0</ele><time>2026-05-03T14:14:32.95Z</time></trkpt><trkpt lat="44.9220579" lon="7.7320189"><ele>230.0</ele><time>2026-05-03T14:14:33.946Z</time></trkpt><trkpt lat="44.9222995" lon="7.7318551"><ele>232.0</ele><time>2026-05-03T14:14:34.937Z</time></trkpt><trkpt lat="44.9225351" lon="7.7316909"><ele>231.5</ele><time>2026-05-03T14:14:35.959Z</time></trkpt><trkpt lat="44.9227625" lon="7.7315357"><ele>231.0</ele><time>2026-05-03T14:14:36.951Z</time></trkpt><trkpt lat="44.9229933" lon="7.7313833"><ele>231.0</ele><time>2026-05-03T14:14:37.944Z</time></trkpt><trkpt lat="44.9232219" lon="7.7312262"><ele>231.0</ele><time>2026-05-03T14:14:38.947Z</time></trkpt><trkpt lat="44.9234513" lon="7.7310682"><ele>229.5</ele><time>2026-05-03T14:14:39.948Z</time></trkpt><trkpt lat="44.9236797" lon="7.7309103"><ele>228.0</ele><time>2026-05-03T14:14:40.949Z</time></trkpt><trkpt lat="44.923906" lon="7.7307551"><ele>228.0</ele><time>2026-05-03T14:14:41.93Z</time></trkpt><trkpt lat="44.9241329" lon="7.7305996"><ele>228.0</ele><time>2026-05-03T14:14:42.953Z</time></trkpt><trkpt lat="44.924361" lon="7.7304411"><ele>227.5</ele><time>2026-05-03T14:14:43.94Z</time></trkpt><trkpt lat="44.9245909" lon="7.7302845"><ele>227.0</ele><time>2026-05-03T14:14:44.947Z</time></trkpt><trkpt lat="44.9248214" lon="7.7301249"><ele>227.0</ele><time>2026-05-03T14:14:45.933Z</time></trkpt><trkpt lat="44.9250541" lon="7.729967"><ele>227.0</ele><time>2026-05-03T14:14:46.953Z</time></trkpt><trkpt lat="44.9252925" lon="7.7298066"><ele>226.0</ele><time>2026-05-03T14:14:47.939Z</time></trkpt><trkpt lat="44.9255327" lon="7.7296404"><ele>225.0</ele><time>2026-05-03T14:14:48.946Z</time></trkpt><trkpt lat="44.9257747" lon="7.7294733"><ele>225.0</ele><time>2026-05-03T14:14:49.943Z</time></trkpt><trkpt lat="44.9260227" lon="7.7293026"><ele>225.0</ele><time>2026-05-03T14:14:50.941Z</time></trkpt><trkpt lat="44.9262709" lon="7.7291315"><ele>225.0</ele><time>2026-05-03T14:14:51.937Z</time></trkpt><trkpt lat="44.9265224" lon="7.728956"><ele>225.0</ele><time>2026-05-03T14:14:52.943Z</time></trkpt><trkpt lat="44.9267751" lon="7.7287828"><ele>225.5</ele><time>2026-05-03T14:14:53.943Z</time></trkpt><trkpt lat="44.9270323" lon="7.7286059"><ele>226.0</ele><time>2026-05-03T14:14:54.947Z</time></trkpt><trkpt lat="44.927289" lon="7.7284287"><ele>226.0</ele><time>2026-05-03T14:14:55.952Z</time></trkpt><trkpt lat="44.9275519" lon="7.7282479"><ele>226.0</ele><time>2026-05-03T14:14:56.947Z</time></trkpt><trkpt lat="44.9278148" lon="7.7280664"><ele>226.0</ele><time>2026-05-03T14:14:57.953Z</time></trkpt><trkpt lat="44.928079" lon="7.7278848"><ele>226.0</ele><time>2026-05-03T14:14:58.952Z</time></trkpt><trkpt lat="44.9283409" lon="7.7277012"><ele>225.5</ele><time>2026-05-03T14:14:59.95Z</time></trkpt><trkpt lat="44.9285994" lon="7.7275254"><ele>225.0</ele><time>2026-05-03T14:15:00.953Z</time></trkpt><trkpt lat="44.9288525" lon="7.7273554"><ele>225.0</ele><time>2026-05-03T14:15:01.946Z</time></trkpt><trkpt lat="44.9290996" lon="7.7271867"><ele>225.0</ele><time>2026-05-03T14:15:02.944Z</time></trkpt><trkpt lat="44.9293446" lon="7.7270185"><ele>225.0</ele><time>2026-05-03T14:15:03.941Z</time></trkpt><trkpt lat="44.9295874" lon="7.7268554"><ele>225.0</ele><time>2026-05-03T14:15:04.946Z</time></trkpt><trkpt lat="44.9298285" lon="7.7266946"><ele>225.5</ele><time>2026-05-03T14:15:05.953Z</time></trkpt><trkpt lat="44.9300686" lon="7.7265253"><ele>226.0</ele><time>2026-05-03T14:15:06.959Z</time></trkpt><trkpt lat="44.9303124" lon="7.7263555"><ele>226.0</ele><time>2026-05-03T14:15:07.951Z</time></trkpt><trkpt lat="44.9305552" lon="7.726186"><ele>226.0</ele><time>2026-05-03T14:15:08.951Z</time></trkpt><trkpt lat="44.9307915" lon="7.7260223"><ele>226.0</ele><time>2026-05-03T14:15:09.943Z</time></trkpt><trkpt lat="44.9310246" lon="7.725861"><ele>226.0</ele><time>2026-05-03T14:15:10.948Z</time></trkpt><trkpt lat="44.931265" lon="7.7257005"><ele>226.0</ele><time>2026-05-03T14:15:11.949Z</time></trkpt><trkpt lat="44.9314943" lon="7.7255412"><ele>226.0</ele><time>2026-05-03T14:15:12.948Z</time></trkpt><trkpt lat="44.9317211" lon="7.7253854"><ele>225.0</ele><time>2026-05-03T14:15:13.953Z</time></trkpt><trkpt lat="44.9319456" lon="7.7252308"><ele>224.0</ele><time>2026-05-03T14:15:14.953Z</time></trkpt><trkpt lat="44.9321719" lon="7.7250754"><ele>225.5</ele><time>2026-05-03T14:15:15.946Z</time></trkpt><trkpt lat="44.9323977" lon="7.7249174"><ele>227.0</ele><time>2026-05-03T14:15:16.954Z</time></trkpt><trkpt lat="44.9326206" lon="7.7247631"><ele>227.0</ele><time>2026-05-03T14:15:17.948Z</time></trkpt><trkpt lat="44.9328436" lon="7.7246087"><ele>227.0</ele><time>2026-05-03T14:15:18.941Z</time></trkpt><trkpt lat="44.9330659" lon="7.7244569"><ele>226.5</ele><time>2026-05-03T14:15:19.945Z</time></trkpt><trkpt lat="44.9332852" lon="7.7243009"><ele>226.0</ele><time>2026-05-03T14:15:20.95Z</time></trkpt><trkpt lat="44.9335059" lon="7.7241462"><ele>226.0</ele><time>2026-05-03T14:15:21.947Z</time></trkpt><trkpt lat="44.9337247" lon="7.7239959"><ele>226.0</ele><time>2026-05-03T14:15:22.945Z</time></trkpt><trkpt lat="44.9339492" lon="7.7238467"><ele>226.0</ele><time>2026-05-03T14:15:23.945Z</time></trkpt><trkpt lat="44.934176" lon="7.7236963"><ele>226.0</ele><time>2026-05-03T14:15:24.946Z</time></trkpt><trkpt lat="44.934404" lon="7.723541"><ele>225.0</ele><time>2026-05-03T14:15:25.952Z</time></trkpt><trkpt lat="44.9346337" lon="7.7233868"><ele>224.0</ele><time>2026-05-03T14:15:26.95Z</time></trkpt><trkpt lat="44.9348614" lon="7.7232292"><ele>224.5</ele><time>2026-05-03T14:15:27.948Z</time></trkpt><trkpt lat="44.9350932" lon="7.7230702"><ele>225.0</ele><time>2026-05-03T14:15:28.942Z</time></trkpt><trkpt lat="44.9353221" lon="7.7229073"><ele>225.0</ele><time>2026-05-03T14:15:29.948Z</time></trkpt><trkpt lat="44.9355545" lon="7.7227494"><ele>225.0</ele><time>2026-05-03T14:15:30.943Z</time></trkpt><trkpt lat="44.9357885" lon="7.7225871"><ele>226.5</ele><time>2026-05-03T14:15:31.943Z</time></trkpt><trkpt lat="44.9360296" lon="7.7224259"><ele>228.0</ele><time>2026-05-03T14:15:32.946Z</time></trkpt><trkpt lat="44.9362767" lon="7.7222575"><ele>228.0</ele><time>2026-05-03T14:15:33.953Z</time></trkpt><trkpt lat="44.9365305" lon="7.7220816"><ele>228.0</ele><time>2026-05-03T14:15:34.947Z</time></trkpt><trkpt lat="44.9367855" lon="7.7219005"><ele>227.5</ele><time>2026-05-03T14:15:35.955Z</time></trkpt><trkpt lat="44.937046" lon="7.7217165"><ele>227.0</ele><time>2026-05-03T14:15:36.949Z</time></trkpt><trkpt lat="44.937311" lon="7.7215319"><ele>228.5</ele><time>2026-05-03T14:15:37.955Z</time></trkpt><trkpt lat="44.9375773" lon="7.7213499"><ele>230.0</ele><time>2026-05-03T14:15:38.956Z</time></trkpt><trkpt lat="44.9378494" lon="7.7211647"><ele>229.5</ele><time>2026-05-03T14:15:39.945Z</time></trkpt><trkpt lat="44.9381224" lon="7.7209821"><ele>229.0</ele><time>2026-05-03T14:15:40.949Z</time></trkpt><trkpt lat="44.9383916" lon="7.720796"><ele>228.5</ele><time>2026-05-03T14:15:41.948Z</time></trkpt><trkpt lat="44.9386475" lon="7.7206171"><ele>228.0</ele><time>2026-05-03T14:15:42.958Z</time></trkpt><trkpt lat="44.9388933" lon="7.7204471"><ele>228.0</ele><time>2026-05-03T14:15:43.956Z</time></trkpt><trkpt lat="44.9391346" lon="7.7202807"><ele>228.0</ele><time>2026-05-03T14:15:44.952Z</time></trkpt><trkpt lat="44.9393654" lon="7.7201206"><ele>227.0</ele><time>2026-05-03T14:15:45.954Z</time></trkpt><trkpt lat="44.9395862" lon="7.7199705"><ele>226.0</ele><time>2026-05-03T14:15:46.946Z</time></trkpt><trkpt lat="44.9397961" lon="7.7198264"><ele>226.0</ele><time>2026-05-03T14:15:47.946Z</time></trkpt><trkpt lat="44.9400003" lon="7.7196878"><ele>226.0</ele><time>2026-05-03T14:15:48.951Z</time></trkpt><trkpt lat="44.9402023" lon="7.7195486"><ele>226.0</ele><time>2026-05-03T14:15:49.954Z</time></trkpt><trkpt lat="44.9404033" lon="7.7194094"><ele>226.0</ele><time>2026-05-03T14:15:50.946Z</time></trkpt><trkpt lat="44.9406024" lon="7.7192713"><ele>226.0</ele><time>2026-05-03T14:15:51.951Z</time></trkpt><trkpt lat="44.9408093" lon="7.7191318"><ele>225.0</ele><time>2026-05-03T14:15:52.95Z</time></trkpt><trkpt lat="44.9410233" lon="7.7189883"><ele>224.0</ele><time>2026-05-03T14:15:53.945Z</time></trkpt><trkpt lat="44.9412415" lon="7.7188379"><ele>224.0</ele><time>2026-05-03T14:15:54.947Z</time></trkpt><trkpt lat="44.9414549" lon="7.7186911"><ele>224.0</ele><time>2026-05-03T14:15:55.953Z</time></trkpt><trkpt lat="44.9416618" lon="7.7185526"><ele>225.5</ele><time>2026-05-03T14:15:56.949Z</time></trkpt><trkpt lat="44.9418671" lon="7.7184143"><ele>227.0</ele><time>2026-05-03T14:15:57.958Z</time></trkpt><trkpt lat="44.9420737" lon="7.7182729"><ele>227.0</ele><time>2026-05-03T14:15:58.951Z</time></trkpt><trkpt lat="44.9422833" lon="7.7181295"><ele>227.0</ele><time>2026-05-03T14:15:59.95Z</time></trkpt><trkpt lat="44.9424962" lon="7.7179812"><ele>226.0</ele><time>2026-05-03T14:16:00.96Z</time></trkpt><trkpt lat="44.942714" lon="7.7178316"><ele>225.0</ele><time>2026-05-03T14:16:01.947Z</time></trkpt><trkpt lat="44.9429374" lon="7.7176826"><ele>225.0</ele><time>2026-05-03T14:16:02.951Z</time></trkpt><trkpt lat="44.9431574" lon="7.7175332"><ele>225.0</ele><time>2026-05-03T14:16:03.951Z</time></trkpt><trkpt lat="44.9433779" lon="7.7173813"><ele>225.5</ele><time>2026-05-03T14:16:04.951Z</time></trkpt><trkpt lat="44.9436001" lon="7.7172266"><ele>226.0</ele><time>2026-05-03T14:16:05.958Z</time></trkpt><trkpt lat="44.9438212" lon="7.7170733"><ele>226.0</ele><time>2026-05-03T14:16:06.945Z</time></trkpt><trkpt lat="44.9440393" lon="7.7169237"><ele>226.0</ele><time>2026-05-03T14:16:07.952Z</time></trkpt><trkpt lat="44.9442598" lon="7.7167707"><ele>225.5</ele><time>2026-05-03T14:16:08.959Z</time></trkpt><trkpt lat="44.9444841" lon="7.716615"><ele>225.0</ele><time>2026-05-03T14:16:09.953Z</time></trkpt><trkpt lat="44.9447131" lon="7.7164547"><ele>225.0</ele><time>2026-05-03T14:16:10.953Z</time></trkpt><trkpt lat="44.9449426" lon="7.7162945"><ele>225.0</ele><time>2026-05-03T14:16:11.949Z</time></trkpt><trkpt lat="44.9451763" lon="7.7161336"><ele>226.0</ele><time>2026-05-03T14:16:12.949Z</time></trkpt><trkpt lat="44.9454128" lon="7.7159709"><ele>227.0</ele><time>2026-05-03T14:16:13.952Z</time></trkpt><trkpt lat="44.9456485" lon="7.7158094"><ele>226.0</ele><time>2026-05-03T14:16:14.958Z</time></trkpt><trkpt lat="44.9458859" lon="7.7156478"><ele>225.0</ele><time>2026-05-03T14:16:15.952Z</time></trkpt><trkpt lat="44.9461237" lon="7.7154898"><ele>225.0</ele><time>2026-05-03T14:16:16.957Z</time></trkpt><trkpt lat="44.9463655" lon="7.7153362"><ele>225.0</ele><time>2026-05-03T14:16:17.948Z</time></trkpt><trkpt lat="44.94661" lon="7.7151873"><ele>224.5</ele><time>2026-05-03T14:16:18.95Z</time></trkpt><trkpt lat="44.9468604" lon="7.7150444"><ele>224.0</ele><time>2026-05-03T14:16:19.948Z</time></trkpt><trkpt lat="44.9471131" lon="7.7149022"><ele>224.0</ele><time>2026-05-03T14:16:20.948Z</time></trkpt><trkpt lat="44.9473707" lon="7.714764"><ele>224.0</ele><time>2026-05-03T14:16:21.949Z</time></trkpt><trkpt lat="44.9476321" lon="7.7146271"><ele>224.5</ele><time>2026-05-03T14:16:22.955Z</time></trkpt><trkpt lat="44.9478942" lon="7.7144982"><ele>225.0</ele><time>2026-05-03T14:16:23.958Z</time></trkpt><trkpt lat="44.9481547" lon="7.7143775"><ele>225.0</ele><time>2026-05-03T14:16:24.952Z</time></trkpt><trkpt lat="44.9484078" lon="7.7142656"><ele>225.0</ele><time>2026-05-03T14:16:25.953Z</time></trkpt><trkpt lat="44.9486597" lon="7.7141587"><ele>225.0</ele><time>2026-05-03T14:16:26.948Z</time></trkpt><trkpt lat="44.9489138" lon="7.7140566"><ele>225.0</ele><time>2026-05-03T14:16:27.963Z</time></trkpt><trkpt lat="44.9491709" lon="7.7139587"><ele>224.5</ele><time>2026-05-03T14:16:28.955Z</time></trkpt><trkpt lat="44.9494347" lon="7.7138657"><ele>224.0</ele><time>2026-05-03T14:16:29.955Z</time></trkpt><trkpt lat="44.9497007" lon="7.7137777"><ele>224.0</ele><time>2026-05-03T14:16:30.954Z</time></trkpt><trkpt lat="44.9499698" lon="7.7136959"><ele>224.0</ele><time>2026-05-03T14:16:31.964Z</time></trkpt><trkpt lat="44.9502402" lon="7.7136139"><ele>223.5</ele><time>2026-05-03T14:16:32.952Z</time></trkpt><trkpt lat="44.9505109" lon="7.7135313"><ele>223.0</ele><time>2026-05-03T14:16:33.956Z</time></trkpt><trkpt lat="44.9507872" lon="7.7134455"><ele>223.5</ele><time>2026-05-03T14:16:34.951Z</time></trkpt><trkpt lat="44.9510663" lon="7.7133565"><ele>224.0</ele><time>2026-05-03T14:16:35.948Z</time></trkpt><trkpt lat="44.9513472" lon="7.7132676"><ele>224.0</ele><time>2026-05-03T14:16:36.956Z</time></trkpt><trkpt lat="44.9516273" lon="7.7131794"><ele>224.0</ele><time>2026-05-03T14:16:37.952Z</time></trkpt><trkpt lat="44.9519115" lon="7.7130887"><ele>225.0</ele><time>2026-05-03T14:16:38.958Z</time></trkpt><trkpt lat="44.9521978" lon="7.7129985"><ele>226.0</ele><time>2026-05-03T14:16:39.955Z</time></trkpt><trkpt lat="44.9524868" lon="7.7129034"><ele>226.5</ele><time>2026-05-03T14:16:40.948Z</time></trkpt><trkpt lat="44.9527794" lon="7.7128016"><ele>227.0</ele><time>2026-05-03T14:16:41.949Z</time></trkpt><trkpt lat="44.9530749" lon="7.7126951"><ele>227.0</ele><time>2026-05-03T14:16:42.953Z</time></trkpt><trkpt lat="44.9533625" lon="7.712581"><ele>227.0</ele><time>2026-05-03T14:16:43.957Z</time></trkpt><trkpt lat="44.9536423" lon="7.7124574"><ele>225.5</ele><time>2026-05-03T14:16:44.952Z</time></trkpt><trkpt lat="44.9539161" lon="7.7123286"><ele>224.0</ele><time>2026-05-03T14:16:45.952Z</time></trkpt><trkpt lat="44.9541841" lon="7.712189"><ele>224.0</ele><time>2026-05-03T14:16:46.956Z</time></trkpt><trkpt lat="44.9544364" lon="7.7120478"><ele>224.0</ele><time>2026-05-03T14:16:47.953Z</time></trkpt><trkpt lat="44.954673" lon="7.7119036"><ele>224.0</ele><time>2026-05-03T14:16:48.952Z</time></trkpt><trkpt lat="44.9549069" lon="7.7117559"><ele>224.0</ele><time>2026-05-03T14:16:49.944Z</time></trkpt><trkpt lat="44.9551377" lon="7.7116037"><ele>222.5</ele><time>2026-05-03T14:16:50.952Z</time></trkpt><trkpt lat="44.9553777" lon="7.7114465"><ele>221.0</ele><time>2026-05-03T14:16:51.953Z</time></trkpt><trkpt lat="44.9556184" lon="7.7112813"><ele>221.0</ele><time>2026-05-03T14:16:52.946Z</time></trkpt><trkpt lat="44.9558568" lon="7.7111099"><ele>221.0</ele><time>2026-05-03T14:16:53.947Z</time></trkpt><trkpt lat="44.956095" lon="7.7109291"><ele>223.5</ele><time>2026-05-03T14:16:54.954Z</time></trkpt><trkpt lat="44.9563265" lon="7.7107416"><ele>226.0</ele><time>2026-05-03T14:16:55.956Z</time></trkpt><trkpt lat="44.9565558" lon="7.7105465"><ele>226.5</ele><time>2026-05-03T14:16:56.949Z</time></trkpt><trkpt lat="44.9567785" lon="7.7103436"><ele>227.0</ele><time>2026-05-03T14:16:57.957Z</time></trkpt><trkpt lat="44.9570001" lon="7.7101355"><ele>227.0</ele><time>2026-05-03T14:16:58.953Z</time></trkpt><trkpt lat="44.9572152" lon="7.7099218"><ele>227.0</ele><time>2026-05-03T14:16:59.946Z</time></trkpt><trkpt lat="44.9574309" lon="7.7097025"><ele>225.5</ele><time>2026-05-03T14:17:00.951Z</time></trkpt><trkpt lat="44.9576476" lon="7.7094742"><ele>224.0</ele><time>2026-05-03T14:17:01.957Z</time></trkpt><trkpt lat="44.9578716" lon="7.7092321"><ele>224.0</ele><time>2026-05-03T14:17:02.949Z</time></trkpt><trkpt lat="44.9581065" lon="7.708972"><ele>224.0</ele><time>2026-05-03T14:17:03.948Z</time></trkpt><trkpt lat="44.9583372" lon="7.7087104"><ele>223.5</ele><time>2026-05-03T14:17:04.952Z</time></trkpt><trkpt lat="44.958555" lon="7.7084585"><ele>223.0</ele><time>2026-05-03T14:17:05.948Z</time></trkpt><trkpt lat="44.9587643" lon="7.7082147"><ele>223.0</ele><time>2026-05-03T14:17:06.95Z</time></trkpt><trkpt lat="44.9589738" lon="7.707975"><ele>223.0</ele><time>2026-05-03T14:17:07.957Z</time></trkpt><trkpt lat="44.9591889" lon="7.7077298"><ele>223.0</ele><time>2026-05-03T14:17:08.95Z</time></trkpt><trkpt lat="44.9594169" lon="7.7074646"><ele>223.0</ele><time>2026-05-03T14:17:09.947Z</time></trkpt><trkpt lat="44.9596553" lon="7.7071945"><ele>223.0</ele><time>2026-05-03T14:17:10.955Z</time></trkpt><trkpt lat="44.9599084" lon="7.7069178"><ele>223.0</ele><time>2026-05-03T14:17:11.959Z</time></trkpt><trkpt lat="44.9601674" lon="7.7066453"><ele>223.5</ele><time>2026-05-03T14:17:12.951Z</time></trkpt><trkpt lat="44.9604292" lon="7.7063814"><ele>224.0</ele><time>2026-05-03T14:17:13.952Z</time></trkpt><trkpt lat="44.9607025" lon="7.7061292"><ele>224.0</ele><time>2026-05-03T14:17:14.951Z</time></trkpt><trkpt lat="44.9609872" lon="7.7058899"><ele>224.0</ele><time>2026-05-03T14:17:15.956Z</time></trkpt><trkpt lat="44.9612775" lon="7.705662"><ele>224.0</ele><time>2026-05-03T14:17:16.947Z</time></trkpt><trkpt lat="44.961575" lon="7.7054501"><ele>224.0</ele><time>2026-05-03T14:17:17.954Z</time></trkpt><trkpt lat="44.9618808" lon="7.7052592"><ele>223.5</ele><time>2026-05-03T14:17:18.952Z</time></trkpt><trkpt lat="44.9621956" lon="7.7050866"><ele>223.0</ele><time>2026-05-03T14:17:19.96Z</time></trkpt><trkpt lat="44.9625166" lon="7.7049267"><ele>222.5</ele><time>2026-05-03T14:17:20.955Z</time></trkpt><trkpt lat="44.9628432" lon="7.7047844"><ele>222.0</ele><time>2026-05-03T14:17:21.955Z</time></trkpt><trkpt lat="44.9631694" lon="7.7046643"><ele>223.0</ele><time>2026-05-03T14:17:22.957Z</time></trkpt><trkpt lat="44.9634987" lon="7.7045612"><ele>224.0</ele><time>2026-05-03T14:17:23.955Z</time></trkpt><trkpt lat="44.9638306" lon="7.7044742"><ele>223.5</ele><time>2026-05-03T14:17:24.955Z</time></trkpt><trkpt lat="44.9641649" lon="7.7043885"><ele>223.0</ele><time>2026-05-03T14:17:25.95Z</time></trkpt><trkpt lat="44.964501" lon="7.7043006"><ele>222.0</ele><time>2026-05-03T14:17:26.954Z</time></trkpt><trkpt lat="44.9648253" lon="7.7042171"><ele>221.0</ele><time>2026-05-03T14:17:27.944Z</time></trkpt><trkpt lat="44.9651302" lon="7.7041362"><ele>221.0</ele><time>2026-05-03T14:17:28.946Z</time></trkpt><trkpt lat="44.9654216" lon="7.7040563"><ele>221.0</ele><time>2026-05-03T14:17:29.951Z</time></trkpt><trkpt lat="44.9657008" lon="7.7039786"><ele>221.0</ele><time>2026-05-03T14:17:30.951Z</time></trkpt><trkpt lat="44.965978" lon="7.7039037"><ele>221.0</ele><time>2026-05-03T14:17:31.956Z</time></trkpt><trkpt lat="44.9662462" lon="7.7038351"><ele>221.0</ele><time>2026-05-03T14:17:32.95Z</time></trkpt><trkpt lat="44.9665234" lon="7.7037808"><ele>221.0</ele><time>2026-05-03T14:17:33.95Z</time></trkpt><trkpt lat="44.9668101" lon="7.7037281"><ele>221.5</ele><time>2026-05-03T14:17:34.952Z</time></trkpt><trkpt lat="44.9671052" lon="7.7036619"><ele>222.0</ele><time>2026-05-03T14:17:35.948Z</time></trkpt><trkpt lat="44.9674051" lon="7.7035889"><ele>221.5</ele><time>2026-05-03T14:17:36.953Z</time></trkpt><trkpt lat="44.9676974" lon="7.7035178"><ele>221.0</ele><time>2026-05-03T14:17:37.942Z</time></trkpt><trkpt lat="44.9679868" lon="7.7034464"><ele>221.0</ele><time>2026-05-03T14:17:38.953Z</time></trkpt><trkpt lat="44.9682578" lon="7.703374"><ele>221.0</ele><time>2026-05-03T14:17:39.951Z</time></trkpt><trkpt lat="44.9685118" lon="7.7033029"><ele>222.0</ele><time>2026-05-03T14:17:40.949Z</time></trkpt><trkpt lat="44.9687353" lon="7.7032392"><ele>223.0</ele><time>2026-05-03T14:17:41.954Z</time></trkpt><trkpt lat="44.9689269" lon="7.7031875"><ele>224.0</ele><time>2026-05-03T14:17:42.949Z</time></trkpt><trkpt lat="44.9691164" lon="7.7031418"><ele>224.0</ele><time>2026-05-03T14:17:43.949Z</time></trkpt><trkpt lat="44.9693004" lon="7.7030982"><ele>224.0</ele><time>2026-05-03T14:17:44.958Z</time></trkpt><trkpt lat="44.9694869" lon="7.7030515"><ele>224.0</ele><time>2026-05-03T14:17:45.951Z</time></trkpt><trkpt lat="44.9696755" lon="7.7029979"><ele>224.0</ele><time>2026-05-03T14:17:46.946Z</time></trkpt><trkpt lat="44.9698661" lon="7.7029455"><ele>224.0</ele><time>2026-05-03T14:17:47.956Z</time></trkpt><trkpt lat="44.9700609" lon="7.7028916"><ele>224.0</ele><time>2026-05-03T14:17:48.958Z</time></trkpt><trkpt lat="44.9702555" lon="7.7028385"><ele>224.66666666666669</ele><time>2026-05-03T14:17:49.954Z</time></trkpt><trkpt lat="44.970445" lon="7.7027922"><ele>225.33333333333331</ele><time>2026-05-03T14:17:50.955Z</time></trkpt><trkpt lat="44.9706281" lon="7.7027497"><ele>226.0</ele><time>2026-05-03T14:17:51.952Z</time></trkpt><trkpt lat="44.9708121" lon="7.7027085"><ele>226.66666666666666</ele><time>2026-05-03T14:17:52.959Z</time></trkpt><trkpt lat="44.9709781" lon="7.7026685"><ele>227.33333333333331</ele><time>2026-05-03T14:17:53.964Z</time></trkpt><trkpt lat="44.9711278" lon="7.7026311"><ele>228.0</ele><time>2026-05-03T14:17:54.956Z</time></trkpt><trkpt lat="44.9712677" lon="7.7025943"><ele>228.0</ele><time>2026-05-03T14:17:55.951Z</time></trkpt><trkpt lat="44.9713957" lon="7.7025589"><ele>228.0</ele><time>2026-05-03T14:17:56.951Z</time></trkpt><trkpt lat="44.9715177" lon="7.7025242"><ele>228.0</ele><time>2026-05-03T14:17:57.958Z</time></trkpt><trkpt lat="44.9716379" lon="7.7024902"><ele>228.0</ele><time>2026-05-03T14:17:58.95Z</time></trkpt><trkpt lat="44.9717502" lon="7.7024606"><ele>227.0</ele><time>2026-05-03T14:17:59.951Z</time></trkpt><trkpt lat="44.9718546" lon="7.7024346"><ele>226.0</ele><time>2026-05-03T14:18:00.953Z</time></trkpt><trkpt lat="44.9719579" lon="7.7024083"><ele>225.0</ele><time>2026-05-03T14:18:01.95Z</time></trkpt><trkpt lat="44.9720602" lon="7.7023847"><ele>224.0</ele><time>2026-05-03T14:18:02.954Z</time></trkpt><trkpt lat="44.9721622" lon="7.7023607"><ele>223.0</ele><time>2026-05-03T14:18:03.947Z</time></trkpt><trkpt lat="44.9722648" lon="7.7023437"><ele>223.0</ele><time>2026-05-03T14:18:04.954Z</time></trkpt><trkpt lat="44.9723601" lon="7.7023348"><ele>223.0</ele><time>2026-05-03T14:18:05.949Z</time></trkpt><trkpt lat="44.9724468" lon="7.7023384"><ele>223.0</ele><time>2026-05-03T14:18:06.951Z</time></trkpt><trkpt lat="44.9725342" lon="7.7023552"><ele>223.0</ele><time>2026-05-03T14:18:07.962Z</time></trkpt><trkpt lat="44.9726304" lon="7.7023962"><ele>223.0</ele><time>2026-05-03T14:18:08.954Z</time></trkpt><trkpt lat="44.9727257" lon="7.7024677"><ele>223.25</ele><time>2026-05-03T14:18:09.95Z</time></trkpt><trkpt lat="44.9728154" lon="7.7025715"><ele>223.5</ele><time>2026-05-03T14:18:10.953Z</time></trkpt><trkpt lat="44.9728878" lon="7.7027029"><ele>223.75</ele><time>2026-05-03T14:18:11.952Z</time></trkpt><trkpt lat="44.9729452" lon="7.7028625"><ele>224.0</ele><time>2026-05-03T14:18:12.954Z</time></trkpt><trkpt lat="44.9729765" lon="7.7030376"><ele>223.5</ele><time>2026-05-03T14:18:13.953Z</time></trkpt><trkpt lat="44.9729918" lon="7.7032306"><ele>223.0</ele><time>2026-05-03T14:18:14.953Z</time></trkpt><trkpt lat="44.9729917" lon="7.7034332"><ele>222.5</ele><time>2026-05-03T14:18:15.951Z</time></trkpt><trkpt lat="44.9729745" lon="7.7036441"><ele>222.0</ele><time>2026-05-03T14:18:16.963Z</time></trkpt><trkpt lat="44.9729356" lon="7.7038549"><ele>221.66666666666669</ele><time>2026-05-03T14:18:17.958Z</time></trkpt><trkpt lat="44.9728769" lon="7.7040574"><ele>221.33333333333334</ele><time>2026-05-03T14:18:18.955Z</time></trkpt><trkpt lat="44.9728031" lon="7.7042459"><ele>221.0</ele><time>2026-05-03T14:18:19.949Z</time></trkpt><trkpt lat="44.9727096" lon="7.7044272"><ele>221.66666666666669</ele><time>2026-05-03T14:18:20.963Z</time></trkpt><trkpt lat="44.9725971" lon="7.7045906"><ele>222.33333333333331</ele><time>2026-05-03T14:18:21.96Z</time></trkpt><trkpt lat="44.972471" lon="7.704721"><ele>223.0</ele><time>2026-05-03T14:18:22.958Z</time></trkpt><trkpt lat="44.9723382" lon="7.7048192"><ele>223.0</ele><time>2026-05-03T14:18:23.955Z</time></trkpt><trkpt lat="44.9721981" lon="7.7048983"><ele>223.0</ele><time>2026-05-03T14:18:24.951Z</time></trkpt><trkpt lat="44.9720513" lon="7.704954"><ele>223.0</ele><time>2026-05-03T14:18:25.959Z</time></trkpt><trkpt lat="44.9719075" lon="7.7049816"><ele>223.0</ele><time>2026-05-03T14:18:26.95Z</time></trkpt><trkpt lat="44.9717644" lon="7.7049848"><ele>223.0</ele><time>2026-05-03T14:18:27.951Z</time></trkpt><trkpt lat="44.9716272" lon="7.7049588"><ele>223.0</ele><time>2026-05-03T14:18:28.95Z</time></trkpt><trkpt lat="44.971498" lon="7.7049056"><ele>223.0</ele><time>2026-05-03T14:18:29.946Z</time></trkpt><trkpt lat="44.9713853" lon="7.7048229"><ele>223.0</ele><time>2026-05-03T14:18:30.954Z</time></trkpt><trkpt lat="44.9712982" lon="7.7047206"><ele>223.0</ele><time>2026-05-03T14:18:31.948Z</time></trkpt><trkpt lat="44.9712303" lon="7.7046005"><ele>223.0</ele><time>2026-05-03T14:18:32.952Z</time></trkpt><trkpt lat="44.9711785" lon="7.7044634"><ele>223.0</ele><time>2026-05-03T14:18:33.947Z</time></trkpt><trkpt lat="44.9711435" lon="7.7043127"><ele>223.0</ele><time>2026-05-03T14:18:34.955Z</time></trkpt><trkpt lat="44.9711215" lon="7.7041362"><ele>223.0</ele><time>2026-05-03T14:18:35.947Z</time></trkpt><trkpt lat="44.9711158" lon="7.7039178"><ele>223.0</ele><time>2026-05-03T14:18:36.947Z</time></trkpt><trkpt lat="44.971122" lon="7.7036475"><ele>223.0</ele><time>2026-05-03T14:18:37.951Z</time></trkpt><trkpt lat="44.9711386" lon="7.7033015"><ele>223.0</ele><time>2026-05-03T14:18:38.947Z</time></trkpt><trkpt lat="44.971158" lon="7.7028861"><ele>223.0</ele><time>2026-05-03T14:18:39.951Z</time></trkpt><trkpt lat="44.971181" lon="7.7024079"><ele>223.5</ele><time>2026-05-03T14:18:40.951Z</time></trkpt><trkpt lat="44.9712041" lon="7.7018721"><ele>224.0</ele><time>2026-05-03T14:18:41.958Z</time></trkpt><trkpt lat="44.9712225" lon="7.701332"><ele>222.5</ele><time>2026-05-03T14:18:42.958Z</time></trkpt><trkpt lat="44.9712271" lon="7.7007103"><ele>221.0</ele><time>2026-05-03T14:18:43.957Z</time></trkpt><trkpt lat="44.9712259" lon="7.7000956"><ele>221.0</ele><time>2026-05-03T14:18:44.954Z</time></trkpt><trkpt lat="44.9712252" lon="7.6994868"><ele>221.0</ele><time>2026-05-03T14:18:45.952Z</time></trkpt><trkpt lat="44.97122" lon="7.6988993"><ele>222.0</ele><time>2026-05-03T14:18:46.956Z</time></trkpt><trkpt lat="44.9712116" lon="7.6983074"><ele>223.0</ele><time>2026-05-03T14:18:47.956Z</time></trkpt><trkpt lat="44.9711932" lon="7.6977311"><ele>223.5</ele><time>2026-05-03T14:18:48.948Z</time></trkpt><trkpt lat="44.9711745" lon="7.6971483"><ele>224.0</ele><time>2026-05-03T14:18:49.951Z</time></trkpt><trkpt lat="44.9711424" lon="7.6965819"><ele>221.5</ele><time>2026-05-03T14:18:50.955Z</time></trkpt><trkpt lat="44.9711083" lon="7.6960203"><ele>219.0</ele><time>2026-05-03T14:18:51.961Z</time></trkpt><trkpt lat="44.9710624" lon="7.6954719"><ele>220.0</ele><time>2026-05-03T14:18:52.952Z</time></trkpt><trkpt lat="44.9710174" lon="7.6949243"><ele>221.0</ele><time>2026-05-03T14:18:53.95Z</time></trkpt><trkpt lat="44.9709693" lon="7.6943881"><ele>221.0</ele><time>2026-05-03T14:18:54.953Z</time></trkpt><trkpt lat="44.9709236" lon="7.6938464"><ele>221.0</ele><time>2026-05-03T14:18:55.95Z</time></trkpt><trkpt lat="44.9708764" lon="7.6933123"><ele>220.0</ele><time>2026-05-03T14:18:56.953Z</time></trkpt><trkpt lat="44.9708342" lon="7.6927713"><ele>219.0</ele><time>2026-05-03T14:18:57.951Z</time></trkpt><trkpt lat="44.9707846" lon="7.692235"><ele>222.0</ele><time>2026-05-03T14:18:58.944Z</time></trkpt><trkpt lat="44.9707395" lon="7.6916943"><ele>225.0</ele><time>2026-05-03T14:18:59.961Z</time></trkpt><trkpt lat="44.970689" lon="7.6911595"><ele>224.5</ele><time>2026-05-03T14:19:00.941Z</time></trkpt><trkpt lat="44.9706457" lon="7.6906181"><ele>224.0</ele><time>2026-05-03T14:19:01.945Z</time></trkpt><trkpt lat="44.9705955" lon="7.6900852"><ele>223.5</ele><time>2026-05-03T14:19:02.951Z</time></trkpt><trkpt lat="44.9705517" lon="7.6895464"><ele>223.0</ele><time>2026-05-03T14:19:03.954Z</time></trkpt><trkpt lat="44.9705011" lon="7.6890114"><ele>222.5</ele><time>2026-05-03T14:19:04.954Z</time></trkpt><trkpt lat="44.970457" lon="7.6884767"><ele>222.0</ele><time>2026-05-03T14:19:05.946Z</time></trkpt><trkpt lat="44.9704045" lon="7.6879498"><ele>222.0</ele><time>2026-05-03T14:19:06.957Z</time></trkpt><trkpt lat="44.9703636" lon="7.6874183"><ele>222.0</ele><time>2026-05-03T14:19:07.959Z</time></trkpt><trkpt lat="44.9703094" lon="7.6868907"><ele>222.0</ele><time>2026-05-03T14:19:08.949Z</time></trkpt><trkpt lat="44.9702649" lon="7.6863588"><ele>222.0</ele><time>2026-05-03T14:19:09.953Z</time></trkpt><trkpt lat="44.9702107" lon="7.6858299"><ele>222.5</ele><time>2026-05-03T14:19:10.948Z</time></trkpt><trkpt lat="44.9701648" lon="7.6852981"><ele>223.0</ele><time>2026-05-03T14:19:11.948Z</time></trkpt><trkpt lat="44.970113" lon="7.6847676"><ele>223.0</ele><time>2026-05-03T14:19:12.949Z</time></trkpt><trkpt lat="44.9700716" lon="7.6842336"><ele>223.0</ele><time>2026-05-03T14:19:13.946Z</time></trkpt><trkpt lat="44.9700228" lon="7.6837045"><ele>222.5</ele><time>2026-05-03T14:19:14.952Z</time></trkpt><trkpt lat="44.9699803" lon="7.6831684"><ele>222.0</ele><time>2026-05-03T14:19:15.954Z</time></trkpt><trkpt lat="44.9699425" lon="7.6826416"><ele>222.0</ele><time>2026-05-03T14:19:16.942Z</time></trkpt><trkpt lat="44.9699235" lon="7.6821111"><ele>222.0</ele><time>2026-05-03T14:19:17.953Z</time></trkpt><trkpt lat="44.9699159" lon="7.6815916"><ele>221.5</ele><time>2026-05-03T14:19:18.948Z</time></trkpt><trkpt lat="44.96992" lon="7.6810669"><ele>221.0</ele><time>2026-05-03T14:19:19.951Z</time></trkpt><trkpt lat="44.9699313" lon="7.6805481"><ele>221.5</ele><time>2026-05-03T14:19:20.952Z</time></trkpt><trkpt lat="44.9699571" lon="7.680027"><ele>222.0</ele><time>2026-05-03T14:19:21.943Z</time></trkpt><trkpt lat="44.9699894" lon="7.6795114"><ele>221.5</ele><time>2026-05-03T14:19:22.956Z</time></trkpt><trkpt lat="44.970041" lon="7.678996"><ele>221.0</ele><time>2026-05-03T14:19:23.954Z</time></trkpt><trkpt lat="44.970098" lon="7.6784835"><ele>221.0</ele><time>2026-05-03T14:19:24.952Z</time></trkpt><trkpt lat="44.9701707" lon="7.6779733"><ele>221.0</ele><time>2026-05-03T14:19:25.952Z</time></trkpt><trkpt lat="44.9702495" lon="7.6774628"><ele>221.5</ele><time>2026-05-03T14:19:26.943Z</time></trkpt><trkpt lat="44.9703446" lon="7.6769561"><ele>222.0</ele><time>2026-05-03T14:19:27.949Z</time></trkpt><trkpt lat="44.970447" lon="7.6764496"><ele>222.0</ele><time>2026-05-03T14:19:28.95Z</time></trkpt><trkpt lat="44.9705639" lon="7.6759406"><ele>222.0</ele><time>2026-05-03T14:19:29.946Z</time></trkpt><trkpt lat="44.970687" lon="7.6754308"><ele>222.0</ele><time>2026-05-03T14:19:30.949Z</time></trkpt><trkpt lat="44.9708082" lon="7.6749233"><ele>222.0</ele><time>2026-05-03T14:19:31.943Z</time></trkpt><trkpt lat="44.9709242" lon="7.6744306"><ele>222.0</ele><time>2026-05-03T14:19:32.953Z</time></trkpt><trkpt lat="44.9710401" lon="7.6739477"><ele>222.0</ele><time>2026-05-03T14:19:33.952Z</time></trkpt><trkpt lat="44.9711478" lon="7.673487"><ele>222.0</ele><time>2026-05-03T14:19:34.956Z</time></trkpt><trkpt lat="44.9712586" lon="7.6730377"><ele>222.0</ele><time>2026-05-03T14:19:35.949Z</time></trkpt><trkpt lat="44.9713576" lon="7.6726085"><ele>222.0</ele><time>2026-05-03T14:19:36.955Z</time></trkpt><trkpt lat="44.9714613" lon="7.6721807"><ele>222.0</ele><time>2026-05-03T14:19:37.954Z</time></trkpt><trkpt lat="44.9715626" lon="7.6717495"><ele>222.0</ele><time>2026-05-03T14:19:38.95Z</time></trkpt><trkpt lat="44.9716662" lon="7.6713232"><ele>222.0</ele><time>2026-05-03T14:19:39.96Z</time></trkpt><trkpt lat="44.9717648" lon="7.6709066"><ele>222.5</ele><time>2026-05-03T14:19:40.955Z</time></trkpt><trkpt lat="44.9718659" lon="7.6704856"><ele>223.0</ele><time>2026-05-03T14:19:41.953Z</time></trkpt><trkpt lat="44.9719623" lon="7.6700599"><ele>223.5</ele><time>2026-05-03T14:19:42.947Z</time></trkpt><trkpt lat="44.9720621" lon="7.669637"><ele>224.0</ele><time>2026-05-03T14:19:43.959Z</time></trkpt><trkpt lat="44.9721607" lon="7.6692214"><ele>224.0</ele><time>2026-05-03T14:19:44.947Z</time></trkpt><trkpt lat="44.9722539" lon="7.6688087"><ele>224.0</ele><time>2026-05-03T14:19:45.953Z</time></trkpt><trkpt lat="44.9723503" lon="7.6683953"><ele>224.0</ele><time>2026-05-03T14:19:46.963Z</time></trkpt><trkpt lat="44.9724459" lon="7.6679871"><ele>224.0</ele><time>2026-05-03T14:19:47.948Z</time></trkpt><trkpt lat="44.9725452" lon="7.6675706"><ele>223.5</ele><time>2026-05-03T14:19:48.945Z</time></trkpt><trkpt lat="44.9726407" lon="7.6671515"><ele>223.0</ele><time>2026-05-03T14:19:49.95Z</time></trkpt><trkpt lat="44.9727364" lon="7.6667273"><ele>222.5</ele><time>2026-05-03T14:19:50.949Z</time></trkpt><trkpt lat="44.9728448" lon="7.6662928"><ele>222.0</ele><time>2026-05-03T14:19:51.953Z</time></trkpt><trkpt lat="44.97294" lon="7.6658611"><ele>222.0</ele><time>2026-05-03T14:19:52.949Z</time></trkpt><trkpt lat="44.9730424" lon="7.6654299"><ele>222.0</ele><time>2026-05-03T14:19:53.952Z</time></trkpt><trkpt lat="44.9731447" lon="7.6649972"><ele>222.5</ele><time>2026-05-03T14:19:54.951Z</time></trkpt><trkpt lat="44.9732455" lon="7.6645737"><ele>223.0</ele><time>2026-05-03T14:19:55.951Z</time></trkpt><trkpt lat="44.9733461" lon="7.6641558"><ele>223.0</ele><time>2026-05-03T14:19:56.954Z</time></trkpt><trkpt lat="44.9734453" lon="7.6637453"><ele>223.0</ele><time>2026-05-03T14:19:57.949Z</time></trkpt><trkpt lat="44.9735435" lon="7.6633398"><ele>223.0</ele><time>2026-05-03T14:19:58.951Z</time></trkpt><trkpt lat="44.9736477" lon="7.6629268"><ele>223.0</ele><time>2026-05-03T14:19:59.96Z</time></trkpt><trkpt lat="44.9737557" lon="7.6625159"><ele>223.0</ele><time>2026-05-03T14:20:00.948Z</time></trkpt><trkpt lat="44.9738668" lon="7.6621134"><ele>223.0</ele><time>2026-05-03T14:20:01.951Z</time></trkpt><trkpt lat="44.9739806" lon="7.6617128"><ele>223.0</ele><time>2026-05-03T14:20:02.955Z</time></trkpt><trkpt lat="44.9740992" lon="7.6613124"><ele>223.0</ele><time>2026-05-03T14:20:03.941Z</time></trkpt><trkpt lat="44.9742176" lon="7.6609208"><ele>223.5</ele><time>2026-05-03T14:20:04.95Z</time></trkpt><trkpt lat="44.9743391" lon="7.6605299"><ele>224.0</ele><time>2026-05-03T14:20:05.946Z</time></trkpt><trkpt lat="44.9744626" lon="7.6601381"><ele>225.0</ele><time>2026-05-03T14:20:06.942Z</time></trkpt><trkpt lat="44.974589" lon="7.659745"><ele>226.0</ele><time>2026-05-03T14:20:07.952Z</time></trkpt><trkpt lat="44.9747206" lon="7.6593508"><ele>226.0</ele><time>2026-05-03T14:20:08.951Z</time></trkpt><trkpt lat="44.974848" lon="7.6589701"><ele>226.0</ele><time>2026-05-03T14:20:09.943Z</time></trkpt><trkpt lat="44.9749823" lon="7.6585956"><ele>226.0</ele><time>2026-05-03T14:20:10.956Z</time></trkpt><trkpt lat="44.9751158" lon="7.6582225"><ele>226.0</ele><time>2026-05-03T14:20:11.955Z</time></trkpt><trkpt lat="44.9752579" lon="7.6578449"><ele>227.5</ele><time>2026-05-03T14:20:12.946Z</time></trkpt><trkpt lat="44.9753948" lon="7.6574746"><ele>229.0</ele><time>2026-05-03T14:20:13.948Z</time></trkpt><trkpt lat="44.9755377" lon="7.6571092"><ele>228.0</ele><time>2026-05-03T14:20:14.953Z</time></trkpt><trkpt lat="44.9756775" lon="7.6567479"><ele>227.0</ele><time>2026-05-03T14:20:15.954Z</time></trkpt><trkpt lat="44.9758239" lon="7.6563837"><ele>226.0</ele><time>2026-05-03T14:20:16.939Z</time></trkpt><trkpt lat="44.9759755" lon="7.6560167"><ele>225.0</ele><time>2026-05-03T14:20:17.949Z</time></trkpt><trkpt lat="44.9761268" lon="7.6556507"><ele>225.0</ele><time>2026-05-03T14:20:18.957Z</time></trkpt><trkpt lat="44.976292" lon="7.6552747"><ele>225.0</ele><time>2026-05-03T14:20:19.948Z</time></trkpt><trkpt lat="44.9764457" lon="7.6549197"><ele>225.0</ele><time>2026-05-03T14:20:20.954Z</time></trkpt><trkpt lat="44.9766015" lon="7.6545703"><ele>225.0</ele><time>2026-05-03T14:20:21.948Z</time></trkpt><trkpt lat="44.9767615" lon="7.6542192"><ele>225.0</ele><time>2026-05-03T14:20:22.945Z</time></trkpt><trkpt lat="44.9769252" lon="7.6538685"><ele>225.0</ele><time>2026-05-03T14:20:23.946Z</time></trkpt><trkpt lat="44.9770945" lon="7.6535174"><ele>226.0</ele><time>2026-05-03T14:20:24.942Z</time></trkpt><trkpt lat="44.9772646" lon="7.6531653"><ele>227.0</ele><time>2026-05-03T14:20:25.943Z</time></trkpt><trkpt lat="44.9774372" lon="7.6528198"><ele>224.0</ele><time>2026-05-03T14:20:26.949Z</time></trkpt><trkpt lat="44.97761" lon="7.6524788"><ele>221.0</ele><time>2026-05-03T14:20:27.955Z</time></trkpt><trkpt lat="44.9777877" lon="7.6521334"><ele>223.5</ele><time>2026-05-03T14:20:28.947Z</time></trkpt><trkpt lat="44.9779705" lon="7.6517877"><ele>226.0</ele><time>2026-05-03T14:20:29.949Z</time></trkpt><trkpt lat="44.9781574" lon="7.6514419"><ele>225.5</ele><time>2026-05-03T14:20:30.941Z</time></trkpt><trkpt lat="44.9783497" lon="7.6510941"><ele>225.0</ele><time>2026-05-03T14:20:31.944Z</time></trkpt><trkpt lat="44.9785572" lon="7.650736"><ele>225.0</ele><time>2026-05-03T14:20:32.945Z</time></trkpt><trkpt lat="44.9787865" lon="7.6503558"><ele>225.0</ele><time>2026-05-03T14:20:33.95Z</time></trkpt><trkpt lat="44.9790214" lon="7.6499642"><ele>226.0</ele><time>2026-05-03T14:20:34.938Z</time></trkpt><trkpt lat="44.979248" lon="7.6495839"><ele>227.0</ele><time>2026-05-03T14:20:35.95Z</time></trkpt><trkpt lat="44.9794805" lon="7.6491959"><ele>227.0</ele><time>2026-05-03T14:20:36.952Z</time></trkpt><trkpt lat="44.979704" lon="7.6488134"><ele>227.0</ele><time>2026-05-03T14:20:37.944Z</time></trkpt><trkpt lat="44.979933" lon="7.6484325"><ele>227.5</ele><time>2026-05-03T14:20:38.946Z</time></trkpt><trkpt lat="44.9801543" lon="7.648059"><ele>228.0</ele><time>2026-05-03T14:20:39.958Z</time></trkpt><trkpt lat="44.9803815" lon="7.6476884"><ele>228.0</ele><time>2026-05-03T14:20:40.946Z</time></trkpt><trkpt lat="44.9806072" lon="7.6473137"><ele>228.0</ele><time>2026-05-03T14:20:41.942Z</time></trkpt><trkpt lat="44.9808355" lon="7.6469383"><ele>228.0</ele><time>2026-05-03T14:20:42.943Z</time></trkpt><trkpt lat="44.9810611" lon="7.646569"><ele>228.0</ele><time>2026-05-03T14:20:43.952Z</time></trkpt><trkpt lat="44.9812898" lon="7.6461959"><ele>228.0</ele><time>2026-05-03T14:20:44.945Z</time></trkpt><trkpt lat="44.9815192" lon="7.6458225"><ele>228.0</ele><time>2026-05-03T14:20:45.949Z</time></trkpt><trkpt lat="44.9817536" lon="7.6454443"><ele>227.5</ele><time>2026-05-03T14:20:46.941Z</time></trkpt><trkpt lat="44.9819885" lon="7.6450614"><ele>227.0</ele><time>2026-05-03T14:20:47.955Z</time></trkpt><trkpt lat="44.9822283" lon="7.6446797"><ele>228.5</ele><time>2026-05-03T14:20:48.944Z</time></trkpt><trkpt lat="44.9824528" lon="7.644314"><ele>230.0</ele><time>2026-05-03T14:20:49.951Z</time></trkpt><trkpt lat="44.9826758" lon="7.6439592"><ele>230.0</ele><time>2026-05-03T14:20:50.949Z</time></trkpt><trkpt lat="44.9828908" lon="7.6436077"><ele>230.0</ele><time>2026-05-03T14:20:51.951Z</time></trkpt><trkpt lat="44.9831041" lon="7.6432656"><ele>230.0</ele><time>2026-05-03T14:20:52.948Z</time></trkpt><trkpt lat="44.9833185" lon="7.6429183"><ele>230.0</ele><time>2026-05-03T14:20:53.948Z</time></trkpt><trkpt lat="44.9835359" lon="7.6425746"><ele>230.5</ele><time>2026-05-03T14:20:54.95Z</time></trkpt><trkpt lat="44.9837508" lon="7.6422353"><ele>231.0</ele><time>2026-05-03T14:20:55.949Z</time></trkpt><trkpt lat="44.9839629" lon="7.6418986"><ele>230.5</ele><time>2026-05-03T14:20:56.946Z</time></trkpt><trkpt lat="44.9841777" lon="7.6415598"><ele>230.0</ele><time>2026-05-03T14:20:57.949Z</time></trkpt><trkpt lat="44.9843916" lon="7.641226"><ele>231.0</ele><time>2026-05-03T14:20:58.949Z</time></trkpt><trkpt lat="44.9846033" lon="7.6408936"><ele>232.0</ele><time>2026-05-03T14:20:59.945Z</time></trkpt><trkpt lat="44.9848248" lon="7.6405528"><ele>231.0</ele><time>2026-05-03T14:21:00.949Z</time></trkpt><trkpt lat="44.9850471" lon="7.64021"><ele>230.0</ele><time>2026-05-03T14:21:01.946Z</time></trkpt><trkpt lat="44.985276" lon="7.6398546"><ele>230.0</ele><time>2026-05-03T14:21:02.949Z</time></trkpt><trkpt lat="44.9855064" lon="7.6394996"><ele>230.0</ele><time>2026-05-03T14:21:03.951Z</time></trkpt><trkpt lat="44.9857443" lon="7.6391382"><ele>230.0</ele><time>2026-05-03T14:21:04.96Z</time></trkpt><trkpt lat="44.9859816" lon="7.6387765"><ele>230.0</ele><time>2026-05-03T14:21:05.945Z</time></trkpt><trkpt lat="44.9862282" lon="7.6384101"><ele>231.5</ele><time>2026-05-03T14:21:06.945Z</time></trkpt><trkpt lat="44.9864773" lon="7.6380368"><ele>233.0</ele><time>2026-05-03T14:21:07.944Z</time></trkpt><trkpt lat="44.9867319" lon="7.6376556"><ele>233.0</ele><time>2026-05-03T14:21:08.944Z</time></trkpt><trkpt lat="44.9869829" lon="7.6372769"><ele>233.0</ele><time>2026-05-03T14:21:09.938Z</time></trkpt><trkpt lat="44.987238" lon="7.6368945"><ele>232.5</ele><time>2026-05-03T14:21:10.956Z</time></trkpt><trkpt lat="44.9874844" lon="7.6365232"><ele>232.0</ele><time>2026-05-03T14:21:11.95Z</time></trkpt><trkpt lat="44.9877228" lon="7.6361621"><ele>233.0</ele><time>2026-05-03T14:21:12.948Z</time></trkpt><trkpt lat="44.9879573" lon="7.6358077"><ele>234.0</ele><time>2026-05-03T14:21:13.947Z</time></trkpt><trkpt lat="44.9881897" lon="7.6354561"><ele>234.0</ele><time>2026-05-03T14:21:14.943Z</time></trkpt><trkpt lat="44.9884177" lon="7.6351123"><ele>234.0</ele><time>2026-05-03T14:21:15.951Z</time></trkpt><trkpt lat="44.9886495" lon="7.6347635"><ele>235.5</ele><time>2026-05-03T14:21:16.948Z</time></trkpt><trkpt lat="44.9888775" lon="7.6344228"><ele>237.0</ele><time>2026-05-03T14:21:17.953Z</time></trkpt><trkpt lat="44.9891036" lon="7.6340812"><ele>236.0</ele><time>2026-05-03T14:21:18.949Z</time></trkpt><trkpt lat="44.9893185" lon="7.6337618"><ele>235.0</ele><time>2026-05-03T14:21:19.949Z</time></trkpt><trkpt lat="44.9895206" lon="7.6334618"><ele>235.0</ele><time>2026-05-03T14:21:20.946Z</time></trkpt><trkpt lat="44.9897219" lon="7.6331644"><ele>235.0</ele><time>2026-05-03T14:21:21.953Z</time></trkpt><trkpt lat="44.9899198" lon="7.6328706"><ele>235.0</ele><time>2026-05-03T14:21:22.949Z</time></trkpt><trkpt lat="44.9901172" lon="7.6325713"><ele>235.0</ele><time>2026-05-03T14:21:23.949Z</time></trkpt><trkpt lat="44.9903062" lon="7.6322785"><ele>235.0</ele><time>2026-05-03T14:21:24.951Z</time></trkpt><trkpt lat="44.9904984" lon="7.6319849"><ele>235.0</ele><time>2026-05-03T14:21:25.951Z</time></trkpt><trkpt lat="44.9906931" lon="7.6316889"><ele>235.0</ele><time>2026-05-03T14:21:26.946Z</time></trkpt><trkpt lat="44.9908961" lon="7.631386"><ele>235.0</ele><time>2026-05-03T14:21:27.954Z</time></trkpt><trkpt lat="44.9911024" lon="7.6310781"><ele>234.0</ele><time>2026-05-03T14:21:28.952Z</time></trkpt><trkpt lat="44.9913059" lon="7.63078"><ele>233.0</ele><time>2026-05-03T14:21:29.954Z</time></trkpt><trkpt lat="44.9915062" lon="7.6304998"><ele>234.0</ele><time>2026-05-03T14:21:30.952Z</time></trkpt><trkpt lat="44.9917098" lon="7.6302224"><ele>235.0</ele><time>2026-05-03T14:21:31.95Z</time></trkpt><trkpt lat="44.9919219" lon="7.6299419"><ele>235.0</ele><time>2026-05-03T14:21:32.95Z</time></trkpt><trkpt lat="44.9921355" lon="7.6296709"><ele>235.0</ele><time>2026-05-03T14:21:33.951Z</time></trkpt><trkpt lat="44.9923541" lon="7.6294034"><ele>235.0</ele><time>2026-05-03T14:21:34.951Z</time></trkpt><trkpt lat="44.9925745" lon="7.6291385"><ele>235.0</ele><time>2026-05-03T14:21:35.956Z</time></trkpt><trkpt lat="44.9927964" lon="7.6288783"><ele>235.5</ele><time>2026-05-03T14:21:36.952Z</time></trkpt><trkpt lat="44.9930259" lon="7.6286177"><ele>236.0</ele><time>2026-05-03T14:21:37.957Z</time></trkpt><trkpt lat="44.993257" lon="7.6283644"><ele>236.0</ele><time>2026-05-03T14:21:38.945Z</time></trkpt><trkpt lat="44.9934871" lon="7.6281224"><ele>236.0</ele><time>2026-05-03T14:21:39.953Z</time></trkpt><trkpt lat="44.9937195" lon="7.6278814"><ele>234.5</ele><time>2026-05-03T14:21:40.949Z</time></trkpt><trkpt lat="44.9939528" lon="7.6276473"><ele>233.0</ele><time>2026-05-03T14:21:41.951Z</time></trkpt><trkpt lat="44.994196" lon="7.6274237"><ele>233.0</ele><time>2026-05-03T14:21:42.949Z</time></trkpt><trkpt lat="44.9944333" lon="7.6272092"><ele>233.0</ele><time>2026-05-03T14:21:43.954Z</time></trkpt><trkpt lat="44.9946769" lon="7.6269955"><ele>233.0</ele><time>2026-05-03T14:21:44.954Z</time></trkpt><trkpt lat="44.9949265" lon="7.6267843"><ele>233.0</ele><time>2026-05-03T14:21:45.965Z</time></trkpt><trkpt lat="44.9951777" lon="7.6265768"><ele>233.0</ele><time>2026-05-03T14:21:46.951Z</time></trkpt><trkpt lat="44.9954353" lon="7.6263753"><ele>233.0</ele><time>2026-05-03T14:21:47.946Z</time></trkpt><trkpt lat="44.995701" lon="7.6261728"><ele>233.0</ele><time>2026-05-03T14:21:48.95Z</time></trkpt><trkpt lat="44.9959624" lon="7.6259777"><ele>233.0</ele><time>2026-05-03T14:21:49.957Z</time></trkpt><trkpt lat="44.9962245" lon="7.6257918"><ele>233.0</ele><time>2026-05-03T14:21:50.961Z</time></trkpt><trkpt lat="44.9964935" lon="7.6256134"><ele>233.0</ele><time>2026-05-03T14:21:51.952Z</time></trkpt><trkpt lat="44.9967614" lon="7.6254431"><ele>234.0</ele><time>2026-05-03T14:21:52.956Z</time></trkpt><trkpt lat="44.99703" lon="7.6252761"><ele>235.0</ele><time>2026-05-03T14:21:53.956Z</time></trkpt><trkpt lat="44.9972997" lon="7.6251144"><ele>233.5</ele><time>2026-05-03T14:21:54.95Z</time></trkpt><trkpt lat="44.9975773" lon="7.6249599"><ele>232.0</ele><time>2026-05-03T14:21:55.951Z</time></trkpt><trkpt lat="44.9978905" lon="7.6248016"><ele>232.0</ele><time>2026-05-03T14:21:56.953Z</time></trkpt><trkpt lat="44.9982257" lon="7.6246344"><ele>232.0</ele><time>2026-05-03T14:21:57.954Z</time></trkpt><trkpt lat="44.9985644" lon="7.6244756"><ele>233.0</ele><time>2026-05-03T14:21:58.959Z</time></trkpt><trkpt lat="44.9988847" lon="7.6243218"><ele>234.0</ele><time>2026-05-03T14:21:59.96Z</time></trkpt><trkpt lat="44.9991835" lon="7.6241785"><ele>235.5</ele><time>2026-05-03T14:22:00.964Z</time></trkpt><trkpt lat="44.999475" lon="7.6240338"><ele>237.0</ele><time>2026-05-03T14:22:01.951Z</time></trkpt><trkpt lat="44.9997625" lon="7.6238937"><ele>237.0</ele><time>2026-05-03T14:22:02.955Z</time></trkpt><trkpt lat="45.0000645" lon="7.6237468"><ele>237.0</ele><time>2026-05-03T14:22:03.956Z</time></trkpt><trkpt lat="45.0003704" lon="7.623603"><ele>236.5</ele><time>2026-05-03T14:22:04.952Z</time></trkpt><trkpt lat="45.0006943" lon="7.62345"><ele>236.0</ele><time>2026-05-03T14:22:05.951Z</time></trkpt><trkpt lat="45.0010175" lon="7.6232952"><ele>236.0</ele><time>2026-05-03T14:22:06.959Z</time></trkpt><trkpt lat="45.0013482" lon="7.623136"><ele>236.0</ele><time>2026-05-03T14:22:07.944Z</time></trkpt><trkpt lat="45.0016816" lon="7.6229808"><ele>235.5</ele><time>2026-05-03T14:22:08.954Z</time></trkpt><trkpt lat="45.0020031" lon="7.6228303"><ele>235.0</ele><time>2026-05-03T14:22:09.95Z</time></trkpt><trkpt lat="45.0023103" lon="7.6226855"><ele>236.0</ele><time>2026-05-03T14:22:10.955Z</time></trkpt><trkpt lat="45.0026074" lon="7.6225447"><ele>237.0</ele><time>2026-05-03T14:22:11.955Z</time></trkpt><trkpt lat="45.0029029" lon="7.6224033"><ele>237.0</ele><time>2026-05-03T14:22:12.962Z</time></trkpt><trkpt lat="45.0031999" lon="7.6222674"><ele>237.0</ele><time>2026-05-03T14:22:13.959Z</time></trkpt><trkpt lat="45.0034922" lon="7.622134"><ele>236.5</ele><time>2026-05-03T14:22:14.952Z</time></trkpt><trkpt lat="45.0037778" lon="7.6220014"><ele>236.0</ele><time>2026-05-03T14:22:15.954Z</time></trkpt><trkpt lat="45.004062" lon="7.621869"><ele>236.5</ele><time>2026-05-03T14:22:16.945Z</time></trkpt><trkpt lat="45.0043479" lon="7.6217371"><ele>237.0</ele><time>2026-05-03T14:22:17.952Z</time></trkpt><trkpt lat="45.0046317" lon="7.6216039"><ele>237.0</ele><time>2026-05-03T14:22:18.958Z</time></trkpt><trkpt lat="45.0049167" lon="7.6214715"><ele>237.0</ele><time>2026-05-03T14:22:19.948Z</time></trkpt><trkpt lat="45.0052028" lon="7.6213371"><ele>237.0</ele><time>2026-05-03T14:22:20.96Z</time></trkpt><trkpt lat="45.0054925" lon="7.621201"><ele>237.0</ele><time>2026-05-03T14:22:21.952Z</time></trkpt><trkpt lat="45.0057861" lon="7.6210642"><ele>236.0</ele><time>2026-05-03T14:22:22.956Z</time></trkpt><trkpt lat="45.0060726" lon="7.6209243"><ele>235.0</ele><time>2026-05-03T14:22:23.949Z</time></trkpt><trkpt lat="45.0063538" lon="7.620771"><ele>235.0</ele><time>2026-05-03T14:22:24.958Z</time></trkpt><trkpt lat="45.0066261" lon="7.6205952"><ele>235.0</ele><time>2026-05-03T14:22:25.947Z</time></trkpt><trkpt lat="45.0068913" lon="7.6203908"><ele>235.5</ele><time>2026-05-03T14:22:26.957Z</time></trkpt><trkpt lat="45.0071472" lon="7.6201686"><ele>236.0</ele><time>2026-05-03T14:22:27.955Z</time></trkpt><trkpt lat="45.0073946" lon="7.619928"><ele>236.5</ele><time>2026-05-03T14:22:28.967Z</time></trkpt><trkpt lat="45.0076339" lon="7.6196714"><ele>237.0</ele><time>2026-05-03T14:22:29.951Z</time></trkpt><trkpt lat="45.0078552" lon="7.6194018"><ele>238.0</ele><time>2026-05-03T14:22:30.967Z</time></trkpt><trkpt lat="45.0080665" lon="7.6191153"><ele>239.0</ele><time>2026-05-03T14:22:31.957Z</time></trkpt><trkpt lat="45.0082705" lon="7.6188123"><ele>236.0</ele><time>2026-05-03T14:22:32.939Z</time></trkpt><trkpt lat="45.0084655" lon="7.6184932"><ele>233.0</ele><time>2026-05-03T14:22:33.954Z</time></trkpt><trkpt lat="45.0086404" lon="7.6181471"><ele>233.5</ele><time>2026-05-03T14:22:34.963Z</time></trkpt><trkpt lat="45.0087984" lon="7.6178009"><ele>234.0</ele><time>2026-05-03T14:22:35.958Z</time></trkpt><trkpt lat="45.0089426" lon="7.6174523"><ele>234.0</ele><time>2026-05-03T14:22:36.953Z</time></trkpt><trkpt lat="45.0090609" lon="7.617129"><ele>234.0</ele><time>2026-05-03T14:22:37.954Z</time></trkpt><trkpt lat="45.0091615" lon="7.6168247"><ele>235.0</ele><time>2026-05-03T14:22:38.95Z</time></trkpt><trkpt lat="45.0092489" lon="7.6165312"><ele>236.0</ele><time>2026-05-03T14:22:39.956Z</time></trkpt><trkpt lat="45.0093258" lon="7.6162418"><ele>237.0</ele><time>2026-05-03T14:22:40.959Z</time></trkpt><trkpt lat="45.0093959" lon="7.6159467"><ele>237.0</ele><time>2026-05-03T14:22:41.951Z</time></trkpt><trkpt lat="45.0094565" lon="7.6156302"><ele>237.0</ele><time>2026-05-03T14:22:42.955Z</time></trkpt><trkpt lat="45.0095111" lon="7.6152885"><ele>237.0</ele><time>2026-05-03T14:22:43.943Z</time></trkpt><trkpt lat="45.009559" lon="7.6149212"><ele>237.0</ele><time>2026-05-03T14:22:44.955Z</time></trkpt><trkpt lat="45.0096035" lon="7.6145356"><ele>238.0</ele><time>2026-05-03T14:22:45.952Z</time></trkpt><trkpt lat="45.0096415" lon="7.6141502"><ele>239.0</ele><time>2026-05-03T14:22:46.945Z</time></trkpt><trkpt lat="45.0096834" lon="7.6137632"><ele>239.0</ele><time>2026-05-03T14:22:47.952Z</time></trkpt><trkpt lat="45.0097233" lon="7.6133892"><ele>239.0</ele><time>2026-05-03T14:22:48.947Z</time></trkpt><trkpt lat="45.0097612" lon="7.6130259"><ele>239.5</ele><time>2026-05-03T14:22:49.951Z</time></trkpt><trkpt lat="45.0097974" lon="7.6126771"><ele>240.0</ele><time>2026-05-03T14:22:50.948Z</time></trkpt><trkpt lat="45.0098349" lon="7.6123307"><ele>240.5</ele><time>2026-05-03T14:22:51.956Z</time></trkpt><trkpt lat="45.009874" lon="7.6119727"><ele>241.0</ele><time>2026-05-03T14:22:52.953Z</time></trkpt><trkpt lat="45.0099157" lon="7.6116221"><ele>241.0</ele><time>2026-05-03T14:22:53.955Z</time></trkpt><trkpt lat="45.0099538" lon="7.6112833"><ele>241.0</ele><time>2026-05-03T14:22:54.95Z</time></trkpt><trkpt lat="45.0099929" lon="7.6109419"><ele>239.0</ele><time>2026-05-03T14:22:55.956Z</time></trkpt><trkpt lat="45.0100334" lon="7.6106094"><ele>237.0</ele><time>2026-05-03T14:22:56.954Z</time></trkpt><trkpt lat="45.0100742" lon="7.6102948"><ele>236.5</ele><time>2026-05-03T14:22:57.95Z</time></trkpt><trkpt lat="45.010126" lon="7.6099715"><ele>236.0</ele><time>2026-05-03T14:22:58.959Z</time></trkpt><trkpt lat="45.0101887" lon="7.6096475"><ele>236.5</ele><time>2026-05-03T14:22:59.955Z</time></trkpt><trkpt lat="45.0102611" lon="7.6093054"><ele>237.0</ele><time>2026-05-03T14:23:00.949Z</time></trkpt><trkpt lat="45.0103432" lon="7.6089597"><ele>238.0</ele><time>2026-05-03T14:23:01.956Z</time></trkpt><trkpt lat="45.0104346" lon="7.6086063"><ele>239.0</ele><time>2026-05-03T14:23:02.951Z</time></trkpt><trkpt lat="45.010539" lon="7.6082515"><ele>239.0</ele><time>2026-05-03T14:23:03.949Z</time></trkpt><trkpt lat="45.0106463" lon="7.6079176"><ele>239.0</ele><time>2026-05-03T14:23:04.955Z</time></trkpt><trkpt lat="45.0107607" lon="7.6075899"><ele>238.5</ele><time>2026-05-03T14:23:05.95Z</time></trkpt><trkpt lat="45.010883" lon="7.6072718"><ele>238.0</ele><time>2026-05-03T14:23:06.952Z</time></trkpt><trkpt lat="45.0110139" lon="7.6069546"><ele>239.0</ele><time>2026-05-03T14:23:07.952Z</time></trkpt><trkpt lat="45.0111549" lon="7.6066412"><ele>240.0</ele><time>2026-05-03T14:23:08.95Z</time></trkpt><trkpt lat="45.0113063" lon="7.6063321"><ele>239.5</ele><time>2026-05-03T14:23:09.953Z</time></trkpt><trkpt lat="45.0114647" lon="7.606037"><ele>239.0</ele><time>2026-05-03T14:23:10.953Z</time></trkpt><trkpt lat="45.0116282" lon="7.6057489"><ele>240.0</ele><time>2026-05-03T14:23:11.95Z</time></trkpt><trkpt lat="45.0118" lon="7.6054655"><ele>241.0</ele><time>2026-05-03T14:23:12.957Z</time></trkpt><trkpt lat="45.01198" lon="7.6051873"><ele>241.0</ele><time>2026-05-03T14:23:13.96Z</time></trkpt><trkpt lat="45.0121669" lon="7.6049185"><ele>241.0</ele><time>2026-05-03T14:23:14.943Z</time></trkpt><trkpt lat="45.0123618" lon="7.6046563"><ele>240.5</ele><time>2026-05-03T14:23:15.953Z</time></trkpt><trkpt lat="45.0125636" lon="7.6044057"><ele>240.0</ele><time>2026-05-03T14:23:16.952Z</time></trkpt><trkpt lat="45.0127758" lon="7.6041604"><ele>240.0</ele><time>2026-05-03T14:23:17.951Z</time></trkpt><trkpt lat="45.012992" lon="7.6039262"><ele>240.0</ele><time>2026-05-03T14:23:18.954Z</time></trkpt><trkpt lat="45.0132213" lon="7.6036938"><ele>242.5</ele><time>2026-05-03T14:23:19.95Z</time></trkpt><trkpt lat="45.0134618" lon="7.6034706"><ele>245.0</ele><time>2026-05-03T14:23:20.947Z</time></trkpt><trkpt lat="45.0137208" lon="7.6032489"><ele>245.0</ele><time>2026-05-03T14:23:21.951Z</time></trkpt><trkpt lat="45.0139934" lon="7.603033"><ele>245.0</ele><time>2026-05-03T14:23:22.96Z</time></trkpt><trkpt lat="45.0142792" lon="7.6028297"><ele>245.5</ele><time>2026-05-03T14:23:23.949Z</time></trkpt><trkpt lat="45.014573" lon="7.6026451"><ele>246.0</ele><time>2026-05-03T14:23:24.941Z</time></trkpt><trkpt lat="45.0148684" lon="7.6024819"><ele>247.5</ele><time>2026-05-03T14:23:25.949Z</time></trkpt><trkpt lat="45.015161" lon="7.6023348"><ele>249.0</ele><time>2026-05-03T14:23:26.947Z</time></trkpt><trkpt lat="45.0154479" lon="7.6021986"><ele>249.0</ele><time>2026-05-03T14:23:27.95Z</time></trkpt><trkpt lat="45.0157324" lon="7.6020714"><ele>249.0</ele><time>2026-05-03T14:23:28.941Z</time></trkpt><trkpt lat="45.0160244" lon="7.6019427"><ele>250.0</ele><time>2026-05-03T14:23:29.953Z</time></trkpt><trkpt lat="45.0163081" lon="7.6018195"><ele>251.0</ele><time>2026-05-03T14:23:30.953Z</time></trkpt><trkpt lat="45.0165899" lon="7.6016948"><ele>251.0</ele><time>2026-05-03T14:23:31.946Z</time></trkpt><trkpt lat="45.0168688" lon="7.60157"><ele>251.0</ele><time>2026-05-03T14:23:32.957Z</time></trkpt><trkpt lat="45.0171483" lon="7.6014426"><ele>251.0</ele><time>2026-05-03T14:23:33.947Z</time></trkpt><trkpt lat="45.0174273" lon="7.6013094"><ele>251.0</ele><time>2026-05-03T14:23:34.94Z</time></trkpt><trkpt lat="45.0177121" lon="7.6011678"><ele>252.5</ele><time>2026-05-03T14:23:35.941Z</time></trkpt><trkpt lat="45.0179962" lon="7.6010181"><ele>254.0</ele><time>2026-05-03T14:23:36.952Z</time></trkpt><trkpt lat="45.0182817" lon="7.6008616"><ele>254.0</ele><time>2026-05-03T14:23:37.942Z</time></trkpt><trkpt lat="45.0185641" lon="7.6006987"><ele>254.0</ele><time>2026-05-03T14:23:38.949Z</time></trkpt><trkpt lat="45.0188442" lon="7.6005315"><ele>254.0</ele><time>2026-05-03T14:23:39.955Z</time></trkpt><trkpt lat="45.0191279" lon="7.6003506"><ele>254.0</ele><time>2026-05-03T14:23:40.956Z</time></trkpt><trkpt lat="45.0194034" lon="7.6001718"><ele>254.5</ele><time>2026-05-03T14:23:41.953Z</time></trkpt><trkpt lat="45.0196768" lon="7.5999877"><ele>255.0</ele><time>2026-05-03T14:23:42.951Z</time></trkpt><trkpt lat="45.0199512" lon="7.5998012"><ele>255.0</ele><time>2026-05-03T14:23:43.952Z</time></trkpt><trkpt lat="45.0202227" lon="7.599611"><ele>255.0</ele><time>2026-05-03T14:23:44.951Z</time></trkpt><trkpt lat="45.0204922" lon="7.599416"><ele>255.0</ele><time>2026-05-03T14:23:45.947Z</time></trkpt><trkpt lat="45.020762" lon="7.599213"><ele>255.0</ele><time>2026-05-03T14:23:46.946Z</time></trkpt><trkpt lat="45.0210321" lon="7.5990053"><ele>255.5</ele><time>2026-05-03T14:23:47.945Z</time></trkpt><trkpt lat="45.0212963" lon="7.5987882"><ele>256.0</ele><time>2026-05-03T14:23:48.947Z</time></trkpt><trkpt lat="45.0215497" lon="7.5985804"><ele>257.0</ele><time>2026-05-03T14:23:49.952Z</time></trkpt><trkpt lat="45.0218087" lon="7.5983587"><ele>258.0</ele><time>2026-05-03T14:23:50.95Z</time></trkpt><trkpt lat="45.0220676" lon="7.5981374"><ele>258.0</ele><time>2026-05-03T14:23:51.954Z</time></trkpt><trkpt lat="45.0223279" lon="7.59792"><ele>258.0</ele><time>2026-05-03T14:23:52.955Z</time></trkpt><trkpt lat="45.0225871" lon="7.5977034"><ele>258.0</ele><time>2026-05-03T14:23:53.949Z</time></trkpt><trkpt lat="45.0228439" lon="7.5974729"><ele>258.0</ele><time>2026-05-03T14:23:54.959Z</time></trkpt><trkpt lat="45.0230893" lon="7.5972569"><ele>259.5</ele><time>2026-05-03T14:23:55.956Z</time></trkpt><trkpt lat="45.0233375" lon="7.5970379"><ele>261.0</ele><time>2026-05-03T14:23:56.955Z</time></trkpt><trkpt lat="45.0235798" lon="7.5968248"><ele>261.0</ele><time>2026-05-03T14:23:57.95Z</time></trkpt><trkpt lat="45.0238275" lon="7.5966058"><ele>261.0</ele><time>2026-05-03T14:23:58.944Z</time></trkpt><trkpt lat="45.0240776" lon="7.5963861"><ele>262.5</ele><time>2026-05-03T14:23:59.948Z</time></trkpt><trkpt lat="45.0243335" lon="7.5961615"><ele>264.0</ele><time>2026-05-03T14:24:00.951Z</time></trkpt><trkpt lat="45.0245861" lon="7.5959398"><ele>264.0</ele><time>2026-05-03T14:24:01.936Z</time></trkpt><trkpt lat="45.0248384" lon="7.5957201"><ele>264.0</ele><time>2026-05-03T14:24:02.952Z</time></trkpt><trkpt lat="45.0250927" lon="7.5954998"><ele>264.5</ele><time>2026-05-03T14:24:03.953Z</time></trkpt><trkpt lat="45.0253482" lon="7.5952808"><ele>265.0</ele><time>2026-05-03T14:24:04.958Z</time></trkpt><trkpt lat="45.0256004" lon="7.5950639"><ele>266.0</ele><time>2026-05-03T14:24:05.954Z</time></trkpt><trkpt lat="45.0258543" lon="7.5948459"><ele>267.0</ele><time>2026-05-03T14:24:06.957Z</time></trkpt><trkpt lat="45.0261093" lon="7.594629"><ele>266.0</ele><time>2026-05-03T14:24:07.955Z</time></trkpt><trkpt lat="45.026369" lon="7.5944085"><ele>265.0</ele><time>2026-05-03T14:24:08.954Z</time></trkpt><trkpt lat="45.0266249" lon="7.5941896"><ele>265.5</ele><time>2026-05-03T14:24:09.953Z</time></trkpt><trkpt lat="45.0268835" lon="7.5939675"><ele>266.0</ele><time>2026-05-03T14:24:10.964Z</time></trkpt><trkpt lat="45.0271381" lon="7.5937475"><ele>266.5</ele><time>2026-05-03T14:24:11.971Z</time></trkpt><trkpt lat="45.0273986" lon="7.5935221"><ele>267.0</ele><time>2026-05-03T14:24:12.952Z</time></trkpt><trkpt lat="45.0276617" lon="7.5932949"><ele>267.0</ele><time>2026-05-03T14:24:13.957Z</time></trkpt><trkpt lat="45.0279244" lon="7.5930699"><ele>267.0</ele><time>2026-05-03T14:24:14.962Z</time></trkpt><trkpt lat="45.0281841" lon="7.5928472"><ele>266.0</ele><time>2026-05-03T14:24:15.946Z</time></trkpt><trkpt lat="45.0284437" lon="7.5926264"><ele>265.0</ele><time>2026-05-03T14:24:16.949Z</time></trkpt><trkpt lat="45.0287001" lon="7.5924051"><ele>265.0</ele><time>2026-05-03T14:24:17.961Z</time></trkpt><trkpt lat="45.02896" lon="7.5921791"><ele>265.0</ele><time>2026-05-03T14:24:18.954Z</time></trkpt><trkpt lat="45.0292205" lon="7.5919518"><ele>265.5</ele><time>2026-05-03T14:24:19.957Z</time></trkpt><trkpt lat="45.0294825" lon="7.5917246"><ele>266.0</ele><time>2026-05-03T14:24:20.953Z</time></trkpt><trkpt lat="45.0297441" lon="7.5914913"><ele>265.0</ele><time>2026-05-03T14:24:21.955Z</time></trkpt><trkpt lat="45.0299986" lon="7.5912475"><ele>264.0</ele><time>2026-05-03T14:24:22.955Z</time></trkpt><trkpt lat="45.0302478" lon="7.5909928"><ele>263.5</ele><time>2026-05-03T14:24:23.957Z</time></trkpt><trkpt lat="45.0304911" lon="7.5907201"><ele>263.0</ele><time>2026-05-03T14:24:24.951Z</time></trkpt><trkpt lat="45.0307258" lon="7.5904364"><ele>263.0</ele><time>2026-05-03T14:24:25.945Z</time></trkpt><trkpt lat="45.030957" lon="7.5901401"><ele>263.0</ele><time>2026-05-03T14:24:26.955Z</time></trkpt><trkpt lat="45.0311853" lon="7.5898266"><ele>264.5</ele><time>2026-05-03T14:24:27.961Z</time></trkpt><trkpt lat="45.031401" lon="7.589503"><ele>266.0</ele><time>2026-05-03T14:24:28.953Z</time></trkpt><trkpt lat="45.031606" lon="7.589177"><ele>266.0</ele><time>2026-05-03T14:24:29.951Z</time></trkpt><trkpt lat="45.0318065" lon="7.5888419"><ele>266.0</ele><time>2026-05-03T14:24:30.964Z</time></trkpt><trkpt lat="45.0319935" lon="7.5884984"><ele>266.0</ele><time>2026-05-03T14:24:31.948Z</time></trkpt><trkpt lat="45.032178" lon="7.5881462"><ele>266.0</ele><time>2026-05-03T14:24:32.961Z</time></trkpt><trkpt lat="45.0323479" lon="7.5877867"><ele>266.0</ele><time>2026-05-03T14:24:33.958Z</time></trkpt><trkpt lat="45.0325116" lon="7.5874234"><ele>266.0</ele><time>2026-05-03T14:24:34.951Z</time></trkpt><trkpt lat="45.0326617" lon="7.5870428"><ele>266.0</ele><time>2026-05-03T14:24:35.949Z</time></trkpt><trkpt lat="45.032805" lon="7.5866562"><ele>266.0</ele><time>2026-05-03T14:24:36.955Z</time></trkpt><trkpt lat="45.0329421" lon="7.5862591"><ele>266.5</ele><time>2026-05-03T14:24:37.961Z</time></trkpt><trkpt lat="45.0330753" lon="7.5858577"><ele>267.0</ele><time>2026-05-03T14:24:38.952Z</time></trkpt><trkpt lat="45.0331951" lon="7.585457"><ele>266.5</ele><time>2026-05-03T14:24:39.95Z</time></trkpt><trkpt lat="45.0333092" lon="7.5850558"><ele>266.0</ele><time>2026-05-03T14:24:40.952Z</time></trkpt><trkpt lat="45.0334173" lon="7.5846552"><ele>265.5</ele><time>2026-05-03T14:24:41.957Z</time></trkpt><trkpt lat="45.0335375" lon="7.584249"><ele>265.0</ele><time>2026-05-03T14:24:42.964Z</time></trkpt><trkpt lat="45.0336662" lon="7.583821"><ele>264.5</ele><time>2026-05-03T14:24:43.955Z</time></trkpt><trkpt lat="45.0337867" lon="7.5833894"><ele>264.0</ele><time>2026-05-03T14:24:44.948Z</time></trkpt><trkpt lat="45.033913" lon="7.5829524"><ele>263.5</ele><time>2026-05-03T14:24:45.961Z</time></trkpt><trkpt lat="45.0340327" lon="7.5825186"><ele>263.0</ele><time>2026-05-03T14:24:46.949Z</time></trkpt><trkpt lat="45.0341584" lon="7.5820813"><ele>264.5</ele><time>2026-05-03T14:24:47.955Z</time></trkpt><trkpt lat="45.0342796" lon="7.5816436"><ele>266.0</ele><time>2026-05-03T14:24:48.954Z</time></trkpt><trkpt lat="45.0344009" lon="7.5812072"><ele>266.5</ele><time>2026-05-03T14:24:49.957Z</time></trkpt><trkpt lat="45.0345246" lon="7.5807702"><ele>267.0</ele><time>2026-05-03T14:24:50.949Z</time></trkpt><trkpt lat="45.0346499" lon="7.5803325"><ele>268.5</ele><time>2026-05-03T14:24:51.949Z</time></trkpt><trkpt lat="45.0347758" lon="7.5798907"><ele>270.0</ele><time>2026-05-03T14:24:52.956Z</time></trkpt><trkpt lat="45.034904" lon="7.5794436"><ele>270.5</ele><time>2026-05-03T14:24:53.949Z</time></trkpt><trkpt lat="45.0350328" lon="7.5789982"><ele>271.0</ele><time>2026-05-03T14:24:54.966Z</time></trkpt><trkpt lat="45.0351619" lon="7.5785495"><ele>271.0</ele><time>2026-05-03T14:24:55.944Z</time></trkpt><trkpt lat="45.0352891" lon="7.5780981"><ele>271.0</ele><time>2026-05-03T14:24:56.944Z</time></trkpt><trkpt lat="45.0354149" lon="7.5776464"><ele>273.0</ele><time>2026-05-03T14:24:57.947Z</time></trkpt><trkpt lat="45.0355419" lon="7.5771975"><ele>275.0</ele><time>2026-05-03T14:24:58.939Z</time></trkpt><trkpt lat="45.0356701" lon="7.5767468"><ele>275.0</ele><time>2026-05-03T14:24:59.938Z</time></trkpt><trkpt lat="45.0357947" lon="7.5762896"><ele>275.0</ele><time>2026-05-03T14:25:00.936Z</time></trkpt><trkpt lat="45.0359307" lon="7.5758334"><ele>275.0</ele><time>2026-05-03T14:25:01.948Z</time></trkpt><trkpt lat="45.0360496" lon="7.5753749"><ele>275.0</ele><time>2026-05-03T14:25:02.94Z</time></trkpt><trkpt lat="45.0361732" lon="7.5749073"><ele>274.0</ele><time>2026-05-03T14:25:03.943Z</time></trkpt><trkpt lat="45.0362962" lon="7.5744394"><ele>273.0</ele><time>2026-05-03T14:25:04.945Z</time></trkpt><trkpt lat="45.0364235" lon="7.5739724"><ele>274.0</ele><time>2026-05-03T14:25:05.947Z</time></trkpt><trkpt lat="45.0365493" lon="7.5735068"><ele>275.0</ele><time>2026-05-03T14:25:06.951Z</time></trkpt><trkpt lat="45.0366733" lon="7.573053"><ele>275.0</ele><time>2026-05-03T14:25:07.941Z</time></trkpt><trkpt lat="45.0367926" lon="7.5726196"><ele>275.0</ele><time>2026-05-03T14:25:08.945Z</time></trkpt><trkpt lat="45.0369079" lon="7.5721955"><ele>276.0</ele><time>2026-05-03T14:25:09.947Z</time></trkpt><trkpt lat="45.0370209" lon="7.5717937"><ele>277.0</ele><time>2026-05-03T14:25:10.946Z</time></trkpt><trkpt lat="45.037128" lon="7.5714093"><ele>277.5</ele><time>2026-05-03T14:25:11.94Z</time></trkpt><trkpt lat="45.0372258" lon="7.571045"><ele>278.0</ele><time>2026-05-03T14:25:12.951Z</time></trkpt><trkpt lat="45.0373252" lon="7.5706918"><ele>279.0</ele><time>2026-05-03T14:25:13.949Z</time></trkpt><trkpt lat="45.0374269" lon="7.5703391"><ele>280.0</ele><time>2026-05-03T14:25:14.95Z</time></trkpt><trkpt lat="45.0375261" lon="7.5699934"><ele>280.5</ele><time>2026-05-03T14:25:15.947Z</time></trkpt><trkpt lat="45.0376201" lon="7.5696636"><ele>281.0</ele><time>2026-05-03T14:25:16.951Z</time></trkpt><trkpt lat="45.0376949" lon="7.5693684"><ele>280.6666666666667</ele><time>2026-05-03T14:25:17.956Z</time></trkpt><trkpt lat="45.0377782" lon="7.5690726"><ele>280.3333333333333</ele><time>2026-05-03T14:25:18.961Z</time></trkpt><trkpt lat="45.0378713" lon="7.5688129"><ele>280.0</ele><time>2026-05-03T14:25:19.957Z</time></trkpt><trkpt lat="45.0379856" lon="7.5685748"><ele>280.0</ele><time>2026-05-03T14:25:20.951Z</time></trkpt><trkpt lat="45.0381136" lon="7.5683512"><ele>280.0</ele><time>2026-05-03T14:25:21.949Z</time></trkpt><trkpt lat="45.0382328" lon="7.5681194"><ele>280.0</ele><time>2026-05-03T14:25:22.956Z</time></trkpt><trkpt lat="45.0383362" lon="7.567858"><ele>280.0</ele><time>2026-05-03T14:25:23.952Z</time></trkpt><trkpt lat="45.0384332" lon="7.5675635"><ele>280.0</ele><time>2026-05-03T14:25:24.957Z</time></trkpt><trkpt lat="45.0385262" lon="7.5672442"><ele>282.0</ele><time>2026-05-03T14:25:25.95Z</time></trkpt><trkpt lat="45.0386111" lon="7.5669326"><ele>284.0</ele><time>2026-05-03T14:25:26.946Z</time></trkpt><trkpt lat="45.0386933" lon="7.5666276"><ele>284.0</ele><time>2026-05-03T14:25:27.956Z</time></trkpt><trkpt lat="45.03878" lon="7.5663088"><ele>284.0</ele><time>2026-05-03T14:25:28.955Z</time></trkpt><trkpt lat="45.0388688" lon="7.5659764"><ele>284.0</ele><time>2026-05-03T14:25:29.947Z</time></trkpt><trkpt lat="45.0389589" lon="7.5656412"><ele>284.0</ele><time>2026-05-03T14:25:30.954Z</time></trkpt><trkpt lat="45.0390561" lon="7.5652952"><ele>283.5</ele><time>2026-05-03T14:25:31.942Z</time></trkpt><trkpt lat="45.0391509" lon="7.5649399"><ele>283.0</ele><time>2026-05-03T14:25:32.951Z</time></trkpt><trkpt lat="45.0392537" lon="7.5645776"><ele>284.5</ele><time>2026-05-03T14:25:33.951Z</time></trkpt><trkpt lat="45.0393502" lon="7.5642249"><ele>286.0</ele><time>2026-05-03T14:25:34.951Z</time></trkpt><trkpt lat="45.0394516" lon="7.5638825"><ele>286.0</ele><time>2026-05-03T14:25:35.961Z</time></trkpt><trkpt lat="45.0395366" lon="7.5635723"><ele>286.0</ele><time>2026-05-03T14:25:36.953Z</time></trkpt><trkpt lat="45.0396145" lon="7.5632969"><ele>286.0</ele><time>2026-05-03T14:25:37.954Z</time></trkpt><trkpt lat="45.0396876" lon="7.5630367"><ele>285.0</ele><time>2026-05-03T14:25:38.952Z</time></trkpt><trkpt lat="45.0397532" lon="7.5628056"><ele>284.0</ele><time>2026-05-03T14:25:39.95Z</time></trkpt><trkpt lat="45.0398026" lon="7.5626127"><ele>283.0</ele><time>2026-05-03T14:25:40.958Z</time></trkpt><trkpt lat="45.0398515" lon="7.5624379"><ele>283.0</ele><time>2026-05-03T14:25:41.949Z</time></trkpt><trkpt lat="45.0398953" lon="7.5622816"><ele>283.0</ele><time>2026-05-03T14:25:42.957Z</time></trkpt><trkpt lat="45.0399514" lon="7.5621506"><ele>283.0</ele><time>2026-05-03T14:25:43.958Z</time></trkpt><trkpt lat="45.0400347" lon="7.5620544"><ele>283.0</ele><time>2026-05-03T14:25:44.961Z</time></trkpt><trkpt lat="45.0401453" lon="7.5620025"><ele>283.0</ele><time>2026-05-03T14:25:45.948Z</time></trkpt><trkpt lat="45.0402709" lon="7.5619997"><ele>283.0</ele><time>2026-05-03T14:25:46.95Z</time></trkpt><trkpt lat="45.0403902" lon="7.5620432"><ele>283.0</ele><time>2026-05-03T14:25:47.96Z</time></trkpt><trkpt lat="45.0404987" lon="7.5621206"><ele>283.0</ele><time>2026-05-03T14:25:48.954Z</time></trkpt><trkpt lat="45.0405892" lon="7.5622172"><ele>283.0</ele><time>2026-05-03T14:25:49.898Z</time></trkpt><trkpt lat="45.0406782" lon="7.5622938"><ele>283.0</ele><time>2026-05-03T14:25:50.894Z</time></trkpt><trkpt lat="45.0407822" lon="7.5623217"><ele>283.0</ele><time>2026-05-03T14:25:51.898Z</time></trkpt><trkpt lat="45.0409016" lon="7.5623452"><ele>283.0</ele><time>2026-05-03T14:25:52.894Z</time></trkpt><trkpt lat="45.041001" lon="7.562373"><ele>283.0</ele><time>2026-05-03T14:25:53.892Z</time></trkpt><trkpt lat="45.0410947" lon="7.5624109"><ele>283.0</ele><time>2026-05-03T14:25:54.895Z</time></trkpt><trkpt lat="45.0411902" lon="7.5624447"><ele>283.0</ele><time>2026-05-03T14:25:55.884Z</time></trkpt><trkpt lat="45.0412895" lon="7.5624647"><ele>283.0</ele><time>2026-05-03T14:25:56.891Z</time></trkpt><trkpt lat="45.0413858" lon="7.5624602"><ele>283.0</ele><time>2026-05-03T14:25:57.897Z</time></trkpt><trkpt lat="45.0414824" lon="7.562427"><ele>283.0</ele><time>2026-05-03T14:25:58.891Z</time></trkpt><trkpt lat="45.0415674" lon="7.5623544"><ele>283.6</ele><time>2026-05-03T14:25:59.889Z</time></trkpt><trkpt lat="45.0416369" lon="7.5622668"><ele>284.20000000000005</ele><time>2026-05-03T14:26:00.893Z</time></trkpt><trkpt lat="45.0417054" lon="7.562167"><ele>284.8</ele><time>2026-05-03T14:26:01.895Z</time></trkpt><trkpt lat="45.0417824" lon="7.5620703"><ele>285.40000000000003</ele><time>2026-05-03T14:26:02.891Z</time></trkpt><trkpt lat="45.0418617" lon="7.5619822"><ele>286.0</ele><time>2026-05-03T14:26:03.891Z</time></trkpt><trkpt lat="45.041933" lon="7.5619203"><ele>286.0</ele><time>2026-05-03T14:26:04.894Z</time></trkpt><trkpt lat="45.042001" lon="7.5618699"><ele>286.0</ele><time>2026-05-03T14:26:05.893Z</time></trkpt><trkpt lat="45.0420771" lon="7.5618335"><ele>286.0</ele><time>2026-05-03T14:26:06.897Z</time></trkpt><trkpt lat="45.0421719" lon="7.5617951"><ele>286.0</ele><time>2026-05-03T14:26:07.898Z</time></trkpt><trkpt lat="45.0422816" lon="7.5617344"><ele>286.0</ele><time>2026-05-03T14:26:08.896Z</time></trkpt><trkpt lat="45.0423805" lon="7.5616319"><ele>286.0</ele><time>2026-05-03T14:26:09.891Z</time></trkpt><trkpt lat="45.042441" lon="7.5614836"><ele>286.0</ele><time>2026-05-03T14:26:10.9Z</time></trkpt><trkpt lat="45.0424635" lon="7.5612955"><ele>286.0</ele><time>2026-05-03T14:26:11.896Z</time></trkpt><trkpt lat="45.0424334" lon="7.5611132"><ele>286.0</ele><time>2026-05-03T14:26:12.888Z</time></trkpt><trkpt lat="45.0423606" lon="7.5609328"><ele>287.3333333333333</ele><time>2026-05-03T14:26:13.893Z</time></trkpt><trkpt lat="45.0422544" lon="7.560781"><ele>288.6666666666667</ele><time>2026-05-03T14:26:14.898Z</time></trkpt><trkpt lat="45.0421302" lon="7.5606294"><ele>290.0</ele><time>2026-05-03T14:26:15.892Z</time></trkpt><trkpt lat="45.042035" lon="7.5604518"><ele>289.75</ele><time>2026-05-03T14:26:16.897Z</time></trkpt><trkpt lat="45.0419602" lon="7.5602621"><ele>289.5</ele><time>2026-05-03T14:26:17.892Z</time></trkpt><trkpt lat="45.0419166" lon="7.5600804"><ele>289.25</ele><time>2026-05-03T14:26:18.887Z</time></trkpt><trkpt lat="45.0418821" lon="7.5599091"><ele>289.0</ele><time>2026-05-03T14:26:19.899Z</time></trkpt><trkpt lat="45.0418511" lon="7.5597526"><ele>289.0</ele><time>2026-05-03T14:26:20.89Z</time></trkpt><trkpt lat="45.041817" lon="7.559604"><ele>289.0</ele><time>2026-05-03T14:26:21.901Z</time></trkpt><trkpt lat="45.0417746" lon="7.5594508"><ele>289.0</ele><time>2026-05-03T14:26:22.885Z</time></trkpt><trkpt lat="45.0417232" lon="7.5593074"><ele>289.0</ele><time>2026-05-03T14:26:23.884Z</time></trkpt><trkpt lat="45.0416592" lon="7.5591704"><ele>289.5</ele><time>2026-05-03T14:26:24.884Z</time></trkpt><trkpt lat="45.041586" lon="7.5590407"><ele>290.0</ele><time>2026-05-03T14:26:25.927Z</time></trkpt><trkpt lat="45.0415058" lon="7.5589162"><ele>290.5</ele><time>2026-05-03T14:26:26.93Z</time></trkpt><trkpt lat="45.0414129" lon="7.5587942"><ele>291.0</ele><time>2026-05-03T14:26:27.92Z</time></trkpt><trkpt lat="45.0413113" lon="7.5586764"><ele>291.0</ele><time>2026-05-03T14:26:28.897Z</time></trkpt><trkpt lat="45.0411978" lon="7.5585691"><ele>291.0</ele><time>2026-05-03T14:26:29.929Z</time></trkpt><trkpt lat="45.0410698" lon="7.5584713"><ele>291.0</ele><time>2026-05-03T14:26:30.933Z</time></trkpt><trkpt lat="45.0409444" lon="7.558391"><ele>291.0</ele><time>2026-05-03T14:26:31.91Z</time></trkpt><trkpt lat="45.0408106" lon="7.5583218"><ele>290.25</ele><time>2026-05-03T14:26:32.896Z</time></trkpt><trkpt lat="45.040678" lon="7.5582521"><ele>289.5</ele><time>2026-05-03T14:26:33.894Z</time></trkpt><trkpt lat="45.0405547" lon="7.5581858"><ele>288.75</ele><time>2026-05-03T14:26:34.935Z</time></trkpt><trkpt lat="45.0404347" lon="7.5581161"><ele>288.0</ele><time>2026-05-03T14:26:35.917Z</time></trkpt><trkpt lat="45.0403136" lon="7.5580508"><ele>288.0</ele><time>2026-05-03T14:26:36.891Z</time></trkpt><trkpt lat="45.0401876" lon="7.557983"><ele>288.0</ele><time>2026-05-03T14:26:37.89Z</time></trkpt><trkpt lat="45.0400566" lon="7.5579068"><ele>288.0</ele><time>2026-05-03T14:26:38.913Z</time></trkpt><trkpt lat="45.0399165" lon="7.5578307"><ele>288.0</ele><time>2026-05-03T14:26:39.894Z</time></trkpt><trkpt lat="45.0397741" lon="7.5577508"><ele>287.5</ele><time>2026-05-03T14:26:40.919Z</time></trkpt><trkpt lat="45.0396417" lon="7.5576818"><ele>287.0</ele><time>2026-05-03T14:26:41.905Z</time></trkpt><trkpt lat="45.0395165" lon="7.5576128"><ele>286.5</ele><time>2026-05-03T14:26:42.93Z</time></trkpt><trkpt lat="45.0393973" lon="7.5575427"><ele>286.0</ele><time>2026-05-03T14:26:43.925Z</time></trkpt><trkpt lat="45.0392838" lon="7.5574764"><ele>286.0</ele><time>2026-05-03T14:26:44.938Z</time></trkpt><trkpt lat="45.039168" lon="7.5574073"><ele>286.0</ele><time>2026-05-03T14:26:45.912Z</time></trkpt><trkpt lat="45.0390556" lon="7.5573262"><ele>286.0</ele><time>2026-05-03T14:26:46.902Z</time></trkpt><trkpt lat="45.0389504" lon="7.5572321"><ele>286.0</ele><time>2026-05-03T14:26:47.91Z</time></trkpt><trkpt lat="45.0388519" lon="7.5571262"><ele>286.25</ele><time>2026-05-03T14:26:48.922Z</time></trkpt><trkpt lat="45.0387602" lon="7.557008"><ele>286.5</ele><time>2026-05-03T14:26:49.9Z</time></trkpt><trkpt lat="45.0386695" lon="7.5568849"><ele>286.75</ele><time>2026-05-03T14:26:50.921Z</time></trkpt><trkpt lat="45.0385843" lon="7.556765"><ele>287.0</ele><time>2026-05-03T14:26:51.903Z</time></trkpt><trkpt lat="45.0385053" lon="7.5566438"><ele>287.0</ele><time>2026-05-03T14:26:52.93Z</time></trkpt><trkpt lat="45.0384312" lon="7.556517"><ele>287.0</ele><time>2026-05-03T14:26:53.942Z</time></trkpt><trkpt lat="45.0383625" lon="7.5563904"><ele>287.0</ele><time>2026-05-03T14:26:54.937Z</time></trkpt><trkpt lat="45.038303" lon="7.5562634"><ele>287.0</ele><time>2026-05-03T14:26:55.949Z</time></trkpt><trkpt lat="45.0382449" lon="7.5561256"><ele>287.0</ele><time>2026-05-03T14:26:56.937Z</time></trkpt><trkpt lat="45.0381845" lon="7.5559745"><ele>287.0</ele><time>2026-05-03T14:26:57.943Z</time></trkpt><trkpt lat="45.0381352" lon="7.5558257"><ele>287.0</ele><time>2026-05-03T14:26:58.928Z</time></trkpt><trkpt lat="45.0380918" lon="7.5556824"><ele>287.0</ele><time>2026-05-03T14:26:59.954Z</time></trkpt><trkpt lat="45.0380544" lon="7.5555389"><ele>287.0</ele><time>2026-05-03T14:27:00.881Z</time></trkpt><trkpt lat="45.0380138" lon="7.5553875"><ele>287.0</ele><time>2026-05-03T14:27:01.939Z</time></trkpt><trkpt lat="45.0379673" lon="7.5552256"><ele>287.0</ele><time>2026-05-03T14:27:02.942Z</time></trkpt><trkpt lat="45.0379121" lon="7.555064"><ele>287.0</ele><time>2026-05-03T14:27:03.942Z</time></trkpt><trkpt lat="45.0378404" lon="7.5549078"><ele>286.75</ele><time>2026-05-03T14:27:04.935Z</time></trkpt><trkpt lat="45.0377576" lon="7.554776"><ele>286.5</ele><time>2026-05-03T14:27:05.906Z</time></trkpt><trkpt lat="45.037655" lon="7.5546574"><ele>286.25</ele><time>2026-05-03T14:27:06.88Z</time></trkpt><trkpt lat="45.0375411" lon="7.5545509"><ele>286.0</ele><time>2026-05-03T14:27:07.928Z</time></trkpt><trkpt lat="45.0374199" lon="7.5544458"><ele>286.0</ele><time>2026-05-03T14:27:08.94Z</time></trkpt><trkpt lat="45.0373066" lon="7.5543185"><ele>286.0</ele><time>2026-05-03T14:27:09.95Z</time></trkpt><trkpt lat="45.0372254" lon="7.5541703"><ele>286.0</ele><time>2026-05-03T14:27:10.957Z</time></trkpt><trkpt lat="45.0371391" lon="7.5540264"><ele>286.0</ele><time>2026-05-03T14:27:11.959Z</time></trkpt><trkpt lat="45.0370346" lon="7.5539113"><ele>286.0</ele><time>2026-05-03T14:27:12.928Z</time></trkpt><trkpt lat="45.036905" lon="7.5538276"><ele>286.0</ele><time>2026-05-03T14:27:13.941Z</time></trkpt><trkpt lat="45.0367652" lon="7.5537745"><ele>286.0</ele><time>2026-05-03T14:27:14.922Z</time></trkpt><trkpt lat="45.0366081" lon="7.553732"><ele>286.0</ele><time>2026-05-03T14:27:15.96Z</time></trkpt><trkpt lat="45.0364601" lon="7.5537158"><ele>286.6</ele><time>2026-05-03T14:27:16.946Z</time></trkpt><trkpt lat="45.0363238" lon="7.5536958"><ele>287.20000000000005</ele><time>2026-05-03T14:27:17.939Z</time></trkpt><trkpt lat="45.03622" lon="7.5536571"><ele>287.79999999999995</ele><time>2026-05-03T14:27:18.9Z</time></trkpt><trkpt lat="45.0361534" lon="7.5535893"><ele>288.4</ele><time>2026-05-03T14:27:19.879Z</time></trkpt><trkpt lat="45.0361269" lon="7.5534908"><ele>289.0</ele><time>2026-05-03T14:27:20.877Z</time></trkpt><trkpt lat="45.0361321" lon="7.5533794"><ele>289.0</ele><time>2026-05-03T14:27:21.887Z</time></trkpt><trkpt lat="45.036151" lon="7.5532514"><ele>289.0</ele><time>2026-05-03T14:27:22.89Z</time></trkpt><trkpt lat="45.0362022" lon="7.5530754"><ele>289.0</ele><time>2026-05-03T14:27:23.958Z</time></trkpt><trkpt lat="45.0362378" lon="7.5528952"><ele>289.0</ele><time>2026-05-03T14:27:24.927Z</time></trkpt><trkpt lat="45.0362749" lon="7.552704"><ele>289.0</ele><time>2026-05-03T14:27:25.923Z</time></trkpt><trkpt lat="45.0363139" lon="7.5525008"><ele>289.0</ele><time>2026-05-03T14:27:26.902Z</time></trkpt><trkpt lat="45.0363709" lon="7.552305"><ele>289.0</ele><time>2026-05-03T14:27:27.884Z</time></trkpt><trkpt lat="45.0364242" lon="7.5521211"><ele>289.0</ele><time>2026-05-03T14:27:28.908Z</time></trkpt><trkpt lat="45.0364575" lon="7.5519422"><ele>289.0</ele><time>2026-05-03T14:27:29.876Z</time></trkpt><trkpt lat="45.0364616" lon="7.5517478"><ele>289.0</ele><time>2026-05-03T14:27:30.888Z</time></trkpt><trkpt lat="45.0364329" lon="7.5515685"><ele>289.0</ele><time>2026-05-03T14:27:31.887Z</time></trkpt><trkpt lat="45.0363811" lon="7.5514229"><ele>289.0</ele><time>2026-05-03T14:27:32.909Z</time></trkpt><trkpt lat="45.0363236" lon="7.5512904"><ele>288.8</ele><time>2026-05-03T14:27:33.915Z</time></trkpt><trkpt lat="45.0362749" lon="7.5511551"><ele>288.59999999999997</ele><time>2026-05-03T14:27:34.933Z</time></trkpt><trkpt lat="45.0362338" lon="7.5510395"><ele>288.4</ele><time>2026-05-03T14:27:35.913Z</time></trkpt><trkpt lat="45.0361978" lon="7.550918"><ele>288.2</ele><time>2026-05-03T14:27:36.915Z</time></trkpt><trkpt lat="45.0361476" lon="7.5507586"><ele>288.0</ele><time>2026-05-03T14:27:37.951Z</time></trkpt><trkpt lat="45.0361051" lon="7.5505863"><ele>287.6666666666667</ele><time>2026-05-03T14:27:38.897Z</time></trkpt><trkpt lat="45.0360838" lon="7.5503593"><ele>287.33333333333337</ele><time>2026-05-03T14:27:39.959Z</time></trkpt><trkpt lat="45.0360688" lon="7.55013"><ele>287.0</ele><time>2026-05-03T14:27:40.937Z</time></trkpt><trkpt lat="45.0360502" lon="7.5498967"><ele>287.0</ele><time>2026-05-03T14:27:41.907Z</time></trkpt><trkpt lat="45.0360092" lon="7.5496602"><ele>287.0</ele><time>2026-05-03T14:27:42.898Z</time></trkpt><trkpt lat="45.0359415" lon="7.5494143"><ele>287.0</ele><time>2026-05-03T14:27:43.936Z</time></trkpt><trkpt lat="45.0358594" lon="7.5491798"><ele>287.0</ele><time>2026-05-03T14:27:44.936Z</time></trkpt><trkpt lat="45.0357693" lon="7.5489399"><ele>287.0</ele><time>2026-05-03T14:27:45.894Z</time></trkpt><trkpt lat="45.0356827" lon="7.5486992"><ele>287.0</ele><time>2026-05-03T14:27:46.914Z</time></trkpt><trkpt lat="45.0356041" lon="7.548444"><ele>287.0</ele><time>2026-05-03T14:27:47.94Z</time></trkpt><trkpt lat="45.03553" lon="7.5481937"><ele>287.0</ele><time>2026-05-03T14:27:48.892Z</time></trkpt><trkpt lat="45.035284" lon="7.5474475"><ele>288.5</ele><time>2026-05-03T14:27:51.88Z</time></trkpt><trkpt lat="45.035076" lon="7.5469801"><ele>290.0</ele><time>2026-05-03T14:27:53.893Z</time></trkpt><trkpt lat="45.0349776" lon="7.5467417"><ele>290.33333333333337</ele><time>2026-05-03T14:27:54.881Z</time></trkpt><trkpt lat="45.0348904" lon="7.5464858"><ele>290.6666666666667</ele><time>2026-05-03T14:27:55.895Z</time></trkpt><trkpt lat="45.0348026" lon="7.5462366"><ele>291.0</ele><time>2026-05-03T14:27:56.898Z</time></trkpt><trkpt lat="45.034719" lon="7.5459704"><ele>291.3333333333333</ele><time>2026-05-03T14:27:57.893Z</time></trkpt><trkpt lat="45.0346428" lon="7.5456956"><ele>291.66666666666663</ele><time>2026-05-03T14:27:58.883Z</time></trkpt><trkpt lat="45.0345757" lon="7.5454122"><ele>292.0</ele><time>2026-05-03T14:27:59.885Z</time></trkpt><trkpt lat="45.0345026" lon="7.5451312"><ele>291.3333333333333</ele><time>2026-05-03T14:28:00.886Z</time></trkpt><trkpt lat="45.0344263" lon="7.5448478"><ele>290.6666666666667</ele><time>2026-05-03T14:28:01.889Z</time></trkpt><trkpt lat="45.0343474" lon="7.5445728"><ele>290.0</ele><time>2026-05-03T14:28:02.883Z</time></trkpt><trkpt lat="45.0342695" lon="7.5442987"><ele>290.0</ele><time>2026-05-03T14:28:03.903Z</time></trkpt><trkpt lat="45.034198" lon="7.5440118"><ele>290.0</ele><time>2026-05-03T14:28:04.884Z</time></trkpt><trkpt lat="45.0341413" lon="7.5437144"><ele>290.0</ele><time>2026-05-03T14:28:05.9Z</time></trkpt><trkpt lat="45.0340913" lon="7.5434118"><ele>290.0</ele><time>2026-05-03T14:28:06.9Z</time></trkpt><trkpt lat="45.0340571" lon="7.5431249"><ele>290.0</ele><time>2026-05-03T14:28:07.895Z</time></trkpt><trkpt lat="45.0340281" lon="7.5428556"><ele>290.0</ele><time>2026-05-03T14:28:08.896Z</time></trkpt><trkpt lat="45.0340016" lon="7.5426025"><ele>290.0</ele><time>2026-05-03T14:28:09.882Z</time></trkpt><trkpt lat="45.0339657" lon="7.5423593"><ele>290.0</ele><time>2026-05-03T14:28:10.886Z</time></trkpt><trkpt lat="45.0339063" lon="7.5421345"><ele>290.0</ele><time>2026-05-03T14:28:11.889Z</time></trkpt><trkpt lat="45.0338067" lon="7.5419436"><ele>290.0</ele><time>2026-05-03T14:28:12.889Z</time></trkpt><trkpt lat="45.0336833" lon="7.5417644"><ele>290.0</ele><time>2026-05-03T14:28:13.894Z</time></trkpt><trkpt lat="45.0335445" lon="7.5416111"><ele>290.0</ele><time>2026-05-03T14:28:14.9Z</time></trkpt><trkpt lat="45.0334188" lon="7.5414635"><ele>290.0</ele><time>2026-05-03T14:28:15.899Z</time></trkpt><trkpt lat="45.0333117" lon="7.5413118"><ele>290.0</ele><time>2026-05-03T14:28:16.882Z</time></trkpt><trkpt lat="45.0332293" lon="7.5411523"><ele>290.0</ele><time>2026-05-03T14:28:17.891Z</time></trkpt><trkpt lat="45.0331796" lon="7.5409625"><ele>290.0</ele><time>2026-05-03T14:28:18.883Z</time></trkpt><trkpt lat="45.0331804" lon="7.5407497"><ele>290.0</ele><time>2026-05-03T14:28:19.891Z</time></trkpt><trkpt lat="45.0332171" lon="7.5405104"><ele>290.0</ele><time>2026-05-03T14:28:20.894Z</time></trkpt><trkpt lat="45.0332751" lon="7.5402661"><ele>290.0</ele><time>2026-05-03T14:28:21.896Z</time></trkpt><trkpt lat="45.0333086" lon="7.5400065"><ele>287.6666666666667</ele><time>2026-05-03T14:28:22.894Z</time></trkpt><trkpt lat="45.0332985" lon="7.5397218"><ele>285.3333333333333</ele><time>2026-05-03T14:28:23.891Z</time></trkpt><trkpt lat="45.0332865" lon="7.5394183"><ele>283.0</ele><time>2026-05-03T14:28:24.891Z</time></trkpt><trkpt lat="45.033298" lon="7.5391026"><ele>283.5</ele><time>2026-05-03T14:28:25.885Z</time></trkpt><trkpt lat="45.0333401" lon="7.5387978"><ele>284.0</ele><time>2026-05-03T14:28:26.894Z</time></trkpt><trkpt lat="45.0333835" lon="7.5384743"><ele>284.0</ele><time>2026-05-03T14:28:27.89Z</time></trkpt><trkpt lat="45.0334261" lon="7.5381374"><ele>284.0</ele><time>2026-05-03T14:28:28.893Z</time></trkpt><trkpt lat="45.0334629" lon="7.5378025"><ele>284.0</ele><time>2026-05-03T14:28:29.889Z</time></trkpt><trkpt lat="45.0334979" lon="7.5374704"><ele>284.0</ele><time>2026-05-03T14:28:30.881Z</time></trkpt><trkpt lat="45.0335321" lon="7.5371456"><ele>284.6666666666667</ele><time>2026-05-03T14:28:31.891Z</time></trkpt><trkpt lat="45.0335666" lon="7.5368389"><ele>285.3333333333333</ele><time>2026-05-03T14:28:32.89Z</time></trkpt><trkpt lat="45.0335969" lon="7.5365401"><ele>286.0</ele><time>2026-05-03T14:28:33.898Z</time></trkpt><trkpt lat="45.0336163" lon="7.5362565"><ele>286.66666666666663</ele><time>2026-05-03T14:28:34.898Z</time></trkpt><trkpt lat="45.0336152" lon="7.5359829"><ele>287.3333333333333</ele><time>2026-05-03T14:28:35.897Z</time></trkpt><trkpt lat="45.0335802" lon="7.5357143"><ele>288.0</ele><time>2026-05-03T14:28:36.893Z</time></trkpt><trkpt lat="45.0335191" lon="7.5354457"><ele>289.0</ele><time>2026-05-03T14:28:37.905Z</time></trkpt><trkpt lat="45.0334294" lon="7.5351813"><ele>290.0</ele><time>2026-05-03T14:28:38.89Z</time></trkpt><trkpt lat="45.0333244" lon="7.5349199"><ele>291.0</ele><time>2026-05-03T14:28:39.888Z</time></trkpt><trkpt lat="45.0332108" lon="7.5346518"><ele>291.6666666666667</ele><time>2026-05-03T14:28:40.897Z</time></trkpt><trkpt lat="45.0330957" lon="7.5343815"><ele>292.33333333333337</ele><time>2026-05-03T14:28:41.9Z</time></trkpt><trkpt lat="45.0329775" lon="7.5341092"><ele>293.0</ele><time>2026-05-03T14:28:42.896Z</time></trkpt><trkpt lat="45.0328628" lon="7.5338314"><ele>293.0</ele><time>2026-05-03T14:28:43.89Z</time></trkpt><trkpt lat="45.0327495" lon="7.5335598"><ele>293.0</ele><time>2026-05-03T14:28:44.887Z</time></trkpt><trkpt lat="45.0326406" lon="7.5333063"><ele>293.0</ele><time>2026-05-03T14:28:45.9Z</time></trkpt><trkpt lat="45.0325405" lon="7.533072"><ele>293.33333333333337</ele><time>2026-05-03T14:28:46.884Z</time></trkpt><trkpt lat="45.0324417" lon="7.532845"><ele>293.6666666666667</ele><time>2026-05-03T14:28:47.894Z</time></trkpt><trkpt lat="45.0323398" lon="7.5326235"><ele>294.0</ele><time>2026-05-03T14:28:48.893Z</time></trkpt><trkpt lat="45.0322405" lon="7.5324178"><ele>294.0</ele><time>2026-05-03T14:28:49.887Z</time></trkpt><trkpt lat="45.0321387" lon="7.5322316"><ele>294.0</ele><time>2026-05-03T14:28:50.905Z</time></trkpt><trkpt lat="45.0320229" lon="7.5320761"><ele>294.0</ele><time>2026-05-03T14:28:51.892Z</time></trkpt><trkpt lat="45.031886" lon="7.5319486"><ele>294.0</ele><time>2026-05-03T14:28:52.887Z</time></trkpt><trkpt lat="45.0317456" lon="7.5318325"><ele>294.0</ele><time>2026-05-03T14:28:53.894Z</time></trkpt><trkpt lat="45.0316209" lon="7.5317218"><ele>294.0</ele><time>2026-05-03T14:28:54.897Z</time></trkpt><trkpt lat="45.0315052" lon="7.5316247"><ele>294.0</ele><time>2026-05-03T14:28:55.892Z</time></trkpt><trkpt lat="45.0314099" lon="7.5315223"><ele>293.8</ele><time>2026-05-03T14:28:56.894Z</time></trkpt><trkpt lat="45.0313469" lon="7.5313996"><ele>293.59999999999997</ele><time>2026-05-03T14:28:57.891Z</time></trkpt><trkpt lat="45.0313286" lon="7.5312703"><ele>293.4</ele><time>2026-05-03T14:28:58.907Z</time></trkpt><trkpt lat="45.0313591" lon="7.5311374"><ele>293.2</ele><time>2026-05-03T14:28:59.889Z</time></trkpt><trkpt lat="45.0314101" lon="7.5309891"><ele>293.0</ele><time>2026-05-03T14:29:00.89Z</time></trkpt><trkpt lat="45.0314765" lon="7.530813"><ele>293.0</ele><time>2026-05-03T14:29:01.89Z</time></trkpt><trkpt lat="45.0315466" lon="7.5306103"><ele>293.0</ele><time>2026-05-03T14:29:02.9Z</time></trkpt><trkpt lat="45.0316082" lon="7.5303942"><ele>293.0</ele><time>2026-05-03T14:29:03.895Z</time></trkpt><trkpt lat="45.0316634" lon="7.5301662"><ele>294.0</ele><time>2026-05-03T14:29:04.901Z</time></trkpt><trkpt lat="45.0317078" lon="7.5299241"><ele>295.0</ele><time>2026-05-03T14:29:05.897Z</time></trkpt><trkpt lat="45.0317535" lon="7.5296727"><ele>296.0</ele><time>2026-05-03T14:29:06.89Z</time></trkpt><trkpt lat="45.0318014" lon="7.5294126"><ele>296.0</ele><time>2026-05-03T14:29:07.893Z</time></trkpt><trkpt lat="45.0318551" lon="7.5291651"><ele>296.0</ele><time>2026-05-03T14:29:08.894Z</time></trkpt><trkpt lat="45.0319022" lon="7.5289373"><ele>296.0</ele><time>2026-05-03T14:29:09.892Z</time></trkpt><trkpt lat="45.0319519" lon="7.5287139"><ele>296.0</ele><time>2026-05-03T14:29:10.895Z</time></trkpt><trkpt lat="45.0320065" lon="7.5285017"><ele>296.0</ele><time>2026-05-03T14:29:11.888Z</time></trkpt><trkpt lat="45.0320583" lon="7.5282974"><ele>296.0</ele><time>2026-05-03T14:29:12.894Z</time></trkpt><trkpt lat="45.0321095" lon="7.5281015"><ele>296.0</ele><time>2026-05-03T14:29:13.892Z</time></trkpt><trkpt lat="45.0321449" lon="7.5279064"><ele>296.0</ele><time>2026-05-03T14:29:14.887Z</time></trkpt><trkpt lat="45.0321654" lon="7.5277148"><ele>296.0</ele><time>2026-05-03T14:29:15.893Z</time></trkpt><trkpt lat="45.0321578" lon="7.527526"><ele>296.0</ele><time>2026-05-03T14:29:16.899Z</time></trkpt><trkpt lat="45.0321256" lon="7.5273327"><ele>294.75</ele><time>2026-05-03T14:29:17.886Z</time></trkpt><trkpt lat="45.03207" lon="7.5271397"><ele>293.5</ele><time>2026-05-03T14:29:18.895Z</time></trkpt><trkpt lat="45.0320048" lon="7.5269615"><ele>292.25</ele><time>2026-05-03T14:29:19.89Z</time></trkpt><trkpt lat="45.031937" lon="7.5267859"><ele>291.0</ele><time>2026-05-03T14:29:20.892Z</time></trkpt><trkpt lat="45.0318725" lon="7.5266149"><ele>290.25</ele><time>2026-05-03T14:29:21.892Z</time></trkpt><trkpt lat="45.0318223" lon="7.5264409"><ele>289.5</ele><time>2026-05-03T14:29:22.891Z</time></trkpt><trkpt lat="45.0317897" lon="7.5262725"><ele>288.75</ele><time>2026-05-03T14:29:23.894Z</time></trkpt><trkpt lat="45.0317648" lon="7.526106"><ele>288.0</ele><time>2026-05-03T14:29:24.903Z</time></trkpt><trkpt lat="45.0317469" lon="7.525952"><ele>287.8333333333333</ele><time>2026-05-03T14:29:25.896Z</time></trkpt><trkpt lat="45.031726" lon="7.5258224"><ele>287.6666666666667</ele><time>2026-05-03T14:29:26.89Z</time></trkpt><trkpt lat="45.0317131" lon="7.5257196"><ele>287.5</ele><time>2026-05-03T14:29:27.9Z</time></trkpt><trkpt lat="45.0316866" lon="7.5256051"><ele>287.33333333333337</ele><time>2026-05-03T14:29:29.891Z</time></trkpt><trkpt lat="45.0316566" lon="7.525524"><ele>287.1666666666667</ele><time>2026-05-03T14:30:10.91Z</time></trkpt><trkpt lat="45.0316282" lon="7.5254234"><ele>287.0</ele><time>2026-05-03T14:30:11.92Z</time></trkpt><trkpt lat="45.0315933" lon="7.5252962"><ele>287.0</ele><time>2026-05-03T14:30:12.903Z</time></trkpt><trkpt lat="45.0315499" lon="7.5251652"><ele>287.0</ele><time>2026-05-03T14:30:13.902Z</time></trkpt><trkpt lat="45.0315173" lon="7.5250391"><ele>287.0</ele><time>2026-05-03T14:30:14.903Z</time></trkpt><trkpt lat="45.0314866" lon="7.5249267"><ele>287.0</ele><time>2026-05-03T14:30:15.906Z</time></trkpt><trkpt lat="45.0314426" lon="7.5248293"><ele>287.0</ele><time>2026-05-03T14:30:16.903Z</time></trkpt><trkpt lat="45.0313715" lon="7.5247618"><ele>287.0</ele><time>2026-05-03T14:30:17.914Z</time></trkpt><trkpt lat="45.0312899" lon="7.5247128"><ele>287.0</ele><time>2026-05-03T14:30:18.897Z</time></trkpt><trkpt lat="45.0312017" lon="7.5246523"><ele>287.0</ele><time>2026-05-03T14:30:19.91Z</time></trkpt><trkpt lat="45.0311131" lon="7.5245877"><ele>287.0</ele><time>2026-05-03T14:30:20.901Z</time></trkpt><trkpt lat="45.0310248" lon="7.5245066"><ele>287.0</ele><time>2026-05-03T14:30:21.903Z</time></trkpt><trkpt lat="45.0309358" lon="7.5244271"><ele>287.0</ele><time>2026-05-03T14:30:22.911Z</time></trkpt><trkpt lat="45.0308545" lon="7.5243487"><ele>287.0</ele><time>2026-05-03T14:30:23.906Z</time></trkpt><trkpt lat="45.0307805" lon="7.5242807"><ele>287.0</ele><time>2026-05-03T14:30:24.92Z</time></trkpt><trkpt lat="45.0307203" lon="7.5242252"><ele>287.0</ele><time>2026-05-03T14:30:25.894Z</time></trkpt><trkpt lat="45.0306647" lon="7.5240637"><ele>287.0</ele><time>2026-05-03T14:30:27.923Z</time></trkpt><trkpt lat="45.0306686" lon="7.5239393"><ele>286.6</ele><time>2026-05-03T14:30:28.907Z</time></trkpt><trkpt lat="45.0306832" lon="7.5237938"><ele>286.2</ele><time>2026-05-03T14:30:29.896Z</time></trkpt><trkpt lat="45.0306835" lon="7.5236417"><ele>285.8</ele><time>2026-05-03T14:30:30.89Z</time></trkpt><trkpt lat="45.0306916" lon="7.5234873"><ele>285.4</ele><time>2026-05-03T14:30:31.899Z</time></trkpt><trkpt lat="45.0306968" lon="7.5233297"><ele>285.0</ele><time>2026-05-03T14:30:32.904Z</time></trkpt><trkpt lat="45.0306988" lon="7.5231623"><ele>285.0</ele><time>2026-05-03T14:30:33.903Z</time></trkpt><trkpt lat="45.030696" lon="7.5230069"><ele>285.0</ele><time>2026-05-03T14:30:34.896Z</time></trkpt><trkpt lat="45.0306989" lon="7.52287"><ele>285.0</ele><time>2026-05-03T14:30:35.899Z</time></trkpt><trkpt lat="45.0307027" lon="7.5227548"><ele>285.0</ele><time>2026-05-03T14:30:36.902Z</time></trkpt><trkpt lat="45.0306877" lon="7.522619"><ele>285.0</ele><time>2026-05-03T14:30:38.906Z</time></trkpt><trkpt lat="45.0306102" lon="7.5225375"><ele>284.8</ele><time>2026-05-03T14:30:40.893Z</time></trkpt><trkpt lat="45.0305097" lon="7.5225071"><ele>284.6</ele><time>2026-05-03T14:30:42.909Z</time></trkpt><trkpt lat="45.0303992" lon="7.5224752"><ele>284.4</ele><time>2026-05-03T14:30:44.907Z</time></trkpt><trkpt lat="45.030297" lon="7.5224127"><ele>284.2</ele><time>2026-05-03T14:30:46.899Z</time></trkpt><trkpt lat="45.0301991" lon="7.5223533"><ele>284.0</ele><time>2026-05-03T14:30:48.9Z</time></trkpt><trkpt lat="45.0301129" lon="7.522308"><ele>284.0</ele><time>2026-05-03T14:30:50.899Z</time></trkpt><trkpt lat="45.0300569" lon="7.522238"><ele>284.0</ele><time>2026-05-03T14:30:52.907Z</time></trkpt><trkpt lat="45.0300736" lon="7.5220563"><ele>284.0</ele><time>2026-05-03T14:30:54.91Z</time></trkpt><trkpt lat="45.030104" lon="7.5219389"><ele>284.0</ele><time>2026-05-03T14:30:55.907Z</time></trkpt><trkpt lat="45.030138" lon="7.5218247"><ele>284.0</ele><time>2026-05-03T14:30:56.902Z</time></trkpt><trkpt lat="45.0301809" lon="7.5217044"><ele>284.2</ele><time>2026-05-03T14:30:57.9Z</time></trkpt><trkpt lat="45.0302176" lon="7.5215687"><ele>284.4</ele><time>2026-05-03T14:30:58.901Z</time></trkpt><trkpt lat="45.0302476" lon="7.5214225"><ele>284.6</ele><time>2026-05-03T14:30:59.898Z</time></trkpt><trkpt lat="45.0302679" lon="7.521268"><ele>284.8</ele><time>2026-05-03T14:31:00.912Z</time></trkpt><trkpt lat="45.0302948" lon="7.5211124"><ele>285.0</ele><time>2026-05-03T14:31:01.914Z</time></trkpt><trkpt lat="45.0303285" lon="7.5209548"><ele>285.0</ele><time>2026-05-03T14:31:02.898Z</time></trkpt><trkpt lat="45.0303591" lon="7.5207882"><ele>285.0</ele><time>2026-05-03T14:31:03.923Z</time></trkpt><trkpt lat="45.0303931" lon="7.5206055"><ele>285.0</ele><time>2026-05-03T14:31:04.909Z</time></trkpt><trkpt lat="45.0304162" lon="7.5204197"><ele>285.0</ele><time>2026-05-03T14:31:05.913Z</time></trkpt><trkpt lat="45.0304418" lon="7.5202359"><ele>285.0</ele><time>2026-05-03T14:31:06.903Z</time></trkpt><trkpt lat="45.0304672" lon="7.520054"><ele>285.0</ele><time>2026-05-03T14:31:07.915Z</time></trkpt><trkpt lat="45.0304853" lon="7.519869"><ele>285.0</ele><time>2026-05-03T14:31:08.903Z</time></trkpt><trkpt lat="45.0304953" lon="7.5196884"><ele>285.0</ele><time>2026-05-03T14:31:09.902Z</time></trkpt><trkpt lat="45.0305007" lon="7.5194997"><ele>285.5</ele><time>2026-05-03T14:31:10.908Z</time></trkpt><trkpt lat="45.030513" lon="7.5193059"><ele>286.0</ele><time>2026-05-03T14:31:11.907Z</time></trkpt><trkpt lat="45.0305369" lon="7.519123"><ele>286.5</ele><time>2026-05-03T14:31:12.902Z</time></trkpt><trkpt lat="45.0305666" lon="7.5189394"><ele>287.0</ele><time>2026-05-03T14:31:13.905Z</time></trkpt><trkpt lat="45.0305972" lon="7.5187533"><ele>287.0</ele><time>2026-05-03T14:31:14.894Z</time></trkpt><trkpt lat="45.030626" lon="7.5185686"><ele>287.0</ele><time>2026-05-03T14:31:15.905Z</time></trkpt><trkpt lat="45.0306532" lon="7.5183791"><ele>287.0</ele><time>2026-05-03T14:31:16.918Z</time></trkpt><trkpt lat="45.030682" lon="7.5181889"><ele>287.0</ele><time>2026-05-03T14:31:17.904Z</time></trkpt><trkpt lat="45.0307087" lon="7.5180084"><ele>287.25</ele><time>2026-05-03T14:31:18.902Z</time></trkpt><trkpt lat="45.0307306" lon="7.5178378"><ele>287.5</ele><time>2026-05-03T14:31:19.896Z</time></trkpt><trkpt lat="45.0307509" lon="7.5176729"><ele>287.75</ele><time>2026-05-03T14:31:20.915Z</time></trkpt><trkpt lat="45.0307572" lon="7.5175127"><ele>288.0</ele><time>2026-05-03T14:31:21.912Z</time></trkpt><trkpt lat="45.0307672" lon="7.517362"><ele>288.0</ele><time>2026-05-03T14:31:22.903Z</time></trkpt><trkpt lat="45.0307725" lon="7.5172187"><ele>288.0</ele><time>2026-05-03T14:31:23.915Z</time></trkpt><trkpt lat="45.0307822" lon="7.5170663"><ele>288.0</ele><time>2026-05-03T14:31:24.905Z</time></trkpt><trkpt lat="45.0307989" lon="7.5169252"><ele>288.0</ele><time>2026-05-03T14:31:25.897Z</time></trkpt><trkpt lat="45.0308247" lon="7.5168049"><ele>288.0</ele><time>2026-05-03T14:31:26.894Z</time></trkpt><trkpt lat="45.0308503" lon="7.516711"><ele>287.75</ele><time>2026-05-03T14:31:27.911Z</time></trkpt><trkpt lat="45.0309227" lon="7.5165883"><ele>287.5</ele><time>2026-05-03T14:31:29.905Z</time></trkpt><trkpt lat="45.0310585" lon="7.5165232"><ele>287.25</ele><time>2026-05-03T14:31:31.889Z</time></trkpt><trkpt lat="45.0311631" lon="7.5164849"><ele>287.0</ele><time>2026-05-03T14:31:32.912Z</time></trkpt><trkpt lat="45.031272" lon="7.5164453"><ele>287.0</ele><time>2026-05-03T14:31:33.892Z</time></trkpt><trkpt lat="45.0313976" lon="7.5163987"><ele>287.0</ele><time>2026-05-03T14:31:34.907Z</time></trkpt><trkpt lat="45.0315276" lon="7.516348"><ele>287.0</ele><time>2026-05-03T14:31:35.903Z</time></trkpt><trkpt lat="45.0316408" lon="7.5163076"><ele>287.0</ele><time>2026-05-03T14:31:36.899Z</time></trkpt><trkpt lat="45.0317433" lon="7.5162685"><ele>287.5</ele><time>2026-05-03T14:31:37.9Z</time></trkpt><trkpt lat="45.0318494" lon="7.5162337"><ele>288.0</ele><time>2026-05-03T14:31:38.895Z</time></trkpt><trkpt lat="45.0319706" lon="7.5161993"><ele>288.5</ele><time>2026-05-03T14:31:39.894Z</time></trkpt><trkpt lat="45.0320994" lon="7.516175"><ele>289.0</ele><time>2026-05-03T14:31:40.889Z</time></trkpt><trkpt lat="45.0322432" lon="7.516161"><ele>289.0</ele><time>2026-05-03T14:31:41.894Z</time></trkpt><trkpt lat="45.0323973" lon="7.5161542"><ele>289.0</ele><time>2026-05-03T14:31:42.89Z</time></trkpt><trkpt lat="45.0325405" lon="7.5161579"><ele>289.0</ele><time>2026-05-03T14:31:43.896Z</time></trkpt><trkpt lat="45.0326691" lon="7.5161622"><ele>289.0</ele><time>2026-05-03T14:31:44.899Z</time></trkpt><trkpt lat="45.0327852" lon="7.5161532"><ele>289.59999999999997</ele><time>2026-05-03T14:31:45.889Z</time></trkpt><trkpt lat="45.0328864" lon="7.5160993"><ele>290.2</ele><time>2026-05-03T14:31:46.887Z</time></trkpt><trkpt lat="45.0329466" lon="7.5159968"><ele>290.79999999999995</ele><time>2026-05-03T14:31:47.896Z</time></trkpt><trkpt lat="45.0329801" lon="7.515859"><ele>291.4</ele><time>2026-05-03T14:31:48.9Z</time></trkpt><trkpt lat="45.0329776" lon="7.5156908"><ele>292.0</ele><time>2026-05-03T14:31:49.896Z</time></trkpt><trkpt lat="45.03297" lon="7.5155068"><ele>292.75</ele><time>2026-05-03T14:31:50.894Z</time></trkpt><trkpt lat="45.0329761" lon="7.5153098"><ele>293.5</ele><time>2026-05-03T14:31:51.894Z</time></trkpt><trkpt lat="45.0329872" lon="7.5151193"><ele>294.25</ele><time>2026-05-03T14:31:52.894Z</time></trkpt><trkpt lat="45.0329932" lon="7.5149452"><ele>295.0</ele><time>2026-05-03T14:31:53.904Z</time></trkpt><trkpt lat="45.033005" lon="7.5147991"><ele>295.0</ele><time>2026-05-03T14:31:54.891Z</time></trkpt><trkpt lat="45.0330146" lon="7.5146462"><ele>295.0</ele><time>2026-05-03T14:31:55.9Z</time></trkpt><trkpt lat="45.0330416" lon="7.51448"><ele>295.0</ele><time>2026-05-03T14:31:56.898Z</time></trkpt><trkpt lat="45.033071" lon="7.5143117"><ele>295.0</ele><time>2026-05-03T14:31:57.894Z</time></trkpt><trkpt lat="45.0330996" lon="7.5141589"><ele>295.16666666666663</ele><time>2026-05-03T14:31:58.902Z</time></trkpt><trkpt lat="45.0331325" lon="7.5140224"><ele>295.3333333333333</ele><time>2026-05-03T14:31:59.903Z</time></trkpt><trkpt lat="45.0331525" lon="7.513905"><ele>295.5</ele><time>2026-05-03T14:32:00.893Z</time></trkpt><trkpt lat="45.0331594" lon="7.5137881"><ele>295.6666666666667</ele><time>2026-05-03T14:32:01.892Z</time></trkpt><trkpt lat="45.0331446" lon="7.5136842"><ele>295.83333333333337</ele><time>2026-05-03T14:32:02.891Z</time></trkpt><trkpt lat="45.0331194" lon="7.5135845"><ele>296.0</ele><time>2026-05-03T14:32:03.893Z</time></trkpt><trkpt lat="45.0330982" lon="7.5134895"><ele>298.0</ele><time>2026-05-03T14:32:04.894Z</time></trkpt><trkpt lat="45.0330724" lon="7.5133326"><ele>298.0</ele><time>2026-05-03T14:32:06.896Z</time></trkpt><trkpt lat="45.033076" lon="7.5132159"><ele>298.0</ele><time>2026-05-03T14:32:08.892Z</time></trkpt><trkpt lat="45.033076" lon="7.5132159"><ele>298.0</ele><time>2026-05-03T14:32:08.892Z</time></trkpt></trkseg></trk></gpx>